<?xml version='1.0' encoding='UTF-8'?><gpx version="1.1" creator="JPX - https://github.com/jenetics/jpx" xmlns="http://www.topografix.com/GPX/1/1"><trk><trkseg><trkpt lat="43.4703346" lon="11.4336567"><ele>362.0</ele><time>2026-04-22T13:09:18.083Z</time></trkpt><trkpt lat="43.470269" lon="11.4336752"><ele>362.0</ele><time>2026-04-22T13:09:19.085Z</time></trkpt><trkpt lat="43.4702004" lon="11.4336924"><ele>362.0</ele><time>2026-04-22T13:09:20.084Z</time></trkpt><trkpt lat="43.4701353" lon="11.4337035"><ele>362.0</ele><time>2026-04-22T13:09:21.083Z</time></trkpt><trkpt lat="43.4700134" lon="11.4337162"><ele>362.0</ele><time>2026-04-22T13:09:23.089Z</time></trkpt><trkpt lat="43.4698994" lon="11.4337134"><ele>362.0</ele><time>2026-04-22T13:09:25.087Z</time></trkpt><trkpt lat="43.4697836" lon="11.4336955"><ele>362.0</ele><time>2026-04-22T13:09:27.08Z</time></trkpt><trkpt lat="43.46967" lon="11.4336578"><ele>362.0</ele><time>2026-04-22T13:09:29.085Z</time></trkpt><trkpt lat="43.4695838" lon="11.433591"><ele>362.0</ele><time>2026-04-22T13:09:31.087Z</time></trkpt><trkpt lat="43.4695003" lon="11.4335102"><ele>362.0</ele><time>2026-04-22T13:09:33.084Z</time></trkpt><trkpt lat="43.4694482" lon="11.4334603"><ele>362.0</ele><time>2026-04-22T13:09:34.085Z</time></trkpt><trkpt lat="43.4693934" lon="11.4334083"><ele>362.0</ele><time>2026-04-22T13:09:35.087Z</time></trkpt><trkpt lat="43.4693057" lon="11.4333192"><ele>361.5</ele><time>2026-04-22T13:09:37.086Z</time></trkpt><trkpt lat="43.4692785" lon="11.4332366"><ele>361.0</ele><time>2026-04-22T13:09:39.09Z</time></trkpt><trkpt lat="43.4692322" lon="11.4331376"><ele>360.5</ele><time>2026-04-22T13:09:43.081Z</time></trkpt><trkpt lat="43.4691379" lon="11.433135"><ele>360.0</ele><time>2026-04-22T13:09:45.084Z</time></trkpt><trkpt lat="43.4690713" lon="11.4331374"><ele>359.5</ele><time>2026-04-22T13:09:46.079Z</time></trkpt><trkpt lat="43.468994" lon="11.4331475"><ele>359.0</ele><time>2026-04-22T13:09:47.091Z</time></trkpt><trkpt lat="43.468915" lon="11.4331666"><ele>359.0</ele><time>2026-04-22T13:09:48.086Z</time></trkpt><trkpt lat="43.4688382" lon="11.4331822"><ele>359.0</ele><time>2026-04-22T13:09:49.083Z</time></trkpt><trkpt lat="43.4687637" lon="11.4331888"><ele>359.0</ele><time>2026-04-22T13:09:50.081Z</time></trkpt><trkpt lat="43.4686942" lon="11.4331928"><ele>359.0</ele><time>2026-04-22T13:09:51.09Z</time></trkpt><trkpt lat="43.4686314" lon="11.4332048"><ele>359.0</ele><time>2026-04-22T13:09:52.086Z</time></trkpt><trkpt lat="43.4685689" lon="11.4332266"><ele>359.0</ele><time>2026-04-22T13:09:53.087Z</time></trkpt><trkpt lat="43.4685045" lon="11.4332631"><ele>359.0</ele><time>2026-04-22T13:09:54.084Z</time></trkpt><trkpt lat="43.4684297" lon="11.433303"><ele>358.83333333333337</ele><time>2026-04-22T13:09:55.087Z</time></trkpt><trkpt lat="43.4683477" lon="11.4333456"><ele>358.6666666666667</ele><time>2026-04-22T13:09:56.085Z</time></trkpt><trkpt lat="43.4682637" lon="11.4333972"><ele>358.5</ele><time>2026-04-22T13:09:57.087Z</time></trkpt><trkpt lat="43.4681825" lon="11.4334502"><ele>358.3333333333333</ele><time>2026-04-22T13:09:58.091Z</time></trkpt><trkpt lat="43.4681045" lon="11.4335096"><ele>358.16666666666663</ele><time>2026-04-22T13:09:59.087Z</time></trkpt><trkpt lat="43.4680328" lon="11.4335734"><ele>358.0</ele><time>2026-04-22T13:10:00.086Z</time></trkpt><trkpt lat="43.467967" lon="11.4336397"><ele>357.5</ele><time>2026-04-22T13:10:01.088Z</time></trkpt><trkpt lat="43.467901" lon="11.4337087"><ele>357.0</ele><time>2026-04-22T13:10:02.088Z</time></trkpt><trkpt lat="43.4678358" lon="11.4337821"><ele>356.5</ele><time>2026-04-22T13:10:03.098Z</time></trkpt><trkpt lat="43.4677686" lon="11.4338528"><ele>356.0</ele><time>2026-04-22T13:10:04.088Z</time></trkpt><trkpt lat="43.4676996" lon="11.4339217"><ele>355.5</ele><time>2026-04-22T13:10:05.084Z</time></trkpt><trkpt lat="43.4676328" lon="11.4339858"><ele>355.0</ele><time>2026-04-22T13:10:06.087Z</time></trkpt><trkpt lat="43.467569" lon="11.4340451"><ele>354.8333333333333</ele><time>2026-04-22T13:10:07.086Z</time></trkpt><trkpt lat="43.4675064" lon="11.4340981"><ele>354.66666666666663</ele><time>2026-04-22T13:10:08.093Z</time></trkpt><trkpt lat="43.4674423" lon="11.4341464"><ele>354.5</ele><time>2026-04-22T13:10:09.085Z</time></trkpt><trkpt lat="43.4673725" lon="11.4341888"><ele>354.3333333333333</ele><time>2026-04-22T13:10:10.083Z</time></trkpt><trkpt lat="43.4672943" lon="11.4342249"><ele>354.1666666666667</ele><time>2026-04-22T13:10:11.091Z</time></trkpt><trkpt lat="43.4672111" lon="11.4342535"><ele>354.0</ele><time>2026-04-22T13:10:12.083Z</time></trkpt><trkpt lat="43.4671313" lon="11.4342804"><ele>353.5</ele><time>2026-04-22T13:10:13.09Z</time></trkpt><trkpt lat="43.4670536" lon="11.4343026"><ele>353.0</ele><time>2026-04-22T13:10:14.084Z</time></trkpt><trkpt lat="43.4669737" lon="11.4343209"><ele>352.5</ele><time>2026-04-22T13:10:15.088Z</time></trkpt><trkpt lat="43.4668875" lon="11.4343374"><ele>352.0</ele><time>2026-04-22T13:10:16.086Z</time></trkpt><trkpt lat="43.4667994" lon="11.434354"><ele>351.5</ele><time>2026-04-22T13:10:17.09Z</time></trkpt><trkpt lat="43.4667143" lon="11.4343665"><ele>351.0</ele><time>2026-04-22T13:10:18.09Z</time></trkpt><trkpt lat="43.4666288" lon="11.4343714"><ele>351.0</ele><time>2026-04-22T13:10:19.087Z</time></trkpt><trkpt lat="43.466539" lon="11.4343721"><ele>351.0</ele><time>2026-04-22T13:10:20.088Z</time></trkpt><trkpt lat="43.4664453" lon="11.4343709"><ele>351.0</ele><time>2026-04-22T13:10:21.087Z</time></trkpt><trkpt lat="43.4663435" lon="11.4343659"><ele>351.0</ele><time>2026-04-22T13:10:22.083Z</time></trkpt><trkpt lat="43.4662337" lon="11.4343496"><ele>351.0</ele><time>2026-04-22T13:10:23.082Z</time></trkpt><trkpt lat="43.4661169" lon="11.434322"><ele>350.25</ele><time>2026-04-22T13:10:24.09Z</time></trkpt><trkpt lat="43.4659957" lon="11.4342856"><ele>349.5</ele><time>2026-04-22T13:10:25.091Z</time></trkpt><trkpt lat="43.4658671" lon="11.4342395"><ele>348.75</ele><time>2026-04-22T13:10:26.095Z</time></trkpt><trkpt lat="43.465743" lon="11.4341875"><ele>348.0</ele><time>2026-04-22T13:10:27.105Z</time></trkpt><trkpt lat="43.4656278" lon="11.4341311"><ele>348.0</ele><time>2026-04-22T13:10:28.086Z</time></trkpt><trkpt lat="43.4655253" lon="11.4340583"><ele>348.0</ele><time>2026-04-22T13:10:29.091Z</time></trkpt><trkpt lat="43.4654394" lon="11.4339635"><ele>348.0</ele><time>2026-04-22T13:10:30.092Z</time></trkpt><trkpt lat="43.4653606" lon="11.4338576"><ele>348.0</ele><time>2026-04-22T13:10:31.093Z</time></trkpt><trkpt lat="43.4652871" lon="11.4337407"><ele>348.0</ele><time>2026-04-22T13:10:32.109Z</time></trkpt><trkpt lat="43.4652168" lon="11.4336271"><ele>348.0</ele><time>2026-04-22T13:10:33.098Z</time></trkpt><trkpt lat="43.4651516" lon="11.4335255"><ele>348.0</ele><time>2026-04-22T13:10:34.093Z</time></trkpt><trkpt lat="43.4650921" lon="11.433434"><ele>348.0</ele><time>2026-04-22T13:10:35.09Z</time></trkpt><trkpt lat="43.4650351" lon="11.4333554"><ele>348.0</ele><time>2026-04-22T13:10:36.092Z</time></trkpt><trkpt lat="43.4649758" lon="11.4332827"><ele>348.0</ele><time>2026-04-22T13:10:37.092Z</time></trkpt><trkpt lat="43.464908" lon="11.4332204"><ele>348.0</ele><time>2026-04-22T13:10:38.1Z</time></trkpt><trkpt lat="43.4648348" lon="11.4331678"><ele>348.0</ele><time>2026-04-22T13:10:39.112Z</time></trkpt><trkpt lat="43.4647608" lon="11.433122"><ele>348.0</ele><time>2026-04-22T13:10:40.104Z</time></trkpt><trkpt lat="43.4646907" lon="11.4330786"><ele>348.0</ele><time>2026-04-22T13:10:41.11Z</time></trkpt><trkpt lat="43.4646256" lon="11.4330356"><ele>348.0</ele><time>2026-04-22T13:10:42.102Z</time></trkpt><trkpt lat="43.4645654" lon="11.4329889"><ele>348.0</ele><time>2026-04-22T13:10:43.106Z</time></trkpt><trkpt lat="43.4645074" lon="11.4329339"><ele>348.0</ele><time>2026-04-22T13:10:44.102Z</time></trkpt><trkpt lat="43.4644488" lon="11.4328718"><ele>348.0</ele><time>2026-04-22T13:10:45.098Z</time></trkpt><trkpt lat="43.4643919" lon="11.4328069"><ele>348.1666666666667</ele><time>2026-04-22T13:10:46.093Z</time></trkpt><trkpt lat="43.4643397" lon="11.4327423"><ele>348.3333333333333</ele><time>2026-04-22T13:10:47.1Z</time></trkpt><trkpt lat="43.4642919" lon="11.4326772"><ele>348.5</ele><time>2026-04-22T13:10:48.094Z</time></trkpt><trkpt lat="43.4642489" lon="11.4326033"><ele>348.66666666666663</ele><time>2026-04-22T13:10:49.105Z</time></trkpt><trkpt lat="43.4642098" lon="11.4325265"><ele>348.8333333333333</ele><time>2026-04-22T13:10:50.097Z</time></trkpt><trkpt lat="43.4641473" lon="11.4323872"><ele>349.0</ele><time>2026-04-22T13:10:52.091Z</time></trkpt><trkpt lat="43.4640958" lon="11.4322599"><ele>349.0</ele><time>2026-04-22T13:10:54.106Z</time></trkpt><trkpt lat="43.4640583" lon="11.4321482"><ele>349.0</ele><time>2026-04-22T13:10:56.111Z</time></trkpt><trkpt lat="43.4640201" lon="11.4322348"><ele>349.0</ele><time>2026-04-22T13:11:07.095Z</time></trkpt><trkpt lat="43.4640561" lon="11.4323205"><ele>349.0</ele><time>2026-04-22T13:11:08.09Z</time></trkpt><trkpt lat="43.4641155" lon="11.432455"><ele>349.0</ele><time>2026-04-22T13:11:09.091Z</time></trkpt><trkpt lat="43.4641918" lon="11.4326124"><ele>349.0</ele><time>2026-04-22T13:11:10.095Z</time></trkpt><trkpt lat="43.4642828" lon="11.4327732"><ele>349.0</ele><time>2026-04-22T13:11:11.088Z</time></trkpt><trkpt lat="43.464386" lon="11.4329169"><ele>349.0</ele><time>2026-04-22T13:11:12.088Z</time></trkpt><trkpt lat="43.4644943" lon="11.4330397"><ele>349.0</ele><time>2026-04-22T13:11:13.091Z</time></trkpt><trkpt lat="43.4646021" lon="11.4331346"><ele>348.79999999999995</ele><time>2026-04-22T13:11:14.093Z</time></trkpt><trkpt lat="43.4647142" lon="11.433202"><ele>348.59999999999997</ele><time>2026-04-22T13:11:15.092Z</time></trkpt><trkpt lat="43.4648244" lon="11.43326"><ele>348.4</ele><time>2026-04-22T13:11:16.086Z</time></trkpt><trkpt lat="43.4649269" lon="11.433298"><ele>348.2</ele><time>2026-04-22T13:11:17.083Z</time></trkpt><trkpt lat="43.465025" lon="11.4333073"><ele>348.0</ele><time>2026-04-22T13:11:18.087Z</time></trkpt><trkpt lat="43.4651073" lon="11.4332776"><ele>348.0</ele><time>2026-04-22T13:11:19.092Z</time></trkpt><trkpt lat="43.4651882" lon="11.4332289"><ele>348.0</ele><time>2026-04-22T13:11:20.087Z</time></trkpt><trkpt lat="43.465271" lon="11.4331936"><ele>348.0</ele><time>2026-04-22T13:11:21.082Z</time></trkpt><trkpt lat="43.4653552" lon="11.4332145"><ele>348.0</ele><time>2026-04-22T13:11:22.083Z</time></trkpt><trkpt lat="43.4654495" lon="11.4332727"><ele>348.0</ele><time>2026-04-22T13:11:23.091Z</time></trkpt><trkpt lat="43.4655521" lon="11.4333434"><ele>348.0</ele><time>2026-04-22T13:11:24.09Z</time></trkpt><trkpt lat="43.4656593" lon="11.4333991"><ele>348.0</ele><time>2026-04-22T13:11:25.089Z</time></trkpt><trkpt lat="43.4657709" lon="11.4334359"><ele>348.0</ele><time>2026-04-22T13:11:26.086Z</time></trkpt><trkpt lat="43.4658845" lon="11.4334678"><ele>348.0</ele><time>2026-04-22T13:11:27.089Z</time></trkpt><trkpt lat="43.4659891" lon="11.433491"><ele>348.0</ele><time>2026-04-22T13:11:28.083Z</time></trkpt><trkpt lat="43.4660756" lon="11.4335064"><ele>348.0</ele><time>2026-04-22T13:11:29.088Z</time></trkpt><trkpt lat="43.4661518" lon="11.4335096"><ele>348.0</ele><time>2026-04-22T13:11:30.085Z</time></trkpt><trkpt lat="43.4662369" lon="11.4334961"><ele>348.0</ele><time>2026-04-22T13:11:31.088Z</time></trkpt><trkpt lat="43.466328" lon="11.4334648"><ele>348.0</ele><time>2026-04-22T13:11:32.09Z</time></trkpt><trkpt lat="43.4664248" lon="11.4334099"><ele>348.0</ele><time>2026-04-22T13:11:33.085Z</time></trkpt><trkpt lat="43.4665239" lon="11.4333373"><ele>349.0</ele><time>2026-04-22T13:11:34.089Z</time></trkpt><trkpt lat="43.4666244" lon="11.4332532"><ele>350.0</ele><time>2026-04-22T13:11:35.09Z</time></trkpt><trkpt lat="43.4667303" lon="11.4331704"><ele>351.0</ele><time>2026-04-22T13:11:36.09Z</time></trkpt><trkpt lat="43.4668408" lon="11.4330948"><ele>352.0</ele><time>2026-04-22T13:11:37.087Z</time></trkpt><trkpt lat="43.466953" lon="11.4330238"><ele>354.0</ele><time>2026-04-22T13:11:38.092Z</time></trkpt><trkpt lat="43.4670629" lon="11.4329547"><ele>356.0</ele><time>2026-04-22T13:11:39.085Z</time></trkpt><trkpt lat="43.4671697" lon="11.4328881"><ele>358.0</ele><time>2026-04-22T13:11:40.087Z</time></trkpt><trkpt lat="43.4672743" lon="11.432825"><ele>360.0</ele><time>2026-04-22T13:11:41.092Z</time></trkpt><trkpt lat="43.4673762" lon="11.4327642"><ele>360.5</ele><time>2026-04-22T13:11:42.082Z</time></trkpt><trkpt lat="43.4674806" lon="11.432698"><ele>361.0</ele><time>2026-04-22T13:11:43.086Z</time></trkpt><trkpt lat="43.467586" lon="11.4326305"><ele>361.5</ele><time>2026-04-22T13:11:44.087Z</time></trkpt><trkpt lat="43.4676902" lon="11.4325643"><ele>362.0</ele><time>2026-04-22T13:11:45.092Z</time></trkpt><trkpt lat="43.4677925" lon="11.4324979"><ele>362.0</ele><time>2026-04-22T13:11:46.089Z</time></trkpt><trkpt lat="43.4678869" lon="11.4324335"><ele>362.0</ele><time>2026-04-22T13:11:47.088Z</time></trkpt><trkpt lat="43.4679658" lon="11.4323787"><ele>362.0</ele><time>2026-04-22T13:11:48.09Z</time></trkpt><trkpt lat="43.4680469" lon="11.432315"><ele>362.0</ele><time>2026-04-22T13:11:50.09Z</time></trkpt><trkpt lat="43.4679996" lon="11.432245"><ele>362.0</ele><time>2026-04-22T13:11:58.087Z</time></trkpt><trkpt lat="43.4680185" lon="11.4323451"><ele>362.0</ele><time>2026-04-22T13:12:04.089Z</time></trkpt><trkpt lat="43.4681357" lon="11.4323438"><ele>362.40000000000003</ele><time>2026-04-22T13:12:06.084Z</time></trkpt><trkpt lat="43.4682131" lon="11.4322948"><ele>362.8</ele><time>2026-04-22T13:12:08.092Z</time></trkpt><trkpt lat="43.4682013" lon="11.4321869"><ele>363.2</ele><time>2026-04-22T13:12:11.093Z</time></trkpt><trkpt lat="43.4680956" lon="11.4320703"><ele>363.6</ele><time>2026-04-22T13:12:13.084Z</time></trkpt><trkpt lat="43.4680108" lon="11.4319873"><ele>364.0</ele><time>2026-04-22T13:12:14.082Z</time></trkpt><trkpt lat="43.4679121" lon="11.4318847"><ele>367.0</ele><time>2026-04-22T13:12:15.081Z</time></trkpt><trkpt lat="43.467803" lon="11.4317715"><ele>370.0</ele><time>2026-04-22T13:12:16.085Z</time></trkpt><trkpt lat="43.4676775" lon="11.4316569"><ele>373.0</ele><time>2026-04-22T13:12:17.086Z</time></trkpt><trkpt lat="43.4675389" lon="11.4315404"><ele>376.0</ele><time>2026-04-22T13:12:18.084Z</time></trkpt><trkpt lat="43.4673929" lon="11.4314352"><ele>376.0</ele><time>2026-04-22T13:12:19.085Z</time></trkpt><trkpt lat="43.467247" lon="11.4313517"><ele>376.0</ele><time>2026-04-22T13:12:20.085Z</time></trkpt><trkpt lat="43.4671027" lon="11.4312883"><ele>376.0</ele><time>2026-04-22T13:12:21.083Z</time></trkpt><trkpt lat="43.4669711" lon="11.431242"><ele>376.0</ele><time>2026-04-22T13:12:22.087Z</time></trkpt><trkpt lat="43.4668522" lon="11.4311949"><ele>378.4</ele><time>2026-04-22T13:12:23.086Z</time></trkpt><trkpt lat="43.4667479" lon="11.431121"><ele>380.8</ele><time>2026-04-22T13:12:24.086Z</time></trkpt><trkpt lat="43.4666577" lon="11.4310224"><ele>383.2</ele><time>2026-04-22T13:12:25.087Z</time></trkpt><trkpt lat="43.4665998" lon="11.430916"><ele>385.59999999999997</ele><time>2026-04-22T13:12:26.088Z</time></trkpt><trkpt lat="43.4666126" lon="11.4308152"><ele>388.0</ele><time>2026-04-22T13:12:28.088Z</time></trkpt><trkpt lat="43.4666898" lon="11.4307541"><ele>388.0</ele><time>2026-04-22T13:12:31.09Z</time></trkpt><trkpt lat="43.4667474" lon="11.430719"><ele>388.0</ele><time>2026-04-22T13:12:32.085Z</time></trkpt><trkpt lat="43.46683" lon="11.4306717"><ele>388.0</ele><time>2026-04-22T13:12:33.089Z</time></trkpt><trkpt lat="43.4669416" lon="11.4306014"><ele>388.0</ele><time>2026-04-22T13:12:34.088Z</time></trkpt><trkpt lat="43.4670719" lon="11.430519"><ele>388.0</ele><time>2026-04-22T13:12:35.089Z</time></trkpt><trkpt lat="43.4672079" lon="11.4304219"><ele>391.33333333333337</ele><time>2026-04-22T13:12:36.085Z</time></trkpt><trkpt lat="43.4673451" lon="11.4303193"><ele>394.66666666666663</ele><time>2026-04-22T13:12:37.091Z</time></trkpt><trkpt lat="43.4674769" lon="11.430216"><ele>398.0</ele><time>2026-04-22T13:12:38.085Z</time></trkpt><trkpt lat="43.4676071" lon="11.4301189"><ele>398.0</ele><time>2026-04-22T13:12:39.087Z</time></trkpt><trkpt lat="43.4677339" lon="11.4300259"><ele>398.0</ele><time>2026-04-22T13:12:40.086Z</time></trkpt><trkpt lat="43.4678582" lon="11.4299376"><ele>398.0</ele><time>2026-04-22T13:12:41.087Z</time></trkpt><trkpt lat="43.4679827" lon="11.4298507"><ele>398.0</ele><time>2026-04-22T13:12:42.088Z</time></trkpt><trkpt lat="43.4681078" lon="11.4297637"><ele>399.25</ele><time>2026-04-22T13:12:43.086Z</time></trkpt><trkpt lat="43.4682318" lon="11.4296764"><ele>400.5</ele><time>2026-04-22T13:12:44.089Z</time></trkpt><trkpt lat="43.4683577" lon="11.4295881"><ele>401.75</ele><time>2026-04-22T13:12:45.082Z</time></trkpt><trkpt lat="43.4684724" lon="11.4294816"><ele>403.0</ele><time>2026-04-22T13:12:46.084Z</time></trkpt><trkpt lat="43.4685644" lon="11.4293554"><ele>404.0</ele><time>2026-04-22T13:12:47.088Z</time></trkpt><trkpt lat="43.4686369" lon="11.4292269"><ele>405.0</ele><time>2026-04-22T13:12:48.089Z</time></trkpt><trkpt lat="43.4687006" lon="11.4291083"><ele>406.0</ele><time>2026-04-22T13:12:49.082Z</time></trkpt><trkpt lat="43.4687552" lon="11.4290127"><ele>407.0</ele><time>2026-04-22T13:12:50.092Z</time></trkpt><trkpt lat="43.468805" lon="11.4289319"><ele>408.0</ele><time>2026-04-22T13:12:51.089Z</time></trkpt><trkpt lat="43.4688579" lon="11.4288457"><ele>411.25</ele><time>2026-04-22T13:12:52.084Z</time></trkpt><trkpt lat="43.4689191" lon="11.4287444"><ele>414.5</ele><time>2026-04-22T13:12:53.093Z</time></trkpt><trkpt lat="43.468994" lon="11.4286228"><ele>417.75</ele><time>2026-04-22T13:12:54.091Z</time></trkpt><trkpt lat="43.4690824" lon="11.4284821"><ele>421.0</ele><time>2026-04-22T13:12:55.087Z</time></trkpt><trkpt lat="43.4691852" lon="11.4283229"><ele>421.0</ele><time>2026-04-22T13:12:56.094Z</time></trkpt><trkpt lat="43.4693015" lon="11.4281406"><ele>421.0</ele><time>2026-04-22T13:12:57.089Z</time></trkpt><trkpt lat="43.4694247" lon="11.4279436"><ele>421.0</ele><time>2026-04-22T13:12:58.093Z</time></trkpt><trkpt lat="43.4695512" lon="11.427736"><ele>424.6666666666667</ele><time>2026-04-22T13:12:59.094Z</time></trkpt><trkpt lat="43.4696738" lon="11.4275184"><ele>428.33333333333337</ele><time>2026-04-22T13:13:00.083Z</time></trkpt><trkpt lat="43.4697841" lon="11.4273004"><ele>432.0</ele><time>2026-04-22T13:13:01.091Z</time></trkpt><trkpt lat="43.4698693" lon="11.4270635"><ele>434.66666666666663</ele><time>2026-04-22T13:13:02.096Z</time></trkpt><trkpt lat="43.4699158" lon="11.4268245"><ele>437.3333333333333</ele><time>2026-04-22T13:13:03.087Z</time></trkpt><trkpt lat="43.4699416" lon="11.4265797"><ele>440.0</ele><time>2026-04-22T13:13:04.1Z</time></trkpt><trkpt lat="43.4699508" lon="11.4263363"><ele>442.66666666666663</ele><time>2026-04-22T13:13:05.095Z</time></trkpt><trkpt lat="43.4699473" lon="11.4261028"><ele>445.33333333333337</ele><time>2026-04-22T13:13:06.093Z</time></trkpt><trkpt lat="43.4699351" lon="11.4258747"><ele>448.0</ele><time>2026-04-22T13:13:07.095Z</time></trkpt><trkpt lat="43.469914" lon="11.4256499"><ele>452.0</ele><time>2026-04-22T13:13:08.095Z</time></trkpt><trkpt lat="43.4698884" lon="11.4254281"><ele>456.0</ele><time>2026-04-22T13:13:09.087Z</time></trkpt><trkpt lat="43.4698621" lon="11.4252187"><ele>460.0</ele><time>2026-04-22T13:13:10.092Z</time></trkpt><trkpt lat="43.4698392" lon="11.4250272"><ele>460.0</ele><time>2026-04-22T13:13:11.093Z</time></trkpt><trkpt lat="43.4698216" lon="11.4248615"><ele>460.0</ele><time>2026-04-22T13:13:12.081Z</time></trkpt><trkpt lat="43.4697934" lon="11.4247214"><ele>460.0</ele><time>2026-04-22T13:13:13.079Z</time></trkpt><trkpt lat="43.469738" lon="11.4246082"><ele>460.0</ele><time>2026-04-22T13:13:14.081Z</time></trkpt><trkpt lat="43.4696598" lon="11.4245182"><ele>460.0</ele><time>2026-04-22T13:13:15.083Z</time></trkpt><trkpt lat="43.4695528" lon="11.424452"><ele>462.33333333333337</ele><time>2026-04-22T13:13:16.09Z</time></trkpt><trkpt lat="43.4694211" lon="11.4244033"><ele>464.66666666666663</ele><time>2026-04-22T13:13:17.092Z</time></trkpt><trkpt lat="43.4692713" lon="11.4243708"><ele>467.0</ele><time>2026-04-22T13:13:18.088Z</time></trkpt><trkpt lat="43.4691089" lon="11.4243498"><ele>467.0</ele><time>2026-04-22T13:13:19.089Z</time></trkpt><trkpt lat="43.4689505" lon="11.4243416"><ele>467.0</ele><time>2026-04-22T13:13:20.089Z</time></trkpt><trkpt lat="43.4688072" lon="11.4243315"><ele>467.0</ele><time>2026-04-22T13:13:21.083Z</time></trkpt><trkpt lat="43.4686917" lon="11.4243165"><ele>467.0</ele><time>2026-04-22T13:13:22.088Z</time></trkpt><trkpt lat="43.4686021" lon="11.4242984"><ele>467.40000000000003</ele><time>2026-04-22T13:13:23.087Z</time></trkpt><trkpt lat="43.4685271" lon="11.4242799"><ele>467.80000000000007</ele><time>2026-04-22T13:13:24.089Z</time></trkpt><trkpt lat="43.4684635" lon="11.4242437"><ele>468.2</ele><time>2026-04-22T13:13:25.092Z</time></trkpt><trkpt lat="43.4683971" lon="11.424182"><ele>468.6</ele><time>2026-04-22T13:13:26.084Z</time></trkpt><trkpt lat="43.468312" lon="11.4240973"><ele>469.0</ele><time>2026-04-22T13:13:27.088Z</time></trkpt><trkpt lat="43.468207" lon="11.4239957"><ele>469.0</ele><time>2026-04-22T13:13:28.089Z</time></trkpt><trkpt lat="43.4680794" lon="11.4238822"><ele>469.0</ele><time>2026-04-22T13:13:29.091Z</time></trkpt><trkpt lat="43.4679406" lon="11.4237624"><ele>469.0</ele><time>2026-04-22T13:13:30.097Z</time></trkpt><trkpt lat="43.4678118" lon="11.4236503"><ele>471.0</ele><time>2026-04-22T13:13:31.091Z</time></trkpt><trkpt lat="43.4677068" lon="11.4235495"><ele>473.0</ele><time>2026-04-22T13:13:32.086Z</time></trkpt><trkpt lat="43.4676349" lon="11.423453"><ele>475.0</ele><time>2026-04-22T13:13:33.089Z</time></trkpt><trkpt lat="43.4676223" lon="11.423339"><ele>477.0</ele><time>2026-04-22T13:13:34.1Z</time></trkpt><trkpt lat="43.467667" lon="11.423214"><ele>479.0</ele><time>2026-04-22T13:13:35.092Z</time></trkpt><trkpt lat="43.4677276" lon="11.4231159"><ele>479.0</ele><time>2026-04-22T13:13:36.088Z</time></trkpt><trkpt lat="43.4678187" lon="11.4230635"><ele>479.0</ele><time>2026-04-22T13:13:37.097Z</time></trkpt><trkpt lat="43.4679463" lon="11.4230591"><ele>479.0</ele><time>2026-04-22T13:13:38.085Z</time></trkpt><trkpt lat="43.4680702" lon="11.4230707"><ele>479.0</ele><time>2026-04-22T13:13:39.091Z</time></trkpt><trkpt lat="43.4681606" lon="11.4230597"><ele>479.0</ele><time>2026-04-22T13:13:40.086Z</time></trkpt><trkpt lat="43.4682261" lon="11.4230414"><ele>479.3333333333333</ele><time>2026-04-22T13:13:41.096Z</time></trkpt><trkpt lat="43.4682999" lon="11.4229866"><ele>479.66666666666663</ele><time>2026-04-22T13:13:43.085Z</time></trkpt><trkpt lat="43.4683747" lon="11.422951"><ele>480.0</ele><time>2026-04-22T13:13:46.088Z</time></trkpt><trkpt lat="43.468285" lon="11.4229585"><ele>480.33333333333337</ele><time>2026-04-22T13:17:33.101Z</time></trkpt><trkpt lat="43.4682224" lon="11.4230055"><ele>480.6666666666667</ele><time>2026-04-22T13:17:34.102Z</time></trkpt><trkpt lat="43.4681322" lon="11.4230602"><ele>481.0</ele><time>2026-04-22T13:17:35.107Z</time></trkpt><trkpt lat="43.468023" lon="11.4231192"><ele>480.6</ele><time>2026-04-22T13:17:36.1Z</time></trkpt><trkpt lat="43.4679088" lon="11.4231556"><ele>480.20000000000005</ele><time>2026-04-22T13:17:37.104Z</time></trkpt><trkpt lat="43.4678048" lon="11.423178"><ele>479.79999999999995</ele><time>2026-04-22T13:17:38.109Z</time></trkpt><trkpt lat="43.4677163" lon="11.4232096"><ele>479.4</ele><time>2026-04-22T13:17:39.095Z</time></trkpt><trkpt lat="43.4676506" lon="11.4232729"><ele>479.0</ele><time>2026-04-22T13:17:40.099Z</time></trkpt><trkpt lat="43.4676317" lon="11.4233798"><ele>479.0</ele><time>2026-04-22T13:17:41.108Z</time></trkpt><trkpt lat="43.4676592" lon="11.4235079"><ele>479.0</ele><time>2026-04-22T13:17:42.093Z</time></trkpt><trkpt lat="43.4677221" lon="11.4236231"><ele>479.0</ele><time>2026-04-22T13:17:43.115Z</time></trkpt><trkpt lat="43.4678021" lon="11.4237199"><ele>479.0</ele><time>2026-04-22T13:17:44.104Z</time></trkpt><trkpt lat="43.4679006" lon="11.4238036"><ele>479.0</ele><time>2026-04-22T13:17:45.092Z</time></trkpt><trkpt lat="43.4680076" lon="11.4238825"><ele>476.5</ele><time>2026-04-22T13:17:46.11Z</time></trkpt><trkpt lat="43.4681146" lon="11.4239672"><ele>474.0</ele><time>2026-04-22T13:17:47.103Z</time></trkpt><trkpt lat="43.4682178" lon="11.424059"><ele>471.5</ele><time>2026-04-22T13:17:48.118Z</time></trkpt><trkpt lat="43.4683179" lon="11.4241468"><ele>469.0</ele><time>2026-04-22T13:17:49.096Z</time></trkpt><trkpt lat="43.4684198" lon="11.4242298"><ele>469.0</ele><time>2026-04-22T13:17:50.1Z</time></trkpt><trkpt lat="43.468527" lon="11.4243048"><ele>469.0</ele><time>2026-04-22T13:17:51.1Z</time></trkpt><trkpt lat="43.4686452" lon="11.4243649"><ele>469.0</ele><time>2026-04-22T13:17:52.107Z</time></trkpt><trkpt lat="43.4687758" lon="11.4243964"><ele>469.0</ele><time>2026-04-22T13:17:53.101Z</time></trkpt><trkpt lat="43.4689092" lon="11.4244031"><ele>468.5</ele><time>2026-04-22T13:17:54.105Z</time></trkpt><trkpt lat="43.4690457" lon="11.4244112"><ele>468.0</ele><time>2026-04-22T13:17:55.103Z</time></trkpt><trkpt lat="43.4691832" lon="11.4244291"><ele>467.5</ele><time>2026-04-22T13:17:56.109Z</time></trkpt><trkpt lat="43.4693165" lon="11.4244585"><ele>467.0</ele><time>2026-04-22T13:17:57.106Z</time></trkpt><trkpt lat="43.469447" lon="11.4245"><ele>467.0</ele><time>2026-04-22T13:17:58.115Z</time></trkpt><trkpt lat="43.4695727" lon="11.424562"><ele>467.0</ele><time>2026-04-22T13:17:59.091Z</time></trkpt><trkpt lat="43.4696901" lon="11.4246533"><ele>467.0</ele><time>2026-04-22T13:18:00.093Z</time></trkpt><trkpt lat="43.4697902" lon="11.4247715"><ele>467.0</ele><time>2026-04-22T13:18:01.103Z</time></trkpt><trkpt lat="43.4698551" lon="11.4249257"><ele>464.66666666666663</ele><time>2026-04-22T13:18:02.104Z</time></trkpt><trkpt lat="43.4698859" lon="11.4251109"><ele>462.33333333333337</ele><time>2026-04-22T13:18:03.108Z</time></trkpt><trkpt lat="43.4698973" lon="11.4253187"><ele>460.0</ele><time>2026-04-22T13:18:04.093Z</time></trkpt><trkpt lat="43.4698971" lon="11.4255469"><ele>456.0</ele><time>2026-04-22T13:18:05.105Z</time></trkpt><trkpt lat="43.4698924" lon="11.4258002"><ele>452.0</ele><time>2026-04-22T13:18:06.09Z</time></trkpt><trkpt lat="43.469892" lon="11.4260601"><ele>448.0</ele><time>2026-04-22T13:18:07.099Z</time></trkpt><trkpt lat="43.4698932" lon="11.4263099"><ele>445.33333333333337</ele><time>2026-04-22T13:18:08.096Z</time></trkpt><trkpt lat="43.4698872" lon="11.4265426"><ele>442.66666666666663</ele><time>2026-04-22T13:18:09.095Z</time></trkpt><trkpt lat="43.4698685" lon="11.4267628"><ele>440.0</ele><time>2026-04-22T13:18:10.102Z</time></trkpt><trkpt lat="43.4698387" lon="11.4269798"><ele>437.3333333333333</ele><time>2026-04-22T13:18:11.099Z</time></trkpt><trkpt lat="43.4697947" lon="11.427207"><ele>434.66666666666663</ele><time>2026-04-22T13:18:12.092Z</time></trkpt><trkpt lat="43.4697259" lon="11.4274379"><ele>432.0</ele><time>2026-04-22T13:18:13.104Z</time></trkpt><trkpt lat="43.469628" lon="11.4276549"><ele>428.66666666666663</ele><time>2026-04-22T13:18:14.103Z</time></trkpt><trkpt lat="43.4695028" lon="11.4278541"><ele>425.3333333333333</ele><time>2026-04-22T13:18:15.114Z</time></trkpt><trkpt lat="43.4693772" lon="11.42803"><ele>422.0</ele><time>2026-04-22T13:18:16.095Z</time></trkpt><trkpt lat="43.4692588" lon="11.4281919"><ele>421.66666666666663</ele><time>2026-04-22T13:18:17.115Z</time></trkpt><trkpt lat="43.4691447" lon="11.4283578"><ele>421.33333333333337</ele><time>2026-04-22T13:18:18.104Z</time></trkpt><trkpt lat="43.4690337" lon="11.4285176"><ele>421.0</ele><time>2026-04-22T13:18:19.103Z</time></trkpt><trkpt lat="43.4689298" lon="11.4286801"><ele>418.33333333333337</ele><time>2026-04-22T13:18:20.104Z</time></trkpt><trkpt lat="43.4688269" lon="11.4288501"><ele>415.66666666666663</ele><time>2026-04-22T13:18:21.103Z</time></trkpt><trkpt lat="43.4687196" lon="11.4290308"><ele>413.0</ele><time>2026-04-22T13:18:22.108Z</time></trkpt><trkpt lat="43.4686069" lon="11.4292195"><ele>411.3333333333333</ele><time>2026-04-22T13:18:23.103Z</time></trkpt><trkpt lat="43.4684969" lon="11.4293998"><ele>409.66666666666663</ele><time>2026-04-22T13:18:24.096Z</time></trkpt><trkpt lat="43.4683905" lon="11.4295541"><ele>408.0</ele><time>2026-04-22T13:18:25.096Z</time></trkpt><trkpt lat="43.4682749" lon="11.4296808"><ele>406.33333333333337</ele><time>2026-04-22T13:18:26.096Z</time></trkpt><trkpt lat="43.4681413" lon="11.4297922"><ele>404.6666666666667</ele><time>2026-04-22T13:18:27.094Z</time></trkpt><trkpt lat="43.4679967" lon="11.4298824"><ele>403.0</ele><time>2026-04-22T13:18:28.105Z</time></trkpt><trkpt lat="43.4678515" lon="11.4299763"><ele>401.33333333333337</ele><time>2026-04-22T13:18:29.103Z</time></trkpt><trkpt lat="43.4677064" lon="11.4300747"><ele>399.66666666666663</ele><time>2026-04-22T13:18:30.095Z</time></trkpt><trkpt lat="43.4675581" lon="11.4301738"><ele>398.0</ele><time>2026-04-22T13:18:31.097Z</time></trkpt><trkpt lat="43.4674119" lon="11.4302677"><ele>398.0</ele><time>2026-04-22T13:18:32.093Z</time></trkpt><trkpt lat="43.4672696" lon="11.4303594"><ele>398.0</ele><time>2026-04-22T13:18:33.098Z</time></trkpt><trkpt lat="43.4671351" lon="11.4304488"><ele>398.0</ele><time>2026-04-22T13:18:34.091Z</time></trkpt><trkpt lat="43.4670069" lon="11.4305336"><ele>398.0</ele><time>2026-04-22T13:18:35.102Z</time></trkpt><trkpt lat="43.4668877" lon="11.4306098"><ele>396.0</ele><time>2026-04-22T13:18:36.1Z</time></trkpt><trkpt lat="43.4667802" lon="11.4306808"><ele>394.0</ele><time>2026-04-22T13:18:37.095Z</time></trkpt><trkpt lat="43.4666967" lon="11.43074"><ele>392.0</ele><time>2026-04-22T13:18:38.092Z</time></trkpt><trkpt lat="43.4666286" lon="11.4308023"><ele>390.0</ele><time>2026-04-22T13:18:39.089Z</time></trkpt><trkpt lat="43.466596" lon="11.4308828"><ele>388.0</ele><time>2026-04-22T13:18:40.086Z</time></trkpt><trkpt lat="43.4666316" lon="11.4310549"><ele>388.0</ele><time>2026-04-22T13:18:42.088Z</time></trkpt><trkpt lat="43.4666975" lon="11.4311562"><ele>388.0</ele><time>2026-04-22T13:18:43.089Z</time></trkpt><trkpt lat="43.4667883" lon="11.4312588"><ele>388.0</ele><time>2026-04-22T13:18:44.094Z</time></trkpt><trkpt lat="43.4669022" lon="11.4313477"><ele>388.0</ele><time>2026-04-22T13:18:45.105Z</time></trkpt><trkpt lat="43.4670332" lon="11.4314069"><ele>385.0</ele><time>2026-04-22T13:18:46.092Z</time></trkpt><trkpt lat="43.4671657" lon="11.4314565"><ele>382.0</ele><time>2026-04-22T13:18:47.099Z</time></trkpt><trkpt lat="43.467303" lon="11.4314962"><ele>379.0</ele><time>2026-04-22T13:18:48.089Z</time></trkpt><trkpt lat="43.4674362" lon="11.4315467"><ele>376.0</ele><time>2026-04-22T13:18:49.088Z</time></trkpt><trkpt lat="43.4675631" lon="11.4316124"><ele>376.0</ele><time>2026-04-22T13:18:50.094Z</time></trkpt><trkpt lat="43.4676811" lon="11.4316985"><ele>376.0</ele><time>2026-04-22T13:18:51.1Z</time></trkpt><trkpt lat="43.4677899" lon="11.431789"><ele>376.0</ele><time>2026-04-22T13:18:52.094Z</time></trkpt><trkpt lat="43.4678926" lon="11.4318975"><ele>376.0</ele><time>2026-04-22T13:18:53.091Z</time></trkpt><trkpt lat="43.4679867" lon="11.4320083"><ele>375.8</ele><time>2026-04-22T13:18:54.089Z</time></trkpt><trkpt lat="43.4680673" lon="11.4321156"><ele>375.6</ele><time>2026-04-22T13:18:55.091Z</time></trkpt><trkpt lat="43.4681256" lon="11.4322099"><ele>375.4</ele><time>2026-04-22T13:18:56.096Z</time></trkpt><trkpt lat="43.4681439" lon="11.4323321"><ele>375.2</ele><time>2026-04-22T13:18:58.102Z</time></trkpt><trkpt lat="43.4680166" lon="11.4324044"><ele>375.0</ele><time>2026-04-22T13:19:00.087Z</time></trkpt><trkpt lat="43.4679064" lon="11.4324348"><ele>371.75</ele><time>2026-04-22T13:19:01.092Z</time></trkpt><trkpt lat="43.4677819" lon="11.4324846"><ele>368.5</ele><time>2026-04-22T13:19:02.086Z</time></trkpt><trkpt lat="43.4676362" lon="11.4325648"><ele>365.25</ele><time>2026-04-22T13:19:03.088Z</time></trkpt><trkpt lat="43.4674863" lon="11.4326517"><ele>362.0</ele><time>2026-04-22T13:19:04.088Z</time></trkpt><trkpt lat="43.4673335" lon="11.4327375"><ele>362.0</ele><time>2026-04-22T13:19:05.084Z</time></trkpt><trkpt lat="43.4671902" lon="11.4328216"><ele>362.0</ele><time>2026-04-22T13:19:06.088Z</time></trkpt><trkpt lat="43.4670562" lon="11.4329137"><ele>362.0</ele><time>2026-04-22T13:19:07.091Z</time></trkpt><trkpt lat="43.4669213" lon="11.4330025"><ele>358.6666666666667</ele><time>2026-04-22T13:19:08.093Z</time></trkpt><trkpt lat="43.4667804" lon="11.4330981"><ele>355.3333333333333</ele><time>2026-04-22T13:19:09.087Z</time></trkpt><trkpt lat="43.4666443" lon="11.4331887"><ele>352.0</ele><time>2026-04-22T13:19:10.089Z</time></trkpt><trkpt lat="43.466509" lon="11.4332776"><ele>352.0</ele><time>2026-04-22T13:19:11.089Z</time></trkpt><trkpt lat="43.4663783" lon="11.4333629"><ele>352.0</ele><time>2026-04-22T13:19:12.092Z</time></trkpt><trkpt lat="43.466252" lon="11.4334286"><ele>352.0</ele><time>2026-04-22T13:19:13.093Z</time></trkpt><trkpt lat="43.4661245" lon="11.4334637"><ele>352.0</ele><time>2026-04-22T13:19:14.093Z</time></trkpt><trkpt lat="43.4659953" lon="11.4334583"><ele>351.0</ele><time>2026-04-22T13:19:15.09Z</time></trkpt><trkpt lat="43.4658609" lon="11.4334298"><ele>350.0</ele><time>2026-04-22T13:19:16.093Z</time></trkpt><trkpt lat="43.4657171" lon="11.4333863"><ele>349.0</ele><time>2026-04-22T13:19:17.091Z</time></trkpt><trkpt lat="43.4655745" lon="11.4333405"><ele>348.0</ele><time>2026-04-22T13:19:18.09Z</time></trkpt><trkpt lat="43.4654447" lon="11.4332721"><ele>348.0</ele><time>2026-04-22T13:19:19.093Z</time></trkpt><trkpt lat="43.4653257" lon="11.4331817"><ele>348.0</ele><time>2026-04-22T13:19:20.093Z</time></trkpt><trkpt lat="43.4652087" lon="11.4331042"><ele>348.0</ele><time>2026-04-22T13:19:21.09Z</time></trkpt><trkpt lat="43.465096" lon="11.4330523"><ele>348.0</ele><time>2026-04-22T13:19:22.093Z</time></trkpt><trkpt lat="43.4649953" lon="11.4330522"><ele>348.0</ele><time>2026-04-22T13:19:23.095Z</time></trkpt><trkpt lat="43.46491" lon="11.433071"><ele>348.0</ele><time>2026-04-22T13:19:24.095Z</time></trkpt><trkpt lat="43.4648359" lon="11.4330743"><ele>348.0</ele><time>2026-04-22T13:19:25.097Z</time></trkpt><trkpt lat="43.4647576" lon="11.4330683"><ele>348.0</ele><time>2026-04-22T13:19:26.096Z</time></trkpt><trkpt lat="43.464665" lon="11.433042"><ele>348.0</ele><time>2026-04-22T13:19:27.09Z</time></trkpt><trkpt lat="43.4645707" lon="11.43297"><ele>348.0</ele><time>2026-04-22T13:19:28.093Z</time></trkpt><trkpt lat="43.4644674" lon="11.4328666"><ele>348.3333333333333</ele><time>2026-04-22T13:19:29.096Z</time></trkpt><trkpt lat="43.464358" lon="11.4327383"><ele>348.66666666666663</ele><time>2026-04-22T13:19:30.095Z</time></trkpt><trkpt lat="43.4642471" lon="11.4325808"><ele>349.0</ele><time>2026-04-22T13:19:31.094Z</time></trkpt><trkpt lat="43.4641433" lon="11.4323893"><ele>349.0</ele><time>2026-04-22T13:19:32.092Z</time></trkpt><trkpt lat="43.4640459" lon="11.4321741"><ele>349.0</ele><time>2026-04-22T13:19:33.085Z</time></trkpt><trkpt lat="43.4639562" lon="11.431943"><ele>349.0</ele><time>2026-04-22T13:19:34.096Z</time></trkpt><trkpt lat="43.4638723" lon="11.4317071"><ele>348.3333333333333</ele><time>2026-04-22T13:19:35.088Z</time></trkpt><trkpt lat="43.4637874" lon="11.4314685"><ele>347.6666666666667</ele><time>2026-04-22T13:19:36.094Z</time></trkpt><trkpt lat="43.4637" lon="11.4312335"><ele>347.0</ele><time>2026-04-22T13:19:37.089Z</time></trkpt><trkpt lat="43.4636015" lon="11.4310052"><ele>347.0</ele><time>2026-04-22T13:19:38.09Z</time></trkpt><trkpt lat="43.4634891" lon="11.4307845"><ele>347.0</ele><time>2026-04-22T13:19:39.093Z</time></trkpt><trkpt lat="43.4633688" lon="11.4305788"><ele>347.0</ele><time>2026-04-22T13:19:40.092Z</time></trkpt><trkpt lat="43.4632389" lon="11.4303831"><ele>346.6666666666667</ele><time>2026-04-22T13:19:41.094Z</time></trkpt><trkpt lat="43.4631113" lon="11.430187"><ele>346.3333333333333</ele><time>2026-04-22T13:19:42.093Z</time></trkpt><trkpt lat="43.4629902" lon="11.4299824"><ele>346.0</ele><time>2026-04-22T13:19:43.089Z</time></trkpt><trkpt lat="43.4628684" lon="11.4297836"><ele>346.0</ele><time>2026-04-22T13:19:44.099Z</time></trkpt><trkpt lat="43.4627394" lon="11.4295913"><ele>346.0</ele><time>2026-04-22T13:19:45.09Z</time></trkpt><trkpt lat="43.4626002" lon="11.4294123"><ele>346.0</ele><time>2026-04-22T13:19:46.098Z</time></trkpt><trkpt lat="43.4624566" lon="11.4292418"><ele>346.0</ele><time>2026-04-22T13:19:47.093Z</time></trkpt><trkpt lat="43.4623142" lon="11.4290701"><ele>346.0</ele><time>2026-04-22T13:19:48.093Z</time></trkpt><trkpt lat="43.4621717" lon="11.4288967"><ele>346.0</ele><time>2026-04-22T13:19:49.094Z</time></trkpt><trkpt lat="43.4620319" lon="11.4287232"><ele>344.66666666666663</ele><time>2026-04-22T13:19:50.091Z</time></trkpt><trkpt lat="43.4618938" lon="11.4285531"><ele>343.3333333333333</ele><time>2026-04-22T13:19:51.094Z</time></trkpt><trkpt lat="43.4617534" lon="11.4283934"><ele>342.0</ele><time>2026-04-22T13:19:52.099Z</time></trkpt><trkpt lat="43.4616111" lon="11.4282349"><ele>342.0</ele><time>2026-04-22T13:19:53.093Z</time></trkpt><trkpt lat="43.4614664" lon="11.4280792"><ele>342.0</ele><time>2026-04-22T13:19:54.1Z</time></trkpt><trkpt lat="43.4613191" lon="11.4279252"><ele>342.0</ele><time>2026-04-22T13:19:55.102Z</time></trkpt><trkpt lat="43.4611707" lon="11.427775"><ele>341.3333333333333</ele><time>2026-04-22T13:19:56.09Z</time></trkpt><trkpt lat="43.4610223" lon="11.4276227"><ele>340.66666666666663</ele><time>2026-04-22T13:19:57.097Z</time></trkpt><trkpt lat="43.4608765" lon="11.4274689"><ele>340.0</ele><time>2026-04-22T13:19:58.098Z</time></trkpt><trkpt lat="43.4607284" lon="11.4273182"><ele>340.0</ele><time>2026-04-22T13:19:59.094Z</time></trkpt><trkpt lat="43.4605691" lon="11.427186"><ele>340.0</ele><time>2026-04-22T13:20:00.099Z</time></trkpt><trkpt lat="43.4604001" lon="11.4270767"><ele>340.0</ele><time>2026-04-22T13:20:01.104Z</time></trkpt><trkpt lat="43.4602208" lon="11.4269895"><ele>341.0</ele><time>2026-04-22T13:20:02.086Z</time></trkpt><trkpt lat="43.4600317" lon="11.4269099"><ele>342.0</ele><time>2026-04-22T13:20:03.092Z</time></trkpt><trkpt lat="43.4598367" lon="11.4268291"><ele>343.0</ele><time>2026-04-22T13:20:04.087Z</time></trkpt><trkpt lat="43.4596375" lon="11.4267465"><ele>341.66666666666663</ele><time>2026-04-22T13:20:05.09Z</time></trkpt><trkpt lat="43.4594345" lon="11.4266595"><ele>340.3333333333333</ele><time>2026-04-22T13:20:06.095Z</time></trkpt><trkpt lat="43.4592314" lon="11.4265656"><ele>339.0</ele><time>2026-04-22T13:20:07.083Z</time></trkpt><trkpt lat="43.4590254" lon="11.4264742"><ele>339.0</ele><time>2026-04-22T13:20:08.094Z</time></trkpt><trkpt lat="43.4588198" lon="11.4263819"><ele>339.0</ele><time>2026-04-22T13:20:09.085Z</time></trkpt><trkpt lat="43.4586108" lon="11.42629"><ele>339.0</ele><time>2026-04-22T13:20:10.093Z</time></trkpt><trkpt lat="43.4584026" lon="11.4261948"><ele>338.0</ele><time>2026-04-22T13:20:11.096Z</time></trkpt><trkpt lat="43.4581992" lon="11.4260983"><ele>337.0</ele><time>2026-04-22T13:20:12.096Z</time></trkpt><trkpt lat="43.4579952" lon="11.4260046"><ele>336.0</ele><time>2026-04-22T13:20:13.098Z</time></trkpt><trkpt lat="43.4577907" lon="11.4259152"><ele>336.0</ele><time>2026-04-22T13:20:14.091Z</time></trkpt><trkpt lat="43.4575885" lon="11.4258236"><ele>336.0</ele><time>2026-04-22T13:20:15.097Z</time></trkpt><trkpt lat="43.4573866" lon="11.4257299"><ele>336.0</ele><time>2026-04-22T13:20:16.095Z</time></trkpt><trkpt lat="43.4571854" lon="11.4256411"><ele>338.0</ele><time>2026-04-22T13:20:17.096Z</time></trkpt><trkpt lat="43.456986" lon="11.4255648"><ele>340.0</ele><time>2026-04-22T13:20:18.097Z</time></trkpt><trkpt lat="43.4567872" lon="11.4255067"><ele>342.0</ele><time>2026-04-22T13:20:19.106Z</time></trkpt><trkpt lat="43.4565858" lon="11.4254749"><ele>340.3333333333333</ele><time>2026-04-22T13:20:20.094Z</time></trkpt><trkpt lat="43.4563975" lon="11.425464"><ele>338.66666666666663</ele><time>2026-04-22T13:20:21.1Z</time></trkpt><trkpt lat="43.4562269" lon="11.4254493"><ele>337.0</ele><time>2026-04-22T13:20:22.096Z</time></trkpt><trkpt lat="43.4560699" lon="11.4253866"><ele>337.0</ele><time>2026-04-22T13:20:23.099Z</time></trkpt><trkpt lat="43.4559345" lon="11.4252573"><ele>337.0</ele><time>2026-04-22T13:20:24.096Z</time></trkpt><trkpt lat="43.4557981" lon="11.4250911"><ele>337.0</ele><time>2026-04-22T13:20:25.1Z</time></trkpt><trkpt lat="43.4556495" lon="11.4249161"><ele>337.0</ele><time>2026-04-22T13:20:26.092Z</time></trkpt><trkpt lat="43.4554911" lon="11.4247374"><ele>337.0</ele><time>2026-04-22T13:20:27.101Z</time></trkpt><trkpt lat="43.4553286" lon="11.4245688"><ele>337.0</ele><time>2026-04-22T13:20:28.091Z</time></trkpt><trkpt lat="43.4551672" lon="11.4243983"><ele>335.66666666666663</ele><time>2026-04-22T13:20:29.091Z</time></trkpt><trkpt lat="43.4550116" lon="11.4242334"><ele>334.3333333333333</ele><time>2026-04-22T13:20:30.098Z</time></trkpt><trkpt lat="43.4548635" lon="11.4240778"><ele>333.0</ele><time>2026-04-22T13:20:31.09Z</time></trkpt><trkpt lat="43.4547197" lon="11.4239289"><ele>332.3333333333333</ele><time>2026-04-22T13:20:32.092Z</time></trkpt><trkpt lat="43.4545764" lon="11.4237814"><ele>331.66666666666663</ele><time>2026-04-22T13:20:33.088Z</time></trkpt><trkpt lat="43.4544317" lon="11.42363"><ele>331.0</ele><time>2026-04-22T13:20:34.088Z</time></trkpt><trkpt lat="43.4542914" lon="11.4234634"><ele>331.0</ele><time>2026-04-22T13:20:35.093Z</time></trkpt><trkpt lat="43.4541586" lon="11.4232784"><ele>331.0</ele><time>2026-04-22T13:20:36.085Z</time></trkpt><trkpt lat="43.4540249" lon="11.4230809"><ele>331.0</ele><time>2026-04-22T13:20:37.097Z</time></trkpt><trkpt lat="43.4538954" lon="11.4228689"><ele>329.0</ele><time>2026-04-22T13:20:38.086Z</time></trkpt><trkpt lat="43.4537665" lon="11.4226538"><ele>327.0</ele><time>2026-04-22T13:20:39.096Z</time></trkpt><trkpt lat="43.4536333" lon="11.4224358"><ele>325.0</ele><time>2026-04-22T13:20:40.09Z</time></trkpt><trkpt lat="43.4534998" lon="11.4222258"><ele>327.3333333333333</ele><time>2026-04-22T13:20:41.09Z</time></trkpt><trkpt lat="43.4533695" lon="11.4220211"><ele>329.6666666666667</ele><time>2026-04-22T13:20:42.095Z</time></trkpt><trkpt lat="43.4532414" lon="11.4218198"><ele>332.0</ele><time>2026-04-22T13:20:43.085Z</time></trkpt><trkpt lat="43.4531123" lon="11.4216286"><ele>332.0</ele><time>2026-04-22T13:20:44.097Z</time></trkpt><trkpt lat="43.452981" lon="11.4214587"><ele>332.0</ele><time>2026-04-22T13:20:45.092Z</time></trkpt><trkpt lat="43.4528302" lon="11.4213262"><ele>332.0</ele><time>2026-04-22T13:20:46.089Z</time></trkpt><trkpt lat="43.4526603" lon="11.4212154"><ele>333.0</ele><time>2026-04-22T13:20:47.091Z</time></trkpt><trkpt lat="43.4524948" lon="11.4210837"><ele>334.0</ele><time>2026-04-22T13:20:48.091Z</time></trkpt><trkpt lat="43.4523414" lon="11.4209308"><ele>335.0</ele><time>2026-04-22T13:20:49.092Z</time></trkpt><trkpt lat="43.4522036" lon="11.4207492"><ele>333.6666666666667</ele><time>2026-04-22T13:20:50.092Z</time></trkpt><trkpt lat="43.4520705" lon="11.4205407"><ele>332.3333333333333</ele><time>2026-04-22T13:20:51.096Z</time></trkpt><trkpt lat="43.4519439" lon="11.4203283"><ele>331.0</ele><time>2026-04-22T13:20:52.088Z</time></trkpt><trkpt lat="43.4518256" lon="11.4201207"><ele>331.0</ele><time>2026-04-22T13:20:53.086Z</time></trkpt><trkpt lat="43.4517139" lon="11.4199224"><ele>331.0</ele><time>2026-04-22T13:20:54.086Z</time></trkpt><trkpt lat="43.4516049" lon="11.4197357"><ele>331.0</ele><time>2026-04-22T13:20:55.083Z</time></trkpt><trkpt lat="43.45149" lon="11.4195689"><ele>332.0</ele><time>2026-04-22T13:20:56.09Z</time></trkpt><trkpt lat="43.4513635" lon="11.4194199"><ele>333.0</ele><time>2026-04-22T13:20:57.093Z</time></trkpt><trkpt lat="43.4512301" lon="11.4193008"><ele>334.0</ele><time>2026-04-22T13:20:58.087Z</time></trkpt><trkpt lat="43.4511045" lon="11.4192119"><ele>332.0</ele><time>2026-04-22T13:20:59.088Z</time></trkpt><trkpt lat="43.4509857" lon="11.4191509"><ele>330.0</ele><time>2026-04-22T13:21:00.088Z</time></trkpt><trkpt lat="43.4508591" lon="11.4191109"><ele>328.0</ele><time>2026-04-22T13:21:01.088Z</time></trkpt><trkpt lat="43.4507291" lon="11.4190731"><ele>326.0</ele><time>2026-04-22T13:21:02.091Z</time></trkpt><trkpt lat="43.4505885" lon="11.4190374"><ele>325.33333333333337</ele><time>2026-04-22T13:21:03.086Z</time></trkpt><trkpt lat="43.4504339" lon="11.4190016"><ele>324.6666666666667</ele><time>2026-04-22T13:21:04.091Z</time></trkpt><trkpt lat="43.450273" lon="11.4189768"><ele>324.0</ele><time>2026-04-22T13:21:05.086Z</time></trkpt><trkpt lat="43.450103" lon="11.4189462"><ele>324.0</ele><time>2026-04-22T13:21:06.094Z</time></trkpt><trkpt lat="43.4499264" lon="11.4188993"><ele>324.0</ele><time>2026-04-22T13:21:07.085Z</time></trkpt><trkpt lat="43.449748" lon="11.4188295"><ele>324.0</ele><time>2026-04-22T13:21:08.089Z</time></trkpt><trkpt lat="43.4495755" lon="11.4187451"><ele>326.3333333333333</ele><time>2026-04-22T13:21:09.088Z</time></trkpt><trkpt lat="43.4494042" lon="11.4186659"><ele>328.66666666666663</ele><time>2026-04-22T13:21:10.089Z</time></trkpt><trkpt lat="43.4492252" lon="11.4186073"><ele>331.0</ele><time>2026-04-22T13:21:11.091Z</time></trkpt><trkpt lat="43.4490428" lon="11.418569"><ele>331.0</ele><time>2026-04-22T13:21:12.095Z</time></trkpt><trkpt lat="43.4488575" lon="11.4185516"><ele>331.0</ele><time>2026-04-22T13:21:13.086Z</time></trkpt><trkpt lat="43.4486671" lon="11.4185317"><ele>331.0</ele><time>2026-04-22T13:21:14.096Z</time></trkpt><trkpt lat="43.4484717" lon="11.4185033"><ele>331.0</ele><time>2026-04-22T13:21:15.09Z</time></trkpt><trkpt lat="43.4482834" lon="11.4184416"><ele>331.0</ele><time>2026-04-22T13:21:16.092Z</time></trkpt><trkpt lat="43.4481176" lon="11.4183272"><ele>331.0</ele><time>2026-04-22T13:21:17.091Z</time></trkpt><trkpt lat="43.4479638" lon="11.4181764"><ele>329.0</ele><time>2026-04-22T13:21:18.086Z</time></trkpt><trkpt lat="43.4478122" lon="11.4180166"><ele>327.0</ele><time>2026-04-22T13:21:19.093Z</time></trkpt><trkpt lat="43.4476601" lon="11.4178681"><ele>325.0</ele><time>2026-04-22T13:21:20.083Z</time></trkpt><trkpt lat="43.4474957" lon="11.4177528"><ele>329.3333333333333</ele><time>2026-04-22T13:21:21.099Z</time></trkpt><trkpt lat="43.4473123" lon="11.4176843"><ele>333.6666666666667</ele><time>2026-04-22T13:21:22.09Z</time></trkpt><trkpt lat="43.4471168" lon="11.4176383"><ele>338.0</ele><time>2026-04-22T13:21:23.092Z</time></trkpt><trkpt lat="43.4469158" lon="11.4175978"><ele>338.6666666666667</ele><time>2026-04-22T13:21:24.099Z</time></trkpt><trkpt lat="43.4467148" lon="11.4175545"><ele>339.3333333333333</ele><time>2026-04-22T13:21:25.092Z</time></trkpt><trkpt lat="43.4465198" lon="11.4175053"><ele>340.0</ele><time>2026-04-22T13:21:26.096Z</time></trkpt><trkpt lat="43.4463371" lon="11.4174671"><ele>344.0</ele><time>2026-04-22T13:21:27.099Z</time></trkpt><trkpt lat="43.44617" lon="11.4174617"><ele>348.0</ele><time>2026-04-22T13:21:28.101Z</time></trkpt><trkpt lat="43.4460181" lon="11.4175096"><ele>352.0</ele><time>2026-04-22T13:21:29.093Z</time></trkpt><trkpt lat="43.4458902" lon="11.4176301"><ele>352.0</ele><time>2026-04-22T13:21:30.088Z</time></trkpt><trkpt lat="43.4457928" lon="11.4178203"><ele>352.0</ele><time>2026-04-22T13:21:31.09Z</time></trkpt><trkpt lat="43.4457231" lon="11.4180566"><ele>352.0</ele><time>2026-04-22T13:21:32.089Z</time></trkpt><trkpt lat="43.4456743" lon="11.4183267"><ele>348.66666666666663</ele><time>2026-04-22T13:21:33.082Z</time></trkpt><trkpt lat="43.4456432" lon="11.4186087"><ele>345.3333333333333</ele><time>2026-04-22T13:21:34.084Z</time></trkpt><trkpt lat="43.4456344" lon="11.4188834"><ele>342.0</ele><time>2026-04-22T13:21:35.083Z</time></trkpt><trkpt lat="43.4456435" lon="11.4191525"><ele>339.3333333333333</ele><time>2026-04-22T13:21:36.084Z</time></trkpt><trkpt lat="43.4456516" lon="11.4194064"><ele>336.66666666666663</ele><time>2026-04-22T13:21:37.084Z</time></trkpt><trkpt lat="43.4456334" lon="11.4196335"><ele>334.0</ele><time>2026-04-22T13:21:38.088Z</time></trkpt><trkpt lat="43.4455773" lon="11.4198098"><ele>335.66666666666663</ele><time>2026-04-22T13:21:39.09Z</time></trkpt><trkpt lat="43.4454829" lon="11.4199303"><ele>337.3333333333333</ele><time>2026-04-22T13:21:40.086Z</time></trkpt><trkpt lat="43.4453302" lon="11.4199791"><ele>339.0</ele><time>2026-04-22T13:21:41.084Z</time></trkpt><trkpt lat="43.4451539" lon="11.4200111"><ele>339.0</ele><time>2026-04-22T13:21:42.09Z</time></trkpt><trkpt lat="43.4449849" lon="11.4200602"><ele>339.0</ele><time>2026-04-22T13:21:43.088Z</time></trkpt><trkpt lat="43.4448238" lon="11.420131"><ele>339.0</ele><time>2026-04-22T13:21:44.097Z</time></trkpt><trkpt lat="43.4446681" lon="11.4202258"><ele>338.3333333333333</ele><time>2026-04-22T13:21:45.087Z</time></trkpt><trkpt lat="43.4445334" lon="11.4203538"><ele>337.66666666666663</ele><time>2026-04-22T13:21:46.087Z</time></trkpt><trkpt lat="43.4444134" lon="11.4205163"><ele>337.0</ele><time>2026-04-22T13:21:47.093Z</time></trkpt><trkpt lat="43.4442947" lon="11.4207076"><ele>337.0</ele><time>2026-04-22T13:21:48.094Z</time></trkpt><trkpt lat="43.4441727" lon="11.4208972"><ele>337.0</ele><time>2026-04-22T13:21:49.086Z</time></trkpt><trkpt lat="43.4440269" lon="11.4210543"><ele>337.0</ele><time>2026-04-22T13:21:50.099Z</time></trkpt><trkpt lat="43.4438615" lon="11.4211828"><ele>340.0</ele><time>2026-04-22T13:21:51.086Z</time></trkpt><trkpt lat="43.4436818" lon="11.4213019"><ele>343.0</ele><time>2026-04-22T13:21:52.096Z</time></trkpt><trkpt lat="43.4434982" lon="11.4214192"><ele>346.0</ele><time>2026-04-22T13:21:53.1Z</time></trkpt><trkpt lat="43.4433125" lon="11.4215282"><ele>340.0</ele><time>2026-04-22T13:21:54.095Z</time></trkpt><trkpt lat="43.4431235" lon="11.4216032"><ele>334.0</ele><time>2026-04-22T13:21:55.1Z</time></trkpt><trkpt lat="43.4429229" lon="11.4216322"><ele>328.0</ele><time>2026-04-22T13:21:56.091Z</time></trkpt><trkpt lat="43.4427123" lon="11.4216197"><ele>328.0</ele><time>2026-04-22T13:21:57.1Z</time></trkpt><trkpt lat="43.4424983" lon="11.4215915"><ele>328.0</ele><time>2026-04-22T13:21:58.093Z</time></trkpt><trkpt lat="43.4422892" lon="11.4215536"><ele>328.0</ele><time>2026-04-22T13:21:59.09Z</time></trkpt><trkpt lat="43.4420843" lon="11.4215128"><ele>326.3333333333333</ele><time>2026-04-22T13:22:00.089Z</time></trkpt><trkpt lat="43.4418783" lon="11.4214752"><ele>324.6666666666667</ele><time>2026-04-22T13:22:01.099Z</time></trkpt><trkpt lat="43.4416737" lon="11.4214397"><ele>323.0</ele><time>2026-04-22T13:22:02.096Z</time></trkpt><trkpt lat="43.4414684" lon="11.4214046"><ele>321.33333333333337</ele><time>2026-04-22T13:22:03.093Z</time></trkpt><trkpt lat="43.4412608" lon="11.4213623"><ele>319.6666666666667</ele><time>2026-04-22T13:22:04.096Z</time></trkpt><trkpt lat="43.4410562" lon="11.421293"><ele>318.0</ele><time>2026-04-22T13:22:05.093Z</time></trkpt><trkpt lat="43.4408651" lon="11.4211818"><ele>317.6666666666667</ele><time>2026-04-22T13:22:06.097Z</time></trkpt><trkpt lat="43.4406901" lon="11.4210346"><ele>317.33333333333337</ele><time>2026-04-22T13:22:07.085Z</time></trkpt><trkpt lat="43.4405132" lon="11.4208726"><ele>317.0</ele><time>2026-04-22T13:22:08.094Z</time></trkpt><trkpt lat="43.4403382" lon="11.4207118"><ele>317.0</ele><time>2026-04-22T13:22:09.095Z</time></trkpt><trkpt lat="43.4401635" lon="11.4205529"><ele>317.0</ele><time>2026-04-22T13:22:10.091Z</time></trkpt><trkpt lat="43.4399854" lon="11.4203918"><ele>317.0</ele><time>2026-04-22T13:22:11.094Z</time></trkpt><trkpt lat="43.4398074" lon="11.4202339"><ele>317.33333333333337</ele><time>2026-04-22T13:22:12.094Z</time></trkpt><trkpt lat="43.4396307" lon="11.4200845"><ele>317.6666666666667</ele><time>2026-04-22T13:22:13.1Z</time></trkpt><trkpt lat="43.4394514" lon="11.4199471"><ele>318.0</ele><time>2026-04-22T13:22:14.09Z</time></trkpt><trkpt lat="43.4392677" lon="11.4198225"><ele>318.0</ele><time>2026-04-22T13:22:15.1Z</time></trkpt><trkpt lat="43.4390696" lon="11.4197208"><ele>318.0</ele><time>2026-04-22T13:22:16.09Z</time></trkpt><trkpt lat="43.4388641" lon="11.4196544"><ele>318.0</ele><time>2026-04-22T13:22:17.092Z</time></trkpt><trkpt lat="43.4386548" lon="11.4196206"><ele>321.3333333333333</ele><time>2026-04-22T13:22:18.101Z</time></trkpt><trkpt lat="43.4384418" lon="11.4196057"><ele>324.66666666666663</ele><time>2026-04-22T13:22:19.086Z</time></trkpt><trkpt lat="43.4382261" lon="11.4195994"><ele>328.0</ele><time>2026-04-22T13:22:20.094Z</time></trkpt><trkpt lat="43.4380081" lon="11.4195835"><ele>326.3333333333333</ele><time>2026-04-22T13:22:21.085Z</time></trkpt><trkpt lat="43.4377868" lon="11.4195537"><ele>324.6666666666667</ele><time>2026-04-22T13:22:22.088Z</time></trkpt><trkpt lat="43.4375714" lon="11.4195091"><ele>323.0</ele><time>2026-04-22T13:22:23.092Z</time></trkpt><trkpt lat="43.4373628" lon="11.4194705"><ele>323.0</ele><time>2026-04-22T13:22:24.092Z</time></trkpt><trkpt lat="43.4371627" lon="11.4194344"><ele>323.0</ele><time>2026-04-22T13:22:25.09Z</time></trkpt><trkpt lat="43.4369619" lon="11.4193977"><ele>323.0</ele><time>2026-04-22T13:22:26.097Z</time></trkpt><trkpt lat="43.4367563" lon="11.41936"><ele>322.0</ele><time>2026-04-22T13:22:27.087Z</time></trkpt><trkpt lat="43.4365531" lon="11.4193086"><ele>321.0</ele><time>2026-04-22T13:22:28.09Z</time></trkpt><trkpt lat="43.4363413" lon="11.4192685"><ele>320.0</ele><time>2026-04-22T13:22:29.092Z</time></trkpt><trkpt lat="43.4361253" lon="11.4192293"><ele>318.6666666666667</ele><time>2026-04-22T13:22:30.09Z</time></trkpt><trkpt lat="43.4359105" lon="11.4191898"><ele>317.3333333333333</ele><time>2026-04-22T13:22:31.094Z</time></trkpt><trkpt lat="43.4357027" lon="11.4191499"><ele>316.0</ele><time>2026-04-22T13:22:32.08Z</time></trkpt><trkpt lat="43.4355102" lon="11.4191195"><ele>317.0</ele><time>2026-04-22T13:22:33.087Z</time></trkpt><trkpt lat="43.4353279" lon="11.4191075"><ele>318.0</ele><time>2026-04-22T13:22:34.089Z</time></trkpt><trkpt lat="43.4351493" lon="11.4191378"><ele>319.0</ele><time>2026-04-22T13:22:35.09Z</time></trkpt><trkpt lat="43.4349742" lon="11.4192344"><ele>319.0</ele><time>2026-04-22T13:22:36.094Z</time></trkpt><trkpt lat="43.4347996" lon="11.419389"><ele>319.0</ele><time>2026-04-22T13:22:37.088Z</time></trkpt><trkpt lat="43.434626" lon="11.4195865"><ele>319.0</ele><time>2026-04-22T13:22:38.08Z</time></trkpt><trkpt lat="43.4344603" lon="11.4197983"><ele>318.0</ele><time>2026-04-22T13:22:39.084Z</time></trkpt><trkpt lat="43.434303" lon="11.4200075"><ele>317.0</ele><time>2026-04-22T13:22:40.082Z</time></trkpt><trkpt lat="43.4341396" lon="11.4202159"><ele>316.0</ele><time>2026-04-22T13:22:41.08Z</time></trkpt><trkpt lat="43.4339758" lon="11.4204214"><ele>311.66666666666663</ele><time>2026-04-22T13:22:42.094Z</time></trkpt><trkpt lat="43.4338229" lon="11.420616"><ele>307.3333333333333</ele><time>2026-04-22T13:22:43.091Z</time></trkpt><trkpt lat="43.4336766" lon="11.4207878"><ele>303.0</ele><time>2026-04-22T13:22:44.094Z</time></trkpt><trkpt lat="43.4335508" lon="11.4209226"><ele>303.0</ele><time>2026-04-22T13:22:45.086Z</time></trkpt><trkpt lat="43.4334341" lon="11.4210127"><ele>303.0</ele><time>2026-04-22T13:22:46.089Z</time></trkpt><trkpt lat="43.4333085" lon="11.4210229"><ele>303.0</ele><time>2026-04-22T13:22:47.09Z</time></trkpt><trkpt lat="43.4331989" lon="11.4209131"><ele>303.0</ele><time>2026-04-22T13:22:48.092Z</time></trkpt><trkpt lat="43.4331053" lon="11.4207357"><ele>303.0</ele><time>2026-04-22T13:22:49.091Z</time></trkpt><trkpt lat="43.4330241" lon="11.4205252"><ele>303.0</ele><time>2026-04-22T13:22:50.099Z</time></trkpt><trkpt lat="43.4329474" lon="11.4202615"><ele>303.0</ele><time>2026-04-22T13:22:51.09Z</time></trkpt><trkpt lat="43.4328659" lon="11.4200129"><ele>303.3333333333333</ele><time>2026-04-22T13:22:52.092Z</time></trkpt><trkpt lat="43.4327881" lon="11.4197867"><ele>303.66666666666663</ele><time>2026-04-22T13:22:53.099Z</time></trkpt><trkpt lat="43.4327057" lon="11.4195891"><ele>304.0</ele><time>2026-04-22T13:22:54.087Z</time></trkpt><trkpt lat="43.4326105" lon="11.4194174"><ele>304.0</ele><time>2026-04-22T13:22:55.088Z</time></trkpt><trkpt lat="43.4325018" lon="11.4192585"><ele>304.0</ele><time>2026-04-22T13:22:56.096Z</time></trkpt><trkpt lat="43.4323786" lon="11.4190985"><ele>304.0</ele><time>2026-04-22T13:22:57.089Z</time></trkpt><trkpt lat="43.4322493" lon="11.4189315"><ele>302.3333333333333</ele><time>2026-04-22T13:22:58.094Z</time></trkpt><trkpt lat="43.4321148" lon="11.4187572"><ele>300.6666666666667</ele><time>2026-04-22T13:22:59.091Z</time></trkpt><trkpt lat="43.4319866" lon="11.4185686"><ele>299.0</ele><time>2026-04-22T13:23:00.089Z</time></trkpt><trkpt lat="43.4318623" lon="11.4183854"><ele>299.0</ele><time>2026-04-22T13:23:01.088Z</time></trkpt><trkpt lat="43.431745" lon="11.4182194"><ele>299.0</ele><time>2026-04-22T13:23:02.085Z</time></trkpt><trkpt lat="43.4316381" lon="11.4180673"><ele>299.0</ele><time>2026-04-22T13:23:03.086Z</time></trkpt><trkpt lat="43.4315436" lon="11.417928"><ele>299.4</ele><time>2026-04-22T13:23:04.083Z</time></trkpt><trkpt lat="43.4314645" lon="11.4177992"><ele>299.79999999999995</ele><time>2026-04-22T13:23:05.09Z</time></trkpt><trkpt lat="43.4313931" lon="11.417694"><ele>300.20000000000005</ele><time>2026-04-22T13:23:06.086Z</time></trkpt><trkpt lat="43.4313279" lon="11.4176178"><ele>300.6</ele><time>2026-04-22T13:23:07.085Z</time></trkpt><trkpt lat="43.4312554" lon="11.4175921"><ele>301.0</ele><time>2026-04-22T13:23:08.089Z</time></trkpt><trkpt lat="43.4311706" lon="11.4176225"><ele>301.0</ele><time>2026-04-22T13:23:09.086Z</time></trkpt><trkpt lat="43.4310826" lon="11.4176892"><ele>301.0</ele><time>2026-04-22T13:23:10.088Z</time></trkpt><trkpt lat="43.4309827" lon="11.4177829"><ele>301.0</ele><time>2026-04-22T13:23:11.083Z</time></trkpt><trkpt lat="43.4308623" lon="11.417892"><ele>301.0</ele><time>2026-04-22T13:23:12.09Z</time></trkpt><trkpt lat="43.4307186" lon="11.4180099"><ele>301.3333333333333</ele><time>2026-04-22T13:23:13.087Z</time></trkpt><trkpt lat="43.4305555" lon="11.4181324"><ele>301.6666666666667</ele><time>2026-04-22T13:23:14.096Z</time></trkpt><trkpt lat="43.4303787" lon="11.4182564"><ele>302.0</ele><time>2026-04-22T13:23:15.093Z</time></trkpt><trkpt lat="43.4301984" lon="11.4183813"><ele>302.0</ele><time>2026-04-22T13:23:16.09Z</time></trkpt><trkpt lat="43.4300165" lon="11.4185146"><ele>302.0</ele><time>2026-04-22T13:23:17.094Z</time></trkpt><trkpt lat="43.4298332" lon="11.4186472"><ele>302.0</ele><time>2026-04-22T13:23:18.089Z</time></trkpt><trkpt lat="43.4296488" lon="11.4187647"><ele>304.6666666666667</ele><time>2026-04-22T13:23:19.093Z</time></trkpt><trkpt lat="43.4294677" lon="11.4188877"><ele>307.3333333333333</ele><time>2026-04-22T13:23:20.086Z</time></trkpt><trkpt lat="43.4292882" lon="11.4189958"><ele>310.0</ele><time>2026-04-22T13:23:21.094Z</time></trkpt><trkpt lat="43.4291034" lon="11.4190843"><ele>310.0</ele><time>2026-04-22T13:23:22.089Z</time></trkpt><trkpt lat="43.4289125" lon="11.4191515"><ele>310.0</ele><time>2026-04-22T13:23:23.088Z</time></trkpt><trkpt lat="43.4287219" lon="11.4191961"><ele>310.0</ele><time>2026-04-22T13:23:24.085Z</time></trkpt><trkpt lat="43.4285426" lon="11.4192358"><ele>310.3333333333333</ele><time>2026-04-22T13:23:25.087Z</time></trkpt><trkpt lat="43.4283709" lon="11.4192932"><ele>310.6666666666667</ele><time>2026-04-22T13:23:26.089Z</time></trkpt><trkpt lat="43.4282021" lon="11.4193894"><ele>311.0</ele><time>2026-04-22T13:23:27.088Z</time></trkpt><trkpt lat="43.4280592" lon="11.4195339"><ele>311.6666666666667</ele><time>2026-04-22T13:23:28.092Z</time></trkpt><trkpt lat="43.4279379" lon="11.4197104"><ele>312.3333333333333</ele><time>2026-04-22T13:23:29.087Z</time></trkpt><trkpt lat="43.4278438" lon="11.4198975"><ele>313.0</ele><time>2026-04-22T13:23:30.094Z</time></trkpt><trkpt lat="43.427767" lon="11.4200816"><ele>313.0</ele><time>2026-04-22T13:23:31.095Z</time></trkpt><trkpt lat="43.4277082" lon="11.4202578"><ele>313.0</ele><time>2026-04-22T13:23:32.085Z</time></trkpt><trkpt lat="43.4276988" lon="11.4204471"><ele>313.0</ele><time>2026-04-22T13:23:33.088Z</time></trkpt><trkpt lat="43.4277334" lon="11.4206481"><ele>313.0</ele><time>2026-04-22T13:23:34.079Z</time></trkpt><trkpt lat="43.4277881" lon="11.4208666"><ele>312.3333333333333</ele><time>2026-04-22T13:23:35.088Z</time></trkpt><trkpt lat="43.4278382" lon="11.4211082"><ele>311.6666666666667</ele><time>2026-04-22T13:23:36.094Z</time></trkpt><trkpt lat="43.4278619" lon="11.421372"><ele>311.0</ele><time>2026-04-22T13:23:37.084Z</time></trkpt><trkpt lat="43.4278609" lon="11.4216483"><ele>310.6666666666667</ele><time>2026-04-22T13:23:38.087Z</time></trkpt><trkpt lat="43.4278332" lon="11.4219246"><ele>310.3333333333333</ele><time>2026-04-22T13:23:39.081Z</time></trkpt><trkpt lat="43.4277734" lon="11.4221972"><ele>310.0</ele><time>2026-04-22T13:23:40.083Z</time></trkpt><trkpt lat="43.4277021" lon="11.4224461"><ele>312.66666666666663</ele><time>2026-04-22T13:23:41.082Z</time></trkpt><trkpt lat="43.4276229" lon="11.4226439"><ele>315.3333333333333</ele><time>2026-04-22T13:23:42.085Z</time></trkpt><trkpt lat="43.4274965" lon="11.4227699"><ele>318.0</ele><time>2026-04-22T13:23:43.084Z</time></trkpt><trkpt lat="43.4273458" lon="11.4228369"><ele>318.0</ele><time>2026-04-22T13:23:44.084Z</time></trkpt><trkpt lat="43.4271704" lon="11.4228588"><ele>318.0</ele><time>2026-04-22T13:23:45.087Z</time></trkpt><trkpt lat="43.4269758" lon="11.4228514"><ele>318.0</ele><time>2026-04-22T13:23:46.089Z</time></trkpt><trkpt lat="43.4267748" lon="11.422855"><ele>318.3333333333333</ele><time>2026-04-22T13:23:47.088Z</time></trkpt><trkpt lat="43.4265808" lon="11.4228735"><ele>318.66666666666663</ele><time>2026-04-22T13:23:48.082Z</time></trkpt><trkpt lat="43.4264037" lon="11.4229069"><ele>319.0</ele><time>2026-04-22T13:23:49.087Z</time></trkpt><trkpt lat="43.4262571" lon="11.4229684"><ele>318.0</ele><time>2026-04-22T13:23:50.085Z</time></trkpt><trkpt lat="43.42615" lon="11.4230676"><ele>317.0</ele><time>2026-04-22T13:23:51.093Z</time></trkpt><trkpt lat="43.4260942" lon="11.4232161"><ele>316.0</ele><time>2026-04-22T13:23:52.084Z</time></trkpt><trkpt lat="43.4260875" lon="11.4234055"><ele>315.0</ele><time>2026-04-22T13:23:53.084Z</time></trkpt><trkpt lat="43.4261378" lon="11.4236227"><ele>316.0</ele><time>2026-04-22T13:23:54.088Z</time></trkpt><trkpt lat="43.4262129" lon="11.4238554"><ele>317.0</ele><time>2026-04-22T13:23:55.096Z</time></trkpt><trkpt lat="43.426291" lon="11.4241079"><ele>318.0</ele><time>2026-04-22T13:23:56.095Z</time></trkpt><trkpt lat="43.4263528" lon="11.4243693"><ele>321.6666666666667</ele><time>2026-04-22T13:23:57.09Z</time></trkpt><trkpt lat="43.4264115" lon="11.4246504"><ele>325.33333333333337</ele><time>2026-04-22T13:23:58.083Z</time></trkpt><trkpt lat="43.42647" lon="11.424946"><ele>329.0</ele><time>2026-04-22T13:23:59.087Z</time></trkpt><trkpt lat="43.4265229" lon="11.4252453"><ele>329.33333333333337</ele><time>2026-04-22T13:24:00.087Z</time></trkpt><trkpt lat="43.4265542" lon="11.4255412"><ele>329.6666666666667</ele><time>2026-04-22T13:24:01.092Z</time></trkpt><trkpt lat="43.4265528" lon="11.4258327"><ele>330.0</ele><time>2026-04-22T13:24:02.082Z</time></trkpt><trkpt lat="43.4265288" lon="11.4261178"><ele>332.3333333333333</ele><time>2026-04-22T13:24:03.088Z</time></trkpt><trkpt lat="43.4264806" lon="11.4264075"><ele>334.66666666666663</ele><time>2026-04-22T13:24:04.089Z</time></trkpt><trkpt lat="43.4264066" lon="11.4266923"><ele>337.0</ele><time>2026-04-22T13:24:05.081Z</time></trkpt><trkpt lat="43.4263162" lon="11.4269568"><ele>333.66666666666663</ele><time>2026-04-22T13:24:06.084Z</time></trkpt><trkpt lat="43.4262148" lon="11.4271869"><ele>330.3333333333333</ele><time>2026-04-22T13:24:07.085Z</time></trkpt><trkpt lat="43.4260976" lon="11.4273555"><ele>327.0</ele><time>2026-04-22T13:24:08.086Z</time></trkpt><trkpt lat="43.4259784" lon="11.4274851"><ele>327.0</ele><time>2026-04-22T13:24:09.09Z</time></trkpt><trkpt lat="43.4258817" lon="11.4276187"><ele>327.0</ele><time>2026-04-22T13:24:10.089Z</time></trkpt><trkpt lat="43.42582" lon="11.4277748"><ele>327.0</ele><time>2026-04-22T13:24:11.082Z</time></trkpt><trkpt lat="43.425814" lon="11.4279623"><ele>327.0</ele><time>2026-04-22T13:24:12.091Z</time></trkpt><trkpt lat="43.4258222" lon="11.4281972"><ele>327.3333333333333</ele><time>2026-04-22T13:24:13.089Z</time></trkpt><trkpt lat="43.4258468" lon="11.4284588"><ele>327.66666666666663</ele><time>2026-04-22T13:24:14.096Z</time></trkpt><trkpt lat="43.4258677" lon="11.4287431"><ele>328.0</ele><time>2026-04-22T13:24:15.091Z</time></trkpt><trkpt lat="43.4258829" lon="11.4290439"><ele>329.3333333333333</ele><time>2026-04-22T13:24:16.088Z</time></trkpt><trkpt lat="43.4258942" lon="11.429342"><ele>330.6666666666667</ele><time>2026-04-22T13:24:17.087Z</time></trkpt><trkpt lat="43.4259028" lon="11.4296415"><ele>332.0</ele><time>2026-04-22T13:24:18.086Z</time></trkpt><trkpt lat="43.4259076" lon="11.429951"><ele>332.0</ele><time>2026-04-22T13:24:19.087Z</time></trkpt><trkpt lat="43.4259007" lon="11.4302449"><ele>332.0</ele><time>2026-04-22T13:24:20.089Z</time></trkpt><trkpt lat="43.4258742" lon="11.4305313"><ele>332.0</ele><time>2026-04-22T13:24:21.091Z</time></trkpt><trkpt lat="43.4258129" lon="11.430805"><ele>332.6666666666667</ele><time>2026-04-22T13:24:22.097Z</time></trkpt><trkpt lat="43.4257236" lon="11.4310576"><ele>333.3333333333333</ele><time>2026-04-22T13:24:23.092Z</time></trkpt><trkpt lat="43.4256253" lon="11.4312854"><ele>334.0</ele><time>2026-04-22T13:24:24.085Z</time></trkpt><trkpt lat="43.4255361" lon="11.4314811"><ele>336.25</ele><time>2026-04-22T13:24:25.089Z</time></trkpt><trkpt lat="43.4254593" lon="11.4316593"><ele>338.5</ele><time>2026-04-22T13:24:26.096Z</time></trkpt><trkpt lat="43.4253905" lon="11.4318237"><ele>340.75</ele><time>2026-04-22T13:24:27.09Z</time></trkpt><trkpt lat="43.4253369" lon="11.431981"><ele>343.0</ele><time>2026-04-22T13:24:28.095Z</time></trkpt><trkpt lat="43.4252846" lon="11.4321199"><ele>342.4</ele><time>2026-04-22T13:24:29.085Z</time></trkpt><trkpt lat="43.4252285" lon="11.4322233"><ele>341.79999999999995</ele><time>2026-04-22T13:24:30.093Z</time></trkpt><trkpt lat="43.425154" lon="11.4322732"><ele>341.2</ele><time>2026-04-22T13:24:31.094Z</time></trkpt><trkpt lat="43.4250598" lon="11.4322961"><ele>340.6</ele><time>2026-04-22T13:24:32.091Z</time></trkpt><trkpt lat="43.4249657" lon="11.4323381"><ele>340.0</ele><time>2026-04-22T13:24:33.081Z</time></trkpt><trkpt lat="43.4248866" lon="11.4324244"><ele>340.0</ele><time>2026-04-22T13:24:34.085Z</time></trkpt><trkpt lat="43.4248197" lon="11.4325579"><ele>340.0</ele><time>2026-04-22T13:24:35.091Z</time></trkpt><trkpt lat="43.4247622" lon="11.4327476"><ele>340.0</ele><time>2026-04-22T13:24:36.091Z</time></trkpt><trkpt lat="43.4246916" lon="11.4329628"><ele>340.0</ele><time>2026-04-22T13:24:37.092Z</time></trkpt><trkpt lat="43.4246113" lon="11.4332"><ele>343.66666666666663</ele><time>2026-04-22T13:24:38.092Z</time></trkpt><trkpt lat="43.4245228" lon="11.433451"><ele>347.3333333333333</ele><time>2026-04-22T13:24:39.084Z</time></trkpt><trkpt lat="43.4244337" lon="11.4336997"><ele>351.0</ele><time>2026-04-22T13:24:40.091Z</time></trkpt><trkpt lat="43.4243516" lon="11.4339622"><ele>351.0</ele><time>2026-04-22T13:24:41.086Z</time></trkpt><trkpt lat="43.4242949" lon="11.4342006"><ele>351.0</ele><time>2026-04-22T13:24:42.091Z</time></trkpt><trkpt lat="43.4242824" lon="11.4343963"><ele>351.0</ele><time>2026-04-22T13:24:43.088Z</time></trkpt><trkpt lat="43.4242897" lon="11.4345617"><ele>351.0</ele><time>2026-04-22T13:24:44.092Z</time></trkpt><trkpt lat="43.4243163" lon="11.4347181"><ele>350.5</ele><time>2026-04-22T13:24:45.093Z</time></trkpt><trkpt lat="43.424378" lon="11.4348674"><ele>350.0</ele><time>2026-04-22T13:24:46.087Z</time></trkpt><trkpt lat="43.4244521" lon="11.4350115"><ele>349.5</ele><time>2026-04-22T13:24:47.087Z</time></trkpt><trkpt lat="43.4245733" lon="11.4351508"><ele>349.0</ele><time>2026-04-22T13:24:48.091Z</time></trkpt><trkpt lat="43.4247345" lon="11.4352709"><ele>350.0</ele><time>2026-04-22T13:24:49.085Z</time></trkpt><trkpt lat="43.42495" lon="11.4353662"><ele>351.0</ele><time>2026-04-22T13:24:50.089Z</time></trkpt><trkpt lat="43.4251317" lon="11.4354748"><ele>352.0</ele><time>2026-04-22T13:24:51.092Z</time></trkpt><trkpt lat="43.4252862" lon="11.435606"><ele>352.0</ele><time>2026-04-22T13:24:52.086Z</time></trkpt><trkpt lat="43.4253819" lon="11.4357476"><ele>352.0</ele><time>2026-04-22T13:24:53.092Z</time></trkpt><trkpt lat="43.4254077" lon="11.4358976"><ele>352.0</ele><time>2026-04-22T13:24:54.089Z</time></trkpt><trkpt lat="43.4253572" lon="11.4360497"><ele>352.0</ele><time>2026-04-22T13:24:55.086Z</time></trkpt><trkpt lat="43.4252202" lon="11.4361871"><ele>353.0</ele><time>2026-04-22T13:24:56.087Z</time></trkpt><trkpt lat="43.4250698" lon="11.4363327"><ele>354.0</ele><time>2026-04-22T13:24:57.097Z</time></trkpt><trkpt lat="43.4249361" lon="11.436496"><ele>355.0</ele><time>2026-04-22T13:24:58.09Z</time></trkpt><trkpt lat="43.4248544" lon="11.4366919"><ele>355.0</ele><time>2026-04-22T13:24:59.086Z</time></trkpt><trkpt lat="43.4248289" lon="11.4369494"><ele>355.0</ele><time>2026-04-22T13:25:00.089Z</time></trkpt><trkpt lat="43.4248516" lon="11.4372235"><ele>355.0</ele><time>2026-04-22T13:25:01.095Z</time></trkpt><trkpt lat="43.424888" lon="11.4374977"><ele>355.0</ele><time>2026-04-22T13:25:02.081Z</time></trkpt><trkpt lat="43.4249419" lon="11.4377734"><ele>355.0</ele><time>2026-04-22T13:25:03.083Z</time></trkpt><trkpt lat="43.425006" lon="11.4380578"><ele>355.0</ele><time>2026-04-22T13:25:04.09Z</time></trkpt><trkpt lat="43.4250704" lon="11.4383354"><ele>357.0</ele><time>2026-04-22T13:25:05.092Z</time></trkpt><trkpt lat="43.4251387" lon="11.438591"><ele>359.0</ele><time>2026-04-22T13:25:06.082Z</time></trkpt><trkpt lat="43.425201" lon="11.4388246"><ele>361.0</ele><time>2026-04-22T13:25:07.082Z</time></trkpt><trkpt lat="43.4252554" lon="11.4390417"><ele>359.5</ele><time>2026-04-22T13:25:08.089Z</time></trkpt><trkpt lat="43.4253074" lon="11.4392205"><ele>358.0</ele><time>2026-04-22T13:25:09.088Z</time></trkpt><trkpt lat="43.4253697" lon="11.439362"><ele>356.5</ele><time>2026-04-22T13:25:10.085Z</time></trkpt><trkpt lat="43.4254574" lon="11.4394554"><ele>355.0</ele><time>2026-04-22T13:25:11.089Z</time></trkpt><trkpt lat="43.4255753" lon="11.4394679"><ele>355.0</ele><time>2026-04-22T13:25:12.091Z</time></trkpt><trkpt lat="43.4257285" lon="11.43941"><ele>355.0</ele><time>2026-04-22T13:25:13.089Z</time></trkpt><trkpt lat="43.4258776" lon="11.4393853"><ele>355.0</ele><time>2026-04-22T13:25:14.085Z</time></trkpt><trkpt lat="43.4260232" lon="11.4393888"><ele>355.0</ele><time>2026-04-22T13:25:15.094Z</time></trkpt><trkpt lat="43.4261727" lon="11.4394162"><ele>355.0</ele><time>2026-04-22T13:25:16.089Z</time></trkpt><trkpt lat="43.4263347" lon="11.4394904"><ele>355.0</ele><time>2026-04-22T13:25:17.084Z</time></trkpt><trkpt lat="43.4264787" lon="11.439624"><ele>354.66666666666663</ele><time>2026-04-22T13:25:18.086Z</time></trkpt><trkpt lat="43.4265853" lon="11.4398145"><ele>354.3333333333333</ele><time>2026-04-22T13:25:19.088Z</time></trkpt><trkpt lat="43.4265462" lon="11.4401695"><ele>354.0</ele><time>2026-04-22T13:25:20.09Z</time></trkpt><trkpt lat="43.4264142" lon="11.4405973"><ele>354.0</ele><time>2026-04-22T13:25:21.1Z</time></trkpt><trkpt lat="43.4263434" lon="11.4409336"><ele>354.0</ele><time>2026-04-22T13:25:22.086Z</time></trkpt><trkpt lat="43.4262901" lon="11.4412016"><ele>357.3333333333333</ele><time>2026-04-22T13:25:23.098Z</time></trkpt><trkpt lat="43.4262255" lon="11.4414051"><ele>360.66666666666663</ele><time>2026-04-22T13:25:24.092Z</time></trkpt><trkpt lat="43.4261209" lon="11.4415447"><ele>364.0</ele><time>2026-04-22T13:25:25.094Z</time></trkpt><trkpt lat="43.4259694" lon="11.4416259"><ele>364.0</ele><time>2026-04-22T13:25:26.086Z</time></trkpt><trkpt lat="43.4258101" lon="11.4416761"><ele>364.0</ele><time>2026-04-22T13:25:27.096Z</time></trkpt><trkpt lat="43.4256505" lon="11.4417261"><ele>364.0</ele><time>2026-04-22T13:25:28.092Z</time></trkpt><trkpt lat="43.4254977" lon="11.4417845"><ele>365.25</ele><time>2026-04-22T13:25:29.086Z</time></trkpt><trkpt lat="43.425356" lon="11.4418567"><ele>366.5</ele><time>2026-04-22T13:25:30.089Z</time></trkpt><trkpt lat="43.4252281" lon="11.4419534"><ele>367.75</ele><time>2026-04-22T13:25:31.087Z</time></trkpt><trkpt lat="43.425132" lon="11.4420807"><ele>369.0</ele><time>2026-04-22T13:25:32.086Z</time></trkpt><trkpt lat="43.4250568" lon="11.4422414"><ele>369.0</ele><time>2026-04-22T13:25:33.082Z</time></trkpt><trkpt lat="43.424995" lon="11.4424218"><ele>369.0</ele><time>2026-04-22T13:25:34.089Z</time></trkpt><trkpt lat="43.4249459" lon="11.4426121"><ele>369.0</ele><time>2026-04-22T13:25:35.085Z</time></trkpt><trkpt lat="43.4249119" lon="11.4428134"><ele>369.0</ele><time>2026-04-22T13:25:36.085Z</time></trkpt><trkpt lat="43.4248868" lon="11.4429959"><ele>368.75</ele><time>2026-04-22T13:25:37.082Z</time></trkpt><trkpt lat="43.4248754" lon="11.4431668"><ele>368.5</ele><time>2026-04-22T13:25:38.091Z</time></trkpt><trkpt lat="43.424874" lon="11.4433407"><ele>368.25</ele><time>2026-04-22T13:25:39.091Z</time></trkpt><trkpt lat="43.4248711" lon="11.4435146"><ele>368.0</ele><time>2026-04-22T13:25:40.088Z</time></trkpt><trkpt lat="43.4248626" lon="11.4436808"><ele>367.59999999999997</ele><time>2026-04-22T13:25:41.086Z</time></trkpt><trkpt lat="43.4248398" lon="11.44383"><ele>367.2</ele><time>2026-04-22T13:25:42.088Z</time></trkpt><trkpt lat="43.4247954" lon="11.4439521"><ele>366.8</ele><time>2026-04-22T13:25:43.09Z</time></trkpt><trkpt lat="43.4247273" lon="11.4440566"><ele>366.4</ele><time>2026-04-22T13:25:44.094Z</time></trkpt><trkpt lat="43.4246421" lon="11.444152"><ele>366.0</ele><time>2026-04-22T13:25:45.091Z</time></trkpt><trkpt lat="43.4245467" lon="11.4442461"><ele>369.5</ele><time>2026-04-22T13:25:46.086Z</time></trkpt><trkpt lat="43.4244555" lon="11.4443448"><ele>373.0</ele><time>2026-04-22T13:25:47.084Z</time></trkpt><trkpt lat="43.424373" lon="11.4444578"><ele>376.5</ele><time>2026-04-22T13:25:48.094Z</time></trkpt><trkpt lat="43.4242973" lon="11.4445894"><ele>380.0</ele><time>2026-04-22T13:25:49.094Z</time></trkpt><trkpt lat="43.4242305" lon="11.4447397"><ele>380.0</ele><time>2026-04-22T13:25:50.093Z</time></trkpt><trkpt lat="43.4241673" lon="11.4448998"><ele>380.0</ele><time>2026-04-22T13:25:51.095Z</time></trkpt><trkpt lat="43.4241021" lon="11.4450607"><ele>380.0</ele><time>2026-04-22T13:25:52.089Z</time></trkpt><trkpt lat="43.4240368" lon="11.4452218"><ele>380.0</ele><time>2026-04-22T13:25:53.097Z</time></trkpt><trkpt lat="43.4239792" lon="11.4453893"><ele>380.0</ele><time>2026-04-22T13:25:54.089Z</time></trkpt><trkpt lat="43.4239239" lon="11.4455363"><ele>380.0</ele><time>2026-04-22T13:25:55.087Z</time></trkpt><trkpt lat="43.4238793" lon="11.4456677"><ele>380.0</ele><time>2026-04-22T13:25:56.095Z</time></trkpt><trkpt lat="43.4238529" lon="11.4457926"><ele>380.0</ele><time>2026-04-22T13:25:57.089Z</time></trkpt><trkpt lat="43.4238563" lon="11.4459189"><ele>380.0</ele><time>2026-04-22T13:25:58.089Z</time></trkpt><trkpt lat="43.4238926" lon="11.4460397"><ele>380.0</ele><time>2026-04-22T13:25:59.089Z</time></trkpt><trkpt lat="43.4239568" lon="11.4461392"><ele>380.0</ele><time>2026-04-22T13:26:00.087Z</time></trkpt><trkpt lat="43.4240444" lon="11.4462095"><ele>380.0</ele><time>2026-04-22T13:26:01.093Z</time></trkpt><trkpt lat="43.4241418" lon="11.4462405"><ele>380.0</ele><time>2026-04-22T13:26:02.084Z</time></trkpt><trkpt lat="43.4242258" lon="11.4462563"><ele>380.0</ele><time>2026-04-22T13:26:03.081Z</time></trkpt><trkpt lat="43.4242916" lon="11.4462692"><ele>380.0</ele><time>2026-04-22T13:26:04.087Z</time></trkpt><trkpt lat="43.4243994" lon="11.4463521"><ele>382.0</ele><time>2026-04-22T13:26:06.087Z</time></trkpt><trkpt lat="43.4244467" lon="11.4464581"><ele>384.0</ele><time>2026-04-22T13:26:07.086Z</time></trkpt><trkpt lat="43.4244841" lon="11.4465965"><ele>386.0</ele><time>2026-04-22T13:26:08.085Z</time></trkpt><trkpt lat="43.4245048" lon="11.4467576"><ele>388.0</ele><time>2026-04-22T13:26:09.085Z</time></trkpt><trkpt lat="43.4245019" lon="11.4469361"><ele>390.0</ele><time>2026-04-22T13:26:10.084Z</time></trkpt><trkpt lat="43.4244722" lon="11.4471303"><ele>391.33333333333337</ele><time>2026-04-22T13:26:11.087Z</time></trkpt><trkpt lat="43.4244173" lon="11.4473318"><ele>392.6666666666667</ele><time>2026-04-22T13:26:12.088Z</time></trkpt><trkpt lat="43.424339" lon="11.4475366"><ele>394.0</ele><time>2026-04-22T13:26:13.095Z</time></trkpt><trkpt lat="43.4242361" lon="11.4477174"><ele>394.0</ele><time>2026-04-22T13:26:14.092Z</time></trkpt><trkpt lat="43.4240987" lon="11.4478668"><ele>394.0</ele><time>2026-04-22T13:26:15.091Z</time></trkpt><trkpt lat="43.4239584" lon="11.4479864"><ele>394.0</ele><time>2026-04-22T13:26:16.09Z</time></trkpt><trkpt lat="43.4238406" lon="11.4480942"><ele>393.6</ele><time>2026-04-22T13:26:17.085Z</time></trkpt><trkpt lat="43.4237656" lon="11.4482108"><ele>393.2</ele><time>2026-04-22T13:26:18.087Z</time></trkpt><trkpt lat="43.4237443" lon="11.448341"><ele>392.8</ele><time>2026-04-22T13:26:19.089Z</time></trkpt><trkpt lat="43.4237494" lon="11.4484647"><ele>392.40000000000003</ele><time>2026-04-22T13:26:20.088Z</time></trkpt><trkpt lat="43.4237884" lon="11.4486044"><ele>392.0</ele><time>2026-04-22T13:26:21.093Z</time></trkpt><trkpt lat="43.4238467" lon="11.4487457"><ele>392.0</ele><time>2026-04-22T13:26:22.087Z</time></trkpt><trkpt lat="43.4239" lon="11.4488925"><ele>392.0</ele><time>2026-04-22T13:26:23.085Z</time></trkpt><trkpt lat="43.4239359" lon="11.4490414"><ele>392.0</ele><time>2026-04-22T13:26:24.089Z</time></trkpt><trkpt lat="43.4239585" lon="11.4491915"><ele>392.0</ele><time>2026-04-22T13:26:25.087Z</time></trkpt><trkpt lat="43.4239607" lon="11.4493498"><ele>392.0</ele><time>2026-04-22T13:26:26.091Z</time></trkpt><trkpt lat="43.4239456" lon="11.4495121"><ele>392.0</ele><time>2026-04-22T13:26:27.093Z</time></trkpt><trkpt lat="43.4239131" lon="11.4496743"><ele>392.0</ele><time>2026-04-22T13:26:28.089Z</time></trkpt><trkpt lat="43.4238627" lon="11.4498352"><ele>392.0</ele><time>2026-04-22T13:26:29.093Z</time></trkpt><trkpt lat="43.4237928" lon="11.4499785"><ele>397.0</ele><time>2026-04-22T13:26:30.087Z</time></trkpt><trkpt lat="43.4237095" lon="11.4501085"><ele>402.0</ele><time>2026-04-22T13:26:31.091Z</time></trkpt><trkpt lat="43.4236143" lon="11.4502258"><ele>407.0</ele><time>2026-04-22T13:26:32.085Z</time></trkpt><trkpt lat="43.4235192" lon="11.4503331"><ele>412.0</ele><time>2026-04-22T13:26:33.084Z</time></trkpt><trkpt lat="43.4234322" lon="11.4504406"><ele>408.25</ele><time>2026-04-22T13:26:34.089Z</time></trkpt><trkpt lat="43.4233448" lon="11.450552"><ele>404.5</ele><time>2026-04-22T13:26:35.082Z</time></trkpt><trkpt lat="43.4232589" lon="11.4506632"><ele>400.75</ele><time>2026-04-22T13:26:36.088Z</time></trkpt><trkpt lat="43.4231668" lon="11.4507673"><ele>397.0</ele><time>2026-04-22T13:26:37.085Z</time></trkpt><trkpt lat="43.423067" lon="11.450863"><ele>402.75</ele><time>2026-04-22T13:26:38.091Z</time></trkpt><trkpt lat="43.4229659" lon="11.4509538"><ele>408.5</ele><time>2026-04-22T13:26:39.082Z</time></trkpt><trkpt lat="43.4228613" lon="11.4510556"><ele>414.25</ele><time>2026-04-22T13:26:40.084Z</time></trkpt><trkpt lat="43.4227498" lon="11.451152"><ele>420.0</ele><time>2026-04-22T13:26:41.08Z</time></trkpt><trkpt lat="43.4226355" lon="11.4512353"><ele>422.0</ele><time>2026-04-22T13:26:42.094Z</time></trkpt><trkpt lat="43.4225178" lon="11.4513001"><ele>424.0</ele><time>2026-04-22T13:26:43.09Z</time></trkpt><trkpt lat="43.4223822" lon="11.4513506"><ele>426.0</ele><time>2026-04-22T13:26:44.086Z</time></trkpt><trkpt lat="43.4222388" lon="11.4513659"><ele>428.0</ele><time>2026-04-22T13:26:45.088Z</time></trkpt><trkpt lat="43.4221089" lon="11.451364"><ele>428.0</ele><time>2026-04-22T13:26:46.088Z</time></trkpt><trkpt lat="43.4219937" lon="11.4513617"><ele>427.99999999999994</ele><time>2026-04-22T13:26:47.083Z</time></trkpt><trkpt lat="43.4218911" lon="11.4513745"><ele>427.99999999999994</ele><time>2026-04-22T13:26:48.093Z</time></trkpt><trkpt lat="43.4218081" lon="11.4514257"><ele>428.0</ele><time>2026-04-22T13:26:49.084Z</time></trkpt><trkpt lat="43.42175" lon="11.4515382"><ele>428.0</ele><time>2026-04-22T13:26:50.083Z</time></trkpt><trkpt lat="43.4217188" lon="11.4516977"><ele>428.0</ele><time>2026-04-22T13:26:51.083Z</time></trkpt><trkpt lat="43.4217193" lon="11.4518865"><ele>428.0</ele><time>2026-04-22T13:26:52.097Z</time></trkpt><trkpt lat="43.4217384" lon="11.452076"><ele>428.0</ele><time>2026-04-22T13:26:53.084Z</time></trkpt><trkpt lat="43.4217357" lon="11.4522436"><ele>428.0</ele><time>2026-04-22T13:26:54.087Z</time></trkpt><trkpt lat="43.4217086" lon="11.4524075"><ele>426.2</ele><time>2026-04-22T13:26:55.09Z</time></trkpt><trkpt lat="43.4216608" lon="11.4525631"><ele>424.4</ele><time>2026-04-22T13:26:56.088Z</time></trkpt><trkpt lat="43.4216082" lon="11.4527021"><ele>422.59999999999997</ele><time>2026-04-22T13:26:57.093Z</time></trkpt><trkpt lat="43.4215661" lon="11.4528333"><ele>420.79999999999995</ele><time>2026-04-22T13:26:58.084Z</time></trkpt><trkpt lat="43.4215512" lon="11.4529655"><ele>419.0</ele><time>2026-04-22T13:26:59.091Z</time></trkpt><trkpt lat="43.4215641" lon="11.4530974"><ele>418.2</ele><time>2026-04-22T13:27:00.086Z</time></trkpt><trkpt lat="43.4216082" lon="11.4532213"><ele>417.4</ele><time>2026-04-22T13:27:01.094Z</time></trkpt><trkpt lat="43.421679" lon="11.4533293"><ele>416.6</ele><time>2026-04-22T13:27:02.084Z</time></trkpt><trkpt lat="43.421762" lon="11.4534441"><ele>415.8</ele><time>2026-04-22T13:27:03.089Z</time></trkpt><trkpt lat="43.4218253" lon="11.4535638"><ele>415.0</ele><time>2026-04-22T13:27:04.086Z</time></trkpt><trkpt lat="43.4218689" lon="11.4536887"><ele>414.5</ele><time>2026-04-22T13:27:05.082Z</time></trkpt><trkpt lat="43.421884" lon="11.4538218"><ele>414.0</ele><time>2026-04-22T13:27:06.087Z</time></trkpt><trkpt lat="43.4218523" lon="11.4539668"><ele>413.5</ele><time>2026-04-22T13:27:07.081Z</time></trkpt><trkpt lat="43.4217913" lon="11.4541031"><ele>413.0</ele><time>2026-04-22T13:27:08.087Z</time></trkpt><trkpt lat="43.4216917" lon="11.4542219"><ele>413.0</ele><time>2026-04-22T13:27:09.09Z</time></trkpt><trkpt lat="43.4215644" lon="11.4543047"><ele>413.0</ele><time>2026-04-22T13:27:10.082Z</time></trkpt><trkpt lat="43.4214407" lon="11.4543854"><ele>413.0</ele><time>2026-04-22T13:27:11.084Z</time></trkpt><trkpt lat="43.421331" lon="11.454455"><ele>413.0</ele><time>2026-04-22T13:27:12.085Z</time></trkpt><trkpt lat="43.4212132" lon="11.4545243"><ele>415.25</ele><time>2026-04-22T13:27:13.085Z</time></trkpt><trkpt lat="43.4210947" lon="11.4546041"><ele>417.5</ele><time>2026-04-22T13:27:14.09Z</time></trkpt><trkpt lat="43.4209875" lon="11.4547024"><ele>419.75</ele><time>2026-04-22T13:27:15.089Z</time></trkpt><trkpt lat="43.4208954" lon="11.4548374"><ele>422.0</ele><time>2026-04-22T13:27:16.088Z</time></trkpt><trkpt lat="43.4208168" lon="11.4550123"><ele>422.0</ele><time>2026-04-22T13:27:17.094Z</time></trkpt><trkpt lat="43.4207376" lon="11.4552153"><ele>422.0</ele><time>2026-04-22T13:27:18.085Z</time></trkpt><trkpt lat="43.4206301" lon="11.4554271"><ele>422.0</ele><time>2026-04-22T13:27:19.088Z</time></trkpt><trkpt lat="43.4204863" lon="11.4556387"><ele>424.0</ele><time>2026-04-22T13:27:20.086Z</time></trkpt><trkpt lat="43.4203283" lon="11.4558421"><ele>426.0</ele><time>2026-04-22T13:27:21.091Z</time></trkpt><trkpt lat="43.4201608" lon="11.456056"><ele>428.0</ele><time>2026-04-22T13:27:22.086Z</time></trkpt><trkpt lat="43.4199975" lon="11.4562724"><ele>426.3333333333333</ele><time>2026-04-22T13:27:23.088Z</time></trkpt><trkpt lat="43.4198454" lon="11.4564678"><ele>424.66666666666663</ele><time>2026-04-22T13:27:24.086Z</time></trkpt><trkpt lat="43.4197106" lon="11.4566491"><ele>423.0</ele><time>2026-04-22T13:27:25.088Z</time></trkpt><trkpt lat="43.419582" lon="11.4567948"><ele>426.25</ele><time>2026-04-22T13:27:26.086Z</time></trkpt><trkpt lat="43.4194546" lon="11.4568913"><ele>429.5</ele><time>2026-04-22T13:27:27.089Z</time></trkpt><trkpt lat="43.4193194" lon="11.4569233"><ele>432.75</ele><time>2026-04-22T13:27:28.09Z</time></trkpt><trkpt lat="43.419186" lon="11.4569236"><ele>436.0</ele><time>2026-04-22T13:27:29.093Z</time></trkpt><trkpt lat="43.4190746" lon="11.4569517"><ele>436.0</ele><time>2026-04-22T13:27:30.098Z</time></trkpt><trkpt lat="43.4189964" lon="11.457046"><ele>436.0</ele><time>2026-04-22T13:27:31.093Z</time></trkpt><trkpt lat="43.4189583" lon="11.4571922"><ele>436.0</ele><time>2026-04-22T13:27:32.088Z</time></trkpt><trkpt lat="43.418939" lon="11.4573493"><ele>436.0</ele><time>2026-04-22T13:27:33.087Z</time></trkpt><trkpt lat="43.4189269" lon="11.4575122"><ele>435.25</ele><time>2026-04-22T13:27:34.084Z</time></trkpt><trkpt lat="43.4188973" lon="11.4576706"><ele>434.5</ele><time>2026-04-22T13:27:35.089Z</time></trkpt><trkpt lat="43.4188316" lon="11.4578099"><ele>433.75</ele><time>2026-04-22T13:27:36.098Z</time></trkpt><trkpt lat="43.4187129" lon="11.4579256"><ele>433.0</ele><time>2026-04-22T13:27:37.082Z</time></trkpt><trkpt lat="43.4185522" lon="11.4580286"><ele>433.0</ele><time>2026-04-22T13:27:38.091Z</time></trkpt><trkpt lat="43.4183775" lon="11.4581486"><ele>433.0</ele><time>2026-04-22T13:27:39.084Z</time></trkpt><trkpt lat="43.4182095" lon="11.4582807"><ele>433.0</ele><time>2026-04-22T13:27:40.09Z</time></trkpt><trkpt lat="43.4180805" lon="11.4583942"><ele>435.0</ele><time>2026-04-22T13:27:41.094Z</time></trkpt><trkpt lat="43.417945" lon="11.4584717"><ele>437.0</ele><time>2026-04-22T13:27:42.1Z</time></trkpt><trkpt lat="43.4177452" lon="11.4584699"><ele>439.0</ele><time>2026-04-22T13:27:43.092Z</time></trkpt><trkpt lat="43.4175658" lon="11.4583965"><ele>439.0</ele><time>2026-04-22T13:27:44.095Z</time></trkpt><trkpt lat="43.4173833" lon="11.4582517"><ele>439.0</ele><time>2026-04-22T13:27:45.088Z</time></trkpt><trkpt lat="43.4172246" lon="11.4581037"><ele>439.0</ele><time>2026-04-22T13:27:46.106Z</time></trkpt><trkpt lat="43.4170622" lon="11.4580114"><ele>439.6666666666667</ele><time>2026-04-22T13:27:47.089Z</time></trkpt><trkpt lat="43.4168897" lon="11.4579694"><ele>440.33333333333337</ele><time>2026-04-22T13:27:48.086Z</time></trkpt><trkpt lat="43.4167228" lon="11.4579537"><ele>441.0</ele><time>2026-04-22T13:27:49.094Z</time></trkpt><trkpt lat="43.4165737" lon="11.4579547"><ele>441.0</ele><time>2026-04-22T13:27:50.087Z</time></trkpt><trkpt lat="43.4164313" lon="11.4579796"><ele>441.0</ele><time>2026-04-22T13:27:51.094Z</time></trkpt><trkpt lat="43.4162953" lon="11.4580487"><ele>441.0</ele><time>2026-04-22T13:27:52.097Z</time></trkpt><trkpt lat="43.4161764" lon="11.4581526"><ele>441.0</ele><time>2026-04-22T13:27:53.086Z</time></trkpt><trkpt lat="43.4160789" lon="11.4582798"><ele>442.0</ele><time>2026-04-22T13:27:54.092Z</time></trkpt><trkpt lat="43.4159979" lon="11.4584121"><ele>443.0</ele><time>2026-04-22T13:27:55.091Z</time></trkpt><trkpt lat="43.415938" lon="11.4585386"><ele>444.0</ele><time>2026-04-22T13:27:56.096Z</time></trkpt><trkpt lat="43.4158986" lon="11.4586639"><ele>445.0</ele><time>2026-04-22T13:27:57.091Z</time></trkpt><trkpt lat="43.4158769" lon="11.4587804"><ele>446.0</ele><time>2026-04-22T13:27:58.089Z</time></trkpt><trkpt lat="43.4158668" lon="11.4588893"><ele>446.66666666666663</ele><time>2026-04-22T13:27:59.09Z</time></trkpt><trkpt lat="43.4158549" lon="11.4589772"><ele>447.3333333333333</ele><time>2026-04-22T13:28:00.085Z</time></trkpt><trkpt lat="43.4158425" lon="11.4591402"><ele>448.0</ele><time>2026-04-22T13:28:02.088Z</time></trkpt><trkpt lat="43.4158402" lon="11.4592732"><ele>448.66666666666663</ele><time>2026-04-22T13:28:04.089Z</time></trkpt><trkpt lat="43.4158525" lon="11.4593824"><ele>449.3333333333333</ele><time>2026-04-22T13:28:06.086Z</time></trkpt><trkpt lat="43.415866" lon="11.4594725"><ele>450.0</ele><time>2026-04-22T13:30:58.088Z</time></trkpt><trkpt lat="43.4158767" lon="11.4595892"><ele>451.4</ele><time>2026-04-22T13:31:00.098Z</time></trkpt><trkpt lat="43.4158698" lon="11.4596947"><ele>452.8</ele><time>2026-04-22T13:31:01.096Z</time></trkpt><trkpt lat="43.4158606" lon="11.4598402"><ele>454.20000000000005</ele><time>2026-04-22T13:31:02.103Z</time></trkpt><trkpt lat="43.4158554" lon="11.4600101"><ele>455.6</ele><time>2026-04-22T13:31:03.096Z</time></trkpt><trkpt lat="43.4158478" lon="11.4601889"><ele>457.0</ele><time>2026-04-22T13:31:04.101Z</time></trkpt><trkpt lat="43.4158502" lon="11.4603708"><ele>460.5</ele><time>2026-04-22T13:31:05.093Z</time></trkpt><trkpt lat="43.4158605" lon="11.4605521"><ele>464.0</ele><time>2026-04-22T13:31:06.102Z</time></trkpt><trkpt lat="43.4158928" lon="11.4607431"><ele>467.5</ele><time>2026-04-22T13:31:07.1Z</time></trkpt><trkpt lat="43.4159392" lon="11.4608917"><ele>471.0</ele><time>2026-04-22T13:31:08.086Z</time></trkpt><trkpt lat="43.4160044" lon="11.4610056"><ele>471.0</ele><time>2026-04-22T13:31:09.096Z</time></trkpt><trkpt lat="43.4160825" lon="11.4611012"><ele>471.0</ele><time>2026-04-22T13:31:10.09Z</time></trkpt><trkpt lat="43.4161464" lon="11.4611793"><ele>471.0</ele><time>2026-04-22T13:31:11.093Z</time></trkpt><trkpt lat="43.4161734" lon="11.4613151"><ele>471.0</ele><time>2026-04-22T13:31:13.09Z</time></trkpt><trkpt lat="43.4161271" lon="11.4613999"><ele>471.0</ele><time>2026-04-22T13:31:14.086Z</time></trkpt><trkpt lat="43.4160402" lon="11.4614618"><ele>471.0</ele><time>2026-04-22T13:31:15.085Z</time></trkpt><trkpt lat="43.4159177" lon="11.4614853"><ele>471.0</ele><time>2026-04-22T13:31:16.093Z</time></trkpt><trkpt lat="43.4158118" lon="11.4614632"><ele>471.0</ele><time>2026-04-22T13:31:17.088Z</time></trkpt><trkpt lat="43.4157197" lon="11.4613887"><ele>471.0</ele><time>2026-04-22T13:31:18.086Z</time></trkpt><trkpt lat="43.4156437" lon="11.461268"><ele>471.0</ele><time>2026-04-22T13:31:19.092Z</time></trkpt><trkpt lat="43.4156078" lon="11.4610955"><ele>471.0</ele><time>2026-04-22T13:31:20.09Z</time></trkpt><trkpt lat="43.4155878" lon="11.460916"><ele>471.0</ele><time>2026-04-22T13:31:21.086Z</time></trkpt><trkpt lat="43.4155533" lon="11.4607661"><ele>471.0</ele><time>2026-04-22T13:31:22.088Z</time></trkpt><trkpt lat="43.4155065" lon="11.4606536"><ele>472.8</ele><time>2026-04-22T13:31:23.086Z</time></trkpt><trkpt lat="43.4154394" lon="11.4605835"><ele>474.6</ele><time>2026-04-22T13:31:24.09Z</time></trkpt><trkpt lat="43.415361" lon="11.4605488"><ele>476.4</ele><time>2026-04-22T13:31:25.093Z</time></trkpt><trkpt lat="43.4152861" lon="11.4605493"><ele>478.2</ele><time>2026-04-22T13:31:26.087Z</time></trkpt><trkpt lat="43.415207" lon="11.4606412"><ele>480.0</ele><time>2026-04-22T13:31:28.09Z</time></trkpt><trkpt lat="43.4152556" lon="11.4607798"><ele>480.0</ele><time>2026-04-22T13:31:30.088Z</time></trkpt><trkpt lat="43.4153191" lon="11.4608597"><ele>480.0</ele><time>2026-04-22T13:31:31.084Z</time></trkpt><trkpt lat="43.4153939" lon="11.4609411"><ele>480.0</ele><time>2026-04-22T13:31:32.088Z</time></trkpt><trkpt lat="43.4154566" lon="11.4610259"><ele>480.0</ele><time>2026-04-22T13:31:33.088Z</time></trkpt><trkpt lat="43.415492" lon="11.4611189"><ele>480.0</ele><time>2026-04-22T13:31:34.086Z</time></trkpt><trkpt lat="43.4154865" lon="11.4612309"><ele>480.0</ele><time>2026-04-22T13:31:35.094Z</time></trkpt><trkpt lat="43.4154525" lon="11.4613633"><ele>482.0</ele><time>2026-04-22T13:31:36.084Z</time></trkpt><trkpt lat="43.415402" lon="11.4615007"><ele>484.0</ele><time>2026-04-22T13:31:37.085Z</time></trkpt><trkpt lat="43.4153581" lon="11.4616296"><ele>486.0</ele><time>2026-04-22T13:31:38.091Z</time></trkpt><trkpt lat="43.415329" lon="11.4617331"><ele>488.0</ele><time>2026-04-22T13:31:39.084Z</time></trkpt><trkpt lat="43.4152643" lon="11.4618015"><ele>490.0</ele><time>2026-04-22T13:31:41.09Z</time></trkpt><trkpt lat="43.4152088" lon="11.4616821"><ele>490.0</ele><time>2026-04-22T13:31:43.088Z</time></trkpt><trkpt lat="43.4151957" lon="11.4615763"><ele>490.0</ele><time>2026-04-22T13:31:44.087Z</time></trkpt><trkpt lat="43.4151819" lon="11.4614598"><ele>490.0</ele><time>2026-04-22T13:31:45.083Z</time></trkpt><trkpt lat="43.4151524" lon="11.4613642"><ele>490.0</ele><time>2026-04-22T13:31:46.097Z</time></trkpt><trkpt lat="43.4150588" lon="11.4613058"><ele>490.0</ele><time>2026-04-22T13:31:48.087Z</time></trkpt><trkpt lat="43.4149684" lon="11.4613976"><ele>490.0</ele><time>2026-04-22T13:31:50.087Z</time></trkpt><trkpt lat="43.4149304" lon="11.4615516"><ele>490.0</ele><time>2026-04-22T13:31:52.085Z</time></trkpt><trkpt lat="43.414917" lon="11.4617297"><ele>490.0</ele><time>2026-04-22T13:31:54.086Z</time></trkpt><trkpt lat="43.4149021" lon="11.4618328"><ele>490.0</ele><time>2026-04-22T13:31:55.094Z</time></trkpt><trkpt lat="43.4148755" lon="11.4619423"><ele>490.0</ele><time>2026-04-22T13:31:56.087Z</time></trkpt><trkpt lat="43.4148326" lon="11.4620516"><ele>491.33333333333337</ele><time>2026-04-22T13:31:57.086Z</time></trkpt><trkpt lat="43.4147787" lon="11.4621637"><ele>492.6666666666667</ele><time>2026-04-22T13:31:58.088Z</time></trkpt><trkpt lat="43.4147204" lon="11.4622537"><ele>494.0</ele><time>2026-04-22T13:31:59.089Z</time></trkpt><trkpt lat="43.4146755" lon="11.4623323"><ele>495.33333333333337</ele><time>2026-04-22T13:32:00.086Z</time></trkpt><trkpt lat="43.4146487" lon="11.4624164"><ele>496.6666666666667</ele><time>2026-04-22T13:32:01.083Z</time></trkpt><trkpt lat="43.414623" lon="11.4625199"><ele>498.0</ele><time>2026-04-22T13:32:02.083Z</time></trkpt><trkpt lat="43.4145893" lon="11.4626498"><ele>500.4</ele><time>2026-04-22T13:32:03.087Z</time></trkpt><trkpt lat="43.4145504" lon="11.4627965"><ele>502.79999999999995</ele><time>2026-04-22T13:32:04.095Z</time></trkpt><trkpt lat="43.4145178" lon="11.4629432"><ele>505.2</ele><time>2026-04-22T13:32:05.084Z</time></trkpt><trkpt lat="43.4145057" lon="11.463093"><ele>507.6</ele><time>2026-04-22T13:32:06.084Z</time></trkpt><trkpt lat="43.4145154" lon="11.4632329"><ele>510.0</ele><time>2026-04-22T13:32:07.085Z</time></trkpt><trkpt lat="43.4145404" lon="11.4633741"><ele>512.8</ele><time>2026-04-22T13:32:08.085Z</time></trkpt><trkpt lat="43.4145676" lon="11.4635154"><ele>515.6</ele><time>2026-04-22T13:32:09.083Z</time></trkpt><trkpt lat="43.4145847" lon="11.4636858"><ele>518.4</ele><time>2026-04-22T13:32:10.085Z</time></trkpt><trkpt lat="43.4145769" lon="11.4638121"><ele>521.2</ele><time>2026-04-22T13:32:11.088Z</time></trkpt><trkpt lat="43.4145461" lon="11.4639469"><ele>524.0</ele><time>2026-04-22T13:32:12.09Z</time></trkpt><trkpt lat="43.4145" lon="11.4640619"><ele>524.0</ele><time>2026-04-22T13:32:13.09Z</time></trkpt><trkpt lat="43.4144432" lon="11.4641456"><ele>524.0</ele><time>2026-04-22T13:32:14.082Z</time></trkpt><trkpt lat="43.4143616" lon="11.4642192"><ele>524.0</ele><time>2026-04-22T13:32:15.084Z</time></trkpt><trkpt lat="43.4142578" lon="11.4642969"><ele>524.0</ele><time>2026-04-22T13:32:16.085Z</time></trkpt><trkpt lat="43.4141444" lon="11.4643837"><ele>524.0</ele><time>2026-04-22T13:32:17.088Z</time></trkpt><trkpt lat="43.4140187" lon="11.4644663"><ele>524.0</ele><time>2026-04-22T13:32:18.082Z</time></trkpt><trkpt lat="43.4138875" lon="11.4645309"><ele>524.0</ele><time>2026-04-22T13:32:19.087Z</time></trkpt><trkpt lat="43.4137497" lon="11.46458"><ele>524.0</ele><time>2026-04-22T13:32:20.096Z</time></trkpt><trkpt lat="43.4136183" lon="11.4646172"><ele>524.0</ele><time>2026-04-22T13:32:21.081Z</time></trkpt><trkpt lat="43.4134934" lon="11.4646409"><ele>522.6</ele><time>2026-04-22T13:32:22.088Z</time></trkpt><trkpt lat="43.4133816" lon="11.4646425"><ele>521.2</ele><time>2026-04-22T13:32:23.084Z</time></trkpt><trkpt lat="43.4132774" lon="11.464619"><ele>519.8000000000001</ele><time>2026-04-22T13:32:24.084Z</time></trkpt><trkpt lat="43.4131838" lon="11.4645805"><ele>518.4</ele><time>2026-04-22T13:32:25.09Z</time></trkpt><trkpt lat="43.4131172" lon="11.4645254"><ele>517.0</ele><time>2026-04-22T13:32:26.089Z</time></trkpt><trkpt lat="43.4130392" lon="11.4644192"><ele>516.4</ele><time>2026-04-22T13:32:28.09Z</time></trkpt><trkpt lat="43.4129274" lon="11.4643808"><ele>515.8000000000001</ele><time>2026-04-22T13:32:30.103Z</time></trkpt><trkpt lat="43.4128378" lon="11.4643844"><ele>515.2</ele><time>2026-04-22T13:32:31.088Z</time></trkpt><trkpt lat="43.412733" lon="11.4643882"><ele>514.6</ele><time>2026-04-22T13:32:32.092Z</time></trkpt><trkpt lat="43.4126307" lon="11.4643964"><ele>514.0</ele><time>2026-04-22T13:32:33.092Z</time></trkpt><trkpt lat="43.4125316" lon="11.4644084"><ele>514.0</ele><time>2026-04-22T13:32:34.094Z</time></trkpt><trkpt lat="43.4124347" lon="11.464444"><ele>514.0</ele><time>2026-04-22T13:32:35.088Z</time></trkpt><trkpt lat="43.4123352" lon="11.4644916"><ele>514.0</ele><time>2026-04-22T13:32:36.09Z</time></trkpt><trkpt lat="43.4122348" lon="11.4645558"><ele>514.0</ele><time>2026-04-22T13:32:37.09Z</time></trkpt><trkpt lat="43.4121246" lon="11.4646123"><ele>514.0</ele><time>2026-04-22T13:32:38.086Z</time></trkpt><trkpt lat="43.412016" lon="11.4646782"><ele>511.79999999999995</ele><time>2026-04-22T13:32:39.087Z</time></trkpt><trkpt lat="43.4119144" lon="11.4647438"><ele>509.59999999999997</ele><time>2026-04-22T13:32:40.093Z</time></trkpt><trkpt lat="43.4118152" lon="11.4648067"><ele>507.4</ele><time>2026-04-22T13:32:41.087Z</time></trkpt><trkpt lat="43.4117239" lon="11.4648566"><ele>505.2</ele><time>2026-04-22T13:32:42.091Z</time></trkpt><trkpt lat="43.4116426" lon="11.4648839"><ele>503.0</ele><time>2026-04-22T13:32:43.088Z</time></trkpt><trkpt lat="43.411568" lon="11.4648779"><ele>503.0</ele><time>2026-04-22T13:32:44.09Z</time></trkpt><trkpt lat="43.4114959" lon="11.4648424"><ele>502.99999999999994</ele><time>2026-04-22T13:32:45.1Z</time></trkpt><trkpt lat="43.4114185" lon="11.4647725"><ele>502.99999999999994</ele><time>2026-04-22T13:32:46.09Z</time></trkpt><trkpt lat="43.411318" lon="11.4646778"><ele>503.0</ele><time>2026-04-22T13:32:47.098Z</time></trkpt><trkpt lat="43.4112073" lon="11.4645858"><ele>503.0</ele><time>2026-04-22T13:32:48.093Z</time></trkpt><trkpt lat="43.4111071" lon="11.4644991"><ele>501.49999999999994</ele><time>2026-04-22T13:32:49.09Z</time></trkpt><trkpt lat="43.4110141" lon="11.4644419"><ele>500.0</ele><time>2026-04-22T13:32:50.085Z</time></trkpt><trkpt lat="43.4109264" lon="11.464412"><ele>498.5</ele><time>2026-04-22T13:32:51.088Z</time></trkpt><trkpt lat="43.4108506" lon="11.4644217"><ele>497.0</ele><time>2026-04-22T13:32:52.09Z</time></trkpt><trkpt lat="43.4107731" lon="11.4644459"><ele>495.49999999999994</ele><time>2026-04-22T13:32:53.087Z</time></trkpt><trkpt lat="43.4106783" lon="11.4644777"><ele>494.0</ele><time>2026-04-22T13:32:54.091Z</time></trkpt><trkpt lat="43.4105767" lon="11.4645011"><ele>493.66666666666663</ele><time>2026-04-22T13:32:55.091Z</time></trkpt><trkpt lat="43.410474" lon="11.4645192"><ele>493.3333333333333</ele><time>2026-04-22T13:32:56.089Z</time></trkpt><trkpt lat="43.4103996" lon="11.4645194"><ele>493.0</ele><time>2026-04-22T13:32:57.097Z</time></trkpt><trkpt lat="43.4103338" lon="11.4644955"><ele>492.66666666666663</ele><time>2026-04-22T13:32:59.089Z</time></trkpt><trkpt lat="43.4102607" lon="11.4645094"><ele>492.3333333333333</ele><time>2026-04-22T13:33:06.084Z</time></trkpt><trkpt lat="43.4101879" lon="11.4645207"><ele>492.0</ele><time>2026-04-22T13:33:07.091Z</time></trkpt><trkpt lat="43.4100789" lon="11.4645363"><ele>492.0</ele><time>2026-04-22T13:33:08.086Z</time></trkpt><trkpt lat="43.4099356" lon="11.4645488"><ele>492.0</ele><time>2026-04-22T13:33:09.095Z</time></trkpt><trkpt lat="43.4097588" lon="11.4645559"><ele>492.0</ele><time>2026-04-22T13:33:10.088Z</time></trkpt><trkpt lat="43.4095807" lon="11.464556"><ele>492.33333333333337</ele><time>2026-04-22T13:33:11.093Z</time></trkpt><trkpt lat="43.409415" lon="11.4645592"><ele>492.6666666666667</ele><time>2026-04-22T13:33:12.094Z</time></trkpt><trkpt lat="43.4092623" lon="11.4645637"><ele>493.0</ele><time>2026-04-22T13:33:13.084Z</time></trkpt><trkpt lat="43.409126" lon="11.46457"><ele>493.0</ele><time>2026-04-22T13:33:14.095Z</time></trkpt><trkpt lat="43.408999" lon="11.4645805"><ele>493.0</ele><time>2026-04-22T13:33:15.089Z</time></trkpt><trkpt lat="43.4088762" lon="11.4645953"><ele>493.0</ele><time>2026-04-22T13:33:16.085Z</time></trkpt><trkpt lat="43.4087573" lon="11.4646098"><ele>493.0</ele><time>2026-04-22T13:33:17.092Z</time></trkpt><trkpt lat="43.4086379" lon="11.464617"><ele>492.0</ele><time>2026-04-22T13:33:18.096Z</time></trkpt><trkpt lat="43.4085106" lon="11.4646175"><ele>491.0</ele><time>2026-04-22T13:33:19.085Z</time></trkpt><trkpt lat="43.4083655" lon="11.4646021"><ele>490.0</ele><time>2026-04-22T13:33:20.095Z</time></trkpt><trkpt lat="43.4082232" lon="11.4645891"><ele>489.0</ele><time>2026-04-22T13:33:21.099Z</time></trkpt><trkpt lat="43.4080853" lon="11.4645835"><ele>487.0</ele><time>2026-04-22T13:33:22.086Z</time></trkpt><trkpt lat="43.4079527" lon="11.4645872"><ele>485.0</ele><time>2026-04-22T13:33:23.097Z</time></trkpt><trkpt lat="43.4078261" lon="11.4645908"><ele>483.0</ele><time>2026-04-22T13:33:24.087Z</time></trkpt><trkpt lat="43.4076959" lon="11.4646024"><ele>481.0</ele><time>2026-04-22T13:33:25.096Z</time></trkpt><trkpt lat="43.4075636" lon="11.4646213"><ele>481.0</ele><time>2026-04-22T13:33:26.093Z</time></trkpt><trkpt lat="43.4074304" lon="11.4646433"><ele>481.0</ele><time>2026-04-22T13:33:27.093Z</time></trkpt><trkpt lat="43.4073024" lon="11.464662"><ele>481.0</ele><time>2026-04-22T13:33:28.096Z</time></trkpt><trkpt lat="43.4071773" lon="11.4646783"><ele>481.0</ele><time>2026-04-22T13:33:29.091Z</time></trkpt><trkpt lat="43.4070593" lon="11.4646868"><ele>480.25</ele><time>2026-04-22T13:33:30.083Z</time></trkpt><trkpt lat="43.4069484" lon="11.4646811"><ele>479.5</ele><time>2026-04-22T13:33:31.091Z</time></trkpt><trkpt lat="43.4068408" lon="11.4646591"><ele>478.75</ele><time>2026-04-22T13:33:32.089Z</time></trkpt><trkpt lat="43.4067338" lon="11.4646226"><ele>478.0</ele><time>2026-04-22T13:33:33.09Z</time></trkpt><trkpt lat="43.406617" lon="11.4645775"><ele>477.0</ele><time>2026-04-22T13:33:34.094Z</time></trkpt><trkpt lat="43.4064874" lon="11.4645319"><ele>476.0</ele><time>2026-04-22T13:33:35.087Z</time></trkpt><trkpt lat="43.4063581" lon="11.4644846"><ele>475.0</ele><time>2026-04-22T13:33:36.087Z</time></trkpt><trkpt lat="43.406233" lon="11.4644342"><ele>474.0</ele><time>2026-04-22T13:33:37.091Z</time></trkpt><trkpt lat="43.4061149" lon="11.4643776"><ele>472.79999999999995</ele><time>2026-04-22T13:33:38.091Z</time></trkpt><trkpt lat="43.4060023" lon="11.4643117"><ele>471.59999999999997</ele><time>2026-04-22T13:33:39.085Z</time></trkpt><trkpt lat="43.4059006" lon="11.4642381"><ele>470.4</ele><time>2026-04-22T13:33:40.086Z</time></trkpt><trkpt lat="43.4058102" lon="11.4641671"><ele>469.2</ele><time>2026-04-22T13:33:41.087Z</time></trkpt><trkpt lat="43.4057302" lon="11.464094"><ele>468.0</ele><time>2026-04-22T13:33:42.09Z</time></trkpt><trkpt lat="43.4056467" lon="11.4640163"><ele>468.0</ele><time>2026-04-22T13:33:43.088Z</time></trkpt><trkpt lat="43.4055571" lon="11.4639336"><ele>467.99999999999994</ele><time>2026-04-22T13:33:44.09Z</time></trkpt><trkpt lat="43.4054663" lon="11.4638485"><ele>467.99999999999994</ele><time>2026-04-22T13:33:45.085Z</time></trkpt><trkpt lat="43.4053784" lon="11.4637585"><ele>468.0</ele><time>2026-04-22T13:33:46.093Z</time></trkpt><trkpt lat="43.4052959" lon="11.4636632"><ele>468.0</ele><time>2026-04-22T13:33:47.09Z</time></trkpt><trkpt lat="43.4052209" lon="11.463569"><ele>465.0</ele><time>2026-04-22T13:33:48.089Z</time></trkpt><trkpt lat="43.4051538" lon="11.4634824"><ele>461.99999999999994</ele><time>2026-04-22T13:33:49.09Z</time></trkpt><trkpt lat="43.405091" lon="11.4634044"><ele>458.99999999999994</ele><time>2026-04-22T13:33:50.089Z</time></trkpt><trkpt lat="43.4050251" lon="11.4633101"><ele>456.0</ele><time>2026-04-22T13:33:51.092Z</time></trkpt><trkpt lat="43.4049537" lon="11.4632039"><ele>453.0</ele><time>2026-04-22T13:33:52.091Z</time></trkpt><trkpt lat="43.404879" lon="11.4630824"><ele>453.0</ele><time>2026-04-22T13:33:53.094Z</time></trkpt><trkpt lat="43.404807" lon="11.4629488"><ele>453.0</ele><time>2026-04-22T13:33:54.1Z</time></trkpt><trkpt lat="43.4047453" lon="11.4628026"><ele>453.0</ele><time>2026-04-22T13:33:55.093Z</time></trkpt><trkpt lat="43.4047043" lon="11.4626498"><ele>453.0</ele><time>2026-04-22T13:33:56.09Z</time></trkpt><trkpt lat="43.4046782" lon="11.4624906"><ele>452.5</ele><time>2026-04-22T13:33:57.093Z</time></trkpt><trkpt lat="43.4046544" lon="11.4623272"><ele>452.0</ele><time>2026-04-22T13:33:58.097Z</time></trkpt><trkpt lat="43.4046298" lon="11.4621505"><ele>451.5</ele><time>2026-04-22T13:33:59.095Z</time></trkpt><trkpt lat="43.4046013" lon="11.4619551"><ele>451.0</ele><time>2026-04-22T13:34:00.089Z</time></trkpt><trkpt lat="43.404567" lon="11.46176"><ele>452.25</ele><time>2026-04-22T13:34:01.096Z</time></trkpt><trkpt lat="43.4045284" lon="11.4615829"><ele>453.5</ele><time>2026-04-22T13:34:02.095Z</time></trkpt><trkpt lat="43.4044748" lon="11.461424"><ele>454.75</ele><time>2026-04-22T13:34:03.094Z</time></trkpt><trkpt lat="43.4043981" lon="11.4612671"><ele>456.0</ele><time>2026-04-22T13:34:04.087Z</time></trkpt><trkpt lat="43.4043115" lon="11.4610926"><ele>456.0</ele><time>2026-04-22T13:34:05.095Z</time></trkpt><trkpt lat="43.4042315" lon="11.4609178"><ele>456.0</ele><time>2026-04-22T13:34:06.093Z</time></trkpt><trkpt lat="43.4041579" lon="11.4607528"><ele>456.0</ele><time>2026-04-22T13:34:07.09Z</time></trkpt><trkpt lat="43.4041023" lon="11.4605986"><ele>456.0</ele><time>2026-04-22T13:34:08.096Z</time></trkpt><trkpt lat="43.4040687" lon="11.4604435"><ele>456.0</ele><time>2026-04-22T13:34:09.091Z</time></trkpt><trkpt lat="43.4040628" lon="11.4602926"><ele>456.0</ele><time>2026-04-22T13:34:10.098Z</time></trkpt><trkpt lat="43.4040796" lon="11.460134"><ele>456.0</ele><time>2026-04-22T13:34:11.091Z</time></trkpt><trkpt lat="43.404111" lon="11.459974"><ele>456.0</ele><time>2026-04-22T13:34:12.087Z</time></trkpt><trkpt lat="43.4041476" lon="11.4598154"><ele>456.0</ele><time>2026-04-22T13:34:13.085Z</time></trkpt><trkpt lat="43.4041885" lon="11.4596612"><ele>456.0</ele><time>2026-04-22T13:34:14.094Z</time></trkpt><trkpt lat="43.4042387" lon="11.4595101"><ele>456.0</ele><time>2026-04-22T13:34:15.086Z</time></trkpt><trkpt lat="43.4043065" lon="11.4593616"><ele>456.0</ele><time>2026-04-22T13:34:16.098Z</time></trkpt><trkpt lat="43.4043837" lon="11.4592187"><ele>455.75</ele><time>2026-04-22T13:34:17.094Z</time></trkpt><trkpt lat="43.4044768" lon="11.4590818"><ele>455.5</ele><time>2026-04-22T13:34:18.095Z</time></trkpt><trkpt lat="43.4045724" lon="11.4589506"><ele>455.25</ele><time>2026-04-22T13:34:19.087Z</time></trkpt><trkpt lat="43.4046611" lon="11.4588269"><ele>455.0</ele><time>2026-04-22T13:34:20.098Z</time></trkpt><trkpt lat="43.4047328" lon="11.4587099"><ele>454.2</ele><time>2026-04-22T13:34:21.088Z</time></trkpt><trkpt lat="43.4047853" lon="11.4585859"><ele>453.4</ele><time>2026-04-22T13:34:22.094Z</time></trkpt><trkpt lat="43.4048217" lon="11.458448"><ele>452.6</ele><time>2026-04-22T13:34:23.09Z</time></trkpt><trkpt lat="43.4048549" lon="11.4583113"><ele>451.8</ele><time>2026-04-22T13:34:24.093Z</time></trkpt><trkpt lat="43.404897" lon="11.4581882"><ele>451.0</ele><time>2026-04-22T13:34:25.089Z</time></trkpt><trkpt lat="43.4049477" lon="11.4580868"><ele>451.0</ele><time>2026-04-22T13:34:26.094Z</time></trkpt><trkpt lat="43.4049951" lon="11.4579996"><ele>451.0</ele><time>2026-04-22T13:34:27.089Z</time></trkpt><trkpt lat="43.4050274" lon="11.4579027"><ele>451.0</ele><time>2026-04-22T13:34:28.094Z</time></trkpt><trkpt lat="43.4050381" lon="11.4577833"><ele>451.0</ele><time>2026-04-22T13:34:29.092Z</time></trkpt><trkpt lat="43.405029" lon="11.4576412"><ele>451.0</ele><time>2026-04-22T13:34:30.093Z</time></trkpt><trkpt lat="43.4050149" lon="11.4574779"><ele>449.0</ele><time>2026-04-22T13:34:31.097Z</time></trkpt><trkpt lat="43.404993" lon="11.4573013"><ele>447.0</ele><time>2026-04-22T13:34:32.092Z</time></trkpt><trkpt lat="43.404963" lon="11.4571337"><ele>445.0</ele><time>2026-04-22T13:34:33.092Z</time></trkpt><trkpt lat="43.4049255" lon="11.4569788"><ele>443.0</ele><time>2026-04-22T13:34:34.089Z</time></trkpt><trkpt lat="43.4048844" lon="11.4568388"><ele>441.59999999999997</ele><time>2026-04-22T13:34:35.093Z</time></trkpt><trkpt lat="43.4048443" lon="11.4567092"><ele>440.19999999999993</ele><time>2026-04-22T13:34:36.088Z</time></trkpt><trkpt lat="43.4048067" lon="11.4565946"><ele>438.8</ele><time>2026-04-22T13:34:37.095Z</time></trkpt><trkpt lat="43.4047896" lon="11.4565034"><ele>437.4</ele><time>2026-04-22T13:34:38.092Z</time></trkpt><trkpt lat="43.4048386" lon="11.4563964"><ele>436.0</ele><time>2026-04-22T13:34:40.091Z</time></trkpt><trkpt lat="43.4049708" lon="11.4563764"><ele>436.0</ele><time>2026-04-22T13:34:42.092Z</time></trkpt><trkpt lat="43.4050738" lon="11.4563945"><ele>436.0</ele><time>2026-04-22T13:34:43.092Z</time></trkpt><trkpt lat="43.4051776" lon="11.4564136"><ele>436.0</ele><time>2026-04-22T13:34:44.096Z</time></trkpt><trkpt lat="43.4052952" lon="11.4564301"><ele>436.0</ele><time>2026-04-22T13:34:45.087Z</time></trkpt><trkpt lat="43.4054174" lon="11.4564426"><ele>436.0</ele><time>2026-04-22T13:34:46.089Z</time></trkpt><trkpt lat="43.4055303" lon="11.456447"><ele>434.20000000000005</ele><time>2026-04-22T13:34:47.087Z</time></trkpt><trkpt lat="43.40563" lon="11.4564382"><ele>432.40000000000003</ele><time>2026-04-22T13:34:48.094Z</time></trkpt><trkpt lat="43.405719" lon="11.4564078"><ele>430.6</ele><time>2026-04-22T13:34:49.085Z</time></trkpt><trkpt lat="43.405803" lon="11.4563471"><ele>428.8</ele><time>2026-04-22T13:34:50.088Z</time></trkpt><trkpt lat="43.4058756" lon="11.4562586"><ele>427.0</ele><time>2026-04-22T13:34:51.09Z</time></trkpt><trkpt lat="43.4059408" lon="11.4561316"><ele>426.75</ele><time>2026-04-22T13:34:52.093Z</time></trkpt><trkpt lat="43.4059954" lon="11.4559976"><ele>426.5</ele><time>2026-04-22T13:34:53.089Z</time></trkpt><trkpt lat="43.4060358" lon="11.4558544"><ele>426.25</ele><time>2026-04-22T13:34:54.1Z</time></trkpt><trkpt lat="43.4060673" lon="11.4557024"><ele>426.0</ele><time>2026-04-22T13:34:55.091Z</time></trkpt><trkpt lat="43.4060913" lon="11.4555268"><ele>425.0</ele><time>2026-04-22T13:34:56.088Z</time></trkpt><trkpt lat="43.4061133" lon="11.4553347"><ele>424.0</ele><time>2026-04-22T13:34:57.097Z</time></trkpt><trkpt lat="43.4061345" lon="11.4551266"><ele>423.0</ele><time>2026-04-22T13:34:58.085Z</time></trkpt><trkpt lat="43.4061695" lon="11.4549556"><ele>422.0</ele><time>2026-04-22T13:34:59.098Z</time></trkpt><trkpt lat="43.4062145" lon="11.4548072"><ele>422.0</ele><time>2026-04-22T13:35:00.094Z</time></trkpt><trkpt lat="43.4062704" lon="11.4546689"><ele>422.0</ele><time>2026-04-22T13:35:01.091Z</time></trkpt><trkpt lat="43.4063444" lon="11.4545423"><ele>422.0</ele><time>2026-04-22T13:35:02.087Z</time></trkpt><trkpt lat="43.4064261" lon="11.454422"><ele>422.0</ele><time>2026-04-22T13:35:03.092Z</time></trkpt><trkpt lat="43.4064978" lon="11.4542831"><ele>420.0</ele><time>2026-04-22T13:35:04.095Z</time></trkpt><trkpt lat="43.4065533" lon="11.4541299"><ele>418.0</ele><time>2026-04-22T13:35:05.087Z</time></trkpt><trkpt lat="43.4065879" lon="11.4539749"><ele>416.0</ele><time>2026-04-22T13:35:06.096Z</time></trkpt><trkpt lat="43.4065984" lon="11.453834"><ele>414.0</ele><time>2026-04-22T13:35:07.092Z</time></trkpt><trkpt lat="43.4065808" lon="11.4537107"><ele>412.0</ele><time>2026-04-22T13:35:08.095Z</time></trkpt><trkpt lat="43.4065401" lon="11.4535933"><ele>412.0</ele><time>2026-04-22T13:35:09.086Z</time></trkpt><trkpt lat="43.406496" lon="11.4534643"><ele>412.0</ele><time>2026-04-22T13:35:10.09Z</time></trkpt><trkpt lat="43.4064527" lon="11.4533089"><ele>412.0</ele><time>2026-04-22T13:35:11.092Z</time></trkpt><trkpt lat="43.4064309" lon="11.4531362"><ele>412.0</ele><time>2026-04-22T13:35:12.087Z</time></trkpt><trkpt lat="43.4064383" lon="11.4529631"><ele>411.25</ele><time>2026-04-22T13:35:13.091Z</time></trkpt><trkpt lat="43.4064659" lon="11.4527848"><ele>410.5</ele><time>2026-04-22T13:35:14.095Z</time></trkpt><trkpt lat="43.4064929" lon="11.4525881"><ele>409.75</ele><time>2026-04-22T13:35:15.091Z</time></trkpt><trkpt lat="43.4065093" lon="11.4523923"><ele>409.0</ele><time>2026-04-22T13:35:16.099Z</time></trkpt><trkpt lat="43.4065141" lon="11.4522135"><ele>407.5</ele><time>2026-04-22T13:35:17.097Z</time></trkpt><trkpt lat="43.4065" lon="11.4520486"><ele>406.0</ele><time>2026-04-22T13:35:18.094Z</time></trkpt><trkpt lat="43.4064732" lon="11.4518935"><ele>404.5</ele><time>2026-04-22T13:35:19.098Z</time></trkpt><trkpt lat="43.4064227" lon="11.4517543"><ele>403.0</ele><time>2026-04-22T13:35:20.088Z</time></trkpt><trkpt lat="43.4063556" lon="11.4516125"><ele>405.6666666666667</ele><time>2026-04-22T13:35:21.096Z</time></trkpt><trkpt lat="43.4062636" lon="11.4514636"><ele>408.33333333333337</ele><time>2026-04-22T13:35:22.092Z</time></trkpt><trkpt lat="43.4061646" lon="11.4512906"><ele>411.0</ele><time>2026-04-22T13:35:23.092Z</time></trkpt><trkpt lat="43.4060731" lon="11.4511168"><ele>411.0</ele><time>2026-04-22T13:35:24.094Z</time></trkpt><trkpt lat="43.4060017" lon="11.4509521"><ele>411.0</ele><time>2026-04-22T13:35:25.092Z</time></trkpt><trkpt lat="43.4059384" lon="11.4507787"><ele>411.0</ele><time>2026-04-22T13:35:26.087Z</time></trkpt><trkpt lat="43.4058892" lon="11.4506117"><ele>411.0</ele><time>2026-04-22T13:35:27.09Z</time></trkpt><trkpt lat="43.4058527" lon="11.4504427"><ele>410.25</ele><time>2026-04-22T13:35:28.089Z</time></trkpt><trkpt lat="43.4058073" lon="11.4502796"><ele>409.5</ele><time>2026-04-22T13:35:29.084Z</time></trkpt><trkpt lat="43.4057471" lon="11.450113"><ele>408.75</ele><time>2026-04-22T13:35:30.09Z</time></trkpt><trkpt lat="43.4056772" lon="11.4499428"><ele>408.0</ele><time>2026-04-22T13:35:31.094Z</time></trkpt><trkpt lat="43.4055982" lon="11.4497747"><ele>405.66666666666663</ele><time>2026-04-22T13:35:32.087Z</time></trkpt><trkpt lat="43.4055052" lon="11.4495978"><ele>403.3333333333333</ele><time>2026-04-22T13:35:33.089Z</time></trkpt><trkpt lat="43.4053967" lon="11.449421"><ele>401.0</ele><time>2026-04-22T13:35:34.097Z</time></trkpt><trkpt lat="43.4052881" lon="11.4492509"><ele>401.0</ele><time>2026-04-22T13:35:35.091Z</time></trkpt><trkpt lat="43.4051906" lon="11.4490995"><ele>401.0</ele><time>2026-04-22T13:35:36.091Z</time></trkpt><trkpt lat="43.4051109" lon="11.4489678"><ele>401.0</ele><time>2026-04-22T13:35:37.087Z</time></trkpt><trkpt lat="43.4050463" lon="11.4488644"><ele>401.0</ele><time>2026-04-22T13:35:38.088Z</time></trkpt><trkpt lat="43.4049982" lon="11.4487874"><ele>401.0</ele><time>2026-04-22T13:35:39.089Z</time></trkpt><trkpt lat="43.4049251" lon="11.4486687"><ele>400.6</ele><time>2026-04-22T13:35:41.093Z</time></trkpt><trkpt lat="43.4048741" lon="11.448592"><ele>400.20000000000005</ele><time>2026-04-22T13:35:42.086Z</time></trkpt><trkpt lat="43.4047938" lon="11.4485047"><ele>399.79999999999995</ele><time>2026-04-22T13:35:43.091Z</time></trkpt><trkpt lat="43.4046925" lon="11.4484171"><ele>399.4</ele><time>2026-04-22T13:35:44.087Z</time></trkpt><trkpt lat="43.4045753" lon="11.44832"><ele>399.0</ele><time>2026-04-22T13:35:45.089Z</time></trkpt><trkpt lat="43.4044461" lon="11.4482247"><ele>398.66666666666663</ele><time>2026-04-22T13:35:46.094Z</time></trkpt><trkpt lat="43.4043118" lon="11.4481298"><ele>398.3333333333333</ele><time>2026-04-22T13:35:47.089Z</time></trkpt><trkpt lat="43.4041746" lon="11.4480323"><ele>398.0</ele><time>2026-04-22T13:35:48.09Z</time></trkpt><trkpt lat="43.4040332" lon="11.4479412"><ele>398.3333333333333</ele><time>2026-04-22T13:35:49.096Z</time></trkpt><trkpt lat="43.40389" lon="11.4478584"><ele>398.66666666666663</ele><time>2026-04-22T13:35:50.085Z</time></trkpt><trkpt lat="43.403744" lon="11.4477885"><ele>399.0</ele><time>2026-04-22T13:35:51.085Z</time></trkpt><trkpt lat="43.4035947" lon="11.4477259"><ele>399.0</ele><time>2026-04-22T13:35:52.088Z</time></trkpt><trkpt lat="43.4034579" lon="11.4476715"><ele>399.0</ele><time>2026-04-22T13:35:53.083Z</time></trkpt><trkpt lat="43.4033346" lon="11.447622"><ele>399.0</ele><time>2026-04-22T13:35:54.087Z</time></trkpt><trkpt lat="43.403222" lon="11.4475699"><ele>399.0</ele><time>2026-04-22T13:35:55.096Z</time></trkpt><trkpt lat="43.4031053" lon="11.4475015"><ele>396.33333333333337</ele><time>2026-04-22T13:35:56.091Z</time></trkpt><trkpt lat="43.4029832" lon="11.4474229"><ele>393.6666666666667</ele><time>2026-04-22T13:35:57.097Z</time></trkpt><trkpt lat="43.4028445" lon="11.4473357"><ele>391.0</ele><time>2026-04-22T13:35:58.092Z</time></trkpt><trkpt lat="43.4026847" lon="11.4472387"><ele>391.0</ele><time>2026-04-22T13:35:59.091Z</time></trkpt><trkpt lat="43.4025104" lon="11.4471351"><ele>391.0</ele><time>2026-04-22T13:36:00.098Z</time></trkpt><trkpt lat="43.4023357" lon="11.4470295"><ele>391.0</ele><time>2026-04-22T13:36:01.094Z</time></trkpt><trkpt lat="43.4021719" lon="11.4469263"><ele>390.0</ele><time>2026-04-22T13:36:02.09Z</time></trkpt><trkpt lat="43.4020217" lon="11.4468177"><ele>389.0</ele><time>2026-04-22T13:36:03.096Z</time></trkpt><trkpt lat="43.401882" lon="11.4467002"><ele>388.0</ele><time>2026-04-22T13:36:04.099Z</time></trkpt><trkpt lat="43.4017547" lon="11.446567"><ele>388.0</ele><time>2026-04-22T13:36:05.091Z</time></trkpt><trkpt lat="43.4016345" lon="11.4464155"><ele>388.0</ele><time>2026-04-22T13:36:06.09Z</time></trkpt><trkpt lat="43.4015249" lon="11.4462675"><ele>388.0</ele><time>2026-04-22T13:36:07.091Z</time></trkpt><trkpt lat="43.401414" lon="11.4461258"><ele>386.75</ele><time>2026-04-22T13:36:08.084Z</time></trkpt><trkpt lat="43.4013155" lon="11.445981"><ele>385.5</ele><time>2026-04-22T13:36:09.098Z</time></trkpt><trkpt lat="43.401227" lon="11.4458276"><ele>384.25</ele><time>2026-04-22T13:36:10.087Z</time></trkpt><trkpt lat="43.4011413" lon="11.4456701"><ele>383.0</ele><time>2026-04-22T13:36:11.096Z</time></trkpt><trkpt lat="43.4010496" lon="11.4455127"><ele>382.6666666666667</ele><time>2026-04-22T13:36:12.089Z</time></trkpt><trkpt lat="43.4009529" lon="11.4453546"><ele>382.3333333333333</ele><time>2026-04-22T13:36:13.091Z</time></trkpt><trkpt lat="43.4008464" lon="11.4451985"><ele>382.0</ele><time>2026-04-22T13:36:14.087Z</time></trkpt><trkpt lat="43.4007387" lon="11.4450454"><ele>382.0</ele><time>2026-04-22T13:36:15.088Z</time></trkpt><trkpt lat="43.4006265" lon="11.4448986"><ele>382.0</ele><time>2026-04-22T13:36:16.09Z</time></trkpt><trkpt lat="43.4005124" lon="11.4447527"><ele>382.0</ele><time>2026-04-22T13:36:17.089Z</time></trkpt><trkpt lat="43.400398" lon="11.4446055"><ele>380.3333333333333</ele><time>2026-04-22T13:36:18.09Z</time></trkpt><trkpt lat="43.4002831" lon="11.4444589"><ele>378.6666666666667</ele><time>2026-04-22T13:36:19.097Z</time></trkpt><trkpt lat="43.4001679" lon="11.4443119"><ele>377.0</ele><time>2026-04-22T13:36:20.092Z</time></trkpt><trkpt lat="43.4000566" lon="11.4441661"><ele>377.0</ele><time>2026-04-22T13:36:21.094Z</time></trkpt><trkpt lat="43.3999575" lon="11.4440266"><ele>377.0</ele><time>2026-04-22T13:36:22.103Z</time></trkpt><trkpt lat="43.3998579" lon="11.443895"><ele>377.0</ele><time>2026-04-22T13:36:23.086Z</time></trkpt><trkpt lat="43.3997537" lon="11.4437808"><ele>377.0</ele><time>2026-04-22T13:36:24.091Z</time></trkpt><trkpt lat="43.3996429" lon="11.4436973"><ele>376.75</ele><time>2026-04-22T13:36:25.097Z</time></trkpt><trkpt lat="43.3995185" lon="11.4436418"><ele>376.5</ele><time>2026-04-22T13:36:26.089Z</time></trkpt><trkpt lat="43.3993961" lon="11.4435988"><ele>376.25</ele><time>2026-04-22T13:36:27.092Z</time></trkpt><trkpt lat="43.3992861" lon="11.4435483"><ele>376.0</ele><time>2026-04-22T13:36:28.094Z</time></trkpt><trkpt lat="43.3991972" lon="11.4435027"><ele>376.0</ele><time>2026-04-22T13:36:29.091Z</time></trkpt><trkpt lat="43.3991254" lon="11.4434657"><ele>376.0</ele><time>2026-04-22T13:36:30.087Z</time></trkpt><trkpt lat="43.3990304" lon="11.4434352"><ele>376.0</ele><time>2026-04-22T13:36:32.087Z</time></trkpt><trkpt lat="43.398963" lon="11.443445"><ele>376.0</ele><time>2026-04-22T13:37:09.1Z</time></trkpt><trkpt lat="43.3988834" lon="11.4434621"><ele>376.0</ele><time>2026-04-22T13:37:10.094Z</time></trkpt><trkpt lat="43.3987903" lon="11.4434777"><ele>376.0</ele><time>2026-04-22T13:37:11.094Z</time></trkpt><trkpt lat="43.3986733" lon="11.4435002"><ele>376.0</ele><time>2026-04-22T13:37:12.088Z</time></trkpt><trkpt lat="43.3985311" lon="11.4435312"><ele>376.0</ele><time>2026-04-22T13:37:13.09Z</time></trkpt><trkpt lat="43.3983732" lon="11.4435669"><ele>376.0</ele><time>2026-04-22T13:37:14.097Z</time></trkpt><trkpt lat="43.3982063" lon="11.4435996"><ele>376.0</ele><time>2026-04-22T13:37:15.097Z</time></trkpt><trkpt lat="43.3980505" lon="11.4436295"><ele>376.0</ele><time>2026-04-22T13:37:16.103Z</time></trkpt><trkpt lat="43.3979072" lon="11.4436492"><ele>376.0</ele><time>2026-04-22T13:37:17.113Z</time></trkpt><trkpt lat="43.3977735" lon="11.4436359"><ele>376.0</ele><time>2026-04-22T13:37:18.096Z</time></trkpt><trkpt lat="43.3976237" lon="11.4435893"><ele>375.0</ele><time>2026-04-22T13:37:19.089Z</time></trkpt><trkpt lat="43.3974616" lon="11.4435134"><ele>374.0</ele><time>2026-04-22T13:37:20.091Z</time></trkpt><trkpt lat="43.3972892" lon="11.4434217"><ele>373.0</ele><time>2026-04-22T13:37:21.096Z</time></trkpt><trkpt lat="43.3970924" lon="11.4433383"><ele>372.3333333333333</ele><time>2026-04-22T13:37:22.096Z</time></trkpt><trkpt lat="43.396883" lon="11.4432538"><ele>371.6666666666667</ele><time>2026-04-22T13:37:23.091Z</time></trkpt><trkpt lat="43.3966717" lon="11.4431684"><ele>371.0</ele><time>2026-04-22T13:37:24.097Z</time></trkpt><trkpt lat="43.3964547" lon="11.443085"><ele>369.0</ele><time>2026-04-22T13:37:25.1Z</time></trkpt><trkpt lat="43.3962266" lon="11.4430021"><ele>367.0</ele><time>2026-04-22T13:37:26.089Z</time></trkpt><trkpt lat="43.3960048" lon="11.4429204"><ele>367.0</ele><time>2026-04-22T13:37:27.098Z</time></trkpt><trkpt lat="43.3957982" lon="11.4428401"><ele>367.0</ele><time>2026-04-22T13:37:28.098Z</time></trkpt><trkpt lat="43.3956055" lon="11.442764"><ele>367.0</ele><time>2026-04-22T13:37:29.098Z</time></trkpt><trkpt lat="43.3954256" lon="11.4427094"><ele>367.3333333333333</ele><time>2026-04-22T13:37:30.093Z</time></trkpt><trkpt lat="43.3952475" lon="11.4426798"><ele>367.6666666666667</ele><time>2026-04-22T13:37:31.087Z</time></trkpt><trkpt lat="43.395059" lon="11.4426778"><ele>368.0</ele><time>2026-04-22T13:37:32.096Z</time></trkpt><trkpt lat="43.3948682" lon="11.4427004"><ele>368.0</ele><time>2026-04-22T13:37:33.092Z</time></trkpt><trkpt lat="43.3946654" lon="11.4427199"><ele>368.0</ele><time>2026-04-22T13:37:34.102Z</time></trkpt><trkpt lat="43.3944639" lon="11.4427274"><ele>368.0</ele><time>2026-04-22T13:37:35.092Z</time></trkpt><trkpt lat="43.3942608" lon="11.4427144"><ele>368.0</ele><time>2026-04-22T13:37:36.096Z</time></trkpt><trkpt lat="43.3940548" lon="11.4426862"><ele>368.0</ele><time>2026-04-22T13:37:37.095Z</time></trkpt><trkpt lat="43.3938568" lon="11.4426537"><ele>368.0</ele><time>2026-04-22T13:37:38.1Z</time></trkpt><trkpt lat="43.3936674" lon="11.4426121"><ele>368.0</ele><time>2026-04-22T13:37:39.098Z</time></trkpt><trkpt lat="43.3934819" lon="11.4425449"><ele>368.0</ele><time>2026-04-22T13:37:40.086Z</time></trkpt><trkpt lat="43.3933052" lon="11.4424587"><ele>368.0</ele><time>2026-04-22T13:37:41.096Z</time></trkpt><trkpt lat="43.3931397" lon="11.4423653"><ele>368.33333333333337</ele><time>2026-04-22T13:37:42.095Z</time></trkpt><trkpt lat="43.3929719" lon="11.4422972"><ele>368.6666666666667</ele><time>2026-04-22T13:37:43.098Z</time></trkpt><trkpt lat="43.3927987" lon="11.4422754"><ele>369.0</ele><time>2026-04-22T13:37:44.094Z</time></trkpt><trkpt lat="43.3926201" lon="11.442307"><ele>369.0</ele><time>2026-04-22T13:37:45.096Z</time></trkpt><trkpt lat="43.3924409" lon="11.4423701"><ele>369.0</ele><time>2026-04-22T13:37:46.092Z</time></trkpt><trkpt lat="43.3922583" lon="11.4424655"><ele>369.0</ele><time>2026-04-22T13:37:47.096Z</time></trkpt><trkpt lat="43.3920721" lon="11.4425896"><ele>368.0</ele><time>2026-04-22T13:37:48.098Z</time></trkpt><trkpt lat="43.3918899" lon="11.4427242"><ele>367.0</ele><time>2026-04-22T13:37:49.093Z</time></trkpt><trkpt lat="43.3917201" lon="11.4428657"><ele>366.0</ele><time>2026-04-22T13:37:50.098Z</time></trkpt><trkpt lat="43.3915457" lon="11.4429376"><ele>366.0</ele><time>2026-04-22T13:37:51.092Z</time></trkpt><trkpt lat="43.3913658" lon="11.4429571"><ele>366.0</ele><time>2026-04-22T13:37:52.092Z</time></trkpt><trkpt lat="43.3911688" lon="11.4429579"><ele>366.0</ele><time>2026-04-22T13:37:53.092Z</time></trkpt><trkpt lat="43.3909549" lon="11.4429619"><ele>366.6666666666667</ele><time>2026-04-22T13:37:54.094Z</time></trkpt><trkpt lat="43.3907436" lon="11.4429777"><ele>367.33333333333337</ele><time>2026-04-22T13:37:55.093Z</time></trkpt><trkpt lat="43.3905533" lon="11.4429837"><ele>368.0</ele><time>2026-04-22T13:37:56.094Z</time></trkpt><trkpt lat="43.3903707" lon="11.4429719"><ele>367.0</ele><time>2026-04-22T13:37:57.089Z</time></trkpt><trkpt lat="43.3901937" lon="11.4429504"><ele>366.0</ele><time>2026-04-22T13:37:58.094Z</time></trkpt><trkpt lat="43.390035" lon="11.4429122"><ele>365.0</ele><time>2026-04-22T13:37:59.091Z</time></trkpt><trkpt lat="43.3898987" lon="11.4428588"><ele>365.0</ele><time>2026-04-22T13:38:00.093Z</time></trkpt><trkpt lat="43.3897847" lon="11.4427714"><ele>365.0</ele><time>2026-04-22T13:38:01.099Z</time></trkpt><trkpt lat="43.3897029" lon="11.4426362"><ele>365.0</ele><time>2026-04-22T13:38:02.095Z</time></trkpt><trkpt lat="43.3896396" lon="11.4424587"><ele>365.0</ele><time>2026-04-22T13:38:03.085Z</time></trkpt><trkpt lat="43.3895662" lon="11.4422607"><ele>362.33333333333337</ele><time>2026-04-22T13:38:04.097Z</time></trkpt><trkpt lat="43.3894782" lon="11.442066"><ele>359.6666666666667</ele><time>2026-04-22T13:38:05.096Z</time></trkpt><trkpt lat="43.3893691" lon="11.441854"><ele>357.0</ele><time>2026-04-22T13:38:06.101Z</time></trkpt><trkpt lat="43.3892445" lon="11.4416566"><ele>357.0</ele><time>2026-04-22T13:38:07.092Z</time></trkpt><trkpt lat="43.3891106" lon="11.4414528"><ele>357.0</ele><time>2026-04-22T13:38:08.098Z</time></trkpt><trkpt lat="43.3889762" lon="11.4412614"><ele>357.0</ele><time>2026-04-22T13:38:09.098Z</time></trkpt><trkpt lat="43.3888383" lon="11.4410751"><ele>356.0</ele><time>2026-04-22T13:38:10.091Z</time></trkpt><trkpt lat="43.3886905" lon="11.4408916"><ele>355.0</ele><time>2026-04-22T13:38:11.092Z</time></trkpt><trkpt lat="43.3885271" lon="11.440707"><ele>354.0</ele><time>2026-04-22T13:38:12.098Z</time></trkpt><trkpt lat="43.3883609" lon="11.4405163"><ele>351.3333333333333</ele><time>2026-04-22T13:38:13.089Z</time></trkpt><trkpt lat="43.3882017" lon="11.4403115"><ele>348.66666666666663</ele><time>2026-04-22T13:38:14.099Z</time></trkpt><trkpt lat="43.3880515" lon="11.4400968"><ele>346.0</ele><time>2026-04-22T13:38:15.086Z</time></trkpt><trkpt lat="43.3879153" lon="11.4398754"><ele>346.0</ele><time>2026-04-22T13:38:16.094Z</time></trkpt><trkpt lat="43.3877936" lon="11.4396516"><ele>346.0</ele><time>2026-04-22T13:38:17.093Z</time></trkpt><trkpt lat="43.3876783" lon="11.439435"><ele>346.0</ele><time>2026-04-22T13:38:18.092Z</time></trkpt><trkpt lat="43.3875562" lon="11.4392255"><ele>344.66666666666663</ele><time>2026-04-22T13:38:19.099Z</time></trkpt><trkpt lat="43.3874289" lon="11.4390244"><ele>343.3333333333333</ele><time>2026-04-22T13:38:20.095Z</time></trkpt><trkpt lat="43.3873043" lon="11.4388243"><ele>342.0</ele><time>2026-04-22T13:38:21.092Z</time></trkpt><trkpt lat="43.3871929" lon="11.4386223"><ele>342.3333333333333</ele><time>2026-04-22T13:38:22.089Z</time></trkpt><trkpt lat="43.3871045" lon="11.4384086"><ele>342.66666666666663</ele><time>2026-04-22T13:38:23.088Z</time></trkpt><trkpt lat="43.387037" lon="11.438184"><ele>343.0</ele><time>2026-04-22T13:38:24.096Z</time></trkpt><trkpt lat="43.3869743" lon="11.4379427"><ele>343.3333333333333</ele><time>2026-04-22T13:38:25.09Z</time></trkpt><trkpt lat="43.3869147" lon="11.4377011"><ele>343.6666666666667</ele><time>2026-04-22T13:38:26.087Z</time></trkpt><trkpt lat="43.3868562" lon="11.4374688"><ele>344.0</ele><time>2026-04-22T13:38:27.088Z</time></trkpt><trkpt lat="43.3867982" lon="11.4372568"><ele>341.33333333333337</ele><time>2026-04-22T13:38:28.093Z</time></trkpt><trkpt lat="43.386729" lon="11.4370716"><ele>338.6666666666667</ele><time>2026-04-22T13:38:29.093Z</time></trkpt><trkpt lat="43.3866381" lon="11.4369105"><ele>336.0</ele><time>2026-04-22T13:38:30.088Z</time></trkpt><trkpt lat="43.3865131" lon="11.4367605"><ele>336.0</ele><time>2026-04-22T13:38:31.097Z</time></trkpt><trkpt lat="43.3863718" lon="11.4366007"><ele>336.0</ele><time>2026-04-22T13:38:32.09Z</time></trkpt><trkpt lat="43.3862205" lon="11.4364495"><ele>336.0</ele><time>2026-04-22T13:38:33.092Z</time></trkpt><trkpt lat="43.3860861" lon="11.4363131"><ele>336.0</ele><time>2026-04-22T13:38:34.1Z</time></trkpt><trkpt lat="43.3859717" lon="11.4361871"><ele>336.0</ele><time>2026-04-22T13:38:35.1Z</time></trkpt><trkpt lat="43.3858735" lon="11.4360635"><ele>336.0</ele><time>2026-04-22T13:38:36.102Z</time></trkpt><trkpt lat="43.385778" lon="11.4359454"><ele>336.0</ele><time>2026-04-22T13:38:37.095Z</time></trkpt><trkpt lat="43.385678" lon="11.435845"><ele>336.0</ele><time>2026-04-22T13:38:38.102Z</time></trkpt><trkpt lat="43.385575" lon="11.4357532"><ele>336.0</ele><time>2026-04-22T13:38:39.09Z</time></trkpt><trkpt lat="43.3854617" lon="11.4356576"><ele>336.0</ele><time>2026-04-22T13:38:40.099Z</time></trkpt><trkpt lat="43.3853358" lon="11.4355591"><ele>336.0</ele><time>2026-04-22T13:38:41.091Z</time></trkpt><trkpt lat="43.3852139" lon="11.4354586"><ele>334.6</ele><time>2026-04-22T13:38:42.098Z</time></trkpt><trkpt lat="43.3850992" lon="11.4353693"><ele>333.20000000000005</ele><time>2026-04-22T13:38:43.096Z</time></trkpt><trkpt lat="43.3849983" lon="11.4352963"><ele>331.79999999999995</ele><time>2026-04-22T13:38:44.099Z</time></trkpt><trkpt lat="43.3849242" lon="11.4352489"><ele>330.4</ele><time>2026-04-22T13:38:45.1Z</time></trkpt><trkpt lat="43.3848603" lon="11.4352281"><ele>329.0</ele><time>2026-04-22T13:49:09.097Z</time></trkpt><trkpt lat="43.3847575" lon="11.4352032"><ele>328.2</ele><time>2026-04-22T13:49:11.097Z</time></trkpt><trkpt lat="43.3846787" lon="11.4351823"><ele>327.4</ele><time>2026-04-22T13:49:12.098Z</time></trkpt><trkpt lat="43.3845858" lon="11.4351536"><ele>326.6</ele><time>2026-04-22T13:49:13.103Z</time></trkpt><trkpt lat="43.3844782" lon="11.4351207"><ele>325.8</ele><time>2026-04-22T13:49:14.11Z</time></trkpt><trkpt lat="43.3843532" lon="11.4350892"><ele>325.0</ele><time>2026-04-22T13:49:15.099Z</time></trkpt><trkpt lat="43.3842121" lon="11.4350565"><ele>325.0</ele><time>2026-04-22T13:49:16.108Z</time></trkpt><trkpt lat="43.3840668" lon="11.4350162"><ele>325.0</ele><time>2026-04-22T13:49:17.105Z</time></trkpt><trkpt lat="43.3839141" lon="11.4349787"><ele>325.0</ele><time>2026-04-22T13:49:18.101Z</time></trkpt><trkpt lat="43.3837529" lon="11.4349276"><ele>324.66666666666663</ele><time>2026-04-22T13:49:19.105Z</time></trkpt><trkpt lat="43.3835886" lon="11.4348632"><ele>324.3333333333333</ele><time>2026-04-22T13:49:20.118Z</time></trkpt><trkpt lat="43.3834237" lon="11.4347765"><ele>324.0</ele><time>2026-04-22T13:49:21.1Z</time></trkpt><trkpt lat="43.3832613" lon="11.4346599"><ele>325.0</ele><time>2026-04-22T13:49:22.104Z</time></trkpt><trkpt lat="43.3831178" lon="11.4345201"><ele>326.0</ele><time>2026-04-22T13:49:23.105Z</time></trkpt><trkpt lat="43.3829798" lon="11.4343833"><ele>327.0</ele><time>2026-04-22T13:49:24.122Z</time></trkpt><trkpt lat="43.3828483" lon="11.434258"><ele>327.0</ele><time>2026-04-22T13:49:25.116Z</time></trkpt><trkpt lat="43.3826981" lon="11.4341526"><ele>327.0</ele><time>2026-04-22T13:49:26.107Z</time></trkpt><trkpt lat="43.3825402" lon="11.4340744"><ele>327.0</ele><time>2026-04-22T13:49:27.113Z</time></trkpt><trkpt lat="43.3823736" lon="11.4340241"><ele>327.0</ele><time>2026-04-22T13:49:28.113Z</time></trkpt><trkpt lat="43.3821931" lon="11.4339977"><ele>327.0</ele><time>2026-04-22T13:49:29.12Z</time></trkpt><trkpt lat="43.3820103" lon="11.4339855"><ele>327.0</ele><time>2026-04-22T13:49:30.095Z</time></trkpt><trkpt lat="43.3818464" lon="11.4339756"><ele>326.3333333333333</ele><time>2026-04-22T13:49:31.104Z</time></trkpt><trkpt lat="43.3816977" lon="11.4339452"><ele>325.66666666666663</ele><time>2026-04-22T13:49:32.124Z</time></trkpt><trkpt lat="43.3815504" lon="11.4338858"><ele>325.0</ele><time>2026-04-22T13:49:33.106Z</time></trkpt><trkpt lat="43.3813991" lon="11.4337954"><ele>322.3333333333333</ele><time>2026-04-22T13:49:34.129Z</time></trkpt><trkpt lat="43.3812451" lon="11.4336855"><ele>319.6666666666667</ele><time>2026-04-22T13:49:35.108Z</time></trkpt><trkpt lat="43.3810978" lon="11.4335661"><ele>317.0</ele><time>2026-04-22T13:49:36.102Z</time></trkpt><trkpt lat="43.3809564" lon="11.4334232"><ele>317.0</ele><time>2026-04-22T13:49:37.115Z</time></trkpt><trkpt lat="43.3808296" lon="11.4332442"><ele>317.0</ele><time>2026-04-22T13:49:38.103Z</time></trkpt><trkpt lat="43.3807244" lon="11.433058"><ele>317.0</ele><time>2026-04-22T13:49:39.118Z</time></trkpt><trkpt lat="43.3806316" lon="11.432895"><ele>317.25</ele><time>2026-04-22T13:49:40.117Z</time></trkpt><trkpt lat="43.3805283" lon="11.432771"><ele>317.5</ele><time>2026-04-22T13:49:41.104Z</time></trkpt><trkpt lat="43.3803998" lon="11.4326927"><ele>317.75</ele><time>2026-04-22T13:49:42.092Z</time></trkpt><trkpt lat="43.3802473" lon="11.4326491"><ele>318.0</ele><time>2026-04-22T13:49:43.099Z</time></trkpt><trkpt lat="43.3800788" lon="11.4326252"><ele>318.0</ele><time>2026-04-22T13:49:44.101Z</time></trkpt><trkpt lat="43.3799025" lon="11.4326236"><ele>318.0</ele><time>2026-04-22T13:49:45.102Z</time></trkpt><trkpt lat="43.3797158" lon="11.4325888"><ele>318.0</ele><time>2026-04-22T13:49:46.099Z</time></trkpt><trkpt lat="43.3795241" lon="11.4325262"><ele>318.0</ele><time>2026-04-22T13:49:47.1Z</time></trkpt><trkpt lat="43.3793249" lon="11.4324399"><ele>318.0</ele><time>2026-04-22T13:49:48.092Z</time></trkpt><trkpt lat="43.3791217" lon="11.4323418"><ele>318.0</ele><time>2026-04-22T13:49:49.095Z</time></trkpt><trkpt lat="43.3789247" lon="11.43224"><ele>317.6666666666667</ele><time>2026-04-22T13:49:50.106Z</time></trkpt><trkpt lat="43.3787274" lon="11.4321429"><ele>317.33333333333337</ele><time>2026-04-22T13:49:51.102Z</time></trkpt><trkpt lat="43.3785293" lon="11.4320421"><ele>317.0</ele><time>2026-04-22T13:49:52.103Z</time></trkpt><trkpt lat="43.3783353" lon="11.4319378"><ele>317.0</ele><time>2026-04-22T13:49:53.103Z</time></trkpt><trkpt lat="43.3781366" lon="11.4318315"><ele>317.0</ele><time>2026-04-22T13:49:54.103Z</time></trkpt><trkpt lat="43.3779377" lon="11.4317263"><ele>317.0</ele><time>2026-04-22T13:49:55.104Z</time></trkpt><trkpt lat="43.3777439" lon="11.4316246"><ele>316.6666666666667</ele><time>2026-04-22T13:49:56.088Z</time></trkpt><trkpt lat="43.3775544" lon="11.4315299"><ele>316.3333333333333</ele><time>2026-04-22T13:49:57.1Z</time></trkpt><trkpt lat="43.3773608" lon="11.4314542"><ele>316.0</ele><time>2026-04-22T13:49:58.109Z</time></trkpt><trkpt lat="43.3771639" lon="11.4314003"><ele>316.0</ele><time>2026-04-22T13:49:59.1Z</time></trkpt><trkpt lat="43.376966" lon="11.4313635"><ele>316.0</ele><time>2026-04-22T13:50:00.097Z</time></trkpt><trkpt lat="43.3767648" lon="11.4313334"><ele>316.0</ele><time>2026-04-22T13:50:01.095Z</time></trkpt><trkpt lat="43.3765638" lon="11.4313132"><ele>315.0</ele><time>2026-04-22T13:50:02.099Z</time></trkpt><trkpt lat="43.3763624" lon="11.431296"><ele>314.0</ele><time>2026-04-22T13:50:03.101Z</time></trkpt><trkpt lat="43.3761615" lon="11.4312744"><ele>313.0</ele><time>2026-04-22T13:50:04.096Z</time></trkpt><trkpt lat="43.3759676" lon="11.4312429"><ele>313.0</ele><time>2026-04-22T13:50:05.097Z</time></trkpt><trkpt lat="43.3757874" lon="11.4311894"><ele>313.0</ele><time>2026-04-22T13:50:06.096Z</time></trkpt><trkpt lat="43.3756127" lon="11.4311008"><ele>313.0</ele><time>2026-04-22T13:50:07.1Z</time></trkpt><trkpt lat="43.3754384" lon="11.4309752"><ele>310.0</ele><time>2026-04-22T13:50:08.103Z</time></trkpt><trkpt lat="43.3752658" lon="11.4308301"><ele>307.0</ele><time>2026-04-22T13:50:09.094Z</time></trkpt><trkpt lat="43.3750826" lon="11.430688"><ele>304.0</ele><time>2026-04-22T13:50:10.096Z</time></trkpt><trkpt lat="43.37489" lon="11.43056"><ele>304.3333333333333</ele><time>2026-04-22T13:50:11.104Z</time></trkpt><trkpt lat="43.3746957" lon="11.4304465"><ele>304.6666666666667</ele><time>2026-04-22T13:50:12.102Z</time></trkpt><trkpt lat="43.3744947" lon="11.430364"><ele>305.0</ele><time>2026-04-22T13:50:13.095Z</time></trkpt><trkpt lat="43.3742881" lon="11.4303037"><ele>305.0</ele><time>2026-04-22T13:50:14.095Z</time></trkpt><trkpt lat="43.3740826" lon="11.4302474"><ele>305.0</ele><time>2026-04-22T13:50:15.097Z</time></trkpt><trkpt lat="43.3738778" lon="11.4301889"><ele>305.0</ele><time>2026-04-22T13:50:16.097Z</time></trkpt><trkpt lat="43.3736734" lon="11.4301173"><ele>304.6666666666667</ele><time>2026-04-22T13:50:17.098Z</time></trkpt><trkpt lat="43.3734668" lon="11.4300273"><ele>304.3333333333333</ele><time>2026-04-22T13:50:18.104Z</time></trkpt><trkpt lat="43.3732623" lon="11.4299207"><ele>304.0</ele><time>2026-04-22T13:50:19.098Z</time></trkpt><trkpt lat="43.3730583" lon="11.4298019"><ele>300.5</ele><time>2026-04-22T13:50:20.096Z</time></trkpt><trkpt lat="43.3728545" lon="11.4296722"><ele>297.0</ele><time>2026-04-22T13:50:21.094Z</time></trkpt><trkpt lat="43.3726496" lon="11.4295411"><ele>297.0</ele><time>2026-04-22T13:50:22.101Z</time></trkpt><trkpt lat="43.372444" lon="11.4294139"><ele>297.0</ele><time>2026-04-22T13:50:23.102Z</time></trkpt><trkpt lat="43.3722385" lon="11.4292889"><ele>295.6666666666667</ele><time>2026-04-22T13:50:24.104Z</time></trkpt><trkpt lat="43.3720349" lon="11.4291663"><ele>294.33333333333337</ele><time>2026-04-22T13:50:25.103Z</time></trkpt><trkpt lat="43.3718402" lon="11.4290504"><ele>293.0</ele><time>2026-04-22T13:50:26.098Z</time></trkpt><trkpt lat="43.3716516" lon="11.4289455"><ele>293.0</ele><time>2026-04-22T13:50:27.099Z</time></trkpt><trkpt lat="43.3714602" lon="11.4288527"><ele>293.0</ele><time>2026-04-22T13:50:28.099Z</time></trkpt><trkpt lat="43.3712634" lon="11.4287709"><ele>293.0</ele><time>2026-04-22T13:50:29.106Z</time></trkpt><trkpt lat="43.3710609" lon="11.4287063"><ele>293.33333333333337</ele><time>2026-04-22T13:50:30.096Z</time></trkpt><trkpt lat="43.3708517" lon="11.4286596"><ele>293.6666666666667</ele><time>2026-04-22T13:50:31.095Z</time></trkpt><trkpt lat="43.3706357" lon="11.4286258"><ele>294.0</ele><time>2026-04-22T13:50:32.098Z</time></trkpt><trkpt lat="43.370414" lon="11.428599"><ele>290.5</ele><time>2026-04-22T13:50:33.106Z</time></trkpt><trkpt lat="43.3701884" lon="11.4285735"><ele>287.0</ele><time>2026-04-22T13:50:34.102Z</time></trkpt><trkpt lat="43.3699581" lon="11.4285472"><ele>287.0</ele><time>2026-04-22T13:50:35.104Z</time></trkpt><trkpt lat="43.3697346" lon="11.4285297"><ele>287.0</ele><time>2026-04-22T13:50:36.105Z</time></trkpt><trkpt lat="43.3695038" lon="11.4285126"><ele>285.33333333333337</ele><time>2026-04-22T13:50:37.101Z</time></trkpt><trkpt lat="43.3692752" lon="11.4285"><ele>283.6666666666667</ele><time>2026-04-22T13:50:38.099Z</time></trkpt><trkpt lat="43.3690594" lon="11.4284915"><ele>282.0</ele><time>2026-04-22T13:50:39.098Z</time></trkpt><trkpt lat="43.3688643" lon="11.4284715"><ele>282.6666666666667</ele><time>2026-04-22T13:50:40.097Z</time></trkpt><trkpt lat="43.3686809" lon="11.4284151"><ele>283.33333333333337</ele><time>2026-04-22T13:50:41.103Z</time></trkpt><trkpt lat="43.3685074" lon="11.4283184"><ele>284.0</ele><time>2026-04-22T13:50:42.098Z</time></trkpt><trkpt lat="43.3683468" lon="11.4281784"><ele>284.0</ele><time>2026-04-22T13:50:43.11Z</time></trkpt><trkpt lat="43.3682109" lon="11.4279874"><ele>284.0</ele><time>2026-04-22T13:50:44.108Z</time></trkpt><trkpt lat="43.3680952" lon="11.4277731"><ele>284.0</ele><time>2026-04-22T13:50:45.094Z</time></trkpt><trkpt lat="43.3680165" lon="11.4275341"><ele>284.0</ele><time>2026-04-22T13:50:46.105Z</time></trkpt><trkpt lat="43.3679581" lon="11.4272891"><ele>284.0</ele><time>2026-04-22T13:50:47.096Z</time></trkpt><trkpt lat="43.3678962" lon="11.4270661"><ele>284.0</ele><time>2026-04-22T13:50:48.106Z</time></trkpt><trkpt lat="43.3678206" lon="11.4268923"><ele>284.0</ele><time>2026-04-22T13:50:49.104Z</time></trkpt><trkpt lat="43.3677017" lon="11.4267633"><ele>284.0</ele><time>2026-04-22T13:50:50.104Z</time></trkpt><trkpt lat="43.3675447" lon="11.4266787"><ele>284.0</ele><time>2026-04-22T13:50:51.105Z</time></trkpt><trkpt lat="43.3673634" lon="11.4266229"><ele>285.6666666666667</ele><time>2026-04-22T13:50:52.107Z</time></trkpt><trkpt lat="43.3671743" lon="11.4265635"><ele>287.3333333333333</ele><time>2026-04-22T13:50:53.096Z</time></trkpt><trkpt lat="43.3669851" lon="11.4264899"><ele>289.0</ele><time>2026-04-22T13:50:54.109Z</time></trkpt><trkpt lat="43.3667963" lon="11.4264133"><ele>289.0</ele><time>2026-04-22T13:50:55.098Z</time></trkpt><trkpt lat="43.3666104" lon="11.4263508"><ele>289.0</ele><time>2026-04-22T13:50:56.094Z</time></trkpt><trkpt lat="43.3664173" lon="11.426324"><ele>289.0</ele><time>2026-04-22T13:50:57.105Z</time></trkpt><trkpt lat="43.3662282" lon="11.4263417"><ele>288.3333333333333</ele><time>2026-04-22T13:50:58.1Z</time></trkpt><trkpt lat="43.3660527" lon="11.4263717"><ele>287.6666666666667</ele><time>2026-04-22T13:50:59.105Z</time></trkpt><trkpt lat="43.3658999" lon="11.426389"><ele>287.0</ele><time>2026-04-22T13:51:00.097Z</time></trkpt><trkpt lat="43.3657657" lon="11.4263699"><ele>288.0</ele><time>2026-04-22T13:51:01.1Z</time></trkpt><trkpt lat="43.3656613" lon="11.4262622"><ele>289.0</ele><time>2026-04-22T13:51:02.102Z</time></trkpt><trkpt lat="43.3655781" lon="11.4260721"><ele>290.0</ele><time>2026-04-22T13:51:03.094Z</time></trkpt><trkpt lat="43.3654797" lon="11.425879"><ele>287.33333333333337</ele><time>2026-04-22T13:51:04.094Z</time></trkpt><trkpt lat="43.365371" lon="11.4256752"><ele>284.6666666666667</ele><time>2026-04-22T13:51:05.099Z</time></trkpt><trkpt lat="43.3652643" lon="11.4254466"><ele>282.0</ele><time>2026-04-22T13:51:06.092Z</time></trkpt><trkpt lat="43.3651335" lon="11.4252133"><ele>281.6666666666667</ele><time>2026-04-22T13:51:07.095Z</time></trkpt><trkpt lat="43.3649952" lon="11.4249785"><ele>281.33333333333337</ele><time>2026-04-22T13:51:08.094Z</time></trkpt><trkpt lat="43.3648607" lon="11.4247458"><ele>281.0</ele><time>2026-04-22T13:51:09.105Z</time></trkpt><trkpt lat="43.364735" lon="11.4245189"><ele>280.0</ele><time>2026-04-22T13:51:10.091Z</time></trkpt><trkpt lat="43.3646371" lon="11.4243032"><ele>279.0</ele><time>2026-04-22T13:51:11.103Z</time></trkpt><trkpt lat="43.3645742" lon="11.4240689"><ele>278.0</ele><time>2026-04-22T13:51:12.097Z</time></trkpt><trkpt lat="43.3645256" lon="11.4238051"><ele>275.6666666666667</ele><time>2026-04-22T13:51:13.093Z</time></trkpt><trkpt lat="43.3644944" lon="11.4235246"><ele>273.3333333333333</ele><time>2026-04-22T13:51:14.099Z</time></trkpt><trkpt lat="43.3644811" lon="11.423226"><ele>271.0</ele><time>2026-04-22T13:51:15.101Z</time></trkpt><trkpt lat="43.3644831" lon="11.4229138"><ele>267.5</ele><time>2026-04-22T13:51:16.099Z</time></trkpt><trkpt lat="43.3644822" lon="11.4225914"><ele>264.0</ele><time>2026-04-22T13:51:17.103Z</time></trkpt><trkpt lat="43.3644743" lon="11.4222855"><ele>261.6666666666667</ele><time>2026-04-22T13:51:18.102Z</time></trkpt><trkpt lat="43.3644625" lon="11.4219971"><ele>259.33333333333337</ele><time>2026-04-22T13:51:19.099Z</time></trkpt><trkpt lat="43.364446" lon="11.4217245"><ele>257.0</ele><time>2026-04-22T13:51:20.096Z</time></trkpt><trkpt lat="43.3644216" lon="11.4214693"><ele>256.6666666666667</ele><time>2026-04-22T13:51:21.091Z</time></trkpt><trkpt lat="43.3643753" lon="11.4212246"><ele>256.3333333333333</ele><time>2026-04-22T13:51:22.092Z</time></trkpt><trkpt lat="43.3643043" lon="11.4209771"><ele>256.0</ele><time>2026-04-22T13:51:23.101Z</time></trkpt><trkpt lat="43.364223" lon="11.4207258"><ele>255.33333333333331</ele><time>2026-04-22T13:51:24.092Z</time></trkpt><trkpt lat="43.3641465" lon="11.4204745"><ele>254.66666666666669</ele><time>2026-04-22T13:51:25.094Z</time></trkpt><trkpt lat="43.364092" lon="11.4202164"><ele>254.0</ele><time>2026-04-22T13:51:26.09Z</time></trkpt><trkpt lat="43.3640543" lon="11.4199561"><ele>254.0</ele><time>2026-04-22T13:51:27.094Z</time></trkpt><trkpt lat="43.3640308" lon="11.4196939"><ele>254.0</ele><time>2026-04-22T13:51:28.102Z</time></trkpt><trkpt lat="43.3640128" lon="11.4194564"><ele>254.0</ele><time>2026-04-22T13:51:29.102Z</time></trkpt><trkpt lat="43.3640046" lon="11.4192423"><ele>253.2</ele><time>2026-04-22T13:51:30.096Z</time></trkpt><trkpt lat="43.3640026" lon="11.419067"><ele>252.39999999999998</ele><time>2026-04-22T13:51:31.102Z</time></trkpt><trkpt lat="43.3640008" lon="11.4189412"><ele>251.6</ele><time>2026-04-22T13:51:32.102Z</time></trkpt><trkpt lat="43.3639964" lon="11.4188446"><ele>250.8</ele><time>2026-04-22T13:51:33.097Z</time></trkpt><trkpt lat="43.3639766" lon="11.4187563"><ele>250.0</ele><time>2026-04-22T13:51:34.094Z</time></trkpt><trkpt lat="43.3638773" lon="11.4186299"><ele>248.33333333333331</ele><time>2026-04-22T13:51:36.095Z</time></trkpt><trkpt lat="43.363807" lon="11.418595"><ele>246.66666666666666</ele><time>2026-04-22T13:51:37.091Z</time></trkpt><trkpt lat="43.3637295" lon="11.4185436"><ele>245.0</ele><time>2026-04-22T13:51:39.09Z</time></trkpt><trkpt lat="43.3636497" lon="11.4184837"><ele>243.33333333333331</ele><time>2026-04-22T13:51:41.099Z</time></trkpt><trkpt lat="43.3635674" lon="11.4184516"><ele>241.66666666666666</ele><time>2026-04-22T13:51:42.092Z</time></trkpt><trkpt lat="43.3634593" lon="11.4184327"><ele>240.0</ele><time>2026-04-22T13:51:43.1Z</time></trkpt><trkpt lat="43.3633225" lon="11.418429"><ele>240.0</ele><time>2026-04-22T13:51:44.094Z</time></trkpt><trkpt lat="43.3631574" lon="11.4184247"><ele>240.0</ele><time>2026-04-22T13:51:45.093Z</time></trkpt><trkpt lat="43.3629806" lon="11.418402"><ele>240.0</ele><time>2026-04-22T13:51:46.098Z</time></trkpt><trkpt lat="43.3628001" lon="11.4183596"><ele>239.0</ele><time>2026-04-22T13:51:47.099Z</time></trkpt><trkpt lat="43.3626254" lon="11.4183086"><ele>238.0</ele><time>2026-04-22T13:51:48.1Z</time></trkpt><trkpt lat="43.3624679" lon="11.4182569"><ele>237.0</ele><time>2026-04-22T13:51:49.101Z</time></trkpt><trkpt lat="43.362318" lon="11.418223"><ele>235.0</ele><time>2026-04-22T13:51:50.102Z</time></trkpt><trkpt lat="43.362171" lon="11.4182457"><ele>233.0</ele><time>2026-04-22T13:51:51.093Z</time></trkpt><trkpt lat="43.3620324" lon="11.4183378"><ele>231.0</ele><time>2026-04-22T13:51:52.096Z</time></trkpt><trkpt lat="43.3619034" lon="11.4185295"><ele>231.0</ele><time>2026-04-22T13:51:53.103Z</time></trkpt><trkpt lat="43.361793" lon="11.4187439"><ele>231.0</ele><time>2026-04-22T13:51:54.098Z</time></trkpt><trkpt lat="43.3616888" lon="11.4189437"><ele>231.0</ele><time>2026-04-22T13:51:55.097Z</time></trkpt><trkpt lat="43.3615697" lon="11.4190921"><ele>231.33333333333331</ele><time>2026-04-22T13:51:56.102Z</time></trkpt><trkpt lat="43.3614332" lon="11.4191908"><ele>231.66666666666666</ele><time>2026-04-22T13:51:57.093Z</time></trkpt><trkpt lat="43.3612652" lon="11.4192606"><ele>232.0</ele><time>2026-04-22T13:51:58.104Z</time></trkpt><trkpt lat="43.3610702" lon="11.4193192"><ele>232.0</ele><time>2026-04-22T13:51:59.1Z</time></trkpt><trkpt lat="43.3608714" lon="11.419384"><ele>232.0</ele><time>2026-04-22T13:52:00.096Z</time></trkpt><trkpt lat="43.3606673" lon="11.4194513"><ele>232.0</ele><time>2026-04-22T13:52:01.103Z</time></trkpt><trkpt lat="43.3604569" lon="11.4195212"><ele>232.0</ele><time>2026-04-22T13:52:02.099Z</time></trkpt><trkpt lat="43.3602414" lon="11.4195944"><ele>232.0</ele><time>2026-04-22T13:52:03.096Z</time></trkpt><trkpt lat="43.3600285" lon="11.4196703"><ele>232.0</ele><time>2026-04-22T13:52:04.1Z</time></trkpt><trkpt lat="43.359811" lon="11.4197519"><ele>230.66666666666666</ele><time>2026-04-22T13:52:05.094Z</time></trkpt><trkpt lat="43.359602" lon="11.4198326"><ele>229.33333333333331</ele><time>2026-04-22T13:52:06.094Z</time></trkpt><trkpt lat="43.3594152" lon="11.4199039"><ele>228.0</ele><time>2026-04-22T13:52:07.104Z</time></trkpt><trkpt lat="43.359254" lon="11.41995"><ele>228.0</ele><time>2026-04-22T13:52:08.096Z</time></trkpt><trkpt lat="43.3591092" lon="11.4199663"><ele>228.0</ele><time>2026-04-22T13:52:09.108Z</time></trkpt><trkpt lat="43.3589839" lon="11.4199356"><ele>228.0</ele><time>2026-04-22T13:52:10.104Z</time></trkpt><trkpt lat="43.3588809" lon="11.4198412"><ele>228.0</ele><time>2026-04-22T13:52:11.09Z</time></trkpt><trkpt lat="43.3587779" lon="11.4196693"><ele>226.0</ele><time>2026-04-22T13:52:12.1Z</time></trkpt><trkpt lat="43.3586691" lon="11.4194611"><ele>224.0</ele><time>2026-04-22T13:52:13.095Z</time></trkpt><trkpt lat="43.3585449" lon="11.4192423"><ele>222.0</ele><time>2026-04-22T13:52:14.105Z</time></trkpt><trkpt lat="43.358408" lon="11.419024"><ele>221.66666666666669</ele><time>2026-04-22T13:52:15.097Z</time></trkpt><trkpt lat="43.3582709" lon="11.4187987"><ele>221.33333333333334</ele><time>2026-04-22T13:52:16.1Z</time></trkpt><trkpt lat="43.3581297" lon="11.418575"><ele>221.0</ele><time>2026-04-22T13:52:17.097Z</time></trkpt><trkpt lat="43.3579816" lon="11.4183441"><ele>220.66666666666669</ele><time>2026-04-22T13:52:18.103Z</time></trkpt><trkpt lat="43.3578322" lon="11.4181219"><ele>220.33333333333331</ele><time>2026-04-22T13:52:19.098Z</time></trkpt><trkpt lat="43.3576879" lon="11.4178988"><ele>220.0</ele><time>2026-04-22T13:52:20.101Z</time></trkpt><trkpt lat="43.3575485" lon="11.417687"><ele>220.0</ele><time>2026-04-22T13:52:21.107Z</time></trkpt><trkpt lat="43.3574184" lon="11.4174893"><ele>220.0</ele><time>2026-04-22T13:52:22.108Z</time></trkpt><trkpt lat="43.3572972" lon="11.4173083"><ele>220.0</ele><time>2026-04-22T13:52:23.101Z</time></trkpt><trkpt lat="43.3571851" lon="11.4171411"><ele>219.75</ele><time>2026-04-22T13:52:24.103Z</time></trkpt><trkpt lat="43.357083" lon="11.4169906"><ele>219.5</ele><time>2026-04-22T13:52:25.106Z</time></trkpt><trkpt lat="43.3569854" lon="11.4168467"><ele>219.25</ele><time>2026-04-22T13:52:26.096Z</time></trkpt><trkpt lat="43.3568939" lon="11.4167085"><ele>219.0</ele><time>2026-04-22T13:52:27.094Z</time></trkpt><trkpt lat="43.3568022" lon="11.4165672"><ele>219.0</ele><time>2026-04-22T13:52:28.093Z</time></trkpt><trkpt lat="43.3567107" lon="11.4164213"><ele>219.0</ele><time>2026-04-22T13:52:29.102Z</time></trkpt><trkpt lat="43.3566202" lon="11.4162749"><ele>219.0</ele><time>2026-04-22T13:52:30.1Z</time></trkpt><trkpt lat="43.3565372" lon="11.4161304"><ele>219.0</ele><time>2026-04-22T13:52:31.097Z</time></trkpt><trkpt lat="43.3564588" lon="11.4160004"><ele>219.39999999999998</ele><time>2026-04-22T13:52:32.094Z</time></trkpt><trkpt lat="43.3563734" lon="11.4158993"><ele>219.79999999999998</ele><time>2026-04-22T13:52:33.096Z</time></trkpt><trkpt lat="43.3562787" lon="11.415839"><ele>220.20000000000002</ele><time>2026-04-22T13:52:34.09Z</time></trkpt><trkpt lat="43.3561844" lon="11.4158179"><ele>220.60000000000002</ele><time>2026-04-22T13:52:35.102Z</time></trkpt><trkpt lat="43.3560988" lon="11.4158298"><ele>221.0</ele><time>2026-04-22T13:52:36.093Z</time></trkpt><trkpt lat="43.3560235" lon="11.415863"><ele>221.20000000000002</ele><time>2026-04-22T13:52:37.097Z</time></trkpt><trkpt lat="43.355945" lon="11.415906"><ele>221.40000000000003</ele><time>2026-04-22T13:52:38.097Z</time></trkpt><trkpt lat="43.3558616" lon="11.4159631"><ele>221.6</ele><time>2026-04-22T13:52:39.101Z</time></trkpt><trkpt lat="43.3557662" lon="11.4160391"><ele>221.8</ele><time>2026-04-22T13:52:40.092Z</time></trkpt><trkpt lat="43.3556567" lon="11.4161207"><ele>222.0</ele><time>2026-04-22T13:52:41.101Z</time></trkpt><trkpt lat="43.3555383" lon="11.4161904"><ele>223.25</ele><time>2026-04-22T13:52:42.093Z</time></trkpt><trkpt lat="43.355421" lon="11.4162378"><ele>224.5</ele><time>2026-04-22T13:52:43.107Z</time></trkpt><trkpt lat="43.3553034" lon="11.4162579"><ele>225.75</ele><time>2026-04-22T13:52:44.105Z</time></trkpt><trkpt lat="43.3551822" lon="11.4162512"><ele>227.0</ele><time>2026-04-22T13:52:45.095Z</time></trkpt><trkpt lat="43.3550579" lon="11.4162289"><ele>227.0</ele><time>2026-04-22T13:52:46.095Z</time></trkpt><trkpt lat="43.3549409" lon="11.4162019"><ele>227.0</ele><time>2026-04-22T13:52:47.101Z</time></trkpt><trkpt lat="43.3548263" lon="11.4161826"><ele>227.0</ele><time>2026-04-22T13:52:48.104Z</time></trkpt><trkpt lat="43.3547139" lon="11.4161661"><ele>227.0</ele><time>2026-04-22T13:52:49.102Z</time></trkpt><trkpt lat="43.3545977" lon="11.4161493"><ele>226.6</ele><time>2026-04-22T13:52:50.102Z</time></trkpt><trkpt lat="43.3544828" lon="11.4161286"><ele>226.2</ele><time>2026-04-22T13:52:51.101Z</time></trkpt><trkpt lat="43.3543749" lon="11.4161098"><ele>225.8</ele><time>2026-04-22T13:52:52.103Z</time></trkpt><trkpt lat="43.3542798" lon="11.4160961"><ele>225.4</ele><time>2026-04-22T13:52:53.101Z</time></trkpt><trkpt lat="43.354202" lon="11.4160876"><ele>225.0</ele><time>2026-04-22T13:52:54.099Z</time></trkpt><trkpt lat="43.3541019" lon="11.4160773"><ele>225.0</ele><time>2026-04-22T13:52:56.094Z</time></trkpt><trkpt lat="43.3541732" lon="11.4161606"><ele>225.0</ele><time>2026-04-22T13:53:05.106Z</time></trkpt><trkpt lat="43.3542511" lon="11.4161702"><ele>225.0</ele><time>2026-04-22T13:53:06.097Z</time></trkpt><trkpt lat="43.3543471" lon="11.4161807"><ele>225.0</ele><time>2026-04-22T13:53:07.092Z</time></trkpt><trkpt lat="43.3544501" lon="11.4161919"><ele>225.0</ele><time>2026-04-22T13:53:08.095Z</time></trkpt><trkpt lat="43.3545417" lon="11.4162119"><ele>225.0</ele><time>2026-04-22T13:53:09.101Z</time></trkpt><trkpt lat="43.3546173" lon="11.416227"><ele>225.0</ele><time>2026-04-22T13:53:10.094Z</time></trkpt><trkpt lat="43.3547175" lon="11.4162449"><ele>225.0</ele><time>2026-04-22T13:53:12.099Z</time></trkpt><trkpt lat="43.3546665" lon="11.4161669"><ele>225.0</ele><time>2026-04-22T13:54:19.1Z</time></trkpt><trkpt lat="43.354569" lon="11.4161529"><ele>225.0</ele><time>2026-04-22T13:54:20.102Z</time></trkpt><trkpt lat="43.3544361" lon="11.4161342"><ele>225.0</ele><time>2026-04-22T13:54:21.099Z</time></trkpt><trkpt lat="43.3542809" lon="11.4161118"><ele>225.0</ele><time>2026-04-22T13:54:22.105Z</time></trkpt><trkpt lat="43.3541031" lon="11.4160937"><ele>225.0</ele><time>2026-04-22T13:54:23.1Z</time></trkpt><trkpt lat="43.3539193" lon="11.4160783"><ele>224.33333333333331</ele><time>2026-04-22T13:54:24.094Z</time></trkpt><trkpt lat="43.3537446" lon="11.4160606"><ele>223.66666666666666</ele><time>2026-04-22T13:54:25.099Z</time></trkpt><trkpt lat="43.3535827" lon="11.4160316"><ele>223.0</ele><time>2026-04-22T13:54:26.097Z</time></trkpt><trkpt lat="43.3534352" lon="11.4159954"><ele>223.0</ele><time>2026-04-22T13:54:27.106Z</time></trkpt><trkpt lat="43.3533031" lon="11.4159533"><ele>223.0</ele><time>2026-04-22T13:54:28.105Z</time></trkpt><trkpt lat="43.353182" lon="11.4159127"><ele>223.0</ele><time>2026-04-22T13:54:29.097Z</time></trkpt><trkpt lat="43.3530671" lon="11.4158749"><ele>223.0</ele><time>2026-04-22T13:54:30.098Z</time></trkpt><trkpt lat="43.352962" lon="11.4158399"><ele>223.0</ele><time>2026-04-22T13:54:31.101Z</time></trkpt><trkpt lat="43.3528587" lon="11.4158117"><ele>223.0</ele><time>2026-04-22T13:54:32.103Z</time></trkpt><trkpt lat="43.3527559" lon="11.415781"><ele>223.0</ele><time>2026-04-22T13:54:33.104Z</time></trkpt><trkpt lat="43.3526513" lon="11.4157479"><ele>223.0</ele><time>2026-04-22T13:54:34.095Z</time></trkpt><trkpt lat="43.3525428" lon="11.4157164"><ele>223.0</ele><time>2026-04-22T13:54:35.098Z</time></trkpt><trkpt lat="43.3524361" lon="11.4156871"><ele>222.99999999999997</ele><time>2026-04-22T13:54:36.098Z</time></trkpt><trkpt lat="43.3523364" lon="11.4156591"><ele>223.0</ele><time>2026-04-22T13:54:37.1Z</time></trkpt><trkpt lat="43.352246" lon="11.4156296"><ele>223.0</ele><time>2026-04-22T13:54:38.098Z</time></trkpt><trkpt lat="43.3521611" lon="11.4156073"><ele>223.0</ele><time>2026-04-22T13:54:39.102Z</time></trkpt><trkpt lat="43.3520845" lon="11.415589"><ele>222.99999999999997</ele><time>2026-04-22T13:54:40.1Z</time></trkpt><trkpt lat="43.3520122" lon="11.4155728"><ele>223.0</ele><time>2026-04-22T13:54:41.095Z</time></trkpt><trkpt lat="43.3519309" lon="11.4155776"><ele>222.60000000000002</ele><time>2026-04-22T13:54:43.103Z</time></trkpt><trkpt lat="43.3518726" lon="11.4156369"><ele>222.20000000000002</ele><time>2026-04-22T13:54:47.094Z</time></trkpt><trkpt lat="43.3518143" lon="11.4155818"><ele>221.8</ele><time>2026-04-22T13:56:56.101Z</time></trkpt><trkpt lat="43.351761" lon="11.4155016"><ele>221.4</ele><time>2026-04-22T13:57:00.106Z</time></trkpt><trkpt lat="43.3516297" lon="11.4154458"><ele>221.0</ele><time>2026-04-22T13:57:02.103Z</time></trkpt><trkpt lat="43.3515206" lon="11.4154198"><ele>221.0</ele><time>2026-04-22T13:57:03.098Z</time></trkpt><trkpt lat="43.3513929" lon="11.4153828"><ele>221.0</ele><time>2026-04-22T13:57:04.098Z</time></trkpt><trkpt lat="43.3512581" lon="11.415343"><ele>221.0</ele><time>2026-04-22T13:57:05.103Z</time></trkpt><trkpt lat="43.3511122" lon="11.4153052"><ele>221.0</ele><time>2026-04-22T13:57:06.1Z</time></trkpt><trkpt lat="43.3509597" lon="11.4152689"><ele>220.66666666666669</ele><time>2026-04-22T13:57:07.116Z</time></trkpt><trkpt lat="43.3508029" lon="11.4152319"><ele>220.33333333333331</ele><time>2026-04-22T13:57:08.106Z</time></trkpt><trkpt lat="43.3506399" lon="11.4151865"><ele>220.0</ele><time>2026-04-22T13:57:09.113Z</time></trkpt><trkpt lat="43.3504805" lon="11.4151376"><ele>222.0</ele><time>2026-04-22T13:57:10.109Z</time></trkpt><trkpt lat="43.3503241" lon="11.4150846"><ele>224.0</ele><time>2026-04-22T13:57:11.121Z</time></trkpt><trkpt lat="43.3501767" lon="11.4150169"><ele>226.0</ele><time>2026-04-22T13:57:12.112Z</time></trkpt><trkpt lat="43.3500437" lon="11.4149124"><ele>226.0</ele><time>2026-04-22T13:57:13.105Z</time></trkpt><trkpt lat="43.3499345" lon="11.4147677"><ele>226.0</ele><time>2026-04-22T13:57:14.118Z</time></trkpt><trkpt lat="43.3498409" lon="11.4145985"><ele>226.0</ele><time>2026-04-22T13:57:15.105Z</time></trkpt><trkpt lat="43.34975" lon="11.4144122"><ele>226.33333333333331</ele><time>2026-04-22T13:57:16.107Z</time></trkpt><trkpt lat="43.3496592" lon="11.4142131"><ele>226.66666666666669</ele><time>2026-04-22T13:57:17.103Z</time></trkpt><trkpt lat="43.3495696" lon="11.4140123"><ele>227.0</ele><time>2026-04-22T13:57:18.119Z</time></trkpt><trkpt lat="43.3494849" lon="11.4138096"><ele>227.0</ele><time>2026-04-22T13:57:19.106Z</time></trkpt><trkpt lat="43.3494142" lon="11.4135996"><ele>227.0</ele><time>2026-04-22T13:57:20.118Z</time></trkpt><trkpt lat="43.3493447" lon="11.413393"><ele>227.0</ele><time>2026-04-22T13:57:21.106Z</time></trkpt><trkpt lat="43.3492597" lon="11.4131945"><ele>227.0</ele><time>2026-04-22T13:57:22.122Z</time></trkpt><trkpt lat="43.3491536" lon="11.4130115"><ele>227.0</ele><time>2026-04-22T13:57:23.107Z</time></trkpt><trkpt lat="43.3490344" lon="11.4128377"><ele>227.0</ele><time>2026-04-22T13:57:24.106Z</time></trkpt><trkpt lat="43.3489151" lon="11.4126733"><ele>228.66666666666669</ele><time>2026-04-22T13:57:25.106Z</time></trkpt><trkpt lat="43.3488098" lon="11.4124993"><ele>230.33333333333331</ele><time>2026-04-22T13:57:26.112Z</time></trkpt><trkpt lat="43.3487171" lon="11.4123118"><ele>232.0</ele><time>2026-04-22T13:57:27.115Z</time></trkpt><trkpt lat="43.348629" lon="11.4121061"><ele>232.0</ele><time>2026-04-22T13:57:28.12Z</time></trkpt><trkpt lat="43.3485646" lon="11.4118774"><ele>232.0</ele><time>2026-04-22T13:57:29.106Z</time></trkpt><trkpt lat="43.3485227" lon="11.4116365"><ele>232.0</ele><time>2026-04-22T13:57:30.122Z</time></trkpt><trkpt lat="43.3485035" lon="11.4113829"><ele>234.0</ele><time>2026-04-22T13:57:31.1Z</time></trkpt><trkpt lat="43.3484916" lon="11.4111205"><ele>236.0</ele><time>2026-04-22T13:57:32.115Z</time></trkpt><trkpt lat="43.3484708" lon="11.4108536"><ele>238.0</ele><time>2026-04-22T13:57:33.116Z</time></trkpt><trkpt lat="43.3484358" lon="11.4105842"><ele>238.66666666666666</ele><time>2026-04-22T13:57:34.115Z</time></trkpt><trkpt lat="43.3483841" lon="11.4103007"><ele>239.33333333333331</ele><time>2026-04-22T13:57:35.116Z</time></trkpt><trkpt lat="43.3483139" lon="11.4100025"><ele>240.0</ele><time>2026-04-22T13:57:36.118Z</time></trkpt><trkpt lat="43.3482329" lon="11.4097017"><ele>240.0</ele><time>2026-04-22T13:57:37.105Z</time></trkpt><trkpt lat="43.3481557" lon="11.409403"><ele>240.0</ele><time>2026-04-22T13:57:38.119Z</time></trkpt><trkpt lat="43.3480909" lon="11.4091009"><ele>241.0</ele><time>2026-04-22T13:57:39.098Z</time></trkpt><trkpt lat="43.3480488" lon="11.4087995"><ele>242.0</ele><time>2026-04-22T13:57:40.113Z</time></trkpt><trkpt lat="43.3480232" lon="11.4084922"><ele>243.0</ele><time>2026-04-22T13:57:41.108Z</time></trkpt><trkpt lat="43.3480097" lon="11.4081845"><ele>256.5</ele><time>2026-04-22T13:57:42.105Z</time></trkpt><trkpt lat="43.3480086" lon="11.4078721"><ele>270.0</ele><time>2026-04-22T13:57:43.099Z</time></trkpt><trkpt lat="43.3480165" lon="11.4075609"><ele>270.0</ele><time>2026-04-22T13:57:44.1Z</time></trkpt><trkpt lat="43.3480344" lon="11.4072501"><ele>270.0</ele><time>2026-04-22T13:57:45.123Z</time></trkpt><trkpt lat="43.3480601" lon="11.4069428"><ele>263.0</ele><time>2026-04-22T13:57:46.112Z</time></trkpt><trkpt lat="43.348092" lon="11.4066297"><ele>256.0</ele><time>2026-04-22T13:57:47.113Z</time></trkpt><trkpt lat="43.3481361" lon="11.406323"><ele>256.0</ele><time>2026-04-22T13:57:48.096Z</time></trkpt><trkpt lat="43.3482057" lon="11.4060251"><ele>256.0</ele><time>2026-04-22T13:57:49.098Z</time></trkpt><trkpt lat="43.3482953" lon="11.4057258"><ele>261.5</ele><time>2026-04-22T13:57:50.096Z</time></trkpt><trkpt lat="43.3483773" lon="11.4054241"><ele>267.0</ele><time>2026-04-22T13:57:51.115Z</time></trkpt><trkpt lat="43.3484389" lon="11.4051161"><ele>267.0</ele><time>2026-04-22T13:57:52.113Z</time></trkpt><trkpt lat="43.3484804" lon="11.4048006"><ele>267.0</ele><time>2026-04-22T13:57:53.102Z</time></trkpt><trkpt lat="43.3485225" lon="11.4044983"><ele>267.6666666666667</ele><time>2026-04-22T13:57:54.115Z</time></trkpt><trkpt lat="43.3485908" lon="11.4042302"><ele>268.33333333333337</ele><time>2026-04-22T13:57:55.099Z</time></trkpt><trkpt lat="43.3487036" lon="11.4040049"><ele>269.0</ele><time>2026-04-22T13:57:56.119Z</time></trkpt><trkpt lat="43.3488508" lon="11.4038146"><ele>270.0</ele><time>2026-04-22T13:57:57.117Z</time></trkpt><trkpt lat="43.3489898" lon="11.4036279"><ele>271.0</ele><time>2026-04-22T13:57:58.114Z</time></trkpt><trkpt lat="43.349096" lon="11.4034214"><ele>272.0</ele><time>2026-04-22T13:57:59.114Z</time></trkpt><trkpt lat="43.3491658" lon="11.4031914"><ele>274.33333333333337</ele><time>2026-04-22T13:58:00.105Z</time></trkpt><trkpt lat="43.3491966" lon="11.4029291"><ele>276.6666666666667</ele><time>2026-04-22T13:58:01.104Z</time></trkpt><trkpt lat="43.3491999" lon="11.4026401"><ele>279.0</ele><time>2026-04-22T13:58:02.105Z</time></trkpt><trkpt lat="43.3492002" lon="11.4023537"><ele>281.6666666666667</ele><time>2026-04-22T13:58:03.106Z</time></trkpt><trkpt lat="43.3492128" lon="11.4020895"><ele>284.33333333333337</ele><time>2026-04-22T13:58:04.115Z</time></trkpt><trkpt lat="43.3492465" lon="11.4018598"><ele>287.0</ele><time>2026-04-22T13:58:05.105Z</time></trkpt><trkpt lat="43.3493046" lon="11.4016767"><ele>287.0</ele><time>2026-04-22T13:58:06.107Z</time></trkpt><trkpt lat="43.3493894" lon="11.401545"><ele>287.0</ele><time>2026-04-22T13:58:07.104Z</time></trkpt><trkpt lat="43.3495013" lon="11.4014577"><ele>287.0</ele><time>2026-04-22T13:58:08.095Z</time></trkpt><trkpt lat="43.3496416" lon="11.4014362"><ele>287.0</ele><time>2026-04-22T13:58:09.104Z</time></trkpt><trkpt lat="43.3498004" lon="11.4015001"><ele>285.33333333333337</ele><time>2026-04-22T13:58:10.115Z</time></trkpt><trkpt lat="43.3499512" lon="11.4015981"><ele>283.6666666666667</ele><time>2026-04-22T13:58:11.103Z</time></trkpt><trkpt lat="43.3500915" lon="11.4016853"><ele>282.0</ele><time>2026-04-22T13:58:12.097Z</time></trkpt><trkpt lat="43.3502336" lon="11.4017303"><ele>282.0</ele><time>2026-04-22T13:58:13.099Z</time></trkpt><trkpt lat="43.3503334" lon="11.4016703"><ele>282.0</ele><time>2026-04-22T13:58:14.099Z</time></trkpt><trkpt lat="43.3503271" lon="11.4014747"><ele>282.0</ele><time>2026-04-22T13:58:15.095Z</time></trkpt><trkpt lat="43.3502672" lon="11.4012667"><ele>282.0</ele><time>2026-04-22T13:58:16.101Z</time></trkpt><trkpt lat="43.3501496" lon="11.4010648"><ele>285.3333333333333</ele><time>2026-04-22T13:58:17.104Z</time></trkpt><trkpt lat="43.350023" lon="11.4008737"><ele>288.66666666666663</ele><time>2026-04-22T13:58:18.103Z</time></trkpt><trkpt lat="43.3498888" lon="11.4007357"><ele>292.0</ele><time>2026-04-22T13:58:19.105Z</time></trkpt><trkpt lat="43.3497356" lon="11.4006245"><ele>292.66666666666663</ele><time>2026-04-22T13:58:20.098Z</time></trkpt><trkpt lat="43.3495643" lon="11.4005688"><ele>293.3333333333333</ele><time>2026-04-22T13:58:21.099Z</time></trkpt><trkpt lat="43.349403" lon="11.4006017"><ele>294.0</ele><time>2026-04-22T13:58:22.098Z</time></trkpt><trkpt lat="43.349251" lon="11.4006804"><ele>294.0</ele><time>2026-04-22T13:58:23.097Z</time></trkpt><trkpt lat="43.3491057" lon="11.4007752"><ele>294.0</ele><time>2026-04-22T13:58:24.103Z</time></trkpt><trkpt lat="43.348968" lon="11.400876"><ele>294.0</ele><time>2026-04-22T13:58:25.095Z</time></trkpt><trkpt lat="43.3488395" lon="11.4009712"><ele>295.5</ele><time>2026-04-22T13:58:26.105Z</time></trkpt><trkpt lat="43.3487183" lon="11.4010412"><ele>297.0</ele><time>2026-04-22T13:58:27.098Z</time></trkpt><trkpt lat="43.3486051" lon="11.4010596"><ele>298.5</ele><time>2026-04-22T13:58:28.1Z</time></trkpt><trkpt lat="43.3485024" lon="11.4010052"><ele>300.0</ele><time>2026-04-22T13:58:29.106Z</time></trkpt><trkpt lat="43.3484002" lon="11.4008886"><ele>300.0</ele><time>2026-04-22T13:58:30.099Z</time></trkpt><trkpt lat="43.3482873" lon="11.4007389"><ele>300.0</ele><time>2026-04-22T13:58:31.102Z</time></trkpt><trkpt lat="43.3481568" lon="11.4005826"><ele>300.0</ele><time>2026-04-22T13:58:32.105Z</time></trkpt><trkpt lat="43.3480094" lon="11.4004322"><ele>302.3333333333333</ele><time>2026-04-22T13:58:33.096Z</time></trkpt><trkpt lat="43.3478502" lon="11.4003041"><ele>304.66666666666663</ele><time>2026-04-22T13:58:34.102Z</time></trkpt><trkpt lat="43.347703" lon="11.4002124"><ele>307.0</ele><time>2026-04-22T13:58:35.094Z</time></trkpt><trkpt lat="43.3475691" lon="11.4001356"><ele>307.0</ele><time>2026-04-22T13:58:36.091Z</time></trkpt><trkpt lat="43.3474591" lon="11.400049"><ele>307.0</ele><time>2026-04-22T13:58:37.104Z</time></trkpt><trkpt lat="43.3473774" lon="11.3999379"><ele>307.0</ele><time>2026-04-22T13:58:38.099Z</time></trkpt><trkpt lat="43.3473357" lon="11.3997956"><ele>307.0</ele><time>2026-04-22T13:58:39.096Z</time></trkpt><trkpt lat="43.3473398" lon="11.3996399"><ele>307.25</ele><time>2026-04-22T13:58:40.096Z</time></trkpt><trkpt lat="43.3473959" lon="11.3994968"><ele>307.5</ele><time>2026-04-22T13:58:41.103Z</time></trkpt><trkpt lat="43.3474895" lon="11.3993731"><ele>307.75</ele><time>2026-04-22T13:58:42.095Z</time></trkpt><trkpt lat="43.3475946" lon="11.3992759"><ele>308.0</ele><time>2026-04-22T13:58:43.097Z</time></trkpt><trkpt lat="43.3477171" lon="11.3991979"><ele>308.0</ele><time>2026-04-22T13:58:44.095Z</time></trkpt><trkpt lat="43.3478485" lon="11.3991263"><ele>308.0</ele><time>2026-04-22T13:58:45.103Z</time></trkpt><trkpt lat="43.3479824" lon="11.39907"><ele>308.0</ele><time>2026-04-22T13:58:46.096Z</time></trkpt><trkpt lat="43.3481163" lon="11.3990313"><ele>308.0</ele><time>2026-04-22T13:58:47.102Z</time></trkpt><trkpt lat="43.348236" lon="11.3990034"><ele>308.4</ele><time>2026-04-22T13:58:48.095Z</time></trkpt><trkpt lat="43.3483346" lon="11.3989922"><ele>308.8</ele><time>2026-04-22T13:58:49.095Z</time></trkpt><trkpt lat="43.3484043" lon="11.3989767"><ele>309.2</ele><time>2026-04-22T13:58:50.098Z</time></trkpt><trkpt lat="43.3484379" lon="11.3989034"><ele>309.6</ele><time>2026-04-22T13:58:52.103Z</time></trkpt><trkpt lat="43.3483637" lon="11.3987621"><ele>310.0</ele><time>2026-04-22T13:58:54.098Z</time></trkpt><trkpt lat="43.3483046" lon="11.3986627"><ele>309.16666666666663</ele><time>2026-04-22T13:58:55.098Z</time></trkpt><trkpt lat="43.348237" lon="11.3985708"><ele>308.3333333333333</ele><time>2026-04-22T13:58:56.106Z</time></trkpt><trkpt lat="43.3481647" lon="11.39851"><ele>307.5</ele><time>2026-04-22T13:58:57.105Z</time></trkpt><trkpt lat="43.3480883" lon="11.3984931"><ele>306.6666666666667</ele><time>2026-04-22T13:58:58.106Z</time></trkpt><trkpt lat="43.3480122" lon="11.3985062"><ele>305.83333333333337</ele><time>2026-04-22T13:58:59.098Z</time></trkpt><trkpt lat="43.3479168" lon="11.3985614"><ele>305.0</ele><time>2026-04-22T13:59:00.093Z</time></trkpt><trkpt lat="43.3478163" lon="11.3986504"><ele>303.0</ele><time>2026-04-22T13:59:01.1Z</time></trkpt><trkpt lat="43.3476827" lon="11.3987095"><ele>301.0</ele><time>2026-04-22T13:59:02.09Z</time></trkpt><trkpt lat="43.3475357" lon="11.398751"><ele>299.0</ele><time>2026-04-22T13:59:03.105Z</time></trkpt><trkpt lat="43.3473667" lon="11.398781"><ele>300.0</ele><time>2026-04-22T13:59:04.095Z</time></trkpt><trkpt lat="43.3471928" lon="11.3988016"><ele>301.0</ele><time>2026-04-22T13:59:05.093Z</time></trkpt><trkpt lat="43.3470355" lon="11.3988307"><ele>302.0</ele><time>2026-04-22T13:59:06.093Z</time></trkpt><trkpt lat="43.3469046" lon="11.3988745"><ele>302.0</ele><time>2026-04-22T13:59:07.1Z</time></trkpt><trkpt lat="43.3467851" lon="11.3989735"><ele>302.0</ele><time>2026-04-22T13:59:08.101Z</time></trkpt><trkpt lat="43.3466748" lon="11.3991141"><ele>302.0</ele><time>2026-04-22T13:59:09.104Z</time></trkpt><trkpt lat="43.3465615" lon="11.3993022"><ele>302.0</ele><time>2026-04-22T13:59:10.095Z</time></trkpt><trkpt lat="43.3464329" lon="11.3995165"><ele>302.0</ele><time>2026-04-22T13:59:11.101Z</time></trkpt><trkpt lat="43.3463042" lon="11.3997296"><ele>302.0</ele><time>2026-04-22T13:59:12.09Z</time></trkpt><trkpt lat="43.3461759" lon="11.3999372"><ele>301.0</ele><time>2026-04-22T13:59:13.092Z</time></trkpt><trkpt lat="43.3460461" lon="11.400138"><ele>300.0</ele><time>2026-04-22T13:59:14.104Z</time></trkpt><trkpt lat="43.3459177" lon="11.4003166"><ele>299.0</ele><time>2026-04-22T13:59:15.101Z</time></trkpt><trkpt lat="43.345799" lon="11.4004831"><ele>299.0</ele><time>2026-04-22T13:59:16.103Z</time></trkpt><trkpt lat="43.3456896" lon="11.400639"><ele>299.0</ele><time>2026-04-22T13:59:17.101Z</time></trkpt><trkpt lat="43.3455866" lon="11.4007818"><ele>299.0</ele><time>2026-04-22T13:59:18.098Z</time></trkpt><trkpt lat="43.3454962" lon="11.4009066"><ele>299.0</ele><time>2026-04-22T13:59:19.102Z</time></trkpt><trkpt lat="43.3454195" lon="11.4010111"><ele>299.0</ele><time>2026-04-22T13:59:20.093Z</time></trkpt><trkpt lat="43.3453407" lon="11.4010933"><ele>299.0</ele><time>2026-04-22T13:59:21.092Z</time></trkpt><trkpt lat="43.3452487" lon="11.4011665"><ele>299.0</ele><time>2026-04-22T13:59:22.094Z</time></trkpt><trkpt lat="43.3451281" lon="11.4012312"><ele>299.0</ele><time>2026-04-22T13:59:23.104Z</time></trkpt><trkpt lat="43.3449854" lon="11.4012808"><ele>299.0</ele><time>2026-04-22T13:59:24.098Z</time></trkpt><trkpt lat="43.3448284" lon="11.401326"><ele>299.0</ele><time>2026-04-22T13:59:25.106Z</time></trkpt><trkpt lat="43.3446709" lon="11.4013493"><ele>299.0</ele><time>2026-04-22T13:59:26.098Z</time></trkpt><trkpt lat="43.3445111" lon="11.4013654"><ele>297.5</ele><time>2026-04-22T13:59:27.105Z</time></trkpt><trkpt lat="43.3443579" lon="11.401373"><ele>296.0</ele><time>2026-04-22T13:59:28.101Z</time></trkpt><trkpt lat="43.3442118" lon="11.4013827"><ele>294.5</ele><time>2026-04-22T13:59:29.097Z</time></trkpt><trkpt lat="43.3440752" lon="11.4014024"><ele>293.0</ele><time>2026-04-22T13:59:30.1Z</time></trkpt><trkpt lat="43.3439457" lon="11.4014422"><ele>292.75</ele><time>2026-04-22T13:59:31.097Z</time></trkpt><trkpt lat="43.3438216" lon="11.4015025"><ele>292.5</ele><time>2026-04-22T13:59:32.102Z</time></trkpt><trkpt lat="43.3437" lon="11.4015795"><ele>292.25</ele><time>2026-04-22T13:59:33.099Z</time></trkpt><trkpt lat="43.3435779" lon="11.4016645"><ele>292.0</ele><time>2026-04-22T13:59:34.108Z</time></trkpt><trkpt lat="43.3434612" lon="11.4017482"><ele>292.0</ele><time>2026-04-22T13:59:35.099Z</time></trkpt><trkpt lat="43.3433556" lon="11.401839"><ele>292.0</ele><time>2026-04-22T13:59:36.093Z</time></trkpt><trkpt lat="43.3432612" lon="11.4019427"><ele>292.0</ele><time>2026-04-22T13:59:37.108Z</time></trkpt><trkpt lat="43.3431851" lon="11.4020628"><ele>292.0</ele><time>2026-04-22T13:59:38.098Z</time></trkpt><trkpt lat="43.3431282" lon="11.4022003"><ele>291.25</ele><time>2026-04-22T13:59:39.099Z</time></trkpt><trkpt lat="43.3430915" lon="11.4023618"><ele>290.5</ele><time>2026-04-22T13:59:40.093Z</time></trkpt><trkpt lat="43.343072" lon="11.4025411"><ele>289.75</ele><time>2026-04-22T13:59:41.094Z</time></trkpt><trkpt lat="43.3430629" lon="11.402738"><ele>289.0</ele><time>2026-04-22T13:59:42.098Z</time></trkpt><trkpt lat="43.3430493" lon="11.4029412"><ele>289.0</ele><time>2026-04-22T13:59:43.095Z</time></trkpt><trkpt lat="43.3430162" lon="11.4031227"><ele>289.0</ele><time>2026-04-22T13:59:44.094Z</time></trkpt><trkpt lat="43.3429551" lon="11.4032693"><ele>289.0</ele><time>2026-04-22T13:59:45.092Z</time></trkpt><trkpt lat="43.3428546" lon="11.4033496"><ele>289.0</ele><time>2026-04-22T13:59:46.094Z</time></trkpt><trkpt lat="43.342736" lon="11.4033846"><ele>289.0</ele><time>2026-04-22T13:59:47.102Z</time></trkpt><trkpt lat="43.3426091" lon="11.4034017"><ele>289.0</ele><time>2026-04-22T13:59:48.097Z</time></trkpt><trkpt lat="43.3424683" lon="11.4034164"><ele>289.0</ele><time>2026-04-22T13:59:49.093Z</time></trkpt><trkpt lat="43.3423286" lon="11.4034599"><ele>289.0</ele><time>2026-04-22T13:59:50.098Z</time></trkpt><trkpt lat="43.3421977" lon="11.403552"><ele>287.3333333333333</ele><time>2026-04-22T13:59:51.102Z</time></trkpt><trkpt lat="43.3420707" lon="11.4036955"><ele>285.6666666666667</ele><time>2026-04-22T13:59:52.098Z</time></trkpt><trkpt lat="43.3419478" lon="11.4038495"><ele>284.0</ele><time>2026-04-22T13:59:53.101Z</time></trkpt><trkpt lat="43.3418243" lon="11.4039929"><ele>284.0</ele><time>2026-04-22T13:59:54.096Z</time></trkpt><trkpt lat="43.3417129" lon="11.4041248"><ele>284.0</ele><time>2026-04-22T13:59:55.099Z</time></trkpt><trkpt lat="43.3416111" lon="11.4042468"><ele>284.0</ele><time>2026-04-22T13:59:56.095Z</time></trkpt><trkpt lat="43.3415144" lon="11.4043632"><ele>284.0</ele><time>2026-04-22T13:59:57.09Z</time></trkpt><trkpt lat="43.3414216" lon="11.4044827"><ele>285.5</ele><time>2026-04-22T13:59:58.098Z</time></trkpt><trkpt lat="43.3413313" lon="11.404616"><ele>287.0</ele><time>2026-04-22T13:59:59.098Z</time></trkpt><trkpt lat="43.3412378" lon="11.404772"><ele>288.5</ele><time>2026-04-22T14:00:00.098Z</time></trkpt><trkpt lat="43.3411401" lon="11.4049421"><ele>290.0</ele><time>2026-04-22T14:00:01.094Z</time></trkpt><trkpt lat="43.3410357" lon="11.4051015"><ele>290.0</ele><time>2026-04-22T14:00:02.097Z</time></trkpt><trkpt lat="43.3409269" lon="11.4052434"><ele>290.0</ele><time>2026-04-22T14:00:03.096Z</time></trkpt><trkpt lat="43.3408107" lon="11.4053592"><ele>290.0</ele><time>2026-04-22T14:00:04.098Z</time></trkpt><trkpt lat="43.3406774" lon="11.4054656"><ele>290.0</ele><time>2026-04-22T14:00:05.1Z</time></trkpt><trkpt lat="43.3405218" lon="11.4055584"><ele>290.0</ele><time>2026-04-22T14:00:06.102Z</time></trkpt><trkpt lat="43.3403479" lon="11.4056574"><ele>290.0</ele><time>2026-04-22T14:00:07.093Z</time></trkpt><trkpt lat="43.3401672" lon="11.4057566"><ele>290.0</ele><time>2026-04-22T14:00:08.101Z</time></trkpt><trkpt lat="43.3399973" lon="11.4058533"><ele>290.0</ele><time>2026-04-22T14:00:09.101Z</time></trkpt><trkpt lat="43.3398514" lon="11.4059361"><ele>290.0</ele><time>2026-04-22T14:00:10.089Z</time></trkpt><trkpt lat="43.3397328" lon="11.4060048"><ele>290.0</ele><time>2026-04-22T14:00:11.091Z</time></trkpt><trkpt lat="43.3396425" lon="11.4060708"><ele>290.0</ele><time>2026-04-22T14:00:12.091Z</time></trkpt><trkpt lat="43.3395806" lon="11.4061499"><ele>289.25</ele><time>2026-04-22T14:00:13.101Z</time></trkpt><trkpt lat="43.3395368" lon="11.4062468"><ele>288.5</ele><time>2026-04-22T14:00:14.099Z</time></trkpt><trkpt lat="43.3394912" lon="11.4063704"><ele>287.75</ele><time>2026-04-22T14:00:15.094Z</time></trkpt><trkpt lat="43.3394274" lon="11.4065283"><ele>287.0</ele><time>2026-04-22T14:00:16.09Z</time></trkpt><trkpt lat="43.3393432" lon="11.4067147"><ele>287.0</ele><time>2026-04-22T14:00:17.099Z</time></trkpt><trkpt lat="43.3392215" lon="11.4068907"><ele>287.0</ele><time>2026-04-22T14:00:18.103Z</time></trkpt><trkpt lat="43.3390748" lon="11.4070667"><ele>287.0</ele><time>2026-04-22T14:00:19.102Z</time></trkpt><trkpt lat="43.3389121" lon="11.4072468"><ele>287.6666666666667</ele><time>2026-04-22T14:00:20.098Z</time></trkpt><trkpt lat="43.3387611" lon="11.4074121"><ele>288.3333333333333</ele><time>2026-04-22T14:00:21.1Z</time></trkpt><trkpt lat="43.3386187" lon="11.4075502"><ele>289.0</ele><time>2026-04-22T14:00:22.102Z</time></trkpt><trkpt lat="43.3384842" lon="11.4076619"><ele>289.0</ele><time>2026-04-22T14:00:23.094Z</time></trkpt><trkpt lat="43.3383523" lon="11.4077472"><ele>289.0</ele><time>2026-04-22T14:00:24.101Z</time></trkpt><trkpt lat="43.3382378" lon="11.4078092"><ele>289.0</ele><time>2026-04-22T14:00:25.103Z</time></trkpt><trkpt lat="43.3381372" lon="11.4078328"><ele>289.0</ele><time>2026-04-22T14:00:26.102Z</time></trkpt><trkpt lat="43.3380486" lon="11.4078126"><ele>289.5</ele><time>2026-04-22T14:00:27.104Z</time></trkpt><trkpt lat="43.3379594" lon="11.4077599"><ele>290.0</ele><time>2026-04-22T14:00:28.091Z</time></trkpt><trkpt lat="43.3378655" lon="11.4076704"><ele>290.5</ele><time>2026-04-22T14:00:29.097Z</time></trkpt><trkpt lat="43.3377594" lon="11.4075528"><ele>291.0</ele><time>2026-04-22T14:00:30.096Z</time></trkpt><trkpt lat="43.3376374" lon="11.4074208"><ele>291.0</ele><time>2026-04-22T14:00:31.093Z</time></trkpt><trkpt lat="43.3375074" lon="11.4072892"><ele>291.0</ele><time>2026-04-22T14:00:32.095Z</time></trkpt><trkpt lat="43.3373765" lon="11.407169"><ele>291.0</ele><time>2026-04-22T14:00:33.094Z</time></trkpt><trkpt lat="43.3372517" lon="11.4070637"><ele>291.25</ele><time>2026-04-22T14:00:34.097Z</time></trkpt><trkpt lat="43.3371246" lon="11.4069685"><ele>291.5</ele><time>2026-04-22T14:00:35.096Z</time></trkpt><trkpt lat="43.3369942" lon="11.4068964"><ele>291.75</ele><time>2026-04-22T14:00:36.098Z</time></trkpt><trkpt lat="43.3368654" lon="11.4068451"><ele>292.0</ele><time>2026-04-22T14:00:37.094Z</time></trkpt><trkpt lat="43.3367391" lon="11.406801"><ele>292.0</ele><time>2026-04-22T14:00:38.096Z</time></trkpt><trkpt lat="43.3366128" lon="11.4067593"><ele>292.0</ele><time>2026-04-22T14:00:39.102Z</time></trkpt><trkpt lat="43.3364896" lon="11.4067156"><ele>292.0</ele><time>2026-04-22T14:00:40.095Z</time></trkpt><trkpt lat="43.3363775" lon="11.4066788"><ele>292.0</ele><time>2026-04-22T14:00:41.097Z</time></trkpt><trkpt lat="43.3362762" lon="11.4066605"><ele>293.4</ele><time>2026-04-22T14:00:42.098Z</time></trkpt><trkpt lat="43.3361814" lon="11.4066694"><ele>294.79999999999995</ele><time>2026-04-22T14:00:43.095Z</time></trkpt><trkpt lat="43.3360907" lon="11.4067024"><ele>296.2</ele><time>2026-04-22T14:00:44.104Z</time></trkpt><trkpt lat="43.3360027" lon="11.406753"><ele>297.59999999999997</ele><time>2026-04-22T14:00:45.099Z</time></trkpt><trkpt lat="43.3359211" lon="11.4068235"><ele>299.0</ele><time>2026-04-22T14:00:46.095Z</time></trkpt><trkpt lat="43.3358419" lon="11.4069133"><ele>299.0</ele><time>2026-04-22T14:00:47.096Z</time></trkpt><trkpt lat="43.3357599" lon="11.4070201"><ele>299.0</ele><time>2026-04-22T14:00:48.095Z</time></trkpt><trkpt lat="43.3356794" lon="11.4071424"><ele>299.0</ele><time>2026-04-22T14:00:49.102Z</time></trkpt><trkpt lat="43.3356021" lon="11.4072461"><ele>299.0</ele><time>2026-04-22T14:00:50.096Z</time></trkpt><trkpt lat="43.3355216" lon="11.4073363"><ele>299.0</ele><time>2026-04-22T14:00:51.093Z</time></trkpt><trkpt lat="43.3354342" lon="11.4073998"><ele>298.5</ele><time>2026-04-22T14:00:52.099Z</time></trkpt><trkpt lat="43.3353362" lon="11.4074324"><ele>298.0</ele><time>2026-04-22T14:00:53.099Z</time></trkpt><trkpt lat="43.3352226" lon="11.4074409"><ele>297.5</ele><time>2026-04-22T14:00:54.104Z</time></trkpt><trkpt lat="43.3350999" lon="11.4074418"><ele>297.0</ele><time>2026-04-22T14:00:55.096Z</time></trkpt><trkpt lat="43.334965" lon="11.4074615"><ele>297.0</ele><time>2026-04-22T14:00:56.099Z</time></trkpt><trkpt lat="43.3348191" lon="11.4074769"><ele>297.0</ele><time>2026-04-22T14:00:57.104Z</time></trkpt><trkpt lat="43.334675" lon="11.40748"><ele>297.0</ele><time>2026-04-22T14:00:58.101Z</time></trkpt><trkpt lat="43.3345408" lon="11.4074789"><ele>297.0</ele><time>2026-04-22T14:00:59.104Z</time></trkpt><trkpt lat="43.3344344" lon="11.4074748"><ele>295.6</ele><time>2026-04-22T14:01:00.095Z</time></trkpt><trkpt lat="43.3343639" lon="11.4074646"><ele>294.2</ele><time>2026-04-22T14:01:01.096Z</time></trkpt><trkpt lat="43.3342539" lon="11.4073795"><ele>292.8</ele><time>2026-04-22T14:01:03.097Z</time></trkpt><trkpt lat="43.334217" lon="11.4072912"><ele>291.4</ele><time>2026-04-22T14:01:04.091Z</time></trkpt><trkpt lat="43.3341952" lon="11.4071492"><ele>290.0</ele><time>2026-04-22T14:01:05.1Z</time></trkpt><trkpt lat="43.3341814" lon="11.4069567"><ele>289.6666666666667</ele><time>2026-04-22T14:01:06.095Z</time></trkpt><trkpt lat="43.3341639" lon="11.4067255"><ele>289.3333333333333</ele><time>2026-04-22T14:01:07.096Z</time></trkpt><trkpt lat="43.3341355" lon="11.4064677"><ele>289.0</ele><time>2026-04-22T14:01:08.095Z</time></trkpt><trkpt lat="43.3341061" lon="11.4062174"><ele>288.0</ele><time>2026-04-22T14:01:09.094Z</time></trkpt><trkpt lat="43.3340823" lon="11.4060025"><ele>287.0</ele><time>2026-04-22T14:01:10.099Z</time></trkpt><trkpt lat="43.334079" lon="11.4058061"><ele>286.0</ele><time>2026-04-22T14:01:11.096Z</time></trkpt><trkpt lat="43.3340923" lon="11.4055995"><ele>284.66666666666663</ele><time>2026-04-22T14:01:12.097Z</time></trkpt><trkpt lat="43.3341135" lon="11.4053681"><ele>283.3333333333333</ele><time>2026-04-22T14:01:13.098Z</time></trkpt><trkpt lat="43.3341395" lon="11.4051229"><ele>282.0</ele><time>2026-04-22T14:01:14.105Z</time></trkpt><trkpt lat="43.334161" lon="11.4048901"><ele>282.0</ele><time>2026-04-22T14:01:15.094Z</time></trkpt><trkpt lat="43.3341818" lon="11.4046735"><ele>282.0</ele><time>2026-04-22T14:01:16.096Z</time></trkpt><trkpt lat="43.3341994" lon="11.4044737"><ele>282.0</ele><time>2026-04-22T14:01:17.1Z</time></trkpt><trkpt lat="43.3342072" lon="11.404311"><ele>282.0</ele><time>2026-04-22T14:01:18.103Z</time></trkpt><trkpt lat="43.3342095" lon="11.4041872"><ele>282.0</ele><time>2026-04-22T14:01:19.095Z</time></trkpt><trkpt lat="43.3341825" lon="11.4040467"><ele>282.0</ele><time>2026-04-22T14:01:21.096Z</time></trkpt><trkpt lat="43.3341241" lon="11.4039985"><ele>282.0</ele><time>2026-04-22T14:01:24.098Z</time></trkpt><trkpt lat="43.3340501" lon="11.4040534"><ele>282.0</ele><time>2026-04-22T14:01:26.1Z</time></trkpt><trkpt lat="43.3339753" lon="11.4041096"><ele>282.0</ele><time>2026-04-22T14:01:27.101Z</time></trkpt><trkpt lat="43.3338653" lon="11.4041786"><ele>281.5</ele><time>2026-04-22T14:01:28.095Z</time></trkpt><trkpt lat="43.3337286" lon="11.404246"><ele>281.0</ele><time>2026-04-22T14:01:29.096Z</time></trkpt><trkpt lat="43.3335836" lon="11.404304"><ele>280.5</ele><time>2026-04-22T14:01:30.097Z</time></trkpt><trkpt lat="43.3334475" lon="11.4043582"><ele>280.0</ele><time>2026-04-22T14:01:31.097Z</time></trkpt><trkpt lat="43.3333122" lon="11.404419"><ele>280.0</ele><time>2026-04-22T14:01:32.097Z</time></trkpt><trkpt lat="43.333175" lon="11.4044854"><ele>280.0</ele><time>2026-04-22T14:01:33.096Z</time></trkpt><trkpt lat="43.3330396" lon="11.404553"><ele>280.0</ele><time>2026-04-22T14:01:34.098Z</time></trkpt><trkpt lat="43.3329066" lon="11.404622"><ele>280.0</ele><time>2026-04-22T14:01:35.099Z</time></trkpt><trkpt lat="43.3327796" lon="11.4046918"><ele>279.25</ele><time>2026-04-22T14:01:36.09Z</time></trkpt><trkpt lat="43.3326565" lon="11.4047616"><ele>278.5</ele><time>2026-04-22T14:01:37.093Z</time></trkpt><trkpt lat="43.3325289" lon="11.4048286"><ele>277.75</ele><time>2026-04-22T14:01:38.097Z</time></trkpt><trkpt lat="43.3323978" lon="11.4048966"><ele>277.0</ele><time>2026-04-22T14:01:39.094Z</time></trkpt><trkpt lat="43.3322639" lon="11.4049688"><ele>277.25</ele><time>2026-04-22T14:01:40.093Z</time></trkpt><trkpt lat="43.3321276" lon="11.4050412"><ele>277.5</ele><time>2026-04-22T14:01:41.094Z</time></trkpt><trkpt lat="43.3319948" lon="11.4051122"><ele>277.75</ele><time>2026-04-22T14:01:42.097Z</time></trkpt><trkpt lat="43.3318638" lon="11.405179"><ele>278.0</ele><time>2026-04-22T14:01:43.096Z</time></trkpt><trkpt lat="43.3317303" lon="11.4052334"><ele>278.0</ele><time>2026-04-22T14:01:44.1Z</time></trkpt><trkpt lat="43.3315882" lon="11.4052742"><ele>278.0</ele><time>2026-04-22T14:01:45.094Z</time></trkpt><trkpt lat="43.3314383" lon="11.4053069"><ele>278.0</ele><time>2026-04-22T14:01:46.095Z</time></trkpt><trkpt lat="43.3312895" lon="11.4053362"><ele>278.0</ele><time>2026-04-22T14:01:47.096Z</time></trkpt><trkpt lat="43.3311424" lon="11.4053652"><ele>276.5</ele><time>2026-04-22T14:01:48.096Z</time></trkpt><trkpt lat="43.3310033" lon="11.405395"><ele>275.0</ele><time>2026-04-22T14:01:49.102Z</time></trkpt><trkpt lat="43.3308683" lon="11.4054339"><ele>273.5</ele><time>2026-04-22T14:01:50.104Z</time></trkpt><trkpt lat="43.3307368" lon="11.405476"><ele>272.0</ele><time>2026-04-22T14:01:51.102Z</time></trkpt><trkpt lat="43.3306043" lon="11.405518"><ele>270.0</ele><time>2026-04-22T14:01:52.098Z</time></trkpt><trkpt lat="43.330473" lon="11.4055637"><ele>268.0</ele><time>2026-04-22T14:01:53.101Z</time></trkpt><trkpt lat="43.3303394" lon="11.4056157"><ele>266.0</ele><time>2026-04-22T14:01:54.1Z</time></trkpt><trkpt lat="43.3302014" lon="11.4056771"><ele>264.0</ele><time>2026-04-22T14:01:55.098Z</time></trkpt><trkpt lat="43.3300624" lon="11.4057495"><ele>264.0</ele><time>2026-04-22T14:01:56.092Z</time></trkpt><trkpt lat="43.3299229" lon="11.4058333"><ele>264.0</ele><time>2026-04-22T14:01:57.1Z</time></trkpt><trkpt lat="43.3297877" lon="11.4059278"><ele>264.0</ele><time>2026-04-22T14:01:58.099Z</time></trkpt><trkpt lat="43.3296545" lon="11.4060328"><ele>262.3333333333333</ele><time>2026-04-22T14:01:59.102Z</time></trkpt><trkpt lat="43.3295283" lon="11.4061481"><ele>260.66666666666663</ele><time>2026-04-22T14:02:00.092Z</time></trkpt><trkpt lat="43.32941" lon="11.4062778"><ele>259.0</ele><time>2026-04-22T14:02:01.091Z</time></trkpt><trkpt lat="43.3292943" lon="11.4064217"><ele>258.66666666666663</ele><time>2026-04-22T14:02:02.098Z</time></trkpt><trkpt lat="43.3291785" lon="11.4065719"><ele>258.3333333333333</ele><time>2026-04-22T14:02:03.096Z</time></trkpt><trkpt lat="43.3290597" lon="11.4067247"><ele>258.0</ele><time>2026-04-22T14:02:04.1Z</time></trkpt><trkpt lat="43.328941" lon="11.4068781"><ele>257.6666666666667</ele><time>2026-04-22T14:02:05.092Z</time></trkpt><trkpt lat="43.3288218" lon="11.4070263"><ele>257.33333333333337</ele><time>2026-04-22T14:02:06.101Z</time></trkpt><trkpt lat="43.3287001" lon="11.40717"><ele>257.0</ele><time>2026-04-22T14:02:07.095Z</time></trkpt><trkpt lat="43.3285776" lon="11.4073092"><ele>255.66666666666669</ele><time>2026-04-22T14:02:08.09Z</time></trkpt><trkpt lat="43.3284585" lon="11.4074461"><ele>254.33333333333331</ele><time>2026-04-22T14:02:09.095Z</time></trkpt><trkpt lat="43.3283424" lon="11.4075846"><ele>253.0</ele><time>2026-04-22T14:02:10.102Z</time></trkpt><trkpt lat="43.3282248" lon="11.4077249"><ele>253.0</ele><time>2026-04-22T14:02:11.095Z</time></trkpt><trkpt lat="43.328108" lon="11.4078669"><ele>253.0</ele><time>2026-04-22T14:02:12.103Z</time></trkpt><trkpt lat="43.3279922" lon="11.408009"><ele>253.0</ele><time>2026-04-22T14:02:13.096Z</time></trkpt><trkpt lat="43.327882" lon="11.4081429"><ele>253.0</ele><time>2026-04-22T14:02:14.095Z</time></trkpt><trkpt lat="43.3277779" lon="11.4082606"><ele>253.0</ele><time>2026-04-22T14:02:15.098Z</time></trkpt><trkpt lat="43.3276793" lon="11.4083646"><ele>253.0</ele><time>2026-04-22T14:02:16.096Z</time></trkpt><trkpt lat="43.3275894" lon="11.4084592"><ele>253.0</ele><time>2026-04-22T14:02:17.098Z</time></trkpt><trkpt lat="43.327505" lon="11.4085478"><ele>253.0</ele><time>2026-04-22T14:02:18.097Z</time></trkpt><trkpt lat="43.3274253" lon="11.4086322"><ele>253.0</ele><time>2026-04-22T14:02:19.105Z</time></trkpt><trkpt lat="43.3273515" lon="11.4087134"><ele>253.0</ele><time>2026-04-22T14:02:20.097Z</time></trkpt><trkpt lat="43.3272855" lon="11.4087873"><ele>253.0</ele><time>2026-04-22T14:02:21.096Z</time></trkpt><trkpt lat="43.3272226" lon="11.4088591"><ele>253.0</ele><time>2026-04-22T14:02:22.097Z</time></trkpt><trkpt lat="43.3271553" lon="11.4089409"><ele>251.25</ele><time>2026-04-22T14:02:23.095Z</time></trkpt><trkpt lat="43.3270777" lon="11.4090395"><ele>249.5</ele><time>2026-04-22T14:02:24.098Z</time></trkpt><trkpt lat="43.3269934" lon="11.4091527"><ele>247.75</ele><time>2026-04-22T14:02:25.093Z</time></trkpt><trkpt lat="43.3269016" lon="11.4092919"><ele>246.0</ele><time>2026-04-22T14:02:26.093Z</time></trkpt><trkpt lat="43.3268071" lon="11.4094528"><ele>246.0</ele><time>2026-04-22T14:02:27.094Z</time></trkpt><trkpt lat="43.326719" lon="11.4096233"><ele>246.0</ele><time>2026-04-22T14:02:28.099Z</time></trkpt><trkpt lat="43.3266287" lon="11.4097543"><ele>246.0</ele><time>2026-04-22T14:02:29.095Z</time></trkpt><trkpt lat="43.326534" lon="11.4098531"><ele>246.0</ele><time>2026-04-22T14:02:30.091Z</time></trkpt><trkpt lat="43.326437" lon="11.4099373"><ele>245.4</ele><time>2026-04-22T14:02:31.094Z</time></trkpt><trkpt lat="43.3263508" lon="11.4100241"><ele>244.8</ele><time>2026-04-22T14:02:32.089Z</time></trkpt><trkpt lat="43.3262678" lon="11.4101128"><ele>244.20000000000002</ele><time>2026-04-22T14:02:33.096Z</time></trkpt><trkpt lat="43.3261928" lon="11.4101952"><ele>243.60000000000002</ele><time>2026-04-22T14:02:34.096Z</time></trkpt><trkpt lat="43.32613" lon="11.4102615"><ele>243.0</ele><time>2026-04-22T14:02:35.093Z</time></trkpt><trkpt lat="43.326075" lon="11.4103097"><ele>243.0</ele><time>2026-04-22T14:02:36.09Z</time></trkpt><trkpt lat="43.3259863" lon="11.4103077"><ele>243.0</ele><time>2026-04-22T14:02:38.097Z</time></trkpt><trkpt lat="43.325914" lon="11.4101554"><ele>243.0</ele><time>2026-04-22T14:02:40.103Z</time></trkpt><trkpt lat="43.325873" lon="11.4100267"><ele>243.0</ele><time>2026-04-22T14:02:41.091Z</time></trkpt><trkpt lat="43.3258389" lon="11.4098819"><ele>243.0</ele><time>2026-04-22T14:02:42.101Z</time></trkpt><trkpt lat="43.3258184" lon="11.4097392"><ele>241.4</ele><time>2026-04-22T14:02:43.096Z</time></trkpt><trkpt lat="43.325818" lon="11.4095868"><ele>239.8</ele><time>2026-04-22T14:02:44.104Z</time></trkpt><trkpt lat="43.3258294" lon="11.4094297"><ele>238.2</ele><time>2026-04-22T14:02:45.097Z</time></trkpt><trkpt lat="43.3258394" lon="11.4092804"><ele>236.6</ele><time>2026-04-22T14:02:46.092Z</time></trkpt><trkpt lat="43.3258415" lon="11.4091265"><ele>235.0</ele><time>2026-04-22T14:02:47.104Z</time></trkpt><trkpt lat="43.3258349" lon="11.4089547"><ele>233.66666666666666</ele><time>2026-04-22T14:02:48.096Z</time></trkpt><trkpt lat="43.3258194" lon="11.408763"><ele>232.33333333333331</ele><time>2026-04-22T14:02:49.1Z</time></trkpt><trkpt lat="43.3257959" lon="11.4085538"><ele>231.0</ele><time>2026-04-22T14:02:50.096Z</time></trkpt><trkpt lat="43.3257662" lon="11.4083293"><ele>231.0</ele><time>2026-04-22T14:02:51.104Z</time></trkpt><trkpt lat="43.325739" lon="11.4080921"><ele>231.0</ele><time>2026-04-22T14:02:52.098Z</time></trkpt><trkpt lat="43.3257139" lon="11.407857"><ele>231.0</ele><time>2026-04-22T14:02:53.092Z</time></trkpt><trkpt lat="43.3256895" lon="11.4076225"><ele>229.66666666666669</ele><time>2026-04-22T14:02:54.102Z</time></trkpt><trkpt lat="43.3256641" lon="11.407387"><ele>228.33333333333334</ele><time>2026-04-22T14:02:55.101Z</time></trkpt><trkpt lat="43.3256349" lon="11.4071542"><ele>227.0</ele><time>2026-04-22T14:02:56.099Z</time></trkpt><trkpt lat="43.3256016" lon="11.4069314"><ele>225.66666666666669</ele><time>2026-04-22T14:02:57.097Z</time></trkpt><trkpt lat="43.3255524" lon="11.4067184"><ele>224.33333333333331</ele><time>2026-04-22T14:02:58.101Z</time></trkpt><trkpt lat="43.3254772" lon="11.4065145"><ele>223.0</ele><time>2026-04-22T14:02:59.103Z</time></trkpt><trkpt lat="43.3253788" lon="11.4063166"><ele>221.0</ele><time>2026-04-22T14:03:00.096Z</time></trkpt><trkpt lat="43.3252722" lon="11.4061209"><ele>219.0</ele><time>2026-04-22T14:03:01.103Z</time></trkpt><trkpt lat="43.3251729" lon="11.4059206"><ele>217.0</ele><time>2026-04-22T14:03:02.094Z</time></trkpt><trkpt lat="43.3250889" lon="11.4057108"><ele>216.33333333333331</ele><time>2026-04-22T14:03:03.096Z</time></trkpt><trkpt lat="43.3250205" lon="11.4054867"><ele>215.66666666666669</ele><time>2026-04-22T14:03:04.095Z</time></trkpt><trkpt lat="43.3249691" lon="11.4052505"><ele>215.0</ele><time>2026-04-22T14:03:05.099Z</time></trkpt><trkpt lat="43.3249296" lon="11.4050065"><ele>215.0</ele><time>2026-04-22T14:03:06.096Z</time></trkpt><trkpt lat="43.3249132" lon="11.40476"><ele>215.0</ele><time>2026-04-22T14:03:07.094Z</time></trkpt><trkpt lat="43.3249159" lon="11.4045137"><ele>215.0</ele><time>2026-04-22T14:03:08.094Z</time></trkpt><trkpt lat="43.3249254" lon="11.4042699"><ele>214.66666666666669</ele><time>2026-04-22T14:03:09.094Z</time></trkpt><trkpt lat="43.32493" lon="11.4040388"><ele>214.33333333333331</ele><time>2026-04-22T14:03:10.104Z</time></trkpt><trkpt lat="43.324935" lon="11.4038143"><ele>214.0</ele><time>2026-04-22T14:03:11.097Z</time></trkpt><trkpt lat="43.324945" lon="11.4035893"><ele>213.33333333333331</ele><time>2026-04-22T14:03:12.095Z</time></trkpt><trkpt lat="43.3249605" lon="11.4033677"><ele>212.66666666666669</ele><time>2026-04-22T14:03:13.101Z</time></trkpt><trkpt lat="43.3249818" lon="11.4031517"><ele>212.0</ele><time>2026-04-22T14:03:14.093Z</time></trkpt><trkpt lat="43.3250073" lon="11.402937"><ele>213.33333333333334</ele><time>2026-04-22T14:03:15.104Z</time></trkpt><trkpt lat="43.3250313" lon="11.4027201"><ele>214.66666666666669</ele><time>2026-04-22T14:03:16.1Z</time></trkpt><trkpt lat="43.3250496" lon="11.4025048"><ele>216.0</ele><time>2026-04-22T14:03:17.103Z</time></trkpt><trkpt lat="43.3250692" lon="11.4022869"><ele>219.33333333333331</ele><time>2026-04-22T14:03:18.097Z</time></trkpt><trkpt lat="43.3250893" lon="11.4020731"><ele>222.66666666666666</ele><time>2026-04-22T14:03:19.093Z</time></trkpt><trkpt lat="43.3251072" lon="11.401862"><ele>226.0</ele><time>2026-04-22T14:03:20.095Z</time></trkpt><trkpt lat="43.3251196" lon="11.4016538"><ele>226.0</ele><time>2026-04-22T14:03:21.09Z</time></trkpt><trkpt lat="43.3251173" lon="11.401446"><ele>226.0</ele><time>2026-04-22T14:03:22.105Z</time></trkpt><trkpt lat="43.3251096" lon="11.4012372"><ele>226.0</ele><time>2026-04-22T14:03:23.1Z</time></trkpt><trkpt lat="43.3251024" lon="11.4010362"><ele>227.25</ele><time>2026-04-22T14:03:24.092Z</time></trkpt><trkpt lat="43.3250985" lon="11.4008384"><ele>228.5</ele><time>2026-04-22T14:03:25.103Z</time></trkpt><trkpt lat="43.3251027" lon="11.4006509"><ele>229.75</ele><time>2026-04-22T14:03:26.101Z</time></trkpt><trkpt lat="43.3251194" lon="11.4004673"><ele>231.0</ele><time>2026-04-22T14:03:27.097Z</time></trkpt><trkpt lat="43.3251436" lon="11.400286"><ele>232.25</ele><time>2026-04-22T14:03:28.095Z</time></trkpt><trkpt lat="43.325164" lon="11.4000961"><ele>233.5</ele><time>2026-04-22T14:03:29.103Z</time></trkpt><trkpt lat="43.3251706" lon="11.3998976"><ele>234.75</ele><time>2026-04-22T14:03:30.104Z</time></trkpt><trkpt lat="43.325167" lon="11.3996933"><ele>236.0</ele><time>2026-04-22T14:03:31.099Z</time></trkpt><trkpt lat="43.3251549" lon="11.3994851"><ele>237.66666666666669</ele><time>2026-04-22T14:03:32.096Z</time></trkpt><trkpt lat="43.3251402" lon="11.3992759"><ele>239.33333333333331</ele><time>2026-04-22T14:03:33.095Z</time></trkpt><trkpt lat="43.3251258" lon="11.3990585"><ele>241.0</ele><time>2026-04-22T14:03:34.099Z</time></trkpt><trkpt lat="43.325114" lon="11.3988627"><ele>242.20000000000002</ele><time>2026-04-22T14:03:35.096Z</time></trkpt><trkpt lat="43.3251041" lon="11.3986776"><ele>243.40000000000003</ele><time>2026-04-22T14:03:36.101Z</time></trkpt><trkpt lat="43.325096" lon="11.3985122"><ele>244.6</ele><time>2026-04-22T14:03:37.09Z</time></trkpt><trkpt lat="43.3250924" lon="11.3983726"><ele>245.8</ele><time>2026-04-22T14:03:38.092Z</time></trkpt><trkpt lat="43.3250905" lon="11.3982639"><ele>247.0</ele><time>2026-04-22T14:03:39.095Z</time></trkpt><trkpt lat="43.3250799" lon="11.3981393"><ele>246.99999999999997</ele><time>2026-04-22T14:03:41.1Z</time></trkpt><trkpt lat="43.3250208" lon="11.3982116"><ele>247.0</ele><time>2026-04-22T14:04:05.09Z</time></trkpt><trkpt lat="43.3249799" lon="11.3981445"><ele>247.0</ele><time>2026-04-22T14:04:10.09Z</time></trkpt><trkpt lat="43.324968" lon="11.3980111"><ele>247.0</ele><time>2026-04-22T14:04:13.104Z</time></trkpt><trkpt lat="43.3249662" lon="11.3981147"><ele>246.99999999999997</ele><time>2026-04-22T14:04:32.09Z</time></trkpt><trkpt lat="43.324984" lon="11.3982174"><ele>247.0</ele><time>2026-04-22T14:04:35.093Z</time></trkpt><trkpt lat="43.3250504" lon="11.3982186"><ele>247.0</ele><time>2026-04-22T14:04:40.095Z</time></trkpt><trkpt lat="43.3250835" lon="11.3980583"><ele>247.0</ele><time>2026-04-22T14:04:43.091Z</time></trkpt><trkpt lat="43.3250893" lon="11.3979276"><ele>247.0</ele><time>2026-04-22T14:04:44.102Z</time></trkpt><trkpt lat="43.325112" lon="11.3977599"><ele>247.0</ele><time>2026-04-22T14:04:45.099Z</time></trkpt><trkpt lat="43.3251579" lon="11.3975772"><ele>247.0</ele><time>2026-04-22T14:04:46.096Z</time></trkpt><trkpt lat="43.3252237" lon="11.397387"><ele>247.0</ele><time>2026-04-22T14:04:47.093Z</time></trkpt><trkpt lat="43.3253016" lon="11.39719"><ele>247.0</ele><time>2026-04-22T14:04:48.096Z</time></trkpt><trkpt lat="43.3253752" lon="11.3969833"><ele>247.0</ele><time>2026-04-22T14:04:49.102Z</time></trkpt><trkpt lat="43.3254449" lon="11.3967677"><ele>247.0</ele><time>2026-04-22T14:04:50.096Z</time></trkpt><trkpt lat="43.3255094" lon="11.3965507"><ele>247.0</ele><time>2026-04-22T14:04:51.103Z</time></trkpt><trkpt lat="43.3255705" lon="11.3963374"><ele>248.0</ele><time>2026-04-22T14:04:52.103Z</time></trkpt><trkpt lat="43.32563" lon="11.3961321"><ele>249.0</ele><time>2026-04-22T14:04:53.099Z</time></trkpt><trkpt lat="43.3256814" lon="11.3959357"><ele>250.0</ele><time>2026-04-22T14:04:54.098Z</time></trkpt><trkpt lat="43.3257108" lon="11.3957314"><ele>250.0</ele><time>2026-04-22T14:04:55.097Z</time></trkpt><trkpt lat="43.3257166" lon="11.3955107"><ele>250.0</ele><time>2026-04-22T14:04:56.098Z</time></trkpt><trkpt lat="43.3257083" lon="11.3952757"><ele>250.0</ele><time>2026-04-22T14:04:57.093Z</time></trkpt><trkpt lat="43.3256952" lon="11.3950409"><ele>250.66666666666666</ele><time>2026-04-22T14:04:58.097Z</time></trkpt><trkpt lat="43.3256851" lon="11.3948073"><ele>251.33333333333331</ele><time>2026-04-22T14:04:59.095Z</time></trkpt><trkpt lat="43.3256666" lon="11.3945793"><ele>252.0</ele><time>2026-04-22T14:05:00.098Z</time></trkpt><trkpt lat="43.3256271" lon="11.3943554"><ele>253.0</ele><time>2026-04-22T14:05:01.1Z</time></trkpt><trkpt lat="43.3255683" lon="11.3941326"><ele>254.0</ele><time>2026-04-22T14:05:02.097Z</time></trkpt><trkpt lat="43.3255002" lon="11.3939065"><ele>255.0</ele><time>2026-04-22T14:05:03.094Z</time></trkpt><trkpt lat="43.3254288" lon="11.3936789"><ele>256.6666666666667</ele><time>2026-04-22T14:05:04.097Z</time></trkpt><trkpt lat="43.325362" lon="11.3934529"><ele>258.33333333333337</ele><time>2026-04-22T14:05:05.093Z</time></trkpt><trkpt lat="43.325293" lon="11.3932261"><ele>260.0</ele><time>2026-04-22T14:05:06.096Z</time></trkpt><trkpt lat="43.3252231" lon="11.3930084"><ele>261.0</ele><time>2026-04-22T14:05:07.09Z</time></trkpt><trkpt lat="43.3251556" lon="11.3928118"><ele>262.0</ele><time>2026-04-22T14:05:08.102Z</time></trkpt><trkpt lat="43.3250927" lon="11.39265"><ele>263.0</ele><time>2026-04-22T14:05:09.092Z</time></trkpt><trkpt lat="43.3250229" lon="11.3925444"><ele>264.0</ele><time>2026-04-22T14:05:10.099Z</time></trkpt><trkpt lat="43.3249348" lon="11.3925016"><ele>264.0</ele><time>2026-04-22T14:05:11.103Z</time></trkpt><trkpt lat="43.3248318" lon="11.3925109"><ele>264.0</ele><time>2026-04-22T14:05:12.098Z</time></trkpt><trkpt lat="43.324702" lon="11.392553"><ele>264.0</ele><time>2026-04-22T14:05:13.09Z</time></trkpt><trkpt lat="43.3245571" lon="11.3925833"><ele>264.0</ele><time>2026-04-22T14:05:14.097Z</time></trkpt><trkpt lat="43.324407" lon="11.3925742"><ele>264.3333333333333</ele><time>2026-04-22T14:05:15.094Z</time></trkpt><trkpt lat="43.324257" lon="11.3925158"><ele>264.66666666666663</ele><time>2026-04-22T14:05:16.095Z</time></trkpt><trkpt lat="43.3241029" lon="11.3924367"><ele>265.0</ele><time>2026-04-22T14:05:17.103Z</time></trkpt><trkpt lat="43.3239423" lon="11.3923704"><ele>264.66666666666663</ele><time>2026-04-22T14:05:18.089Z</time></trkpt><trkpt lat="43.3237716" lon="11.392313"><ele>264.3333333333333</ele><time>2026-04-22T14:05:19.102Z</time></trkpt><trkpt lat="43.3235935" lon="11.3922597"><ele>264.0</ele><time>2026-04-22T14:05:20.093Z</time></trkpt><trkpt lat="43.323416" lon="11.3922116"><ele>261.6666666666667</ele><time>2026-04-22T14:05:21.103Z</time></trkpt><trkpt lat="43.3232358" lon="11.3921709"><ele>259.33333333333337</ele><time>2026-04-22T14:05:22.102Z</time></trkpt><trkpt lat="43.3230543" lon="11.3921261"><ele>257.0</ele><time>2026-04-22T14:05:23.095Z</time></trkpt><trkpt lat="43.3228781" lon="11.3920769"><ele>257.0</ele><time>2026-04-22T14:05:24.102Z</time></trkpt><trkpt lat="43.3227018" lon="11.3920252"><ele>257.0</ele><time>2026-04-22T14:05:25.091Z</time></trkpt><trkpt lat="43.3225246" lon="11.3919711"><ele>257.0</ele><time>2026-04-22T14:05:26.09Z</time></trkpt><trkpt lat="43.3223537" lon="11.3919227"><ele>255.66666666666669</ele><time>2026-04-22T14:05:27.101Z</time></trkpt><trkpt lat="43.3221802" lon="11.3918741"><ele>254.33333333333331</ele><time>2026-04-22T14:05:28.101Z</time></trkpt><trkpt lat="43.3220024" lon="11.3918241"><ele>253.0</ele><time>2026-04-22T14:05:29.101Z</time></trkpt><trkpt lat="43.3218218" lon="11.3917742"><ele>253.0</ele><time>2026-04-22T14:05:30.095Z</time></trkpt><trkpt lat="43.3216393" lon="11.3917144"><ele>253.0</ele><time>2026-04-22T14:05:31.09Z</time></trkpt><trkpt lat="43.3214592" lon="11.391635"><ele>253.0</ele><time>2026-04-22T14:05:32.095Z</time></trkpt><trkpt lat="43.3212814" lon="11.3915287"><ele>251.66666666666666</ele><time>2026-04-22T14:05:33.095Z</time></trkpt><trkpt lat="43.3211059" lon="11.3914029"><ele>250.33333333333331</ele><time>2026-04-22T14:05:34.097Z</time></trkpt><trkpt lat="43.3209321" lon="11.3912731"><ele>249.0</ele><time>2026-04-22T14:05:35.093Z</time></trkpt><trkpt lat="43.3207662" lon="11.3911493"><ele>249.0</ele><time>2026-04-22T14:05:36.094Z</time></trkpt><trkpt lat="43.3206067" lon="11.391049"><ele>249.0</ele><time>2026-04-22T14:05:37.096Z</time></trkpt><trkpt lat="43.3204584" lon="11.3909815"><ele>249.0</ele><time>2026-04-22T14:05:38.095Z</time></trkpt><trkpt lat="43.3203304" lon="11.3909509"><ele>249.0</ele><time>2026-04-22T14:05:39.096Z</time></trkpt><trkpt lat="43.3202201" lon="11.3909322"><ele>248.99999999999997</ele><time>2026-04-22T14:05:40.095Z</time></trkpt><trkpt lat="43.3201258" lon="11.3908826"><ele>248.99999999999997</ele><time>2026-04-22T14:05:41.096Z</time></trkpt><trkpt lat="43.3200635" lon="11.3907733"><ele>249.0</ele><time>2026-04-22T14:05:42.095Z</time></trkpt><trkpt lat="43.3200411" lon="11.390599"><ele>249.0</ele><time>2026-04-22T14:05:43.098Z</time></trkpt><trkpt lat="43.3200248" lon="11.3903797"><ele>248.33333333333331</ele><time>2026-04-22T14:05:44.107Z</time></trkpt><trkpt lat="43.3199928" lon="11.3901216"><ele>247.66666666666666</ele><time>2026-04-22T14:05:45.096Z</time></trkpt><trkpt lat="43.3199403" lon="11.3898379"><ele>247.0</ele><time>2026-04-22T14:05:46.101Z</time></trkpt><trkpt lat="43.3198668" lon="11.3895492"><ele>245.0</ele><time>2026-04-22T14:05:47.088Z</time></trkpt><trkpt lat="43.3197813" lon="11.3892525"><ele>243.0</ele><time>2026-04-22T14:05:48.091Z</time></trkpt><trkpt lat="43.3197023" lon="11.3889574"><ele>238.33333333333331</ele><time>2026-04-22T14:05:49.091Z</time></trkpt><trkpt lat="43.3196332" lon="11.3886652"><ele>233.66666666666666</ele><time>2026-04-22T14:05:50.098Z</time></trkpt><trkpt lat="43.3195737" lon="11.3883797"><ele>229.0</ele><time>2026-04-22T14:05:51.1Z</time></trkpt><trkpt lat="43.3195245" lon="11.3881195"><ele>229.0</ele><time>2026-04-22T14:05:52.101Z</time></trkpt><trkpt lat="43.3194868" lon="11.3879055"><ele>229.0</ele><time>2026-04-22T14:05:53.096Z</time></trkpt><trkpt lat="43.3194552" lon="11.3877228"><ele>229.0</ele><time>2026-04-22T14:05:54.1Z</time></trkpt><trkpt lat="43.3194059" lon="11.3875738"><ele>229.0</ele><time>2026-04-22T14:05:55.092Z</time></trkpt><trkpt lat="43.319316" lon="11.3874695"><ele>229.0</ele><time>2026-04-22T14:05:56.101Z</time></trkpt><trkpt lat="43.3191984" lon="11.3873964"><ele>229.0</ele><time>2026-04-22T14:05:57.097Z</time></trkpt><trkpt lat="43.3190633" lon="11.387334"><ele>229.0</ele><time>2026-04-22T14:05:58.098Z</time></trkpt><trkpt lat="43.3189484" lon="11.3872557"><ele>229.0</ele><time>2026-04-22T14:05:59.1Z</time></trkpt><trkpt lat="43.3189043" lon="11.387131"><ele>228.33333333333331</ele><time>2026-04-22T14:06:00.1Z</time></trkpt><trkpt lat="43.3189201" lon="11.3869681"><ele>227.66666666666669</ele><time>2026-04-22T14:06:01.09Z</time></trkpt><trkpt lat="43.3190075" lon="11.3867928"><ele>227.0</ele><time>2026-04-22T14:06:02.095Z</time></trkpt><trkpt lat="43.3191351" lon="11.3866207"><ele>227.0</ele><time>2026-04-22T14:06:03.102Z</time></trkpt><trkpt lat="43.3192733" lon="11.3864739"><ele>227.0</ele><time>2026-04-22T14:06:04.093Z</time></trkpt><trkpt lat="43.3194398" lon="11.386362"><ele>227.0</ele><time>2026-04-22T14:06:05.103Z</time></trkpt><trkpt lat="43.3195998" lon="11.3862742"><ele>225.33333333333334</ele><time>2026-04-22T14:06:06.095Z</time></trkpt><trkpt lat="43.3197638" lon="11.3861907"><ele>223.66666666666669</ele><time>2026-04-22T14:06:07.091Z</time></trkpt><trkpt lat="43.319913" lon="11.3861076"><ele>222.0</ele><time>2026-04-22T14:06:08.098Z</time></trkpt><trkpt lat="43.3200337" lon="11.3860049"><ele>222.0</ele><time>2026-04-22T14:06:09.1Z</time></trkpt><trkpt lat="43.3201139" lon="11.3858742"><ele>222.0</ele><time>2026-04-22T14:06:10.098Z</time></trkpt><trkpt lat="43.3201522" lon="11.3857027"><ele>222.0</ele><time>2026-04-22T14:06:11.095Z</time></trkpt><trkpt lat="43.3201537" lon="11.3854989"><ele>222.0</ele><time>2026-04-22T14:06:12.096Z</time></trkpt><trkpt lat="43.3201377" lon="11.3852819"><ele>220.75</ele><time>2026-04-22T14:06:13.097Z</time></trkpt><trkpt lat="43.3201441" lon="11.3850794"><ele>219.5</ele><time>2026-04-22T14:06:14.106Z</time></trkpt><trkpt lat="43.3201864" lon="11.3848887"><ele>218.25</ele><time>2026-04-22T14:06:15.1Z</time></trkpt><trkpt lat="43.3202672" lon="11.3847066"><ele>217.0</ele><time>2026-04-22T14:06:16.094Z</time></trkpt><trkpt lat="43.3203822" lon="11.3845173"><ele>215.66666666666666</ele><time>2026-04-22T14:06:17.102Z</time></trkpt><trkpt lat="43.3205186" lon="11.3843567"><ele>214.33333333333331</ele><time>2026-04-22T14:06:18.099Z</time></trkpt><trkpt lat="43.3206748" lon="11.3842156"><ele>213.0</ele><time>2026-04-22T14:06:19.089Z</time></trkpt><trkpt lat="43.3208028" lon="11.3840875"><ele>212.25</ele><time>2026-04-22T14:06:20.096Z</time></trkpt><trkpt lat="43.3208753" lon="11.3839636"><ele>211.5</ele><time>2026-04-22T14:06:21.094Z</time></trkpt><trkpt lat="43.3208636" lon="11.3838109"><ele>210.75</ele><time>2026-04-22T14:06:22.097Z</time></trkpt><trkpt lat="43.3208057" lon="11.3836285"><ele>210.0</ele><time>2026-04-22T14:06:23.099Z</time></trkpt><trkpt lat="43.3207281" lon="11.3834177"><ele>207.33333333333331</ele><time>2026-04-22T14:06:24.092Z</time></trkpt><trkpt lat="43.3206509" lon="11.3831678"><ele>204.66666666666666</ele><time>2026-04-22T14:06:25.095Z</time></trkpt><trkpt lat="43.3205886" lon="11.3828811"><ele>202.0</ele><time>2026-04-22T14:06:26.093Z</time></trkpt><trkpt lat="43.3205463" lon="11.3825723"><ele>200.5</ele><time>2026-04-22T14:06:27.101Z</time></trkpt><trkpt lat="43.320498" lon="11.382245"><ele>199.0</ele><time>2026-04-22T14:06:28.092Z</time></trkpt><trkpt lat="43.3204415" lon="11.3819108"><ele>198.5</ele><time>2026-04-22T14:06:29.101Z</time></trkpt><trkpt lat="43.3203853" lon="11.3815763"><ele>198.0</ele><time>2026-04-22T14:06:30.095Z</time></trkpt><trkpt lat="43.3203364" lon="11.3812583"><ele>197.66666666666669</ele><time>2026-04-22T14:06:31.093Z</time></trkpt><trkpt lat="43.3203087" lon="11.3809552"><ele>197.33333333333334</ele><time>2026-04-22T14:06:32.101Z</time></trkpt><trkpt lat="43.3203185" lon="11.380648"><ele>197.0</ele><time>2026-04-22T14:06:33.1Z</time></trkpt><trkpt lat="43.3203517" lon="11.3803453"><ele>197.0</ele><time>2026-04-22T14:06:34.103Z</time></trkpt><trkpt lat="43.3203978" lon="11.3800474"><ele>197.0</ele><time>2026-04-22T14:06:35.101Z</time></trkpt><trkpt lat="43.3204448" lon="11.379752"><ele>197.0</ele><time>2026-04-22T14:06:36.099Z</time></trkpt><trkpt lat="43.3204884" lon="11.3794643"><ele>198.0</ele><time>2026-04-22T14:06:37.107Z</time></trkpt><trkpt lat="43.3205282" lon="11.3792008"><ele>199.0</ele><time>2026-04-22T14:06:38.1Z</time></trkpt><trkpt lat="43.3205628" lon="11.3789426"><ele>200.0</ele><time>2026-04-22T14:06:39.095Z</time></trkpt><trkpt lat="43.3205872" lon="11.3786815"><ele>202.0</ele><time>2026-04-22T14:06:40.101Z</time></trkpt><trkpt lat="43.320595" lon="11.3784085"><ele>204.0</ele><time>2026-04-22T14:06:41.097Z</time></trkpt><trkpt lat="43.3205778" lon="11.3781239"><ele>206.0</ele><time>2026-04-22T14:06:42.102Z</time></trkpt><trkpt lat="43.3205393" lon="11.3778263"><ele>210.0</ele><time>2026-04-22T14:06:43.102Z</time></trkpt><trkpt lat="43.3204932" lon="11.3775236"><ele>214.0</ele><time>2026-04-22T14:06:44.096Z</time></trkpt><trkpt lat="43.3204505" lon="11.3772179"><ele>219.0</ele><time>2026-04-22T14:06:45.094Z</time></trkpt><trkpt lat="43.3204201" lon="11.3769074"><ele>224.0</ele><time>2026-04-22T14:06:46.101Z</time></trkpt><trkpt lat="43.3204145" lon="11.3765859"><ele>223.0</ele><time>2026-04-22T14:06:47.1Z</time></trkpt><trkpt lat="43.3204363" lon="11.3762885"><ele>222.0</ele><time>2026-04-22T14:06:48.096Z</time></trkpt><trkpt lat="43.3204699" lon="11.3760151"><ele>221.0</ele><time>2026-04-22T14:06:49.096Z</time></trkpt><trkpt lat="43.3204925" lon="11.3757674"><ele>221.0</ele><time>2026-04-22T14:06:50.098Z</time></trkpt><trkpt lat="43.3204954" lon="11.3755471"><ele>221.0</ele><time>2026-04-22T14:06:51.098Z</time></trkpt><trkpt lat="43.3204696" lon="11.3753516"><ele>221.0</ele><time>2026-04-22T14:06:52.104Z</time></trkpt><trkpt lat="43.320389" lon="11.3752084"><ele>221.0</ele><time>2026-04-22T14:06:53.093Z</time></trkpt><trkpt lat="43.3203" lon="11.3750878"><ele>221.0</ele><time>2026-04-22T14:06:54.1Z</time></trkpt><trkpt lat="43.3202189" lon="11.3749679"><ele>221.0</ele><time>2026-04-22T14:06:55.092Z</time></trkpt><trkpt lat="43.3201667" lon="11.3748371"><ele>221.0</ele><time>2026-04-22T14:06:56.097Z</time></trkpt><trkpt lat="43.3201632" lon="11.3746858"><ele>221.0</ele><time>2026-04-22T14:06:57.094Z</time></trkpt><trkpt lat="43.3202512" lon="11.3744655"><ele>221.0</ele><time>2026-04-22T14:06:58.104Z</time></trkpt><trkpt lat="43.32034" lon="11.3742378"><ele>221.0</ele><time>2026-04-22T14:06:59.109Z</time></trkpt><trkpt lat="43.320424" lon="11.3740034"><ele>221.0</ele><time>2026-04-22T14:07:00.094Z</time></trkpt><trkpt lat="43.320514" lon="11.3737573"><ele>223.66666666666669</ele><time>2026-04-22T14:07:01.103Z</time></trkpt><trkpt lat="43.3206131" lon="11.3735144"><ele>226.33333333333331</ele><time>2026-04-22T14:07:02.101Z</time></trkpt><trkpt lat="43.3207212" lon="11.3732847"><ele>229.0</ele><time>2026-04-22T14:07:03.098Z</time></trkpt><trkpt lat="43.3208323" lon="11.3730709"><ele>232.0</ele><time>2026-04-22T14:07:04.094Z</time></trkpt><trkpt lat="43.3209316" lon="11.3728867"><ele>235.0</ele><time>2026-04-22T14:07:05.094Z</time></trkpt><trkpt lat="43.3210129" lon="11.3727067"><ele>238.0</ele><time>2026-04-22T14:07:06.097Z</time></trkpt><trkpt lat="43.3210665" lon="11.3725073"><ele>238.0</ele><time>2026-04-22T14:07:07.105Z</time></trkpt><trkpt lat="43.3211019" lon="11.3722904"><ele>238.0</ele><time>2026-04-22T14:07:08.1Z</time></trkpt><trkpt lat="43.3211191" lon="11.3720577"><ele>238.0</ele><time>2026-04-22T14:07:09.106Z</time></trkpt><trkpt lat="43.3211395" lon="11.3718031"><ele>241.0</ele><time>2026-04-22T14:07:10.098Z</time></trkpt><trkpt lat="43.3211635" lon="11.3715367"><ele>244.0</ele><time>2026-04-22T14:07:11.109Z</time></trkpt><trkpt lat="43.321186" lon="11.3712595"><ele>247.0</ele><time>2026-04-22T14:07:12.092Z</time></trkpt><trkpt lat="43.3212216" lon="11.3709829"><ele>248.66666666666666</ele><time>2026-04-22T14:07:13.103Z</time></trkpt><trkpt lat="43.3212803" lon="11.37073"><ele>250.33333333333331</ele><time>2026-04-22T14:07:14.105Z</time></trkpt><trkpt lat="43.3213704" lon="11.3704923"><ele>252.0</ele><time>2026-04-22T14:07:15.1Z</time></trkpt><trkpt lat="43.3214826" lon="11.3702619"><ele>252.0</ele><time>2026-04-22T14:07:16.107Z</time></trkpt><trkpt lat="43.3215996" lon="11.3700418"><ele>252.0</ele><time>2026-04-22T14:07:17.096Z</time></trkpt><trkpt lat="43.321723" lon="11.3698364"><ele>252.0</ele><time>2026-04-22T14:07:18.095Z</time></trkpt><trkpt lat="43.3218315" lon="11.3696535"><ele>253.8</ele><time>2026-04-22T14:07:19.099Z</time></trkpt><trkpt lat="43.3219276" lon="11.3694903"><ele>255.6</ele><time>2026-04-22T14:07:20.105Z</time></trkpt><trkpt lat="43.3219925" lon="11.3693493"><ele>257.40000000000003</ele><time>2026-04-22T14:07:21.092Z</time></trkpt><trkpt lat="43.3220289" lon="11.3692348"><ele>259.2</ele><time>2026-04-22T14:07:22.102Z</time></trkpt><trkpt lat="43.3220217" lon="11.3691302"><ele>261.0</ele><time>2026-04-22T14:07:23.095Z</time></trkpt><trkpt lat="43.3219721" lon="11.369076"><ele>261.0</ele><time>2026-04-22T14:07:24.094Z</time></trkpt><trkpt lat="43.3218861" lon="11.3690899"><ele>261.0</ele><time>2026-04-22T14:07:25.099Z</time></trkpt><trkpt lat="43.3217878" lon="11.3691642"><ele>261.0</ele><time>2026-04-22T14:07:26.095Z</time></trkpt><trkpt lat="43.3216785" lon="11.3692694"><ele>261.0</ele><time>2026-04-22T14:07:27.106Z</time></trkpt><trkpt lat="43.3215728" lon="11.3693683"><ele>261.0</ele><time>2026-04-22T14:07:28.098Z</time></trkpt><trkpt lat="43.3214676" lon="11.3694077"><ele>261.0</ele><time>2026-04-22T14:07:29.104Z</time></trkpt><trkpt lat="43.3213529" lon="11.3693793"><ele>261.0</ele><time>2026-04-22T14:07:30.097Z</time></trkpt><trkpt lat="43.3212338" lon="11.3692732"><ele>261.0</ele><time>2026-04-22T14:07:31.097Z</time></trkpt><trkpt lat="43.321107" lon="11.3691252"><ele>261.5</ele><time>2026-04-22T14:07:32.094Z</time></trkpt><trkpt lat="43.3209877" lon="11.3689748"><ele>262.0</ele><time>2026-04-22T14:07:33.094Z</time></trkpt><trkpt lat="43.3208997" lon="11.3688399"><ele>262.5</ele><time>2026-04-22T14:07:34.099Z</time></trkpt><trkpt lat="43.3208672" lon="11.36873"><ele>263.0</ele><time>2026-04-22T14:07:35.088Z</time></trkpt><trkpt lat="43.3208877" lon="11.3686293"><ele>263.0</ele><time>2026-04-22T14:07:36.101Z</time></trkpt><trkpt lat="43.3209383" lon="11.3684994"><ele>263.0</ele><time>2026-04-22T14:07:37.088Z</time></trkpt><trkpt lat="43.3209985" lon="11.3683297"><ele>263.0</ele><time>2026-04-22T14:07:38.094Z</time></trkpt><trkpt lat="43.3210522" lon="11.3681319"><ele>263.0</ele><time>2026-04-22T14:07:39.092Z</time></trkpt><trkpt lat="43.3210853" lon="11.3679103"><ele>264.33333333333337</ele><time>2026-04-22T14:07:40.095Z</time></trkpt><trkpt lat="43.3210995" lon="11.3676496"><ele>265.6666666666667</ele><time>2026-04-22T14:07:41.097Z</time></trkpt><trkpt lat="43.3211123" lon="11.3673877"><ele>267.0</ele><time>2026-04-22T14:07:42.098Z</time></trkpt><trkpt lat="43.3211168" lon="11.3671301"><ele>268.3333333333333</ele><time>2026-04-22T14:07:43.089Z</time></trkpt><trkpt lat="43.3211166" lon="11.366883"><ele>269.66666666666663</ele><time>2026-04-22T14:07:44.094Z</time></trkpt><trkpt lat="43.3211044" lon="11.3666637"><ele>271.0</ele><time>2026-04-22T14:07:45.091Z</time></trkpt><trkpt lat="43.3210824" lon="11.366477"><ele>271.0</ele><time>2026-04-22T14:07:46.1Z</time></trkpt><trkpt lat="43.3210525" lon="11.3663156"><ele>271.0</ele><time>2026-04-22T14:07:47.091Z</time></trkpt><trkpt lat="43.3210168" lon="11.3661772"><ele>271.0</ele><time>2026-04-22T14:07:48.09Z</time></trkpt><trkpt lat="43.3209908" lon="11.3660453"><ele>271.0</ele><time>2026-04-22T14:07:49.086Z</time></trkpt><trkpt lat="43.3209663" lon="11.3659299"><ele>271.0</ele><time>2026-04-22T14:07:50.092Z</time></trkpt><trkpt lat="43.3209405" lon="11.365799"><ele>271.0</ele><time>2026-04-22T14:07:51.099Z</time></trkpt><trkpt lat="43.3209004" lon="11.3656527"><ele>271.0</ele><time>2026-04-22T14:07:52.098Z</time></trkpt><trkpt lat="43.3208428" lon="11.3654856"><ele>271.0</ele><time>2026-04-22T14:07:53.09Z</time></trkpt><trkpt lat="43.3207758" lon="11.3653011"><ele>271.0</ele><time>2026-04-22T14:07:54.092Z</time></trkpt><trkpt lat="43.3207" lon="11.3651092"><ele>271.3333333333333</ele><time>2026-04-22T14:07:55.095Z</time></trkpt><trkpt lat="43.3206199" lon="11.3649203"><ele>271.6666666666667</ele><time>2026-04-22T14:07:56.095Z</time></trkpt><trkpt lat="43.3205338" lon="11.3647407"><ele>272.0</ele><time>2026-04-22T14:07:57.096Z</time></trkpt><trkpt lat="43.3204464" lon="11.3645813"><ele>272.5</ele><time>2026-04-22T14:07:58.103Z</time></trkpt><trkpt lat="43.3203609" lon="11.3644329"><ele>273.0</ele><time>2026-04-22T14:07:59.101Z</time></trkpt><trkpt lat="43.3202748" lon="11.3642894"><ele>273.5</ele><time>2026-04-22T14:08:00.095Z</time></trkpt><trkpt lat="43.3201868" lon="11.3641423"><ele>274.0</ele><time>2026-04-22T14:08:01.095Z</time></trkpt><trkpt lat="43.3200919" lon="11.3639923"><ele>272.0</ele><time>2026-04-22T14:08:02.091Z</time></trkpt><trkpt lat="43.3199959" lon="11.3638423"><ele>270.0</ele><time>2026-04-22T14:08:03.093Z</time></trkpt><trkpt lat="43.3198935" lon="11.3636883"><ele>268.0</ele><time>2026-04-22T14:08:04.093Z</time></trkpt><trkpt lat="43.3197811" lon="11.3635362"><ele>268.5</ele><time>2026-04-22T14:08:05.097Z</time></trkpt><trkpt lat="43.319669" lon="11.3633886"><ele>269.0</ele><time>2026-04-22T14:08:06.098Z</time></trkpt><trkpt lat="43.3195673" lon="11.3632588"><ele>269.5</ele><time>2026-04-22T14:08:07.09Z</time></trkpt><trkpt lat="43.3194804" lon="11.3631306"><ele>270.0</ele><time>2026-04-22T14:08:08.089Z</time></trkpt><trkpt lat="43.3194075" lon="11.3629891"><ele>270.0</ele><time>2026-04-22T14:08:09.102Z</time></trkpt><trkpt lat="43.3193522" lon="11.3628275"><ele>270.0</ele><time>2026-04-22T14:08:10.1Z</time></trkpt><trkpt lat="43.3193014" lon="11.3626548"><ele>270.0</ele><time>2026-04-22T14:08:11.096Z</time></trkpt><trkpt lat="43.3192334" lon="11.3624927"><ele>270.0</ele><time>2026-04-22T14:08:12.09Z</time></trkpt><trkpt lat="43.3191542" lon="11.3623414"><ele>268.6666666666667</ele><time>2026-04-22T14:08:13.099Z</time></trkpt><trkpt lat="43.3190581" lon="11.362189"><ele>267.33333333333337</ele><time>2026-04-22T14:08:14.091Z</time></trkpt><trkpt lat="43.3189494" lon="11.3620209"><ele>266.0</ele><time>2026-04-22T14:08:15.1Z</time></trkpt><trkpt lat="43.3188391" lon="11.3618493"><ele>266.0</ele><time>2026-04-22T14:08:16.088Z</time></trkpt><trkpt lat="43.3187377" lon="11.3616716"><ele>266.0</ele><time>2026-04-22T14:08:17.09Z</time></trkpt><trkpt lat="43.3186455" lon="11.3614768"><ele>266.0</ele><time>2026-04-22T14:08:18.094Z</time></trkpt><trkpt lat="43.3185746" lon="11.361266"><ele>263.33333333333337</ele><time>2026-04-22T14:08:19.098Z</time></trkpt><trkpt lat="43.318513" lon="11.3610525"><ele>260.6666666666667</ele><time>2026-04-22T14:08:20.095Z</time></trkpt><trkpt lat="43.318441" lon="11.3608575"><ele>258.0</ele><time>2026-04-22T14:08:21.096Z</time></trkpt><trkpt lat="43.3183575" lon="11.3606751"><ele>255.66666666666669</ele><time>2026-04-22T14:08:22.092Z</time></trkpt><trkpt lat="43.3182705" lon="11.3604888"><ele>253.33333333333334</ele><time>2026-04-22T14:08:23.094Z</time></trkpt><trkpt lat="43.3181886" lon="11.3603"><ele>251.0</ele><time>2026-04-22T14:08:24.094Z</time></trkpt><trkpt lat="43.318104" lon="11.3601264"><ele>251.0</ele><time>2026-04-22T14:08:25.096Z</time></trkpt><trkpt lat="43.3180133" lon="11.3599684"><ele>251.0</ele><time>2026-04-22T14:08:26.091Z</time></trkpt><trkpt lat="43.3179192" lon="11.3598025"><ele>251.0</ele><time>2026-04-22T14:08:27.099Z</time></trkpt><trkpt lat="43.3178343" lon="11.3596191"><ele>247.66666666666669</ele><time>2026-04-22T14:08:28.097Z</time></trkpt><trkpt lat="43.3177694" lon="11.3594129"><ele>244.33333333333331</ele><time>2026-04-22T14:08:29.099Z</time></trkpt><trkpt lat="43.3177194" lon="11.3591946"><ele>241.0</ele><time>2026-04-22T14:08:30.1Z</time></trkpt><trkpt lat="43.3176747" lon="11.3589762"><ele>239.66666666666666</ele><time>2026-04-22T14:08:31.095Z</time></trkpt><trkpt lat="43.3176316" lon="11.358768"><ele>238.33333333333331</ele><time>2026-04-22T14:08:32.102Z</time></trkpt><trkpt lat="43.3175715" lon="11.3585783"><ele>237.0</ele><time>2026-04-22T14:08:33.095Z</time></trkpt><trkpt lat="43.3174741" lon="11.3584326"><ele>237.0</ele><time>2026-04-22T14:08:34.104Z</time></trkpt><trkpt lat="43.3173494" lon="11.3583431"><ele>237.0</ele><time>2026-04-22T14:08:35.101Z</time></trkpt><trkpt lat="43.3172089" lon="11.3583051"><ele>237.0</ele><time>2026-04-22T14:08:36.098Z</time></trkpt><trkpt lat="43.3170527" lon="11.358304"><ele>237.0</ele><time>2026-04-22T14:08:37.103Z</time></trkpt><trkpt lat="43.3168958" lon="11.3583052"><ele>235.75</ele><time>2026-04-22T14:08:38.1Z</time></trkpt><trkpt lat="43.3167519" lon="11.3582787"><ele>234.5</ele><time>2026-04-22T14:08:39.104Z</time></trkpt><trkpt lat="43.3166318" lon="11.3582096"><ele>233.25</ele><time>2026-04-22T14:08:40.094Z</time></trkpt><trkpt lat="43.3165243" lon="11.3580886"><ele>232.0</ele><time>2026-04-22T14:08:41.091Z</time></trkpt><trkpt lat="43.3164249" lon="11.3579247"><ele>230.33333333333331</ele><time>2026-04-22T14:08:42.096Z</time></trkpt><trkpt lat="43.3163214" lon="11.3577442"><ele>228.66666666666669</ele><time>2026-04-22T14:08:43.098Z</time></trkpt><trkpt lat="43.3162159" lon="11.3575621"><ele>227.0</ele><time>2026-04-22T14:08:44.1Z</time></trkpt><trkpt lat="43.3161301" lon="11.357388"><ele>226.66666666666669</ele><time>2026-04-22T14:08:45.094Z</time></trkpt><trkpt lat="43.3160661" lon="11.3572009"><ele>226.33333333333331</ele><time>2026-04-22T14:08:46.095Z</time></trkpt><trkpt lat="43.3160296" lon="11.3569987"><ele>226.0</ele><time>2026-04-22T14:08:47.095Z</time></trkpt><trkpt lat="43.3160132" lon="11.3567947"><ele>226.0</ele><time>2026-04-22T14:08:48.098Z</time></trkpt><trkpt lat="43.3160096" lon="11.3566098"><ele>226.00000000000003</ele><time>2026-04-22T14:08:49.096Z</time></trkpt><trkpt lat="43.316007" lon="11.3564591"><ele>226.00000000000003</ele><time>2026-04-22T14:08:50.097Z</time></trkpt><trkpt lat="43.3160026" lon="11.3563563"><ele>226.0</ele><time>2026-04-22T14:08:51.097Z</time></trkpt><trkpt lat="43.3159967" lon="11.3562452"><ele>226.0</ele><time>2026-04-22T14:08:53.095Z</time></trkpt><trkpt lat="43.3160114" lon="11.3561415"><ele>225.83333333333331</ele><time>2026-04-22T14:08:57.095Z</time></trkpt><trkpt lat="43.3160446" lon="11.3560603"><ele>225.66666666666666</ele><time>2026-04-22T14:08:59.094Z</time></trkpt><trkpt lat="43.3161164" lon="11.355948"><ele>225.5</ele><time>2026-04-22T14:09:01.102Z</time></trkpt><trkpt lat="43.31618" lon="11.3558471"><ele>225.33333333333331</ele><time>2026-04-22T14:09:03.095Z</time></trkpt><trkpt lat="43.3162284" lon="11.3557867"><ele>225.16666666666666</ele><time>2026-04-22T14:09:05.102Z</time></trkpt><trkpt lat="43.3162752" lon="11.3557279"><ele>225.0</ele><time>2026-04-22T14:09:07.096Z</time></trkpt><trkpt lat="43.3163285" lon="11.355639"><ele>225.5</ele><time>2026-04-22T14:09:09.1Z</time></trkpt><trkpt lat="43.316382" lon="11.3554931"><ele>226.0</ele><time>2026-04-22T14:09:11.098Z</time></trkpt><trkpt lat="43.3163562" lon="11.3553347"><ele>226.5</ele><time>2026-04-22T14:09:13.098Z</time></trkpt><trkpt lat="43.3162522" lon="11.3552516"><ele>227.0</ele><time>2026-04-22T14:09:15.093Z</time></trkpt><trkpt lat="43.3161555" lon="11.3552959"><ele>227.0</ele><time>2026-04-22T14:09:17.091Z</time></trkpt><trkpt lat="43.3161032" lon="11.3553841"><ele>227.0</ele><time>2026-04-22T14:09:19.093Z</time></trkpt><trkpt lat="43.3160906" lon="11.3554926"><ele>227.0</ele><time>2026-04-22T14:09:21.091Z</time></trkpt><trkpt lat="43.3160939" lon="11.3556905"><ele>227.0</ele><time>2026-04-22T14:09:23.104Z</time></trkpt><trkpt lat="43.3160711" lon="11.3558189"><ele>227.0</ele><time>2026-04-22T14:09:24.098Z</time></trkpt><trkpt lat="43.3160169" lon="11.3559405"><ele>226.6</ele><time>2026-04-22T14:09:25.097Z</time></trkpt><trkpt lat="43.3159426" lon="11.3560432"><ele>226.2</ele><time>2026-04-22T14:09:26.095Z</time></trkpt><trkpt lat="43.3158578" lon="11.3561229"><ele>225.8</ele><time>2026-04-22T14:09:27.097Z</time></trkpt><trkpt lat="43.3157705" lon="11.356196"><ele>225.4</ele><time>2026-04-22T14:09:28.094Z</time></trkpt><trkpt lat="43.3156889" lon="11.356268"><ele>225.0</ele><time>2026-04-22T14:09:29.1Z</time></trkpt><trkpt lat="43.3156197" lon="11.3563368"><ele>225.0</ele><time>2026-04-22T14:09:30.102Z</time></trkpt><trkpt lat="43.315571" lon="11.3563995"><ele>225.0</ele><time>2026-04-22T14:09:31.102Z</time></trkpt><trkpt lat="43.3155504" lon="11.3565056"><ele>225.0</ele><time>2026-04-22T14:09:33.095Z</time></trkpt><trkpt lat="43.3156211" lon="11.3565413"><ele>225.0</ele><time>2026-04-22T14:09:35.096Z</time></trkpt><trkpt lat="43.3156839" lon="11.3564967"><ele>225.0</ele><time>2026-04-22T14:09:36.104Z</time></trkpt><trkpt lat="43.3157582" lon="11.3564079"><ele>225.0</ele><time>2026-04-22T14:09:37.095Z</time></trkpt><trkpt lat="43.3158411" lon="11.3563085"><ele>225.0</ele><time>2026-04-22T14:09:38.101Z</time></trkpt><trkpt lat="43.3159216" lon="11.3562058"><ele>225.0</ele><time>2026-04-22T14:09:39.099Z</time></trkpt><trkpt lat="43.3160009" lon="11.3561074"><ele>225.0</ele><time>2026-04-22T14:09:40.096Z</time></trkpt><trkpt lat="43.3160729" lon="11.3560046"><ele>225.0</ele><time>2026-04-22T14:09:41.095Z</time></trkpt><trkpt lat="43.3161293" lon="11.3559149"><ele>225.0</ele><time>2026-04-22T14:09:42.102Z</time></trkpt><trkpt lat="43.316179" lon="11.3558303"><ele>225.0</ele><time>2026-04-22T14:09:43.099Z</time></trkpt><trkpt lat="43.3162249" lon="11.3557543"><ele>225.0</ele><time>2026-04-22T14:09:44.095Z</time></trkpt><trkpt lat="43.3162663" lon="11.355685"><ele>225.0</ele><time>2026-04-22T14:09:45.094Z</time></trkpt><trkpt lat="43.3163359" lon="11.3555974"><ele>225.0</ele><time>2026-04-22T14:09:47.092Z</time></trkpt><trkpt lat="43.3163838" lon="11.3555113"><ele>225.0</ele><time>2026-04-22T14:09:49.096Z</time></trkpt><trkpt lat="43.3163876" lon="11.3553945"><ele>225.0</ele><time>2026-04-22T14:09:51.096Z</time></trkpt><trkpt lat="43.316318" lon="11.3552873"><ele>225.0</ele><time>2026-04-22T14:09:53.097Z</time></trkpt><trkpt lat="43.3161953" lon="11.3552736"><ele>225.0</ele><time>2026-04-22T14:09:55.095Z</time></trkpt><trkpt lat="43.3161391" lon="11.3553207"><ele>225.0</ele><time>2026-04-22T14:09:56.095Z</time></trkpt><trkpt lat="43.3161022" lon="11.3553916"><ele>225.0</ele><time>2026-04-22T14:09:57.097Z</time></trkpt><trkpt lat="43.3160729" lon="11.3554782"><ele>225.0</ele><time>2026-04-22T14:09:58.101Z</time></trkpt><trkpt lat="43.3160612" lon="11.3555715"><ele>225.0</ele><time>2026-04-22T14:09:59.095Z</time></trkpt><trkpt lat="43.316052" lon="11.355669"><ele>225.0</ele><time>2026-04-22T14:10:00.096Z</time></trkpt><trkpt lat="43.3160294" lon="11.3557658"><ele>225.0</ele><time>2026-04-22T14:10:01.098Z</time></trkpt><trkpt lat="43.315997" lon="11.355852"><ele>225.0</ele><time>2026-04-22T14:10:02.096Z</time></trkpt><trkpt lat="43.3159534" lon="11.3559259"><ele>225.0</ele><time>2026-04-22T14:10:03.094Z</time></trkpt><trkpt lat="43.3159007" lon="11.3559777"><ele>225.0</ele><time>2026-04-22T14:10:04.088Z</time></trkpt><trkpt lat="43.3157734" lon="11.3559815"><ele>225.0</ele><time>2026-04-22T14:10:06.096Z</time></trkpt><trkpt lat="43.3156846" lon="11.3559267"><ele>226.0</ele><time>2026-04-22T14:10:07.095Z</time></trkpt><trkpt lat="43.3155663" lon="11.3558672"><ele>227.0</ele><time>2026-04-22T14:10:08.097Z</time></trkpt><trkpt lat="43.315424" lon="11.3558207"><ele>228.0</ele><time>2026-04-22T14:10:09.101Z</time></trkpt><trkpt lat="43.3152861" lon="11.3558062"><ele>229.0</ele><time>2026-04-22T14:10:10.091Z</time></trkpt><trkpt lat="43.315151" lon="11.3558457"><ele>229.0</ele><time>2026-04-22T14:10:11.104Z</time></trkpt><trkpt lat="43.3150181" lon="11.3559447"><ele>229.0</ele><time>2026-04-22T14:10:12.098Z</time></trkpt><trkpt lat="43.3148904" lon="11.3560784"><ele>229.0</ele><time>2026-04-22T14:10:13.097Z</time></trkpt><trkpt lat="43.3147768" lon="11.3562001"><ele>229.79999999999998</ele><time>2026-04-22T14:10:14.105Z</time></trkpt><trkpt lat="43.3146724" lon="11.3563141"><ele>230.59999999999997</ele><time>2026-04-22T14:10:15.096Z</time></trkpt><trkpt lat="43.3145819" lon="11.3564071"><ele>231.4</ele><time>2026-04-22T14:10:16.096Z</time></trkpt><trkpt lat="43.3145152" lon="11.3564403"><ele>232.2</ele><time>2026-04-22T14:10:17.104Z</time></trkpt><trkpt lat="43.3144366" lon="11.3563311"><ele>233.0</ele><time>2026-04-22T14:10:19.096Z</time></trkpt><trkpt lat="43.3144227" lon="11.3562166"><ele>235.5</ele><time>2026-04-22T14:10:20.102Z</time></trkpt><trkpt lat="43.3144316" lon="11.3560719"><ele>238.0</ele><time>2026-04-22T14:10:21.098Z</time></trkpt><trkpt lat="43.3144847" lon="11.3559067"><ele>240.5</ele><time>2026-04-22T14:10:22.099Z</time></trkpt><trkpt lat="43.3145603" lon="11.3556955"><ele>243.0</ele><time>2026-04-22T14:10:23.097Z</time></trkpt><trkpt lat="43.3146135" lon="11.3554669"><ele>246.66666666666669</ele><time>2026-04-22T14:10:24.097Z</time></trkpt><trkpt lat="43.314648" lon="11.3552218"><ele>250.33333333333334</ele><time>2026-04-22T14:10:25.108Z</time></trkpt><trkpt lat="43.3146633" lon="11.3549986"><ele>254.0</ele><time>2026-04-22T14:10:26.096Z</time></trkpt><trkpt lat="43.3146538" lon="11.3548013"><ele>255.25</ele><time>2026-04-22T14:10:27.097Z</time></trkpt><trkpt lat="43.3146255" lon="11.3546305"><ele>256.5</ele><time>2026-04-22T14:10:28.093Z</time></trkpt><trkpt lat="43.3145823" lon="11.3544801"><ele>257.75</ele><time>2026-04-22T14:10:29.092Z</time></trkpt><trkpt lat="43.3145057" lon="11.3543404"><ele>259.0</ele><time>2026-04-22T14:10:30.101Z</time></trkpt><trkpt lat="43.3144111" lon="11.3542045"><ele>259.0</ele><time>2026-04-22T14:10:31.098Z</time></trkpt><trkpt lat="43.3143042" lon="11.354044"><ele>259.0</ele><time>2026-04-22T14:10:32.103Z</time></trkpt><trkpt lat="43.314211" lon="11.3538613"><ele>259.0</ele><time>2026-04-22T14:10:33.096Z</time></trkpt><trkpt lat="43.3141136" lon="11.3536828"><ele>257.66666666666663</ele><time>2026-04-22T14:10:34.093Z</time></trkpt><trkpt lat="43.3140076" lon="11.3535316"><ele>256.3333333333333</ele><time>2026-04-22T14:10:35.091Z</time></trkpt><trkpt lat="43.3138725" lon="11.3533784"><ele>255.0</ele><time>2026-04-22T14:10:36.096Z</time></trkpt><trkpt lat="43.3137295" lon="11.3532109"><ele>259.6666666666667</ele><time>2026-04-22T14:10:37.1Z</time></trkpt><trkpt lat="43.3135783" lon="11.3530294"><ele>264.33333333333337</ele><time>2026-04-22T14:10:38.101Z</time></trkpt><trkpt lat="43.3134285" lon="11.3528326"><ele>269.0</ele><time>2026-04-22T14:10:39.094Z</time></trkpt><trkpt lat="43.313296" lon="11.3526277"><ele>269.0</ele><time>2026-04-22T14:10:40.103Z</time></trkpt><trkpt lat="43.3131807" lon="11.3524202"><ele>269.0</ele><time>2026-04-22T14:10:41.096Z</time></trkpt><trkpt lat="43.3130895" lon="11.3522306"><ele>269.0</ele><time>2026-04-22T14:10:42.101Z</time></trkpt><trkpt lat="43.3130115" lon="11.3520594"><ele>271.33333333333337</ele><time>2026-04-22T14:10:43.104Z</time></trkpt><trkpt lat="43.3129409" lon="11.3518836"><ele>273.6666666666667</ele><time>2026-04-22T14:10:44.098Z</time></trkpt><trkpt lat="43.3128837" lon="11.3516937"><ele>276.0</ele><time>2026-04-22T14:10:45.096Z</time></trkpt><trkpt lat="43.3128391" lon="11.3514895"><ele>277.6666666666667</ele><time>2026-04-22T14:10:46.1Z</time></trkpt><trkpt lat="43.3128028" lon="11.3512721"><ele>279.33333333333337</ele><time>2026-04-22T14:10:47.1Z</time></trkpt><trkpt lat="43.3127667" lon="11.3510587"><ele>281.0</ele><time>2026-04-22T14:10:48.097Z</time></trkpt><trkpt lat="43.3127258" lon="11.3508512"><ele>281.0</ele><time>2026-04-22T14:10:49.103Z</time></trkpt><trkpt lat="43.3126779" lon="11.3506486"><ele>281.0</ele><time>2026-04-22T14:10:50.102Z</time></trkpt><trkpt lat="43.3126156" lon="11.350451"><ele>281.0</ele><time>2026-04-22T14:10:51.101Z</time></trkpt><trkpt lat="43.3125503" lon="11.3502612"><ele>280.6</ele><time>2026-04-22T14:10:52.092Z</time></trkpt><trkpt lat="43.3124928" lon="11.3500994"><ele>280.20000000000005</ele><time>2026-04-22T14:10:53.095Z</time></trkpt><trkpt lat="43.3124613" lon="11.349967"><ele>279.79999999999995</ele><time>2026-04-22T14:10:54.098Z</time></trkpt><trkpt lat="43.3124687" lon="11.3498595"><ele>279.4</ele><time>2026-04-22T14:10:55.092Z</time></trkpt><trkpt lat="43.3125022" lon="11.3497562"><ele>279.0</ele><time>2026-04-22T14:10:56.094Z</time></trkpt><trkpt lat="43.3125636" lon="11.3496334"><ele>278.0</ele><time>2026-04-22T14:10:57.099Z</time></trkpt><trkpt lat="43.312635" lon="11.3495003"><ele>277.0</ele><time>2026-04-22T14:10:58.092Z</time></trkpt><trkpt lat="43.3127032" lon="11.3493631"><ele>276.0</ele><time>2026-04-22T14:10:59.093Z</time></trkpt><trkpt lat="43.3127423" lon="11.3492302"><ele>275.0</ele><time>2026-04-22T14:11:00.095Z</time></trkpt><trkpt lat="43.3127666" lon="11.3491131"><ele>274.0</ele><time>2026-04-22T14:11:01.098Z</time></trkpt><trkpt lat="43.3127704" lon="11.3490076"><ele>274.0</ele><time>2026-04-22T14:11:02.089Z</time></trkpt><trkpt lat="43.3127483" lon="11.3488849"><ele>274.0</ele><time>2026-04-22T14:11:03.105Z</time></trkpt><trkpt lat="43.3127152" lon="11.3487571"><ele>274.0</ele><time>2026-04-22T14:11:04.089Z</time></trkpt><trkpt lat="43.3126681" lon="11.348624"><ele>274.0</ele><time>2026-04-22T14:11:05.095Z</time></trkpt><trkpt lat="43.3126085" lon="11.3484891"><ele>274.0</ele><time>2026-04-22T14:11:06.096Z</time></trkpt><trkpt lat="43.3125445" lon="11.3483713"><ele>273.3333333333333</ele><time>2026-04-22T14:11:07.091Z</time></trkpt><trkpt lat="43.3124842" lon="11.3482765"><ele>272.66666666666663</ele><time>2026-04-22T14:11:08.094Z</time></trkpt><trkpt lat="43.3124332" lon="11.3481976"><ele>272.0</ele><time>2026-04-22T14:11:09.093Z</time></trkpt><trkpt lat="43.3123651" lon="11.3480929"><ele>271.3333333333333</ele><time>2026-04-22T14:11:11.094Z</time></trkpt><trkpt lat="43.3123039" lon="11.3480362"><ele>270.6666666666667</ele><time>2026-04-22T14:11:15.087Z</time></trkpt><trkpt lat="43.3122468" lon="11.3480969"><ele>270.0</ele><time>2026-04-22T14:11:17.097Z</time></trkpt><trkpt lat="43.312209" lon="11.348177"><ele>269.0</ele><time>2026-04-22T14:11:18.099Z</time></trkpt><trkpt lat="43.3121598" lon="11.3482828"><ele>268.0</ele><time>2026-04-22T14:11:19.092Z</time></trkpt><trkpt lat="43.3121025" lon="11.348394"><ele>267.0</ele><time>2026-04-22T14:11:20.097Z</time></trkpt><trkpt lat="43.3120516" lon="11.3485183"><ele>266.0</ele><time>2026-04-22T14:11:21.094Z</time></trkpt><trkpt lat="43.3120166" lon="11.3486543"><ele>265.0</ele><time>2026-04-22T14:11:22.097Z</time></trkpt><trkpt lat="43.3119865" lon="11.3487952"><ele>264.4</ele><time>2026-04-22T14:11:23.099Z</time></trkpt><trkpt lat="43.3119498" lon="11.3489463"><ele>263.8</ele><time>2026-04-22T14:11:24.101Z</time></trkpt><trkpt lat="43.3119073" lon="11.3490903"><ele>263.2</ele><time>2026-04-22T14:11:25.098Z</time></trkpt><trkpt lat="43.3118663" lon="11.3492195"><ele>262.6</ele><time>2026-04-22T14:11:26.095Z</time></trkpt><trkpt lat="43.311823" lon="11.3493436"><ele>262.0</ele><time>2026-04-22T14:11:27.09Z</time></trkpt><trkpt lat="43.3117728" lon="11.3494545"><ele>262.0</ele><time>2026-04-22T14:11:28.098Z</time></trkpt><trkpt lat="43.3117132" lon="11.3495491"><ele>262.0</ele><time>2026-04-22T14:11:29.098Z</time></trkpt><trkpt lat="43.3116426" lon="11.3496352"><ele>262.0</ele><time>2026-04-22T14:11:30.095Z</time></trkpt><trkpt lat="43.3115634" lon="11.3497112"><ele>262.0</ele><time>2026-04-22T14:11:31.099Z</time></trkpt><trkpt lat="43.3114795" lon="11.3497674"><ele>262.0</ele><time>2026-04-22T14:11:32.097Z</time></trkpt><trkpt lat="43.3114003" lon="11.3498051"><ele>262.0</ele><time>2026-04-22T14:11:33.103Z</time></trkpt><trkpt lat="43.3113329" lon="11.3498285"><ele>262.0</ele><time>2026-04-22T14:11:34.095Z</time></trkpt><trkpt lat="43.3112247" lon="11.3498654"><ele>262.0</ele><time>2026-04-22T14:11:36.096Z</time></trkpt><trkpt lat="43.3111196" lon="11.3499114"><ele>262.0</ele><time>2026-04-22T14:11:38.09Z</time></trkpt><trkpt lat="43.3110538" lon="11.3499364"><ele>262.0</ele><time>2026-04-22T14:11:39.098Z</time></trkpt><trkpt lat="43.3109837" lon="11.3499589"><ele>262.0</ele><time>2026-04-22T14:11:40.091Z</time></trkpt><trkpt lat="43.3109069" lon="11.3499841"><ele>262.0</ele><time>2026-04-22T14:11:41.092Z</time></trkpt><trkpt lat="43.3108134" lon="11.3500181"><ele>262.0</ele><time>2026-04-22T14:11:42.092Z</time></trkpt><trkpt lat="43.3107093" lon="11.3500584"><ele>262.0</ele><time>2026-04-22T14:11:43.088Z</time></trkpt><trkpt lat="43.3106143" lon="11.3501003"><ele>262.0</ele><time>2026-04-22T14:11:44.102Z</time></trkpt><trkpt lat="43.3105382" lon="11.3501418"><ele>262.0</ele><time>2026-04-22T14:11:45.087Z</time></trkpt><trkpt lat="43.3104434" lon="11.3502313"><ele>262.0</ele><time>2026-04-22T14:11:47.096Z</time></trkpt><trkpt lat="43.3103718" lon="11.3503062"><ele>262.0</ele><time>2026-04-22T14:11:49.093Z</time></trkpt><trkpt lat="43.3102976" lon="11.3503974"><ele>262.0</ele><time>2026-04-22T14:11:51.089Z</time></trkpt><trkpt lat="43.3102469" lon="11.3504583"><ele>262.0</ele><time>2026-04-22T14:11:52.098Z</time></trkpt><trkpt lat="43.3101836" lon="11.3505549"><ele>262.0</ele><time>2026-04-22T14:11:53.092Z</time></trkpt><trkpt lat="43.3101064" lon="11.3506691"><ele>261.8</ele><time>2026-04-22T14:11:54.094Z</time></trkpt><trkpt lat="43.3100326" lon="11.3507786"><ele>261.6</ele><time>2026-04-22T14:11:55.1Z</time></trkpt><trkpt lat="43.3099535" lon="11.3508803"><ele>261.40000000000003</ele><time>2026-04-22T14:11:56.108Z</time></trkpt><trkpt lat="43.3098867" lon="11.3509989"><ele>261.2</ele><time>2026-04-22T14:11:57.089Z</time></trkpt><trkpt lat="43.3098252" lon="11.3511265"><ele>261.0</ele><time>2026-04-22T14:11:58.102Z</time></trkpt><trkpt lat="43.3097638" lon="11.3512592"><ele>262.0</ele><time>2026-04-22T14:11:59.095Z</time></trkpt><trkpt lat="43.3096964" lon="11.3514096"><ele>263.0</ele><time>2026-04-22T14:12:00.092Z</time></trkpt><trkpt lat="43.3096424" lon="11.3515646"><ele>264.0</ele><time>2026-04-22T14:12:01.09Z</time></trkpt><trkpt lat="43.309604" lon="11.3517201"><ele>265.0</ele><time>2026-04-22T14:12:02.104Z</time></trkpt><trkpt lat="43.3095699" lon="11.35188"><ele>265.0</ele><time>2026-04-22T14:12:03.096Z</time></trkpt><trkpt lat="43.3095417" lon="11.3520391"><ele>265.0</ele><time>2026-04-22T14:12:04.091Z</time></trkpt><trkpt lat="43.3095134" lon="11.3521961"><ele>265.0</ele><time>2026-04-22T14:12:05.097Z</time></trkpt><trkpt lat="43.3094893" lon="11.3523499"><ele>265.0</ele><time>2026-04-22T14:12:06.101Z</time></trkpt><trkpt lat="43.3094647" lon="11.352499"><ele>265.0</ele><time>2026-04-22T14:12:07.097Z</time></trkpt><trkpt lat="43.3094437" lon="11.352649"><ele>265.0</ele><time>2026-04-22T14:12:08.103Z</time></trkpt><trkpt lat="43.3094207" lon="11.352797"><ele>265.0</ele><time>2026-04-22T14:12:09.096Z</time></trkpt><trkpt lat="43.3093939" lon="11.3529413"><ele>265.0</ele><time>2026-04-22T14:12:10.101Z</time></trkpt><trkpt lat="43.3093687" lon="11.3530774"><ele>265.0</ele><time>2026-04-22T14:12:11.093Z</time></trkpt><trkpt lat="43.3093465" lon="11.3532071"><ele>265.0</ele><time>2026-04-22T14:12:12.094Z</time></trkpt><trkpt lat="43.3093268" lon="11.3533257"><ele>265.0</ele><time>2026-04-22T14:12:13.09Z</time></trkpt><trkpt lat="43.3093116" lon="11.3534236"><ele>265.0</ele><time>2026-04-22T14:12:14.094Z</time></trkpt><trkpt lat="43.3092817" lon="11.3535282"><ele>265.0</ele><time>2026-04-22T14:12:16.096Z</time></trkpt><trkpt lat="43.3092781" lon="11.3536178"><ele>265.0</ele><time>2026-04-22T14:12:20.1Z</time></trkpt><trkpt lat="43.3092664" lon="11.3537594"><ele>265.0</ele><time>2026-04-22T14:12:22.103Z</time></trkpt><trkpt lat="43.309262" lon="11.3538588"><ele>264.4</ele><time>2026-04-22T14:12:23.101Z</time></trkpt><trkpt lat="43.3092631" lon="11.3539694"><ele>263.8</ele><time>2026-04-22T14:12:24.09Z</time></trkpt><trkpt lat="43.3092626" lon="11.354089"><ele>263.2</ele><time>2026-04-22T14:12:25.102Z</time></trkpt><trkpt lat="43.3092531" lon="11.3542206"><ele>262.6</ele><time>2026-04-22T14:12:26.1Z</time></trkpt><trkpt lat="43.3092465" lon="11.354351"><ele>262.0</ele><time>2026-04-22T14:12:27.099Z</time></trkpt><trkpt lat="43.3092395" lon="11.3544849"><ele>262.0</ele><time>2026-04-22T14:12:28.096Z</time></trkpt><trkpt lat="43.3092343" lon="11.3546176"><ele>262.0</ele><time>2026-04-22T14:12:29.101Z</time></trkpt><trkpt lat="43.3092344" lon="11.3547472"><ele>262.0</ele><time>2026-04-22T14:12:30.093Z</time></trkpt><trkpt lat="43.3092428" lon="11.3548768"><ele>262.0</ele><time>2026-04-22T14:12:31.102Z</time></trkpt><trkpt lat="43.3092559" lon="11.3550108"><ele>262.0</ele><time>2026-04-22T14:12:32.098Z</time></trkpt><trkpt lat="43.3092716" lon="11.3551451"><ele>262.2</ele><time>2026-04-22T14:12:33.094Z</time></trkpt><trkpt lat="43.3092894" lon="11.3552753"><ele>262.4</ele><time>2026-04-22T14:12:34.099Z</time></trkpt><trkpt lat="43.3093144" lon="11.3554091"><ele>262.6</ele><time>2026-04-22T14:12:35.094Z</time></trkpt><trkpt lat="43.3093477" lon="11.355546"><ele>262.8</ele><time>2026-04-22T14:12:36.097Z</time></trkpt><trkpt lat="43.309384" lon="11.3556872"><ele>263.0</ele><time>2026-04-22T14:12:37.098Z</time></trkpt><trkpt lat="43.3094184" lon="11.3558206"><ele>262.6</ele><time>2026-04-22T14:12:38.092Z</time></trkpt><trkpt lat="43.3094468" lon="11.3559496"><ele>262.20000000000005</ele><time>2026-04-22T14:12:39.099Z</time></trkpt><trkpt lat="43.3094763" lon="11.3560771"><ele>261.8</ele><time>2026-04-22T14:12:40.095Z</time></trkpt><trkpt lat="43.3095063" lon="11.3562087"><ele>261.40000000000003</ele><time>2026-04-22T14:12:41.101Z</time></trkpt><trkpt lat="43.3095257" lon="11.3563362"><ele>261.0</ele><time>2026-04-22T14:12:42.095Z</time></trkpt><trkpt lat="43.3095314" lon="11.3564597"><ele>259.8</ele><time>2026-04-22T14:12:43.096Z</time></trkpt><trkpt lat="43.3095217" lon="11.3565864"><ele>258.6</ele><time>2026-04-22T14:12:44.092Z</time></trkpt><trkpt lat="43.3094985" lon="11.3567134"><ele>257.4</ele><time>2026-04-22T14:12:45.097Z</time></trkpt><trkpt lat="43.3094681" lon="11.356835"><ele>256.2</ele><time>2026-04-22T14:12:46.099Z</time></trkpt><trkpt lat="43.3094376" lon="11.3569516"><ele>255.0</ele><time>2026-04-22T14:12:47.097Z</time></trkpt><trkpt lat="43.3094081" lon="11.3570624"><ele>255.0</ele><time>2026-04-22T14:12:48.098Z</time></trkpt><trkpt lat="43.3093753" lon="11.3571681"><ele>255.0</ele><time>2026-04-22T14:12:49.096Z</time></trkpt><trkpt lat="43.3093329" lon="11.3572582"><ele>255.0</ele><time>2026-04-22T14:12:50.101Z</time></trkpt><trkpt lat="43.3092873" lon="11.3573247"><ele>255.0</ele><time>2026-04-22T14:12:51.1Z</time></trkpt><trkpt lat="43.3092098" lon="11.3574102"><ele>255.0</ele><time>2026-04-22T14:12:53.1Z</time></trkpt><trkpt lat="43.3091552" lon="11.3574638"><ele>255.0</ele><time>2026-04-22T14:12:55.099Z</time></trkpt><trkpt lat="43.3090391" lon="11.3576107"><ele>254.33333333333331</ele><time>2026-04-22T14:12:57.09Z</time></trkpt><trkpt lat="43.3089339" lon="11.3577198"><ele>253.66666666666666</ele><time>2026-04-22T14:12:58.096Z</time></trkpt><trkpt lat="43.3088042" lon="11.3578472"><ele>253.0</ele><time>2026-04-22T14:12:59.103Z</time></trkpt><trkpt lat="43.3086649" lon="11.3579757"><ele>251.0</ele><time>2026-04-22T14:13:00.095Z</time></trkpt><trkpt lat="43.3085301" lon="11.3580909"><ele>249.0</ele><time>2026-04-22T14:13:01.102Z</time></trkpt><trkpt lat="43.3083982" lon="11.358194"><ele>247.0</ele><time>2026-04-22T14:13:02.094Z</time></trkpt><trkpt lat="43.3082646" lon="11.3582949"><ele>247.0</ele><time>2026-04-22T14:13:03.09Z</time></trkpt><trkpt lat="43.308135" lon="11.3584015"><ele>247.0</ele><time>2026-04-22T14:13:04.095Z</time></trkpt><trkpt lat="43.3080035" lon="11.3585227"><ele>247.0</ele><time>2026-04-22T14:13:05.096Z</time></trkpt><trkpt lat="43.3078689" lon="11.3586641"><ele>244.0</ele><time>2026-04-22T14:13:06.098Z</time></trkpt><trkpt lat="43.3077324" lon="11.3588247"><ele>241.0</ele><time>2026-04-22T14:13:07.1Z</time></trkpt><trkpt lat="43.3075933" lon="11.3589991"><ele>238.0</ele><time>2026-04-22T14:13:08.103Z</time></trkpt><trkpt lat="43.307446" lon="11.3591755"><ele>238.0</ele><time>2026-04-22T14:13:09.093Z</time></trkpt><trkpt lat="43.3072971" lon="11.3593491"><ele>238.0</ele><time>2026-04-22T14:13:10.095Z</time></trkpt><trkpt lat="43.3071545" lon="11.3595182"><ele>238.0</ele><time>2026-04-22T14:13:11.099Z</time></trkpt><trkpt lat="43.3070209" lon="11.3596839"><ele>239.0</ele><time>2026-04-22T14:13:12.092Z</time></trkpt><trkpt lat="43.306894" lon="11.3598454"><ele>240.0</ele><time>2026-04-22T14:13:13.102Z</time></trkpt><trkpt lat="43.3067732" lon="11.3600071"><ele>241.0</ele><time>2026-04-22T14:13:14.101Z</time></trkpt><trkpt lat="43.3066622" lon="11.3601732"><ele>241.0</ele><time>2026-04-22T14:13:15.094Z</time></trkpt><trkpt lat="43.3065585" lon="11.3603439"><ele>241.0</ele><time>2026-04-22T14:13:16.095Z</time></trkpt><trkpt lat="43.3064554" lon="11.3605163"><ele>241.0</ele><time>2026-04-22T14:13:17.096Z</time></trkpt><trkpt lat="43.3063476" lon="11.3606833"><ele>244.66666666666666</ele><time>2026-04-22T14:13:18.103Z</time></trkpt><trkpt lat="43.306234" lon="11.3608457"><ele>248.33333333333331</ele><time>2026-04-22T14:13:19.092Z</time></trkpt><trkpt lat="43.3061286" lon="11.3610202"><ele>252.0</ele><time>2026-04-22T14:13:20.1Z</time></trkpt><trkpt lat="43.3060354" lon="11.3612051"><ele>250.5</ele><time>2026-04-22T14:13:21.09Z</time></trkpt><trkpt lat="43.3059628" lon="11.3613708"><ele>249.0</ele><time>2026-04-22T14:13:22.1Z</time></trkpt><trkpt lat="43.3058989" lon="11.361507"><ele>247.5</ele><time>2026-04-22T14:13:23.103Z</time></trkpt><trkpt lat="43.3058262" lon="11.3616183"><ele>246.0</ele><time>2026-04-22T14:13:24.106Z</time></trkpt><trkpt lat="43.3057335" lon="11.3616999"><ele>246.0</ele><time>2026-04-22T14:13:25.102Z</time></trkpt><trkpt lat="43.3056165" lon="11.3617555"><ele>246.0</ele><time>2026-04-22T14:13:26.093Z</time></trkpt><trkpt lat="43.3054702" lon="11.3617876"><ele>246.0</ele><time>2026-04-22T14:13:27.101Z</time></trkpt><trkpt lat="43.3053197" lon="11.3617977"><ele>246.0</ele><time>2026-04-22T14:13:28.101Z</time></trkpt><trkpt lat="43.3051764" lon="11.3618187"><ele>246.33333333333331</ele><time>2026-04-22T14:13:29.094Z</time></trkpt><trkpt lat="43.305029" lon="11.3618387"><ele>246.66666666666666</ele><time>2026-04-22T14:13:30.101Z</time></trkpt><trkpt lat="43.3048788" lon="11.3618552"><ele>247.0</ele><time>2026-04-22T14:13:31.1Z</time></trkpt><trkpt lat="43.304718" lon="11.3618702"><ele>243.66666666666666</ele><time>2026-04-22T14:13:32.099Z</time></trkpt><trkpt lat="43.3045679" lon="11.3618903"><ele>240.33333333333331</ele><time>2026-04-22T14:13:33.096Z</time></trkpt><trkpt lat="43.3044181" lon="11.3619301"><ele>237.0</ele><time>2026-04-22T14:13:34.097Z</time></trkpt><trkpt lat="43.3042607" lon="11.3620129"><ele>237.0</ele><time>2026-04-22T14:13:35.092Z</time></trkpt><trkpt lat="43.3040827" lon="11.3621444"><ele>237.0</ele><time>2026-04-22T14:13:36.095Z</time></trkpt><trkpt lat="43.3039024" lon="11.3622876"><ele>237.0</ele><time>2026-04-22T14:13:37.093Z</time></trkpt><trkpt lat="43.3037336" lon="11.3624206"><ele>240.0</ele><time>2026-04-22T14:13:38.099Z</time></trkpt><trkpt lat="43.3035859" lon="11.3625632"><ele>243.0</ele><time>2026-04-22T14:13:39.094Z</time></trkpt><trkpt lat="43.3034703" lon="11.3627165"><ele>246.0</ele><time>2026-04-22T14:13:40.104Z</time></trkpt><trkpt lat="43.3033986" lon="11.3628801"><ele>247.25</ele><time>2026-04-22T14:13:41.096Z</time></trkpt><trkpt lat="43.3033636" lon="11.3630607"><ele>248.5</ele><time>2026-04-22T14:13:42.093Z</time></trkpt><trkpt lat="43.3033401" lon="11.3632676"><ele>249.75</ele><time>2026-04-22T14:13:43.099Z</time></trkpt><trkpt lat="43.3033357" lon="11.3634761"><ele>251.0</ele><time>2026-04-22T14:13:44.098Z</time></trkpt><trkpt lat="43.3033178" lon="11.3636574"><ele>251.0</ele><time>2026-04-22T14:13:45.099Z</time></trkpt><trkpt lat="43.3032836" lon="11.3638147"><ele>251.0</ele><time>2026-04-22T14:13:46.1Z</time></trkpt><trkpt lat="43.3032235" lon="11.3639382"><ele>251.0</ele><time>2026-04-22T14:13:47.093Z</time></trkpt><trkpt lat="43.3031323" lon="11.3640148"><ele>251.0</ele><time>2026-04-22T14:13:48.102Z</time></trkpt><trkpt lat="43.3030088" lon="11.3640504"><ele>251.5</ele><time>2026-04-22T14:13:49.104Z</time></trkpt><trkpt lat="43.3028679" lon="11.3640429"><ele>252.0</ele><time>2026-04-22T14:13:50.1Z</time></trkpt><trkpt lat="43.3027143" lon="11.3640201"><ele>252.5</ele><time>2026-04-22T14:13:51.102Z</time></trkpt><trkpt lat="43.3025716" lon="11.3640113"><ele>253.0</ele><time>2026-04-22T14:13:52.096Z</time></trkpt><trkpt lat="43.302431" lon="11.3640423"><ele>253.0</ele><time>2026-04-22T14:13:53.092Z</time></trkpt><trkpt lat="43.3022938" lon="11.3641096"><ele>253.0</ele><time>2026-04-22T14:13:54.099Z</time></trkpt><trkpt lat="43.3021603" lon="11.3641992"><ele>253.0</ele><time>2026-04-22T14:13:55.094Z</time></trkpt><trkpt lat="43.3020358" lon="11.3643014"><ele>253.0</ele><time>2026-04-22T14:13:56.097Z</time></trkpt><trkpt lat="43.3019237" lon="11.3644236"><ele>249.66666666666666</ele><time>2026-04-22T14:13:57.093Z</time></trkpt><trkpt lat="43.3018347" lon="11.3645794"><ele>246.33333333333331</ele><time>2026-04-22T14:13:58.1Z</time></trkpt><trkpt lat="43.3017703" lon="11.3647694"><ele>243.0</ele><time>2026-04-22T14:13:59.104Z</time></trkpt><trkpt lat="43.301717" lon="11.3649782"><ele>243.0</ele><time>2026-04-22T14:14:00.094Z</time></trkpt><trkpt lat="43.301673" lon="11.3651736"><ele>243.0</ele><time>2026-04-22T14:14:01.098Z</time></trkpt><trkpt lat="43.301599" lon="11.3653219"><ele>243.0</ele><time>2026-04-22T14:14:02.092Z</time></trkpt><trkpt lat="43.3014678" lon="11.3654288"><ele>243.0</ele><time>2026-04-22T14:14:03.102Z</time></trkpt><trkpt lat="43.3013003" lon="11.3655175"><ele>242.33333333333331</ele><time>2026-04-22T14:14:04.098Z</time></trkpt><trkpt lat="43.3011211" lon="11.3656007"><ele>241.66666666666666</ele><time>2026-04-22T14:14:05.096Z</time></trkpt><trkpt lat="43.3009574" lon="11.365674"><ele>241.0</ele><time>2026-04-22T14:14:06.097Z</time></trkpt><trkpt lat="43.300825" lon="11.3657168"><ele>241.0</ele><time>2026-04-22T14:14:07.102Z</time></trkpt><trkpt lat="43.3007299" lon="11.3657399"><ele>241.00000000000003</ele><time>2026-04-22T14:14:08.097Z</time></trkpt><trkpt lat="43.3006489" lon="11.3657542"><ele>241.00000000000003</ele><time>2026-04-22T14:14:09.099Z</time></trkpt><trkpt lat="43.3005613" lon="11.3657467"><ele>241.0</ele><time>2026-04-22T14:14:10.093Z</time></trkpt><trkpt lat="43.3004568" lon="11.3657395"><ele>241.0</ele><time>2026-04-22T14:14:11.096Z</time></trkpt><trkpt lat="43.3003313" lon="11.3657405"><ele>241.75</ele><time>2026-04-22T14:14:12.093Z</time></trkpt><trkpt lat="43.3002047" lon="11.3657535"><ele>242.5</ele><time>2026-04-22T14:14:13.099Z</time></trkpt><trkpt lat="43.3000745" lon="11.3658058"><ele>243.25</ele><time>2026-04-22T14:14:14.093Z</time></trkpt><trkpt lat="43.2999414" lon="11.3658999"><ele>244.0</ele><time>2026-04-22T14:14:15.096Z</time></trkpt><trkpt lat="43.299822" lon="11.3660167"><ele>241.66666666666666</ele><time>2026-04-22T14:14:16.094Z</time></trkpt><trkpt lat="43.2997055" lon="11.3661556"><ele>239.33333333333331</ele><time>2026-04-22T14:14:17.095Z</time></trkpt><trkpt lat="43.2995897" lon="11.3663092"><ele>237.0</ele><time>2026-04-22T14:14:18.102Z</time></trkpt><trkpt lat="43.2994726" lon="11.3664757"><ele>237.0</ele><time>2026-04-22T14:14:19.102Z</time></trkpt><trkpt lat="43.2993517" lon="11.3666399"><ele>237.0</ele><time>2026-04-22T14:14:20.099Z</time></trkpt><trkpt lat="43.2992326" lon="11.366799"><ele>237.0</ele><time>2026-04-22T14:14:21.092Z</time></trkpt><trkpt lat="43.2991231" lon="11.3669626"><ele>237.0</ele><time>2026-04-22T14:14:22.099Z</time></trkpt><trkpt lat="43.2990262" lon="11.3671386"><ele>237.0</ele><time>2026-04-22T14:14:23.094Z</time></trkpt><trkpt lat="43.2989466" lon="11.3673271"><ele>237.0</ele><time>2026-04-22T14:14:24.1Z</time></trkpt><trkpt lat="43.2988818" lon="11.3675327"><ele>236.5</ele><time>2026-04-22T14:14:25.095Z</time></trkpt><trkpt lat="43.2988211" lon="11.3677281"><ele>236.0</ele><time>2026-04-22T14:14:26.1Z</time></trkpt><trkpt lat="43.298757" lon="11.3679131"><ele>235.5</ele><time>2026-04-22T14:14:27.095Z</time></trkpt><trkpt lat="43.2986861" lon="11.368088"><ele>235.0</ele><time>2026-04-22T14:14:28.101Z</time></trkpt><trkpt lat="43.2986062" lon="11.3682445"><ele>235.0</ele><time>2026-04-22T14:14:29.096Z</time></trkpt><trkpt lat="43.2985209" lon="11.3683671"><ele>235.0</ele><time>2026-04-22T14:14:30.095Z</time></trkpt><trkpt lat="43.2984266" lon="11.3684505"><ele>235.0</ele><time>2026-04-22T14:14:31.1Z</time></trkpt><trkpt lat="43.2983199" lon="11.3685099"><ele>235.0</ele><time>2026-04-22T14:14:32.099Z</time></trkpt><trkpt lat="43.2981959" lon="11.3685487"><ele>235.75</ele><time>2026-04-22T14:14:33.105Z</time></trkpt><trkpt lat="43.2980634" lon="11.3685627"><ele>236.5</ele><time>2026-04-22T14:14:34.094Z</time></trkpt><trkpt lat="43.297931" lon="11.3685519"><ele>237.25</ele><time>2026-04-22T14:14:35.091Z</time></trkpt><trkpt lat="43.2977949" lon="11.3685083"><ele>238.0</ele><time>2026-04-22T14:14:36.101Z</time></trkpt><trkpt lat="43.2976569" lon="11.3684373"><ele>238.0</ele><time>2026-04-22T14:14:37.101Z</time></trkpt><trkpt lat="43.2975129" lon="11.3683472"><ele>238.0</ele><time>2026-04-22T14:14:38.104Z</time></trkpt><trkpt lat="43.2973682" lon="11.3682639"><ele>238.0</ele><time>2026-04-22T14:14:39.098Z</time></trkpt><trkpt lat="43.2972281" lon="11.3681867"><ele>237.25</ele><time>2026-04-22T14:14:40.095Z</time></trkpt><trkpt lat="43.2970953" lon="11.3681259"><ele>236.5</ele><time>2026-04-22T14:14:41.094Z</time></trkpt><trkpt lat="43.2969656" lon="11.36809"><ele>235.75</ele><time>2026-04-22T14:14:42.095Z</time></trkpt><trkpt lat="43.2968359" lon="11.3680697"><ele>235.0</ele><time>2026-04-22T14:14:43.095Z</time></trkpt><trkpt lat="43.2967052" lon="11.3680556"><ele>235.0</ele><time>2026-04-22T14:14:44.094Z</time></trkpt><trkpt lat="43.2965755" lon="11.3680487"><ele>235.0</ele><time>2026-04-22T14:14:45.092Z</time></trkpt><trkpt lat="43.2964493" lon="11.3680579"><ele>235.0</ele><time>2026-04-22T14:14:46.101Z</time></trkpt><trkpt lat="43.2963223" lon="11.368085"><ele>235.0</ele><time>2026-04-22T14:14:47.101Z</time></trkpt><trkpt lat="43.296188" lon="11.3681119"><ele>238.33333333333331</ele><time>2026-04-22T14:14:48.099Z</time></trkpt><trkpt lat="43.2960384" lon="11.3681582"><ele>241.66666666666669</ele><time>2026-04-22T14:14:49.096Z</time></trkpt><trkpt lat="43.2958811" lon="11.3682295"><ele>245.0</ele><time>2026-04-22T14:14:50.098Z</time></trkpt><trkpt lat="43.2957248" lon="11.3682934"><ele>243.25</ele><time>2026-04-22T14:14:51.106Z</time></trkpt><trkpt lat="43.295571" lon="11.3683338"><ele>241.5</ele><time>2026-04-22T14:14:52.097Z</time></trkpt><trkpt lat="43.2954509" lon="11.3683573"><ele>239.75</ele><time>2026-04-22T14:14:53.096Z</time></trkpt><trkpt lat="43.2953326" lon="11.3683681"><ele>238.0</ele><time>2026-04-22T14:14:54.095Z</time></trkpt><trkpt lat="43.2952258" lon="11.3684066"><ele>238.0</ele><time>2026-04-22T14:14:55.095Z</time></trkpt><trkpt lat="43.2951197" lon="11.3684699"><ele>238.0</ele><time>2026-04-22T14:14:56.092Z</time></trkpt><trkpt lat="43.2950127" lon="11.3685741"><ele>238.0</ele><time>2026-04-22T14:14:57.1Z</time></trkpt><trkpt lat="43.2949116" lon="11.3687308"><ele>238.0</ele><time>2026-04-22T14:14:58.096Z</time></trkpt><trkpt lat="43.2948217" lon="11.3689077"><ele>235.33333333333331</ele><time>2026-04-22T14:14:59.102Z</time></trkpt><trkpt lat="43.2947367" lon="11.3690786"><ele>232.66666666666669</ele><time>2026-04-22T14:15:00.089Z</time></trkpt><trkpt lat="43.2946393" lon="11.3692346"><ele>230.0</ele><time>2026-04-22T14:15:01.09Z</time></trkpt><trkpt lat="43.294515" lon="11.369374"><ele>230.0</ele><time>2026-04-22T14:15:02.094Z</time></trkpt><trkpt lat="43.2943526" lon="11.369489"><ele>230.0</ele><time>2026-04-22T14:15:03.096Z</time></trkpt><trkpt lat="43.2941675" lon="11.3695869"><ele>230.0</ele><time>2026-04-22T14:15:04.102Z</time></trkpt><trkpt lat="43.2939879" lon="11.3696779"><ele>228.33333333333334</ele><time>2026-04-22T14:15:05.099Z</time></trkpt><trkpt lat="43.2938176" lon="11.3697692"><ele>226.66666666666669</ele><time>2026-04-22T14:15:06.09Z</time></trkpt><trkpt lat="43.2936527" lon="11.3698553"><ele>225.0</ele><time>2026-04-22T14:15:07.094Z</time></trkpt><trkpt lat="43.293491" lon="11.369935"><ele>225.0</ele><time>2026-04-22T14:15:08.096Z</time></trkpt><trkpt lat="43.2933263" lon="11.3699997"><ele>225.0</ele><time>2026-04-22T14:15:09.099Z</time></trkpt><trkpt lat="43.2931558" lon="11.3700509"><ele>225.0</ele><time>2026-04-22T14:15:10.101Z</time></trkpt><trkpt lat="43.2929824" lon="11.3700857"><ele>224.0</ele><time>2026-04-22T14:15:11.101Z</time></trkpt><trkpt lat="43.2928061" lon="11.3700992"><ele>223.0</ele><time>2026-04-22T14:15:12.104Z</time></trkpt><trkpt lat="43.2926322" lon="11.3700936"><ele>222.0</ele><time>2026-04-22T14:15:13.096Z</time></trkpt><trkpt lat="43.2924642" lon="11.3700809"><ele>222.0</ele><time>2026-04-22T14:15:14.101Z</time></trkpt><trkpt lat="43.2923028" lon="11.3700713"><ele>222.0</ele><time>2026-04-22T14:15:15.103Z</time></trkpt><trkpt lat="43.2921476" lon="11.3700717"><ele>222.0</ele><time>2026-04-22T14:15:16.104Z</time></trkpt><trkpt lat="43.2919926" lon="11.3700813"><ele>222.33333333333331</ele><time>2026-04-22T14:15:17.109Z</time></trkpt><trkpt lat="43.2918357" lon="11.3701108"><ele>222.66666666666666</ele><time>2026-04-22T14:15:18.1Z</time></trkpt><trkpt lat="43.2916766" lon="11.3701607"><ele>223.0</ele><time>2026-04-22T14:15:19.096Z</time></trkpt><trkpt lat="43.291524" lon="11.3702231"><ele>223.66666666666666</ele><time>2026-04-22T14:15:20.103Z</time></trkpt><trkpt lat="43.291384" lon="11.3703129"><ele>224.33333333333331</ele><time>2026-04-22T14:15:21.092Z</time></trkpt><trkpt lat="43.2912519" lon="11.3704211"><ele>225.0</ele><time>2026-04-22T14:15:22.099Z</time></trkpt><trkpt lat="43.2911207" lon="11.3705271"><ele>225.0</ele><time>2026-04-22T14:15:23.1Z</time></trkpt><trkpt lat="43.2909873" lon="11.3706089"><ele>225.0</ele><time>2026-04-22T14:15:24.094Z</time></trkpt><trkpt lat="43.2908503" lon="11.3706669"><ele>225.0</ele><time>2026-04-22T14:15:25.092Z</time></trkpt><trkpt lat="43.2907208" lon="11.3707139"><ele>225.0</ele><time>2026-04-22T14:15:26.099Z</time></trkpt><trkpt lat="43.2906091" lon="11.3707765"><ele>224.0</ele><time>2026-04-22T14:15:27.096Z</time></trkpt><trkpt lat="43.2905103" lon="11.3708591"><ele>223.0</ele><time>2026-04-22T14:15:28.096Z</time></trkpt><trkpt lat="43.290428" lon="11.3709642"><ele>222.0</ele><time>2026-04-22T14:15:29.096Z</time></trkpt><trkpt lat="43.2903679" lon="11.3710943"><ele>221.0</ele><time>2026-04-22T14:15:30.09Z</time></trkpt><trkpt lat="43.2903109" lon="11.3712352"><ele>222.0</ele><time>2026-04-22T14:15:31.101Z</time></trkpt><trkpt lat="43.2902379" lon="11.3713668"><ele>223.0</ele><time>2026-04-22T14:15:32.095Z</time></trkpt><trkpt lat="43.2901465" lon="11.3714693"><ele>224.0</ele><time>2026-04-22T14:15:33.096Z</time></trkpt><trkpt lat="43.2900419" lon="11.3715394"><ele>225.0</ele><time>2026-04-22T14:15:34.098Z</time></trkpt><trkpt lat="43.2899422" lon="11.3715903"><ele>225.0</ele><time>2026-04-22T14:15:35.102Z</time></trkpt><trkpt lat="43.2898652" lon="11.3716508"><ele>225.0</ele><time>2026-04-22T14:15:36.103Z</time></trkpt><trkpt lat="43.2898405" lon="11.371731"><ele>225.0</ele><time>2026-04-22T14:15:37.102Z</time></trkpt><trkpt lat="43.2898528" lon="11.3718388"><ele>225.0</ele><time>2026-04-22T14:15:38.093Z</time></trkpt><trkpt lat="43.2898741" lon="11.3719529"><ele>225.0</ele><time>2026-04-22T14:15:39.089Z</time></trkpt><trkpt lat="43.289885" lon="11.3720538"><ele>225.0</ele><time>2026-04-22T14:15:40.101Z</time></trkpt><trkpt lat="43.2898543" lon="11.3721374"><ele>224.0</ele><time>2026-04-22T14:15:41.099Z</time></trkpt><trkpt lat="43.2897782" lon="11.372208"><ele>223.0</ele><time>2026-04-22T14:15:42.102Z</time></trkpt><trkpt lat="43.2896691" lon="11.3722757"><ele>222.0</ele><time>2026-04-22T14:15:43.091Z</time></trkpt><trkpt lat="43.2895395" lon="11.3723326"><ele>221.0</ele><time>2026-04-22T14:15:44.105Z</time></trkpt><trkpt lat="43.2894154" lon="11.3723779"><ele>220.33333333333334</ele><time>2026-04-22T14:15:45.103Z</time></trkpt><trkpt lat="43.2893014" lon="11.3724132"><ele>219.66666666666669</ele><time>2026-04-22T14:15:46.1Z</time></trkpt><trkpt lat="43.2892122" lon="11.372452"><ele>219.0</ele><time>2026-04-22T14:15:47.104Z</time></trkpt><trkpt lat="43.2891456" lon="11.3725075"><ele>218.33333333333331</ele><time>2026-04-22T14:15:48.093Z</time></trkpt><trkpt lat="43.2891" lon="11.3725728"><ele>217.66666666666666</ele><time>2026-04-22T14:15:49.093Z</time></trkpt><trkpt lat="43.2890775" lon="11.372665"><ele>217.0</ele><time>2026-04-22T14:15:50.101Z</time></trkpt><trkpt lat="43.2890681" lon="11.3727899"><ele>217.0</ele><time>2026-04-22T14:15:51.093Z</time></trkpt><trkpt lat="43.2890721" lon="11.3729502"><ele>217.0</ele><time>2026-04-22T14:15:52.094Z</time></trkpt><trkpt lat="43.2890796" lon="11.3731356"><ele>217.0</ele><time>2026-04-22T14:15:53.094Z</time></trkpt><trkpt lat="43.2890839" lon="11.3733332"><ele>217.0</ele><time>2026-04-22T14:15:54.099Z</time></trkpt><trkpt lat="43.289085" lon="11.3735304"><ele>215.25</ele><time>2026-04-22T14:15:55.098Z</time></trkpt><trkpt lat="43.2890839" lon="11.3737322"><ele>213.5</ele><time>2026-04-22T14:15:56.097Z</time></trkpt><trkpt lat="43.2890836" lon="11.3739352"><ele>211.75</ele><time>2026-04-22T14:15:57.101Z</time></trkpt><trkpt lat="43.2890866" lon="11.3741396"><ele>210.0</ele><time>2026-04-22T14:15:58.094Z</time></trkpt><trkpt lat="43.2890939" lon="11.3743472"><ele>207.33333333333331</ele><time>2026-04-22T14:15:59.092Z</time></trkpt><trkpt lat="43.2891013" lon="11.3745547"><ele>204.66666666666666</ele><time>2026-04-22T14:16:00.096Z</time></trkpt><trkpt lat="43.2891084" lon="11.3747658"><ele>202.0</ele><time>2026-04-22T14:16:01.089Z</time></trkpt><trkpt lat="43.2891147" lon="11.3749738"><ele>200.0</ele><time>2026-04-22T14:16:02.095Z</time></trkpt><trkpt lat="43.2891202" lon="11.3751789"><ele>198.0</ele><time>2026-04-22T14:16:03.097Z</time></trkpt><trkpt lat="43.2891248" lon="11.375379"><ele>196.0</ele><time>2026-04-22T14:16:04.101Z</time></trkpt><trkpt lat="43.2891303" lon="11.3755751"><ele>194.0</ele><time>2026-04-22T14:16:05.102Z</time></trkpt><trkpt lat="43.2891375" lon="11.3757692"><ele>192.0</ele><time>2026-04-22T14:16:06.091Z</time></trkpt><trkpt lat="43.2891431" lon="11.3759662"><ele>190.0</ele><time>2026-04-22T14:16:07.098Z</time></trkpt><trkpt lat="43.2891485" lon="11.3761658"><ele>188.0</ele><time>2026-04-22T14:16:08.096Z</time></trkpt><trkpt lat="43.289156" lon="11.3763624"><ele>186.0</ele><time>2026-04-22T14:16:09.105Z</time></trkpt><trkpt lat="43.2891671" lon="11.3765576"><ele>185.66666666666666</ele><time>2026-04-22T14:16:10.091Z</time></trkpt><trkpt lat="43.2891807" lon="11.3767564"><ele>185.33333333333331</ele><time>2026-04-22T14:16:11.102Z</time></trkpt><trkpt lat="43.289198" lon="11.3769741"><ele>185.0</ele><time>2026-04-22T14:16:12.093Z</time></trkpt><trkpt lat="43.2892182" lon="11.3772027"><ele>185.0</ele><time>2026-04-22T14:16:13.099Z</time></trkpt><trkpt lat="43.2892372" lon="11.3774204"><ele>185.0</ele><time>2026-04-22T14:16:14.096Z</time></trkpt><trkpt lat="43.2892505" lon="11.3776169"><ele>185.0</ele><time>2026-04-22T14:16:15.088Z</time></trkpt><trkpt lat="43.2892479" lon="11.37778"><ele>185.0</ele><time>2026-04-22T14:16:16.097Z</time></trkpt><trkpt lat="43.2892268" lon="11.3778971"><ele>185.0</ele><time>2026-04-22T14:16:17.091Z</time></trkpt><trkpt lat="43.2891753" lon="11.377959"><ele>185.0</ele><time>2026-04-22T14:16:18.095Z</time></trkpt><trkpt lat="43.2891058" lon="11.3779869"><ele>185.0</ele><time>2026-04-22T14:16:19.095Z</time></trkpt><trkpt lat="43.2890185" lon="11.378023"><ele>185.0</ele><time>2026-04-22T14:16:20.094Z</time></trkpt><trkpt lat="43.2889006" lon="11.3780669"><ele>185.0</ele><time>2026-04-22T14:16:21.1Z</time></trkpt><trkpt lat="43.2887616" lon="11.378126"><ele>189.33333333333331</ele><time>2026-04-22T14:16:22.09Z</time></trkpt><trkpt lat="43.2886155" lon="11.3782027"><ele>193.66666666666666</ele><time>2026-04-22T14:16:23.098Z</time></trkpt><trkpt lat="43.2884787" lon="11.3782841"><ele>198.0</ele><time>2026-04-22T14:16:24.095Z</time></trkpt><trkpt lat="43.2883332" lon="11.3783598"><ele>198.0</ele><time>2026-04-22T14:16:25.091Z</time></trkpt><trkpt lat="43.288213" lon="11.3784645"><ele>198.0</ele><time>2026-04-22T14:16:26.095Z</time></trkpt><trkpt lat="43.288111" lon="11.3785945"><ele>198.0</ele><time>2026-04-22T14:16:27.089Z</time></trkpt><trkpt lat="43.2880366" lon="11.378729"><ele>198.0</ele><time>2026-04-22T14:16:28.095Z</time></trkpt><trkpt lat="43.2879791" lon="11.3788419"><ele>198.4</ele><time>2026-04-22T14:16:29.091Z</time></trkpt><trkpt lat="43.2879462" lon="11.3789437"><ele>198.8</ele><time>2026-04-22T14:16:30.094Z</time></trkpt><trkpt lat="43.2879464" lon="11.3790557"><ele>199.2</ele><time>2026-04-22T14:16:31.091Z</time></trkpt><trkpt lat="43.2879753" lon="11.3791926"><ele>199.6</ele><time>2026-04-22T14:16:32.094Z</time></trkpt><trkpt lat="43.2879994" lon="11.3793295"><ele>200.0</ele><time>2026-04-22T14:16:33.096Z</time></trkpt><trkpt lat="43.2880211" lon="11.3794496"><ele>200.0</ele><time>2026-04-22T14:16:34.097Z</time></trkpt><trkpt lat="43.2880291" lon="11.3795355"><ele>200.0</ele><time>2026-04-22T14:16:35.095Z</time></trkpt><trkpt lat="43.2880013" lon="11.3796159"><ele>200.0</ele><time>2026-04-22T14:16:37.097Z</time></trkpt><trkpt lat="43.287847" lon="11.3797135"><ele>200.0</ele><time>2026-04-22T14:16:39.101Z</time></trkpt><trkpt lat="43.2876941" lon="11.3797712"><ele>199.33333333333334</ele><time>2026-04-22T14:16:40.102Z</time></trkpt><trkpt lat="43.2875189" lon="11.3798384"><ele>198.66666666666669</ele><time>2026-04-22T14:16:41.095Z</time></trkpt><trkpt lat="43.2873163" lon="11.3799004"><ele>198.0</ele><time>2026-04-22T14:16:42.102Z</time></trkpt><trkpt lat="43.2871027" lon="11.3799383"><ele>197.0</ele><time>2026-04-22T14:16:43.092Z</time></trkpt><trkpt lat="43.2868865" lon="11.3799273"><ele>196.0</ele><time>2026-04-22T14:16:44.095Z</time></trkpt><trkpt lat="43.2866734" lon="11.3798692"><ele>195.0</ele><time>2026-04-22T14:16:45.105Z</time></trkpt><trkpt lat="43.2864701" lon="11.3797855"><ele>194.33333333333331</ele><time>2026-04-22T14:16:46.1Z</time></trkpt><trkpt lat="43.2862822" lon="11.3796914"><ele>193.66666666666666</ele><time>2026-04-22T14:16:47.102Z</time></trkpt><trkpt lat="43.2861081" lon="11.3795885"><ele>193.0</ele><time>2026-04-22T14:16:48.095Z</time></trkpt><trkpt lat="43.2859444" lon="11.3794653"><ele>193.33333333333331</ele><time>2026-04-22T14:16:49.098Z</time></trkpt><trkpt lat="43.2857917" lon="11.3793479"><ele>193.66666666666669</ele><time>2026-04-22T14:16:50.091Z</time></trkpt><trkpt lat="43.2856524" lon="11.3792388"><ele>194.0</ele><time>2026-04-22T14:16:51.097Z</time></trkpt><trkpt lat="43.2855266" lon="11.3791438"><ele>194.0</ele><time>2026-04-22T14:16:52.096Z</time></trkpt><trkpt lat="43.2854081" lon="11.3790777"><ele>194.0</ele><time>2026-04-22T14:16:53.096Z</time></trkpt><trkpt lat="43.2852876" lon="11.3790308"><ele>194.0</ele><time>2026-04-22T14:16:54.093Z</time></trkpt><trkpt lat="43.2851563" lon="11.379001"><ele>194.0</ele><time>2026-04-22T14:16:55.096Z</time></trkpt><trkpt lat="43.2850203" lon="11.3789842"><ele>194.0</ele><time>2026-04-22T14:16:56.102Z</time></trkpt><trkpt lat="43.2848883" lon="11.3789783"><ele>194.0</ele><time>2026-04-22T14:16:57.103Z</time></trkpt><trkpt lat="43.2847514" lon="11.3789725"><ele>194.0</ele><time>2026-04-22T14:16:58.101Z</time></trkpt><trkpt lat="43.2846114" lon="11.3789602"><ele>194.0</ele><time>2026-04-22T14:16:59.098Z</time></trkpt><trkpt lat="43.2844708" lon="11.3789375"><ele>193.75</ele><time>2026-04-22T14:17:00.091Z</time></trkpt><trkpt lat="43.284333" lon="11.3789036"><ele>193.5</ele><time>2026-04-22T14:17:01.089Z</time></trkpt><trkpt lat="43.2842146" lon="11.3788504"><ele>193.25</ele><time>2026-04-22T14:17:02.102Z</time></trkpt><trkpt lat="43.2841152" lon="11.3787624"><ele>193.0</ele><time>2026-04-22T14:17:03.102Z</time></trkpt><trkpt lat="43.2840286" lon="11.3786333"><ele>191.5</ele><time>2026-04-22T14:17:04.096Z</time></trkpt><trkpt lat="43.283958" lon="11.3784896"><ele>190.0</ele><time>2026-04-22T14:17:05.096Z</time></trkpt><trkpt lat="43.2838972" lon="11.3783333"><ele>188.5</ele><time>2026-04-22T14:17:06.106Z</time></trkpt><trkpt lat="43.2838339" lon="11.3781767"><ele>187.0</ele><time>2026-04-22T14:17:07.097Z</time></trkpt><trkpt lat="43.2837574" lon="11.37804"><ele>185.0</ele><time>2026-04-22T14:17:08.094Z</time></trkpt><trkpt lat="43.2836676" lon="11.377938"><ele>183.0</ele><time>2026-04-22T14:17:09.107Z</time></trkpt><trkpt lat="43.2835677" lon="11.3778654"><ele>181.0</ele><time>2026-04-22T14:17:10.091Z</time></trkpt><trkpt lat="43.2834609" lon="11.3778104"><ele>179.0</ele><time>2026-04-22T14:17:11.107Z</time></trkpt><trkpt lat="43.2833453" lon="11.3777722"><ele>179.0</ele><time>2026-04-22T14:17:12.097Z</time></trkpt><trkpt lat="43.2832209" lon="11.377757"><ele>179.0</ele><time>2026-04-22T14:17:13.096Z</time></trkpt><trkpt lat="43.283084" lon="11.3777725"><ele>179.0</ele><time>2026-04-22T14:17:14.096Z</time></trkpt><trkpt lat="43.2829519" lon="11.377811"><ele>179.0</ele><time>2026-04-22T14:17:15.097Z</time></trkpt><trkpt lat="43.2828223" lon="11.3778717"><ele>178.75</ele><time>2026-04-22T14:17:16.104Z</time></trkpt><trkpt lat="43.2827001" lon="11.3779251"><ele>178.5</ele><time>2026-04-22T14:17:17.096Z</time></trkpt><trkpt lat="43.282582" lon="11.3779607"><ele>178.25</ele><time>2026-04-22T14:17:18.096Z</time></trkpt><trkpt lat="43.282468" lon="11.3779698"><ele>178.0</ele><time>2026-04-22T14:17:19.1Z</time></trkpt><trkpt lat="43.2823584" lon="11.3779428"><ele>177.8</ele><time>2026-04-22T14:17:20.094Z</time></trkpt><trkpt lat="43.282256" lon="11.3778839"><ele>177.60000000000002</ele><time>2026-04-22T14:17:21.097Z</time></trkpt><trkpt lat="43.2821683" lon="11.3777958"><ele>177.39999999999998</ele><time>2026-04-22T14:17:22.097Z</time></trkpt><trkpt lat="43.2820926" lon="11.3776871"><ele>177.2</ele><time>2026-04-22T14:17:23.097Z</time></trkpt><trkpt lat="43.2820282" lon="11.3775533"><ele>177.0</ele><time>2026-04-22T14:17:24.102Z</time></trkpt><trkpt lat="43.2819789" lon="11.3774078"><ele>177.0</ele><time>2026-04-22T14:17:25.098Z</time></trkpt><trkpt lat="43.2819488" lon="11.3772662"><ele>177.0</ele><time>2026-04-22T14:17:26.102Z</time></trkpt><trkpt lat="43.2819237" lon="11.3771299"><ele>177.0</ele><time>2026-04-22T14:17:27.097Z</time></trkpt><trkpt lat="43.2818964" lon="11.3769997"><ele>177.0</ele><time>2026-04-22T14:17:28.098Z</time></trkpt><trkpt lat="43.281871" lon="11.37689"><ele>177.0</ele><time>2026-04-22T14:17:29.095Z</time></trkpt><trkpt lat="43.2818562" lon="11.3768033"><ele>177.0</ele><time>2026-04-22T14:17:30.106Z</time></trkpt><trkpt lat="43.2818787" lon="11.3766495"><ele>177.0</ele><time>2026-04-22T14:17:32.102Z</time></trkpt><trkpt lat="43.2819108" lon="11.376575"><ele>177.0</ele><time>2026-04-22T14:17:33.093Z</time></trkpt><trkpt lat="43.2819445" lon="11.3764867"><ele>177.0</ele><time>2026-04-22T14:17:34.096Z</time></trkpt><trkpt lat="43.2819738" lon="11.3763901"><ele>177.0</ele><time>2026-04-22T14:17:35.096Z</time></trkpt><trkpt lat="43.2819842" lon="11.3762906"><ele>177.0</ele><time>2026-04-22T14:17:36.101Z</time></trkpt><trkpt lat="43.2819694" lon="11.3762004"><ele>177.0</ele><time>2026-04-22T14:17:37.093Z</time></trkpt><trkpt lat="43.2819354" lon="11.3761126"><ele>177.0</ele><time>2026-04-22T14:17:38.1Z</time></trkpt><trkpt lat="43.2818824" lon="11.3760408"><ele>177.0</ele><time>2026-04-22T14:17:39.095Z</time></trkpt><trkpt lat="43.2818044" lon="11.3759789"><ele>177.0</ele><time>2026-04-22T14:17:40.098Z</time></trkpt><trkpt lat="43.281708" lon="11.3758888"><ele>177.0</ele><time>2026-04-22T14:17:41.103Z</time></trkpt><trkpt lat="43.2816241" lon="11.3757513"><ele>177.0</ele><time>2026-04-22T14:17:42.105Z</time></trkpt><trkpt lat="43.2815636" lon="11.3755535"><ele>177.0</ele><time>2026-04-22T14:17:43.093Z</time></trkpt><trkpt lat="43.2815234" lon="11.3753224"><ele>177.0</ele><time>2026-04-22T14:17:44.097Z</time></trkpt><trkpt lat="43.2815183" lon="11.3750634"><ele>178.66666666666666</ele><time>2026-04-22T14:17:45.103Z</time></trkpt><trkpt lat="43.2815567" lon="11.3747999"><ele>180.33333333333331</ele><time>2026-04-22T14:17:46.095Z</time></trkpt><trkpt lat="43.2816264" lon="11.3745441"><ele>182.0</ele><time>2026-04-22T14:17:47.104Z</time></trkpt><trkpt lat="43.2817351" lon="11.3742909"><ele>184.33333333333331</ele><time>2026-04-22T14:17:48.103Z</time></trkpt><trkpt lat="43.281865" lon="11.3740426"><ele>186.66666666666666</ele><time>2026-04-22T14:17:49.1Z</time></trkpt><trkpt lat="43.2819998" lon="11.3738019"><ele>189.0</ele><time>2026-04-22T14:17:50.099Z</time></trkpt><trkpt lat="43.2821265" lon="11.3735562"><ele>190.0</ele><time>2026-04-22T14:17:51.103Z</time></trkpt><trkpt lat="43.2822307" lon="11.3733229"><ele>191.0</ele><time>2026-04-22T14:17:52.101Z</time></trkpt><trkpt lat="43.2823041" lon="11.3730755"><ele>192.0</ele><time>2026-04-22T14:17:53.096Z</time></trkpt><trkpt lat="43.2823456" lon="11.3727964"><ele>193.5</ele><time>2026-04-22T14:17:54.103Z</time></trkpt><trkpt lat="43.2823674" lon="11.3724905"><ele>195.0</ele><time>2026-04-22T14:17:55.102Z</time></trkpt><trkpt lat="43.2823817" lon="11.372171"><ele>197.0</ele><time>2026-04-22T14:17:56.101Z</time></trkpt><trkpt lat="43.2823985" lon="11.3718419"><ele>199.0</ele><time>2026-04-22T14:17:57.091Z</time></trkpt><trkpt lat="43.2824186" lon="11.3715076"><ele>200.0</ele><time>2026-04-22T14:17:58.092Z</time></trkpt><trkpt lat="43.2824428" lon="11.3711702"><ele>201.0</ele><time>2026-04-22T14:17:59.095Z</time></trkpt><trkpt lat="43.2824737" lon="11.3708335"><ele>203.0</ele><time>2026-04-22T14:18:00.099Z</time></trkpt><trkpt lat="43.2825252" lon="11.3705125"><ele>205.0</ele><time>2026-04-22T14:18:01.095Z</time></trkpt><trkpt lat="43.2826045" lon="11.3702035"><ele>205.0</ele><time>2026-04-22T14:18:02.101Z</time></trkpt><trkpt lat="43.2827135" lon="11.3698941"><ele>205.0</ele><time>2026-04-22T14:18:03.099Z</time></trkpt><trkpt lat="43.2828464" lon="11.3695938"><ele>204.5</ele><time>2026-04-22T14:18:04.1Z</time></trkpt><trkpt lat="43.2829944" lon="11.3692943"><ele>204.0</ele><time>2026-04-22T14:18:05.107Z</time></trkpt><trkpt lat="43.2831365" lon="11.3690126"><ele>206.0</ele><time>2026-04-22T14:18:06.091Z</time></trkpt><trkpt lat="43.2832696" lon="11.3687398"><ele>208.0</ele><time>2026-04-22T14:18:07.102Z</time></trkpt><trkpt lat="43.2833836" lon="11.3684659"><ele>208.0</ele><time>2026-04-22T14:18:08.105Z</time></trkpt><trkpt lat="43.283466" lon="11.3681801"><ele>208.0</ele><time>2026-04-22T14:18:09.1Z</time></trkpt><trkpt lat="43.2835107" lon="11.3678944"><ele>208.0</ele><time>2026-04-22T14:18:10.109Z</time></trkpt><trkpt lat="43.2835238" lon="11.3676067"><ele>208.0</ele><time>2026-04-22T14:18:11.098Z</time></trkpt><trkpt lat="43.283507" lon="11.3673212"><ele>208.0</ele><time>2026-04-22T14:18:12.1Z</time></trkpt><trkpt lat="43.2834486" lon="11.3670415"><ele>208.0</ele><time>2026-04-22T14:18:13.096Z</time></trkpt><trkpt lat="43.2833521" lon="11.3667648"><ele>209.5</ele><time>2026-04-22T14:18:14.108Z</time></trkpt><trkpt lat="43.2832326" lon="11.3664969"><ele>211.0</ele><time>2026-04-22T14:18:15.092Z</time></trkpt><trkpt lat="43.2830953" lon="11.3662565"><ele>212.33333333333331</ele><time>2026-04-22T14:18:16.106Z</time></trkpt><trkpt lat="43.2829304" lon="11.3660561"><ele>213.66666666666669</ele><time>2026-04-22T14:18:17.096Z</time></trkpt><trkpt lat="43.2827544" lon="11.3658695"><ele>215.0</ele><time>2026-04-22T14:18:18.095Z</time></trkpt><trkpt lat="43.2825743" lon="11.3657004"><ele>215.0</ele><time>2026-04-22T14:18:19.101Z</time></trkpt><trkpt lat="43.2824056" lon="11.3655224"><ele>215.0</ele><time>2026-04-22T14:18:20.099Z</time></trkpt><trkpt lat="43.2822569" lon="11.3653352"><ele>215.0</ele><time>2026-04-22T14:18:21.104Z</time></trkpt><trkpt lat="43.2821415" lon="11.3651373"><ele>215.0</ele><time>2026-04-22T14:18:22.103Z</time></trkpt><trkpt lat="43.2820703" lon="11.3649301"><ele>215.0</ele><time>2026-04-22T14:18:23.095Z</time></trkpt><trkpt lat="43.2820597" lon="11.3647079"><ele>215.0</ele><time>2026-04-22T14:18:24.096Z</time></trkpt><trkpt lat="43.282078" lon="11.3644779"><ele>213.66666666666669</ele><time>2026-04-22T14:18:25.094Z</time></trkpt><trkpt lat="43.2821192" lon="11.3642446"><ele>212.33333333333331</ele><time>2026-04-22T14:18:26.098Z</time></trkpt><trkpt lat="43.2821733" lon="11.3640089"><ele>211.0</ele><time>2026-04-22T14:18:27.096Z</time></trkpt><trkpt lat="43.2822655" lon="11.363778"><ele>214.0</ele><time>2026-04-22T14:18:28.104Z</time></trkpt><trkpt lat="43.2823855" lon="11.3635448"><ele>217.0</ele><time>2026-04-22T14:18:29.092Z</time></trkpt><trkpt lat="43.2825069" lon="11.3632998"><ele>220.0</ele><time>2026-04-22T14:18:30.093Z</time></trkpt><trkpt lat="43.2826348" lon="11.3630519"><ele>216.0</ele><time>2026-04-22T14:18:31.097Z</time></trkpt><trkpt lat="43.2827727" lon="11.3628017"><ele>212.0</ele><time>2026-04-22T14:18:32.092Z</time></trkpt><trkpt lat="43.2829093" lon="11.3625528"><ele>212.0</ele><time>2026-04-22T14:18:33.098Z</time></trkpt><trkpt lat="43.283036" lon="11.3622921"><ele>212.0</ele><time>2026-04-22T14:18:34.093Z</time></trkpt><trkpt lat="43.283149" lon="11.3620169"><ele>219.0</ele><time>2026-04-22T14:18:35.096Z</time></trkpt><trkpt lat="43.2832415" lon="11.3617292"><ele>226.0</ele><time>2026-04-22T14:18:36.105Z</time></trkpt><trkpt lat="43.2833135" lon="11.3614312"><ele>224.5</ele><time>2026-04-22T14:18:37.094Z</time></trkpt><trkpt lat="43.2833671" lon="11.3611286"><ele>223.0</ele><time>2026-04-22T14:18:38.093Z</time></trkpt><trkpt lat="43.2834174" lon="11.3608206"><ele>220.0</ele><time>2026-04-22T14:18:39.093Z</time></trkpt><trkpt lat="43.2834778" lon="11.3605165"><ele>217.0</ele><time>2026-04-22T14:18:40.104Z</time></trkpt><trkpt lat="43.2835523" lon="11.3602202"><ele>217.0</ele><time>2026-04-22T14:18:41.104Z</time></trkpt><trkpt lat="43.2836379" lon="11.3599278"><ele>217.0</ele><time>2026-04-22T14:18:42.092Z</time></trkpt><trkpt lat="43.2837298" lon="11.359628"><ele>216.0</ele><time>2026-04-22T14:18:43.094Z</time></trkpt><trkpt lat="43.2838208" lon="11.3593262"><ele>215.0</ele><time>2026-04-22T14:18:44.095Z</time></trkpt><trkpt lat="43.2839061" lon="11.3590223"><ele>222.0</ele><time>2026-04-22T14:18:45.093Z</time></trkpt><trkpt lat="43.2839913" lon="11.3587236"><ele>229.0</ele><time>2026-04-22T14:18:46.092Z</time></trkpt><trkpt lat="43.2840696" lon="11.3584423"><ele>229.0</ele><time>2026-04-22T14:18:47.101Z</time></trkpt><trkpt lat="43.2841367" lon="11.3581901"><ele>229.0</ele><time>2026-04-22T14:18:48.095Z</time></trkpt><trkpt lat="43.2841886" lon="11.3579677"><ele>229.0</ele><time>2026-04-22T14:18:49.101Z</time></trkpt><trkpt lat="43.2842312" lon="11.3577585"><ele>228.66666666666666</ele><time>2026-04-22T14:18:50.098Z</time></trkpt><trkpt lat="43.2842723" lon="11.3575572"><ele>228.33333333333331</ele><time>2026-04-22T14:18:51.106Z</time></trkpt><trkpt lat="43.2843146" lon="11.3573507"><ele>228.0</ele><time>2026-04-22T14:18:52.102Z</time></trkpt><trkpt lat="43.2843604" lon="11.3571415"><ele>227.66666666666669</ele><time>2026-04-22T14:18:53.094Z</time></trkpt><trkpt lat="43.2844113" lon="11.3569324"><ele>227.33333333333334</ele><time>2026-04-22T14:18:54.096Z</time></trkpt><trkpt lat="43.2844708" lon="11.3567204"><ele>227.0</ele><time>2026-04-22T14:18:55.09Z</time></trkpt><trkpt lat="43.28454" lon="11.3565056"><ele>226.66666666666669</ele><time>2026-04-22T14:18:56.099Z</time></trkpt><trkpt lat="43.2846139" lon="11.3562831"><ele>226.33333333333331</ele><time>2026-04-22T14:18:57.102Z</time></trkpt><trkpt lat="43.2846945" lon="11.3560514"><ele>226.0</ele><time>2026-04-22T14:18:58.096Z</time></trkpt><trkpt lat="43.2847823" lon="11.3558144"><ele>229.33333333333331</ele><time>2026-04-22T14:18:59.098Z</time></trkpt><trkpt lat="43.2848747" lon="11.3555763"><ele>232.66666666666669</ele><time>2026-04-22T14:19:00.093Z</time></trkpt><trkpt lat="43.2849649" lon="11.3553408"><ele>236.0</ele><time>2026-04-22T14:19:01.1Z</time></trkpt><trkpt lat="43.285043" lon="11.3551155"><ele>236.0</ele><time>2026-04-22T14:19:02.1Z</time></trkpt><trkpt lat="43.2851026" lon="11.3549039"><ele>236.0</ele><time>2026-04-22T14:19:03.097Z</time></trkpt><trkpt lat="43.2851316" lon="11.3546974"><ele>236.0</ele><time>2026-04-22T14:19:04.101Z</time></trkpt><trkpt lat="43.2851182" lon="11.3544975"><ele>236.66666666666669</ele><time>2026-04-22T14:19:05.097Z</time></trkpt><trkpt lat="43.2850555" lon="11.3543081"><ele>237.33333333333331</ele><time>2026-04-22T14:19:06.097Z</time></trkpt><trkpt lat="43.2849594" lon="11.3541386"><ele>238.0</ele><time>2026-04-22T14:19:07.101Z</time></trkpt><trkpt lat="43.2848423" lon="11.3539937"><ele>237.5</ele><time>2026-04-22T14:19:08.105Z</time></trkpt><trkpt lat="43.2847333" lon="11.3538597"><ele>237.0</ele><time>2026-04-22T14:19:09.096Z</time></trkpt><trkpt lat="43.2846335" lon="11.3537317"><ele>236.5</ele><time>2026-04-22T14:19:10.103Z</time></trkpt><trkpt lat="43.2845493" lon="11.3536136"><ele>236.0</ele><time>2026-04-22T14:19:11.1Z</time></trkpt><trkpt lat="43.2844891" lon="11.3535084"><ele>236.00000000000003</ele><time>2026-04-22T14:19:12.099Z</time></trkpt><trkpt lat="43.2844505" lon="11.3534313"><ele>236.0</ele><time>2026-04-22T14:19:13.099Z</time></trkpt><trkpt lat="43.2843995" lon="11.3533655"><ele>236.0</ele><time>2026-04-22T14:19:15.093Z</time></trkpt><trkpt lat="43.2842916" lon="11.3533851"><ele>236.0</ele><time>2026-04-22T14:19:17.095Z</time></trkpt><trkpt lat="43.2842135" lon="11.3534311"><ele>236.00000000000003</ele><time>2026-04-22T14:19:18.1Z</time></trkpt><trkpt lat="43.2841241" lon="11.3534933"><ele>236.0</ele><time>2026-04-22T14:19:19.096Z</time></trkpt><trkpt lat="43.2840185" lon="11.353549"><ele>236.5</ele><time>2026-04-22T14:19:20.095Z</time></trkpt><trkpt lat="43.2839017" lon="11.3536039"><ele>237.0</ele><time>2026-04-22T14:19:21.106Z</time></trkpt><trkpt lat="43.2837742" lon="11.3536518"><ele>237.5</ele><time>2026-04-22T14:19:22.104Z</time></trkpt><trkpt lat="43.2836388" lon="11.3536839"><ele>238.0</ele><time>2026-04-22T14:19:23.103Z</time></trkpt><trkpt lat="43.283501" lon="11.3537029"><ele>238.0</ele><time>2026-04-22T14:19:24.093Z</time></trkpt><trkpt lat="43.2833666" lon="11.3537059"><ele>238.0</ele><time>2026-04-22T14:19:25.1Z</time></trkpt><trkpt lat="43.2832375" lon="11.3536932"><ele>238.0</ele><time>2026-04-22T14:19:26.091Z</time></trkpt><trkpt lat="43.2831125" lon="11.3536693"><ele>238.0</ele><time>2026-04-22T14:19:27.102Z</time></trkpt><trkpt lat="43.2829911" lon="11.353641"><ele>238.0</ele><time>2026-04-22T14:19:28.093Z</time></trkpt><trkpt lat="43.2828689" lon="11.3536152"><ele>238.0</ele><time>2026-04-22T14:19:29.091Z</time></trkpt><trkpt lat="43.2827472" lon="11.3535894"><ele>238.0</ele><time>2026-04-22T14:19:30.092Z</time></trkpt><trkpt lat="43.2826255" lon="11.3535606"><ele>238.0</ele><time>2026-04-22T14:19:31.095Z</time></trkpt><trkpt lat="43.2825039" lon="11.3535324"><ele>238.0</ele><time>2026-04-22T14:19:32.107Z</time></trkpt><trkpt lat="43.2823843" lon="11.3535007"><ele>238.0</ele><time>2026-04-22T14:19:33.092Z</time></trkpt><trkpt lat="43.2822601" lon="11.3534696"><ele>238.0</ele><time>2026-04-22T14:19:34.105Z</time></trkpt><trkpt lat="43.2821343" lon="11.3534448"><ele>238.0</ele><time>2026-04-22T14:19:35.094Z</time></trkpt><trkpt lat="43.2820076" lon="11.3534242"><ele>238.0</ele><time>2026-04-22T14:19:36.109Z</time></trkpt><trkpt lat="43.2818801" lon="11.3533988"><ele>238.0</ele><time>2026-04-22T14:19:37.095Z</time></trkpt><trkpt lat="43.2817522" lon="11.3533724"><ele>238.0</ele><time>2026-04-22T14:19:38.097Z</time></trkpt><trkpt lat="43.2816237" lon="11.3533423"><ele>238.0</ele><time>2026-04-22T14:19:39.112Z</time></trkpt><trkpt lat="43.2814953" lon="11.3533076"><ele>238.0</ele><time>2026-04-22T14:19:40.103Z</time></trkpt><trkpt lat="43.2813675" lon="11.3532701"><ele>238.0</ele><time>2026-04-22T14:19:41.122Z</time></trkpt><trkpt lat="43.2812411" lon="11.3532338"><ele>238.0</ele><time>2026-04-22T14:19:42.11Z</time></trkpt><trkpt lat="43.2811149" lon="11.3531961"><ele>238.0</ele><time>2026-04-22T14:19:43.116Z</time></trkpt><trkpt lat="43.2809873" lon="11.3531544"><ele>238.0</ele><time>2026-04-22T14:19:44.117Z</time></trkpt><trkpt lat="43.2808577" lon="11.35311"><ele>238.0</ele><time>2026-04-22T14:19:45.113Z</time></trkpt><trkpt lat="43.2807288" lon="11.3530609"><ele>238.0</ele><time>2026-04-22T14:19:46.113Z</time></trkpt><trkpt lat="43.2805962" lon="11.3530072"><ele>238.0</ele><time>2026-04-22T14:19:47.102Z</time></trkpt><trkpt lat="43.2804581" lon="11.3529585"><ele>236.0</ele><time>2026-04-22T14:19:48.104Z</time></trkpt><trkpt lat="43.2803169" lon="11.3529113"><ele>234.0</ele><time>2026-04-22T14:19:49.11Z</time></trkpt><trkpt lat="43.280174" lon="11.3528624"><ele>232.0</ele><time>2026-04-22T14:19:50.112Z</time></trkpt><trkpt lat="43.2800329" lon="11.3528156"><ele>230.0</ele><time>2026-04-22T14:19:51.123Z</time></trkpt><trkpt lat="43.2798913" lon="11.3527764"><ele>229.25</ele><time>2026-04-22T14:19:52.099Z</time></trkpt><trkpt lat="43.2797505" lon="11.3527399"><ele>228.5</ele><time>2026-04-22T14:19:53.102Z</time></trkpt><trkpt lat="43.2796082" lon="11.3527041"><ele>227.75</ele><time>2026-04-22T14:19:54.103Z</time></trkpt><trkpt lat="43.2794622" lon="11.3526752"><ele>227.0</ele><time>2026-04-22T14:19:55.104Z</time></trkpt><trkpt lat="43.2793075" lon="11.3526542"><ele>227.0</ele><time>2026-04-22T14:19:56.12Z</time></trkpt><trkpt lat="43.2791526" lon="11.3526388"><ele>227.0</ele><time>2026-04-22T14:19:57.12Z</time></trkpt><trkpt lat="43.2790045" lon="11.3526289"><ele>227.0</ele><time>2026-04-22T14:19:58.122Z</time></trkpt><trkpt lat="43.2788681" lon="11.352632"><ele>227.0</ele><time>2026-04-22T14:19:59.119Z</time></trkpt><trkpt lat="43.278748" lon="11.3526525"><ele>227.00000000000003</ele><time>2026-04-22T14:20:00.1Z</time></trkpt><trkpt lat="43.2786457" lon="11.3526812"><ele>227.0</ele><time>2026-04-22T14:20:01.101Z</time></trkpt><trkpt lat="43.2785642" lon="11.3527037"><ele>227.0</ele><time>2026-04-22T14:20:02.102Z</time></trkpt><trkpt lat="43.2784993" lon="11.3527267"><ele>227.0</ele><time>2026-04-22T14:20:03.092Z</time></trkpt><trkpt lat="43.2784106" lon="11.3527526"><ele>227.00000000000003</ele><time>2026-04-22T14:20:05.104Z</time></trkpt><trkpt lat="43.2783279" lon="11.352783"><ele>227.0</ele><time>2026-04-22T14:20:08.1Z</time></trkpt><trkpt lat="43.2782204" lon="11.3528087"><ele>227.00000000000003</ele><time>2026-04-22T14:20:10.111Z</time></trkpt><trkpt lat="43.278151" lon="11.3528309"><ele>227.0</ele><time>2026-04-22T14:20:11.113Z</time></trkpt><trkpt lat="43.2780701" lon="11.3528574"><ele>227.0</ele><time>2026-04-22T14:20:12.107Z</time></trkpt><trkpt lat="43.2779904" lon="11.352887"><ele>227.0</ele><time>2026-04-22T14:20:13.097Z</time></trkpt><trkpt lat="43.2779213" lon="11.3529092"><ele>227.00000000000003</ele><time>2026-04-22T14:20:14.103Z</time></trkpt><trkpt lat="43.2777946" lon="11.3529478"><ele>227.0</ele><time>2026-04-22T14:20:16.103Z</time></trkpt><trkpt lat="43.2777256" lon="11.3529512"><ele>228.33333333333334</ele><time>2026-04-22T14:20:17.1Z</time></trkpt><trkpt lat="43.2776556" lon="11.3529362"><ele>229.66666666666669</ele><time>2026-04-22T14:20:18.098Z</time></trkpt><trkpt lat="43.2775843" lon="11.3528938"><ele>231.0</ele><time>2026-04-22T14:20:19.101Z</time></trkpt><trkpt lat="43.2775031" lon="11.3528348"><ele>232.33333333333331</ele><time>2026-04-22T14:20:20.098Z</time></trkpt><trkpt lat="43.2774239" lon="11.3527698"><ele>233.66666666666666</ele><time>2026-04-22T14:20:21.092Z</time></trkpt><trkpt lat="43.2773511" lon="11.3527124"><ele>235.0</ele><time>2026-04-22T14:20:22.1Z</time></trkpt><trkpt lat="43.2772781" lon="11.3526583"><ele>234.8</ele><time>2026-04-22T14:20:23.098Z</time></trkpt><trkpt lat="43.277204" lon="11.3525941"><ele>234.6</ele><time>2026-04-22T14:20:24.099Z</time></trkpt><trkpt lat="43.2771372" lon="11.3525365"><ele>234.39999999999998</ele><time>2026-04-22T14:20:25.097Z</time></trkpt><trkpt lat="43.2770635" lon="11.3524461"><ele>234.2</ele><time>2026-04-22T14:20:27.101Z</time></trkpt><trkpt lat="43.2771255" lon="11.3525404"><ele>234.0</ele><time>2026-04-22T14:20:34.1Z</time></trkpt><trkpt lat="43.2772096" lon="11.3525996"><ele>234.25</ele><time>2026-04-22T14:20:35.102Z</time></trkpt><trkpt lat="43.2773256" lon="11.3526823"><ele>234.5</ele><time>2026-04-22T14:20:36.097Z</time></trkpt><trkpt lat="43.2774503" lon="11.3527811"><ele>234.75</ele><time>2026-04-22T14:20:37.101Z</time></trkpt><trkpt lat="43.2775743" lon="11.3528794"><ele>235.0</ele><time>2026-04-22T14:20:38.104Z</time></trkpt><trkpt lat="43.2776883" lon="11.352967"><ele>235.0</ele><time>2026-04-22T14:20:39.103Z</time></trkpt><trkpt lat="43.2777756" lon="11.3530145"><ele>235.0</ele><time>2026-04-22T14:20:40.092Z</time></trkpt><trkpt lat="43.2778549" lon="11.353019"><ele>235.0</ele><time>2026-04-22T14:20:41.096Z</time></trkpt><trkpt lat="43.2779498" lon="11.3529951"><ele>235.0</ele><time>2026-04-22T14:20:42.101Z</time></trkpt><trkpt lat="43.2780559" lon="11.3529466"><ele>235.0</ele><time>2026-04-22T14:20:43.1Z</time></trkpt><trkpt lat="43.2781551" lon="11.3528863"><ele>233.4</ele><time>2026-04-22T14:20:44.095Z</time></trkpt><trkpt lat="43.2782527" lon="11.3528365"><ele>231.8</ele><time>2026-04-22T14:20:45.103Z</time></trkpt><trkpt lat="43.27834" lon="11.3527915"><ele>230.2</ele><time>2026-04-22T14:20:46.107Z</time></trkpt><trkpt lat="43.2784141" lon="11.3527577"><ele>228.6</ele><time>2026-04-22T14:20:47.103Z</time></trkpt><trkpt lat="43.2785026" lon="11.3527346"><ele>227.0</ele><time>2026-04-22T14:20:49.101Z</time></trkpt><trkpt lat="43.2784556" lon="11.3528508"><ele>227.0</ele><time>2026-04-22T14:20:52.1Z</time></trkpt><trkpt lat="43.278379" lon="11.3529134"><ele>227.0</ele><time>2026-04-22T14:20:53.093Z</time></trkpt><trkpt lat="43.2782642" lon="11.3529889"><ele>227.0</ele><time>2026-04-22T14:20:54.1Z</time></trkpt><trkpt lat="43.2781235" lon="11.3530745"><ele>227.0</ele><time>2026-04-22T14:20:55.102Z</time></trkpt><trkpt lat="43.2779534" lon="11.3531656"><ele>228.33333333333334</ele><time>2026-04-22T14:20:56.099Z</time></trkpt><trkpt lat="43.2777703" lon="11.3532681"><ele>229.66666666666669</ele><time>2026-04-22T14:20:57.095Z</time></trkpt><trkpt lat="43.2775779" lon="11.3533718"><ele>231.0</ele><time>2026-04-22T14:20:58.093Z</time></trkpt><trkpt lat="43.2773825" lon="11.3534784"><ele>231.33333333333331</ele><time>2026-04-22T14:20:59.101Z</time></trkpt><trkpt lat="43.2771828" lon="11.3535809"><ele>231.66666666666666</ele><time>2026-04-22T14:21:00.097Z</time></trkpt><trkpt lat="43.2769743" lon="11.3536664"><ele>232.0</ele><time>2026-04-22T14:21:01.102Z</time></trkpt><trkpt lat="43.2767604" lon="11.3537242"><ele>232.0</ele><time>2026-04-22T14:21:02.102Z</time></trkpt><trkpt lat="43.2765419" lon="11.3537608"><ele>232.0</ele><time>2026-04-22T14:21:03.108Z</time></trkpt><trkpt lat="43.2763247" lon="11.353793"><ele>232.0</ele><time>2026-04-22T14:21:04.1Z</time></trkpt><trkpt lat="43.2761139" lon="11.3538248"><ele>230.33333333333331</ele><time>2026-04-22T14:21:05.097Z</time></trkpt><trkpt lat="43.2759202" lon="11.3538578"><ele>228.66666666666669</ele><time>2026-04-22T14:21:06.104Z</time></trkpt><trkpt lat="43.2757396" lon="11.3538934"><ele>227.0</ele><time>2026-04-22T14:21:07.101Z</time></trkpt><trkpt lat="43.2755749" lon="11.3539291"><ele>225.33333333333334</ele><time>2026-04-22T14:21:08.102Z</time></trkpt><trkpt lat="43.275418" lon="11.3539659"><ele>223.66666666666669</ele><time>2026-04-22T14:21:09.107Z</time></trkpt><trkpt lat="43.2752571" lon="11.3540061"><ele>222.0</ele><time>2026-04-22T14:21:10.1Z</time></trkpt><trkpt lat="43.2750921" lon="11.3540461"><ele>222.0</ele><time>2026-04-22T14:21:11.1Z</time></trkpt><trkpt lat="43.2749309" lon="11.3540903"><ele>222.0</ele><time>2026-04-22T14:21:12.098Z</time></trkpt><trkpt lat="43.2747672" lon="11.3541506"><ele>222.0</ele><time>2026-04-22T14:21:13.102Z</time></trkpt><trkpt lat="43.2746096" lon="11.3542388"><ele>223.0</ele><time>2026-04-22T14:21:14.108Z</time></trkpt><trkpt lat="43.274468" lon="11.354357"><ele>224.0</ele><time>2026-04-22T14:21:15.097Z</time></trkpt><trkpt lat="43.2743474" lon="11.3545021"><ele>225.0</ele><time>2026-04-22T14:21:16.098Z</time></trkpt><trkpt lat="43.2742439" lon="11.3546574"><ele>224.0</ele><time>2026-04-22T14:21:17.104Z</time></trkpt><trkpt lat="43.2741439" lon="11.3548204"><ele>223.0</ele><time>2026-04-22T14:21:18.102Z</time></trkpt><trkpt lat="43.2740394" lon="11.3549853"><ele>222.0</ele><time>2026-04-22T14:21:19.104Z</time></trkpt><trkpt lat="43.2739269" lon="11.3551409"><ele>222.33333333333331</ele><time>2026-04-22T14:21:20.095Z</time></trkpt><trkpt lat="43.2738075" lon="11.3552883"><ele>222.66666666666666</ele><time>2026-04-22T14:21:21.101Z</time></trkpt><trkpt lat="43.2736822" lon="11.3554301"><ele>223.0</ele><time>2026-04-22T14:21:22.104Z</time></trkpt><trkpt lat="43.2735583" lon="11.3555692"><ele>223.0</ele><time>2026-04-22T14:21:23.094Z</time></trkpt><trkpt lat="43.2734404" lon="11.3557"><ele>223.0</ele><time>2026-04-22T14:21:24.092Z</time></trkpt><trkpt lat="43.2733301" lon="11.3558224"><ele>223.0</ele><time>2026-04-22T14:21:25.096Z</time></trkpt><trkpt lat="43.2732258" lon="11.3559358"><ele>223.0</ele><time>2026-04-22T14:21:26.1Z</time></trkpt><trkpt lat="43.2731284" lon="11.3560435"><ele>224.0</ele><time>2026-04-22T14:21:27.096Z</time></trkpt><trkpt lat="43.2730352" lon="11.3561424"><ele>225.0</ele><time>2026-04-22T14:21:28.095Z</time></trkpt><trkpt lat="43.272949" lon="11.3562327"><ele>226.0</ele><time>2026-04-22T14:21:29.09Z</time></trkpt><trkpt lat="43.2728638" lon="11.3563244"><ele>227.0</ele><time>2026-04-22T14:21:30.091Z</time></trkpt><trkpt lat="43.2727727" lon="11.3564268"><ele>227.0</ele><time>2026-04-22T14:21:31.094Z</time></trkpt><trkpt lat="43.2726751" lon="11.3565385"><ele>227.0</ele><time>2026-04-22T14:21:32.105Z</time></trkpt><trkpt lat="43.2725734" lon="11.3566598"><ele>227.0</ele><time>2026-04-22T14:21:33.095Z</time></trkpt><trkpt lat="43.2724681" lon="11.3567845"><ele>227.0</ele><time>2026-04-22T14:21:34.102Z</time></trkpt><trkpt lat="43.2723566" lon="11.3569092"><ele>226.0</ele><time>2026-04-22T14:21:35.097Z</time></trkpt><trkpt lat="43.2722422" lon="11.3570342"><ele>225.0</ele><time>2026-04-22T14:21:36.099Z</time></trkpt><trkpt lat="43.2721286" lon="11.3571536"><ele>224.0</ele><time>2026-04-22T14:21:37.099Z</time></trkpt><trkpt lat="43.2720224" lon="11.3572626"><ele>223.0</ele><time>2026-04-22T14:21:38.097Z</time></trkpt><trkpt lat="43.2719322" lon="11.3573531"><ele>223.0</ele><time>2026-04-22T14:21:39.095Z</time></trkpt><trkpt lat="43.2718661" lon="11.3574064"><ele>223.0</ele><time>2026-04-22T14:21:40.099Z</time></trkpt><trkpt lat="43.2717594" lon="11.3573872"><ele>223.0</ele><time>2026-04-22T14:21:42.1Z</time></trkpt><trkpt lat="43.2716884" lon="11.3573154"><ele>223.0</ele><time>2026-04-22T14:21:43.095Z</time></trkpt><trkpt lat="43.2716042" lon="11.3572168"><ele>223.0</ele><time>2026-04-22T14:21:44.099Z</time></trkpt><trkpt lat="43.271511" lon="11.3571112"><ele>222.75</ele><time>2026-04-22T14:21:45.106Z</time></trkpt><trkpt lat="43.2714121" lon="11.3570101"><ele>222.5</ele><time>2026-04-22T14:21:46.104Z</time></trkpt><trkpt lat="43.2713155" lon="11.3569114"><ele>222.25</ele><time>2026-04-22T14:21:47.098Z</time></trkpt><trkpt lat="43.2712245" lon="11.3568155"><ele>222.0</ele><time>2026-04-22T14:21:48.094Z</time></trkpt><trkpt lat="43.2711406" lon="11.3567216"><ele>222.0</ele><time>2026-04-22T14:21:49.101Z</time></trkpt><trkpt lat="43.2710614" lon="11.3566351"><ele>222.0</ele><time>2026-04-22T14:21:50.091Z</time></trkpt><trkpt lat="43.270983" lon="11.3565522"><ele>222.0</ele><time>2026-04-22T14:21:51.096Z</time></trkpt><trkpt lat="43.2709023" lon="11.3564673"><ele>222.0</ele><time>2026-04-22T14:21:52.097Z</time></trkpt><trkpt lat="43.2708151" lon="11.356381"><ele>222.0</ele><time>2026-04-22T14:21:53.095Z</time></trkpt><trkpt lat="43.2707242" lon="11.3562939"><ele>220.0</ele><time>2026-04-22T14:21:54.103Z</time></trkpt><trkpt lat="43.2706352" lon="11.3562061"><ele>218.0</ele><time>2026-04-22T14:21:55.09Z</time></trkpt><trkpt lat="43.2705529" lon="11.3561207"><ele>216.0</ele><time>2026-04-22T14:21:56.102Z</time></trkpt><trkpt lat="43.2704759" lon="11.3560438"><ele>214.0</ele><time>2026-04-22T14:21:57.095Z</time></trkpt><trkpt lat="43.2703981" lon="11.3559822"><ele>212.0</ele><time>2026-04-22T14:21:58.094Z</time></trkpt><trkpt lat="43.270313" lon="11.3559393"><ele>211.5</ele><time>2026-04-22T14:21:59.108Z</time></trkpt><trkpt lat="43.2702163" lon="11.3559174"><ele>211.0</ele><time>2026-04-22T14:22:00.092Z</time></trkpt><trkpt lat="43.2701069" lon="11.3559176"><ele>210.5</ele><time>2026-04-22T14:22:01.101Z</time></trkpt><trkpt lat="43.2699828" lon="11.3559307"><ele>210.0</ele><time>2026-04-22T14:22:02.099Z</time></trkpt><trkpt lat="43.2698568" lon="11.3559517"><ele>207.0</ele><time>2026-04-22T14:22:03.092Z</time></trkpt><trkpt lat="43.2697368" lon="11.3559826"><ele>204.0</ele><time>2026-04-22T14:22:04.104Z</time></trkpt><trkpt lat="43.2696202" lon="11.3560366"><ele>201.0</ele><time>2026-04-22T14:22:05.098Z</time></trkpt><trkpt lat="43.269511" lon="11.356113"><ele>198.0</ele><time>2026-04-22T14:22:06.102Z</time></trkpt><trkpt lat="43.2694048" lon="11.3562122"><ele>198.0</ele><time>2026-04-22T14:22:07.095Z</time></trkpt><trkpt lat="43.2693038" lon="11.3563274"><ele>198.0</ele><time>2026-04-22T14:22:08.099Z</time></trkpt><trkpt lat="43.2692138" lon="11.3564512"><ele>198.0</ele><time>2026-04-22T14:22:09.107Z</time></trkpt><trkpt lat="43.2691338" lon="11.356587"><ele>198.0</ele><time>2026-04-22T14:22:10.097Z</time></trkpt><trkpt lat="43.2690648" lon="11.3567361"><ele>199.0</ele><time>2026-04-22T14:22:11.106Z</time></trkpt><trkpt lat="43.26901" lon="11.3568907"><ele>200.0</ele><time>2026-04-22T14:22:12.092Z</time></trkpt><trkpt lat="43.2689711" lon="11.357042"><ele>201.0</ele><time>2026-04-22T14:22:13.098Z</time></trkpt><trkpt lat="43.2689477" lon="11.3571924"><ele>202.0</ele><time>2026-04-22T14:22:14.104Z</time></trkpt><trkpt lat="43.268935" lon="11.3573574"><ele>198.75</ele><time>2026-04-22T14:22:15.102Z</time></trkpt><trkpt lat="43.2689294" lon="11.357526"><ele>195.5</ele><time>2026-04-22T14:22:16.107Z</time></trkpt><trkpt lat="43.2689268" lon="11.357697"><ele>192.25</ele><time>2026-04-22T14:22:17.101Z</time></trkpt><trkpt lat="43.2689255" lon="11.3578746"><ele>189.0</ele><time>2026-04-22T14:22:18.092Z</time></trkpt><trkpt lat="43.2689245" lon="11.3580529"><ele>189.0</ele><time>2026-04-22T14:22:19.1Z</time></trkpt><trkpt lat="43.2689147" lon="11.3582346"><ele>189.0</ele><time>2026-04-22T14:22:20.102Z</time></trkpt><trkpt lat="43.2688911" lon="11.358426"><ele>189.0</ele><time>2026-04-22T14:22:21.102Z</time></trkpt><trkpt lat="43.2688578" lon="11.3586233"><ele>189.0</ele><time>2026-04-22T14:22:22.095Z</time></trkpt><trkpt lat="43.268802" lon="11.3588102"><ele>189.25</ele><time>2026-04-22T14:22:23.092Z</time></trkpt><trkpt lat="43.2687277" lon="11.3589785"><ele>189.5</ele><time>2026-04-22T14:22:24.098Z</time></trkpt><trkpt lat="43.2686319" lon="11.3591254"><ele>189.75</ele><time>2026-04-22T14:22:25.101Z</time></trkpt><trkpt lat="43.2685186" lon="11.359244"><ele>190.0</ele><time>2026-04-22T14:22:26.099Z</time></trkpt><trkpt lat="43.2683843" lon="11.3593364"><ele>190.0</ele><time>2026-04-22T14:22:27.097Z</time></trkpt><trkpt lat="43.2682389" lon="11.3594028"><ele>190.0</ele><time>2026-04-22T14:22:28.093Z</time></trkpt><trkpt lat="43.2680849" lon="11.359441"><ele>190.0</ele><time>2026-04-22T14:22:29.105Z</time></trkpt><trkpt lat="43.2679263" lon="11.3594494"><ele>188.66666666666669</ele><time>2026-04-22T14:22:30.103Z</time></trkpt><trkpt lat="43.2677722" lon="11.3594237"><ele>187.33333333333334</ele><time>2026-04-22T14:22:31.096Z</time></trkpt><trkpt lat="43.2676205" lon="11.3593648"><ele>186.0</ele><time>2026-04-22T14:22:32.102Z</time></trkpt><trkpt lat="43.2674589" lon="11.3592857"><ele>186.0</ele><time>2026-04-22T14:22:33.094Z</time></trkpt><trkpt lat="43.2672864" lon="11.3591986"><ele>186.0</ele><time>2026-04-22T14:22:34.095Z</time></trkpt><trkpt lat="43.2671103" lon="11.3591154"><ele>186.0</ele><time>2026-04-22T14:22:35.098Z</time></trkpt><trkpt lat="43.2669344" lon="11.3590399"><ele>185.66666666666666</ele><time>2026-04-22T14:22:36.095Z</time></trkpt><trkpt lat="43.2667636" lon="11.3589692"><ele>185.33333333333331</ele><time>2026-04-22T14:22:37.096Z</time></trkpt><trkpt lat="43.2665979" lon="11.3589016"><ele>185.0</ele><time>2026-04-22T14:22:38.098Z</time></trkpt><trkpt lat="43.2664337" lon="11.3588327"><ele>185.0</ele><time>2026-04-22T14:22:39.101Z</time></trkpt><trkpt lat="43.2662591" lon="11.3587594"><ele>185.0</ele><time>2026-04-22T14:22:40.099Z</time></trkpt><trkpt lat="43.2660802" lon="11.3586866"><ele>185.0</ele><time>2026-04-22T14:22:41.095Z</time></trkpt><trkpt lat="43.2659112" lon="11.3586091"><ele>185.0</ele><time>2026-04-22T14:22:42.1Z</time></trkpt><trkpt lat="43.2657523" lon="11.3585355"><ele>185.0</ele><time>2026-04-22T14:22:43.101Z</time></trkpt><trkpt lat="43.2656004" lon="11.3584715"><ele>185.0</ele><time>2026-04-22T14:22:44.094Z</time></trkpt><trkpt lat="43.2654492" lon="11.3584112"><ele>184.75</ele><time>2026-04-22T14:22:45.102Z</time></trkpt><trkpt lat="43.2652979" lon="11.3583485"><ele>184.5</ele><time>2026-04-22T14:22:46.097Z</time></trkpt><trkpt lat="43.2651558" lon="11.3582901"><ele>184.25</ele><time>2026-04-22T14:22:47.096Z</time></trkpt><trkpt lat="43.2650291" lon="11.3582439"><ele>184.0</ele><time>2026-04-22T14:22:48.098Z</time></trkpt><trkpt lat="43.2649177" lon="11.3582219"><ele>184.0</ele><time>2026-04-22T14:22:49.102Z</time></trkpt><trkpt lat="43.2648158" lon="11.3582273"><ele>184.0</ele><time>2026-04-22T14:22:50.106Z</time></trkpt><trkpt lat="43.2647209" lon="11.3582715"><ele>184.0</ele><time>2026-04-22T14:22:51.09Z</time></trkpt><trkpt lat="43.2646308" lon="11.3583538"><ele>184.0</ele><time>2026-04-22T14:22:52.095Z</time></trkpt><trkpt lat="43.2645412" lon="11.3584584"><ele>184.0</ele><time>2026-04-22T14:22:53.094Z</time></trkpt><trkpt lat="43.2644621" lon="11.358582"><ele>184.0</ele><time>2026-04-22T14:22:54.096Z</time></trkpt><trkpt lat="43.26439" lon="11.3587391"><ele>184.0</ele><time>2026-04-22T14:22:55.097Z</time></trkpt><trkpt lat="43.2643059" lon="11.3589226"><ele>184.0</ele><time>2026-04-22T14:22:56.106Z</time></trkpt><trkpt lat="43.2642065" lon="11.3590912"><ele>184.0</ele><time>2026-04-22T14:22:57.092Z</time></trkpt><trkpt lat="43.2640877" lon="11.3592474"><ele>184.0</ele><time>2026-04-22T14:22:58.096Z</time></trkpt><trkpt lat="43.2639566" lon="11.3593734"><ele>184.0</ele><time>2026-04-22T14:22:59.103Z</time></trkpt><trkpt lat="43.2638038" lon="11.3594669"><ele>183.66666666666669</ele><time>2026-04-22T14:23:00.096Z</time></trkpt><trkpt lat="43.2636516" lon="11.3595584"><ele>183.33333333333334</ele><time>2026-04-22T14:23:01.101Z</time></trkpt><trkpt lat="43.2634997" lon="11.3596545"><ele>183.0</ele><time>2026-04-22T14:23:02.107Z</time></trkpt><trkpt lat="43.2633513" lon="11.3597703"><ele>182.66666666666666</ele><time>2026-04-22T14:23:03.098Z</time></trkpt><trkpt lat="43.2632093" lon="11.359904"><ele>182.33333333333331</ele><time>2026-04-22T14:23:04.097Z</time></trkpt><trkpt lat="43.2630715" lon="11.3600508"><ele>182.0</ele><time>2026-04-22T14:23:05.109Z</time></trkpt><trkpt lat="43.2629392" lon="11.3601971"><ele>182.33333333333331</ele><time>2026-04-22T14:23:06.101Z</time></trkpt><trkpt lat="43.262809" lon="11.360349"><ele>182.66666666666666</ele><time>2026-04-22T14:23:07.106Z</time></trkpt><trkpt lat="43.262685" lon="11.360502"><ele>183.0</ele><time>2026-04-22T14:23:08.108Z</time></trkpt><trkpt lat="43.2625626" lon="11.3606532"><ele>183.0</ele><time>2026-04-22T14:23:09.105Z</time></trkpt><trkpt lat="43.2624459" lon="11.3608075"><ele>183.0</ele><time>2026-04-22T14:23:10.098Z</time></trkpt><trkpt lat="43.26233" lon="11.3609599"><ele>183.0</ele><time>2026-04-22T14:23:11.105Z</time></trkpt><trkpt lat="43.2622166" lon="11.3611089"><ele>182.66666666666666</ele><time>2026-04-22T14:23:12.101Z</time></trkpt><trkpt lat="43.2621011" lon="11.3612529"><ele>182.33333333333331</ele><time>2026-04-22T14:23:13.106Z</time></trkpt><trkpt lat="43.2619798" lon="11.361384"><ele>182.0</ele><time>2026-04-22T14:23:14.099Z</time></trkpt><trkpt lat="43.2618513" lon="11.3615006"><ele>182.0</ele><time>2026-04-22T14:23:15.097Z</time></trkpt><trkpt lat="43.2617171" lon="11.361604"><ele>182.0</ele><time>2026-04-22T14:23:16.105Z</time></trkpt><trkpt lat="43.2615765" lon="11.3616957"><ele>182.0</ele><time>2026-04-22T14:23:17.104Z</time></trkpt><trkpt lat="43.2614302" lon="11.3617783"><ele>182.0</ele><time>2026-04-22T14:23:18.104Z</time></trkpt><trkpt lat="43.2612805" lon="11.3618552"><ele>182.0</ele><time>2026-04-22T14:23:19.097Z</time></trkpt><trkpt lat="43.2611254" lon="11.3619229"><ele>182.0</ele><time>2026-04-22T14:23:20.097Z</time></trkpt><trkpt lat="43.2609656" lon="11.3619676"><ele>182.0</ele><time>2026-04-22T14:23:21.096Z</time></trkpt><trkpt lat="43.2608027" lon="11.3619896"><ele>182.0</ele><time>2026-04-22T14:23:22.098Z</time></trkpt><trkpt lat="43.2606432" lon="11.3619981"><ele>182.0</ele><time>2026-04-22T14:23:23.103Z</time></trkpt><trkpt lat="43.2604828" lon="11.3619907"><ele>183.0</ele><time>2026-04-22T14:23:24.107Z</time></trkpt><trkpt lat="43.2603162" lon="11.3619539"><ele>184.0</ele><time>2026-04-22T14:23:25.099Z</time></trkpt><trkpt lat="43.2601349" lon="11.3618921"><ele>185.0</ele><time>2026-04-22T14:23:26.101Z</time></trkpt><trkpt lat="43.2599422" lon="11.3618226"><ele>187.66666666666666</ele><time>2026-04-22T14:23:27.097Z</time></trkpt><trkpt lat="43.2597438" lon="11.3617516"><ele>190.33333333333331</ele><time>2026-04-22T14:23:28.105Z</time></trkpt><trkpt lat="43.2595507" lon="11.361669"><ele>193.0</ele><time>2026-04-22T14:23:29.105Z</time></trkpt><trkpt lat="43.2593719" lon="11.3615769"><ele>193.0</ele><time>2026-04-22T14:23:30.101Z</time></trkpt><trkpt lat="43.2591996" lon="11.3614828"><ele>193.0</ele><time>2026-04-22T14:23:31.1Z</time></trkpt><trkpt lat="43.2590336" lon="11.3613856"><ele>193.0</ele><time>2026-04-22T14:23:32.103Z</time></trkpt><trkpt lat="43.2588741" lon="11.3612812"><ele>193.66666666666666</ele><time>2026-04-22T14:23:33.104Z</time></trkpt><trkpt lat="43.2587218" lon="11.3611587"><ele>194.33333333333331</ele><time>2026-04-22T14:23:34.098Z</time></trkpt><trkpt lat="43.2585765" lon="11.3610238"><ele>195.0</ele><time>2026-04-22T14:23:35.104Z</time></trkpt><trkpt lat="43.2584336" lon="11.3608798"><ele>195.0</ele><time>2026-04-22T14:23:36.096Z</time></trkpt><trkpt lat="43.2582928" lon="11.3607394"><ele>195.0</ele><time>2026-04-22T14:23:37.102Z</time></trkpt><trkpt lat="43.2581687" lon="11.3606165"><ele>195.0</ele><time>2026-04-22T14:23:38.098Z</time></trkpt><trkpt lat="43.2580558" lon="11.3605139"><ele>195.0</ele><time>2026-04-22T14:23:39.098Z</time></trkpt><trkpt lat="43.2579429" lon="11.3604291"><ele>195.0</ele><time>2026-04-22T14:23:40.101Z</time></trkpt><trkpt lat="43.2578224" lon="11.3603585"><ele>195.0</ele><time>2026-04-22T14:23:41.098Z</time></trkpt><trkpt lat="43.2576894" lon="11.3602939"><ele>195.0</ele><time>2026-04-22T14:23:42.096Z</time></trkpt><trkpt lat="43.2575509" lon="11.360234"><ele>195.0</ele><time>2026-04-22T14:23:43.105Z</time></trkpt><trkpt lat="43.2574147" lon="11.3601779"><ele>195.0</ele><time>2026-04-22T14:23:44.107Z</time></trkpt><trkpt lat="43.2572843" lon="11.3601301"><ele>195.0</ele><time>2026-04-22T14:23:45.102Z</time></trkpt><trkpt lat="43.2571586" lon="11.3601004"><ele>195.0</ele><time>2026-04-22T14:23:46.108Z</time></trkpt><trkpt lat="43.2570307" lon="11.3600856"><ele>196.0</ele><time>2026-04-22T14:23:47.105Z</time></trkpt><trkpt lat="43.2568998" lon="11.3600812"><ele>197.0</ele><time>2026-04-22T14:23:48.1Z</time></trkpt><trkpt lat="43.2567629" lon="11.360088"><ele>198.0</ele><time>2026-04-22T14:23:49.101Z</time></trkpt><trkpt lat="43.2566198" lon="11.3601072"><ele>199.0</ele><time>2026-04-22T14:23:50.103Z</time></trkpt><trkpt lat="43.2564723" lon="11.3601362"><ele>200.0</ele><time>2026-04-22T14:23:51.101Z</time></trkpt><trkpt lat="43.2563263" lon="11.3601736"><ele>201.0</ele><time>2026-04-22T14:23:52.103Z</time></trkpt><trkpt lat="43.2561871" lon="11.3602234"><ele>202.0</ele><time>2026-04-22T14:23:53.107Z</time></trkpt><trkpt lat="43.2560514" lon="11.3602899"><ele>203.0</ele><time>2026-04-22T14:23:54.111Z</time></trkpt><trkpt lat="43.2559184" lon="11.3603768"><ele>203.0</ele><time>2026-04-22T14:23:55.098Z</time></trkpt><trkpt lat="43.2557849" lon="11.3604796"><ele>203.0</ele><time>2026-04-22T14:23:56.109Z</time></trkpt><trkpt lat="43.255647" lon="11.3605784"><ele>203.0</ele><time>2026-04-22T14:23:57.106Z</time></trkpt><trkpt lat="43.2555088" lon="11.3606748"><ele>205.75</ele><time>2026-04-22T14:23:58.098Z</time></trkpt><trkpt lat="43.2553772" lon="11.3607755"><ele>208.5</ele><time>2026-04-22T14:23:59.105Z</time></trkpt><trkpt lat="43.2552576" lon="11.3608859"><ele>211.25</ele><time>2026-04-22T14:24:00.098Z</time></trkpt><trkpt lat="43.2551529" lon="11.3610088"><ele>214.0</ele><time>2026-04-22T14:24:01.106Z</time></trkpt><trkpt lat="43.2550603" lon="11.3611528"><ele>214.0</ele><time>2026-04-22T14:24:02.1Z</time></trkpt><trkpt lat="43.2549717" lon="11.3613196"><ele>214.0</ele><time>2026-04-22T14:24:03.101Z</time></trkpt><trkpt lat="43.2548855" lon="11.3614986"><ele>214.0</ele><time>2026-04-22T14:24:04.104Z</time></trkpt><trkpt lat="43.2547987" lon="11.3616838"><ele>217.66666666666666</ele><time>2026-04-22T14:24:05.097Z</time></trkpt><trkpt lat="43.2547104" lon="11.3618634"><ele>221.33333333333331</ele><time>2026-04-22T14:24:06.108Z</time></trkpt><trkpt lat="43.2546119" lon="11.3620276"><ele>225.0</ele><time>2026-04-22T14:24:07.104Z</time></trkpt><trkpt lat="43.2544981" lon="11.3621594"><ele>225.0</ele><time>2026-04-22T14:24:08.108Z</time></trkpt><trkpt lat="43.2543672" lon="11.3622568"><ele>225.0</ele><time>2026-04-22T14:24:09.11Z</time></trkpt><trkpt lat="43.2542271" lon="11.3623265"><ele>225.0</ele><time>2026-04-22T14:24:10.1Z</time></trkpt><trkpt lat="43.2540818" lon="11.3623739"><ele>225.0</ele><time>2026-04-22T14:24:11.105Z</time></trkpt><trkpt lat="43.2539323" lon="11.3623991"><ele>225.0</ele><time>2026-04-22T14:24:12.104Z</time></trkpt><trkpt lat="43.2537748" lon="11.3624184"><ele>225.0</ele><time>2026-04-22T14:24:13.104Z</time></trkpt><trkpt lat="43.2536121" lon="11.3624455"><ele>225.0</ele><time>2026-04-22T14:24:14.104Z</time></trkpt><trkpt lat="43.2534498" lon="11.3624813"><ele>225.0</ele><time>2026-04-22T14:24:15.101Z</time></trkpt><trkpt lat="43.2532878" lon="11.3625263"><ele>225.0</ele><time>2026-04-22T14:24:16.11Z</time></trkpt><trkpt lat="43.2531293" lon="11.362582"><ele>225.0</ele><time>2026-04-22T14:24:17.103Z</time></trkpt><trkpt lat="43.2529746" lon="11.3626545"><ele>226.0</ele><time>2026-04-22T14:24:18.107Z</time></trkpt><trkpt lat="43.2528233" lon="11.362742"><ele>227.0</ele><time>2026-04-22T14:24:19.103Z</time></trkpt><trkpt lat="43.2526797" lon="11.3628375"><ele>228.0</ele><time>2026-04-22T14:24:20.106Z</time></trkpt><trkpt lat="43.2525472" lon="11.3629348"><ele>229.25</ele><time>2026-04-22T14:24:21.093Z</time></trkpt><trkpt lat="43.2524206" lon="11.3630399"><ele>230.5</ele><time>2026-04-22T14:24:22.095Z</time></trkpt><trkpt lat="43.2523017" lon="11.3631592"><ele>231.75</ele><time>2026-04-22T14:24:23.098Z</time></trkpt><trkpt lat="43.2521875" lon="11.3632831"><ele>233.0</ele><time>2026-04-22T14:24:24.095Z</time></trkpt><trkpt lat="43.2520747" lon="11.3634111"><ele>233.0</ele><time>2026-04-22T14:24:25.106Z</time></trkpt><trkpt lat="43.2519588" lon="11.3635275"><ele>233.0</ele><time>2026-04-22T14:24:26.105Z</time></trkpt><trkpt lat="43.2518366" lon="11.3636122"><ele>233.0</ele><time>2026-04-22T14:24:27.096Z</time></trkpt><trkpt lat="43.2516999" lon="11.3636611"><ele>233.0</ele><time>2026-04-22T14:24:28.107Z</time></trkpt><trkpt lat="43.251549" lon="11.3636645"><ele>230.33333333333334</ele><time>2026-04-22T14:24:29.098Z</time></trkpt><trkpt lat="43.2513992" lon="11.3636412"><ele>227.66666666666669</ele><time>2026-04-22T14:24:30.096Z</time></trkpt><trkpt lat="43.2512475" lon="11.3635905"><ele>225.0</ele><time>2026-04-22T14:24:31.106Z</time></trkpt><trkpt lat="43.2510932" lon="11.3635222"><ele>225.0</ele><time>2026-04-22T14:24:32.103Z</time></trkpt><trkpt lat="43.2509357" lon="11.3634405"><ele>225.0</ele><time>2026-04-22T14:24:33.103Z</time></trkpt><trkpt lat="43.2507713" lon="11.3633627"><ele>225.0</ele><time>2026-04-22T14:24:34.109Z</time></trkpt><trkpt lat="43.2506069" lon="11.3633022"><ele>224.33333333333331</ele><time>2026-04-22T14:24:35.106Z</time></trkpt><trkpt lat="43.2504426" lon="11.3632546"><ele>223.66666666666666</ele><time>2026-04-22T14:24:36.098Z</time></trkpt><trkpt lat="43.2502827" lon="11.3632158"><ele>223.0</ele><time>2026-04-22T14:24:37.099Z</time></trkpt><trkpt lat="43.2501256" lon="11.3631742"><ele>223.0</ele><time>2026-04-22T14:24:38.101Z</time></trkpt><trkpt lat="43.2499726" lon="11.36313"><ele>223.0</ele><time>2026-04-22T14:24:39.096Z</time></trkpt><trkpt lat="43.2498249" lon="11.3630926"><ele>223.0</ele><time>2026-04-22T14:24:40.104Z</time></trkpt><trkpt lat="43.2496788" lon="11.3630712"><ele>224.25</ele><time>2026-04-22T14:24:41.104Z</time></trkpt><trkpt lat="43.2495361" lon="11.3630761"><ele>225.5</ele><time>2026-04-22T14:24:42.106Z</time></trkpt><trkpt lat="43.2493957" lon="11.3631138"><ele>226.75</ele><time>2026-04-22T14:24:43.102Z</time></trkpt><trkpt lat="43.2492608" lon="11.363181"><ele>228.0</ele><time>2026-04-22T14:24:44.104Z</time></trkpt><trkpt lat="43.2491332" lon="11.363276"><ele>228.0</ele><time>2026-04-22T14:24:45.095Z</time></trkpt><trkpt lat="43.2490154" lon="11.363397"><ele>228.0</ele><time>2026-04-22T14:24:46.101Z</time></trkpt><trkpt lat="43.2489044" lon="11.3635457"><ele>228.0</ele><time>2026-04-22T14:24:47.104Z</time></trkpt><trkpt lat="43.2487966" lon="11.3637156"><ele>227.66666666666669</ele><time>2026-04-22T14:24:48.104Z</time></trkpt><trkpt lat="43.2486882" lon="11.3638853"><ele>227.33333333333334</ele><time>2026-04-22T14:24:49.106Z</time></trkpt><trkpt lat="43.2485801" lon="11.3640452"><ele>227.0</ele><time>2026-04-22T14:24:50.099Z</time></trkpt><trkpt lat="43.2484758" lon="11.3641896"><ele>227.0</ele><time>2026-04-22T14:24:51.1Z</time></trkpt><trkpt lat="43.2483855" lon="11.3643227"><ele>227.0</ele><time>2026-04-22T14:24:52.098Z</time></trkpt><trkpt lat="43.2483118" lon="11.3644607"><ele>227.0</ele><time>2026-04-22T14:24:53.102Z</time></trkpt><trkpt lat="43.2482592" lon="11.3646035"><ele>227.0</ele><time>2026-04-22T14:24:54.105Z</time></trkpt><trkpt lat="43.2482341" lon="11.3647635"><ele>226.5</ele><time>2026-04-22T14:24:55.104Z</time></trkpt><trkpt lat="43.2482336" lon="11.3649476"><ele>226.0</ele><time>2026-04-22T14:24:56.105Z</time></trkpt><trkpt lat="43.2482373" lon="11.3651421"><ele>225.5</ele><time>2026-04-22T14:24:57.103Z</time></trkpt><trkpt lat="43.2482273" lon="11.3653384"><ele>225.0</ele><time>2026-04-22T14:24:58.1Z</time></trkpt><trkpt lat="43.2481908" lon="11.3655096"><ele>224.5</ele><time>2026-04-22T14:24:59.099Z</time></trkpt><trkpt lat="43.2481184" lon="11.3656632"><ele>224.0</ele><time>2026-04-22T14:25:00.097Z</time></trkpt><trkpt lat="43.2480184" lon="11.3658106"><ele>223.5</ele><time>2026-04-22T14:25:01.105Z</time></trkpt><trkpt lat="43.2478942" lon="11.3659446"><ele>223.0</ele><time>2026-04-22T14:25:02.094Z</time></trkpt><trkpt lat="43.2477502" lon="11.3660487"><ele>223.0</ele><time>2026-04-22T14:25:03.101Z</time></trkpt><trkpt lat="43.2475928" lon="11.3661138"><ele>223.0</ele><time>2026-04-22T14:25:04.094Z</time></trkpt><trkpt lat="43.2474236" lon="11.3661505"><ele>223.0</ele><time>2026-04-22T14:25:05.102Z</time></trkpt><trkpt lat="43.2472467" lon="11.3661681"><ele>222.33333333333331</ele><time>2026-04-22T14:25:06.104Z</time></trkpt><trkpt lat="43.2470769" lon="11.3661992"><ele>221.66666666666669</ele><time>2026-04-22T14:25:07.094Z</time></trkpt><trkpt lat="43.2469125" lon="11.3662459"><ele>221.0</ele><time>2026-04-22T14:25:08.104Z</time></trkpt><trkpt lat="43.2467492" lon="11.3663011"><ele>221.66666666666669</ele><time>2026-04-22T14:25:09.094Z</time></trkpt><trkpt lat="43.2465925" lon="11.3663711"><ele>222.33333333333331</ele><time>2026-04-22T14:25:10.102Z</time></trkpt><trkpt lat="43.2464468" lon="11.3664438"><ele>223.0</ele><time>2026-04-22T14:25:11.107Z</time></trkpt><trkpt lat="43.2463203" lon="11.3665241"><ele>223.25</ele><time>2026-04-22T14:25:12.103Z</time></trkpt><trkpt lat="43.2462016" lon="11.3666172"><ele>223.5</ele><time>2026-04-22T14:25:13.103Z</time></trkpt><trkpt lat="43.2460895" lon="11.3667433"><ele>223.75</ele><time>2026-04-22T14:25:14.098Z</time></trkpt><trkpt lat="43.245977" lon="11.3668821"><ele>224.0</ele><time>2026-04-22T14:25:15.103Z</time></trkpt><trkpt lat="43.2458553" lon="11.3670217"><ele>224.0</ele><time>2026-04-22T14:25:16.102Z</time></trkpt><trkpt lat="43.2457258" lon="11.3671616"><ele>224.0</ele><time>2026-04-22T14:25:17.094Z</time></trkpt><trkpt lat="43.2455844" lon="11.3672876"><ele>224.0</ele><time>2026-04-22T14:25:18.1Z</time></trkpt><trkpt lat="43.2454326" lon="11.3673912"><ele>222.66666666666669</ele><time>2026-04-22T14:25:19.106Z</time></trkpt><trkpt lat="43.245269" lon="11.3674715"><ele>221.33333333333331</ele><time>2026-04-22T14:25:20.096Z</time></trkpt><trkpt lat="43.2451015" lon="11.3675227"><ele>220.0</ele><time>2026-04-22T14:25:21.108Z</time></trkpt><trkpt lat="43.2449339" lon="11.3675708"><ele>221.0</ele><time>2026-04-22T14:25:22.106Z</time></trkpt><trkpt lat="43.2447695" lon="11.3676156"><ele>222.0</ele><time>2026-04-22T14:25:23.106Z</time></trkpt><trkpt lat="43.244608" lon="11.367657"><ele>223.0</ele><time>2026-04-22T14:25:24.096Z</time></trkpt><trkpt lat="43.2444504" lon="11.3677041"><ele>223.0</ele><time>2026-04-22T14:25:25.101Z</time></trkpt><trkpt lat="43.2442943" lon="11.3677525"><ele>223.0</ele><time>2026-04-22T14:25:26.095Z</time></trkpt><trkpt lat="43.2441405" lon="11.3678023"><ele>223.0</ele><time>2026-04-22T14:25:27.099Z</time></trkpt><trkpt lat="43.2439896" lon="11.3678492"><ele>224.0</ele><time>2026-04-22T14:25:28.104Z</time></trkpt><trkpt lat="43.2438395" lon="11.3678986"><ele>225.0</ele><time>2026-04-22T14:25:29.109Z</time></trkpt><trkpt lat="43.2436873" lon="11.3679432"><ele>226.0</ele><time>2026-04-22T14:25:30.097Z</time></trkpt><trkpt lat="43.2435283" lon="11.3679801"><ele>226.0</ele><time>2026-04-22T14:25:31.099Z</time></trkpt><trkpt lat="43.2433671" lon="11.3680157"><ele>226.0</ele><time>2026-04-22T14:25:32.099Z</time></trkpt><trkpt lat="43.2432079" lon="11.3680479"><ele>226.0</ele><time>2026-04-22T14:25:33.103Z</time></trkpt><trkpt lat="43.2430565" lon="11.3680884"><ele>225.0</ele><time>2026-04-22T14:25:34.1Z</time></trkpt><trkpt lat="43.242914" lon="11.3681458"><ele>224.0</ele><time>2026-04-22T14:25:35.101Z</time></trkpt><trkpt lat="43.2427794" lon="11.3682208"><ele>223.0</ele><time>2026-04-22T14:25:36.108Z</time></trkpt><trkpt lat="43.2426512" lon="11.3683142"><ele>222.0</ele><time>2026-04-22T14:25:37.108Z</time></trkpt><trkpt lat="43.2425289" lon="11.3684337"><ele>222.0</ele><time>2026-04-22T14:25:38.096Z</time></trkpt><trkpt lat="43.2424128" lon="11.368579"><ele>222.0</ele><time>2026-04-22T14:25:39.098Z</time></trkpt><trkpt lat="43.2422936" lon="11.3687524"><ele>222.0</ele><time>2026-04-22T14:25:40.108Z</time></trkpt><trkpt lat="43.2421787" lon="11.3689192"><ele>221.33333333333331</ele><time>2026-04-22T14:25:41.1Z</time></trkpt><trkpt lat="43.2420607" lon="11.3690856"><ele>220.66666666666666</ele><time>2026-04-22T14:25:42.104Z</time></trkpt><trkpt lat="43.2419438" lon="11.369241"><ele>220.0</ele><time>2026-04-22T14:25:43.096Z</time></trkpt><trkpt lat="43.2418246" lon="11.3693944"><ele>220.0</ele><time>2026-04-22T14:25:44.102Z</time></trkpt><trkpt lat="43.241699" lon="11.3695438"><ele>220.0</ele><time>2026-04-22T14:25:45.098Z</time></trkpt><trkpt lat="43.2415668" lon="11.3696981"><ele>220.0</ele><time>2026-04-22T14:25:46.102Z</time></trkpt><trkpt lat="43.2414324" lon="11.3698488"><ele>218.33333333333331</ele><time>2026-04-22T14:25:47.095Z</time></trkpt><trkpt lat="43.2412947" lon="11.3699901"><ele>216.66666666666669</ele><time>2026-04-22T14:25:48.102Z</time></trkpt><trkpt lat="43.2411524" lon="11.3701216"><ele>215.0</ele><time>2026-04-22T14:25:49.096Z</time></trkpt><trkpt lat="43.2410094" lon="11.3702457"><ele>215.0</ele><time>2026-04-22T14:25:50.106Z</time></trkpt><trkpt lat="43.2408749" lon="11.3703647"><ele>215.0</ele><time>2026-04-22T14:25:51.099Z</time></trkpt><trkpt lat="43.2407524" lon="11.3704755"><ele>215.0</ele><time>2026-04-22T14:25:52.102Z</time></trkpt><trkpt lat="43.2406494" lon="11.3705728"><ele>215.0</ele><time>2026-04-22T14:25:53.102Z</time></trkpt><trkpt lat="43.2405681" lon="11.3706585"><ele>215.5</ele><time>2026-04-22T14:25:54.106Z</time></trkpt><trkpt lat="43.240497" lon="11.3707533"><ele>216.0</ele><time>2026-04-22T14:25:55.096Z</time></trkpt><trkpt lat="43.2404269" lon="11.3708646"><ele>216.5</ele><time>2026-04-22T14:25:56.104Z</time></trkpt><trkpt lat="43.2403492" lon="11.3709951"><ele>217.0</ele><time>2026-04-22T14:25:57.099Z</time></trkpt><trkpt lat="43.2402647" lon="11.3711468"><ele>217.0</ele><time>2026-04-22T14:25:58.101Z</time></trkpt><trkpt lat="43.240174" lon="11.3713197"><ele>217.0</ele><time>2026-04-22T14:25:59.106Z</time></trkpt><trkpt lat="43.2400778" lon="11.3714983"><ele>217.0</ele><time>2026-04-22T14:26:00.096Z</time></trkpt><trkpt lat="43.2399793" lon="11.3716843"><ele>216.0</ele><time>2026-04-22T14:26:01.104Z</time></trkpt><trkpt lat="43.239888" lon="11.3718625"><ele>215.0</ele><time>2026-04-22T14:26:02.102Z</time></trkpt><trkpt lat="43.2398004" lon="11.3720497"><ele>214.0</ele><time>2026-04-22T14:26:03.102Z</time></trkpt><trkpt lat="43.23972" lon="11.3722305"><ele>213.75</ele><time>2026-04-22T14:26:04.108Z</time></trkpt><trkpt lat="43.2396444" lon="11.3723934"><ele>213.5</ele><time>2026-04-22T14:26:05.1Z</time></trkpt><trkpt lat="43.2395707" lon="11.3725316"><ele>213.25</ele><time>2026-04-22T14:26:06.112Z</time></trkpt><trkpt lat="43.239495" lon="11.3726374"><ele>213.0</ele><time>2026-04-22T14:26:07.104Z</time></trkpt><trkpt lat="43.239412" lon="11.372709"><ele>213.0</ele><time>2026-04-22T14:26:08.101Z</time></trkpt><trkpt lat="43.2393104" lon="11.3727495"><ele>213.0</ele><time>2026-04-22T14:26:09.105Z</time></trkpt><trkpt lat="43.2391912" lon="11.372755"><ele>213.0</ele><time>2026-04-22T14:26:10.103Z</time></trkpt><trkpt lat="43.2390591" lon="11.3727427"><ele>213.0</ele><time>2026-04-22T14:26:11.098Z</time></trkpt><trkpt lat="43.2389204" lon="11.372738"><ele>213.0</ele><time>2026-04-22T14:26:12.098Z</time></trkpt><trkpt lat="43.2387791" lon="11.3727555"><ele>213.0</ele><time>2026-04-22T14:26:13.101Z</time></trkpt><trkpt lat="43.2386384" lon="11.3728038"><ele>213.0</ele><time>2026-04-22T14:26:14.097Z</time></trkpt><trkpt lat="43.2385101" lon="11.3728711"><ele>213.0</ele><time>2026-04-22T14:26:15.095Z</time></trkpt><trkpt lat="43.2384054" lon="11.3729366"><ele>213.0</ele><time>2026-04-22T14:26:16.104Z</time></trkpt><trkpt lat="43.2383247" lon="11.3730106"><ele>213.0</ele><time>2026-04-22T14:26:17.107Z</time></trkpt><trkpt lat="43.2382634" lon="11.3730931"><ele>213.0</ele><time>2026-04-22T14:26:18.106Z</time></trkpt><trkpt lat="43.238224" lon="11.3732031"><ele>213.0</ele><time>2026-04-22T14:26:19.099Z</time></trkpt><trkpt lat="43.2382049" lon="11.3733312"><ele>213.0</ele><time>2026-04-22T14:26:20.103Z</time></trkpt><trkpt lat="43.2382048" lon="11.3734728"><ele>211.0</ele><time>2026-04-22T14:26:21.094Z</time></trkpt><trkpt lat="43.2382231" lon="11.3736348"><ele>209.0</ele><time>2026-04-22T14:26:22.104Z</time></trkpt><trkpt lat="43.2382517" lon="11.3738196"><ele>207.0</ele><time>2026-04-22T14:26:23.095Z</time></trkpt><trkpt lat="43.2382724" lon="11.3740283"><ele>205.0</ele><time>2026-04-22T14:26:24.095Z</time></trkpt><trkpt lat="43.2382887" lon="11.3742468"><ele>204.66666666666666</ele><time>2026-04-22T14:26:25.107Z</time></trkpt><trkpt lat="43.2383033" lon="11.3744652"><ele>204.33333333333331</ele><time>2026-04-22T14:26:26.107Z</time></trkpt><trkpt lat="43.2383072" lon="11.3746753"><ele>204.0</ele><time>2026-04-22T14:26:27.106Z</time></trkpt><trkpt lat="43.2382931" lon="11.3748647"><ele>204.0</ele><time>2026-04-22T14:26:28.096Z</time></trkpt><trkpt lat="43.2382621" lon="11.3750239"><ele>204.0</ele><time>2026-04-22T14:26:29.103Z</time></trkpt><trkpt lat="43.2382112" lon="11.3751449"><ele>204.0</ele><time>2026-04-22T14:26:30.096Z</time></trkpt><trkpt lat="43.238135" lon="11.3752319"><ele>204.0</ele><time>2026-04-22T14:26:31.098Z</time></trkpt><trkpt lat="43.2380297" lon="11.3753191"><ele>204.0</ele><time>2026-04-22T14:26:32.105Z</time></trkpt><trkpt lat="43.2379022" lon="11.3754166"><ele>202.33333333333331</ele><time>2026-04-22T14:26:33.107Z</time></trkpt><trkpt lat="43.2377727" lon="11.3755379"><ele>200.66666666666666</ele><time>2026-04-22T14:26:34.102Z</time></trkpt><trkpt lat="43.2376171" lon="11.375674"><ele>199.0</ele><time>2026-04-22T14:26:35.101Z</time></trkpt><trkpt lat="43.237463" lon="11.3758209"><ele>199.0</ele><time>2026-04-22T14:26:36.101Z</time></trkpt><trkpt lat="43.2373208" lon="11.3759709"><ele>199.0</ele><time>2026-04-22T14:26:37.101Z</time></trkpt><trkpt lat="43.2371935" lon="11.3761078"><ele>199.0</ele><time>2026-04-22T14:26:38.115Z</time></trkpt><trkpt lat="43.2370845" lon="11.3762297"><ele>198.25</ele><time>2026-04-22T14:26:39.112Z</time></trkpt><trkpt lat="43.2369852" lon="11.3763253"><ele>197.5</ele><time>2026-04-22T14:26:40.11Z</time></trkpt><trkpt lat="43.2368798" lon="11.3763846"><ele>196.75</ele><time>2026-04-22T14:26:41.1Z</time></trkpt><trkpt lat="43.2367586" lon="11.3764135"><ele>196.0</ele><time>2026-04-22T14:26:42.099Z</time></trkpt><trkpt lat="43.2366261" lon="11.3763995"><ele>196.0</ele><time>2026-04-22T14:26:43.099Z</time></trkpt><trkpt lat="43.2364986" lon="11.3763463"><ele>196.0</ele><time>2026-04-22T14:26:44.102Z</time></trkpt><trkpt lat="43.236388" lon="11.3762547"><ele>196.0</ele><time>2026-04-22T14:26:45.092Z</time></trkpt><trkpt lat="43.2362985" lon="11.3761274"><ele>196.0</ele><time>2026-04-22T14:26:46.105Z</time></trkpt><trkpt lat="43.2362338" lon="11.3759811"><ele>193.5</ele><time>2026-04-22T14:26:47.101Z</time></trkpt><trkpt lat="43.2361893" lon="11.3758202"><ele>191.0</ele><time>2026-04-22T14:26:48.096Z</time></trkpt><trkpt lat="43.236171" lon="11.3756519"><ele>188.5</ele><time>2026-04-22T14:26:49.101Z</time></trkpt><trkpt lat="43.2361776" lon="11.3754889"><ele>186.0</ele><time>2026-04-22T14:26:50.097Z</time></trkpt><trkpt lat="43.2362027" lon="11.3753277"><ele>185.0</ele><time>2026-04-22T14:26:51.104Z</time></trkpt><trkpt lat="43.2362518" lon="11.3751649"><ele>184.0</ele><time>2026-04-22T14:26:52.094Z</time></trkpt><trkpt lat="43.2363245" lon="11.375005"><ele>183.0</ele><time>2026-04-22T14:26:53.102Z</time></trkpt><trkpt lat="43.2364007" lon="11.3748494"><ele>182.0</ele><time>2026-04-22T14:26:54.104Z</time></trkpt><trkpt lat="43.2364707" lon="11.3746867"><ele>184.25</ele><time>2026-04-22T14:26:55.098Z</time></trkpt><trkpt lat="43.2365234" lon="11.3745161"><ele>186.5</ele><time>2026-04-22T14:26:56.109Z</time></trkpt><trkpt lat="43.2365594" lon="11.3743492"><ele>188.75</ele><time>2026-04-22T14:26:57.094Z</time></trkpt><trkpt lat="43.2365821" lon="11.3741933"><ele>191.0</ele><time>2026-04-22T14:26:58.107Z</time></trkpt><trkpt lat="43.2365925" lon="11.3740415"><ele>191.0</ele><time>2026-04-22T14:26:59.098Z</time></trkpt><trkpt lat="43.2365832" lon="11.3738928"><ele>191.0</ele><time>2026-04-22T14:27:00.104Z</time></trkpt><trkpt lat="43.2365513" lon="11.3737566"><ele>191.0</ele><time>2026-04-22T14:27:01.096Z</time></trkpt><trkpt lat="43.2365025" lon="11.3736358"><ele>191.0</ele><time>2026-04-22T14:27:02.106Z</time></trkpt><trkpt lat="43.2364319" lon="11.3735305"><ele>191.0</ele><time>2026-04-22T14:27:03.1Z</time></trkpt><trkpt lat="43.2363451" lon="11.3734512"><ele>188.75</ele><time>2026-04-22T14:27:04.1Z</time></trkpt><trkpt lat="43.2362458" lon="11.373408"><ele>186.5</ele><time>2026-04-22T14:27:05.093Z</time></trkpt><trkpt lat="43.2361309" lon="11.3734007"><ele>184.25</ele><time>2026-04-22T14:27:06.103Z</time></trkpt><trkpt lat="43.2359935" lon="11.3734194"><ele>182.0</ele><time>2026-04-22T14:27:07.106Z</time></trkpt><trkpt lat="43.2358314" lon="11.3734493"><ele>182.0</ele><time>2026-04-22T14:27:08.101Z</time></trkpt><trkpt lat="43.2356525" lon="11.373477"><ele>182.0</ele><time>2026-04-22T14:27:09.107Z</time></trkpt><trkpt lat="43.2354616" lon="11.3734978"><ele>182.0</ele><time>2026-04-22T14:27:10.103Z</time></trkpt><trkpt lat="43.2352582" lon="11.3735184"><ele>180.66666666666666</ele><time>2026-04-22T14:27:11.102Z</time></trkpt><trkpt lat="43.2350411" lon="11.3735348"><ele>179.33333333333334</ele><time>2026-04-22T14:27:12.102Z</time></trkpt><trkpt lat="43.2348144" lon="11.3735489"><ele>178.0</ele><time>2026-04-22T14:27:13.098Z</time></trkpt><trkpt lat="43.234592" lon="11.3735616"><ele>178.0</ele><time>2026-04-22T14:27:14.098Z</time></trkpt><trkpt lat="43.2343894" lon="11.3735727"><ele>178.0</ele><time>2026-04-22T14:27:15.106Z</time></trkpt><trkpt lat="43.2342073" lon="11.373585"><ele>178.0</ele><time>2026-04-22T14:27:16.105Z</time></trkpt><trkpt lat="43.2340458" lon="11.3735968"><ele>178.25</ele><time>2026-04-22T14:27:17.094Z</time></trkpt><trkpt lat="43.2338969" lon="11.3736158"><ele>178.5</ele><time>2026-04-22T14:27:18.105Z</time></trkpt><trkpt lat="43.2337526" lon="11.3736472"><ele>178.75</ele><time>2026-04-22T14:27:19.101Z</time></trkpt><trkpt lat="43.2336159" lon="11.3737081"><ele>179.0</ele><time>2026-04-22T14:27:20.097Z</time></trkpt><trkpt lat="43.233476" lon="11.3738014"><ele>179.0</ele><time>2026-04-22T14:27:21.1Z</time></trkpt><trkpt lat="43.2333279" lon="11.3739105"><ele>179.0</ele><time>2026-04-22T14:27:22.104Z</time></trkpt><trkpt lat="43.2331705" lon="11.3740287"><ele>179.0</ele><time>2026-04-22T14:27:23.098Z</time></trkpt><trkpt lat="43.2330034" lon="11.3741529"><ele>179.0</ele><time>2026-04-22T14:27:24.105Z</time></trkpt><trkpt lat="43.2328285" lon="11.3742781"><ele>179.0</ele><time>2026-04-22T14:27:25.097Z</time></trkpt><trkpt lat="43.2326494" lon="11.3744081"><ele>179.0</ele><time>2026-04-22T14:27:26.107Z</time></trkpt><trkpt lat="43.2324681" lon="11.3745358"><ele>179.0</ele><time>2026-04-22T14:27:27.097Z</time></trkpt><trkpt lat="43.2322872" lon="11.3746595"><ele>179.0</ele><time>2026-04-22T14:27:28.096Z</time></trkpt><trkpt lat="43.2321104" lon="11.3747825"><ele>179.0</ele><time>2026-04-22T14:27:29.101Z</time></trkpt><trkpt lat="43.2319379" lon="11.3749037"><ele>179.0</ele><time>2026-04-22T14:27:30.095Z</time></trkpt><trkpt lat="43.2317662" lon="11.3750222"><ele>179.0</ele><time>2026-04-22T14:27:31.105Z</time></trkpt><trkpt lat="43.2315968" lon="11.3751403"><ele>179.0</ele><time>2026-04-22T14:27:32.105Z</time></trkpt><trkpt lat="43.2314286" lon="11.3752599"><ele>179.0</ele><time>2026-04-22T14:27:33.099Z</time></trkpt><trkpt lat="43.2312613" lon="11.3753808"><ele>179.0</ele><time>2026-04-22T14:27:34.102Z</time></trkpt><trkpt lat="43.2310941" lon="11.3755018"><ele>179.0</ele><time>2026-04-22T14:27:35.096Z</time></trkpt><trkpt lat="43.2309263" lon="11.3756216"><ele>179.0</ele><time>2026-04-22T14:27:36.097Z</time></trkpt><trkpt lat="43.2307578" lon="11.3757416"><ele>179.0</ele><time>2026-04-22T14:27:37.096Z</time></trkpt><trkpt lat="43.2305896" lon="11.3758618"><ele>179.0</ele><time>2026-04-22T14:27:38.094Z</time></trkpt><trkpt lat="43.2304219" lon="11.3759819"><ele>180.66666666666666</ele><time>2026-04-22T14:27:39.095Z</time></trkpt><trkpt lat="43.2302553" lon="11.3761035"><ele>182.33333333333334</ele><time>2026-04-22T14:27:40.102Z</time></trkpt><trkpt lat="43.2300906" lon="11.3762246"><ele>184.0</ele><time>2026-04-22T14:27:41.099Z</time></trkpt><trkpt lat="43.2299276" lon="11.3763447"><ele>184.66666666666669</ele><time>2026-04-22T14:27:42.105Z</time></trkpt><trkpt lat="43.2297663" lon="11.37647"><ele>185.33333333333334</ele><time>2026-04-22T14:27:43.103Z</time></trkpt><trkpt lat="43.2296063" lon="11.3765989"><ele>186.0</ele><time>2026-04-22T14:27:44.1Z</time></trkpt><trkpt lat="43.2294481" lon="11.3767285"><ele>186.0</ele><time>2026-04-22T14:27:45.095Z</time></trkpt><trkpt lat="43.2292917" lon="11.3768603"><ele>186.0</ele><time>2026-04-22T14:27:46.099Z</time></trkpt><trkpt lat="43.2291337" lon="11.3769822"><ele>186.0</ele><time>2026-04-22T14:27:47.103Z</time></trkpt><trkpt lat="43.2289754" lon="11.3770878"><ele>187.33333333333334</ele><time>2026-04-22T14:27:48.105Z</time></trkpt><trkpt lat="43.2288144" lon="11.3771738"><ele>188.66666666666669</ele><time>2026-04-22T14:27:49.1Z</time></trkpt><trkpt lat="43.2286507" lon="11.3772406"><ele>190.0</ele><time>2026-04-22T14:27:50.094Z</time></trkpt><trkpt lat="43.2284773" lon="11.3772831"><ele>186.0</ele><time>2026-04-22T14:27:51.105Z</time></trkpt><trkpt lat="43.2282936" lon="11.3773066"><ele>182.0</ele><time>2026-04-22T14:27:52.096Z</time></trkpt><trkpt lat="43.2281054" lon="11.377317"><ele>178.0</ele><time>2026-04-22T14:27:53.099Z</time></trkpt><trkpt lat="43.2279148" lon="11.3773285"><ele>178.0</ele><time>2026-04-22T14:27:54.103Z</time></trkpt><trkpt lat="43.2277267" lon="11.3773384"><ele>178.0</ele><time>2026-04-22T14:27:55.093Z</time></trkpt><trkpt lat="43.2275431" lon="11.3773379"><ele>178.0</ele><time>2026-04-22T14:27:56.103Z</time></trkpt><trkpt lat="43.227366" lon="11.3773182"><ele>177.66666666666669</ele><time>2026-04-22T14:27:57.096Z</time></trkpt><trkpt lat="43.227194" lon="11.377272"><ele>177.33333333333334</ele><time>2026-04-22T14:27:58.097Z</time></trkpt><trkpt lat="43.2270251" lon="11.3771998"><ele>177.0</ele><time>2026-04-22T14:27:59.104Z</time></trkpt><trkpt lat="43.2268646" lon="11.3770892"><ele>177.0</ele><time>2026-04-22T14:28:00.103Z</time></trkpt><trkpt lat="43.2267085" lon="11.3769584"><ele>177.0</ele><time>2026-04-22T14:28:01.098Z</time></trkpt><trkpt lat="43.2265591" lon="11.3768038"><ele>177.0</ele><time>2026-04-22T14:28:02.105Z</time></trkpt><trkpt lat="43.2264267" lon="11.3766339"><ele>177.0</ele><time>2026-04-22T14:28:03.104Z</time></trkpt><trkpt lat="43.2263098" lon="11.3764506"><ele>177.0</ele><time>2026-04-22T14:28:04.104Z</time></trkpt><trkpt lat="43.2262082" lon="11.3762492"><ele>177.0</ele><time>2026-04-22T14:28:05.095Z</time></trkpt><trkpt lat="43.2261308" lon="11.3760338"><ele>177.33333333333334</ele><time>2026-04-22T14:28:06.095Z</time></trkpt><trkpt lat="43.2260756" lon="11.3758175"><ele>177.66666666666669</ele><time>2026-04-22T14:28:07.098Z</time></trkpt><trkpt lat="43.2260408" lon="11.3756052"><ele>178.0</ele><time>2026-04-22T14:28:08.099Z</time></trkpt><trkpt lat="43.2260237" lon="11.3753855"><ele>178.0</ele><time>2026-04-22T14:28:09.1Z</time></trkpt><trkpt lat="43.2260251" lon="11.3751522"><ele>178.0</ele><time>2026-04-22T14:28:10.099Z</time></trkpt><trkpt lat="43.226049" lon="11.3748973"><ele>178.0</ele><time>2026-04-22T14:28:11.106Z</time></trkpt><trkpt lat="43.2260879" lon="11.3746241"><ele>178.0</ele><time>2026-04-22T14:28:12.1Z</time></trkpt><trkpt lat="43.2261264" lon="11.3743558"><ele>178.0</ele><time>2026-04-22T14:28:13.105Z</time></trkpt><trkpt lat="43.2261497" lon="11.3740965"><ele>178.0</ele><time>2026-04-22T14:28:14.109Z</time></trkpt><trkpt lat="43.2261531" lon="11.3738496"><ele>178.0</ele><time>2026-04-22T14:28:15.103Z</time></trkpt><trkpt lat="43.2261351" lon="11.3736206"><ele>178.0</ele><time>2026-04-22T14:28:16.097Z</time></trkpt><trkpt lat="43.2260961" lon="11.3734024"><ele>178.0</ele><time>2026-04-22T14:28:17.105Z</time></trkpt><trkpt lat="43.2260288" lon="11.3731699"><ele>179.33333333333334</ele><time>2026-04-22T14:28:18.108Z</time></trkpt><trkpt lat="43.2259384" lon="11.3729295"><ele>180.66666666666666</ele><time>2026-04-22T14:28:19.097Z</time></trkpt><trkpt lat="43.2258483" lon="11.3727005"><ele>182.0</ele><time>2026-04-22T14:28:20.098Z</time></trkpt><trkpt lat="43.2257762" lon="11.372512"><ele>182.0</ele><time>2026-04-22T14:28:21.101Z</time></trkpt><trkpt lat="43.2257268" lon="11.3723649"><ele>182.0</ele><time>2026-04-22T14:28:22.1Z</time></trkpt><trkpt lat="43.2256805" lon="11.3722579"><ele>182.0</ele><time>2026-04-22T14:28:23.102Z</time></trkpt><trkpt lat="43.2256271" lon="11.372187"><ele>182.0</ele><time>2026-04-22T14:28:24.096Z</time></trkpt><trkpt lat="43.2255618" lon="11.372151"><ele>182.0</ele><time>2026-04-22T14:28:25.095Z</time></trkpt><trkpt lat="43.2254829" lon="11.3721516"><ele>182.0</ele><time>2026-04-22T14:28:26.096Z</time></trkpt><trkpt lat="43.2254072" lon="11.3721843"><ele>181.6</ele><time>2026-04-22T14:28:27.097Z</time></trkpt><trkpt lat="43.2253441" lon="11.3722432"><ele>181.2</ele><time>2026-04-22T14:28:28.099Z</time></trkpt><trkpt lat="43.2252944" lon="11.3723245"><ele>180.8</ele><time>2026-04-22T14:28:29.096Z</time></trkpt><trkpt lat="43.2252532" lon="11.3724329"><ele>180.4</ele><time>2026-04-22T14:28:30.103Z</time></trkpt><trkpt lat="43.2252106" lon="11.3725775"><ele>180.0</ele><time>2026-04-22T14:28:31.099Z</time></trkpt><trkpt lat="43.2251569" lon="11.3727577"><ele>180.0</ele><time>2026-04-22T14:28:32.099Z</time></trkpt><trkpt lat="43.2250895" lon="11.3729668"><ele>180.0</ele><time>2026-04-22T14:28:33.104Z</time></trkpt><trkpt lat="43.225007" lon="11.3731701"><ele>180.0</ele><time>2026-04-22T14:28:34.105Z</time></trkpt><trkpt lat="43.2249166" lon="11.3733331"><ele>182.0</ele><time>2026-04-22T14:28:35.104Z</time></trkpt><trkpt lat="43.2248091" lon="11.3734494"><ele>184.0</ele><time>2026-04-22T14:28:36.104Z</time></trkpt><trkpt lat="43.2246879" lon="11.373522"><ele>186.0</ele><time>2026-04-22T14:28:37.098Z</time></trkpt><trkpt lat="43.2245546" lon="11.3735745"><ele>188.0</ele><time>2026-04-22T14:28:38.104Z</time></trkpt><trkpt lat="43.2244096" lon="11.3735891"><ele>188.0</ele><time>2026-04-22T14:28:39.103Z</time></trkpt><trkpt lat="43.2242622" lon="11.3735579"><ele>188.0</ele><time>2026-04-22T14:28:40.108Z</time></trkpt><trkpt lat="43.22412" lon="11.3735"><ele>188.0</ele><time>2026-04-22T14:28:41.099Z</time></trkpt><trkpt lat="43.2239828" lon="11.373414"><ele>188.0</ele><time>2026-04-22T14:28:42.101Z</time></trkpt><trkpt lat="43.2238495" lon="11.373312"><ele>192.5</ele><time>2026-04-22T14:28:43.096Z</time></trkpt><trkpt lat="43.2237244" lon="11.3731857"><ele>197.0</ele><time>2026-04-22T14:28:44.094Z</time></trkpt><trkpt lat="43.2236254" lon="11.3730512"><ele>201.5</ele><time>2026-04-22T14:28:45.104Z</time></trkpt><trkpt lat="43.2235534" lon="11.3729029"><ele>206.0</ele><time>2026-04-22T14:28:46.11Z</time></trkpt><trkpt lat="43.2235309" lon="11.3727328"><ele>206.0</ele><time>2026-04-22T14:28:47.105Z</time></trkpt><trkpt lat="43.2235245" lon="11.3725554"><ele>206.0</ele><time>2026-04-22T14:28:48.097Z</time></trkpt><trkpt lat="43.2235585" lon="11.3723679"><ele>206.0</ele><time>2026-04-22T14:28:49.096Z</time></trkpt><trkpt lat="43.2236082" lon="11.3721725"><ele>206.0</ele><time>2026-04-22T14:28:50.099Z</time></trkpt><trkpt lat="43.2236576" lon="11.3719755"><ele>206.0</ele><time>2026-04-22T14:28:51.097Z</time></trkpt><trkpt lat="43.223676" lon="11.371799"><ele>206.0</ele><time>2026-04-22T14:28:52.101Z</time></trkpt><trkpt lat="43.2236663" lon="11.3716458"><ele>206.0</ele><time>2026-04-22T14:28:53.095Z</time></trkpt><trkpt lat="43.2236282" lon="11.3715427"><ele>206.0</ele><time>2026-04-22T14:28:54.097Z</time></trkpt><trkpt lat="43.2235637" lon="11.3714517"><ele>206.0</ele><time>2026-04-22T14:28:55.103Z</time></trkpt><trkpt lat="43.2234754" lon="11.3713544"><ele>205.20000000000002</ele><time>2026-04-22T14:28:56.104Z</time></trkpt><trkpt lat="43.2233764" lon="11.3712679"><ele>204.4</ele><time>2026-04-22T14:28:57.099Z</time></trkpt><trkpt lat="43.2232772" lon="11.3712038"><ele>203.6</ele><time>2026-04-22T14:28:58.1Z</time></trkpt><trkpt lat="43.2231816" lon="11.3711744"><ele>202.8</ele><time>2026-04-22T14:28:59.1Z</time></trkpt><trkpt lat="43.223088" lon="11.3711797"><ele>202.0</ele><time>2026-04-22T14:29:00.097Z</time></trkpt><trkpt lat="43.2229969" lon="11.3712287"><ele>201.8</ele><time>2026-04-22T14:29:01.098Z</time></trkpt><trkpt lat="43.2229124" lon="11.3713079"><ele>201.6</ele><time>2026-04-22T14:29:02.106Z</time></trkpt><trkpt lat="43.2228409" lon="11.3714006"><ele>201.4</ele><time>2026-04-22T14:29:03.1Z</time></trkpt><trkpt lat="43.2227811" lon="11.3715088"><ele>201.20000000000002</ele><time>2026-04-22T14:29:04.102Z</time></trkpt><trkpt lat="43.2227228" lon="11.3716373"><ele>201.0</ele><time>2026-04-22T14:29:05.096Z</time></trkpt><trkpt lat="43.2226522" lon="11.3717916"><ele>203.33333333333331</ele><time>2026-04-22T14:29:06.099Z</time></trkpt><trkpt lat="43.2225671" lon="11.3719699"><ele>205.66666666666666</ele><time>2026-04-22T14:29:07.101Z</time></trkpt><trkpt lat="43.2224574" lon="11.3721539"><ele>208.0</ele><time>2026-04-22T14:29:08.101Z</time></trkpt><trkpt lat="43.2223321" lon="11.3723152"><ele>212.33333333333331</ele><time>2026-04-22T14:29:09.105Z</time></trkpt><trkpt lat="43.2222051" lon="11.3724508"><ele>216.66666666666669</ele><time>2026-04-22T14:29:10.095Z</time></trkpt><trkpt lat="43.2220756" lon="11.3725647"><ele>221.0</ele><time>2026-04-22T14:29:11.096Z</time></trkpt><trkpt lat="43.2219326" lon="11.3726506"><ele>221.0</ele><time>2026-04-22T14:29:12.098Z</time></trkpt><trkpt lat="43.2217649" lon="11.3727098"><ele>221.0</ele><time>2026-04-22T14:29:13.096Z</time></trkpt><trkpt lat="43.2215734" lon="11.3727447"><ele>221.0</ele><time>2026-04-22T14:29:14.105Z</time></trkpt><trkpt lat="43.2213671" lon="11.3727828"><ele>223.0</ele><time>2026-04-22T14:29:15.105Z</time></trkpt><trkpt lat="43.2211511" lon="11.3728202"><ele>225.0</ele><time>2026-04-22T14:29:16.099Z</time></trkpt><trkpt lat="43.2209264" lon="11.3728554"><ele>227.0</ele><time>2026-04-22T14:29:17.102Z</time></trkpt><trkpt lat="43.2207114" lon="11.3728872"><ele>229.66666666666669</ele><time>2026-04-22T14:29:18.103Z</time></trkpt><trkpt lat="43.2205123" lon="11.3729206"><ele>232.33333333333331</ele><time>2026-04-22T14:29:19.097Z</time></trkpt><trkpt lat="43.2203204" lon="11.3729578"><ele>235.0</ele><time>2026-04-22T14:29:20.102Z</time></trkpt><trkpt lat="43.2201415" lon="11.3729981"><ele>233.66666666666666</ele><time>2026-04-22T14:29:21.099Z</time></trkpt><trkpt lat="43.2199657" lon="11.3730344"><ele>232.33333333333331</ele><time>2026-04-22T14:29:22.097Z</time></trkpt><trkpt lat="43.2198112" lon="11.3730668"><ele>231.0</ele><time>2026-04-22T14:29:23.105Z</time></trkpt><trkpt lat="43.2196727" lon="11.3730871"><ele>234.25</ele><time>2026-04-22T14:29:24.106Z</time></trkpt><trkpt lat="43.219541" lon="11.3730945"><ele>237.5</ele><time>2026-04-22T14:29:25.103Z</time></trkpt><trkpt lat="43.2194078" lon="11.3730932"><ele>240.75</ele><time>2026-04-22T14:29:26.1Z</time></trkpt><trkpt lat="43.2192746" lon="11.3730736"><ele>244.0</ele><time>2026-04-22T14:29:27.096Z</time></trkpt><trkpt lat="43.2191406" lon="11.373049"><ele>246.0</ele><time>2026-04-22T14:29:28.104Z</time></trkpt><trkpt lat="43.2190075" lon="11.3730202"><ele>248.0</ele><time>2026-04-22T14:29:29.105Z</time></trkpt><trkpt lat="43.2188742" lon="11.3729846"><ele>250.0</ele><time>2026-04-22T14:29:30.099Z</time></trkpt><trkpt lat="43.2187368" lon="11.3729313"><ele>252.0</ele><time>2026-04-22T14:29:31.099Z</time></trkpt><trkpt lat="43.2185973" lon="11.3728553"><ele>252.0</ele><time>2026-04-22T14:29:32.104Z</time></trkpt><trkpt lat="43.2184534" lon="11.3727735"><ele>252.0</ele><time>2026-04-22T14:29:33.106Z</time></trkpt><trkpt lat="43.2183078" lon="11.3726958"><ele>252.0</ele><time>2026-04-22T14:29:34.097Z</time></trkpt><trkpt lat="43.2181643" lon="11.3726163"><ele>248.66666666666669</ele><time>2026-04-22T14:29:35.106Z</time></trkpt><trkpt lat="43.2180176" lon="11.3725398"><ele>245.33333333333334</ele><time>2026-04-22T14:29:36.102Z</time></trkpt><trkpt lat="43.2178718" lon="11.3724696"><ele>242.0</ele><time>2026-04-22T14:29:37.093Z</time></trkpt><trkpt lat="43.2177262" lon="11.3724005"><ele>242.0</ele><time>2026-04-22T14:29:38.104Z</time></trkpt><trkpt lat="43.2175825" lon="11.372336"><ele>242.0</ele><time>2026-04-22T14:29:39.096Z</time></trkpt><trkpt lat="43.2174456" lon="11.3722713"><ele>242.0</ele><time>2026-04-22T14:29:40.1Z</time></trkpt><trkpt lat="43.2173108" lon="11.3722054"><ele>242.0</ele><time>2026-04-22T14:29:41.094Z</time></trkpt><trkpt lat="43.2171707" lon="11.372139"><ele>240.66666666666669</ele><time>2026-04-22T14:29:42.097Z</time></trkpt><trkpt lat="43.2170278" lon="11.3720654"><ele>239.33333333333331</ele><time>2026-04-22T14:29:43.097Z</time></trkpt><trkpt lat="43.2168841" lon="11.3719865"><ele>238.0</ele><time>2026-04-22T14:29:44.1Z</time></trkpt><trkpt lat="43.2167385" lon="11.3719105"><ele>238.0</ele><time>2026-04-22T14:29:45.099Z</time></trkpt><trkpt lat="43.2165913" lon="11.3718349"><ele>238.0</ele><time>2026-04-22T14:29:46.107Z</time></trkpt><trkpt lat="43.2164422" lon="11.3717522"><ele>238.0</ele><time>2026-04-22T14:29:47.099Z</time></trkpt><trkpt lat="43.216292" lon="11.3716727"><ele>240.0</ele><time>2026-04-22T14:29:48.098Z</time></trkpt><trkpt lat="43.2161401" lon="11.3715962"><ele>242.0</ele><time>2026-04-22T14:29:49.101Z</time></trkpt><trkpt lat="43.21599" lon="11.3715179"><ele>244.0</ele><time>2026-04-22T14:29:50.105Z</time></trkpt><trkpt lat="43.2158498" lon="11.371434"><ele>244.0</ele><time>2026-04-22T14:29:51.102Z</time></trkpt><trkpt lat="43.2157326" lon="11.3713632"><ele>244.0</ele><time>2026-04-22T14:29:52.097Z</time></trkpt><trkpt lat="43.2156468" lon="11.371293"><ele>244.0</ele><time>2026-04-22T14:29:53.094Z</time></trkpt><trkpt lat="43.2155667" lon="11.3711802"><ele>244.0</ele><time>2026-04-22T14:29:54.099Z</time></trkpt><trkpt lat="43.2154746" lon="11.3710522"><ele>243.0</ele><time>2026-04-22T14:29:55.095Z</time></trkpt><trkpt lat="43.2153639" lon="11.3709369"><ele>242.0</ele><time>2026-04-22T14:29:56.102Z</time></trkpt><trkpt lat="43.2152351" lon="11.370839"><ele>241.0</ele><time>2026-04-22T14:29:57.101Z</time></trkpt><trkpt lat="43.2150895" lon="11.3707585"><ele>240.0</ele><time>2026-04-22T14:29:58.096Z</time></trkpt><trkpt lat="43.2149389" lon="11.3707068"><ele>236.0</ele><time>2026-04-22T14:29:59.094Z</time></trkpt><trkpt lat="43.2147965" lon="11.3707022"><ele>232.0</ele><time>2026-04-22T14:30:00.094Z</time></trkpt><trkpt lat="43.2146501" lon="11.3707404"><ele>228.0</ele><time>2026-04-22T14:30:01.095Z</time></trkpt><trkpt lat="43.214491" lon="11.3708179"><ele>228.0</ele><time>2026-04-22T14:30:02.101Z</time></trkpt><trkpt lat="43.2143297" lon="11.3709098"><ele>228.0</ele><time>2026-04-22T14:30:03.093Z</time></trkpt><trkpt lat="43.2141818" lon="11.3710013"><ele>228.0</ele><time>2026-04-22T14:30:04.092Z</time></trkpt><trkpt lat="43.2140533" lon="11.3710783"><ele>226.5</ele><time>2026-04-22T14:30:05.093Z</time></trkpt><trkpt lat="43.2139419" lon="11.3711471"><ele>225.0</ele><time>2026-04-22T14:30:06.095Z</time></trkpt><trkpt lat="43.2138366" lon="11.3712158"><ele>223.5</ele><time>2026-04-22T14:30:07.092Z</time></trkpt><trkpt lat="43.213728" lon="11.3712886"><ele>222.0</ele><time>2026-04-22T14:30:08.095Z</time></trkpt><trkpt lat="43.2136084" lon="11.3713539"><ele>222.0</ele><time>2026-04-22T14:30:09.093Z</time></trkpt><trkpt lat="43.2134856" lon="11.3714031"><ele>222.0</ele><time>2026-04-22T14:30:10.092Z</time></trkpt><trkpt lat="43.2133671" lon="11.3714058"><ele>222.0</ele><time>2026-04-22T14:30:11.092Z</time></trkpt><trkpt lat="43.21327" lon="11.3713444"><ele>222.0</ele><time>2026-04-22T14:30:12.101Z</time></trkpt><trkpt lat="43.2131924" lon="11.3712287"><ele>222.0</ele><time>2026-04-22T14:30:13.098Z</time></trkpt><trkpt lat="43.2131167" lon="11.371078"><ele>222.0</ele><time>2026-04-22T14:30:14.099Z</time></trkpt><trkpt lat="43.2130486" lon="11.3709158"><ele>222.0</ele><time>2026-04-22T14:30:15.098Z</time></trkpt><trkpt lat="43.2129785" lon="11.37075"><ele>222.0</ele><time>2026-04-22T14:30:16.098Z</time></trkpt><trkpt lat="43.2129078" lon="11.3705805"><ele>223.25</ele><time>2026-04-22T14:30:17.104Z</time></trkpt><trkpt lat="43.212832" lon="11.3704107"><ele>224.5</ele><time>2026-04-22T14:30:18.096Z</time></trkpt><trkpt lat="43.2127512" lon="11.3702378"><ele>225.75</ele><time>2026-04-22T14:30:19.105Z</time></trkpt><trkpt lat="43.2126654" lon="11.3700672"><ele>227.0</ele><time>2026-04-22T14:30:20.096Z</time></trkpt><trkpt lat="43.2125749" lon="11.3698996"><ele>227.0</ele><time>2026-04-22T14:30:21.1Z</time></trkpt><trkpt lat="43.2124786" lon="11.3697377"><ele>227.0</ele><time>2026-04-22T14:30:22.101Z</time></trkpt><trkpt lat="43.2123753" lon="11.3695745"><ele>227.0</ele><time>2026-04-22T14:30:23.096Z</time></trkpt><trkpt lat="43.2122715" lon="11.3694283"><ele>228.75</ele><time>2026-04-22T14:30:24.104Z</time></trkpt><trkpt lat="43.2121747" lon="11.3693012"><ele>230.5</ele><time>2026-04-22T14:30:25.101Z</time></trkpt><trkpt lat="43.2120852" lon="11.3691912"><ele>232.25</ele><time>2026-04-22T14:30:26.102Z</time></trkpt><trkpt lat="43.2119912" lon="11.3690955"><ele>234.0</ele><time>2026-04-22T14:30:27.099Z</time></trkpt><trkpt lat="43.2118845" lon="11.3690081"><ele>234.0</ele><time>2026-04-22T14:30:28.098Z</time></trkpt><trkpt lat="43.2117536" lon="11.3689211"><ele>234.0</ele><time>2026-04-22T14:30:29.102Z</time></trkpt><trkpt lat="43.2116136" lon="11.3688387"><ele>234.0</ele><time>2026-04-22T14:30:30.097Z</time></trkpt><trkpt lat="43.2114703" lon="11.3687695"><ele>233.66666666666669</ele><time>2026-04-22T14:30:31.104Z</time></trkpt><trkpt lat="43.2113222" lon="11.3687077"><ele>233.33333333333334</ele><time>2026-04-22T14:30:32.097Z</time></trkpt><trkpt lat="43.2111606" lon="11.3686537"><ele>233.0</ele><time>2026-04-22T14:30:33.102Z</time></trkpt><trkpt lat="43.2109816" lon="11.3686036"><ele>233.0</ele><time>2026-04-22T14:30:34.099Z</time></trkpt><trkpt lat="43.210789" lon="11.3685532"><ele>233.0</ele><time>2026-04-22T14:30:35.1Z</time></trkpt><trkpt lat="43.2105948" lon="11.3684905"><ele>233.0</ele><time>2026-04-22T14:30:36.1Z</time></trkpt><trkpt lat="43.2104166" lon="11.3684285"><ele>232.5</ele><time>2026-04-22T14:30:37.106Z</time></trkpt><trkpt lat="43.2102564" lon="11.3683691"><ele>232.0</ele><time>2026-04-22T14:30:38.096Z</time></trkpt><trkpt lat="43.2101156" lon="11.3683142"><ele>231.5</ele><time>2026-04-22T14:30:39.102Z</time></trkpt><trkpt lat="43.2099944" lon="11.3682695"><ele>231.0</ele><time>2026-04-22T14:30:40.104Z</time></trkpt><trkpt lat="43.2098914" lon="11.3682309"><ele>233.33333333333334</ele><time>2026-04-22T14:30:41.102Z</time></trkpt><trkpt lat="43.2098141" lon="11.3682028"><ele>235.66666666666669</ele><time>2026-04-22T14:30:42.1Z</time></trkpt><trkpt lat="43.2097366" lon="11.3682054"><ele>238.0</ele><time>2026-04-22T14:30:43.099Z</time></trkpt><trkpt lat="43.2096646" lon="11.3682413"><ele>240.33333333333334</ele><time>2026-04-22T14:30:44.102Z</time></trkpt><trkpt lat="43.2095915" lon="11.3683075"><ele>242.66666666666669</ele><time>2026-04-22T14:30:45.107Z</time></trkpt><trkpt lat="43.2095178" lon="11.3684087"><ele>245.0</ele><time>2026-04-22T14:30:46.1Z</time></trkpt><trkpt lat="43.2094355" lon="11.3685502"><ele>245.0</ele><time>2026-04-22T14:30:47.107Z</time></trkpt><trkpt lat="43.2093396" lon="11.3687233"><ele>245.0</ele><time>2026-04-22T14:30:48.096Z</time></trkpt><trkpt lat="43.2092269" lon="11.3689161"><ele>245.0</ele><time>2026-04-22T14:30:49.103Z</time></trkpt><trkpt lat="43.2091014" lon="11.3691109"><ele>251.33333333333334</ele><time>2026-04-22T14:30:50.095Z</time></trkpt><trkpt lat="43.2089718" lon="11.3693021"><ele>257.6666666666667</ele><time>2026-04-22T14:30:51.094Z</time></trkpt><trkpt lat="43.2088397" lon="11.3694883"><ele>264.0</ele><time>2026-04-22T14:30:52.099Z</time></trkpt><trkpt lat="43.2087036" lon="11.3696701"><ele>260.3333333333333</ele><time>2026-04-22T14:30:53.103Z</time></trkpt><trkpt lat="43.2085659" lon="11.3698596"><ele>256.66666666666663</ele><time>2026-04-22T14:30:54.106Z</time></trkpt><trkpt lat="43.2084173" lon="11.3700609"><ele>253.0</ele><time>2026-04-22T14:30:55.105Z</time></trkpt><trkpt lat="43.2082637" lon="11.3702671"><ele>258.66666666666663</ele><time>2026-04-22T14:30:56.106Z</time></trkpt><trkpt lat="43.2081139" lon="11.3704697"><ele>264.3333333333333</ele><time>2026-04-22T14:30:57.102Z</time></trkpt><trkpt lat="43.2079687" lon="11.3706685"><ele>270.0</ele><time>2026-04-22T14:30:58.1Z</time></trkpt><trkpt lat="43.2078257" lon="11.3708614"><ele>270.0</ele><time>2026-04-22T14:30:59.105Z</time></trkpt><trkpt lat="43.2076855" lon="11.371052"><ele>270.0</ele><time>2026-04-22T14:31:00.1Z</time></trkpt><trkpt lat="43.2075436" lon="11.3712507"><ele>270.0</ele><time>2026-04-22T14:31:01.104Z</time></trkpt><trkpt lat="43.2074" lon="11.3714447"><ele>275.6666666666667</ele><time>2026-04-22T14:31:02.095Z</time></trkpt><trkpt lat="43.2072663" lon="11.3716177"><ele>281.33333333333337</ele><time>2026-04-22T14:31:03.095Z</time></trkpt><trkpt lat="43.2071609" lon="11.3717769"><ele>287.0</ele><time>2026-04-22T14:31:04.099Z</time></trkpt><trkpt lat="43.2070646" lon="11.3719424"><ele>287.0</ele><time>2026-04-22T14:31:05.101Z</time></trkpt><trkpt lat="43.2069769" lon="11.3721142"><ele>287.0</ele><time>2026-04-22T14:31:06.1Z</time></trkpt><trkpt lat="43.2068959" lon="11.3722889"><ele>287.0</ele><time>2026-04-22T14:31:07.1Z</time></trkpt><trkpt lat="43.2068124" lon="11.3724648"><ele>287.5</ele><time>2026-04-22T14:31:08.098Z</time></trkpt><trkpt lat="43.2067252" lon="11.3726263"><ele>288.0</ele><time>2026-04-22T14:31:09.101Z</time></trkpt><trkpt lat="43.2066282" lon="11.3727732"><ele>288.5</ele><time>2026-04-22T14:31:10.102Z</time></trkpt><trkpt lat="43.2065128" lon="11.3729066"><ele>289.0</ele><time>2026-04-22T14:31:11.1Z</time></trkpt><trkpt lat="43.2063762" lon="11.3730218"><ele>281.66666666666663</ele><time>2026-04-22T14:31:12.099Z</time></trkpt><trkpt lat="43.2062102" lon="11.3731249"><ele>274.3333333333333</ele><time>2026-04-22T14:31:13.098Z</time></trkpt><trkpt lat="43.206036" lon="11.3732253"><ele>267.0</ele><time>2026-04-22T14:31:14.105Z</time></trkpt><trkpt lat="43.2058515" lon="11.373335"><ele>267.0</ele><time>2026-04-22T14:31:15.1Z</time></trkpt><trkpt lat="43.2056877" lon="11.3734545"><ele>267.0</ele><time>2026-04-22T14:31:16.102Z</time></trkpt><trkpt lat="43.2055539" lon="11.3735743"><ele>267.0</ele><time>2026-04-22T14:31:17.104Z</time></trkpt><trkpt lat="43.2054436" lon="11.3736765"><ele>267.25</ele><time>2026-04-22T14:31:18.104Z</time></trkpt><trkpt lat="43.2053495" lon="11.3737523"><ele>267.5</ele><time>2026-04-22T14:31:19.103Z</time></trkpt><trkpt lat="43.2052562" lon="11.3738028"><ele>267.75</ele><time>2026-04-22T14:31:20.104Z</time></trkpt><trkpt lat="43.205141" lon="11.373822"><ele>268.0</ele><time>2026-04-22T14:31:21.099Z</time></trkpt><trkpt lat="43.2050127" lon="11.3738122"><ele>268.0</ele><time>2026-04-22T14:31:22.101Z</time></trkpt><trkpt lat="43.2048731" lon="11.3737992"><ele>268.0</ele><time>2026-04-22T14:31:23.101Z</time></trkpt><trkpt lat="43.2047249" lon="11.3738009"><ele>268.0</ele><time>2026-04-22T14:31:24.095Z</time></trkpt><trkpt lat="43.2045574" lon="11.3738249"><ele>262.3333333333333</ele><time>2026-04-22T14:31:25.098Z</time></trkpt><trkpt lat="43.2043709" lon="11.3738918"><ele>256.6666666666667</ele><time>2026-04-22T14:31:26.1Z</time></trkpt><trkpt lat="43.2041777" lon="11.3739735"><ele>251.0</ele><time>2026-04-22T14:31:27.093Z</time></trkpt><trkpt lat="43.2039996" lon="11.3740467"><ele>252.75</ele><time>2026-04-22T14:31:28.095Z</time></trkpt><trkpt lat="43.2038429" lon="11.37411"><ele>254.5</ele><time>2026-04-22T14:31:29.095Z</time></trkpt><trkpt lat="43.2037172" lon="11.3741667"><ele>256.25</ele><time>2026-04-22T14:31:30.096Z</time></trkpt><trkpt lat="43.2036128" lon="11.3742334"><ele>258.0</ele><time>2026-04-22T14:31:31.096Z</time></trkpt><trkpt lat="43.2034984" lon="11.3743321"><ele>258.0</ele><time>2026-04-22T14:31:32.094Z</time></trkpt><trkpt lat="43.2033807" lon="11.3744467"><ele>258.0</ele><time>2026-04-22T14:31:33.094Z</time></trkpt><trkpt lat="43.2032642" lon="11.374535"><ele>258.0</ele><time>2026-04-22T14:31:34.1Z</time></trkpt><trkpt lat="43.2031333" lon="11.3745978"><ele>258.0</ele><time>2026-04-22T14:31:35.091Z</time></trkpt><trkpt lat="43.2029843" lon="11.3746346"><ele>256.5</ele><time>2026-04-22T14:31:36.095Z</time></trkpt><trkpt lat="43.2028345" lon="11.3746618"><ele>255.0</ele><time>2026-04-22T14:31:37.095Z</time></trkpt><trkpt lat="43.2026953" lon="11.374683"><ele>253.5</ele><time>2026-04-22T14:31:38.095Z</time></trkpt><trkpt lat="43.2025708" lon="11.3747074"><ele>252.0</ele><time>2026-04-22T14:31:39.098Z</time></trkpt><trkpt lat="43.2024504" lon="11.3747331"><ele>252.0</ele><time>2026-04-22T14:31:40.095Z</time></trkpt><trkpt lat="43.202335" lon="11.3747579"><ele>252.0</ele><time>2026-04-22T14:31:41.095Z</time></trkpt><trkpt lat="43.202232" lon="11.3747861"><ele>252.0</ele><time>2026-04-22T14:31:42.1Z</time></trkpt><trkpt lat="43.2021357" lon="11.3748251"><ele>252.0</ele><time>2026-04-22T14:31:43.096Z</time></trkpt><trkpt lat="43.2020406" lon="11.3748626"><ele>252.0</ele><time>2026-04-22T14:31:44.099Z</time></trkpt><trkpt lat="43.2019439" lon="11.3749"><ele>255.5</ele><time>2026-04-22T14:31:45.1Z</time></trkpt><trkpt lat="43.2018405" lon="11.3749463"><ele>259.0</ele><time>2026-04-22T14:31:46.098Z</time></trkpt><trkpt lat="43.2017316" lon="11.3749983"><ele>262.5</ele><time>2026-04-22T14:31:47.101Z</time></trkpt><trkpt lat="43.201609" lon="11.3750713"><ele>266.0</ele><time>2026-04-22T14:31:48.101Z</time></trkpt><trkpt lat="43.2014807" lon="11.37517"><ele>267.25</ele><time>2026-04-22T14:31:49.105Z</time></trkpt><trkpt lat="43.2013557" lon="11.3752726"><ele>268.5</ele><time>2026-04-22T14:31:50.11Z</time></trkpt><trkpt lat="43.2012371" lon="11.37536"><ele>269.75</ele><time>2026-04-22T14:31:51.103Z</time></trkpt><trkpt lat="43.2011317" lon="11.3754271"><ele>271.0</ele><time>2026-04-22T14:31:52.103Z</time></trkpt><trkpt lat="43.2010478" lon="11.3754707"><ele>271.0</ele><time>2026-04-22T14:31:53.096Z</time></trkpt><trkpt lat="43.2009825" lon="11.3754783"><ele>271.0</ele><time>2026-04-22T14:31:54.103Z</time></trkpt><trkpt lat="43.2008795" lon="11.375433"><ele>271.0</ele><time>2026-04-22T14:31:56.105Z</time></trkpt><trkpt lat="43.2007995" lon="11.3753835"><ele>271.0</ele><time>2026-04-22T14:31:57.104Z</time></trkpt><trkpt lat="43.2006777" lon="11.3753097"><ele>271.0</ele><time>2026-04-22T14:31:58.101Z</time></trkpt><trkpt lat="43.2005423" lon="11.3752332"><ele>267.25</ele><time>2026-04-22T14:31:59.099Z</time></trkpt><trkpt lat="43.2004152" lon="11.3751531"><ele>263.5</ele><time>2026-04-22T14:32:00.1Z</time></trkpt><trkpt lat="43.2003075" lon="11.3750866"><ele>259.75</ele><time>2026-04-22T14:32:01.103Z</time></trkpt><trkpt lat="43.2002268" lon="11.375038"><ele>256.0</ele><time>2026-04-22T14:32:02.101Z</time></trkpt><trkpt lat="43.2001172" lon="11.3750033"><ele>256.0</ele><time>2026-04-22T14:32:04.099Z</time></trkpt><trkpt lat="43.2000098" lon="11.3750874"><ele>256.0</ele><time>2026-04-22T14:32:06.098Z</time></trkpt><trkpt lat="43.1999627" lon="11.3751748"><ele>256.0</ele><time>2026-04-22T14:32:07.098Z</time></trkpt><trkpt lat="43.199916" lon="11.3752899"><ele>256.0</ele><time>2026-04-22T14:32:08.1Z</time></trkpt><trkpt lat="43.1998558" lon="11.3754371"><ele>256.0</ele><time>2026-04-22T14:32:09.104Z</time></trkpt><trkpt lat="43.1997851" lon="11.3755947"><ele>253.0</ele><time>2026-04-22T14:32:10.099Z</time></trkpt><trkpt lat="43.199699" lon="11.3757412"><ele>250.0</ele><time>2026-04-22T14:32:11.104Z</time></trkpt><trkpt lat="43.1995904" lon="11.3758665"><ele>247.0</ele><time>2026-04-22T14:32:12.094Z</time></trkpt><trkpt lat="43.1994744" lon="11.3759835"><ele>244.0</ele><time>2026-04-22T14:32:13.1Z</time></trkpt><trkpt lat="43.1993641" lon="11.3760831"><ele>244.0</ele><time>2026-04-22T14:32:14.104Z</time></trkpt><trkpt lat="43.1992518" lon="11.3761559"><ele>243.99999999999997</ele><time>2026-04-22T14:32:15.111Z</time></trkpt><trkpt lat="43.1991426" lon="11.3762063"><ele>243.99999999999997</ele><time>2026-04-22T14:32:16.104Z</time></trkpt><trkpt lat="43.1990384" lon="11.3762324"><ele>244.0</ele><time>2026-04-22T14:32:17.1Z</time></trkpt><trkpt lat="43.198944" lon="11.3762492"><ele>244.0</ele><time>2026-04-22T14:32:18.102Z</time></trkpt><trkpt lat="43.1988383" lon="11.3762676"><ele>243.0</ele><time>2026-04-22T14:32:19.095Z</time></trkpt><trkpt lat="43.1987264" lon="11.3762923"><ele>242.0</ele><time>2026-04-22T14:32:20.101Z</time></trkpt><trkpt lat="43.1986079" lon="11.3763218"><ele>241.0</ele><time>2026-04-22T14:32:21.1Z</time></trkpt><trkpt lat="43.1984891" lon="11.3763587"><ele>240.0</ele><time>2026-04-22T14:32:22.097Z</time></trkpt><trkpt lat="43.1983762" lon="11.3764097"><ele>240.0</ele><time>2026-04-22T14:32:23.109Z</time></trkpt><trkpt lat="43.1982721" lon="11.3764824"><ele>240.0</ele><time>2026-04-22T14:32:24.098Z</time></trkpt><trkpt lat="43.1981681" lon="11.3765871"><ele>240.0</ele><time>2026-04-22T14:32:25.097Z</time></trkpt><trkpt lat="43.1980587" lon="11.3767305"><ele>240.0</ele><time>2026-04-22T14:32:26.099Z</time></trkpt><trkpt lat="43.197942" lon="11.3768889"><ele>240.0</ele><time>2026-04-22T14:32:27.104Z</time></trkpt><trkpt lat="43.1978046" lon="11.37705"><ele>240.0</ele><time>2026-04-22T14:32:28.109Z</time></trkpt><trkpt lat="43.197632" lon="11.3771901"><ele>240.0</ele><time>2026-04-22T14:32:29.106Z</time></trkpt><trkpt lat="43.1974444" lon="11.3773165"><ele>237.33333333333331</ele><time>2026-04-22T14:32:30.111Z</time></trkpt><trkpt lat="43.1972542" lon="11.3774324"><ele>234.66666666666666</ele><time>2026-04-22T14:32:31.105Z</time></trkpt><trkpt lat="43.1970547" lon="11.3775571"><ele>232.0</ele><time>2026-04-22T14:32:32.097Z</time></trkpt><trkpt lat="43.196858" lon="11.3776795"><ele>232.0</ele><time>2026-04-22T14:32:33.099Z</time></trkpt><trkpt lat="43.1966712" lon="11.3778043"><ele>232.0</ele><time>2026-04-22T14:32:34.096Z</time></trkpt><trkpt lat="43.1964875" lon="11.3779329"><ele>232.0</ele><time>2026-04-22T14:32:35.095Z</time></trkpt><trkpt lat="43.1962948" lon="11.378071"><ele>232.66666666666666</ele><time>2026-04-22T14:32:36.11Z</time></trkpt><trkpt lat="43.1960947" lon="11.3781991"><ele>233.33333333333331</ele><time>2026-04-22T14:32:37.098Z</time></trkpt><trkpt lat="43.1958999" lon="11.3783056"><ele>234.0</ele><time>2026-04-22T14:32:38.094Z</time></trkpt><trkpt lat="43.1957252" lon="11.3783882"><ele>233.0</ele><time>2026-04-22T14:32:39.097Z</time></trkpt><trkpt lat="43.1955805" lon="11.3784477"><ele>232.0</ele><time>2026-04-22T14:32:40.096Z</time></trkpt><trkpt lat="43.1954637" lon="11.3785001"><ele>231.0</ele><time>2026-04-22T14:32:41.105Z</time></trkpt><trkpt lat="43.1953629" lon="11.37855"><ele>230.0</ele><time>2026-04-22T14:32:42.106Z</time></trkpt><trkpt lat="43.1952671" lon="11.3786175"><ele>230.0</ele><time>2026-04-22T14:32:43.104Z</time></trkpt><trkpt lat="43.1951701" lon="11.3787247"><ele>230.0</ele><time>2026-04-22T14:32:44.109Z</time></trkpt><trkpt lat="43.195068" lon="11.3788696"><ele>230.0</ele><time>2026-04-22T14:32:45.1Z</time></trkpt><trkpt lat="43.1949603" lon="11.3790277"><ele>230.0</ele><time>2026-04-22T14:32:46.102Z</time></trkpt><trkpt lat="43.1948635" lon="11.3791771"><ele>229.25</ele><time>2026-04-22T14:32:47.095Z</time></trkpt><trkpt lat="43.1947809" lon="11.3793213"><ele>228.5</ele><time>2026-04-22T14:32:48.113Z</time></trkpt><trkpt lat="43.1947143" lon="11.3794689"><ele>227.75</ele><time>2026-04-22T14:32:49.108Z</time></trkpt><trkpt lat="43.1946573" lon="11.3796298"><ele>227.0</ele><time>2026-04-22T14:32:50.105Z</time></trkpt><trkpt lat="43.1946129" lon="11.3798057"><ele>227.0</ele><time>2026-04-22T14:32:51.106Z</time></trkpt><trkpt lat="43.194578" lon="11.3800081"><ele>227.0</ele><time>2026-04-22T14:32:52.111Z</time></trkpt><trkpt lat="43.1945552" lon="11.3802545"><ele>227.0</ele><time>2026-04-22T14:32:53.103Z</time></trkpt><trkpt lat="43.1945381" lon="11.3805158"><ele>227.33333333333334</ele><time>2026-04-22T14:32:54.101Z</time></trkpt><trkpt lat="43.1945193" lon="11.380751"><ele>227.66666666666669</ele><time>2026-04-22T14:32:55.101Z</time></trkpt><trkpt lat="43.1944857" lon="11.380976"><ele>228.0</ele><time>2026-04-22T14:32:56.098Z</time></trkpt><trkpt lat="43.1944291" lon="11.3812014"><ele>228.0</ele><time>2026-04-22T14:32:57.11Z</time></trkpt><trkpt lat="43.1943543" lon="11.381445"><ele>228.0</ele><time>2026-04-22T14:32:58.111Z</time></trkpt><trkpt lat="43.194255" lon="11.3817076"><ele>228.0</ele><time>2026-04-22T14:32:59.107Z</time></trkpt><trkpt lat="43.19414" lon="11.3819826"><ele>227.66666666666669</ele><time>2026-04-22T14:33:00.112Z</time></trkpt><trkpt lat="43.1940313" lon="11.3822537"><ele>227.33333333333334</ele><time>2026-04-22T14:33:01.11Z</time></trkpt><trkpt lat="43.1939323" lon="11.3825103"><ele>227.0</ele><time>2026-04-22T14:33:02.104Z</time></trkpt><trkpt lat="43.1938439" lon="11.382753"><ele>226.66666666666669</ele><time>2026-04-22T14:33:03.095Z</time></trkpt><trkpt lat="43.1937665" lon="11.3829757"><ele>226.33333333333331</ele><time>2026-04-22T14:33:04.097Z</time></trkpt><trkpt lat="43.1936973" lon="11.3831745"><ele>226.0</ele><time>2026-04-22T14:33:05.098Z</time></trkpt><trkpt lat="43.1936213" lon="11.3833468"><ele>226.0</ele><time>2026-04-22T14:33:06.099Z</time></trkpt><trkpt lat="43.1935333" lon="11.3834831"><ele>226.0</ele><time>2026-04-22T14:33:07.1Z</time></trkpt><trkpt lat="43.1934279" lon="11.3835795"><ele>226.0</ele><time>2026-04-22T14:33:08.099Z</time></trkpt><trkpt lat="43.1933104" lon="11.3836543"><ele>226.0</ele><time>2026-04-22T14:33:09.108Z</time></trkpt><trkpt lat="43.19318" lon="11.3837162"><ele>225.33333333333331</ele><time>2026-04-22T14:33:10.094Z</time></trkpt><trkpt lat="43.1930124" lon="11.3837667"><ele>224.66666666666669</ele><time>2026-04-22T14:33:11.097Z</time></trkpt><trkpt lat="43.1928278" lon="11.3838301"><ele>224.0</ele><time>2026-04-22T14:33:12.1Z</time></trkpt><trkpt lat="43.1926305" lon="11.3838965"><ele>224.0</ele><time>2026-04-22T14:33:13.102Z</time></trkpt><trkpt lat="43.1924484" lon="11.3839548"><ele>224.0</ele><time>2026-04-22T14:33:14.099Z</time></trkpt><trkpt lat="43.1922763" lon="11.3839831"><ele>224.0</ele><time>2026-04-22T14:33:15.109Z</time></trkpt><trkpt lat="43.1921156" lon="11.3839815"><ele>224.2</ele><time>2026-04-22T14:33:16.097Z</time></trkpt><trkpt lat="43.1919738" lon="11.383962"><ele>224.39999999999998</ele><time>2026-04-22T14:33:17.101Z</time></trkpt><trkpt lat="43.1918672" lon="11.3839542"><ele>224.6</ele><time>2026-04-22T14:33:18.097Z</time></trkpt><trkpt lat="43.1917875" lon="11.3839816"><ele>224.8</ele><time>2026-04-22T14:33:19.103Z</time></trkpt><trkpt lat="43.1916987" lon="11.3840467"><ele>225.0</ele><time>2026-04-22T14:33:20.106Z</time></trkpt><trkpt lat="43.1916162" lon="11.3841492"><ele>225.0</ele><time>2026-04-22T14:33:21.101Z</time></trkpt><trkpt lat="43.1915349" lon="11.38428"><ele>225.0</ele><time>2026-04-22T14:33:22.111Z</time></trkpt><trkpt lat="43.1914448" lon="11.384452"><ele>225.0</ele><time>2026-04-22T14:33:23.102Z</time></trkpt><trkpt lat="43.1913396" lon="11.3846368"><ele>226.0</ele><time>2026-04-22T14:33:24.105Z</time></trkpt><trkpt lat="43.1912139" lon="11.3848239"><ele>227.0</ele><time>2026-04-22T14:33:25.106Z</time></trkpt><trkpt lat="43.1910819" lon="11.3849953"><ele>228.0</ele><time>2026-04-22T14:33:26.097Z</time></trkpt><trkpt lat="43.1909386" lon="11.3851449"><ele>228.0</ele><time>2026-04-22T14:33:27.11Z</time></trkpt><trkpt lat="43.1907767" lon="11.3852761"><ele>228.0</ele><time>2026-04-22T14:33:28.101Z</time></trkpt><trkpt lat="43.1906173" lon="11.3853893"><ele>228.0</ele><time>2026-04-22T14:33:29.105Z</time></trkpt><trkpt lat="43.1904521" lon="11.3854858"><ele>226.0</ele><time>2026-04-22T14:33:30.098Z</time></trkpt><trkpt lat="43.190277" lon="11.3855709"><ele>224.0</ele><time>2026-04-22T14:33:31.098Z</time></trkpt><trkpt lat="43.1900991" lon="11.3856344"><ele>222.0</ele><time>2026-04-22T14:33:32.105Z</time></trkpt><trkpt lat="43.1899091" lon="11.385684"><ele>220.5</ele><time>2026-04-22T14:33:33.095Z</time></trkpt><trkpt lat="43.1896872" lon="11.3857285"><ele>219.0</ele><time>2026-04-22T14:33:34.091Z</time></trkpt><trkpt lat="43.1894537" lon="11.3857821"><ele>219.0</ele><time>2026-04-22T14:33:35.104Z</time></trkpt><trkpt lat="43.189227" lon="11.3858414"><ele>219.0</ele><time>2026-04-22T14:33:36.102Z</time></trkpt><trkpt lat="43.1890163" lon="11.3859097"><ele>219.0</ele><time>2026-04-22T14:33:37.099Z</time></trkpt><trkpt lat="43.1888168" lon="11.3859671"><ele>220.75</ele><time>2026-04-22T14:33:38.103Z</time></trkpt><trkpt lat="43.1886555" lon="11.3859877"><ele>222.5</ele><time>2026-04-22T14:33:39.105Z</time></trkpt><trkpt lat="43.1885299" lon="11.385982"><ele>224.25</ele><time>2026-04-22T14:33:40.103Z</time></trkpt><trkpt lat="43.1884136" lon="11.3859531"><ele>226.0</ele><time>2026-04-22T14:33:41.105Z</time></trkpt><trkpt lat="43.1883192" lon="11.3858814"><ele>226.0</ele><time>2026-04-22T14:33:42.095Z</time></trkpt><trkpt lat="43.1882208" lon="11.3857765"><ele>226.0</ele><time>2026-04-22T14:33:43.099Z</time></trkpt><trkpt lat="43.1881138" lon="11.38565"><ele>226.0</ele><time>2026-04-22T14:33:44.107Z</time></trkpt><trkpt lat="43.1879928" lon="11.3855372"><ele>226.0</ele><time>2026-04-22T14:33:45.099Z</time></trkpt><trkpt lat="43.18784" lon="11.3854387"><ele>230.66666666666666</ele><time>2026-04-22T14:33:46.107Z</time></trkpt><trkpt lat="43.187669" lon="11.3853538"><ele>235.33333333333331</ele><time>2026-04-22T14:33:47.101Z</time></trkpt><trkpt lat="43.1875071" lon="11.3852886"><ele>240.0</ele><time>2026-04-22T14:33:48.099Z</time></trkpt><trkpt lat="43.1873611" lon="11.3852567"><ele>242.66666666666669</ele><time>2026-04-22T14:33:49.094Z</time></trkpt><trkpt lat="43.1872199" lon="11.3852506"><ele>245.33333333333334</ele><time>2026-04-22T14:33:50.103Z</time></trkpt><trkpt lat="43.1870735" lon="11.3852695"><ele>248.0</ele><time>2026-04-22T14:33:51.096Z</time></trkpt><trkpt lat="43.1869068" lon="11.3853123"><ele>248.0</ele><time>2026-04-22T14:33:52.102Z</time></trkpt><trkpt lat="43.186717" lon="11.3853654"><ele>248.0</ele><time>2026-04-22T14:33:53.101Z</time></trkpt><trkpt lat="43.1865145" lon="11.385415"><ele>248.0</ele><time>2026-04-22T14:33:54.101Z</time></trkpt><trkpt lat="43.1863023" lon="11.3854472"><ele>252.0</ele><time>2026-04-22T14:33:55.104Z</time></trkpt><trkpt lat="43.1860653" lon="11.3854486"><ele>256.0</ele><time>2026-04-22T14:33:56.106Z</time></trkpt><trkpt lat="43.1858341" lon="11.3854355"><ele>258.75</ele><time>2026-04-22T14:33:57.107Z</time></trkpt><trkpt lat="43.1856571" lon="11.3854211"><ele>261.5</ele><time>2026-04-22T14:33:58.106Z</time></trkpt><trkpt lat="43.1855234" lon="11.3854015"><ele>264.25</ele><time>2026-04-22T14:33:59.097Z</time></trkpt><trkpt lat="43.1854042" lon="11.3853597"><ele>267.0</ele><time>2026-04-22T14:34:00.1Z</time></trkpt><trkpt lat="43.1853282" lon="11.3852845"><ele>267.0</ele><time>2026-04-22T14:34:01.11Z</time></trkpt><trkpt lat="43.1852446" lon="11.3851811"><ele>267.0</ele><time>2026-04-22T14:34:02.098Z</time></trkpt><trkpt lat="43.1851591" lon="11.3850675"><ele>267.0</ele><time>2026-04-22T14:34:03.104Z</time></trkpt><trkpt lat="43.1850667" lon="11.3849284"><ele>267.0</ele><time>2026-04-22T14:34:04.096Z</time></trkpt><trkpt lat="43.1849807" lon="11.3847752"><ele>267.75</ele><time>2026-04-22T14:34:05.098Z</time></trkpt><trkpt lat="43.1849005" lon="11.3846362"><ele>268.5</ele><time>2026-04-22T14:34:06.1Z</time></trkpt><trkpt lat="43.1848177" lon="11.3845146"><ele>269.25</ele><time>2026-04-22T14:34:07.099Z</time></trkpt><trkpt lat="43.1847258" lon="11.3844033"><ele>270.0</ele><time>2026-04-22T14:34:08.101Z</time></trkpt><trkpt lat="43.1846214" lon="11.3843008"><ele>271.25</ele><time>2026-04-22T14:34:09.105Z</time></trkpt><trkpt lat="43.1845048" lon="11.3842028"><ele>272.5</ele><time>2026-04-22T14:34:10.101Z</time></trkpt><trkpt lat="43.184386" lon="11.3840979"><ele>273.75</ele><time>2026-04-22T14:34:11.098Z</time></trkpt><trkpt lat="43.1842661" lon="11.3840035"><ele>275.0</ele><time>2026-04-22T14:34:12.098Z</time></trkpt><trkpt lat="43.1841446" lon="11.3839253"><ele>275.0</ele><time>2026-04-22T14:34:13.096Z</time></trkpt><trkpt lat="43.1840144" lon="11.3838613"><ele>275.0</ele><time>2026-04-22T14:34:14.1Z</time></trkpt><trkpt lat="43.1838628" lon="11.3837999"><ele>275.0</ele><time>2026-04-22T14:34:15.103Z</time></trkpt><trkpt lat="43.1837004" lon="11.3837455"><ele>274.75</ele><time>2026-04-22T14:34:16.098Z</time></trkpt><trkpt lat="43.1835472" lon="11.3836952"><ele>274.5</ele><time>2026-04-22T14:34:17.107Z</time></trkpt><trkpt lat="43.1834093" lon="11.3836408"><ele>274.25</ele><time>2026-04-22T14:34:18.101Z</time></trkpt><trkpt lat="43.1832789" lon="11.3835843"><ele>274.0</ele><time>2026-04-22T14:34:19.107Z</time></trkpt><trkpt lat="43.1831403" lon="11.3835303"><ele>273.0</ele><time>2026-04-22T14:34:20.099Z</time></trkpt><trkpt lat="43.1829904" lon="11.3834709"><ele>272.0</ele><time>2026-04-22T14:34:21.1Z</time></trkpt><trkpt lat="43.1828325" lon="11.3833984"><ele>271.0</ele><time>2026-04-22T14:34:22.104Z</time></trkpt><trkpt lat="43.1826655" lon="11.3833211"><ele>271.0</ele><time>2026-04-22T14:34:23.099Z</time></trkpt><trkpt lat="43.1824914" lon="11.3832457"><ele>271.0</ele><time>2026-04-22T14:34:24.105Z</time></trkpt><trkpt lat="43.1823163" lon="11.3831771"><ele>271.0</ele><time>2026-04-22T14:34:25.102Z</time></trkpt><trkpt lat="43.1821343" lon="11.383123"><ele>270.3333333333333</ele><time>2026-04-22T14:34:26.102Z</time></trkpt><trkpt lat="43.1819415" lon="11.38308"><ele>269.6666666666667</ele><time>2026-04-22T14:34:27.098Z</time></trkpt><trkpt lat="43.1817533" lon="11.3830405"><ele>269.0</ele><time>2026-04-22T14:34:28.099Z</time></trkpt><trkpt lat="43.1815773" lon="11.3830023"><ele>268.25</ele><time>2026-04-22T14:34:29.099Z</time></trkpt><trkpt lat="43.1814359" lon="11.3829737"><ele>267.5</ele><time>2026-04-22T14:34:30.097Z</time></trkpt><trkpt lat="43.1813235" lon="11.3829475"><ele>266.75</ele><time>2026-04-22T14:34:31.093Z</time></trkpt><trkpt lat="43.1812158" lon="11.3829058"><ele>266.0</ele><time>2026-04-22T14:34:32.098Z</time></trkpt><trkpt lat="43.1811161" lon="11.3828489"><ele>266.0</ele><time>2026-04-22T14:34:33.096Z</time></trkpt><trkpt lat="43.1810269" lon="11.382795"><ele>266.0</ele><time>2026-04-22T14:34:34.098Z</time></trkpt><trkpt lat="43.1809556" lon="11.3827525"><ele>266.0</ele><time>2026-04-22T14:34:35.103Z</time></trkpt><trkpt lat="43.1808814" lon="11.382707"><ele>266.0</ele><time>2026-04-22T14:34:37.098Z</time></trkpt><trkpt lat="43.1808238" lon="11.3827505"><ele>266.0</ele><time>2026-04-22T14:34:42.098Z</time></trkpt><trkpt lat="43.1807357" lon="11.3828099"><ele>266.0</ele><time>2026-04-22T14:34:43.099Z</time></trkpt><trkpt lat="43.1806395" lon="11.3829016"><ele>266.0</ele><time>2026-04-22T14:34:44.114Z</time></trkpt><trkpt lat="43.1805247" lon="11.3830109"><ele>266.0</ele><time>2026-04-22T14:34:45.098Z</time></trkpt><trkpt lat="43.1804111" lon="11.3831314"><ele>266.0</ele><time>2026-04-22T14:34:46.11Z</time></trkpt><trkpt lat="43.1802678" lon="11.3832501"><ele>266.0</ele><time>2026-04-22T14:34:47.101Z</time></trkpt><trkpt lat="43.1801075" lon="11.3833674"><ele>266.0</ele><time>2026-04-22T14:34:48.104Z</time></trkpt><trkpt lat="43.1799328" lon="11.3834832"><ele>266.0</ele><time>2026-04-22T14:34:49.102Z</time></trkpt><trkpt lat="43.1797501" lon="11.3835934"><ele>265.0</ele><time>2026-04-22T14:34:50.1Z</time></trkpt><trkpt lat="43.1795506" lon="11.3836892"><ele>264.0</ele><time>2026-04-22T14:34:51.107Z</time></trkpt><trkpt lat="43.1793448" lon="11.3837856"><ele>263.0</ele><time>2026-04-22T14:34:52.097Z</time></trkpt><trkpt lat="43.1791466" lon="11.3838814"><ele>265.0</ele><time>2026-04-22T14:34:53.1Z</time></trkpt><trkpt lat="43.1789569" lon="11.3839853"><ele>267.0</ele><time>2026-04-22T14:34:54.102Z</time></trkpt><trkpt lat="43.1787767" lon="11.3841135"><ele>269.0</ele><time>2026-04-22T14:34:55.102Z</time></trkpt><trkpt lat="43.1786179" lon="11.3842718"><ele>269.0</ele><time>2026-04-22T14:34:56.101Z</time></trkpt><trkpt lat="43.1784717" lon="11.3844603"><ele>269.0</ele><time>2026-04-22T14:34:57.1Z</time></trkpt><trkpt lat="43.1783312" lon="11.3846589"><ele>269.0</ele><time>2026-04-22T14:34:58.095Z</time></trkpt><trkpt lat="43.1781837" lon="11.384846"><ele>269.0</ele><time>2026-04-22T14:34:59.103Z</time></trkpt><trkpt lat="43.1780252" lon="11.3850095"><ele>269.0</ele><time>2026-04-22T14:35:00.095Z</time></trkpt><trkpt lat="43.1778538" lon="11.3851556"><ele>269.0</ele><time>2026-04-22T14:35:01.097Z</time></trkpt><trkpt lat="43.1776731" lon="11.3852955"><ele>269.0</ele><time>2026-04-22T14:35:02.106Z</time></trkpt><trkpt lat="43.1774974" lon="11.3854448"><ele>269.0</ele><time>2026-04-22T14:35:03.093Z</time></trkpt><trkpt lat="43.1773485" lon="11.3856273"><ele>269.0</ele><time>2026-04-22T14:35:04.103Z</time></trkpt><trkpt lat="43.1772255" lon="11.3858451"><ele>270.0</ele><time>2026-04-22T14:35:05.097Z</time></trkpt><trkpt lat="43.1771216" lon="11.3860836"><ele>271.0</ele><time>2026-04-22T14:35:06.096Z</time></trkpt><trkpt lat="43.1770279" lon="11.3863373"><ele>272.0</ele><time>2026-04-22T14:35:07.098Z</time></trkpt><trkpt lat="43.1769293" lon="11.3865954"><ele>272.0</ele><time>2026-04-22T14:35:08.093Z</time></trkpt><trkpt lat="43.1768267" lon="11.3868548"><ele>272.0</ele><time>2026-04-22T14:35:09.102Z</time></trkpt><trkpt lat="43.1767247" lon="11.3871063"><ele>272.0</ele><time>2026-04-22T14:35:10.09Z</time></trkpt><trkpt lat="43.1766269" lon="11.3873418"><ele>271.33333333333337</ele><time>2026-04-22T14:35:11.093Z</time></trkpt><trkpt lat="43.1765356" lon="11.3875569"><ele>270.6666666666667</ele><time>2026-04-22T14:35:12.096Z</time></trkpt><trkpt lat="43.176446" lon="11.3877547"><ele>270.0</ele><time>2026-04-22T14:35:13.108Z</time></trkpt><trkpt lat="43.1763438" lon="11.3879321"><ele>271.3333333333333</ele><time>2026-04-22T14:35:14.103Z</time></trkpt><trkpt lat="43.1762157" lon="11.3880938"><ele>272.66666666666663</ele><time>2026-04-22T14:35:15.105Z</time></trkpt><trkpt lat="43.1760672" lon="11.3882325"><ele>274.0</ele><time>2026-04-22T14:35:16.105Z</time></trkpt><trkpt lat="43.1759068" lon="11.388342"><ele>274.0</ele><time>2026-04-22T14:35:17.105Z</time></trkpt><trkpt lat="43.1757443" lon="11.3884202"><ele>274.0</ele><time>2026-04-22T14:35:18.099Z</time></trkpt><trkpt lat="43.1755872" lon="11.3884833"><ele>274.0</ele><time>2026-04-22T14:35:19.102Z</time></trkpt><trkpt lat="43.1754225" lon="11.3885478"><ele>273.66666666666663</ele><time>2026-04-22T14:35:20.104Z</time></trkpt><trkpt lat="43.175263" lon="11.3886121"><ele>273.3333333333333</ele><time>2026-04-22T14:35:21.098Z</time></trkpt><trkpt lat="43.1751057" lon="11.38868"><ele>273.0</ele><time>2026-04-22T14:35:22.098Z</time></trkpt><trkpt lat="43.174946" lon="11.3887498"><ele>272.6666666666667</ele><time>2026-04-22T14:35:23.108Z</time></trkpt><trkpt lat="43.1747814" lon="11.3888218"><ele>272.33333333333337</ele><time>2026-04-22T14:35:24.105Z</time></trkpt><trkpt lat="43.1746125" lon="11.3888941"><ele>272.0</ele><time>2026-04-22T14:35:25.098Z</time></trkpt><trkpt lat="43.1744463" lon="11.3889657"><ele>274.33333333333337</ele><time>2026-04-22T14:35:26.105Z</time></trkpt><trkpt lat="43.1742912" lon="11.3890351"><ele>276.6666666666667</ele><time>2026-04-22T14:35:27.102Z</time></trkpt><trkpt lat="43.1741473" lon="11.3891086"><ele>279.0</ele><time>2026-04-22T14:35:28.098Z</time></trkpt><trkpt lat="43.1740153" lon="11.389196"><ele>282.0</ele><time>2026-04-22T14:35:29.096Z</time></trkpt><trkpt lat="43.1738969" lon="11.3893024"><ele>285.0</ele><time>2026-04-22T14:35:30.098Z</time></trkpt><trkpt lat="43.1737966" lon="11.3894182"><ele>288.0</ele><time>2026-04-22T14:35:31.1Z</time></trkpt><trkpt lat="43.1737188" lon="11.3895317"><ele>291.0</ele><time>2026-04-22T14:35:32.099Z</time></trkpt><trkpt lat="43.1736593" lon="11.3896291"><ele>290.1666666666667</ele><time>2026-04-22T14:35:33.095Z</time></trkpt><trkpt lat="43.173614" lon="11.3897036"><ele>289.3333333333333</ele><time>2026-04-22T14:35:34.101Z</time></trkpt><trkpt lat="43.1735605" lon="11.3897852"><ele>288.5</ele><time>2026-04-22T14:35:36.096Z</time></trkpt><trkpt lat="43.1735166" lon="11.3899065"><ele>287.66666666666663</ele><time>2026-04-22T14:35:39.103Z</time></trkpt><trkpt lat="43.1734787" lon="11.3899893"><ele>286.8333333333333</ele><time>2026-04-22T14:35:40.107Z</time></trkpt><trkpt lat="43.1734188" lon="11.3901132"><ele>286.0</ele><time>2026-04-22T14:35:41.1Z</time></trkpt><trkpt lat="43.1733387" lon="11.3902566"><ele>286.0</ele><time>2026-04-22T14:35:42.105Z</time></trkpt><trkpt lat="43.1732442" lon="11.3903997"><ele>286.0</ele><time>2026-04-22T14:35:43.107Z</time></trkpt><trkpt lat="43.1731426" lon="11.3905381"><ele>286.0</ele><time>2026-04-22T14:35:44.106Z</time></trkpt><trkpt lat="43.1730241" lon="11.3906762"><ele>286.0</ele><time>2026-04-22T14:35:45.097Z</time></trkpt><trkpt lat="43.1728754" lon="11.3907881"><ele>290.0</ele><time>2026-04-22T14:35:46.102Z</time></trkpt><trkpt lat="43.1727147" lon="11.3908649"><ele>294.0</ele><time>2026-04-22T14:35:47.1Z</time></trkpt><trkpt lat="43.172558" lon="11.390918"><ele>298.0</ele><time>2026-04-22T14:35:48.095Z</time></trkpt><trkpt lat="43.1724128" lon="11.3909674"><ele>299.75</ele><time>2026-04-22T14:35:49.1Z</time></trkpt><trkpt lat="43.1722785" lon="11.3910221"><ele>301.5</ele><time>2026-04-22T14:35:50.1Z</time></trkpt><trkpt lat="43.1721526" lon="11.3910792"><ele>303.25</ele><time>2026-04-22T14:35:51.101Z</time></trkpt><trkpt lat="43.1720308" lon="11.3911399"><ele>305.0</ele><time>2026-04-22T14:35:52.105Z</time></trkpt><trkpt lat="43.17191" lon="11.3912063"><ele>305.0</ele><time>2026-04-22T14:35:53.096Z</time></trkpt><trkpt lat="43.1717902" lon="11.3912659"><ele>305.0</ele><time>2026-04-22T14:35:54.105Z</time></trkpt><trkpt lat="43.171671" lon="11.3913075"><ele>305.0</ele><time>2026-04-22T14:35:55.097Z</time></trkpt><trkpt lat="43.1715542" lon="11.3913273"><ele>305.0</ele><time>2026-04-22T14:35:56.103Z</time></trkpt><trkpt lat="43.1714381" lon="11.3913274"><ele>304.25</ele><time>2026-04-22T14:35:57.105Z</time></trkpt><trkpt lat="43.1713177" lon="11.3913158"><ele>303.5</ele><time>2026-04-22T14:35:58.104Z</time></trkpt><trkpt lat="43.1711942" lon="11.3912943"><ele>302.75</ele><time>2026-04-22T14:35:59.102Z</time></trkpt><trkpt lat="43.1710728" lon="11.3912506"><ele>302.0</ele><time>2026-04-22T14:36:00.098Z</time></trkpt><trkpt lat="43.1709516" lon="11.3911771"><ele>302.0</ele><time>2026-04-22T14:36:01.108Z</time></trkpt><trkpt lat="43.1708204" lon="11.3910935"><ele>302.0</ele><time>2026-04-22T14:36:02.097Z</time></trkpt><trkpt lat="43.1706775" lon="11.3910132"><ele>302.0</ele><time>2026-04-22T14:36:03.099Z</time></trkpt><trkpt lat="43.1705421" lon="11.3909341"><ele>302.0</ele><time>2026-04-22T14:36:04.097Z</time></trkpt><trkpt lat="43.1704192" lon="11.3908477"><ele>302.0</ele><time>2026-04-22T14:36:05.102Z</time></trkpt><trkpt lat="43.1702955" lon="11.390756"><ele>302.0</ele><time>2026-04-22T14:36:06.108Z</time></trkpt><trkpt lat="43.1701652" lon="11.3906508"><ele>302.0</ele><time>2026-04-22T14:36:07.094Z</time></trkpt><trkpt lat="43.1700297" lon="11.3905296"><ele>301.6666666666667</ele><time>2026-04-22T14:36:08.101Z</time></trkpt><trkpt lat="43.16989" lon="11.3904076"><ele>301.3333333333333</ele><time>2026-04-22T14:36:09.099Z</time></trkpt><trkpt lat="43.1697452" lon="11.39029"><ele>301.0</ele><time>2026-04-22T14:36:10.103Z</time></trkpt><trkpt lat="43.1695907" lon="11.3901919"><ele>297.3333333333333</ele><time>2026-04-22T14:36:11.103Z</time></trkpt><trkpt lat="43.1694359" lon="11.3901106"><ele>293.6666666666667</ele><time>2026-04-22T14:36:12.098Z</time></trkpt><trkpt lat="43.1692794" lon="11.3900527"><ele>290.0</ele><time>2026-04-22T14:36:13.103Z</time></trkpt><trkpt lat="43.1691196" lon="11.3900143"><ele>286.33333333333337</ele><time>2026-04-22T14:36:14.101Z</time></trkpt><trkpt lat="43.168964" lon="11.3899912"><ele>282.6666666666667</ele><time>2026-04-22T14:36:15.105Z</time></trkpt><trkpt lat="43.168813" lon="11.3899825"><ele>279.0</ele><time>2026-04-22T14:36:16.106Z</time></trkpt><trkpt lat="43.1686552" lon="11.3899753"><ele>279.0</ele><time>2026-04-22T14:36:17.1Z</time></trkpt><trkpt lat="43.1684939" lon="11.3899689"><ele>279.0</ele><time>2026-04-22T14:36:18.099Z</time></trkpt><trkpt lat="43.16833" lon="11.3899604"><ele>279.0</ele><time>2026-04-22T14:36:19.112Z</time></trkpt><trkpt lat="43.1681711" lon="11.3899498"><ele>277.8</ele><time>2026-04-22T14:36:20.099Z</time></trkpt><trkpt lat="43.16803" lon="11.3899294"><ele>276.59999999999997</ele><time>2026-04-22T14:36:21.107Z</time></trkpt><trkpt lat="43.1679232" lon="11.3899196"><ele>275.4</ele><time>2026-04-22T14:36:22.104Z</time></trkpt><trkpt lat="43.167829" lon="11.3899129"><ele>274.2</ele><time>2026-04-22T14:36:23.105Z</time></trkpt><trkpt lat="43.1677375" lon="11.3899105"><ele>273.0</ele><time>2026-04-22T14:36:24.104Z</time></trkpt><trkpt lat="43.1676414" lon="11.3899074"><ele>273.0</ele><time>2026-04-22T14:36:25.101Z</time></trkpt><trkpt lat="43.1675392" lon="11.3898989"><ele>273.0</ele><time>2026-04-22T14:36:26.1Z</time></trkpt><trkpt lat="43.1674342" lon="11.3898841"><ele>273.0</ele><time>2026-04-22T14:36:27.097Z</time></trkpt><trkpt lat="43.1673275" lon="11.3898704"><ele>273.0</ele><time>2026-04-22T14:36:28.104Z</time></trkpt><trkpt lat="43.1672166" lon="11.3898632"><ele>273.0</ele><time>2026-04-22T14:36:29.096Z</time></trkpt><trkpt lat="43.1671071" lon="11.3898634"><ele>273.2</ele><time>2026-04-22T14:36:30.095Z</time></trkpt><trkpt lat="43.1670033" lon="11.3898719"><ele>273.4</ele><time>2026-04-22T14:36:31.095Z</time></trkpt><trkpt lat="43.1669076" lon="11.3898919"><ele>273.59999999999997</ele><time>2026-04-22T14:36:32.094Z</time></trkpt><trkpt lat="43.1668205" lon="11.3899172"><ele>273.8</ele><time>2026-04-22T14:36:33.099Z</time></trkpt><trkpt lat="43.1667389" lon="11.3899587"><ele>274.0</ele><time>2026-04-22T14:36:34.1Z</time></trkpt><trkpt lat="43.1666599" lon="11.390018"><ele>274.0</ele><time>2026-04-22T14:36:35.098Z</time></trkpt><trkpt lat="43.1665834" lon="11.3900936"><ele>274.0</ele><time>2026-04-22T14:36:36.097Z</time></trkpt><trkpt lat="43.166507" lon="11.3901845"><ele>274.0</ele><time>2026-04-22T14:36:37.107Z</time></trkpt><trkpt lat="43.1664373" lon="11.390285"><ele>274.0</ele><time>2026-04-22T14:36:38.099Z</time></trkpt><trkpt lat="43.1663771" lon="11.3903823"><ele>274.0</ele><time>2026-04-22T14:36:39.1Z</time></trkpt><trkpt lat="43.1663241" lon="11.3904687"><ele>273.5</ele><time>2026-04-22T14:36:40.1Z</time></trkpt><trkpt lat="43.1662709" lon="11.3905425"><ele>273.0</ele><time>2026-04-22T14:36:41.094Z</time></trkpt><trkpt lat="43.1662105" lon="11.3906023"><ele>272.5</ele><time>2026-04-22T14:36:42.106Z</time></trkpt><trkpt lat="43.1661396" lon="11.3906527"><ele>272.0</ele><time>2026-04-22T14:36:43.094Z</time></trkpt><trkpt lat="43.1660575" lon="11.3907053"><ele>271.5</ele><time>2026-04-22T14:36:44.097Z</time></trkpt><trkpt lat="43.1659671" lon="11.3907592"><ele>271.0</ele><time>2026-04-22T14:36:45.096Z</time></trkpt><trkpt lat="43.1658717" lon="11.3908032"><ele>271.0</ele><time>2026-04-22T14:36:46.1Z</time></trkpt><trkpt lat="43.1657661" lon="11.390838"><ele>271.0</ele><time>2026-04-22T14:36:47.096Z</time></trkpt><trkpt lat="43.1656572" lon="11.3908714"><ele>271.0</ele><time>2026-04-22T14:36:48.108Z</time></trkpt><trkpt lat="43.1655506" lon="11.390903"><ele>271.0</ele><time>2026-04-22T14:36:49.099Z</time></trkpt><trkpt lat="43.165444" lon="11.3909319"><ele>271.0</ele><time>2026-04-22T14:36:50.102Z</time></trkpt><trkpt lat="43.1653346" lon="11.3909626"><ele>271.75</ele><time>2026-04-22T14:36:51.1Z</time></trkpt><trkpt lat="43.1652189" lon="11.3909935"><ele>272.5</ele><time>2026-04-22T14:36:52.104Z</time></trkpt><trkpt lat="43.165101" lon="11.3910247"><ele>273.25</ele><time>2026-04-22T14:36:53.107Z</time></trkpt><trkpt lat="43.16498" lon="11.391058"><ele>274.0</ele><time>2026-04-22T14:36:54.102Z</time></trkpt><trkpt lat="43.1648565" lon="11.3910917"><ele>274.25</ele><time>2026-04-22T14:36:55.105Z</time></trkpt><trkpt lat="43.1647286" lon="11.3911206"><ele>274.5</ele><time>2026-04-22T14:36:56.11Z</time></trkpt><trkpt lat="43.1646002" lon="11.3911483"><ele>274.75</ele><time>2026-04-22T14:36:57.097Z</time></trkpt><trkpt lat="43.1644705" lon="11.3911796"><ele>275.0</ele><time>2026-04-22T14:36:58.104Z</time></trkpt><trkpt lat="43.1643414" lon="11.3912109"><ele>275.0</ele><time>2026-04-22T14:36:59.105Z</time></trkpt><trkpt lat="43.1642134" lon="11.3912402"><ele>275.0</ele><time>2026-04-22T14:37:00.097Z</time></trkpt><trkpt lat="43.1640852" lon="11.3912731"><ele>275.0</ele><time>2026-04-22T14:37:01.1Z</time></trkpt><trkpt lat="43.1639554" lon="11.3913055"><ele>275.0</ele><time>2026-04-22T14:37:02.104Z</time></trkpt><trkpt lat="43.1638261" lon="11.3913349"><ele>275.5</ele><time>2026-04-22T14:37:03.107Z</time></trkpt><trkpt lat="43.1636972" lon="11.3913658"><ele>276.0</ele><time>2026-04-22T14:37:04.112Z</time></trkpt><trkpt lat="43.1635709" lon="11.3913979"><ele>276.5</ele><time>2026-04-22T14:37:05.099Z</time></trkpt><trkpt lat="43.1634481" lon="11.3914315"><ele>277.0</ele><time>2026-04-22T14:37:06.102Z</time></trkpt><trkpt lat="43.1633274" lon="11.3914658"><ele>277.0</ele><time>2026-04-22T14:37:07.101Z</time></trkpt><trkpt lat="43.163216" lon="11.3914975"><ele>277.0</ele><time>2026-04-22T14:37:08.108Z</time></trkpt><trkpt lat="43.163122" lon="11.3915157"><ele>277.0</ele><time>2026-04-22T14:37:09.097Z</time></trkpt><trkpt lat="43.1630481" lon="11.3915082"><ele>277.0</ele><time>2026-04-22T14:37:10.109Z</time></trkpt><trkpt lat="43.1629532" lon="11.3914843"><ele>277.0</ele><time>2026-04-22T14:37:12.103Z</time></trkpt><trkpt lat="43.1628772" lon="11.391583"><ele>278.0</ele><time>2026-04-22T14:46:10.102Z</time></trkpt><trkpt lat="43.1627938" lon="11.3916073"><ele>279.0</ele><time>2026-04-22T14:46:11.107Z</time></trkpt><trkpt lat="43.1626926" lon="11.3916289"><ele>280.0</ele><time>2026-04-22T14:46:12.108Z</time></trkpt><trkpt lat="43.1625722" lon="11.3916482"><ele>281.0</ele><time>2026-04-22T14:46:13.108Z</time></trkpt><trkpt lat="43.1624365" lon="11.3916537"><ele>282.0</ele><time>2026-04-22T14:46:14.107Z</time></trkpt><trkpt lat="43.1623248" lon="11.391654"><ele>282.8</ele><time>2026-04-22T14:46:15.116Z</time></trkpt><trkpt lat="43.1622313" lon="11.3916587"><ele>283.6</ele><time>2026-04-22T14:46:16.121Z</time></trkpt><trkpt lat="43.1621439" lon="11.3916773"><ele>284.40000000000003</ele><time>2026-04-22T14:46:17.11Z</time></trkpt><trkpt lat="43.1620649" lon="11.3917122"><ele>285.2</ele><time>2026-04-22T14:46:18.113Z</time></trkpt><trkpt lat="43.1619782" lon="11.3917654"><ele>286.0</ele><time>2026-04-22T14:46:19.103Z</time></trkpt><trkpt lat="43.1618865" lon="11.3918422"><ele>286.0</ele><time>2026-04-22T14:46:20.113Z</time></trkpt><trkpt lat="43.1618109" lon="11.3919707"><ele>286.0</ele><time>2026-04-22T14:46:21.104Z</time></trkpt><trkpt lat="43.1617456" lon="11.3921374"><ele>286.0</ele><time>2026-04-22T14:46:22.12Z</time></trkpt><trkpt lat="43.1616903" lon="11.3923299"><ele>286.0</ele><time>2026-04-22T14:46:23.114Z</time></trkpt><trkpt lat="43.161627" lon="11.3925464"><ele>284.66666666666663</ele><time>2026-04-22T14:46:24.112Z</time></trkpt><trkpt lat="43.1615525" lon="11.3927588"><ele>283.3333333333333</ele><time>2026-04-22T14:46:25.111Z</time></trkpt><trkpt lat="43.1614592" lon="11.3929486"><ele>282.0</ele><time>2026-04-22T14:46:26.098Z</time></trkpt><trkpt lat="43.1613366" lon="11.3930902"><ele>281.0</ele><time>2026-04-22T14:46:27.118Z</time></trkpt><trkpt lat="43.1611769" lon="11.3931778"><ele>280.0</ele><time>2026-04-22T14:46:28.115Z</time></trkpt><trkpt lat="43.1609921" lon="11.393237"><ele>279.0</ele><time>2026-04-22T14:46:29.125Z</time></trkpt><trkpt lat="43.160794" lon="11.3933022"><ele>278.3333333333333</ele><time>2026-04-22T14:46:30.127Z</time></trkpt><trkpt lat="43.1605956" lon="11.3933758"><ele>277.66666666666663</ele><time>2026-04-22T14:46:31.128Z</time></trkpt><trkpt lat="43.1603985" lon="11.393455"><ele>277.0</ele><time>2026-04-22T14:46:32.116Z</time></trkpt><trkpt lat="43.1602015" lon="11.393538"><ele>277.0</ele><time>2026-04-22T14:46:33.114Z</time></trkpt><trkpt lat="43.1600057" lon="11.3936342"><ele>277.0</ele><time>2026-04-22T14:46:34.116Z</time></trkpt><trkpt lat="43.1598064" lon="11.3937457"><ele>277.0</ele><time>2026-04-22T14:46:35.119Z</time></trkpt><trkpt lat="43.1596212" lon="11.3938798"><ele>276.66666666666663</ele><time>2026-04-22T14:46:36.126Z</time></trkpt><trkpt lat="43.1594502" lon="11.3940406"><ele>276.3333333333333</ele><time>2026-04-22T14:46:37.122Z</time></trkpt><trkpt lat="43.1592994" lon="11.3942271"><ele>276.0</ele><time>2026-04-22T14:46:38.128Z</time></trkpt><trkpt lat="43.1591539" lon="11.3944231"><ele>277.0</ele><time>2026-04-22T14:46:39.111Z</time></trkpt><trkpt lat="43.1590232" lon="11.3946234"><ele>278.0</ele><time>2026-04-22T14:46:40.114Z</time></trkpt><trkpt lat="43.1589095" lon="11.3948388"><ele>279.0</ele><time>2026-04-22T14:46:41.115Z</time></trkpt><trkpt lat="43.1588249" lon="11.3950767"><ele>279.0</ele><time>2026-04-22T14:46:42.105Z</time></trkpt><trkpt lat="43.1587733" lon="11.3953357"><ele>279.0</ele><time>2026-04-22T14:46:43.105Z</time></trkpt><trkpt lat="43.1587479" lon="11.3956025"><ele>279.0</ele><time>2026-04-22T14:46:44.123Z</time></trkpt><trkpt lat="43.1587389" lon="11.3958809"><ele>279.0</ele><time>2026-04-22T14:46:45.119Z</time></trkpt><trkpt lat="43.1587282" lon="11.3961751"><ele>279.0</ele><time>2026-04-22T14:46:46.119Z</time></trkpt><trkpt lat="43.1587216" lon="11.3964797"><ele>279.0</ele><time>2026-04-22T14:46:47.117Z</time></trkpt><trkpt lat="43.1587191" lon="11.3967871"><ele>279.3333333333333</ele><time>2026-04-22T14:46:48.126Z</time></trkpt><trkpt lat="43.1587178" lon="11.3970943"><ele>279.66666666666663</ele><time>2026-04-22T14:46:49.117Z</time></trkpt><trkpt lat="43.1587129" lon="11.3973962"><ele>280.0</ele><time>2026-04-22T14:46:50.107Z</time></trkpt><trkpt lat="43.1587143" lon="11.3976886"><ele>280.0</ele><time>2026-04-22T14:46:51.125Z</time></trkpt><trkpt lat="43.1587258" lon="11.3979716"><ele>280.0</ele><time>2026-04-22T14:46:52.114Z</time></trkpt><trkpt lat="43.1587586" lon="11.3982527"><ele>280.0</ele><time>2026-04-22T14:46:53.126Z</time></trkpt><trkpt lat="43.1588194" lon="11.3985291"><ele>280.66666666666663</ele><time>2026-04-22T14:46:54.115Z</time></trkpt><trkpt lat="43.1588949" lon="11.3988004"><ele>281.3333333333333</ele><time>2026-04-22T14:46:55.119Z</time></trkpt><trkpt lat="43.1589564" lon="11.3990621"><ele>282.0</ele><time>2026-04-22T14:46:56.123Z</time></trkpt><trkpt lat="43.1589945" lon="11.3993069"><ele>281.75</ele><time>2026-04-22T14:46:57.127Z</time></trkpt><trkpt lat="43.1589751" lon="11.3995241"><ele>281.5</ele><time>2026-04-22T14:46:58.107Z</time></trkpt><trkpt lat="43.1589005" lon="11.3997038"><ele>281.25</ele><time>2026-04-22T14:46:59.108Z</time></trkpt><trkpt lat="43.158795" lon="11.3998273"><ele>281.0</ele><time>2026-04-22T14:47:00.102Z</time></trkpt><trkpt lat="43.158642" lon="11.3998449"><ele>281.0</ele><time>2026-04-22T14:47:01.098Z</time></trkpt><trkpt lat="43.1584472" lon="11.3997564"><ele>281.0</ele><time>2026-04-22T14:47:02.108Z</time></trkpt><trkpt lat="43.1582422" lon="11.3997005"><ele>281.0</ele><time>2026-04-22T14:47:03.107Z</time></trkpt><trkpt lat="43.158042" lon="11.3997254"><ele>284.0</ele><time>2026-04-22T14:47:04.103Z</time></trkpt><trkpt lat="43.1578535" lon="11.3998262"><ele>287.0</ele><time>2026-04-22T14:47:05.102Z</time></trkpt><trkpt lat="43.1576677" lon="11.399976"><ele>290.0</ele><time>2026-04-22T14:47:06.098Z</time></trkpt><trkpt lat="43.1574883" lon="11.4001222"><ele>291.33333333333337</ele><time>2026-04-22T14:47:07.099Z</time></trkpt><trkpt lat="43.1573127" lon="11.4002094"><ele>292.6666666666667</ele><time>2026-04-22T14:47:08.106Z</time></trkpt><trkpt lat="43.1571409" lon="11.4002208"><ele>294.0</ele><time>2026-04-22T14:47:09.111Z</time></trkpt><trkpt lat="43.1569716" lon="11.4001838"><ele>294.0</ele><time>2026-04-22T14:47:10.105Z</time></trkpt><trkpt lat="43.1568024" lon="11.4001098"><ele>294.0</ele><time>2026-04-22T14:47:11.098Z</time></trkpt><trkpt lat="43.1566436" lon="11.4000404"><ele>294.0</ele><time>2026-04-22T14:47:12.102Z</time></trkpt><trkpt lat="43.1565122" lon="11.400028"><ele>297.25</ele><time>2026-04-22T14:47:13.103Z</time></trkpt><trkpt lat="43.1564034" lon="11.4000866"><ele>300.5</ele><time>2026-04-22T14:47:14.109Z</time></trkpt><trkpt lat="43.1563085" lon="11.4001861"><ele>303.75</ele><time>2026-04-22T14:47:15.102Z</time></trkpt><trkpt lat="43.1562199" lon="11.4003144"><ele>307.0</ele><time>2026-04-22T14:47:16.097Z</time></trkpt><trkpt lat="43.1561373" lon="11.400472"><ele>307.3333333333333</ele><time>2026-04-22T14:47:17.092Z</time></trkpt><trkpt lat="43.1560813" lon="11.4006465"><ele>307.6666666666667</ele><time>2026-04-22T14:47:18.102Z</time></trkpt><trkpt lat="43.1561397" lon="11.4008544"><ele>308.0</ele><time>2026-04-22T14:47:19.103Z</time></trkpt><trkpt lat="43.156271" lon="11.4010897"><ele>308.0</ele><time>2026-04-22T14:47:20.1Z</time></trkpt><trkpt lat="43.1563985" lon="11.4013479"><ele>308.0</ele><time>2026-04-22T14:47:21.099Z</time></trkpt><trkpt lat="43.1564922" lon="11.4016066"><ele>308.0</ele><time>2026-04-22T14:47:22.107Z</time></trkpt><trkpt lat="43.1565193" lon="11.4018692"><ele>308.0</ele><time>2026-04-22T14:47:23.101Z</time></trkpt><trkpt lat="43.1565356" lon="11.4021579"><ele>308.0</ele><time>2026-04-22T14:47:24.105Z</time></trkpt><trkpt lat="43.1564897" lon="11.4024565"><ele>308.0</ele><time>2026-04-22T14:47:25.105Z</time></trkpt><trkpt lat="43.1564214" lon="11.4027624"><ele>304.6666666666667</ele><time>2026-04-22T14:47:26.11Z</time></trkpt><trkpt lat="43.1563624" lon="11.4030623"><ele>301.3333333333333</ele><time>2026-04-22T14:47:27.103Z</time></trkpt><trkpt lat="43.1563344" lon="11.40336"><ele>298.0</ele><time>2026-04-22T14:47:28.105Z</time></trkpt><trkpt lat="43.1563231" lon="11.4036456"><ele>296.0</ele><time>2026-04-22T14:47:29.103Z</time></trkpt><trkpt lat="43.1563136" lon="11.4039232"><ele>294.0</ele><time>2026-04-22T14:47:30.105Z</time></trkpt><trkpt lat="43.1562932" lon="11.4041787"><ele>292.0</ele><time>2026-04-22T14:47:31.106Z</time></trkpt><trkpt lat="43.1562572" lon="11.4044081"><ele>292.0</ele><time>2026-04-22T14:47:32.103Z</time></trkpt><trkpt lat="43.1561612" lon="11.4046029"><ele>292.0</ele><time>2026-04-22T14:47:33.101Z</time></trkpt><trkpt lat="43.1560103" lon="11.4047517"><ele>292.0</ele><time>2026-04-22T14:47:34.104Z</time></trkpt><trkpt lat="43.1558226" lon="11.4048578"><ele>289.66666666666663</ele><time>2026-04-22T14:47:35.097Z</time></trkpt><trkpt lat="43.1556253" lon="11.4049259"><ele>287.3333333333333</ele><time>2026-04-22T14:47:36.096Z</time></trkpt><trkpt lat="43.1554077" lon="11.4049526"><ele>285.0</ele><time>2026-04-22T14:47:37.1Z</time></trkpt><trkpt lat="43.1551642" lon="11.4049773"><ele>285.0</ele><time>2026-04-22T14:47:38.101Z</time></trkpt><trkpt lat="43.1549248" lon="11.4050454"><ele>285.0</ele><time>2026-04-22T14:47:39.105Z</time></trkpt><trkpt lat="43.1546996" lon="11.4051482"><ele>283.0</ele><time>2026-04-22T14:47:40.098Z</time></trkpt><trkpt lat="43.1544875" lon="11.4052708"><ele>281.0</ele><time>2026-04-22T14:47:41.105Z</time></trkpt><trkpt lat="43.1542985" lon="11.4054151"><ele>279.0</ele><time>2026-04-22T14:47:42.097Z</time></trkpt><trkpt lat="43.1541163" lon="11.4055524"><ele>281.3333333333333</ele><time>2026-04-22T14:47:43.104Z</time></trkpt><trkpt lat="43.1539307" lon="11.4056655"><ele>283.66666666666663</ele><time>2026-04-22T14:47:44.109Z</time></trkpt><trkpt lat="43.1537337" lon="11.4057315"><ele>286.0</ele><time>2026-04-22T14:47:45.104Z</time></trkpt><trkpt lat="43.153532" lon="11.4057618"><ele>286.0</ele><time>2026-04-22T14:47:46.111Z</time></trkpt><trkpt lat="43.1533318" lon="11.405801"><ele>286.0</ele><time>2026-04-22T14:47:47.11Z</time></trkpt><trkpt lat="43.1531353" lon="11.4059145"><ele>286.0</ele><time>2026-04-22T14:47:48.104Z</time></trkpt><trkpt lat="43.1529534" lon="11.406095"><ele>284.5</ele><time>2026-04-22T14:47:49.105Z</time></trkpt><trkpt lat="43.1527694" lon="11.406296"><ele>283.0</ele><time>2026-04-22T14:47:50.104Z</time></trkpt><trkpt lat="43.1525585" lon="11.4064879"><ele>283.0</ele><time>2026-04-22T14:47:51.095Z</time></trkpt><trkpt lat="43.1523375" lon="11.4066409"><ele>283.0</ele><time>2026-04-22T14:47:52.108Z</time></trkpt><trkpt lat="43.1521117" lon="11.4067063"><ele>283.0</ele><time>2026-04-22T14:47:53.104Z</time></trkpt><trkpt lat="43.1518651" lon="11.4067195"><ele>283.0</ele><time>2026-04-22T14:47:54.108Z</time></trkpt><trkpt lat="43.1516138" lon="11.40672"><ele>284.5</ele><time>2026-04-22T14:47:55.11Z</time></trkpt><trkpt lat="43.1513649" lon="11.4067457"><ele>286.0</ele><time>2026-04-22T14:47:56.11Z</time></trkpt><trkpt lat="43.1511244" lon="11.4067935"><ele>286.0</ele><time>2026-04-22T14:47:57.108Z</time></trkpt><trkpt lat="43.1508986" lon="11.4068357"><ele>286.0</ele><time>2026-04-22T14:47:58.102Z</time></trkpt><trkpt lat="43.1506751" lon="11.4068375"><ele>284.3333333333333</ele><time>2026-04-22T14:47:59.097Z</time></trkpt><trkpt lat="43.1504575" lon="11.4067931"><ele>282.6666666666667</ele><time>2026-04-22T14:48:00.099Z</time></trkpt><trkpt lat="43.1502541" lon="11.4067038"><ele>281.0</ele><time>2026-04-22T14:48:01.1Z</time></trkpt><trkpt lat="43.1500836" lon="11.4065778"><ele>281.0</ele><time>2026-04-22T14:48:02.099Z</time></trkpt><trkpt lat="43.1499474" lon="11.4064233"><ele>281.0</ele><time>2026-04-22T14:48:03.103Z</time></trkpt><trkpt lat="43.1498322" lon="11.4062746"><ele>281.0</ele><time>2026-04-22T14:48:04.105Z</time></trkpt><trkpt lat="43.1497104" lon="11.4061755"><ele>282.0</ele><time>2026-04-22T14:48:05.105Z</time></trkpt><trkpt lat="43.1495907" lon="11.4061372"><ele>283.0</ele><time>2026-04-22T14:48:06.098Z</time></trkpt><trkpt lat="43.1494679" lon="11.4062219"><ele>284.0</ele><time>2026-04-22T14:48:07.096Z</time></trkpt><trkpt lat="43.1493493" lon="11.4063903"><ele>285.0</ele><time>2026-04-22T14:48:08.095Z</time></trkpt><trkpt lat="43.1492478" lon="11.4065726"><ele>285.0</ele><time>2026-04-22T14:48:09.099Z</time></trkpt><trkpt lat="43.149129" lon="11.4067305"><ele>285.0</ele><time>2026-04-22T14:48:10.099Z</time></trkpt><trkpt lat="43.1489991" lon="11.406831"><ele>285.0</ele><time>2026-04-22T14:48:11.104Z</time></trkpt><trkpt lat="43.1488437" lon="11.4068667"><ele>286.3333333333333</ele><time>2026-04-22T14:48:12.097Z</time></trkpt><trkpt lat="43.1486688" lon="11.4069087"><ele>287.66666666666663</ele><time>2026-04-22T14:48:13.097Z</time></trkpt><trkpt lat="43.1485043" lon="11.407013"><ele>289.0</ele><time>2026-04-22T14:48:14.096Z</time></trkpt><trkpt lat="43.1483652" lon="11.4071874"><ele>290.0</ele><time>2026-04-22T14:48:15.097Z</time></trkpt><trkpt lat="43.1482433" lon="11.4074117"><ele>291.0</ele><time>2026-04-22T14:48:16.098Z</time></trkpt><trkpt lat="43.1481353" lon="11.4076647"><ele>292.0</ele><time>2026-04-22T14:48:17.102Z</time></trkpt><trkpt lat="43.1480308" lon="11.4079184"><ele>290.0</ele><time>2026-04-22T14:48:18.097Z</time></trkpt><trkpt lat="43.1479511" lon="11.4081868"><ele>288.0</ele><time>2026-04-22T14:48:19.098Z</time></trkpt><trkpt lat="43.1479142" lon="11.4084673"><ele>286.0</ele><time>2026-04-22T14:48:20.101Z</time></trkpt><trkpt lat="43.1478941" lon="11.4087624"><ele>284.0</ele><time>2026-04-22T14:48:21.104Z</time></trkpt><trkpt lat="43.1478752" lon="11.4090559"><ele>282.0</ele><time>2026-04-22T14:48:22.106Z</time></trkpt><trkpt lat="43.1478459" lon="11.4093476"><ele>280.0</ele><time>2026-04-22T14:48:23.1Z</time></trkpt><trkpt lat="43.1478017" lon="11.409621"><ele>277.66666666666663</ele><time>2026-04-22T14:48:24.112Z</time></trkpt><trkpt lat="43.1477518" lon="11.4098817"><ele>275.3333333333333</ele><time>2026-04-22T14:48:25.103Z</time></trkpt><trkpt lat="43.1476962" lon="11.410122"><ele>273.0</ele><time>2026-04-22T14:48:26.107Z</time></trkpt><trkpt lat="43.1476321" lon="11.4103396"><ele>270.6666666666667</ele><time>2026-04-22T14:48:27.104Z</time></trkpt><trkpt lat="43.1475385" lon="11.4105289"><ele>268.33333333333337</ele><time>2026-04-22T14:48:28.1Z</time></trkpt><trkpt lat="43.1474047" lon="11.4106734"><ele>266.0</ele><time>2026-04-22T14:48:29.096Z</time></trkpt><trkpt lat="43.147242" lon="11.4107815"><ele>266.0</ele><time>2026-04-22T14:48:30.102Z</time></trkpt><trkpt lat="43.1470696" lon="11.4108785"><ele>266.0</ele><time>2026-04-22T14:48:31.104Z</time></trkpt><trkpt lat="43.1469002" lon="11.4110056"><ele>266.0</ele><time>2026-04-22T14:48:32.1Z</time></trkpt><trkpt lat="43.1467463" lon="11.4111809"><ele>264.33333333333337</ele><time>2026-04-22T14:48:33.104Z</time></trkpt><trkpt lat="43.1466101" lon="11.4113973"><ele>262.6666666666667</ele><time>2026-04-22T14:48:34.11Z</time></trkpt><trkpt lat="43.1464746" lon="11.4116244"><ele>261.0</ele><time>2026-04-22T14:48:35.102Z</time></trkpt><trkpt lat="43.1463347" lon="11.4118516"><ele>261.0</ele><time>2026-04-22T14:48:36.11Z</time></trkpt><trkpt lat="43.1462135" lon="11.4120932"><ele>261.0</ele><time>2026-04-22T14:48:37.104Z</time></trkpt><trkpt lat="43.1461027" lon="11.4123449"><ele>261.0</ele><time>2026-04-22T14:48:38.096Z</time></trkpt><trkpt lat="43.1460156" lon="11.4126056"><ele>258.3333333333333</ele><time>2026-04-22T14:48:39.106Z</time></trkpt><trkpt lat="43.1459552" lon="11.4128719"><ele>255.66666666666666</ele><time>2026-04-22T14:48:40.104Z</time></trkpt><trkpt lat="43.1459004" lon="11.4131423"><ele>253.0</ele><time>2026-04-22T14:48:41.105Z</time></trkpt><trkpt lat="43.1458259" lon="11.4134007"><ele>252.66666666666666</ele><time>2026-04-22T14:48:42.103Z</time></trkpt><trkpt lat="43.1457153" lon="11.4136371"><ele>252.33333333333331</ele><time>2026-04-22T14:48:43.108Z</time></trkpt><trkpt lat="43.1455945" lon="11.4138432"><ele>252.0</ele><time>2026-04-22T14:48:44.098Z</time></trkpt><trkpt lat="43.145484" lon="11.4140147"><ele>249.5</ele><time>2026-04-22T14:48:45.099Z</time></trkpt><trkpt lat="43.1454061" lon="11.414175"><ele>247.0</ele><time>2026-04-22T14:48:46.11Z</time></trkpt><trkpt lat="43.1453626" lon="11.414349"><ele>244.5</ele><time>2026-04-22T14:48:47.108Z</time></trkpt><trkpt lat="43.1453497" lon="11.4145432"><ele>242.0</ele><time>2026-04-22T14:48:48.11Z</time></trkpt><trkpt lat="43.145376" lon="11.4147398"><ele>240.0</ele><time>2026-04-22T14:48:49.1Z</time></trkpt><trkpt lat="43.1454268" lon="11.4149319"><ele>238.0</ele><time>2026-04-22T14:48:50.103Z</time></trkpt><trkpt lat="43.1455214" lon="11.4151172"><ele>236.0</ele><time>2026-04-22T14:48:51.108Z</time></trkpt><trkpt lat="43.1456437" lon="11.4153216"><ele>237.0</ele><time>2026-04-22T14:48:52.111Z</time></trkpt><trkpt lat="43.1457444" lon="11.4155441"><ele>238.0</ele><time>2026-04-22T14:48:53.109Z</time></trkpt><trkpt lat="43.145825" lon="11.4157765"><ele>239.0</ele><time>2026-04-22T14:48:54.111Z</time></trkpt><trkpt lat="43.145871" lon="11.4160334"><ele>239.0</ele><time>2026-04-22T14:48:55.099Z</time></trkpt><trkpt lat="43.1458589" lon="11.4163085"><ele>239.0</ele><time>2026-04-22T14:48:56.111Z</time></trkpt><trkpt lat="43.1458263" lon="11.4166056"><ele>239.0</ele><time>2026-04-22T14:48:57.107Z</time></trkpt><trkpt lat="43.1457852" lon="11.4169013"><ele>236.33333333333334</ele><time>2026-04-22T14:48:58.106Z</time></trkpt><trkpt lat="43.1457427" lon="11.417183"><ele>233.66666666666669</ele><time>2026-04-22T14:48:59.102Z</time></trkpt><trkpt lat="43.1456948" lon="11.4174377"><ele>231.0</ele><time>2026-04-22T14:49:00.1Z</time></trkpt><trkpt lat="43.145632" lon="11.417677"><ele>226.33333333333331</ele><time>2026-04-22T14:49:01.107Z</time></trkpt><trkpt lat="43.1455673" lon="11.4179008"><ele>221.66666666666666</ele><time>2026-04-22T14:49:02.108Z</time></trkpt><trkpt lat="43.1455099" lon="11.4181261"><ele>217.0</ele><time>2026-04-22T14:49:03.106Z</time></trkpt><trkpt lat="43.1454736" lon="11.4183639"><ele>216.0</ele><time>2026-04-22T14:49:04.104Z</time></trkpt><trkpt lat="43.1454655" lon="11.4186129"><ele>215.0</ele><time>2026-04-22T14:49:05.101Z</time></trkpt><trkpt lat="43.1454693" lon="11.4188745"><ele>214.0</ele><time>2026-04-22T14:49:06.106Z</time></trkpt><trkpt lat="43.1454577" lon="11.4191374"><ele>213.66666666666666</ele><time>2026-04-22T14:49:07.101Z</time></trkpt><trkpt lat="43.1454369" lon="11.4194045"><ele>213.33333333333331</ele><time>2026-04-22T14:49:08.099Z</time></trkpt><trkpt lat="43.145386" lon="11.4196654"><ele>213.0</ele><time>2026-04-22T14:49:09.103Z</time></trkpt><trkpt lat="43.1453272" lon="11.41992"><ele>212.0</ele><time>2026-04-22T14:49:10.104Z</time></trkpt><trkpt lat="43.1452625" lon="11.4201626"><ele>211.0</ele><time>2026-04-22T14:49:11.108Z</time></trkpt><trkpt lat="43.1452197" lon="11.4203935"><ele>210.0</ele><time>2026-04-22T14:49:12.105Z</time></trkpt><trkpt lat="43.1452173" lon="11.4206137"><ele>209.25</ele><time>2026-04-22T14:49:13.102Z</time></trkpt><trkpt lat="43.1452288" lon="11.4208177"><ele>208.5</ele><time>2026-04-22T14:49:14.102Z</time></trkpt><trkpt lat="43.1452299" lon="11.4210016"><ele>207.75</ele><time>2026-04-22T14:49:15.106Z</time></trkpt><trkpt lat="43.14523" lon="11.4211754"><ele>207.0</ele><time>2026-04-22T14:49:16.104Z</time></trkpt><trkpt lat="43.1452464" lon="11.4213598"><ele>206.66666666666669</ele><time>2026-04-22T14:49:17.107Z</time></trkpt><trkpt lat="43.1452942" lon="11.4215472"><ele>206.33333333333334</ele><time>2026-04-22T14:49:18.107Z</time></trkpt><trkpt lat="43.1453649" lon="11.4217481"><ele>206.0</ele><time>2026-04-22T14:49:19.1Z</time></trkpt><trkpt lat="43.1454419" lon="11.4219675"><ele>207.0</ele><time>2026-04-22T14:49:20.1Z</time></trkpt><trkpt lat="43.1455256" lon="11.422195"><ele>208.0</ele><time>2026-04-22T14:49:21.104Z</time></trkpt><trkpt lat="43.1456066" lon="11.4224189"><ele>209.0</ele><time>2026-04-22T14:49:22.102Z</time></trkpt><trkpt lat="43.1456829" lon="11.4226446"><ele>208.33333333333334</ele><time>2026-04-22T14:49:23.109Z</time></trkpt><trkpt lat="43.1457648" lon="11.4228713"><ele>207.66666666666669</ele><time>2026-04-22T14:49:24.107Z</time></trkpt><trkpt lat="43.1458455" lon="11.4230959"><ele>207.0</ele><time>2026-04-22T14:49:25.101Z</time></trkpt><trkpt lat="43.1459119" lon="11.4233009"><ele>207.0</ele><time>2026-04-22T14:49:26.1Z</time></trkpt><trkpt lat="43.1459615" lon="11.4234953"><ele>207.0</ele><time>2026-04-22T14:49:27.1Z</time></trkpt><trkpt lat="43.1459988" lon="11.4236835"><ele>207.0</ele><time>2026-04-22T14:49:28.101Z</time></trkpt><trkpt lat="43.1460129" lon="11.4238627"><ele>207.0</ele><time>2026-04-22T14:49:29.098Z</time></trkpt><trkpt lat="43.1460074" lon="11.4240212"><ele>206.75</ele><time>2026-04-22T14:49:30.106Z</time></trkpt><trkpt lat="43.1459822" lon="11.4241695"><ele>206.5</ele><time>2026-04-22T14:49:31.101Z</time></trkpt><trkpt lat="43.1459398" lon="11.4243215"><ele>206.25</ele><time>2026-04-22T14:49:32.106Z</time></trkpt><trkpt lat="43.1458818" lon="11.424473"><ele>206.0</ele><time>2026-04-22T14:49:33.098Z</time></trkpt><trkpt lat="43.1458042" lon="11.4246129"><ele>206.0</ele><time>2026-04-22T14:49:34.106Z</time></trkpt><trkpt lat="43.1457201" lon="11.4247341"><ele>206.0</ele><time>2026-04-22T14:49:35.101Z</time></trkpt><trkpt lat="43.1456498" lon="11.4248343"><ele>206.0</ele><time>2026-04-22T14:49:36.101Z</time></trkpt><trkpt lat="43.1455972" lon="11.4249404"><ele>206.0</ele><time>2026-04-22T14:49:37.099Z</time></trkpt><trkpt lat="43.1455707" lon="11.4250557"><ele>206.0</ele><time>2026-04-22T14:49:38.099Z</time></trkpt><trkpt lat="43.1455898" lon="11.4251582"><ele>206.0</ele><time>2026-04-22T14:49:39.11Z</time></trkpt><trkpt lat="43.1456322" lon="11.4252515"><ele>206.0</ele><time>2026-04-22T14:49:40.102Z</time></trkpt><trkpt lat="43.1457096" lon="11.4253307"><ele>206.0</ele><time>2026-04-22T14:49:41.102Z</time></trkpt><trkpt lat="43.1457984" lon="11.4253989"><ele>206.0</ele><time>2026-04-22T14:49:42.102Z</time></trkpt><trkpt lat="43.1459203" lon="11.4254612"><ele>206.0</ele><time>2026-04-22T14:49:43.107Z</time></trkpt><trkpt lat="43.1460441" lon="11.425526"><ele>208.33333333333334</ele><time>2026-04-22T14:49:44.105Z</time></trkpt><trkpt lat="43.1461708" lon="11.4256127"><ele>210.66666666666669</ele><time>2026-04-22T14:49:45.103Z</time></trkpt><trkpt lat="43.1463027" lon="11.4257391"><ele>213.0</ele><time>2026-04-22T14:49:46.105Z</time></trkpt><trkpt lat="43.1464325" lon="11.425898"><ele>212.66666666666669</ele><time>2026-04-22T14:49:47.1Z</time></trkpt><trkpt lat="43.1465682" lon="11.4260616"><ele>212.33333333333334</ele><time>2026-04-22T14:49:48.097Z</time></trkpt><trkpt lat="43.1467079" lon="11.42621"><ele>212.0</ele><time>2026-04-22T14:49:49.099Z</time></trkpt><trkpt lat="43.1468409" lon="11.4263274"><ele>212.0</ele><time>2026-04-22T14:49:50.101Z</time></trkpt><trkpt lat="43.1469691" lon="11.4264296"><ele>212.0</ele><time>2026-04-22T14:49:51.107Z</time></trkpt><trkpt lat="43.1470923" lon="11.4265154"><ele>212.0</ele><time>2026-04-22T14:49:52.104Z</time></trkpt><trkpt lat="43.1472041" lon="11.4266061"><ele>212.0</ele><time>2026-04-22T14:49:53.102Z</time></trkpt><trkpt lat="43.1473072" lon="11.4267165"><ele>211.0</ele><time>2026-04-22T14:49:54.108Z</time></trkpt><trkpt lat="43.1474044" lon="11.4268445"><ele>210.0</ele><time>2026-04-22T14:49:55.106Z</time></trkpt><trkpt lat="43.1475006" lon="11.4269772"><ele>209.0</ele><time>2026-04-22T14:49:56.105Z</time></trkpt><trkpt lat="43.147601" lon="11.4270937"><ele>208.0</ele><time>2026-04-22T14:49:57.099Z</time></trkpt><trkpt lat="43.1477145" lon="11.4271853"><ele>208.0</ele><time>2026-04-22T14:49:58.096Z</time></trkpt><trkpt lat="43.147843" lon="11.4272466"><ele>208.0</ele><time>2026-04-22T14:49:59.099Z</time></trkpt><trkpt lat="43.1479794" lon="11.4272831"><ele>208.0</ele><time>2026-04-22T14:50:00.107Z</time></trkpt><trkpt lat="43.1481242" lon="11.4273149"><ele>208.0</ele><time>2026-04-22T14:50:01.104Z</time></trkpt><trkpt lat="43.1482699" lon="11.4273658"><ele>207.0</ele><time>2026-04-22T14:50:02.094Z</time></trkpt><trkpt lat="43.148425" lon="11.4274377"><ele>206.0</ele><time>2026-04-22T14:50:03.104Z</time></trkpt><trkpt lat="43.1485894" lon="11.4275203"><ele>205.0</ele><time>2026-04-22T14:50:04.103Z</time></trkpt><trkpt lat="43.1487369" lon="11.4276028"><ele>205.0</ele><time>2026-04-22T14:50:05.099Z</time></trkpt><trkpt lat="43.1488774" lon="11.4276847"><ele>205.0</ele><time>2026-04-22T14:50:06.098Z</time></trkpt><trkpt lat="43.1490076" lon="11.4277601"><ele>205.0</ele><time>2026-04-22T14:50:07.099Z</time></trkpt><trkpt lat="43.1491321" lon="11.4278317"><ele>205.0</ele><time>2026-04-22T14:50:08.106Z</time></trkpt><trkpt lat="43.1492447" lon="11.4279058"><ele>202.25</ele><time>2026-04-22T14:50:09.099Z</time></trkpt><trkpt lat="43.1493551" lon="11.4279978"><ele>199.5</ele><time>2026-04-22T14:50:10.106Z</time></trkpt><trkpt lat="43.1494616" lon="11.4281019"><ele>196.75</ele><time>2026-04-22T14:50:11.096Z</time></trkpt><trkpt lat="43.1495599" lon="11.4282183"><ele>194.0</ele><time>2026-04-22T14:50:12.097Z</time></trkpt><trkpt lat="43.1496659" lon="11.4283407"><ele>194.0</ele><time>2026-04-22T14:50:13.1Z</time></trkpt><trkpt lat="43.1497798" lon="11.4284629"><ele>194.0</ele><time>2026-04-22T14:50:14.108Z</time></trkpt><trkpt lat="43.1498847" lon="11.4285694"><ele>194.0</ele><time>2026-04-22T14:50:15.106Z</time></trkpt><trkpt lat="43.1499777" lon="11.4286683"><ele>194.0</ele><time>2026-04-22T14:50:16.099Z</time></trkpt><trkpt lat="43.1500691" lon="11.4287722"><ele>192.75</ele><time>2026-04-22T14:50:17.101Z</time></trkpt><trkpt lat="43.1501547" lon="11.4288926"><ele>191.5</ele><time>2026-04-22T14:50:18.105Z</time></trkpt><trkpt lat="43.1502278" lon="11.4290319"><ele>190.25</ele><time>2026-04-22T14:50:19.106Z</time></trkpt><trkpt lat="43.1503079" lon="11.4291829"><ele>189.0</ele><time>2026-04-22T14:50:20.105Z</time></trkpt><trkpt lat="43.1503924" lon="11.4293307"><ele>189.0</ele><time>2026-04-22T14:50:21.098Z</time></trkpt><trkpt lat="43.1504879" lon="11.4294689"><ele>189.0</ele><time>2026-04-22T14:50:22.105Z</time></trkpt><trkpt lat="43.150581" lon="11.4295969"><ele>189.0</ele><time>2026-04-22T14:50:23.096Z</time></trkpt><trkpt lat="43.1506755" lon="11.4297128"><ele>189.0</ele><time>2026-04-22T14:50:24.098Z</time></trkpt><trkpt lat="43.1507684" lon="11.4298137"><ele>189.25</ele><time>2026-04-22T14:50:25.108Z</time></trkpt><trkpt lat="43.1508671" lon="11.4299065"><ele>189.5</ele><time>2026-04-22T14:50:26.107Z</time></trkpt><trkpt lat="43.1509667" lon="11.4299954"><ele>189.75</ele><time>2026-04-22T14:50:27.1Z</time></trkpt><trkpt lat="43.1510511" lon="11.4300957"><ele>190.0</ele><time>2026-04-22T14:50:28.107Z</time></trkpt><trkpt lat="43.1511244" lon="11.4302163"><ele>190.0</ele><time>2026-04-22T14:50:29.109Z</time></trkpt><trkpt lat="43.1511729" lon="11.430355"><ele>190.0</ele><time>2026-04-22T14:50:30.104Z</time></trkpt><trkpt lat="43.1511924" lon="11.4305069"><ele>190.0</ele><time>2026-04-22T14:50:31.096Z</time></trkpt><trkpt lat="43.1511818" lon="11.4306832"><ele>190.0</ele><time>2026-04-22T14:50:32.104Z</time></trkpt><trkpt lat="43.1511639" lon="11.4308947"><ele>188.25</ele><time>2026-04-22T14:50:33.108Z</time></trkpt><trkpt lat="43.151146" lon="11.4311051"><ele>186.5</ele><time>2026-04-22T14:50:34.11Z</time></trkpt><trkpt lat="43.1511286" lon="11.431295"><ele>184.75</ele><time>2026-04-22T14:50:35.098Z</time></trkpt><trkpt lat="43.1511169" lon="11.4314726"><ele>183.0</ele><time>2026-04-22T14:50:36.105Z</time></trkpt><trkpt lat="43.1511212" lon="11.4316514"><ele>181.5</ele><time>2026-04-22T14:50:37.096Z</time></trkpt><trkpt lat="43.1511427" lon="11.4318331"><ele>180.0</ele><time>2026-04-22T14:50:38.105Z</time></trkpt><trkpt lat="43.1511605" lon="11.4320056"><ele>178.5</ele><time>2026-04-22T14:50:39.104Z</time></trkpt><trkpt lat="43.1511631" lon="11.4321798"><ele>177.0</ele><time>2026-04-22T14:50:40.097Z</time></trkpt><trkpt lat="43.151148" lon="11.4323516"><ele>176.39999999999998</ele><time>2026-04-22T14:50:41.098Z</time></trkpt><trkpt lat="43.1511344" lon="11.4325118"><ele>175.79999999999998</ele><time>2026-04-22T14:50:42.095Z</time></trkpt><trkpt lat="43.1511368" lon="11.4326528"><ele>175.2</ele><time>2026-04-22T14:50:43.103Z</time></trkpt><trkpt lat="43.1511639" lon="11.4327858"><ele>174.6</ele><time>2026-04-22T14:50:44.098Z</time></trkpt><trkpt lat="43.1512092" lon="11.432905"><ele>174.0</ele><time>2026-04-22T14:50:45.101Z</time></trkpt><trkpt lat="43.1512779" lon="11.4330177"><ele>173.0</ele><time>2026-04-22T14:50:46.105Z</time></trkpt><trkpt lat="43.1513716" lon="11.4331393"><ele>172.0</ele><time>2026-04-22T14:50:47.108Z</time></trkpt><trkpt lat="43.151482" lon="11.4332586"><ele>171.0</ele><time>2026-04-22T14:50:48.099Z</time></trkpt><trkpt lat="43.1515901" lon="11.4333657"><ele>170.0</ele><time>2026-04-22T14:50:49.102Z</time></trkpt><trkpt lat="43.151692" lon="11.4334596"><ele>171.6</ele><time>2026-04-22T14:50:50.103Z</time></trkpt><trkpt lat="43.1517941" lon="11.4335249"><ele>173.2</ele><time>2026-04-22T14:50:51.104Z</time></trkpt><trkpt lat="43.1518963" lon="11.4335612"><ele>174.8</ele><time>2026-04-22T14:50:52.107Z</time></trkpt><trkpt lat="43.1519949" lon="11.4335651"><ele>176.4</ele><time>2026-04-22T14:50:53.098Z</time></trkpt><trkpt lat="43.1520939" lon="11.4335346"><ele>178.0</ele><time>2026-04-22T14:50:54.102Z</time></trkpt><trkpt lat="43.1521895" lon="11.4334656"><ele>178.0</ele><time>2026-04-22T14:50:55.105Z</time></trkpt><trkpt lat="43.1522782" lon="11.4333602"><ele>178.0</ele><time>2026-04-22T14:50:56.102Z</time></trkpt><trkpt lat="43.1523643" lon="11.4332346"><ele>178.0</ele><time>2026-04-22T14:50:57.097Z</time></trkpt><trkpt lat="43.1524608" lon="11.433106"><ele>178.0</ele><time>2026-04-22T14:50:58.103Z</time></trkpt><trkpt lat="43.1525581" lon="11.4330044"><ele>178.33333333333334</ele><time>2026-04-22T14:50:59.108Z</time></trkpt><trkpt lat="43.1526451" lon="11.4329542"><ele>178.66666666666669</ele><time>2026-04-22T14:51:00.101Z</time></trkpt><trkpt lat="43.1527234" lon="11.4329553"><ele>179.0</ele><time>2026-04-22T14:51:01.106Z</time></trkpt><trkpt lat="43.1527958" lon="11.4330114"><ele>179.33333333333334</ele><time>2026-04-22T14:51:02.102Z</time></trkpt><trkpt lat="43.152849" lon="11.4331113"><ele>179.66666666666666</ele><time>2026-04-22T14:51:03.1Z</time></trkpt><trkpt lat="43.1528575" lon="11.4332432"><ele>180.0</ele><time>2026-04-22T14:51:04.104Z</time></trkpt><trkpt lat="43.1528219" lon="11.4333875"><ele>177.75</ele><time>2026-04-22T14:51:05.105Z</time></trkpt><trkpt lat="43.1527495" lon="11.4335279"><ele>175.5</ele><time>2026-04-22T14:51:06.108Z</time></trkpt><trkpt lat="43.1526421" lon="11.4336706"><ele>173.25</ele><time>2026-04-22T14:51:07.103Z</time></trkpt><trkpt lat="43.1525348" lon="11.4338238"><ele>171.0</ele><time>2026-04-22T14:51:08.099Z</time></trkpt><trkpt lat="43.1524192" lon="11.433999"><ele>170.0</ele><time>2026-04-22T14:51:09.109Z</time></trkpt><trkpt lat="43.1522727" lon="11.4341873"><ele>169.0</ele><time>2026-04-22T14:51:10.107Z</time></trkpt><trkpt lat="43.1521196" lon="11.434362"><ele>168.0</ele><time>2026-04-22T14:51:11.1Z</time></trkpt><trkpt lat="43.1519866" lon="11.4345063"><ele>168.0</ele><time>2026-04-22T14:51:12.106Z</time></trkpt><trkpt lat="43.1518741" lon="11.4346249"><ele>168.0</ele><time>2026-04-22T14:51:13.097Z</time></trkpt><trkpt lat="43.1517879" lon="11.4347247"><ele>168.0</ele><time>2026-04-22T14:51:14.101Z</time></trkpt><trkpt lat="43.1517294" lon="11.4348136"><ele>168.0</ele><time>2026-04-22T14:51:15.104Z</time></trkpt><trkpt lat="43.1516831" lon="11.4349531"><ele>166.20000000000002</ele><time>2026-04-22T14:51:17.103Z</time></trkpt><trkpt lat="43.151648" lon="11.4351061"><ele>164.4</ele><time>2026-04-22T14:51:19.1Z</time></trkpt><trkpt lat="43.151651" lon="11.4352307"><ele>162.60000000000002</ele><time>2026-04-22T14:51:20.109Z</time></trkpt><trkpt lat="43.1516703" lon="11.4353892"><ele>160.8</ele><time>2026-04-22T14:51:21.104Z</time></trkpt><trkpt lat="43.1516903" lon="11.4355573"><ele>159.0</ele><time>2026-04-22T14:51:22.109Z</time></trkpt><trkpt lat="43.1517212" lon="11.4357613"><ele>158.33333333333334</ele><time>2026-04-22T14:51:23.095Z</time></trkpt><trkpt lat="43.1517538" lon="11.436002"><ele>157.66666666666669</ele><time>2026-04-22T14:51:24.104Z</time></trkpt><trkpt lat="43.1517893" lon="11.4362809"><ele>157.0</ele><time>2026-04-22T14:51:25.101Z</time></trkpt><trkpt lat="43.1518282" lon="11.4365941"><ele>156.5</ele><time>2026-04-22T14:51:26.107Z</time></trkpt><trkpt lat="43.1518697" lon="11.4369118"><ele>156.0</ele><time>2026-04-22T14:51:27.101Z</time></trkpt><trkpt lat="43.1519099" lon="11.4372081"><ele>156.0</ele><time>2026-04-22T14:51:28.093Z</time></trkpt><trkpt lat="43.1519491" lon="11.4374745"><ele>156.0</ele><time>2026-04-22T14:51:29.108Z</time></trkpt><trkpt lat="43.1519859" lon="11.4377106"><ele>156.0</ele><time>2026-04-22T14:51:30.097Z</time></trkpt><trkpt lat="43.1520214" lon="11.437928"><ele>157.25</ele><time>2026-04-22T14:51:31.102Z</time></trkpt><trkpt lat="43.1520532" lon="11.4381329"><ele>158.5</ele><time>2026-04-22T14:51:32.11Z</time></trkpt><trkpt lat="43.1520844" lon="11.4383242"><ele>159.75</ele><time>2026-04-22T14:51:33.106Z</time></trkpt><trkpt lat="43.1520934" lon="11.4384943"><ele>161.0</ele><time>2026-04-22T14:51:34.102Z</time></trkpt><trkpt lat="43.1520791" lon="11.4386478"><ele>161.0</ele><time>2026-04-22T14:51:35.108Z</time></trkpt><trkpt lat="43.1520193" lon="11.4387957"><ele>161.0</ele><time>2026-04-22T14:51:36.101Z</time></trkpt><trkpt lat="43.151926" lon="11.4389546"><ele>161.0</ele><time>2026-04-22T14:51:37.099Z</time></trkpt><trkpt lat="43.1518024" lon="11.439126"><ele>161.0</ele><time>2026-04-22T14:51:38.104Z</time></trkpt><trkpt lat="43.1516706" lon="11.4393119"><ele>161.33333333333331</ele><time>2026-04-22T14:51:39.108Z</time></trkpt><trkpt lat="43.1515421" lon="11.439486"><ele>161.66666666666666</ele><time>2026-04-22T14:51:40.104Z</time></trkpt><trkpt lat="43.1514223" lon="11.4396708"><ele>162.0</ele><time>2026-04-22T14:51:41.098Z</time></trkpt><trkpt lat="43.1513176" lon="11.4398614"><ele>162.0</ele><time>2026-04-22T14:51:42.1Z</time></trkpt><trkpt lat="43.1512175" lon="11.4400611"><ele>162.0</ele><time>2026-04-22T14:51:43.099Z</time></trkpt><trkpt lat="43.1511507" lon="11.4402604"><ele>162.0</ele><time>2026-04-22T14:51:44.099Z</time></trkpt><trkpt lat="43.1510813" lon="11.4404456"><ele>163.0</ele><time>2026-04-22T14:51:45.097Z</time></trkpt><trkpt lat="43.1510138" lon="11.4406072"><ele>164.0</ele><time>2026-04-22T14:51:46.105Z</time></trkpt><trkpt lat="43.1509405" lon="11.4407531"><ele>165.0</ele><time>2026-04-22T14:51:47.102Z</time></trkpt><trkpt lat="43.1508564" lon="11.4408795"><ele>166.0</ele><time>2026-04-22T14:51:48.097Z</time></trkpt><trkpt lat="43.1507417" lon="11.4409927"><ele>166.66666666666669</ele><time>2026-04-22T14:51:49.096Z</time></trkpt><trkpt lat="43.1505935" lon="11.4411009"><ele>167.33333333333334</ele><time>2026-04-22T14:51:50.1Z</time></trkpt><trkpt lat="43.1504196" lon="11.4412116"><ele>168.0</ele><time>2026-04-22T14:51:51.104Z</time></trkpt><trkpt lat="43.1502347" lon="11.4413389"><ele>168.0</ele><time>2026-04-22T14:51:52.096Z</time></trkpt><trkpt lat="43.1500378" lon="11.4414958"><ele>168.0</ele><time>2026-04-22T14:51:53.102Z</time></trkpt><trkpt lat="43.1498293" lon="11.441662"><ele>166.33333333333334</ele><time>2026-04-22T14:51:54.1Z</time></trkpt><trkpt lat="43.1496317" lon="11.4418195"><ele>164.66666666666669</ele><time>2026-04-22T14:51:55.102Z</time></trkpt><trkpt lat="43.1494463" lon="11.441961"><ele>163.0</ele><time>2026-04-22T14:51:56.104Z</time></trkpt><trkpt lat="43.1492722" lon="11.4420972"><ele>163.33333333333334</ele><time>2026-04-22T14:51:57.103Z</time></trkpt><trkpt lat="43.1491115" lon="11.4422253"><ele>163.66666666666666</ele><time>2026-04-22T14:51:58.1Z</time></trkpt><trkpt lat="43.1489588" lon="11.4423416"><ele>164.0</ele><time>2026-04-22T14:51:59.103Z</time></trkpt><trkpt lat="43.1488304" lon="11.4424538"><ele>164.0</ele><time>2026-04-22T14:52:00.099Z</time></trkpt><trkpt lat="43.1487208" lon="11.4425771"><ele>164.0</ele><time>2026-04-22T14:52:01.096Z</time></trkpt><trkpt lat="43.1486277" lon="11.4427176"><ele>164.0</ele><time>2026-04-22T14:52:02.105Z</time></trkpt><trkpt lat="43.1485311" lon="11.4428812"><ele>164.0</ele><time>2026-04-22T14:52:03.1Z</time></trkpt><trkpt lat="43.1484315" lon="11.4430403"><ele>163.75</ele><time>2026-04-22T14:52:04.099Z</time></trkpt><trkpt lat="43.148329" lon="11.4431862"><ele>163.5</ele><time>2026-04-22T14:52:05.104Z</time></trkpt><trkpt lat="43.1482359" lon="11.4433196"><ele>163.25</ele><time>2026-04-22T14:52:06.107Z</time></trkpt><trkpt lat="43.1481551" lon="11.4434418"><ele>163.0</ele><time>2026-04-22T14:52:07.098Z</time></trkpt><trkpt lat="43.1480938" lon="11.4435632"><ele>163.0</ele><time>2026-04-22T14:52:08.106Z</time></trkpt><trkpt lat="43.14806" lon="11.4436819"><ele>163.0</ele><time>2026-04-22T14:52:09.107Z</time></trkpt><trkpt lat="43.1480596" lon="11.4438016"><ele>163.0</ele><time>2026-04-22T14:52:10.097Z</time></trkpt><trkpt lat="43.1480925" lon="11.4439297"><ele>163.0</ele><time>2026-04-22T14:52:11.099Z</time></trkpt><trkpt lat="43.1481381" lon="11.4440641"><ele>163.0</ele><time>2026-04-22T14:52:12.101Z</time></trkpt><trkpt lat="43.1481882" lon="11.4442035"><ele>164.4</ele><time>2026-04-22T14:52:13.1Z</time></trkpt><trkpt lat="43.1482401" lon="11.4443429"><ele>165.8</ele><time>2026-04-22T14:52:14.097Z</time></trkpt><trkpt lat="43.1482733" lon="11.4444851"><ele>167.2</ele><time>2026-04-22T14:52:15.108Z</time></trkpt><trkpt lat="43.1482648" lon="11.4446258"><ele>168.6</ele><time>2026-04-22T14:52:16.101Z</time></trkpt><trkpt lat="43.14821" lon="11.4447514"><ele>170.0</ele><time>2026-04-22T14:52:17.098Z</time></trkpt><trkpt lat="43.1481434" lon="11.4448567"><ele>170.2</ele><time>2026-04-22T14:52:18.103Z</time></trkpt><trkpt lat="43.1480643" lon="11.4449125"><ele>170.4</ele><time>2026-04-22T14:52:19.096Z</time></trkpt><trkpt lat="43.1479737" lon="11.4449109"><ele>170.60000000000002</ele><time>2026-04-22T14:52:20.098Z</time></trkpt><trkpt lat="43.1478792" lon="11.4448769"><ele>170.8</ele><time>2026-04-22T14:52:21.103Z</time></trkpt><trkpt lat="43.1477732" lon="11.4448056"><ele>171.0</ele><time>2026-04-22T14:52:22.096Z</time></trkpt><trkpt lat="43.1476372" lon="11.4447169"><ele>171.0</ele><time>2026-04-22T14:52:23.1Z</time></trkpt><trkpt lat="43.1474854" lon="11.4446315"><ele>171.0</ele><time>2026-04-22T14:52:24.101Z</time></trkpt><trkpt lat="43.1473125" lon="11.444567"><ele>171.0</ele><time>2026-04-22T14:52:25.099Z</time></trkpt><trkpt lat="43.1471367" lon="11.444534"><ele>168.0</ele><time>2026-04-22T14:52:26.101Z</time></trkpt><trkpt lat="43.1469668" lon="11.4445226"><ele>165.0</ele><time>2026-04-22T14:52:27.097Z</time></trkpt><trkpt lat="43.1467933" lon="11.4445309"><ele>162.0</ele><time>2026-04-22T14:52:28.107Z</time></trkpt><trkpt lat="43.1466326" lon="11.4445525"><ele>162.0</ele><time>2026-04-22T14:52:29.095Z</time></trkpt><trkpt lat="43.1464957" lon="11.4445914"><ele>162.0</ele><time>2026-04-22T14:52:30.097Z</time></trkpt><trkpt lat="43.1463839" lon="11.4446444"><ele>162.0</ele><time>2026-04-22T14:52:31.097Z</time></trkpt><trkpt lat="43.1462978" lon="11.444711"><ele>162.0</ele><time>2026-04-22T14:52:32.101Z</time></trkpt><trkpt lat="43.1462369" lon="11.4447927"><ele>162.0</ele><time>2026-04-22T14:52:33.105Z</time></trkpt><trkpt lat="43.1461903" lon="11.4448945"><ele>162.0</ele><time>2026-04-22T14:52:34.096Z</time></trkpt><trkpt lat="43.1461512" lon="11.4450212"><ele>162.0</ele><time>2026-04-22T14:52:35.096Z</time></trkpt><trkpt lat="43.1461195" lon="11.4451579"><ele>162.0</ele><time>2026-04-22T14:52:36.094Z</time></trkpt><trkpt lat="43.1461069" lon="11.4453017"><ele>162.0</ele><time>2026-04-22T14:52:37.095Z</time></trkpt><trkpt lat="43.1461201" lon="11.4454612"><ele>162.0</ele><time>2026-04-22T14:52:38.1Z</time></trkpt><trkpt lat="43.1461611" lon="11.4456446"><ele>161.66666666666666</ele><time>2026-04-22T14:52:39.107Z</time></trkpt><trkpt lat="43.1462308" lon="11.4458599"><ele>161.33333333333331</ele><time>2026-04-22T14:52:40.098Z</time></trkpt><trkpt lat="43.14629" lon="11.4460716"><ele>161.0</ele><time>2026-04-22T14:52:41.101Z</time></trkpt><trkpt lat="43.1463336" lon="11.4462632"><ele>162.0</ele><time>2026-04-22T14:52:42.099Z</time></trkpt><trkpt lat="43.1463839" lon="11.4464327"><ele>163.0</ele><time>2026-04-22T14:52:43.099Z</time></trkpt><trkpt lat="43.1464169" lon="11.4465742"><ele>164.0</ele><time>2026-04-22T14:52:44.095Z</time></trkpt><trkpt lat="43.146438" lon="11.446701"><ele>165.0</ele><time>2026-04-22T14:52:45.102Z</time></trkpt><trkpt lat="43.1464368" lon="11.4468121"><ele>166.0</ele><time>2026-04-22T14:52:46.103Z</time></trkpt><trkpt lat="43.1464035" lon="11.4469028"><ele>166.0</ele><time>2026-04-22T14:52:47.099Z</time></trkpt><trkpt lat="43.1463499" lon="11.4469627"><ele>166.0</ele><time>2026-04-22T14:52:48.1Z</time></trkpt><trkpt lat="43.1462763" lon="11.4469813"><ele>166.0</ele><time>2026-04-22T14:52:49.099Z</time></trkpt><trkpt lat="43.1461908" lon="11.446965"><ele>166.0</ele><time>2026-04-22T14:52:50.107Z</time></trkpt><trkpt lat="43.1460871" lon="11.4469217"><ele>166.0</ele><time>2026-04-22T14:52:51.097Z</time></trkpt><trkpt lat="43.1459631" lon="11.4468818"><ele>166.0</ele><time>2026-04-22T14:52:52.099Z</time></trkpt><trkpt lat="43.1458271" lon="11.4468678"><ele>166.0</ele><time>2026-04-22T14:52:53.101Z</time></trkpt><trkpt lat="43.1456965" lon="11.4468831"><ele>166.0</ele><time>2026-04-22T14:52:54.096Z</time></trkpt><trkpt lat="43.1455654" lon="11.4469165"><ele>166.0</ele><time>2026-04-22T14:52:55.11Z</time></trkpt><trkpt lat="43.1454445" lon="11.4469741"><ele>166.5</ele><time>2026-04-22T14:52:56.101Z</time></trkpt><trkpt lat="43.1453357" lon="11.4470635"><ele>167.0</ele><time>2026-04-22T14:52:57.099Z</time></trkpt><trkpt lat="43.1452295" lon="11.4471791"><ele>167.5</ele><time>2026-04-22T14:52:58.101Z</time></trkpt><trkpt lat="43.1451225" lon="11.4473121"><ele>168.0</ele><time>2026-04-22T14:52:59.1Z</time></trkpt><trkpt lat="43.1450233" lon="11.4474311"><ele>168.0</ele><time>2026-04-22T14:53:00.109Z</time></trkpt><trkpt lat="43.1449445" lon="11.4475264"><ele>168.0</ele><time>2026-04-22T14:53:01.099Z</time></trkpt><trkpt lat="43.1449094" lon="11.4476174"><ele>168.0</ele><time>2026-04-22T14:53:02.096Z</time></trkpt><trkpt lat="43.1448854" lon="11.4477654"><ele>168.0</ele><time>2026-04-22T14:53:04.102Z</time></trkpt><trkpt lat="43.1449079" lon="11.4478507"><ele>168.0</ele><time>2026-04-22T14:53:06.099Z</time></trkpt><trkpt lat="43.1449203" lon="11.4479526"><ele>168.0</ele><time>2026-04-22T14:53:10.106Z</time></trkpt><trkpt lat="43.1449118" lon="11.4481205"><ele>167.8</ele><time>2026-04-22T14:53:12.092Z</time></trkpt><trkpt lat="43.1448939" lon="11.4482608"><ele>167.60000000000002</ele><time>2026-04-22T14:53:13.1Z</time></trkpt><trkpt lat="43.1448616" lon="11.4484034"><ele>167.39999999999998</ele><time>2026-04-22T14:53:14.098Z</time></trkpt><trkpt lat="43.1448049" lon="11.4485215"><ele>167.2</ele><time>2026-04-22T14:53:15.099Z</time></trkpt><trkpt lat="43.1447094" lon="11.4486005"><ele>167.0</ele><time>2026-04-22T14:53:16.097Z</time></trkpt><trkpt lat="43.1445857" lon="11.4486347"><ele>167.0</ele><time>2026-04-22T14:53:17.099Z</time></trkpt><trkpt lat="43.1444545" lon="11.4486408"><ele>167.0</ele><time>2026-04-22T14:53:18.1Z</time></trkpt><trkpt lat="43.14429" lon="11.4486023"><ele>167.0</ele><time>2026-04-22T14:53:19.105Z</time></trkpt><trkpt lat="43.1441041" lon="11.4485257"><ele>168.66666666666666</ele><time>2026-04-22T14:53:20.099Z</time></trkpt><trkpt lat="43.1439093" lon="11.4484259"><ele>170.33333333333334</ele><time>2026-04-22T14:53:21.102Z</time></trkpt><trkpt lat="43.1437014" lon="11.4482911"><ele>172.0</ele><time>2026-04-22T14:53:22.098Z</time></trkpt><trkpt lat="43.1435078" lon="11.4481508"><ele>172.0</ele><time>2026-04-22T14:53:23.107Z</time></trkpt><trkpt lat="43.1433506" lon="11.4480226"><ele>172.0</ele><time>2026-04-22T14:53:24.099Z</time></trkpt><trkpt lat="43.1432244" lon="11.4479086"><ele>172.0</ele><time>2026-04-22T14:53:25.097Z</time></trkpt><trkpt lat="43.1431267" lon="11.4478238"><ele>170.2</ele><time>2026-04-22T14:53:26.104Z</time></trkpt><trkpt lat="43.1430417" lon="11.4477682"><ele>168.39999999999998</ele><time>2026-04-22T14:53:27.107Z</time></trkpt><trkpt lat="43.1429459" lon="11.4477259"><ele>166.60000000000002</ele><time>2026-04-22T14:53:28.104Z</time></trkpt><trkpt lat="43.1428349" lon="11.4476979"><ele>164.8</ele><time>2026-04-22T14:53:29.103Z</time></trkpt><trkpt lat="43.1427261" lon="11.4476864"><ele>163.0</ele><time>2026-04-22T14:53:30.1Z</time></trkpt><trkpt lat="43.1426214" lon="11.4476945"><ele>163.0</ele><time>2026-04-22T14:53:31.102Z</time></trkpt><trkpt lat="43.1425171" lon="11.447714"><ele>163.0</ele><time>2026-04-22T14:53:32.107Z</time></trkpt><trkpt lat="43.1424143" lon="11.4477381"><ele>163.0</ele><time>2026-04-22T14:53:33.107Z</time></trkpt><trkpt lat="43.1423022" lon="11.447776"><ele>163.0</ele><time>2026-04-22T14:53:34.097Z</time></trkpt><trkpt lat="43.1421693" lon="11.4478334"><ele>162.66666666666669</ele><time>2026-04-22T14:53:35.101Z</time></trkpt><trkpt lat="43.1420076" lon="11.4479034"><ele>162.33333333333334</ele><time>2026-04-22T14:53:36.108Z</time></trkpt><trkpt lat="43.141815" lon="11.4479804"><ele>162.0</ele><time>2026-04-22T14:53:37.099Z</time></trkpt><trkpt lat="43.1416216" lon="11.4480388"><ele>165.0</ele><time>2026-04-22T14:53:38.108Z</time></trkpt><trkpt lat="43.1414414" lon="11.4480783"><ele>168.0</ele><time>2026-04-22T14:53:39.107Z</time></trkpt><trkpt lat="43.1412708" lon="11.4481043"><ele>171.0</ele><time>2026-04-22T14:53:40.102Z</time></trkpt><trkpt lat="43.1411042" lon="11.4481298"><ele>171.0</ele><time>2026-04-22T14:53:41.105Z</time></trkpt><trkpt lat="43.1409502" lon="11.4481541"><ele>171.0</ele><time>2026-04-22T14:53:42.107Z</time></trkpt><trkpt lat="43.1408155" lon="11.448174"><ele>171.0</ele><time>2026-04-22T14:53:43.104Z</time></trkpt><trkpt lat="43.140699" lon="11.4481821"><ele>171.0</ele><time>2026-04-22T14:53:44.099Z</time></trkpt><trkpt lat="43.1405922" lon="11.4481818"><ele>170.25</ele><time>2026-04-22T14:53:45.105Z</time></trkpt><trkpt lat="43.1404839" lon="11.4481721"><ele>169.5</ele><time>2026-04-22T14:53:46.101Z</time></trkpt><trkpt lat="43.1403628" lon="11.4481407"><ele>168.75</ele><time>2026-04-22T14:53:47.106Z</time></trkpt><trkpt lat="43.1402212" lon="11.4480778"><ele>168.0</ele><time>2026-04-22T14:53:48.102Z</time></trkpt><trkpt lat="43.140078" lon="11.4480021"><ele>167.60000000000002</ele><time>2026-04-22T14:53:49.1Z</time></trkpt><trkpt lat="43.1399522" lon="11.447922"><ele>167.20000000000002</ele><time>2026-04-22T14:53:50.099Z</time></trkpt><trkpt lat="43.1398436" lon="11.4478445"><ele>166.8</ele><time>2026-04-22T14:53:51.096Z</time></trkpt><trkpt lat="43.1397559" lon="11.4477907"><ele>166.4</ele><time>2026-04-22T14:53:52.105Z</time></trkpt><trkpt lat="43.1396758" lon="11.4477644"><ele>166.0</ele><time>2026-04-22T14:53:53.1Z</time></trkpt><trkpt lat="43.1395866" lon="11.4477825"><ele>164.8</ele><time>2026-04-22T14:53:54.101Z</time></trkpt><trkpt lat="43.1394958" lon="11.4478507"><ele>163.60000000000002</ele><time>2026-04-22T14:53:55.103Z</time></trkpt><trkpt lat="43.1394206" lon="11.447947"><ele>162.4</ele><time>2026-04-22T14:53:56.102Z</time></trkpt><trkpt lat="43.139366" lon="11.4480584"><ele>161.2</ele><time>2026-04-22T14:53:57.1Z</time></trkpt><trkpt lat="43.1393325" lon="11.4481695"><ele>160.0</ele><time>2026-04-22T14:53:58.102Z</time></trkpt><trkpt lat="43.1393143" lon="11.4483126"><ele>160.0</ele><time>2026-04-22T14:53:59.097Z</time></trkpt><trkpt lat="43.1393033" lon="11.4484753"><ele>160.0</ele><time>2026-04-22T14:54:00.102Z</time></trkpt><trkpt lat="43.1392974" lon="11.4486371"><ele>160.0</ele><time>2026-04-22T14:54:01.105Z</time></trkpt><trkpt lat="43.1392869" lon="11.4487907"><ele>160.0</ele><time>2026-04-22T14:54:02.097Z</time></trkpt><trkpt lat="43.1392802" lon="11.4489337"><ele>160.0</ele><time>2026-04-22T14:54:03.113Z</time></trkpt><trkpt lat="43.1392738" lon="11.4490694"><ele>160.0</ele><time>2026-04-22T14:54:04.107Z</time></trkpt><trkpt lat="43.1392676" lon="11.4492051"><ele>160.0</ele><time>2026-04-22T14:54:05.098Z</time></trkpt><trkpt lat="43.1392679" lon="11.4493461"><ele>160.0</ele><time>2026-04-22T14:54:06.106Z</time></trkpt><trkpt lat="43.1392628" lon="11.4494843"><ele>160.0</ele><time>2026-04-22T14:54:07.11Z</time></trkpt><trkpt lat="43.1392598" lon="11.449625"><ele>160.0</ele><time>2026-04-22T14:54:08.107Z</time></trkpt><trkpt lat="43.139262" lon="11.4497722"><ele>160.0</ele><time>2026-04-22T14:54:09.104Z</time></trkpt><trkpt lat="43.1392706" lon="11.4499359"><ele>160.0</ele><time>2026-04-22T14:54:10.105Z</time></trkpt><trkpt lat="43.1392813" lon="11.450118"><ele>160.0</ele><time>2026-04-22T14:54:11.101Z</time></trkpt><trkpt lat="43.139292" lon="11.4503165"><ele>160.5</ele><time>2026-04-22T14:54:12.104Z</time></trkpt><trkpt lat="43.1392962" lon="11.4505255"><ele>161.0</ele><time>2026-04-22T14:54:13.099Z</time></trkpt><trkpt lat="43.1392816" lon="11.450728"><ele>161.5</ele><time>2026-04-22T14:54:14.1Z</time></trkpt><trkpt lat="43.1392456" lon="11.4509128"><ele>162.0</ele><time>2026-04-22T14:54:15.109Z</time></trkpt><trkpt lat="43.1391804" lon="11.4510858"><ele>162.0</ele><time>2026-04-22T14:54:16.103Z</time></trkpt><trkpt lat="43.1390871" lon="11.4512689"><ele>162.0</ele><time>2026-04-22T14:54:17.106Z</time></trkpt><trkpt lat="43.1389753" lon="11.4514883"><ele>162.0</ele><time>2026-04-22T14:54:18.103Z</time></trkpt><trkpt lat="43.1388471" lon="11.4517178"><ele>161.0</ele><time>2026-04-22T14:54:19.102Z</time></trkpt><trkpt lat="43.138723" lon="11.4519333"><ele>160.0</ele><time>2026-04-22T14:54:20.105Z</time></trkpt><trkpt lat="43.1386007" lon="11.4521241"><ele>159.0</ele><time>2026-04-22T14:54:21.105Z</time></trkpt><trkpt lat="43.1384785" lon="11.4522969"><ele>159.0</ele><time>2026-04-22T14:54:22.104Z</time></trkpt><trkpt lat="43.1383514" lon="11.4524554"><ele>159.0</ele><time>2026-04-22T14:54:23.103Z</time></trkpt><trkpt lat="43.1382127" lon="11.452599"><ele>159.0</ele><time>2026-04-22T14:54:24.103Z</time></trkpt><trkpt lat="43.138072" lon="11.4527347"><ele>159.66666666666666</ele><time>2026-04-22T14:54:25.102Z</time></trkpt><trkpt lat="43.1379022" lon="11.4528571"><ele>160.33333333333331</ele><time>2026-04-22T14:54:26.102Z</time></trkpt><trkpt lat="43.1377058" lon="11.4529644"><ele>161.0</ele><time>2026-04-22T14:54:27.106Z</time></trkpt><trkpt lat="43.1375211" lon="11.4530554"><ele>158.33333333333331</ele><time>2026-04-22T14:54:28.097Z</time></trkpt><trkpt lat="43.1373582" lon="11.4531542"><ele>155.66666666666666</ele><time>2026-04-22T14:54:29.104Z</time></trkpt><trkpt lat="43.1371963" lon="11.4532865"><ele>153.0</ele><time>2026-04-22T14:54:30.098Z</time></trkpt><trkpt lat="43.1370386" lon="11.4534437"><ele>153.0</ele><time>2026-04-22T14:54:31.105Z</time></trkpt><trkpt lat="43.1368903" lon="11.4536057"><ele>153.0</ele><time>2026-04-22T14:54:32.096Z</time></trkpt><trkpt lat="43.1367451" lon="11.4537603"><ele>153.0</ele><time>2026-04-22T14:54:33.098Z</time></trkpt><trkpt lat="43.1366102" lon="11.4539189"><ele>152.33333333333334</ele><time>2026-04-22T14:54:34.109Z</time></trkpt><trkpt lat="43.1364889" lon="11.4540922"><ele>151.66666666666669</ele><time>2026-04-22T14:54:35.109Z</time></trkpt><trkpt lat="43.1363706" lon="11.4542889"><ele>151.0</ele><time>2026-04-22T14:54:36.1Z</time></trkpt><trkpt lat="43.1362608" lon="11.4545172"><ele>153.5</ele><time>2026-04-22T14:54:37.101Z</time></trkpt><trkpt lat="43.1361479" lon="11.4547813"><ele>156.0</ele><time>2026-04-22T14:54:38.101Z</time></trkpt><trkpt lat="43.1360282" lon="11.4550487"><ele>156.0</ele><time>2026-04-22T14:54:39.097Z</time></trkpt><trkpt lat="43.135915" lon="11.4552896"><ele>156.0</ele><time>2026-04-22T14:54:40.102Z</time></trkpt><trkpt lat="43.1357993" lon="11.4555014"><ele>156.0</ele><time>2026-04-22T14:54:41.096Z</time></trkpt><trkpt lat="43.1356687" lon="11.4556853"><ele>154.66666666666666</ele><time>2026-04-22T14:54:42.098Z</time></trkpt><trkpt lat="43.1355239" lon="11.4558527"><ele>153.33333333333331</ele><time>2026-04-22T14:54:43.094Z</time></trkpt><trkpt lat="43.1353621" lon="11.4560258"><ele>152.0</ele><time>2026-04-22T14:54:44.107Z</time></trkpt><trkpt lat="43.1351858" lon="11.4562034"><ele>152.0</ele><time>2026-04-22T14:54:45.094Z</time></trkpt><trkpt lat="43.1349879" lon="11.4564014"><ele>152.0</ele><time>2026-04-22T14:54:46.106Z</time></trkpt><trkpt lat="43.1347752" lon="11.4566128"><ele>152.0</ele><time>2026-04-22T14:54:47.102Z</time></trkpt><trkpt lat="43.1345521" lon="11.4568339"><ele>152.0</ele><time>2026-04-22T14:54:48.103Z</time></trkpt><trkpt lat="43.1343312" lon="11.4570475"><ele>151.0</ele><time>2026-04-22T14:54:49.105Z</time></trkpt><trkpt lat="43.1341249" lon="11.4572447"><ele>150.0</ele><time>2026-04-22T14:54:50.1Z</time></trkpt><trkpt lat="43.1339454" lon="11.4574189"><ele>150.0</ele><time>2026-04-22T14:54:51.094Z</time></trkpt><trkpt lat="43.1337792" lon="11.4575731"><ele>150.0</ele><time>2026-04-22T14:54:52.099Z</time></trkpt><trkpt lat="43.1336255" lon="11.4577098"><ele>150.0</ele><time>2026-04-22T14:54:53.099Z</time></trkpt><trkpt lat="43.1334829" lon="11.457837"><ele>150.0</ele><time>2026-04-22T14:54:54.109Z</time></trkpt><trkpt lat="43.1333453" lon="11.4579517"><ele>150.0</ele><time>2026-04-22T14:54:55.104Z</time></trkpt><trkpt lat="43.1332077" lon="11.4580852"><ele>150.0</ele><time>2026-04-22T14:54:56.104Z</time></trkpt><trkpt lat="43.1330701" lon="11.4582376"><ele>149.25</ele><time>2026-04-22T14:54:57.104Z</time></trkpt><trkpt lat="43.1329463" lon="11.4583861"><ele>148.5</ele><time>2026-04-22T14:54:58.096Z</time></trkpt><trkpt lat="43.1328365" lon="11.4585158"><ele>147.75</ele><time>2026-04-22T14:54:59.096Z</time></trkpt><trkpt lat="43.1327398" lon="11.4586334"><ele>147.0</ele><time>2026-04-22T14:55:00.101Z</time></trkpt><trkpt lat="43.1326566" lon="11.4587523"><ele>148.25</ele><time>2026-04-22T14:55:01.105Z</time></trkpt><trkpt lat="43.1325862" lon="11.4588923"><ele>149.5</ele><time>2026-04-22T14:55:02.1Z</time></trkpt><trkpt lat="43.1325279" lon="11.4590735"><ele>150.75</ele><time>2026-04-22T14:55:03.094Z</time></trkpt><trkpt lat="43.132475" lon="11.4592958"><ele>152.0</ele><time>2026-04-22T14:55:04.1Z</time></trkpt><trkpt lat="43.1324367" lon="11.4595511"><ele>149.66666666666666</ele><time>2026-04-22T14:55:05.1Z</time></trkpt><trkpt lat="43.1323765" lon="11.4598131"><ele>147.33333333333334</ele><time>2026-04-22T14:55:06.103Z</time></trkpt><trkpt lat="43.13233" lon="11.4600656"><ele>145.0</ele><time>2026-04-22T14:55:07.101Z</time></trkpt><trkpt lat="43.1322902" lon="11.4602922"><ele>145.25</ele><time>2026-04-22T14:55:08.099Z</time></trkpt><trkpt lat="43.132246" lon="11.4604931"><ele>145.5</ele><time>2026-04-22T14:55:09.102Z</time></trkpt><trkpt lat="43.1322032" lon="11.4606652"><ele>145.75</ele><time>2026-04-22T14:55:10.101Z</time></trkpt><trkpt lat="43.1321744" lon="11.4608009"><ele>146.0</ele><time>2026-04-22T14:55:11.102Z</time></trkpt><trkpt lat="43.1321473" lon="11.4609284"><ele>146.0</ele><time>2026-04-22T14:55:12.101Z</time></trkpt><trkpt lat="43.1321352" lon="11.4610576"><ele>146.0</ele><time>2026-04-22T14:55:13.1Z</time></trkpt><trkpt lat="43.1321484" lon="11.4612153"><ele>146.0</ele><time>2026-04-22T14:55:14.104Z</time></trkpt><trkpt lat="43.1321716" lon="11.461381"><ele>146.0</ele><time>2026-04-22T14:55:15.104Z</time></trkpt><trkpt lat="43.1321901" lon="11.4615322"><ele>146.0</ele><time>2026-04-22T14:55:16.104Z</time></trkpt><trkpt lat="43.1321988" lon="11.4616599"><ele>146.0</ele><time>2026-04-22T14:55:17.108Z</time></trkpt><trkpt lat="43.1321968" lon="11.4617583"><ele>146.0</ele><time>2026-04-22T14:55:18.107Z</time></trkpt><trkpt lat="43.1321605" lon="11.4618512"><ele>146.0</ele><time>2026-04-22T14:55:20.098Z</time></trkpt><trkpt lat="43.132073" lon="11.4618092"><ele>146.0</ele><time>2026-04-22T14:55:23.097Z</time></trkpt><trkpt lat="43.1320013" lon="11.4617399"><ele>146.0</ele><time>2026-04-22T14:55:25.107Z</time></trkpt><trkpt lat="43.1319385" lon="11.461662"><ele>146.0</ele><time>2026-04-22T14:55:28.102Z</time></trkpt><trkpt lat="43.1318735" lon="11.4616409"><ele>146.0</ele><time>2026-04-22T14:55:29.107Z</time></trkpt><trkpt lat="43.1317831" lon="11.4616209"><ele>146.0</ele><time>2026-04-22T14:55:30.099Z</time></trkpt><trkpt lat="43.131672" lon="11.4616025"><ele>146.0</ele><time>2026-04-22T14:55:31.109Z</time></trkpt><trkpt lat="43.1315622" lon="11.461573"><ele>146.0</ele><time>2026-04-22T14:55:32.11Z</time></trkpt><trkpt lat="43.1314599" lon="11.4615294"><ele>146.0</ele><time>2026-04-22T14:55:33.099Z</time></trkpt><trkpt lat="43.1313722" lon="11.461462"><ele>145.25</ele><time>2026-04-22T14:55:34.107Z</time></trkpt><trkpt lat="43.1312987" lon="11.4613649"><ele>144.5</ele><time>2026-04-22T14:55:35.098Z</time></trkpt><trkpt lat="43.1312287" lon="11.4612419"><ele>143.75</ele><time>2026-04-22T14:55:36.112Z</time></trkpt><trkpt lat="43.1311608" lon="11.4610985"><ele>143.0</ele><time>2026-04-22T14:55:37.098Z</time></trkpt><trkpt lat="43.1310886" lon="11.4609732"><ele>143.0</ele><time>2026-04-22T14:55:38.099Z</time></trkpt><trkpt lat="43.1310061" lon="11.4608852"><ele>143.0</ele><time>2026-04-22T14:55:39.106Z</time></trkpt><trkpt lat="43.1309107" lon="11.4608297"><ele>143.0</ele><time>2026-04-22T14:55:40.097Z</time></trkpt><trkpt lat="43.1308105" lon="11.4608027"><ele>143.0</ele><time>2026-04-22T14:55:41.109Z</time></trkpt><trkpt lat="43.1307204" lon="11.4607868"><ele>143.0</ele><time>2026-04-22T14:55:42.099Z</time></trkpt><trkpt lat="43.1306415" lon="11.4607598"><ele>142.8</ele><time>2026-04-22T14:55:43.11Z</time></trkpt><trkpt lat="43.1305721" lon="11.4607127"><ele>142.60000000000002</ele><time>2026-04-22T14:55:44.105Z</time></trkpt><trkpt lat="43.1305125" lon="11.4606415"><ele>142.39999999999998</ele><time>2026-04-22T14:55:45.103Z</time></trkpt><trkpt lat="43.1304707" lon="11.4605391"><ele>142.2</ele><time>2026-04-22T14:55:46.109Z</time></trkpt><trkpt lat="43.1304346" lon="11.4603918"><ele>142.0</ele><time>2026-04-22T14:55:47.105Z</time></trkpt><trkpt lat="43.1303952" lon="11.460195"><ele>142.66666666666669</ele><time>2026-04-22T14:55:48.099Z</time></trkpt><trkpt lat="43.130348" lon="11.4599634"><ele>143.33333333333334</ele><time>2026-04-22T14:55:49.104Z</time></trkpt><trkpt lat="43.1302905" lon="11.4597003"><ele>144.0</ele><time>2026-04-22T14:55:50.11Z</time></trkpt><trkpt lat="43.1302291" lon="11.4594135"><ele>144.33333333333334</ele><time>2026-04-22T14:55:51.105Z</time></trkpt><trkpt lat="43.1301757" lon="11.4591396"><ele>144.66666666666669</ele><time>2026-04-22T14:55:52.108Z</time></trkpt><trkpt lat="43.1301232" lon="11.4588948"><ele>145.0</ele><time>2026-04-22T14:55:53.098Z</time></trkpt><trkpt lat="43.1300838" lon="11.4586853"><ele>146.2</ele><time>2026-04-22T14:55:54.112Z</time></trkpt><trkpt lat="43.1300446" lon="11.4585133"><ele>147.4</ele><time>2026-04-22T14:55:55.101Z</time></trkpt><trkpt lat="43.1300138" lon="11.4583935"><ele>148.6</ele><time>2026-04-22T14:55:56.101Z</time></trkpt><trkpt lat="43.1300295" lon="11.4582853"><ele>149.8</ele><time>2026-04-22T14:55:58.104Z</time></trkpt><trkpt lat="43.1299709" lon="11.4581361"><ele>151.0</ele><time>2026-04-22T14:56:01.112Z</time></trkpt><trkpt lat="43.1299054" lon="11.4580272"><ele>154.33333333333334</ele><time>2026-04-22T14:56:02.099Z</time></trkpt><trkpt lat="43.1298206" lon="11.4578795"><ele>157.66666666666666</ele><time>2026-04-22T14:56:03.101Z</time></trkpt><trkpt lat="43.1297205" lon="11.4577022"><ele>161.0</ele><time>2026-04-22T14:56:04.111Z</time></trkpt><trkpt lat="43.1296124" lon="11.4575167"><ele>161.0</ele><time>2026-04-22T14:56:05.101Z</time></trkpt><trkpt lat="43.1295025" lon="11.4573202"><ele>161.0</ele><time>2026-04-22T14:56:06.108Z</time></trkpt><trkpt lat="43.1293875" lon="11.4571136"><ele>161.0</ele><time>2026-04-22T14:56:07.109Z</time></trkpt><trkpt lat="43.1292699" lon="11.4569087"><ele>161.66666666666666</ele><time>2026-04-22T14:56:08.106Z</time></trkpt><trkpt lat="43.1291552" lon="11.4567131"><ele>162.33333333333334</ele><time>2026-04-22T14:56:09.107Z</time></trkpt><trkpt lat="43.1290391" lon="11.45652"><ele>163.0</ele><time>2026-04-22T14:56:10.099Z</time></trkpt><trkpt lat="43.1289235" lon="11.4563242"><ele>167.0</ele><time>2026-04-22T14:56:11.107Z</time></trkpt><trkpt lat="43.128814" lon="11.4561203"><ele>171.0</ele><time>2026-04-22T14:56:12.102Z</time></trkpt><trkpt lat="43.1286986" lon="11.4559111"><ele>175.0</ele><time>2026-04-22T14:56:13.098Z</time></trkpt><trkpt lat="43.1285796" lon="11.4557068"><ele>175.0</ele><time>2026-04-22T14:56:14.103Z</time></trkpt><trkpt lat="43.1284411" lon="11.455523"><ele>175.0</ele><time>2026-04-22T14:56:15.102Z</time></trkpt><trkpt lat="43.1282795" lon="11.4553812"><ele>175.0</ele><time>2026-04-22T14:56:16.104Z</time></trkpt><trkpt lat="43.1280989" lon="11.4552713"><ele>181.0</ele><time>2026-04-22T14:56:17.102Z</time></trkpt><trkpt lat="43.1279015" lon="11.4551879"><ele>187.0</ele><time>2026-04-22T14:56:18.104Z</time></trkpt><trkpt lat="43.1277065" lon="11.4551085"><ele>193.0</ele><time>2026-04-22T14:56:19.112Z</time></trkpt><trkpt lat="43.1275129" lon="11.455028"><ele>196.66666666666666</ele><time>2026-04-22T14:56:20.108Z</time></trkpt><trkpt lat="43.127339" lon="11.4549419"><ele>200.33333333333331</ele><time>2026-04-22T14:56:21.105Z</time></trkpt><trkpt lat="43.1271805" lon="11.4548399"><ele>204.0</ele><time>2026-04-22T14:56:22.109Z</time></trkpt><trkpt lat="43.1270508" lon="11.4546913"><ele>207.0</ele><time>2026-04-22T14:56:23.099Z</time></trkpt><trkpt lat="43.1269631" lon="11.4544946"><ele>210.0</ele><time>2026-04-22T14:56:24.1Z</time></trkpt><trkpt lat="43.126891" lon="11.4542611"><ele>213.0</ele><time>2026-04-22T14:56:25.103Z</time></trkpt><trkpt lat="43.1268486" lon="11.4540036"><ele>215.0</ele><time>2026-04-22T14:56:26.1Z</time></trkpt><trkpt lat="43.1268343" lon="11.4537474"><ele>217.0</ele><time>2026-04-22T14:56:27.105Z</time></trkpt><trkpt lat="43.1268336" lon="11.4535051"><ele>219.0</ele><time>2026-04-22T14:56:28.095Z</time></trkpt><trkpt lat="43.1268276" lon="11.4532916"><ele>219.0</ele><time>2026-04-22T14:56:29.109Z</time></trkpt><trkpt lat="43.126825" lon="11.4531108"><ele>218.99999999999997</ele><time>2026-04-22T14:56:30.105Z</time></trkpt><trkpt lat="43.1268248" lon="11.4529627"><ele>218.99999999999997</ele><time>2026-04-22T14:56:31.098Z</time></trkpt><trkpt lat="43.1268243" lon="11.4528243"><ele>219.0</ele><time>2026-04-22T14:56:32.108Z</time></trkpt><trkpt lat="43.126829" lon="11.4526973"><ele>219.0</ele><time>2026-04-22T14:56:33.098Z</time></trkpt><trkpt lat="43.1268339" lon="11.4525802"><ele>219.75</ele><time>2026-04-22T14:56:34.112Z</time></trkpt><trkpt lat="43.1268281" lon="11.4524515"><ele>220.5</ele><time>2026-04-22T14:56:35.106Z</time></trkpt><trkpt lat="43.1268147" lon="11.4522943"><ele>221.25</ele><time>2026-04-22T14:56:36.105Z</time></trkpt><trkpt lat="43.1267909" lon="11.4521027"><ele>222.0</ele><time>2026-04-22T14:56:37.109Z</time></trkpt><trkpt lat="43.1267643" lon="11.451868"><ele>223.0</ele><time>2026-04-22T14:56:38.102Z</time></trkpt><trkpt lat="43.126738" lon="11.4516125"><ele>224.0</ele><time>2026-04-22T14:56:39.111Z</time></trkpt><trkpt lat="43.1267096" lon="11.4513337"><ele>225.0</ele><time>2026-04-22T14:56:40.104Z</time></trkpt><trkpt lat="43.1266678" lon="11.4510548"><ele>225.0</ele><time>2026-04-22T14:56:41.11Z</time></trkpt><trkpt lat="43.1265902" lon="11.450767"><ele>225.0</ele><time>2026-04-22T14:56:42.108Z</time></trkpt><trkpt lat="43.1264889" lon="11.4504738"><ele>228.0</ele><time>2026-04-22T14:56:43.106Z</time></trkpt><trkpt lat="43.1263154" lon="11.4499648"><ele>231.0</ele><time>2026-04-22T14:56:45.098Z</time></trkpt><trkpt lat="43.12624" lon="11.4497406"><ele>234.0</ele><time>2026-04-22T14:56:46.1Z</time></trkpt><trkpt lat="43.1261594" lon="11.4495326"><ele>237.0</ele><time>2026-04-22T14:56:47.101Z</time></trkpt><trkpt lat="43.1260545" lon="11.4493649"><ele>240.0</ele><time>2026-04-22T14:56:48.111Z</time></trkpt><trkpt lat="43.1259288" lon="11.4492456"><ele>240.0</ele><time>2026-04-22T14:56:49.106Z</time></trkpt><trkpt lat="43.125801" lon="11.4491699"><ele>240.0</ele><time>2026-04-22T14:56:50.107Z</time></trkpt><trkpt lat="43.1256718" lon="11.4491217"><ele>240.0</ele><time>2026-04-22T14:56:51.1Z</time></trkpt><trkpt lat="43.1255509" lon="11.4490783"><ele>240.0</ele><time>2026-04-22T14:56:52.109Z</time></trkpt><trkpt lat="43.1254336" lon="11.4490443"><ele>239.83333333333334</ele><time>2026-04-22T14:56:53.109Z</time></trkpt><trkpt lat="43.1253309" lon="11.4490109"><ele>239.66666666666669</ele><time>2026-04-22T14:56:54.114Z</time></trkpt><trkpt lat="43.1252428" lon="11.4489791"><ele>239.5</ele><time>2026-04-22T14:56:55.1Z</time></trkpt><trkpt lat="43.1251677" lon="11.4489461"><ele>239.33333333333334</ele><time>2026-04-22T14:56:56.1Z</time></trkpt><trkpt lat="43.1251057" lon="11.4489125"><ele>239.16666666666669</ele><time>2026-04-22T14:56:57.106Z</time></trkpt><trkpt lat="43.125021" lon="11.4488574"><ele>239.0</ele><time>2026-04-22T14:56:59.107Z</time></trkpt><trkpt lat="43.1249012" lon="11.4487918"><ele>239.2</ele><time>2026-04-22T14:57:01.107Z</time></trkpt><trkpt lat="43.1248209" lon="11.4487671"><ele>239.39999999999998</ele><time>2026-04-22T14:57:02.107Z</time></trkpt><trkpt lat="43.1247457" lon="11.4487675"><ele>239.6</ele><time>2026-04-22T14:57:03.103Z</time></trkpt><trkpt lat="43.124666" lon="11.4488065"><ele>239.8</ele><time>2026-04-22T14:57:04.108Z</time></trkpt><trkpt lat="43.1245872" lon="11.4489018"><ele>240.0</ele><time>2026-04-22T14:57:05.102Z</time></trkpt><trkpt lat="43.1244988" lon="11.4490186"><ele>239.25</ele><time>2026-04-22T14:57:06.103Z</time></trkpt><trkpt lat="43.1244109" lon="11.4491427"><ele>238.5</ele><time>2026-04-22T14:57:07.108Z</time></trkpt><trkpt lat="43.1243141" lon="11.4492477"><ele>237.75</ele><time>2026-04-22T14:57:08.103Z</time></trkpt><trkpt lat="43.1242118" lon="11.4493149"><ele>237.0</ele><time>2026-04-22T14:57:09.107Z</time></trkpt><trkpt lat="43.1240987" lon="11.4493383"><ele>236.0</ele><time>2026-04-22T14:57:10.099Z</time></trkpt><trkpt lat="43.1239708" lon="11.4493009"><ele>235.0</ele><time>2026-04-22T14:57:11.096Z</time></trkpt><trkpt lat="43.1238248" lon="11.4492274"><ele>234.0</ele><time>2026-04-22T14:57:12.105Z</time></trkpt><trkpt lat="43.123666" lon="11.4491427"><ele>234.0</ele><time>2026-04-22T14:57:13.097Z</time></trkpt><trkpt lat="43.123494" lon="11.449073"><ele>234.0</ele><time>2026-04-22T14:57:14.115Z</time></trkpt><trkpt lat="43.1233136" lon="11.4490071"><ele>234.0</ele><time>2026-04-22T14:57:15.098Z</time></trkpt><trkpt lat="43.1231307" lon="11.4489369"><ele>233.0</ele><time>2026-04-22T14:57:16.099Z</time></trkpt><trkpt lat="43.1229627" lon="11.4488721"><ele>232.0</ele><time>2026-04-22T14:57:17.099Z</time></trkpt><trkpt lat="43.1227934" lon="11.4487954"><ele>231.0</ele><time>2026-04-22T14:57:18.099Z</time></trkpt><trkpt lat="43.1226505" lon="11.4487439"><ele>230.66666666666669</ele><time>2026-04-22T14:57:19.102Z</time></trkpt><trkpt lat="43.1225062" lon="11.4486976"><ele>230.33333333333334</ele><time>2026-04-22T14:57:20.104Z</time></trkpt><trkpt lat="43.12235" lon="11.4486464"><ele>230.0</ele><time>2026-04-22T14:57:21.107Z</time></trkpt><trkpt lat="43.1221673" lon="11.4485742"><ele>228.0</ele><time>2026-04-22T14:57:22.105Z</time></trkpt><trkpt lat="43.1219812" lon="11.4485043"><ele>226.0</ele><time>2026-04-22T14:57:23.105Z</time></trkpt><trkpt lat="43.1218133" lon="11.4484436"><ele>224.0</ele><time>2026-04-22T14:57:24.109Z</time></trkpt><trkpt lat="43.121661" lon="11.4483768"><ele>222.25</ele><time>2026-04-22T14:57:25.108Z</time></trkpt><trkpt lat="43.121531" lon="11.4482915"><ele>220.5</ele><time>2026-04-22T14:57:26.103Z</time></trkpt><trkpt lat="43.1214204" lon="11.4481676"><ele>218.75</ele><time>2026-04-22T14:57:27.108Z</time></trkpt><trkpt lat="43.1213295" lon="11.4479867"><ele>217.0</ele><time>2026-04-22T14:57:28.103Z</time></trkpt><trkpt lat="43.1212493" lon="11.4477611"><ele>217.0</ele><time>2026-04-22T14:57:29.103Z</time></trkpt><trkpt lat="43.1211702" lon="11.4475061"><ele>217.0</ele><time>2026-04-22T14:57:30.103Z</time></trkpt><trkpt lat="43.1210899" lon="11.4472473"><ele>217.0</ele><time>2026-04-22T14:57:31.101Z</time></trkpt><trkpt lat="43.1210086" lon="11.4469977"><ele>215.66666666666666</ele><time>2026-04-22T14:57:32.105Z</time></trkpt><trkpt lat="43.1209307" lon="11.4467542"><ele>214.33333333333331</ele><time>2026-04-22T14:57:33.101Z</time></trkpt><trkpt lat="43.1208569" lon="11.446522"><ele>213.0</ele><time>2026-04-22T14:57:34.105Z</time></trkpt><trkpt lat="43.1207874" lon="11.4463069"><ele>212.60000000000002</ele><time>2026-04-22T14:57:35.101Z</time></trkpt><trkpt lat="43.1207299" lon="11.4461309"><ele>212.20000000000002</ele><time>2026-04-22T14:57:36.105Z</time></trkpt><trkpt lat="43.1206927" lon="11.4459946"><ele>211.8</ele><time>2026-04-22T14:57:37.107Z</time></trkpt><trkpt lat="43.1206856" lon="11.4458804"><ele>211.4</ele><time>2026-04-22T14:57:38.106Z</time></trkpt><trkpt lat="43.1207194" lon="11.4457504"><ele>211.0</ele><time>2026-04-22T14:57:39.099Z</time></trkpt><trkpt lat="43.1207742" lon="11.4456032"><ele>211.0</ele><time>2026-04-22T14:57:40.099Z</time></trkpt><trkpt lat="43.1208314" lon="11.4454601"><ele>211.0</ele><time>2026-04-22T14:57:41.103Z</time></trkpt><trkpt lat="43.1208797" lon="11.4453242"><ele>211.0</ele><time>2026-04-22T14:57:42.097Z</time></trkpt><trkpt lat="43.1209159" lon="11.4452094"><ele>211.0</ele><time>2026-04-22T14:57:43.105Z</time></trkpt><trkpt lat="43.1209421" lon="11.4451215"><ele>211.0</ele><time>2026-04-22T14:57:44.096Z</time></trkpt><trkpt lat="43.1209822" lon="11.4450122"><ele>210.99999999999997</ele><time>2026-04-22T14:57:46.102Z</time></trkpt><trkpt lat="43.1210333" lon="11.444951"><ele>211.0</ele><time>2026-04-22T14:57:49.099Z</time></trkpt><trkpt lat="43.1209725" lon="11.4449908"><ele>211.0</ele><time>2026-04-22T14:58:08.101Z</time></trkpt><trkpt lat="43.1209034" lon="11.4449789"><ele>211.0</ele><time>2026-04-22T14:58:11.104Z</time></trkpt><trkpt lat="43.1208579" lon="11.4448519"><ele>210.99999999999997</ele><time>2026-04-22T14:58:13.106Z</time></trkpt><trkpt lat="43.1208093" lon="11.4447441"><ele>211.0</ele><time>2026-04-22T14:58:14.111Z</time></trkpt><trkpt lat="43.1207353" lon="11.4446289"><ele>209.25</ele><time>2026-04-22T14:58:15.109Z</time></trkpt><trkpt lat="43.1206363" lon="11.444521"><ele>207.5</ele><time>2026-04-22T14:58:16.099Z</time></trkpt><trkpt lat="43.1205238" lon="11.4444248"><ele>205.75</ele><time>2026-04-22T14:58:17.104Z</time></trkpt><trkpt lat="43.1203787" lon="11.4443338"><ele>204.0</ele><time>2026-04-22T14:58:18.096Z</time></trkpt><trkpt lat="43.1202226" lon="11.4442516"><ele>204.0</ele><time>2026-04-22T14:58:19.107Z</time></trkpt><trkpt lat="43.1200618" lon="11.444158"><ele>204.0</ele><time>2026-04-22T14:58:20.105Z</time></trkpt><trkpt lat="43.1198986" lon="11.4440645"><ele>204.0</ele><time>2026-04-22T14:58:21.102Z</time></trkpt><trkpt lat="43.1197423" lon="11.4439642"><ele>201.33333333333331</ele><time>2026-04-22T14:58:22.098Z</time></trkpt><trkpt lat="43.1195911" lon="11.4438603"><ele>198.66666666666666</ele><time>2026-04-22T14:58:23.105Z</time></trkpt><trkpt lat="43.1194413" lon="11.443757"><ele>196.0</ele><time>2026-04-22T14:58:24.099Z</time></trkpt><trkpt lat="43.1192912" lon="11.4436577"><ele>194.33333333333331</ele><time>2026-04-22T14:58:25.105Z</time></trkpt><trkpt lat="43.1191456" lon="11.4435561"><ele>192.66666666666666</ele><time>2026-04-22T14:58:26.106Z</time></trkpt><trkpt lat="43.1190105" lon="11.4434389"><ele>191.0</ele><time>2026-04-22T14:58:27.099Z</time></trkpt><trkpt lat="43.1188839" lon="11.4433028"><ele>190.0</ele><time>2026-04-22T14:58:28.101Z</time></trkpt><trkpt lat="43.118771" lon="11.4431494"><ele>189.0</ele><time>2026-04-22T14:58:29.099Z</time></trkpt><trkpt lat="43.1186798" lon="11.4430049"><ele>188.0</ele><time>2026-04-22T14:58:30.106Z</time></trkpt><trkpt lat="43.1186063" lon="11.4428942"><ele>187.0</ele><time>2026-04-22T14:58:31.102Z</time></trkpt><trkpt lat="43.1185382" lon="11.4428033"><ele>184.25</ele><time>2026-04-22T14:58:32.1Z</time></trkpt><trkpt lat="43.1184571" lon="11.4427019"><ele>181.5</ele><time>2026-04-22T14:58:33.104Z</time></trkpt><trkpt lat="43.118359" lon="11.4426115"><ele>178.75</ele><time>2026-04-22T14:58:34.096Z</time></trkpt><trkpt lat="43.1182392" lon="11.4425168"><ele>176.0</ele><time>2026-04-22T14:58:35.106Z</time></trkpt><trkpt lat="43.1181042" lon="11.4424061"><ele>176.0</ele><time>2026-04-22T14:58:36.104Z</time></trkpt><trkpt lat="43.1179692" lon="11.4422937"><ele>176.0</ele><time>2026-04-22T14:58:37.101Z</time></trkpt><trkpt lat="43.1178486" lon="11.4421913"><ele>176.0</ele><time>2026-04-22T14:58:38.097Z</time></trkpt><trkpt lat="43.117743" lon="11.4421025"><ele>176.0</ele><time>2026-04-22T14:58:39.103Z</time></trkpt><trkpt lat="43.1176371" lon="11.4420274"><ele>173.8</ele><time>2026-04-22T14:58:40.102Z</time></trkpt><trkpt lat="43.1175462" lon="11.4419744"><ele>171.60000000000002</ele><time>2026-04-22T14:58:41.101Z</time></trkpt><trkpt lat="43.1174625" lon="11.4419496"><ele>169.4</ele><time>2026-04-22T14:58:42.099Z</time></trkpt><trkpt lat="43.1173651" lon="11.4419335"><ele>167.2</ele><time>2026-04-22T14:58:43.1Z</time></trkpt><trkpt lat="43.1172568" lon="11.4419539"><ele>165.0</ele><time>2026-04-22T14:58:44.105Z</time></trkpt><trkpt lat="43.1171437" lon="11.4420092"><ele>165.75</ele><time>2026-04-22T14:58:45.097Z</time></trkpt><trkpt lat="43.1170317" lon="11.4420979"><ele>166.5</ele><time>2026-04-22T14:58:46.106Z</time></trkpt><trkpt lat="43.1169112" lon="11.4421902"><ele>167.25</ele><time>2026-04-22T14:58:47.098Z</time></trkpt><trkpt lat="43.1167925" lon="11.4422552"><ele>168.0</ele><time>2026-04-22T14:58:48.097Z</time></trkpt><trkpt lat="43.1166681" lon="11.4422872"><ele>168.0</ele><time>2026-04-22T14:58:49.097Z</time></trkpt><trkpt lat="43.1165495" lon="11.4422821"><ele>168.0</ele><time>2026-04-22T14:58:50.091Z</time></trkpt><trkpt lat="43.1164562" lon="11.4422321"><ele>168.0</ele><time>2026-04-22T14:58:51.094Z</time></trkpt><trkpt lat="43.1163874" lon="11.4421497"><ele>168.0</ele><time>2026-04-22T14:58:52.097Z</time></trkpt><trkpt lat="43.1163236" lon="11.4420455"><ele>168.0</ele><time>2026-04-22T14:58:53.098Z</time></trkpt><trkpt lat="43.1162507" lon="11.4419249"><ele>165.75</ele><time>2026-04-22T14:58:54.099Z</time></trkpt><trkpt lat="43.1161677" lon="11.4417806"><ele>163.5</ele><time>2026-04-22T14:58:55.099Z</time></trkpt><trkpt lat="43.1160696" lon="11.4416339"><ele>161.25</ele><time>2026-04-22T14:58:56.097Z</time></trkpt><trkpt lat="43.1159575" lon="11.4414995"><ele>159.0</ele><time>2026-04-22T14:58:57.099Z</time></trkpt><trkpt lat="43.1158417" lon="11.4413879"><ele>156.6</ele><time>2026-04-22T14:58:58.094Z</time></trkpt><trkpt lat="43.1157355" lon="11.4412985"><ele>154.2</ele><time>2026-04-22T14:58:59.101Z</time></trkpt><trkpt lat="43.1156398" lon="11.4412306"><ele>151.79999999999998</ele><time>2026-04-22T14:59:00.1Z</time></trkpt><trkpt lat="43.1155482" lon="11.4411969"><ele>149.4</ele><time>2026-04-22T14:59:01.098Z</time></trkpt><trkpt lat="43.1154614" lon="11.4411979"><ele>147.0</ele><time>2026-04-22T14:59:02.093Z</time></trkpt><trkpt lat="43.115363" lon="11.4412204"><ele>147.0</ele><time>2026-04-22T14:59:03.1Z</time></trkpt><trkpt lat="43.1152415" lon="11.4412556"><ele>147.0</ele><time>2026-04-22T14:59:04.096Z</time></trkpt><trkpt lat="43.1150895" lon="11.4412939"><ele>147.0</ele><time>2026-04-22T14:59:05.103Z</time></trkpt><trkpt lat="43.1149201" lon="11.4413221"><ele>147.0</ele><time>2026-04-22T14:59:06.102Z</time></trkpt><trkpt lat="43.1147577" lon="11.441336"><ele>145.0</ele><time>2026-04-22T14:59:07.097Z</time></trkpt><trkpt lat="43.114588" lon="11.4413527"><ele>143.0</ele><time>2026-04-22T14:59:08.105Z</time></trkpt><trkpt lat="43.1144021" lon="11.4413627"><ele>141.0</ele><time>2026-04-22T14:59:09.099Z</time></trkpt><trkpt lat="43.1141934" lon="11.4413799"><ele>139.5</ele><time>2026-04-22T14:59:10.109Z</time></trkpt><trkpt lat="43.1139637" lon="11.4413972"><ele>138.0</ele><time>2026-04-22T14:59:11.11Z</time></trkpt><trkpt lat="43.1137321" lon="11.4414127"><ele>138.0</ele><time>2026-04-22T14:59:12.103Z</time></trkpt><trkpt lat="43.1135148" lon="11.4414298"><ele>138.0</ele><time>2026-04-22T14:59:13.101Z</time></trkpt><trkpt lat="43.1133096" lon="11.441448"><ele>138.0</ele><time>2026-04-22T14:59:14.103Z</time></trkpt><trkpt lat="43.113094" lon="11.4414741"><ele>137.5</ele><time>2026-04-22T14:59:15.102Z</time></trkpt><trkpt lat="43.1128595" lon="11.441495"><ele>137.0</ele><time>2026-04-22T14:59:16.109Z</time></trkpt><trkpt lat="43.1126222" lon="11.4415157"><ele>136.66666666666666</ele><time>2026-04-22T14:59:17.108Z</time></trkpt><trkpt lat="43.1124011" lon="11.4415314"><ele>136.33333333333334</ele><time>2026-04-22T14:59:18.111Z</time></trkpt><trkpt lat="43.1121961" lon="11.4415519"><ele>136.0</ele><time>2026-04-22T14:59:19.11Z</time></trkpt><trkpt lat="43.112005" lon="11.4415696"><ele>136.0</ele><time>2026-04-22T14:59:20.1Z</time></trkpt><trkpt lat="43.1118301" lon="11.441585"><ele>136.0</ele><time>2026-04-22T14:59:21.102Z</time></trkpt><trkpt lat="43.1116703" lon="11.4416036"><ele>136.0</ele><time>2026-04-22T14:59:22.097Z</time></trkpt><trkpt lat="43.1115156" lon="11.4416257"><ele>135.66666666666669</ele><time>2026-04-22T14:59:23.11Z</time></trkpt><trkpt lat="43.1113511" lon="11.4416539"><ele>135.33333333333334</ele><time>2026-04-22T14:59:24.103Z</time></trkpt><trkpt lat="43.111163" lon="11.4416865"><ele>135.0</ele><time>2026-04-22T14:59:25.108Z</time></trkpt><trkpt lat="43.1109585" lon="11.441714"><ele>135.0</ele><time>2026-04-22T14:59:26.104Z</time></trkpt><trkpt lat="43.1107594" lon="11.4417331"><ele>135.0</ele><time>2026-04-22T14:59:27.11Z</time></trkpt><trkpt lat="43.1105821" lon="11.4417386"><ele>135.0</ele><time>2026-04-22T14:59:28.102Z</time></trkpt><trkpt lat="43.1104111" lon="11.4417492"><ele>134.33333333333334</ele><time>2026-04-22T14:59:29.112Z</time></trkpt><trkpt lat="43.1102301" lon="11.4417752"><ele>133.66666666666669</ele><time>2026-04-22T14:59:30.108Z</time></trkpt><trkpt lat="43.110043" lon="11.4418192"><ele>133.0</ele><time>2026-04-22T14:59:31.107Z</time></trkpt><trkpt lat="43.109845" lon="11.4418939"><ele>133.0</ele><time>2026-04-22T14:59:32.099Z</time></trkpt><trkpt lat="43.1096267" lon="11.4419883"><ele>133.0</ele><time>2026-04-22T14:59:33.102Z</time></trkpt><trkpt lat="43.1093963" lon="11.4420806"><ele>133.0</ele><time>2026-04-22T14:59:34.116Z</time></trkpt><trkpt lat="43.1091502" lon="11.4421605"><ele>133.0</ele><time>2026-04-22T14:59:35.105Z</time></trkpt><trkpt lat="43.108904" lon="11.4422248"><ele>133.0</ele><time>2026-04-22T14:59:36.112Z</time></trkpt><trkpt lat="43.1086641" lon="11.4422791"><ele>133.0</ele><time>2026-04-22T14:59:37.109Z</time></trkpt><trkpt lat="43.108441" lon="11.4423246"><ele>133.33333333333334</ele><time>2026-04-22T14:59:38.106Z</time></trkpt><trkpt lat="43.1082394" lon="11.4423619"><ele>133.66666666666666</ele><time>2026-04-22T14:59:39.107Z</time></trkpt><trkpt lat="43.1080663" lon="11.4423935"><ele>134.0</ele><time>2026-04-22T14:59:40.108Z</time></trkpt><trkpt lat="43.1079147" lon="11.4424209"><ele>134.0</ele><time>2026-04-22T14:59:41.113Z</time></trkpt><trkpt lat="43.1077801" lon="11.4424431"><ele>134.0</ele><time>2026-04-22T14:59:42.103Z</time></trkpt><trkpt lat="43.1076519" lon="11.4424505"><ele>134.0</ele><time>2026-04-22T14:59:43.099Z</time></trkpt><trkpt lat="43.1075267" lon="11.4424281"><ele>134.0</ele><time>2026-04-22T14:59:44.109Z</time></trkpt><trkpt lat="43.1074176" lon="11.4423623"><ele>133.25</ele><time>2026-04-22T14:59:45.104Z</time></trkpt><trkpt lat="43.1073269" lon="11.4422549"><ele>132.5</ele><time>2026-04-22T14:59:46.111Z</time></trkpt><trkpt lat="43.1072324" lon="11.4421153"><ele>131.75</ele><time>2026-04-22T14:59:47.109Z</time></trkpt><trkpt lat="43.1071263" lon="11.4419599"><ele>131.0</ele><time>2026-04-22T14:59:48.099Z</time></trkpt><trkpt lat="43.1070063" lon="11.4417945"><ele>131.0</ele><time>2026-04-22T14:59:49.113Z</time></trkpt><trkpt lat="43.1068784" lon="11.4416132"><ele>131.0</ele><time>2026-04-22T14:59:50.106Z</time></trkpt><trkpt lat="43.1067439" lon="11.4414209"><ele>131.0</ele><time>2026-04-22T14:59:51.105Z</time></trkpt><trkpt lat="43.106599" lon="11.4412187"><ele>131.0</ele><time>2026-04-22T14:59:52.115Z</time></trkpt><trkpt lat="43.1064401" lon="11.4410021"><ele>131.0</ele><time>2026-04-22T14:59:53.101Z</time></trkpt><trkpt lat="43.1062774" lon="11.4407765"><ele>131.0</ele><time>2026-04-22T14:59:54.107Z</time></trkpt><trkpt lat="43.1061167" lon="11.4405592"><ele>131.0</ele><time>2026-04-22T14:59:55.105Z</time></trkpt><trkpt lat="43.1059642" lon="11.4403501"><ele>131.0</ele><time>2026-04-22T14:59:56.101Z</time></trkpt><trkpt lat="43.1058139" lon="11.4401477"><ele>130.66666666666666</ele><time>2026-04-22T14:59:57.107Z</time></trkpt><trkpt lat="43.1056715" lon="11.4399619"><ele>130.33333333333334</ele><time>2026-04-22T14:59:58.103Z</time></trkpt><trkpt lat="43.1055346" lon="11.4397959"><ele>130.0</ele><time>2026-04-22T14:59:59.108Z</time></trkpt><trkpt lat="43.1054029" lon="11.4396408"><ele>129.66666666666669</ele><time>2026-04-22T15:00:00.1Z</time></trkpt><trkpt lat="43.1052775" lon="11.439474"><ele>129.33333333333334</ele><time>2026-04-22T15:00:01.108Z</time></trkpt><trkpt lat="43.1051576" lon="11.4392844"><ele>129.0</ele><time>2026-04-22T15:00:02.104Z</time></trkpt><trkpt lat="43.1050408" lon="11.4390866"><ele>129.0</ele><time>2026-04-22T15:00:03.105Z</time></trkpt><trkpt lat="43.1049176" lon="11.4388789"><ele>129.0</ele><time>2026-04-22T15:00:04.11Z</time></trkpt><trkpt lat="43.1047819" lon="11.4386692"><ele>129.0</ele><time>2026-04-22T15:00:05.106Z</time></trkpt><trkpt lat="43.1046371" lon="11.4384551"><ele>129.66666666666666</ele><time>2026-04-22T15:00:06.102Z</time></trkpt><trkpt lat="43.1044844" lon="11.438233"><ele>130.33333333333331</ele><time>2026-04-22T15:00:07.098Z</time></trkpt><trkpt lat="43.1043364" lon="11.4380237"><ele>131.0</ele><time>2026-04-22T15:00:08.099Z</time></trkpt><trkpt lat="43.1041919" lon="11.4378184"><ele>131.33333333333331</ele><time>2026-04-22T15:00:09.099Z</time></trkpt><trkpt lat="43.1040474" lon="11.4376148"><ele>131.66666666666666</ele><time>2026-04-22T15:00:10.111Z</time></trkpt><trkpt lat="43.1039025" lon="11.4374149"><ele>132.0</ele><time>2026-04-22T15:00:11.104Z</time></trkpt><trkpt lat="43.103754" lon="11.4372137"><ele>132.66666666666666</ele><time>2026-04-22T15:00:12.109Z</time></trkpt><trkpt lat="43.1036161" lon="11.4370226"><ele>133.33333333333331</ele><time>2026-04-22T15:00:13.106Z</time></trkpt><trkpt lat="43.1035002" lon="11.4368591"><ele>134.0</ele><time>2026-04-22T15:00:14.106Z</time></trkpt><trkpt lat="43.1034063" lon="11.4367308"><ele>134.0</ele><time>2026-04-22T15:00:15.112Z</time></trkpt><trkpt lat="43.1033082" lon="11.4365991"><ele>134.0</ele><time>2026-04-22T15:00:16.108Z</time></trkpt><trkpt lat="43.1032049" lon="11.4364633"><ele>134.0</ele><time>2026-04-22T15:00:17.1Z</time></trkpt><trkpt lat="43.1030969" lon="11.4363094"><ele>134.0</ele><time>2026-04-22T15:00:18.103Z</time></trkpt><trkpt lat="43.1029649" lon="11.4361342"><ele>134.66666666666666</ele><time>2026-04-22T15:00:19.102Z</time></trkpt><trkpt lat="43.102824" lon="11.4359349"><ele>135.33333333333334</ele><time>2026-04-22T15:00:20.102Z</time></trkpt><trkpt lat="43.1026846" lon="11.4357291"><ele>136.0</ele><time>2026-04-22T15:00:21.099Z</time></trkpt><trkpt lat="43.1025484" lon="11.4355234"><ele>136.0</ele><time>2026-04-22T15:00:22.1Z</time></trkpt><trkpt lat="43.1024204" lon="11.4353235"><ele>136.0</ele><time>2026-04-22T15:00:23.112Z</time></trkpt><trkpt lat="43.1023132" lon="11.4351406"><ele>136.0</ele><time>2026-04-22T15:00:24.102Z</time></trkpt><trkpt lat="43.1022337" lon="11.4349794"><ele>136.75</ele><time>2026-04-22T15:00:25.101Z</time></trkpt><trkpt lat="43.1021814" lon="11.4348263"><ele>137.5</ele><time>2026-04-22T15:00:26.107Z</time></trkpt><trkpt lat="43.1021603" lon="11.4346827"><ele>138.25</ele><time>2026-04-22T15:00:27.107Z</time></trkpt><trkpt lat="43.1021732" lon="11.4345335"><ele>139.0</ele><time>2026-04-22T15:00:28.104Z</time></trkpt><trkpt lat="43.1021956" lon="11.4343578"><ele>140.5</ele><time>2026-04-22T15:00:29.102Z</time></trkpt><trkpt lat="43.1022341" lon="11.4341666"><ele>142.0</ele><time>2026-04-22T15:00:30.109Z</time></trkpt><trkpt lat="43.102273" lon="11.4339814"><ele>143.5</ele><time>2026-04-22T15:00:31.109Z</time></trkpt><trkpt lat="43.1023018" lon="11.4338166"><ele>145.0</ele><time>2026-04-22T15:00:32.108Z</time></trkpt><trkpt lat="43.1023173" lon="11.4336671"><ele>145.2</ele><time>2026-04-22T15:00:33.103Z</time></trkpt><trkpt lat="43.1023239" lon="11.4335303"><ele>145.4</ele><time>2026-04-22T15:00:34.102Z</time></trkpt><trkpt lat="43.1023199" lon="11.433392"><ele>145.6</ele><time>2026-04-22T15:00:35.098Z</time></trkpt><trkpt lat="43.1023091" lon="11.4332405"><ele>145.8</ele><time>2026-04-22T15:00:36.103Z</time></trkpt><trkpt lat="43.1022892" lon="11.4330823"><ele>146.0</ele><time>2026-04-22T15:00:37.102Z</time></trkpt><trkpt lat="43.1022427" lon="11.4329179"><ele>146.0</ele><time>2026-04-22T15:00:38.106Z</time></trkpt><trkpt lat="43.1021856" lon="11.4327606"><ele>146.0</ele><time>2026-04-22T15:00:39.097Z</time></trkpt><trkpt lat="43.1021062" lon="11.4326231"><ele>146.0</ele><time>2026-04-22T15:00:40.1Z</time></trkpt><trkpt lat="43.1020099" lon="11.4325163"><ele>146.0</ele><time>2026-04-22T15:00:41.098Z</time></trkpt><trkpt lat="43.1019054" lon="11.4324479"><ele>146.0</ele><time>2026-04-22T15:00:42.101Z</time></trkpt><trkpt lat="43.1017879" lon="11.4324193"><ele>146.0</ele><time>2026-04-22T15:00:43.104Z</time></trkpt><trkpt lat="43.1016537" lon="11.4324268"><ele>146.0</ele><time>2026-04-22T15:00:44.104Z</time></trkpt><trkpt lat="43.1015041" lon="11.4324358"><ele>146.0</ele><time>2026-04-22T15:00:45.099Z</time></trkpt><trkpt lat="43.1013436" lon="11.4324401"><ele>148.0</ele><time>2026-04-22T15:00:46.114Z</time></trkpt><trkpt lat="43.1011735" lon="11.43243"><ele>150.0</ele><time>2026-04-22T15:00:47.108Z</time></trkpt><trkpt lat="43.1009963" lon="11.4324137"><ele>152.0</ele><time>2026-04-22T15:00:48.1Z</time></trkpt><trkpt lat="43.1008222" lon="11.4323977"><ele>154.0</ele><time>2026-04-22T15:00:49.1Z</time></trkpt><trkpt lat="43.1006507" lon="11.4323811"><ele>156.0</ele><time>2026-04-22T15:00:50.106Z</time></trkpt><trkpt lat="43.1004775" lon="11.4323589"><ele>158.0</ele><time>2026-04-22T15:00:51.099Z</time></trkpt><trkpt lat="43.1002997" lon="11.4323324"><ele>158.0</ele><time>2026-04-22T15:00:52.101Z</time></trkpt><trkpt lat="43.1001255" lon="11.4323112"><ele>158.0</ele><time>2026-04-22T15:00:53.1Z</time></trkpt><trkpt lat="43.0999455" lon="11.432288"><ele>158.0</ele><time>2026-04-22T15:00:54.106Z</time></trkpt><trkpt lat="43.099766" lon="11.4322698"><ele>159.0</ele><time>2026-04-22T15:00:55.114Z</time></trkpt><trkpt lat="43.0995898" lon="11.4322543"><ele>160.0</ele><time>2026-04-22T15:00:56.109Z</time></trkpt><trkpt lat="43.0994152" lon="11.4322382"><ele>161.0</ele><time>2026-04-22T15:00:57.11Z</time></trkpt><trkpt lat="43.0992433" lon="11.4322249"><ele>159.66666666666666</ele><time>2026-04-22T15:00:58.104Z</time></trkpt><trkpt lat="43.0990757" lon="11.4322129"><ele>158.33333333333334</ele><time>2026-04-22T15:00:59.105Z</time></trkpt><trkpt lat="43.0989129" lon="11.4321962"><ele>157.0</ele><time>2026-04-22T15:01:00.113Z</time></trkpt><trkpt lat="43.0987559" lon="11.4321715"><ele>160.33333333333334</ele><time>2026-04-22T15:01:01.104Z</time></trkpt><trkpt lat="43.0986016" lon="11.4321299"><ele>163.66666666666666</ele><time>2026-04-22T15:01:02.097Z</time></trkpt><trkpt lat="43.0984539" lon="11.4320578"><ele>167.0</ele><time>2026-04-22T15:01:03.103Z</time></trkpt><trkpt lat="43.0983121" lon="11.4319516"><ele>165.66666666666666</ele><time>2026-04-22T15:01:04.099Z</time></trkpt><trkpt lat="43.0981712" lon="11.4318223"><ele>164.33333333333334</ele><time>2026-04-22T15:01:05.097Z</time></trkpt><trkpt lat="43.0980285" lon="11.4316786"><ele>163.0</ele><time>2026-04-22T15:01:06.109Z</time></trkpt><trkpt lat="43.0978838" lon="11.4315351"><ele>163.0</ele><time>2026-04-22T15:01:07.104Z</time></trkpt><trkpt lat="43.0977338" lon="11.4313964"><ele>163.0</ele><time>2026-04-22T15:01:08.105Z</time></trkpt><trkpt lat="43.0975805" lon="11.4312618"><ele>163.0</ele><time>2026-04-22T15:01:09.102Z</time></trkpt><trkpt lat="43.0974247" lon="11.4311293"><ele>164.33333333333334</ele><time>2026-04-22T15:01:10.101Z</time></trkpt><trkpt lat="43.0972697" lon="11.430997"><ele>165.66666666666666</ele><time>2026-04-22T15:01:11.105Z</time></trkpt><trkpt lat="43.0971165" lon="11.4308667"><ele>167.0</ele><time>2026-04-22T15:01:12.108Z</time></trkpt><trkpt lat="43.0969669" lon="11.4307453"><ele>167.0</ele><time>2026-04-22T15:01:13.107Z</time></trkpt><trkpt lat="43.0968237" lon="11.4306312"><ele>167.0</ele><time>2026-04-22T15:01:14.1Z</time></trkpt><trkpt lat="43.0966837" lon="11.4305038"><ele>167.0</ele><time>2026-04-22T15:01:15.1Z</time></trkpt><trkpt lat="43.0965525" lon="11.430366"><ele>168.33333333333331</ele><time>2026-04-22T15:01:16.102Z</time></trkpt><trkpt lat="43.0964284" lon="11.4302092"><ele>169.66666666666666</ele><time>2026-04-22T15:01:17.11Z</time></trkpt><trkpt lat="43.0963098" lon="11.4300475"><ele>171.0</ele><time>2026-04-22T15:01:18.108Z</time></trkpt><trkpt lat="43.0961901" lon="11.4298858"><ele>171.0</ele><time>2026-04-22T15:01:19.1Z</time></trkpt><trkpt lat="43.096067" lon="11.4297289"><ele>171.0</ele><time>2026-04-22T15:01:20.097Z</time></trkpt><trkpt lat="43.0959347" lon="11.4295835"><ele>171.0</ele><time>2026-04-22T15:01:21.098Z</time></trkpt><trkpt lat="43.0957935" lon="11.4294569"><ele>173.66666666666666</ele><time>2026-04-22T15:01:22.103Z</time></trkpt><trkpt lat="43.0956466" lon="11.4293497"><ele>176.33333333333331</ele><time>2026-04-22T15:01:23.103Z</time></trkpt><trkpt lat="43.0954951" lon="11.4292514"><ele>179.0</ele><time>2026-04-22T15:01:24.103Z</time></trkpt><trkpt lat="43.0953452" lon="11.4291523"><ele>179.0</ele><time>2026-04-22T15:01:25.105Z</time></trkpt><trkpt lat="43.0951932" lon="11.4290511"><ele>179.0</ele><time>2026-04-22T15:01:26.101Z</time></trkpt><trkpt lat="43.0950453" lon="11.4289482"><ele>179.0</ele><time>2026-04-22T15:01:27.111Z</time></trkpt><trkpt lat="43.0949026" lon="11.4288457"><ele>181.33333333333331</ele><time>2026-04-22T15:01:28.103Z</time></trkpt><trkpt lat="43.0947607" lon="11.4287413"><ele>183.66666666666666</ele><time>2026-04-22T15:01:29.104Z</time></trkpt><trkpt lat="43.0946208" lon="11.4286378"><ele>186.0</ele><time>2026-04-22T15:01:30.107Z</time></trkpt><trkpt lat="43.0944876" lon="11.4285397"><ele>186.0</ele><time>2026-04-22T15:01:31.108Z</time></trkpt><trkpt lat="43.0943769" lon="11.4284573"><ele>186.0</ele><time>2026-04-22T15:01:32.105Z</time></trkpt><trkpt lat="43.0942729" lon="11.4283825"><ele>186.0</ele><time>2026-04-22T15:01:33.102Z</time></trkpt><trkpt lat="43.0941798" lon="11.4283116"><ele>186.0</ele><time>2026-04-22T15:01:34.104Z</time></trkpt><trkpt lat="43.0940777" lon="11.4282385"><ele>186.5</ele><time>2026-04-22T15:01:35.104Z</time></trkpt><trkpt lat="43.0939721" lon="11.4281632"><ele>187.0</ele><time>2026-04-22T15:01:36.111Z</time></trkpt><trkpt lat="43.0938689" lon="11.4280859"><ele>187.5</ele><time>2026-04-22T15:01:37.11Z</time></trkpt><trkpt lat="43.0937564" lon="11.428005"><ele>188.0</ele><time>2026-04-22T15:01:38.105Z</time></trkpt><trkpt lat="43.0936455" lon="11.4279257"><ele>188.75</ele><time>2026-04-22T15:01:39.105Z</time></trkpt><trkpt lat="43.0935301" lon="11.4278439"><ele>189.5</ele><time>2026-04-22T15:01:40.105Z</time></trkpt><trkpt lat="43.0934165" lon="11.4277612"><ele>190.25</ele><time>2026-04-22T15:01:41.105Z</time></trkpt><trkpt lat="43.0933002" lon="11.4276793"><ele>191.0</ele><time>2026-04-22T15:01:42.098Z</time></trkpt><trkpt lat="43.093181" lon="11.4275925"><ele>191.75</ele><time>2026-04-22T15:01:43.099Z</time></trkpt><trkpt lat="43.0930609" lon="11.4275059"><ele>192.5</ele><time>2026-04-22T15:01:44.099Z</time></trkpt><trkpt lat="43.0929412" lon="11.4274191"><ele>193.25</ele><time>2026-04-22T15:01:45.101Z</time></trkpt><trkpt lat="43.0928203" lon="11.4273324"><ele>194.0</ele><time>2026-04-22T15:01:46.105Z</time></trkpt><trkpt lat="43.0926985" lon="11.4272438"><ele>194.0</ele><time>2026-04-22T15:01:47.105Z</time></trkpt><trkpt lat="43.0925769" lon="11.4271547"><ele>194.0</ele><time>2026-04-22T15:01:48.104Z</time></trkpt><trkpt lat="43.0924517" lon="11.4270642"><ele>194.0</ele><time>2026-04-22T15:01:49.1Z</time></trkpt><trkpt lat="43.092323" lon="11.4269705"><ele>194.0</ele><time>2026-04-22T15:01:50.104Z</time></trkpt><trkpt lat="43.0921941" lon="11.4268791"><ele>195.5</ele><time>2026-04-22T15:01:51.096Z</time></trkpt><trkpt lat="43.0920629" lon="11.4267863"><ele>197.0</ele><time>2026-04-22T15:01:52.098Z</time></trkpt><trkpt lat="43.0919322" lon="11.4266921"><ele>198.5</ele><time>2026-04-22T15:01:53.103Z</time></trkpt><trkpt lat="43.0918041" lon="11.4265987"><ele>200.0</ele><time>2026-04-22T15:01:54.11Z</time></trkpt><trkpt lat="43.0916742" lon="11.4265082"><ele>199.75</ele><time>2026-04-22T15:01:55.102Z</time></trkpt><trkpt lat="43.0915429" lon="11.4264144"><ele>199.5</ele><time>2026-04-22T15:01:56.097Z</time></trkpt><trkpt lat="43.0914126" lon="11.4263182"><ele>199.25</ele><time>2026-04-22T15:01:57.105Z</time></trkpt><trkpt lat="43.0912886" lon="11.4262249"><ele>199.0</ele><time>2026-04-22T15:01:58.104Z</time></trkpt><trkpt lat="43.0911663" lon="11.4261329"><ele>200.0</ele><time>2026-04-22T15:01:59.1Z</time></trkpt><trkpt lat="43.0910422" lon="11.426046"><ele>201.0</ele><time>2026-04-22T15:02:00.1Z</time></trkpt><trkpt lat="43.0909131" lon="11.4259675"><ele>202.0</ele><time>2026-04-22T15:02:01.105Z</time></trkpt><trkpt lat="43.0907824" lon="11.425912"><ele>203.0</ele><time>2026-04-22T15:02:02.101Z</time></trkpt><trkpt lat="43.0906408" lon="11.4258729"><ele>205.0</ele><time>2026-04-22T15:02:03.098Z</time></trkpt><trkpt lat="43.0904969" lon="11.4258377"><ele>207.0</ele><time>2026-04-22T15:02:04.101Z</time></trkpt><trkpt lat="43.0903477" lon="11.4258022"><ele>209.0</ele><time>2026-04-22T15:02:05.104Z</time></trkpt><trkpt lat="43.0901971" lon="11.4257628"><ele>209.0</ele><time>2026-04-22T15:02:06.104Z</time></trkpt><trkpt lat="43.0900459" lon="11.4257218"><ele>209.0</ele><time>2026-04-22T15:02:07.1Z</time></trkpt><trkpt lat="43.0898961" lon="11.4256843"><ele>209.0</ele><time>2026-04-22T15:02:08.105Z</time></trkpt><trkpt lat="43.0897469" lon="11.425647"><ele>210.25</ele><time>2026-04-22T15:02:09.1Z</time></trkpt><trkpt lat="43.0895991" lon="11.4256022"><ele>211.5</ele><time>2026-04-22T15:02:10.095Z</time></trkpt><trkpt lat="43.0894528" lon="11.4255603"><ele>212.75</ele><time>2026-04-22T15:02:11.097Z</time></trkpt><trkpt lat="43.0893116" lon="11.4255209"><ele>214.0</ele><time>2026-04-22T15:02:12.096Z</time></trkpt><trkpt lat="43.0891744" lon="11.4254821"><ele>220.5</ele><time>2026-04-22T15:02:13.105Z</time></trkpt><trkpt lat="43.0890495" lon="11.4254341"><ele>227.0</ele><time>2026-04-22T15:02:14.105Z</time></trkpt><trkpt lat="43.08895" lon="11.4253609"><ele>233.5</ele><time>2026-04-22T15:02:15.099Z</time></trkpt><trkpt lat="43.0888845" lon="11.4252517"><ele>240.0</ele><time>2026-04-22T15:02:16.103Z</time></trkpt><trkpt lat="43.0888578" lon="11.4251088"><ele>240.0</ele><time>2026-04-22T15:02:17.102Z</time></trkpt><trkpt lat="43.0888702" lon="11.4249438"><ele>240.0</ele><time>2026-04-22T15:02:18.106Z</time></trkpt><trkpt lat="43.0889041" lon="11.4247688"><ele>240.0</ele><time>2026-04-22T15:02:19.105Z</time></trkpt><trkpt lat="43.0889467" lon="11.424584"><ele>240.0</ele><time>2026-04-22T15:02:20.099Z</time></trkpt><trkpt lat="43.0889928" lon="11.4243827"><ele>239.5</ele><time>2026-04-22T15:02:21.105Z</time></trkpt><trkpt lat="43.0890368" lon="11.424186"><ele>239.0</ele><time>2026-04-22T15:02:22.105Z</time></trkpt><trkpt lat="43.0890796" lon="11.4239863"><ele>238.5</ele><time>2026-04-22T15:02:23.099Z</time></trkpt><trkpt lat="43.0891197" lon="11.4237925"><ele>238.0</ele><time>2026-04-22T15:02:24.103Z</time></trkpt><trkpt lat="43.0891542" lon="11.4236186"><ele>238.0</ele><time>2026-04-22T15:02:25.094Z</time></trkpt><trkpt lat="43.0891662" lon="11.4234532"><ele>238.0</ele><time>2026-04-22T15:02:26.096Z</time></trkpt><trkpt lat="43.0891716" lon="11.4232988"><ele>238.0</ele><time>2026-04-22T15:02:27.101Z</time></trkpt><trkpt lat="43.0891485" lon="11.4231486"><ele>238.0</ele><time>2026-04-22T15:02:28.097Z</time></trkpt><trkpt lat="43.0891059" lon="11.4229906"><ele>244.25</ele><time>2026-04-22T15:02:29.107Z</time></trkpt><trkpt lat="43.0890468" lon="11.4228308"><ele>250.5</ele><time>2026-04-22T15:02:30.099Z</time></trkpt><trkpt lat="43.0889711" lon="11.422667"><ele>256.75</ele><time>2026-04-22T15:02:31.102Z</time></trkpt><trkpt lat="43.0888866" lon="11.4224977"><ele>263.0</ele><time>2026-04-22T15:02:32.1Z</time></trkpt><trkpt lat="43.0888071" lon="11.4223306"><ele>263.0</ele><time>2026-04-22T15:02:33.099Z</time></trkpt><trkpt lat="43.0887468" lon="11.4221808"><ele>263.0</ele><time>2026-04-22T15:02:34.098Z</time></trkpt><trkpt lat="43.088698" lon="11.4220466"><ele>263.0</ele><time>2026-04-22T15:02:35.098Z</time></trkpt><trkpt lat="43.0886643" lon="11.4219289"><ele>263.0</ele><time>2026-04-22T15:02:36.101Z</time></trkpt><trkpt lat="43.0886178" lon="11.4218257"><ele>263.0</ele><time>2026-04-22T15:02:37.101Z</time></trkpt><trkpt lat="43.0885657" lon="11.421751"><ele>262.0</ele><time>2026-04-22T15:02:38.099Z</time></trkpt><trkpt lat="43.0884957" lon="11.4216937"><ele>261.0</ele><time>2026-04-22T15:02:39.092Z</time></trkpt><trkpt lat="43.0884115" lon="11.4216579"><ele>260.0</ele><time>2026-04-22T15:02:40.095Z</time></trkpt><trkpt lat="43.0883249" lon="11.4216587"><ele>259.0</ele><time>2026-04-22T15:02:41.099Z</time></trkpt><trkpt lat="43.0882522" lon="11.4216918"><ele>258.0</ele><time>2026-04-22T15:02:42.107Z</time></trkpt><trkpt lat="43.0881873" lon="11.4217466"><ele>257.0</ele><time>2026-04-22T15:02:43.096Z</time></trkpt><trkpt lat="43.0881335" lon="11.4218292"><ele>261.4</ele><time>2026-04-22T15:02:44.106Z</time></trkpt><trkpt lat="43.0880918" lon="11.4219385"><ele>265.79999999999995</ele><time>2026-04-22T15:02:45.106Z</time></trkpt><trkpt lat="43.0880646" lon="11.4220691"><ele>270.2</ele><time>2026-04-22T15:02:46.103Z</time></trkpt><trkpt lat="43.0880412" lon="11.4222314"><ele>274.59999999999997</ele><time>2026-04-22T15:02:47.1Z</time></trkpt><trkpt lat="43.0880149" lon="11.4224145"><ele>279.0</ele><time>2026-04-22T15:02:48.103Z</time></trkpt><trkpt lat="43.0879761" lon="11.4226109"><ele>279.75</ele><time>2026-04-22T15:02:49.101Z</time></trkpt><trkpt lat="43.0879309" lon="11.4228043"><ele>280.5</ele><time>2026-04-22T15:02:50.101Z</time></trkpt><trkpt lat="43.0878809" lon="11.4229853"><ele>281.25</ele><time>2026-04-22T15:02:51.1Z</time></trkpt><trkpt lat="43.0878245" lon="11.4231452"><ele>282.0</ele><time>2026-04-22T15:02:52.096Z</time></trkpt><trkpt lat="43.0877604" lon="11.4232849"><ele>282.2</ele><time>2026-04-22T15:02:53.097Z</time></trkpt><trkpt lat="43.0876947" lon="11.4234085"><ele>282.4</ele><time>2026-04-22T15:02:54.1Z</time></trkpt><trkpt lat="43.0876297" lon="11.4234946"><ele>282.6</ele><time>2026-04-22T15:02:55.098Z</time></trkpt><trkpt lat="43.0875702" lon="11.4235353"><ele>282.8</ele><time>2026-04-22T15:02:56.099Z</time></trkpt><trkpt lat="43.0874912" lon="11.4234669"><ele>283.0</ele><time>2026-04-22T15:02:58.105Z</time></trkpt><trkpt lat="43.0874597" lon="11.4232989"><ele>283.0</ele><time>2026-04-22T15:03:00.098Z</time></trkpt><trkpt lat="43.0874358" lon="11.4231759"><ele>283.0</ele><time>2026-04-22T15:03:01.098Z</time></trkpt><trkpt lat="43.0874148" lon="11.4230364"><ele>283.0</ele><time>2026-04-22T15:03:02.095Z</time></trkpt><trkpt lat="43.0873878" lon="11.4228748"><ele>283.0</ele><time>2026-04-22T15:03:03.091Z</time></trkpt><trkpt lat="43.08736" lon="11.4227323"><ele>283.0</ele><time>2026-04-22T15:03:04.092Z</time></trkpt><trkpt lat="43.0873288" lon="11.4226348"><ele>287.5</ele><time>2026-04-22T15:03:05.098Z</time></trkpt><trkpt lat="43.087257" lon="11.4225553"><ele>292.0</ele><time>2026-04-22T15:03:07.097Z</time></trkpt><trkpt lat="43.0871941" lon="11.4225805"><ele>296.5</ele><time>2026-04-22T15:03:09.095Z</time></trkpt><trkpt lat="43.0871593" lon="11.422671"><ele>301.0</ele><time>2026-04-22T15:03:11.096Z</time></trkpt><trkpt lat="43.0871466" lon="11.4228183"><ele>305.5</ele><time>2026-04-22T15:03:13.098Z</time></trkpt><trkpt lat="43.0871308" lon="11.4229544"><ele>310.0</ele><time>2026-04-22T15:03:14.094Z</time></trkpt><trkpt lat="43.0870963" lon="11.423133"><ele>310.0</ele><time>2026-04-22T15:03:15.099Z</time></trkpt><trkpt lat="43.0870481" lon="11.4233344"><ele>310.0</ele><time>2026-04-22T15:03:16.101Z</time></trkpt><trkpt lat="43.0869899" lon="11.4235311"><ele>310.0</ele><time>2026-04-22T15:03:17.098Z</time></trkpt><trkpt lat="43.0869367" lon="11.4236957"><ele>310.0</ele><time>2026-04-22T15:03:18.104Z</time></trkpt><trkpt lat="43.0868858" lon="11.4238182"><ele>311.6</ele><time>2026-04-22T15:03:19.105Z</time></trkpt><trkpt lat="43.0868144" lon="11.4238812"><ele>313.2</ele><time>2026-04-22T15:03:20.095Z</time></trkpt><trkpt lat="43.0867329" lon="11.4239017"><ele>314.8</ele><time>2026-04-22T15:03:21.103Z</time></trkpt><trkpt lat="43.0866348" lon="11.4238778"><ele>316.4</ele><time>2026-04-22T15:03:22.096Z</time></trkpt><trkpt lat="43.0865411" lon="11.423826"><ele>318.0</ele><time>2026-04-22T15:03:23.1Z</time></trkpt><trkpt lat="43.0864565" lon="11.4237449"><ele>320.2</ele><time>2026-04-22T15:03:24.103Z</time></trkpt><trkpt lat="43.0863878" lon="11.4236326"><ele>322.4</ele><time>2026-04-22T15:03:25.098Z</time></trkpt><trkpt lat="43.0863499" lon="11.4235301"><ele>324.59999999999997</ele><time>2026-04-22T15:03:26.104Z</time></trkpt><trkpt lat="43.0863519" lon="11.4234311"><ele>326.8</ele><time>2026-04-22T15:03:27.096Z</time></trkpt><trkpt lat="43.0863732" lon="11.4233185"><ele>329.0</ele><time>2026-04-22T15:03:28.101Z</time></trkpt><trkpt lat="43.0864148" lon="11.4231789"><ele>329.0</ele><time>2026-04-22T15:03:29.093Z</time></trkpt><trkpt lat="43.0864613" lon="11.4230301"><ele>329.0</ele><time>2026-04-22T15:03:30.096Z</time></trkpt><trkpt lat="43.0865027" lon="11.4228936"><ele>329.0</ele><time>2026-04-22T15:03:31.096Z</time></trkpt><trkpt lat="43.0864987" lon="11.4227642"><ele>329.0</ele><time>2026-04-22T15:03:32.094Z</time></trkpt><trkpt lat="43.0864665" lon="11.4226612"><ele>329.0</ele><time>2026-04-22T15:03:33.096Z</time></trkpt><trkpt lat="43.0864171" lon="11.4225951"><ele>328.83333333333337</ele><time>2026-04-22T15:03:34.1Z</time></trkpt><trkpt lat="43.0863545" lon="11.4225579"><ele>328.6666666666667</ele><time>2026-04-22T15:03:35.101Z</time></trkpt><trkpt lat="43.0862397" lon="11.422587"><ele>328.5</ele><time>2026-04-22T15:03:37.092Z</time></trkpt><trkpt lat="43.0861871" lon="11.4226443"><ele>328.3333333333333</ele><time>2026-04-22T15:03:38.092Z</time></trkpt><trkpt lat="43.0861417" lon="11.4227336"><ele>328.16666666666663</ele><time>2026-04-22T15:03:39.104Z</time></trkpt><trkpt lat="43.0860955" lon="11.4228448"><ele>328.0</ele><time>2026-04-22T15:03:40.097Z</time></trkpt><trkpt lat="43.086038" lon="11.4229777"><ele>328.25</ele><time>2026-04-22T15:03:41.1Z</time></trkpt><trkpt lat="43.0859599" lon="11.4231211"><ele>328.5</ele><time>2026-04-22T15:03:42.103Z</time></trkpt><trkpt lat="43.0858663" lon="11.42324"><ele>328.75</ele><time>2026-04-22T15:03:43.092Z</time></trkpt><trkpt lat="43.0857703" lon="11.4233123"><ele>329.0</ele><time>2026-04-22T15:03:44.103Z</time></trkpt><trkpt lat="43.0856772" lon="11.4233087"><ele>333.0</ele><time>2026-04-22T15:03:45.099Z</time></trkpt><trkpt lat="43.0855876" lon="11.4232151"><ele>337.0</ele><time>2026-04-22T15:03:46.099Z</time></trkpt><trkpt lat="43.0855264" lon="11.4230841"><ele>341.0</ele><time>2026-04-22T15:03:47.096Z</time></trkpt><trkpt lat="43.0854837" lon="11.4229333"><ele>345.0</ele><time>2026-04-22T15:03:48.1Z</time></trkpt><trkpt lat="43.0854494" lon="11.4227855"><ele>345.8</ele><time>2026-04-22T15:03:49.103Z</time></trkpt><trkpt lat="43.0854277" lon="11.4226551"><ele>346.6</ele><time>2026-04-22T15:03:50.093Z</time></trkpt><trkpt lat="43.0854037" lon="11.4225247"><ele>347.4</ele><time>2026-04-22T15:03:51.104Z</time></trkpt><trkpt lat="43.0853776" lon="11.4223932"><ele>348.2</ele><time>2026-04-22T15:03:52.098Z</time></trkpt><trkpt lat="43.0853439" lon="11.4222627"><ele>349.0</ele><time>2026-04-22T15:03:53.103Z</time></trkpt><trkpt lat="43.0853027" lon="11.422133"><ele>345.75</ele><time>2026-04-22T15:03:54.097Z</time></trkpt><trkpt lat="43.0852547" lon="11.4220051"><ele>342.5</ele><time>2026-04-22T15:03:55.1Z</time></trkpt><trkpt lat="43.0851825" lon="11.421889"><ele>339.25</ele><time>2026-04-22T15:03:56.105Z</time></trkpt><trkpt lat="43.0850885" lon="11.4217883"><ele>336.0</ele><time>2026-04-22T15:03:57.096Z</time></trkpt><trkpt lat="43.0849869" lon="11.4217151"><ele>338.25</ele><time>2026-04-22T15:03:58.094Z</time></trkpt><trkpt lat="43.0848773" lon="11.4216568"><ele>340.5</ele><time>2026-04-22T15:03:59.096Z</time></trkpt><trkpt lat="43.0847633" lon="11.4216126"><ele>342.75</ele><time>2026-04-22T15:04:00.098Z</time></trkpt><trkpt lat="43.0846414" lon="11.4215731"><ele>345.0</ele><time>2026-04-22T15:04:01.102Z</time></trkpt><trkpt lat="43.0845181" lon="11.4215309"><ele>345.0</ele><time>2026-04-22T15:04:02.095Z</time></trkpt><trkpt lat="43.0844019" lon="11.421479"><ele>345.0</ele><time>2026-04-22T15:04:03.103Z</time></trkpt><trkpt lat="43.0842937" lon="11.4214119"><ele>345.0</ele><time>2026-04-22T15:04:04.102Z</time></trkpt><trkpt lat="43.0841897" lon="11.4213336"><ele>345.0</ele><time>2026-04-22T15:04:05.098Z</time></trkpt><trkpt lat="43.0840894" lon="11.4212503"><ele>345.5</ele><time>2026-04-22T15:04:06.096Z</time></trkpt><trkpt lat="43.0839903" lon="11.4211681"><ele>346.0</ele><time>2026-04-22T15:04:07.097Z</time></trkpt><trkpt lat="43.0838932" lon="11.4210908"><ele>346.5</ele><time>2026-04-22T15:04:08.097Z</time></trkpt><trkpt lat="43.0837961" lon="11.4210175"><ele>347.0</ele><time>2026-04-22T15:04:09.095Z</time></trkpt><trkpt lat="43.0836945" lon="11.4209523"><ele>347.0</ele><time>2026-04-22T15:04:10.102Z</time></trkpt><trkpt lat="43.0835852" lon="11.4208964"><ele>347.0</ele><time>2026-04-22T15:04:11.1Z</time></trkpt><trkpt lat="43.0834737" lon="11.4208518"><ele>347.0</ele><time>2026-04-22T15:04:12.097Z</time></trkpt><trkpt lat="43.0833602" lon="11.4208176"><ele>347.0</ele><time>2026-04-22T15:04:13.099Z</time></trkpt><trkpt lat="43.0832478" lon="11.4207832"><ele>349.0</ele><time>2026-04-22T15:04:14.102Z</time></trkpt><trkpt lat="43.083134" lon="11.4207519"><ele>351.0</ele><time>2026-04-22T15:04:15.098Z</time></trkpt><trkpt lat="43.0830178" lon="11.4207164"><ele>353.0</ele><time>2026-04-22T15:04:16.103Z</time></trkpt><trkpt lat="43.0828974" lon="11.4206786"><ele>355.0</ele><time>2026-04-22T15:04:17.107Z</time></trkpt><trkpt lat="43.0827773" lon="11.4206352"><ele>355.0</ele><time>2026-04-22T15:04:18.099Z</time></trkpt><trkpt lat="43.082659" lon="11.420594"><ele>355.0</ele><time>2026-04-22T15:04:19.097Z</time></trkpt><trkpt lat="43.0825476" lon="11.4205566"><ele>355.0</ele><time>2026-04-22T15:04:20.102Z</time></trkpt><trkpt lat="43.0824326" lon="11.4205301"><ele>355.0</ele><time>2026-04-22T15:04:21.098Z</time></trkpt><trkpt lat="43.0823174" lon="11.4205085"><ele>354.75</ele><time>2026-04-22T15:04:22.103Z</time></trkpt><trkpt lat="43.0821978" lon="11.420495"><ele>354.5</ele><time>2026-04-22T15:04:23.1Z</time></trkpt><trkpt lat="43.082075" lon="11.4204978"><ele>354.25</ele><time>2026-04-22T15:04:24.104Z</time></trkpt><trkpt lat="43.0819498" lon="11.4205019"><ele>354.0</ele><time>2026-04-22T15:04:25.105Z</time></trkpt><trkpt lat="43.0818298" lon="11.4204887"><ele>355.25</ele><time>2026-04-22T15:04:26.095Z</time></trkpt><trkpt lat="43.0817199" lon="11.4204449"><ele>356.5</ele><time>2026-04-22T15:04:27.1Z</time></trkpt><trkpt lat="43.081617" lon="11.4203672"><ele>357.75</ele><time>2026-04-22T15:04:28.094Z</time></trkpt><trkpt lat="43.0815203" lon="11.4202675"><ele>359.0</ele><time>2026-04-22T15:04:29.094Z</time></trkpt><trkpt lat="43.081431" lon="11.420147"><ele>360.75</ele><time>2026-04-22T15:04:30.105Z</time></trkpt><trkpt lat="43.0813498" lon="11.4200193"><ele>362.5</ele><time>2026-04-22T15:04:31.097Z</time></trkpt><trkpt lat="43.0812773" lon="11.4198873"><ele>364.25</ele><time>2026-04-22T15:04:32.102Z</time></trkpt><trkpt lat="43.0812028" lon="11.419752"><ele>366.0</ele><time>2026-04-22T15:04:33.104Z</time></trkpt><trkpt lat="43.0811176" lon="11.4196227"><ele>366.0</ele><time>2026-04-22T15:04:34.098Z</time></trkpt><trkpt lat="43.0810241" lon="11.4195121"><ele>366.0</ele><time>2026-04-22T15:04:35.109Z</time></trkpt><trkpt lat="43.0809079" lon="11.4194294"><ele>366.0</ele><time>2026-04-22T15:04:36.102Z</time></trkpt><trkpt lat="43.0807748" lon="11.4193734"><ele>366.0</ele><time>2026-04-22T15:04:37.104Z</time></trkpt><trkpt lat="43.0806382" lon="11.4193419"><ele>369.8</ele><time>2026-04-22T15:04:38.103Z</time></trkpt><trkpt lat="43.0805176" lon="11.4193214"><ele>373.6</ele><time>2026-04-22T15:04:39.108Z</time></trkpt><trkpt lat="43.0804098" lon="11.4193044"><ele>377.4</ele><time>2026-04-22T15:04:40.097Z</time></trkpt><trkpt lat="43.080316" lon="11.4192739"><ele>381.2</ele><time>2026-04-22T15:04:41.101Z</time></trkpt><trkpt lat="43.0802392" lon="11.4192102"><ele>385.0</ele><time>2026-04-22T15:04:42.101Z</time></trkpt><trkpt lat="43.0801812" lon="11.4191001"><ele>385.0</ele><time>2026-04-22T15:04:43.098Z</time></trkpt><trkpt lat="43.0801267" lon="11.4189766"><ele>385.0</ele><time>2026-04-22T15:04:44.098Z</time></trkpt><trkpt lat="43.080066" lon="11.4188501"><ele>385.0</ele><time>2026-04-22T15:04:45.104Z</time></trkpt><trkpt lat="43.0799961" lon="11.4187517"><ele>385.0</ele><time>2026-04-22T15:04:46.101Z</time></trkpt><trkpt lat="43.0799153" lon="11.4186636"><ele>385.0</ele><time>2026-04-22T15:04:47.097Z</time></trkpt><trkpt lat="43.0798233" lon="11.4185899"><ele>388.0</ele><time>2026-04-22T15:04:48.097Z</time></trkpt><trkpt lat="43.0797266" lon="11.4185342"><ele>391.0</ele><time>2026-04-22T15:04:49.098Z</time></trkpt><trkpt lat="43.0796169" lon="11.4184839"><ele>394.0</ele><time>2026-04-22T15:04:50.094Z</time></trkpt><trkpt lat="43.0794908" lon="11.4184317"><ele>397.0</ele><time>2026-04-22T15:04:51.099Z</time></trkpt><trkpt lat="43.0793557" lon="11.4183738"><ele>397.0</ele><time>2026-04-22T15:04:52.097Z</time></trkpt><trkpt lat="43.0792323" lon="11.4183041"><ele>397.0</ele><time>2026-04-22T15:04:53.101Z</time></trkpt><trkpt lat="43.0791276" lon="11.4182176"><ele>397.0</ele><time>2026-04-22T15:04:54.098Z</time></trkpt><trkpt lat="43.0790388" lon="11.4181226"><ele>397.0</ele><time>2026-04-22T15:04:55.098Z</time></trkpt><trkpt lat="43.0789584" lon="11.418037"><ele>396.6</ele><time>2026-04-22T15:04:56.101Z</time></trkpt><trkpt lat="43.0788726" lon="11.4179758"><ele>396.20000000000005</ele><time>2026-04-22T15:04:57.096Z</time></trkpt><trkpt lat="43.0787863" lon="11.4179401"><ele>395.8</ele><time>2026-04-22T15:04:58.103Z</time></trkpt><trkpt lat="43.0786977" lon="11.4179237"><ele>395.4</ele><time>2026-04-22T15:04:59.106Z</time></trkpt><trkpt lat="43.0786112" lon="11.4179238"><ele>395.0</ele><time>2026-04-22T15:05:00.098Z</time></trkpt><trkpt lat="43.0785189" lon="11.4179273"><ele>395.0</ele><time>2026-04-22T15:05:01.103Z</time></trkpt><trkpt lat="43.0784194" lon="11.4179323"><ele>395.0</ele><time>2026-04-22T15:05:02.098Z</time></trkpt><trkpt lat="43.0783192" lon="11.4179349"><ele>395.0</ele><time>2026-04-22T15:05:03.095Z</time></trkpt><trkpt lat="43.0782124" lon="11.4179244"><ele>395.0</ele><time>2026-04-22T15:05:04.101Z</time></trkpt><trkpt lat="43.0780963" lon="11.4179035"><ele>395.0</ele><time>2026-04-22T15:05:05.099Z</time></trkpt><trkpt lat="43.0779816" lon="11.4178848"><ele>398.5</ele><time>2026-04-22T15:05:06.097Z</time></trkpt><trkpt lat="43.0778623" lon="11.4178777"><ele>402.0</ele><time>2026-04-22T15:05:07.108Z</time></trkpt><trkpt lat="43.0777396" lon="11.4178823"><ele>405.5</ele><time>2026-04-22T15:05:08.097Z</time></trkpt><trkpt lat="43.0776252" lon="11.4178867"><ele>409.0</ele><time>2026-04-22T15:05:09.096Z</time></trkpt><trkpt lat="43.0775272" lon="11.41788"><ele>413.5</ele><time>2026-04-22T15:05:10.099Z</time></trkpt><trkpt lat="43.0774242" lon="11.4178494"><ele>418.0</ele><time>2026-04-22T15:05:11.103Z</time></trkpt><trkpt lat="43.0773008" lon="11.4177779"><ele>422.5</ele><time>2026-04-22T15:05:12.101Z</time></trkpt><trkpt lat="43.0771704" lon="11.4176855"><ele>427.0</ele><time>2026-04-22T15:05:13.096Z</time></trkpt><trkpt lat="43.0770473" lon="11.4175807"><ele>427.0</ele><time>2026-04-22T15:05:14.098Z</time></trkpt><trkpt lat="43.0769428" lon="11.417473"><ele>427.0</ele><time>2026-04-22T15:05:15.097Z</time></trkpt><trkpt lat="43.0768525" lon="11.417346"><ele>427.0</ele><time>2026-04-22T15:05:16.101Z</time></trkpt><trkpt lat="43.0767919" lon="11.417203"><ele>427.0</ele><time>2026-04-22T15:05:17.095Z</time></trkpt><trkpt lat="43.0767493" lon="11.4170454"><ele>427.6</ele><time>2026-04-22T15:05:18.097Z</time></trkpt><trkpt lat="43.076701" lon="11.4169112"><ele>428.20000000000005</ele><time>2026-04-22T15:05:19.097Z</time></trkpt><trkpt lat="43.0766541" lon="11.4168302"><ele>428.8</ele><time>2026-04-22T15:05:20.107Z</time></trkpt><trkpt lat="43.0765371" lon="11.4167821"><ele>429.4</ele><time>2026-04-22T15:05:22.102Z</time></trkpt><trkpt lat="43.0764589" lon="11.4167665"><ele>430.0</ele><time>2026-04-22T15:05:23.099Z</time></trkpt><trkpt lat="43.0763688" lon="11.4167567"><ele>430.0</ele><time>2026-04-22T15:05:24.097Z</time></trkpt><trkpt lat="43.0762644" lon="11.4167393"><ele>430.0</ele><time>2026-04-22T15:05:25.099Z</time></trkpt><trkpt lat="43.0761409" lon="11.4167094"><ele>430.0</ele><time>2026-04-22T15:05:26.101Z</time></trkpt><trkpt lat="43.0760212" lon="11.4166608"><ele>430.0</ele><time>2026-04-22T15:05:27.092Z</time></trkpt><trkpt lat="43.0758966" lon="11.4165798"><ele>431.33333333333337</ele><time>2026-04-22T15:05:28.103Z</time></trkpt><trkpt lat="43.075761" lon="11.4164742"><ele>432.66666666666663</ele><time>2026-04-22T15:05:29.097Z</time></trkpt><trkpt lat="43.0756202" lon="11.4163553"><ele>434.0</ele><time>2026-04-22T15:05:30.096Z</time></trkpt><trkpt lat="43.0754881" lon="11.4162441"><ele>434.25</ele><time>2026-04-22T15:05:31.102Z</time></trkpt><trkpt lat="43.0753668" lon="11.4161512"><ele>434.5</ele><time>2026-04-22T15:05:32.091Z</time></trkpt><trkpt lat="43.075249" lon="11.4160578"><ele>434.75</ele><time>2026-04-22T15:05:33.09Z</time></trkpt><trkpt lat="43.0751317" lon="11.4159722"><ele>435.0</ele><time>2026-04-22T15:05:34.094Z</time></trkpt><trkpt lat="43.0750149" lon="11.4158956"><ele>436.25</ele><time>2026-04-22T15:05:35.097Z</time></trkpt><trkpt lat="43.0748954" lon="11.4158315"><ele>437.5</ele><time>2026-04-22T15:05:36.097Z</time></trkpt><trkpt lat="43.0747682" lon="11.4157794"><ele>438.75</ele><time>2026-04-22T15:05:37.096Z</time></trkpt><trkpt lat="43.0746412" lon="11.4157381"><ele>440.0</ele><time>2026-04-22T15:05:38.106Z</time></trkpt><trkpt lat="43.0745289" lon="11.4157087"><ele>439.99999999999994</ele><time>2026-04-22T15:05:39.1Z</time></trkpt><trkpt lat="43.0744355" lon="11.4156749"><ele>440.0</ele><time>2026-04-22T15:05:40.1Z</time></trkpt><trkpt lat="43.0743706" lon="11.415616"><ele>440.0</ele><time>2026-04-22T15:05:41.098Z</time></trkpt><trkpt lat="43.0743356" lon="11.4155284"><ele>440.0</ele><time>2026-04-22T15:05:42.093Z</time></trkpt><trkpt lat="43.0743235" lon="11.4154174"><ele>439.99999999999994</ele><time>2026-04-22T15:05:43.099Z</time></trkpt><trkpt lat="43.0743179" lon="11.4152873"><ele>440.0</ele><time>2026-04-22T15:05:44.099Z</time></trkpt><trkpt lat="43.0743067" lon="11.4151533"><ele>442.0</ele><time>2026-04-22T15:05:45.099Z</time></trkpt><trkpt lat="43.0742979" lon="11.4150202"><ele>444.0</ele><time>2026-04-22T15:05:46.097Z</time></trkpt><trkpt lat="43.0742824" lon="11.4148824"><ele>446.0</ele><time>2026-04-22T15:05:47.102Z</time></trkpt><trkpt lat="43.0742558" lon="11.4147444"><ele>448.0</ele><time>2026-04-22T15:05:48.098Z</time></trkpt><trkpt lat="43.0742213" lon="11.4146197"><ele>450.0</ele><time>2026-04-22T15:05:49.109Z</time></trkpt><trkpt lat="43.0741847" lon="11.4145153"><ele>451.1666666666667</ele><time>2026-04-22T15:05:50.097Z</time></trkpt><trkpt lat="43.0741445" lon="11.4144366"><ele>452.33333333333337</ele><time>2026-04-22T15:05:51.102Z</time></trkpt><trkpt lat="43.0740444" lon="11.4143553"><ele>453.5</ele><time>2026-04-22T15:05:53.1Z</time></trkpt><trkpt lat="43.0739812" lon="11.4143395"><ele>454.6666666666667</ele><time>2026-04-22T15:05:54.104Z</time></trkpt><trkpt lat="43.0739159" lon="11.4143352"><ele>455.83333333333337</ele><time>2026-04-22T15:05:55.095Z</time></trkpt><trkpt lat="43.0738341" lon="11.4143395"><ele>457.0</ele><time>2026-04-22T15:05:56.106Z</time></trkpt><trkpt lat="43.0737365" lon="11.4143389"><ele>459.75</ele><time>2026-04-22T15:05:57.101Z</time></trkpt><trkpt lat="43.0736241" lon="11.4143296"><ele>462.5</ele><time>2026-04-22T15:05:58.1Z</time></trkpt><trkpt lat="43.073499" lon="11.4143129"><ele>465.25</ele><time>2026-04-22T15:05:59.103Z</time></trkpt><trkpt lat="43.0733708" lon="11.4142831"><ele>468.0</ele><time>2026-04-22T15:06:00.102Z</time></trkpt><trkpt lat="43.0732449" lon="11.414248"><ele>470.25</ele><time>2026-04-22T15:06:01.102Z</time></trkpt><trkpt lat="43.0731307" lon="11.4142179"><ele>472.5</ele><time>2026-04-22T15:06:02.104Z</time></trkpt><trkpt lat="43.0730207" lon="11.4142062"><ele>474.75</ele><time>2026-04-22T15:06:03.1Z</time></trkpt><trkpt lat="43.0729019" lon="11.4142061"><ele>477.0</ele><time>2026-04-22T15:06:04.101Z</time></trkpt><trkpt lat="43.0727718" lon="11.4142164"><ele>477.0</ele><time>2026-04-22T15:06:05.103Z</time></trkpt><trkpt lat="43.0726455" lon="11.4142183"><ele>477.0</ele><time>2026-04-22T15:06:06.103Z</time></trkpt><trkpt lat="43.0725235" lon="11.4141926"><ele>477.0</ele><time>2026-04-22T15:06:07.104Z</time></trkpt><trkpt lat="43.0724022" lon="11.4141324"><ele>477.0</ele><time>2026-04-22T15:06:08.106Z</time></trkpt><trkpt lat="43.0722801" lon="11.4140523"><ele>476.5</ele><time>2026-04-22T15:06:09.103Z</time></trkpt><trkpt lat="43.0721637" lon="11.4139799"><ele>476.0</ele><time>2026-04-22T15:06:10.098Z</time></trkpt><trkpt lat="43.0720454" lon="11.4139041"><ele>475.5</ele><time>2026-04-22T15:06:11.1Z</time></trkpt><trkpt lat="43.0719203" lon="11.4138321"><ele>475.0</ele><time>2026-04-22T15:06:12.099Z</time></trkpt><trkpt lat="43.0717916" lon="11.4137672"><ele>477.75</ele><time>2026-04-22T15:06:13.097Z</time></trkpt><trkpt lat="43.0716746" lon="11.4136915"><ele>480.5</ele><time>2026-04-22T15:06:14.095Z</time></trkpt><trkpt lat="43.0715769" lon="11.4136093"><ele>483.25</ele><time>2026-04-22T15:06:15.104Z</time></trkpt><trkpt lat="43.071483" lon="11.4135382"><ele>486.0</ele><time>2026-04-22T15:06:16.101Z</time></trkpt><trkpt lat="43.0713784" lon="11.4135003"><ele>486.0</ele><time>2026-04-22T15:06:17.097Z</time></trkpt><trkpt lat="43.0712809" lon="11.413501"><ele>486.0</ele><time>2026-04-22T15:06:18.101Z</time></trkpt><trkpt lat="43.0711772" lon="11.4135297"><ele>486.0</ele><time>2026-04-22T15:06:19.101Z</time></trkpt><trkpt lat="43.0710758" lon="11.4135663"><ele>486.0</ele><time>2026-04-22T15:06:20.102Z</time></trkpt><trkpt lat="43.0709848" lon="11.4135714"><ele>486.0</ele><time>2026-04-22T15:06:21.1Z</time></trkpt><trkpt lat="43.0708933" lon="11.4135394"><ele>486.0</ele><time>2026-04-22T15:06:22.097Z</time></trkpt><trkpt lat="43.0707974" lon="11.4134585"><ele>486.0</ele><time>2026-04-22T15:06:23.103Z</time></trkpt><trkpt lat="43.0706952" lon="11.4133507"><ele>486.0</ele><time>2026-04-22T15:06:24.102Z</time></trkpt><trkpt lat="43.0706018" lon="11.4132106"><ele>486.0</ele><time>2026-04-22T15:06:25.101Z</time></trkpt><trkpt lat="43.070517" lon="11.4130653"><ele>489.20000000000005</ele><time>2026-04-22T15:06:26.102Z</time></trkpt><trkpt lat="43.0704421" lon="11.4129594"><ele>492.40000000000003</ele><time>2026-04-22T15:06:27.101Z</time></trkpt><trkpt lat="43.0703685" lon="11.412893"><ele>495.6</ele><time>2026-04-22T15:06:28.089Z</time></trkpt><trkpt lat="43.0702925" lon="11.4128505"><ele>498.8</ele><time>2026-04-22T15:06:29.094Z</time></trkpt><trkpt lat="43.0701753" lon="11.4128978"><ele>502.0</ele><time>2026-04-22T15:06:31.096Z</time></trkpt><trkpt lat="43.0701318" lon="11.4129638"><ele>500.6</ele><time>2026-04-22T15:06:32.105Z</time></trkpt><trkpt lat="43.0700949" lon="11.4130722"><ele>499.20000000000005</ele><time>2026-04-22T15:06:33.093Z</time></trkpt><trkpt lat="43.0700501" lon="11.4132142"><ele>497.8</ele><time>2026-04-22T15:06:34.1Z</time></trkpt><trkpt lat="43.0700023" lon="11.4133652"><ele>496.4</ele><time>2026-04-22T15:06:35.101Z</time></trkpt><trkpt lat="43.0699627" lon="11.4135161"><ele>495.0</ele><time>2026-04-22T15:06:36.098Z</time></trkpt><trkpt lat="43.0699382" lon="11.4136684"><ele>494.75</ele><time>2026-04-22T15:06:37.1Z</time></trkpt><trkpt lat="43.0699453" lon="11.4138323"><ele>494.5</ele><time>2026-04-22T15:06:38.099Z</time></trkpt><trkpt lat="43.0699658" lon="11.4140269"><ele>494.25</ele><time>2026-04-22T15:06:39.1Z</time></trkpt><trkpt lat="43.0699746" lon="11.4142242"><ele>494.0</ele><time>2026-04-22T15:06:40.097Z</time></trkpt><trkpt lat="43.0699635" lon="11.4144074"><ele>495.25</ele><time>2026-04-22T15:06:41.097Z</time></trkpt><trkpt lat="43.0699317" lon="11.4145723"><ele>496.5</ele><time>2026-04-22T15:06:42.092Z</time></trkpt><trkpt lat="43.0698753" lon="11.4147182"><ele>497.75</ele><time>2026-04-22T15:06:43.096Z</time></trkpt><trkpt lat="43.0698122" lon="11.4148522"><ele>499.0</ele><time>2026-04-22T15:06:44.101Z</time></trkpt><trkpt lat="43.0697284" lon="11.4149696"><ele>499.0</ele><time>2026-04-22T15:06:45.099Z</time></trkpt><trkpt lat="43.0696233" lon="11.4150622"><ele>499.0</ele><time>2026-04-22T15:06:46.102Z</time></trkpt><trkpt lat="43.0695017" lon="11.4151521"><ele>499.0</ele><time>2026-04-22T15:06:47.098Z</time></trkpt><trkpt lat="43.0693509" lon="11.4152386"><ele>499.0</ele><time>2026-04-22T15:06:48.101Z</time></trkpt><trkpt lat="43.0692248" lon="11.4153431"><ele>499.0</ele><time>2026-04-22T15:06:49.106Z</time></trkpt><trkpt lat="43.0691099" lon="11.4154415"><ele>499.0</ele><time>2026-04-22T15:06:50.104Z</time></trkpt><trkpt lat="43.0689979" lon="11.4155067"><ele>499.0</ele><time>2026-04-22T15:06:51.102Z</time></trkpt><trkpt lat="43.0688809" lon="11.4155455"><ele>499.0</ele><time>2026-04-22T15:06:52.102Z</time></trkpt><trkpt lat="43.0687586" lon="11.4155765"><ele>496.25</ele><time>2026-04-22T15:06:53.098Z</time></trkpt><trkpt lat="43.068641" lon="11.41561"><ele>493.5</ele><time>2026-04-22T15:06:54.105Z</time></trkpt><trkpt lat="43.0685354" lon="11.4156705"><ele>490.75</ele><time>2026-04-22T15:06:55.105Z</time></trkpt><trkpt lat="43.0684321" lon="11.4157686"><ele>488.0</ele><time>2026-04-22T15:06:56.103Z</time></trkpt><trkpt lat="43.0683242" lon="11.4158951"><ele>487.75</ele><time>2026-04-22T15:06:57.108Z</time></trkpt><trkpt lat="43.0682078" lon="11.416032"><ele>487.5</ele><time>2026-04-22T15:06:58.093Z</time></trkpt><trkpt lat="43.0680878" lon="11.4161581"><ele>487.25</ele><time>2026-04-22T15:06:59.098Z</time></trkpt><trkpt lat="43.0679712" lon="11.4162618"><ele>487.0</ele><time>2026-04-22T15:07:00.108Z</time></trkpt><trkpt lat="43.0678566" lon="11.4163463"><ele>489.0</ele><time>2026-04-22T15:07:01.101Z</time></trkpt><trkpt lat="43.0677607" lon="11.416416"><ele>491.00000000000006</ele><time>2026-04-22T15:07:02.097Z</time></trkpt><trkpt lat="43.0676867" lon="11.4164812"><ele>493.00000000000006</ele><time>2026-04-22T15:07:03.102Z</time></trkpt><trkpt lat="43.0676469" lon="11.4165629"><ele>495.0</ele><time>2026-04-22T15:07:04.108Z</time></trkpt><trkpt lat="43.0676161" lon="11.4166775"><ele>497.0</ele><time>2026-04-22T15:07:05.098Z</time></trkpt><trkpt lat="43.0675908" lon="11.4168286"><ele>497.0</ele><time>2026-04-22T15:07:06.106Z</time></trkpt><trkpt lat="43.0675601" lon="11.4169977"><ele>497.0</ele><time>2026-04-22T15:07:07.106Z</time></trkpt><trkpt lat="43.0675043" lon="11.417172"><ele>497.0</ele><time>2026-04-22T15:07:08.096Z</time></trkpt><trkpt lat="43.0674097" lon="11.4173409"><ele>497.0</ele><time>2026-04-22T15:07:09.112Z</time></trkpt><trkpt lat="43.0673035" lon="11.4174895"><ele>498.75</ele><time>2026-04-22T15:07:10.104Z</time></trkpt><trkpt lat="43.0671809" lon="11.4175998"><ele>500.5</ele><time>2026-04-22T15:07:11.097Z</time></trkpt><trkpt lat="43.0670672" lon="11.4176663"><ele>502.25</ele><time>2026-04-22T15:07:12.103Z</time></trkpt><trkpt lat="43.066947" lon="11.4177136"><ele>504.0</ele><time>2026-04-22T15:07:13.1Z</time></trkpt><trkpt lat="43.0668522" lon="11.4177604"><ele>504.0</ele><time>2026-04-22T15:07:14.093Z</time></trkpt><trkpt lat="43.0667916" lon="11.4178231"><ele>504.0</ele><time>2026-04-22T15:07:15.104Z</time></trkpt><trkpt lat="43.0667551" lon="11.4179306"><ele>504.0</ele><time>2026-04-22T15:07:16.099Z</time></trkpt><trkpt lat="43.066709" lon="11.4180559"><ele>504.0</ele><time>2026-04-22T15:07:17.097Z</time></trkpt><trkpt lat="43.0666658" lon="11.4182073"><ele>504.0</ele><time>2026-04-22T15:07:18.101Z</time></trkpt><trkpt lat="43.0666213" lon="11.4183773"><ele>500.0</ele><time>2026-04-22T15:07:19.097Z</time></trkpt><trkpt lat="43.0666023" lon="11.418565"><ele>496.0</ele><time>2026-04-22T15:07:20.102Z</time></trkpt><trkpt lat="43.0665799" lon="11.4187569"><ele>492.0</ele><time>2026-04-22T15:07:21.097Z</time></trkpt><trkpt lat="43.0665742" lon="11.4189369"><ele>488.0</ele><time>2026-04-22T15:07:22.108Z</time></trkpt><trkpt lat="43.0665707" lon="11.4191163"><ele>487.25</ele><time>2026-04-22T15:07:23.106Z</time></trkpt><trkpt lat="43.0665753" lon="11.41931"><ele>486.5</ele><time>2026-04-22T15:07:24.107Z</time></trkpt><trkpt lat="43.0665885" lon="11.419493"><ele>485.75</ele><time>2026-04-22T15:07:25.103Z</time></trkpt><trkpt lat="43.0665936" lon="11.4196575"><ele>485.0</ele><time>2026-04-22T15:07:26.097Z</time></trkpt><trkpt lat="43.0665786" lon="11.4198131"><ele>485.0</ele><time>2026-04-22T15:07:27.102Z</time></trkpt><trkpt lat="43.0665421" lon="11.419957"><ele>485.0</ele><time>2026-04-22T15:07:28.1Z</time></trkpt><trkpt lat="43.0664891" lon="11.420105"><ele>485.0</ele><time>2026-04-22T15:07:29.106Z</time></trkpt><trkpt lat="43.066402" lon="11.420265"><ele>485.0</ele><time>2026-04-22T15:07:30.099Z</time></trkpt><trkpt lat="43.0662962" lon="11.4204528"><ele>487.3333333333333</ele><time>2026-04-22T15:07:31.103Z</time></trkpt><trkpt lat="43.0661781" lon="11.4206783"><ele>489.66666666666663</ele><time>2026-04-22T15:07:32.102Z</time></trkpt><trkpt lat="43.0660465" lon="11.4209154"><ele>492.0</ele><time>2026-04-22T15:07:33.096Z</time></trkpt><trkpt lat="43.0659141" lon="11.4211365"><ele>493.66666666666663</ele><time>2026-04-22T15:07:34.095Z</time></trkpt><trkpt lat="43.0657905" lon="11.4213397"><ele>495.3333333333333</ele><time>2026-04-22T15:07:35.098Z</time></trkpt><trkpt lat="43.0656826" lon="11.4215309"><ele>497.0</ele><time>2026-04-22T15:07:36.098Z</time></trkpt><trkpt lat="43.0655906" lon="11.4216963"><ele>494.25</ele><time>2026-04-22T15:07:37.101Z</time></trkpt><trkpt lat="43.0655056" lon="11.4218278"><ele>491.5</ele><time>2026-04-22T15:07:38.098Z</time></trkpt><trkpt lat="43.0654212" lon="11.4219311"><ele>488.75</ele><time>2026-04-22T15:07:39.102Z</time></trkpt><trkpt lat="43.065329" lon="11.4220263"><ele>486.0</ele><time>2026-04-22T15:07:40.097Z</time></trkpt><trkpt lat="43.0652257" lon="11.4221136"><ele>486.0</ele><time>2026-04-22T15:07:41.097Z</time></trkpt><trkpt lat="43.0651165" lon="11.4221669"><ele>486.0</ele><time>2026-04-22T15:07:42.096Z</time></trkpt><trkpt lat="43.0650029" lon="11.4222078"><ele>486.0</ele><time>2026-04-22T15:07:43.104Z</time></trkpt><trkpt lat="43.0648678" lon="11.4222265"><ele>486.0</ele><time>2026-04-22T15:07:44.097Z</time></trkpt><trkpt lat="43.0647224" lon="11.4222364"><ele>486.0</ele><time>2026-04-22T15:07:45.097Z</time></trkpt><trkpt lat="43.0645843" lon="11.4222286"><ele>486.0</ele><time>2026-04-22T15:07:46.101Z</time></trkpt><trkpt lat="43.0644493" lon="11.4221927"><ele>486.0</ele><time>2026-04-22T15:07:47.101Z</time></trkpt><trkpt lat="43.0643165" lon="11.4221371"><ele>486.0</ele><time>2026-04-22T15:07:48.103Z</time></trkpt><trkpt lat="43.0641957" lon="11.422077"><ele>483.20000000000005</ele><time>2026-04-22T15:07:49.106Z</time></trkpt><trkpt lat="43.0640866" lon="11.4220026"><ele>480.40000000000003</ele><time>2026-04-22T15:07:50.097Z</time></trkpt><trkpt lat="43.0639918" lon="11.4219501"><ele>477.6</ele><time>2026-04-22T15:07:51.094Z</time></trkpt><trkpt lat="43.0638905" lon="11.4219253"><ele>474.8</ele><time>2026-04-22T15:07:52.103Z</time></trkpt><trkpt lat="43.0637827" lon="11.4219314"><ele>472.0</ele><time>2026-04-22T15:07:53.095Z</time></trkpt><trkpt lat="43.0636769" lon="11.4219446"><ele>472.0</ele><time>2026-04-22T15:07:54.098Z</time></trkpt><trkpt lat="43.0635923" lon="11.4219626"><ele>472.00000000000006</ele><time>2026-04-22T15:07:55.095Z</time></trkpt><trkpt lat="43.0634977" lon="11.4220203"><ele>472.00000000000006</ele><time>2026-04-22T15:07:57.095Z</time></trkpt><trkpt lat="43.0634628" lon="11.4221345"><ele>472.0</ele><time>2026-04-22T15:07:59.102Z</time></trkpt><trkpt lat="43.0634867" lon="11.4223205"><ele>472.0</ele><time>2026-04-22T15:08:01.102Z</time></trkpt><trkpt lat="43.063517" lon="11.4224595"><ele>472.0</ele><time>2026-04-22T15:08:02.1Z</time></trkpt><trkpt lat="43.063542" lon="11.4226147"><ele>472.0</ele><time>2026-04-22T15:08:03.102Z</time></trkpt><trkpt lat="43.0635431" lon="11.4227725"><ele>472.0</ele><time>2026-04-22T15:08:04.097Z</time></trkpt><trkpt lat="43.0635236" lon="11.4229406"><ele>472.0</ele><time>2026-04-22T15:08:05.099Z</time></trkpt><trkpt lat="43.0634772" lon="11.4231125"><ele>471.40000000000003</ele><time>2026-04-22T15:08:06.107Z</time></trkpt><trkpt lat="43.0634014" lon="11.4232629"><ele>470.80000000000007</ele><time>2026-04-22T15:08:07.1Z</time></trkpt><trkpt lat="43.0633449" lon="11.4233952"><ele>470.2</ele><time>2026-04-22T15:08:08.105Z</time></trkpt><trkpt lat="43.0633181" lon="11.4235116"><ele>469.6</ele><time>2026-04-22T15:08:09.104Z</time></trkpt><trkpt lat="43.0633157" lon="11.4236079"><ele>469.0</ele><time>2026-04-22T15:08:10.1Z</time></trkpt><trkpt lat="43.0633389" lon="11.4237037"><ele>469.00000000000006</ele><time>2026-04-22T15:08:11.101Z</time></trkpt><trkpt lat="43.0633626" lon="11.4238132"><ele>469.0</ele><time>2026-04-22T15:08:12.101Z</time></trkpt><trkpt lat="43.0633784" lon="11.4239263"><ele>469.0</ele><time>2026-04-22T15:08:13.104Z</time></trkpt><trkpt lat="43.0633798" lon="11.4240377"><ele>469.0</ele><time>2026-04-22T15:08:14.104Z</time></trkpt><trkpt lat="43.0633635" lon="11.4241522"><ele>469.00000000000006</ele><time>2026-04-22T15:08:15.095Z</time></trkpt><trkpt lat="43.0633311" lon="11.4242896"><ele>469.0</ele><time>2026-04-22T15:08:16.101Z</time></trkpt><trkpt lat="43.0632859" lon="11.4244578"><ele>467.25</ele><time>2026-04-22T15:08:17.097Z</time></trkpt><trkpt lat="43.0632417" lon="11.4246541"><ele>465.5</ele><time>2026-04-22T15:08:18.105Z</time></trkpt><trkpt lat="43.0631985" lon="11.4248472"><ele>463.75</ele><time>2026-04-22T15:08:19.098Z</time></trkpt><trkpt lat="43.0631588" lon="11.4250254"><ele>462.0</ele><time>2026-04-22T15:08:20.112Z</time></trkpt><trkpt lat="43.0630959" lon="11.4251977"><ele>462.0</ele><time>2026-04-22T15:08:21.104Z</time></trkpt><trkpt lat="43.0630045" lon="11.4253588"><ele>462.0</ele><time>2026-04-22T15:08:22.104Z</time></trkpt><trkpt lat="43.0629132" lon="11.4255046"><ele>462.0</ele><time>2026-04-22T15:08:23.102Z</time></trkpt><trkpt lat="43.062839" lon="11.4256284"><ele>462.0</ele><time>2026-04-22T15:08:24.103Z</time></trkpt><trkpt lat="43.0627921" lon="11.4257493"><ele>463.0</ele><time>2026-04-22T15:08:25.106Z</time></trkpt><trkpt lat="43.062775" lon="11.4258812"><ele>464.0</ele><time>2026-04-22T15:08:26.094Z</time></trkpt><trkpt lat="43.0627756" lon="11.4260393"><ele>465.0</ele><time>2026-04-22T15:08:27.1Z</time></trkpt><trkpt lat="43.0627911" lon="11.4262425"><ele>466.0</ele><time>2026-04-22T15:08:28.098Z</time></trkpt><trkpt lat="43.0628133" lon="11.4264711"><ele>467.0</ele><time>2026-04-22T15:08:29.103Z</time></trkpt><trkpt lat="43.0628356" lon="11.4266805"><ele>468.0</ele><time>2026-04-22T15:08:30.103Z</time></trkpt><trkpt lat="43.0628498" lon="11.4268603"><ele>469.0</ele><time>2026-04-22T15:08:31.098Z</time></trkpt><trkpt lat="43.0628527" lon="11.42701"><ele>470.0</ele><time>2026-04-22T15:08:32.094Z</time></trkpt><trkpt lat="43.0628341" lon="11.4271345"><ele>469.0</ele><time>2026-04-22T15:08:33.096Z</time></trkpt><trkpt lat="43.0627752" lon="11.4272373"><ele>468.0</ele><time>2026-04-22T15:08:34.095Z</time></trkpt><trkpt lat="43.062684" lon="11.4273244"><ele>467.0</ele><time>2026-04-22T15:08:35.103Z</time></trkpt><trkpt lat="43.0625798" lon="11.4274024"><ele>466.0</ele><time>2026-04-22T15:08:36.099Z</time></trkpt><trkpt lat="43.0624562" lon="11.4274493"><ele>467.0</ele><time>2026-04-22T15:08:37.105Z</time></trkpt><trkpt lat="43.0623306" lon="11.4275057"><ele>468.0</ele><time>2026-04-22T15:08:38.105Z</time></trkpt><trkpt lat="43.0622056" lon="11.427557"><ele>469.0</ele><time>2026-04-22T15:08:39.111Z</time></trkpt><trkpt lat="43.0620768" lon="11.4275847"><ele>470.0</ele><time>2026-04-22T15:08:40.108Z</time></trkpt><trkpt lat="43.0619634" lon="11.4275893"><ele>470.0</ele><time>2026-04-22T15:08:41.107Z</time></trkpt><trkpt lat="43.0618491" lon="11.4275623"><ele>470.0</ele><time>2026-04-22T15:08:42.112Z</time></trkpt><trkpt lat="43.0617343" lon="11.4274984"><ele>470.0</ele><time>2026-04-22T15:08:43.104Z</time></trkpt><trkpt lat="43.0616319" lon="11.4274133"><ele>470.0</ele><time>2026-04-22T15:08:44.098Z</time></trkpt><trkpt lat="43.0615341" lon="11.4273468"><ele>470.25</ele><time>2026-04-22T15:08:45.1Z</time></trkpt><trkpt lat="43.0614286" lon="11.4273185"><ele>470.5</ele><time>2026-04-22T15:08:46.104Z</time></trkpt><trkpt lat="43.0613217" lon="11.4273242"><ele>470.75</ele><time>2026-04-22T15:08:47.103Z</time></trkpt><trkpt lat="43.0611944" lon="11.427362"><ele>471.0</ele><time>2026-04-22T15:08:48.105Z</time></trkpt><trkpt lat="43.0610692" lon="11.4274145"><ele>471.0</ele><time>2026-04-22T15:08:49.106Z</time></trkpt><trkpt lat="43.0609507" lon="11.4274542"><ele>471.0</ele><time>2026-04-22T15:08:50.109Z</time></trkpt><trkpt lat="43.0608419" lon="11.4274558"><ele>471.0</ele><time>2026-04-22T15:08:51.1Z</time></trkpt><trkpt lat="43.0607378" lon="11.4274133"><ele>471.0</ele><time>2026-04-22T15:08:52.106Z</time></trkpt><trkpt lat="43.060632" lon="11.4273352"><ele>472.6</ele><time>2026-04-22T15:08:53.1Z</time></trkpt><trkpt lat="43.0605355" lon="11.4272466"><ele>474.20000000000005</ele><time>2026-04-22T15:08:54.104Z</time></trkpt><trkpt lat="43.0604579" lon="11.4271913"><ele>475.79999999999995</ele><time>2026-04-22T15:08:55.097Z</time></trkpt><trkpt lat="43.060373" lon="11.4271787"><ele>477.4</ele><time>2026-04-22T15:08:57.102Z</time></trkpt><trkpt lat="43.060316" lon="11.4273256"><ele>479.0</ele><time>2026-04-22T15:08:59.102Z</time></trkpt><trkpt lat="43.0603042" lon="11.4274514"><ele>479.0</ele><time>2026-04-22T15:09:00.098Z</time></trkpt><trkpt lat="43.0602894" lon="11.427586"><ele>479.0</ele><time>2026-04-22T15:09:01.103Z</time></trkpt><trkpt lat="43.0602502" lon="11.4277016"><ele>479.0</ele><time>2026-04-22T15:09:02.099Z</time></trkpt><trkpt lat="43.060178" lon="11.4277901"><ele>479.0</ele><time>2026-04-22T15:09:03.103Z</time></trkpt><trkpt lat="43.0600734" lon="11.4278637"><ele>479.0</ele><time>2026-04-22T15:09:04.098Z</time></trkpt><trkpt lat="43.0599694" lon="11.4279236"><ele>480.0</ele><time>2026-04-22T15:09:05.103Z</time></trkpt><trkpt lat="43.0598824" lon="11.4279292"><ele>481.0</ele><time>2026-04-22T15:09:06.099Z</time></trkpt><trkpt lat="43.0598117" lon="11.4278923"><ele>482.0</ele><time>2026-04-22T15:09:07.093Z</time></trkpt><trkpt lat="43.0597474" lon="11.4278181"><ele>483.0</ele><time>2026-04-22T15:09:08.095Z</time></trkpt><trkpt lat="43.0596763" lon="11.4276944"><ele>484.0</ele><time>2026-04-22T15:09:09.099Z</time></trkpt><trkpt lat="43.0595856" lon="11.4275338"><ele>484.0</ele><time>2026-04-22T15:09:10.094Z</time></trkpt><trkpt lat="43.0595049" lon="11.4273921"><ele>484.0</ele><time>2026-04-22T15:09:11.097Z</time></trkpt><trkpt lat="43.0594246" lon="11.4272855"><ele>484.0</ele><time>2026-04-22T15:09:12.096Z</time></trkpt><trkpt lat="43.0593463" lon="11.4272092"><ele>484.0</ele><time>2026-04-22T15:09:13.097Z</time></trkpt><trkpt lat="43.0592653" lon="11.4271846"><ele>484.0</ele><time>2026-04-22T15:09:14.102Z</time></trkpt><trkpt lat="43.0591835" lon="11.4272009"><ele>486.50000000000006</ele><time>2026-04-22T15:09:15.104Z</time></trkpt><trkpt lat="43.0591073" lon="11.4272541"><ele>489.0</ele><time>2026-04-22T15:09:16.097Z</time></trkpt><trkpt lat="43.059059" lon="11.4273384"><ele>491.5</ele><time>2026-04-22T15:09:17.101Z</time></trkpt><trkpt lat="43.0590373" lon="11.4274375"><ele>494.0</ele><time>2026-04-22T15:09:18.097Z</time></trkpt><trkpt lat="43.0590458" lon="11.427548"><ele>496.50000000000006</ele><time>2026-04-22T15:09:19.096Z</time></trkpt><trkpt lat="43.0590651" lon="11.4276555"><ele>499.0</ele><time>2026-04-22T15:09:20.096Z</time></trkpt><trkpt lat="43.0590996" lon="11.4277803"><ele>496.0</ele><time>2026-04-22T15:09:21.102Z</time></trkpt><trkpt lat="43.0591594" lon="11.4279352"><ele>493.0</ele><time>2026-04-22T15:09:22.102Z</time></trkpt><trkpt lat="43.0592012" lon="11.4281"><ele>490.0</ele><time>2026-04-22T15:09:23.1Z</time></trkpt><trkpt lat="43.0592225" lon="11.4282437"><ele>487.0</ele><time>2026-04-22T15:09:24.097Z</time></trkpt><trkpt lat="43.0592007" lon="11.4283427"><ele>484.0</ele><time>2026-04-22T15:09:25.101Z</time></trkpt><trkpt lat="43.0591234" lon="11.4283934"><ele>485.75</ele><time>2026-04-22T15:09:26.101Z</time></trkpt><trkpt lat="43.059023" lon="11.4284303"><ele>487.5</ele><time>2026-04-22T15:09:27.101Z</time></trkpt><trkpt lat="43.0589057" lon="11.4284796"><ele>489.25</ele><time>2026-04-22T15:09:28.105Z</time></trkpt><trkpt lat="43.0587984" lon="11.4285535"><ele>491.0</ele><time>2026-04-22T15:09:29.101Z</time></trkpt><trkpt lat="43.0586974" lon="11.4286336"><ele>491.0</ele><time>2026-04-22T15:09:30.099Z</time></trkpt><trkpt lat="43.058616" lon="11.4287705"><ele>491.0</ele><time>2026-04-22T15:09:31.094Z</time></trkpt><trkpt lat="43.0585447" lon="11.4289498"><ele>491.0</ele><time>2026-04-22T15:09:32.096Z</time></trkpt><trkpt lat="43.0584806" lon="11.42916"><ele>491.0</ele><time>2026-04-22T15:09:33.101Z</time></trkpt><trkpt lat="43.0584135" lon="11.4294068"><ele>489.3333333333333</ele><time>2026-04-22T15:09:34.103Z</time></trkpt><trkpt lat="43.0583511" lon="11.4296713"><ele>487.66666666666663</ele><time>2026-04-22T15:09:35.104Z</time></trkpt><trkpt lat="43.0583024" lon="11.4299181"><ele>486.0</ele><time>2026-04-22T15:09:36.104Z</time></trkpt><trkpt lat="43.0582684" lon="11.4300987"><ele>484.8</ele><time>2026-04-22T15:09:37.104Z</time></trkpt><trkpt lat="43.0582495" lon="11.4302369"><ele>483.6</ele><time>2026-04-22T15:09:38.1Z</time></trkpt><trkpt lat="43.0582506" lon="11.4303647"><ele>482.4</ele><time>2026-04-22T15:09:39.104Z</time></trkpt><trkpt lat="43.0582713" lon="11.4304985"><ele>481.2</ele><time>2026-04-22T15:09:40.106Z</time></trkpt><trkpt lat="43.0582794" lon="11.4306364"><ele>480.0</ele><time>2026-04-22T15:09:41.103Z</time></trkpt><trkpt lat="43.0582656" lon="11.4307705"><ele>480.0</ele><time>2026-04-22T15:09:42.098Z</time></trkpt><trkpt lat="43.058224" lon="11.4308981"><ele>480.0</ele><time>2026-04-22T15:09:43.102Z</time></trkpt><trkpt lat="43.0581501" lon="11.4310021"><ele>480.0</ele><time>2026-04-22T15:09:44.099Z</time></trkpt><trkpt lat="43.0580411" lon="11.4310875"><ele>480.0</ele><time>2026-04-22T15:09:45.101Z</time></trkpt><trkpt lat="43.057905" lon="11.4311579"><ele>480.0</ele><time>2026-04-22T15:09:46.108Z</time></trkpt><trkpt lat="43.0577643" lon="11.4312304"><ele>480.0</ele><time>2026-04-22T15:09:47.105Z</time></trkpt><trkpt lat="43.0576366" lon="11.4313082"><ele>480.0</ele><time>2026-04-22T15:09:48.099Z</time></trkpt><trkpt lat="43.0575323" lon="11.4313816"><ele>480.0</ele><time>2026-04-22T15:09:49.104Z</time></trkpt><trkpt lat="43.057439" lon="11.4314714"><ele>482.25</ele><time>2026-04-22T15:09:50.105Z</time></trkpt><trkpt lat="43.0573563" lon="11.4315867"><ele>484.5</ele><time>2026-04-22T15:09:51.104Z</time></trkpt><trkpt lat="43.0572653" lon="11.4317137"><ele>486.75</ele><time>2026-04-22T15:09:52.1Z</time></trkpt><trkpt lat="43.0571715" lon="11.431844"><ele>489.0</ele><time>2026-04-22T15:09:53.103Z</time></trkpt><trkpt lat="43.0570864" lon="11.4319854"><ele>489.0</ele><time>2026-04-22T15:09:54.104Z</time></trkpt><trkpt lat="43.0570095" lon="11.4321329"><ele>489.0</ele><time>2026-04-22T15:09:55.097Z</time></trkpt><trkpt lat="43.0569405" lon="11.4322765"><ele>489.0</ele><time>2026-04-22T15:09:56.106Z</time></trkpt><trkpt lat="43.0568719" lon="11.4324186"><ele>489.0</ele><time>2026-04-22T15:09:57.106Z</time></trkpt><trkpt lat="43.0567928" lon="11.4325612"><ele>489.25</ele><time>2026-04-22T15:09:58.106Z</time></trkpt><trkpt lat="43.0566966" lon="11.4327045"><ele>489.5</ele><time>2026-04-22T15:09:59.107Z</time></trkpt><trkpt lat="43.0565892" lon="11.4328526"><ele>489.75</ele><time>2026-04-22T15:10:00.096Z</time></trkpt><trkpt lat="43.0564882" lon="11.4329857"><ele>490.0</ele><time>2026-04-22T15:10:01.109Z</time></trkpt><trkpt lat="43.0563983" lon="11.4331048"><ele>491.75</ele><time>2026-04-22T15:10:02.099Z</time></trkpt><trkpt lat="43.0562979" lon="11.4332097"><ele>493.5</ele><time>2026-04-22T15:10:03.103Z</time></trkpt><trkpt lat="43.05618" lon="11.4332934"><ele>495.25</ele><time>2026-04-22T15:10:04.105Z</time></trkpt><trkpt lat="43.056033" lon="11.4333584"><ele>497.0</ele><time>2026-04-22T15:10:05.101Z</time></trkpt><trkpt lat="43.0558879" lon="11.4334043"><ele>496.8</ele><time>2026-04-22T15:10:06.109Z</time></trkpt><trkpt lat="43.0557686" lon="11.4334378"><ele>496.6</ele><time>2026-04-22T15:10:07.106Z</time></trkpt><trkpt lat="43.0556699" lon="11.4334708"><ele>496.40000000000003</ele><time>2026-04-22T15:10:08.107Z</time></trkpt><trkpt lat="43.0555917" lon="11.4335092"><ele>496.20000000000005</ele><time>2026-04-22T15:10:09.109Z</time></trkpt><trkpt lat="43.0555167" lon="11.4335557"><ele>496.0</ele><time>2026-04-22T15:10:10.101Z</time></trkpt><trkpt lat="43.055441" lon="11.4336095"><ele>496.0</ele><time>2026-04-22T15:10:11.106Z</time></trkpt><trkpt lat="43.0553559" lon="11.4336616"><ele>496.0</ele><time>2026-04-22T15:10:12.106Z</time></trkpt><trkpt lat="43.0552563" lon="11.4337023"><ele>496.0</ele><time>2026-04-22T15:10:13.098Z</time></trkpt><trkpt lat="43.0551503" lon="11.4337312"><ele>496.0</ele><time>2026-04-22T15:10:14.107Z</time></trkpt><trkpt lat="43.0550404" lon="11.4337622"><ele>496.0</ele><time>2026-04-22T15:10:15.103Z</time></trkpt><trkpt lat="43.0549285" lon="11.4338089"><ele>493.5</ele><time>2026-04-22T15:10:16.105Z</time></trkpt><trkpt lat="43.0548141" lon="11.4338763"><ele>491.0</ele><time>2026-04-22T15:10:17.106Z</time></trkpt><trkpt lat="43.0546989" lon="11.4339563"><ele>488.5</ele><time>2026-04-22T15:10:18.105Z</time></trkpt><trkpt lat="43.0545822" lon="11.4340337"><ele>486.0</ele><time>2026-04-22T15:10:19.108Z</time></trkpt><trkpt lat="43.0544632" lon="11.4341044"><ele>486.0</ele><time>2026-04-22T15:10:20.107Z</time></trkpt><trkpt lat="43.0543418" lon="11.4341697"><ele>486.0</ele><time>2026-04-22T15:10:21.108Z</time></trkpt><trkpt lat="43.0542237" lon="11.4342249"><ele>486.0</ele><time>2026-04-22T15:10:22.106Z</time></trkpt><trkpt lat="43.0541075" lon="11.4342659"><ele>486.0</ele><time>2026-04-22T15:10:23.096Z</time></trkpt><trkpt lat="43.0539924" lon="11.4342957"><ele>485.6</ele><time>2026-04-22T15:10:24.099Z</time></trkpt><trkpt lat="43.0538813" lon="11.4343248"><ele>485.20000000000005</ele><time>2026-04-22T15:10:25.104Z</time></trkpt><trkpt lat="43.0537734" lon="11.4343562"><ele>484.79999999999995</ele><time>2026-04-22T15:10:26.107Z</time></trkpt><trkpt lat="43.0536726" lon="11.4343989"><ele>484.4</ele><time>2026-04-22T15:10:27.103Z</time></trkpt><trkpt lat="43.0535804" lon="11.4344654"><ele>484.0</ele><time>2026-04-22T15:10:28.107Z</time></trkpt><trkpt lat="43.0534986" lon="11.4345504"><ele>482.6</ele><time>2026-04-22T15:10:29.105Z</time></trkpt><trkpt lat="43.0534302" lon="11.434645"><ele>481.2</ele><time>2026-04-22T15:10:30.105Z</time></trkpt><trkpt lat="43.0533749" lon="11.4347489"><ele>479.80000000000007</ele><time>2026-04-22T15:10:31.106Z</time></trkpt><trkpt lat="43.0533289" lon="11.434864"><ele>478.40000000000003</ele><time>2026-04-22T15:10:32.107Z</time></trkpt><trkpt lat="43.0532878" lon="11.4349787"><ele>477.0</ele><time>2026-04-22T15:10:33.097Z</time></trkpt><trkpt lat="43.0532536" lon="11.4350922"><ele>477.0</ele><time>2026-04-22T15:10:34.101Z</time></trkpt><trkpt lat="43.0532189" lon="11.4352076"><ele>477.0</ele><time>2026-04-22T15:10:35.1Z</time></trkpt><trkpt lat="43.0531862" lon="11.4353196"><ele>477.0</ele><time>2026-04-22T15:10:36.101Z</time></trkpt><trkpt lat="43.0531581" lon="11.4354334"><ele>477.0</ele><time>2026-04-22T15:10:37.096Z</time></trkpt><trkpt lat="43.0531324" lon="11.4355438"><ele>477.0</ele><time>2026-04-22T15:10:38.097Z</time></trkpt><trkpt lat="43.0531118" lon="11.4356499"><ele>477.0</ele><time>2026-04-22T15:10:39.113Z</time></trkpt><trkpt lat="43.0530965" lon="11.4357526"><ele>475.71428571428567</ele><time>2026-04-22T15:10:40.101Z</time></trkpt><trkpt lat="43.0530865" lon="11.435848"><ele>474.4285714285714</ele><time>2026-04-22T15:10:41.101Z</time></trkpt><trkpt lat="43.0530755" lon="11.4359426"><ele>473.1428571428571</ele><time>2026-04-22T15:10:42.097Z</time></trkpt><trkpt lat="43.0530599" lon="11.4360404"><ele>471.8571428571429</ele><time>2026-04-22T15:10:43.104Z</time></trkpt><trkpt lat="43.0530443" lon="11.4361364"><ele>470.5714285714286</ele><time>2026-04-22T15:10:44.101Z</time></trkpt><trkpt lat="43.0530253" lon="11.4362283"><ele>469.28571428571433</ele><time>2026-04-22T15:10:45.096Z</time></trkpt><trkpt lat="43.0530005" lon="11.4363258"><ele>468.0</ele><time>2026-04-22T15:10:46.1Z</time></trkpt><trkpt lat="43.0529648" lon="11.4364306"><ele>468.0</ele><time>2026-04-22T15:10:47.096Z</time></trkpt><trkpt lat="43.052916" lon="11.4365333"><ele>467.99999999999994</ele><time>2026-04-22T15:10:48.095Z</time></trkpt><trkpt lat="43.0528489" lon="11.4366343"><ele>467.99999999999994</ele><time>2026-04-22T15:10:49.102Z</time></trkpt><trkpt lat="43.052764" lon="11.4367297"><ele>468.0</ele><time>2026-04-22T15:10:50.105Z</time></trkpt><trkpt lat="43.0526719" lon="11.4368088"><ele>468.0</ele><time>2026-04-22T15:10:51.101Z</time></trkpt><trkpt lat="43.0525807" lon="11.4368549"><ele>468.0</ele><time>2026-04-22T15:10:52.103Z</time></trkpt><trkpt lat="43.0524941" lon="11.4368547"><ele>468.00000000000006</ele><time>2026-04-22T15:10:53.103Z</time></trkpt><trkpt lat="43.0524161" lon="11.4368204"><ele>468.0</ele><time>2026-04-22T15:10:54.113Z</time></trkpt><trkpt lat="43.0523446" lon="11.4367757"><ele>468.0</ele><time>2026-04-22T15:10:55.106Z</time></trkpt><trkpt lat="43.0522768" lon="11.4367419"><ele>468.00000000000006</ele><time>2026-04-22T15:10:56.106Z</time></trkpt><trkpt lat="43.0522117" lon="11.4367319"><ele>468.0</ele><time>2026-04-22T15:10:57.097Z</time></trkpt><trkpt lat="43.0521487" lon="11.4367448"><ele>468.0</ele><time>2026-04-22T15:10:58.1Z</time></trkpt><trkpt lat="43.0520787" lon="11.4367667"><ele>468.1666666666667</ele><time>2026-04-22T15:10:59.104Z</time></trkpt><trkpt lat="43.0520015" lon="11.4367906"><ele>468.33333333333337</ele><time>2026-04-22T15:11:00.104Z</time></trkpt><trkpt lat="43.0519212" lon="11.4368135"><ele>468.5</ele><time>2026-04-22T15:11:01.107Z</time></trkpt><trkpt lat="43.0518336" lon="11.4368379"><ele>468.6666666666667</ele><time>2026-04-22T15:11:02.103Z</time></trkpt><trkpt lat="43.0517404" lon="11.4368694"><ele>468.83333333333337</ele><time>2026-04-22T15:11:03.101Z</time></trkpt><trkpt lat="43.0516504" lon="11.4369048"><ele>469.0</ele><time>2026-04-22T15:11:04.107Z</time></trkpt><trkpt lat="43.0515744" lon="11.4369489"><ele>469.25</ele><time>2026-04-22T15:11:05.11Z</time></trkpt><trkpt lat="43.0515101" lon="11.4370246"><ele>469.5</ele><time>2026-04-22T15:11:06.102Z</time></trkpt><trkpt lat="43.0514473" lon="11.4371371"><ele>469.75</ele><time>2026-04-22T15:11:07.101Z</time></trkpt><trkpt lat="43.0513711" lon="11.4372798"><ele>470.0</ele><time>2026-04-22T15:11:08.103Z</time></trkpt><trkpt lat="43.0512806" lon="11.4374276"><ele>470.0</ele><time>2026-04-22T15:11:09.107Z</time></trkpt><trkpt lat="43.0511569" lon="11.4375654"><ele>470.0</ele><time>2026-04-22T15:11:10.097Z</time></trkpt><trkpt lat="43.0510163" lon="11.4376876"><ele>470.0</ele><time>2026-04-22T15:11:11.107Z</time></trkpt><trkpt lat="43.0508702" lon="11.437782"><ele>471.4</ele><time>2026-04-22T15:11:12.112Z</time></trkpt><trkpt lat="43.0507423" lon="11.4378506"><ele>472.8</ele><time>2026-04-22T15:11:13.099Z</time></trkpt><trkpt lat="43.0506406" lon="11.4379061"><ele>474.20000000000005</ele><time>2026-04-22T15:11:14.108Z</time></trkpt><trkpt lat="43.0505659" lon="11.4379755"><ele>475.6</ele><time>2026-04-22T15:11:15.1Z</time></trkpt><trkpt lat="43.0505039" lon="11.4380553"><ele>477.0</ele><time>2026-04-22T15:11:16.108Z</time></trkpt><trkpt lat="43.0504611" lon="11.4381494"><ele>477.8333333333333</ele><time>2026-04-22T15:11:17.1Z</time></trkpt><trkpt lat="43.0504385" lon="11.4382369"><ele>478.66666666666663</ele><time>2026-04-22T15:11:18.104Z</time></trkpt><trkpt lat="43.0504296" lon="11.4383933"><ele>479.5</ele><time>2026-04-22T15:11:20.099Z</time></trkpt><trkpt lat="43.0504235" lon="11.4384994"><ele>480.3333333333333</ele><time>2026-04-22T15:11:21.097Z</time></trkpt><trkpt lat="43.0504048" lon="11.4386257"><ele>481.16666666666663</ele><time>2026-04-22T15:11:22.102Z</time></trkpt><trkpt lat="43.0503865" lon="11.4387515"><ele>482.0</ele><time>2026-04-22T15:11:23.101Z</time></trkpt><trkpt lat="43.0503889" lon="11.4388773"><ele>483.25</ele><time>2026-04-22T15:11:24.098Z</time></trkpt><trkpt lat="43.0504264" lon="11.4390082"><ele>484.5</ele><time>2026-04-22T15:11:25.093Z</time></trkpt><trkpt lat="43.0504974" lon="11.4391548"><ele>485.75</ele><time>2026-04-22T15:11:26.101Z</time></trkpt><trkpt lat="43.0505897" lon="11.4393175"><ele>487.0</ele><time>2026-04-22T15:11:27.098Z</time></trkpt><trkpt lat="43.0506634" lon="11.4394754"><ele>485.5</ele><time>2026-04-22T15:11:28.102Z</time></trkpt><trkpt lat="43.0507085" lon="11.4396367"><ele>484.0</ele><time>2026-04-22T15:11:29.098Z</time></trkpt><trkpt lat="43.0507219" lon="11.4398199"><ele>482.5</ele><time>2026-04-22T15:11:30.093Z</time></trkpt><trkpt lat="43.0507053" lon="11.4400155"><ele>481.0</ele><time>2026-04-22T15:11:31.096Z</time></trkpt><trkpt lat="43.0506641" lon="11.4402127"><ele>481.0</ele><time>2026-04-22T15:11:32.095Z</time></trkpt><trkpt lat="43.0505893" lon="11.4403862"><ele>481.0</ele><time>2026-04-22T15:11:33.094Z</time></trkpt><trkpt lat="43.0504931" lon="11.4405256"><ele>481.0</ele><time>2026-04-22T15:11:34.098Z</time></trkpt><trkpt lat="43.0503798" lon="11.4406286"><ele>481.0</ele><time>2026-04-22T15:11:35.094Z</time></trkpt><trkpt lat="43.0502555" lon="11.4407098"><ele>478.20000000000005</ele><time>2026-04-22T15:11:36.101Z</time></trkpt><trkpt lat="43.0501513" lon="11.4407983"><ele>475.40000000000003</ele><time>2026-04-22T15:11:37.101Z</time></trkpt><trkpt lat="43.0500729" lon="11.4409035"><ele>472.6</ele><time>2026-04-22T15:11:38.098Z</time></trkpt><trkpt lat="43.0500282" lon="11.4410281"><ele>469.8</ele><time>2026-04-22T15:11:39.107Z</time></trkpt><trkpt lat="43.0500164" lon="11.4411584"><ele>467.0</ele><time>2026-04-22T15:11:40.1Z</time></trkpt><trkpt lat="43.0500214" lon="11.4413082"><ele>464.66666666666663</ele><time>2026-04-22T15:11:41.102Z</time></trkpt><trkpt lat="43.0500368" lon="11.4414963"><ele>462.33333333333337</ele><time>2026-04-22T15:11:42.099Z</time></trkpt><trkpt lat="43.0500581" lon="11.4417235"><ele>460.0</ele><time>2026-04-22T15:11:43.097Z</time></trkpt><trkpt lat="43.0500751" lon="11.441971"><ele>461.33333333333337</ele><time>2026-04-22T15:11:44.102Z</time></trkpt><trkpt lat="43.0500864" lon="11.4422099"><ele>462.66666666666663</ele><time>2026-04-22T15:11:45.108Z</time></trkpt><trkpt lat="43.0501073" lon="11.4424468"><ele>464.0</ele><time>2026-04-22T15:11:46.104Z</time></trkpt><trkpt lat="43.0501217" lon="11.4426815"><ele>464.0</ele><time>2026-04-22T15:11:47.102Z</time></trkpt><trkpt lat="43.050139" lon="11.4429044"><ele>464.0</ele><time>2026-04-22T15:11:48.103Z</time></trkpt><trkpt lat="43.0501553" lon="11.4431128"><ele>464.0</ele><time>2026-04-22T15:11:49.108Z</time></trkpt><trkpt lat="43.0501598" lon="11.4433052"><ele>466.3333333333333</ele><time>2026-04-22T15:11:50.103Z</time></trkpt><trkpt lat="43.050143" lon="11.4434912"><ele>468.66666666666663</ele><time>2026-04-22T15:11:51.109Z</time></trkpt><trkpt lat="43.0501049" lon="11.4436872"><ele>471.0</ele><time>2026-04-22T15:11:52.103Z</time></trkpt><trkpt lat="43.0500524" lon="11.4439024"><ele>470.75</ele><time>2026-04-22T15:11:53.099Z</time></trkpt><trkpt lat="43.0500003" lon="11.4441163"><ele>470.5</ele><time>2026-04-22T15:11:54.101Z</time></trkpt><trkpt lat="43.0499614" lon="11.4443158"><ele>470.25</ele><time>2026-04-22T15:11:55.104Z</time></trkpt><trkpt lat="43.0499338" lon="11.4444929"><ele>470.0</ele><time>2026-04-22T15:11:56.106Z</time></trkpt><trkpt lat="43.0499243" lon="11.4446739"><ele>467.75</ele><time>2026-04-22T15:11:57.102Z</time></trkpt><trkpt lat="43.0499224" lon="11.4448547"><ele>465.5</ele><time>2026-04-22T15:11:58.099Z</time></trkpt><trkpt lat="43.0499239" lon="11.4450277"><ele>463.25</ele><time>2026-04-22T15:11:59.099Z</time></trkpt><trkpt lat="43.0499104" lon="11.4451809"><ele>461.0</ele><time>2026-04-22T15:12:00.105Z</time></trkpt><trkpt lat="43.0498736" lon="11.4453321"><ele>461.0</ele><time>2026-04-22T15:12:01.103Z</time></trkpt><trkpt lat="43.0498154" lon="11.4454866"><ele>461.0</ele><time>2026-04-22T15:12:02.105Z</time></trkpt><trkpt lat="43.049742" lon="11.4456371"><ele>461.0</ele><time>2026-04-22T15:12:03.097Z</time></trkpt><trkpt lat="43.0496772" lon="11.4457892"><ele>461.0</ele><time>2026-04-22T15:12:04.108Z</time></trkpt><trkpt lat="43.0496361" lon="11.4459568"><ele>461.0</ele><time>2026-04-22T15:12:05.103Z</time></trkpt><trkpt lat="43.0496117" lon="11.446127"><ele>461.0</ele><time>2026-04-22T15:12:06.099Z</time></trkpt><trkpt lat="43.0495958" lon="11.4463006"><ele>461.0</ele><time>2026-04-22T15:12:07.104Z</time></trkpt><trkpt lat="43.0495813" lon="11.4464743"><ele>461.0</ele><time>2026-04-22T15:12:08.098Z</time></trkpt><trkpt lat="43.0495716" lon="11.4466658"><ele>462.3333333333333</ele><time>2026-04-22T15:12:09.095Z</time></trkpt><trkpt lat="43.049569" lon="11.4468863"><ele>463.66666666666663</ele><time>2026-04-22T15:12:10.105Z</time></trkpt><trkpt lat="43.0495648" lon="11.4471021"><ele>465.0</ele><time>2026-04-22T15:12:11.098Z</time></trkpt><trkpt lat="43.0495581" lon="11.4472972"><ele>465.2</ele><time>2026-04-22T15:12:12.098Z</time></trkpt><trkpt lat="43.0495513" lon="11.4474815"><ele>465.4</ele><time>2026-04-22T15:12:13.099Z</time></trkpt><trkpt lat="43.0495538" lon="11.4476401"><ele>465.6</ele><time>2026-04-22T15:12:14.098Z</time></trkpt><trkpt lat="43.0495706" lon="11.447774"><ele>465.8</ele><time>2026-04-22T15:12:15.097Z</time></trkpt><trkpt lat="43.049588" lon="11.4478824"><ele>466.0</ele><time>2026-04-22T15:12:16.104Z</time></trkpt><trkpt lat="43.0496193" lon="11.4479777"><ele>466.50000000000006</ele><time>2026-04-22T15:12:17.104Z</time></trkpt><trkpt lat="43.0496507" lon="11.44807"><ele>467.0</ele><time>2026-04-22T15:12:18.093Z</time></trkpt><trkpt lat="43.0496779" lon="11.4481667"><ele>467.5</ele><time>2026-04-22T15:12:19.095Z</time></trkpt><trkpt lat="43.0496795" lon="11.448264"><ele>468.0</ele><time>2026-04-22T15:12:20.1Z</time></trkpt><trkpt lat="43.0496485" lon="11.4483591"><ele>468.50000000000006</ele><time>2026-04-22T15:12:21.095Z</time></trkpt><trkpt lat="43.0495804" lon="11.4484549"><ele>469.0</ele><time>2026-04-22T15:12:22.105Z</time></trkpt><trkpt lat="43.0494839" lon="11.4485584"><ele>469.0</ele><time>2026-04-22T15:12:23.103Z</time></trkpt><trkpt lat="43.0493774" lon="11.4486834"><ele>469.0</ele><time>2026-04-22T15:12:24.105Z</time></trkpt><trkpt lat="43.049268" lon="11.4488359"><ele>469.0</ele><time>2026-04-22T15:12:25.102Z</time></trkpt><trkpt lat="43.0491495" lon="11.4490114"><ele>469.6666666666667</ele><time>2026-04-22T15:12:26.103Z</time></trkpt><trkpt lat="43.0490336" lon="11.4491855"><ele>470.33333333333337</ele><time>2026-04-22T15:12:27.096Z</time></trkpt><trkpt lat="43.0489205" lon="11.4493587"><ele>471.0</ele><time>2026-04-22T15:12:28.104Z</time></trkpt><trkpt lat="43.0488089" lon="11.4495371"><ele>475.33333333333337</ele><time>2026-04-22T15:12:29.104Z</time></trkpt><trkpt lat="43.0487057" lon="11.4497061"><ele>479.6666666666667</ele><time>2026-04-22T15:12:30.099Z</time></trkpt><trkpt lat="43.0486042" lon="11.4498592"><ele>484.0</ele><time>2026-04-22T15:12:31.103Z</time></trkpt><trkpt lat="43.0485061" lon="11.4499997"><ele>484.0</ele><time>2026-04-22T15:12:32.102Z</time></trkpt><trkpt lat="43.0484118" lon="11.4501293"><ele>484.0</ele><time>2026-04-22T15:12:33.102Z</time></trkpt><trkpt lat="43.0483252" lon="11.4502399"><ele>484.0</ele><time>2026-04-22T15:12:34.092Z</time></trkpt><trkpt lat="43.048241" lon="11.4503143"><ele>484.0</ele><time>2026-04-22T15:12:35.102Z</time></trkpt><trkpt lat="43.0481709" lon="11.4503873"><ele>484.0</ele><time>2026-04-22T15:12:36.099Z</time></trkpt><trkpt lat="43.0481149" lon="11.4504832"><ele>483.4</ele><time>2026-04-22T15:12:37.099Z</time></trkpt><trkpt lat="43.0480787" lon="11.4505972"><ele>482.79999999999995</ele><time>2026-04-22T15:12:38.101Z</time></trkpt><trkpt lat="43.0480561" lon="11.450717"><ele>482.20000000000005</ele><time>2026-04-22T15:12:39.098Z</time></trkpt><trkpt lat="43.0480434" lon="11.4508516"><ele>481.6</ele><time>2026-04-22T15:12:40.098Z</time></trkpt><trkpt lat="43.0480233" lon="11.4510069"><ele>481.0</ele><time>2026-04-22T15:12:41.101Z</time></trkpt><trkpt lat="43.048002" lon="11.4511859"><ele>482.0</ele><time>2026-04-22T15:12:42.102Z</time></trkpt><trkpt lat="43.0479717" lon="11.4513692"><ele>483.0</ele><time>2026-04-22T15:12:43.104Z</time></trkpt><trkpt lat="43.0479276" lon="11.4515529"><ele>484.0</ele><time>2026-04-22T15:12:44.101Z</time></trkpt><trkpt lat="43.0478685" lon="11.4517254"><ele>485.0</ele><time>2026-04-22T15:12:45.107Z</time></trkpt><trkpt lat="43.0478052" lon="11.4518881"><ele>485.0</ele><time>2026-04-22T15:12:46.097Z</time></trkpt><trkpt lat="43.0477534" lon="11.452053"><ele>485.0</ele><time>2026-04-22T15:12:47.1Z</time></trkpt><trkpt lat="43.0477188" lon="11.4522233"><ele>485.0</ele><time>2026-04-22T15:12:48.102Z</time></trkpt><trkpt lat="43.047682" lon="11.4524099"><ele>485.0</ele><time>2026-04-22T15:12:49.097Z</time></trkpt><trkpt lat="43.047644" lon="11.4526262"><ele>486.66666666666663</ele><time>2026-04-22T15:12:50.105Z</time></trkpt><trkpt lat="43.0476041" lon="11.4528546"><ele>488.33333333333337</ele><time>2026-04-22T15:12:51.099Z</time></trkpt><trkpt lat="43.0475696" lon="11.4530673"><ele>490.0</ele><time>2026-04-22T15:12:52.104Z</time></trkpt><trkpt lat="43.047542" lon="11.4532653"><ele>490.75</ele><time>2026-04-22T15:12:53.105Z</time></trkpt><trkpt lat="43.0475219" lon="11.4534546"><ele>491.5</ele><time>2026-04-22T15:12:54.103Z</time></trkpt><trkpt lat="43.0474997" lon="11.4536255"><ele>492.25</ele><time>2026-04-22T15:12:55.097Z</time></trkpt><trkpt lat="43.0474695" lon="11.4537611"><ele>493.0</ele><time>2026-04-22T15:12:56.102Z</time></trkpt><trkpt lat="43.0474145" lon="11.4538506"><ele>495.25</ele><time>2026-04-22T15:12:57.101Z</time></trkpt><trkpt lat="43.0473356" lon="11.4539204"><ele>497.5</ele><time>2026-04-22T15:12:58.099Z</time></trkpt><trkpt lat="43.0472313" lon="11.4539865"><ele>499.75</ele><time>2026-04-22T15:12:59.103Z</time></trkpt><trkpt lat="43.0471051" lon="11.45406"><ele>502.0</ele><time>2026-04-22T15:13:00.098Z</time></trkpt><trkpt lat="43.0469515" lon="11.454156"><ele>502.0</ele><time>2026-04-22T15:13:01.101Z</time></trkpt><trkpt lat="43.0467974" lon="11.4542417"><ele>502.0</ele><time>2026-04-22T15:13:02.103Z</time></trkpt><trkpt lat="43.0466576" lon="11.4543271"><ele>502.0</ele><time>2026-04-22T15:13:03.095Z</time></trkpt><trkpt lat="43.0465193" lon="11.4544286"><ele>503.6666666666667</ele><time>2026-04-22T15:13:04.108Z</time></trkpt><trkpt lat="43.0463782" lon="11.454543"><ele>505.33333333333337</ele><time>2026-04-22T15:13:05.102Z</time></trkpt><trkpt lat="43.046246" lon="11.4546582"><ele>507.0</ele><time>2026-04-22T15:13:06.106Z</time></trkpt><trkpt lat="43.04611" lon="11.4547657"><ele>507.0</ele><time>2026-04-22T15:13:07.095Z</time></trkpt><trkpt lat="43.0459624" lon="11.4548686"><ele>507.0</ele><time>2026-04-22T15:13:08.098Z</time></trkpt><trkpt lat="43.0458209" lon="11.4549598"><ele>507.0</ele><time>2026-04-22T15:13:09.096Z</time></trkpt><trkpt lat="43.0456965" lon="11.4550288"><ele>506.75</ele><time>2026-04-22T15:13:10.103Z</time></trkpt><trkpt lat="43.0455888" lon="11.4551004"><ele>506.5</ele><time>2026-04-22T15:13:11.101Z</time></trkpt><trkpt lat="43.0455055" lon="11.4551829"><ele>506.25</ele><time>2026-04-22T15:13:12.1Z</time></trkpt><trkpt lat="43.0454389" lon="11.4552999"><ele>506.0</ele><time>2026-04-22T15:13:13.096Z</time></trkpt><trkpt lat="43.0453789" lon="11.4554493"><ele>505.3333333333333</ele><time>2026-04-22T15:13:14.096Z</time></trkpt><trkpt lat="43.0453064" lon="11.4556289"><ele>504.66666666666663</ele><time>2026-04-22T15:13:15.096Z</time></trkpt><trkpt lat="43.045219" lon="11.4558385"><ele>504.0</ele><time>2026-04-22T15:13:16.1Z</time></trkpt><trkpt lat="43.0451115" lon="11.4560444"><ele>504.0</ele><time>2026-04-22T15:13:17.097Z</time></trkpt><trkpt lat="43.0450047" lon="11.4562339"><ele>504.0</ele><time>2026-04-22T15:13:18.098Z</time></trkpt><trkpt lat="43.044918" lon="11.4564075"><ele>504.0</ele><time>2026-04-22T15:13:19.101Z</time></trkpt><trkpt lat="43.0448475" lon="11.4565693"><ele>503.5</ele><time>2026-04-22T15:13:20.103Z</time></trkpt><trkpt lat="43.0447964" lon="11.4567342"><ele>503.0</ele><time>2026-04-22T15:13:21.109Z</time></trkpt><trkpt lat="43.0447599" lon="11.4569121"><ele>502.5</ele><time>2026-04-22T15:13:22.1Z</time></trkpt><trkpt lat="43.0447345" lon="11.4570979"><ele>502.0</ele><time>2026-04-22T15:13:23.107Z</time></trkpt><trkpt lat="43.0447016" lon="11.4572664"><ele>504.0</ele><time>2026-04-22T15:13:24.094Z</time></trkpt><trkpt lat="43.0446596" lon="11.4574037"><ele>506.0</ele><time>2026-04-22T15:13:25.098Z</time></trkpt><trkpt lat="43.0445978" lon="11.4575171"><ele>508.0</ele><time>2026-04-22T15:13:26.095Z</time></trkpt><trkpt lat="43.0444908" lon="11.4576074"><ele>510.0</ele><time>2026-04-22T15:13:27.098Z</time></trkpt><trkpt lat="43.0443566" lon="11.4576987"><ele>510.0</ele><time>2026-04-22T15:13:28.1Z</time></trkpt><trkpt lat="43.0442289" lon="11.4577996"><ele>510.0</ele><time>2026-04-22T15:13:29.097Z</time></trkpt><trkpt lat="43.0441201" lon="11.4579265"><ele>510.0</ele><time>2026-04-22T15:13:30.104Z</time></trkpt><trkpt lat="43.0440113" lon="11.4580787"><ele>510.0</ele><time>2026-04-22T15:13:31.099Z</time></trkpt><trkpt lat="43.0438961" lon="11.4582598"><ele>509.66666666666663</ele><time>2026-04-22T15:13:32.093Z</time></trkpt><trkpt lat="43.0437733" lon="11.4584752"><ele>509.3333333333333</ele><time>2026-04-22T15:13:33.097Z</time></trkpt><trkpt lat="43.0436431" lon="11.458691"><ele>509.0</ele><time>2026-04-22T15:13:34.098Z</time></trkpt><trkpt lat="43.0435185" lon="11.4588889"><ele>509.0</ele><time>2026-04-22T15:13:35.097Z</time></trkpt><trkpt lat="43.0434027" lon="11.4590506"><ele>509.0</ele><time>2026-04-22T15:13:36.103Z</time></trkpt><trkpt lat="43.0432792" lon="11.4591743"><ele>509.0</ele><time>2026-04-22T15:13:37.103Z</time></trkpt><trkpt lat="43.0431583" lon="11.4592705"><ele>508.6</ele><time>2026-04-22T15:13:38.102Z</time></trkpt><trkpt lat="43.043049" lon="11.4593358"><ele>508.2</ele><time>2026-04-22T15:13:39.099Z</time></trkpt><trkpt lat="43.0429569" lon="11.4593921"><ele>507.80000000000007</ele><time>2026-04-22T15:13:40.099Z</time></trkpt><trkpt lat="43.0428875" lon="11.4594358"><ele>507.40000000000003</ele><time>2026-04-22T15:13:41.098Z</time></trkpt><trkpt lat="43.0428388" lon="11.4595171"><ele>507.0</ele><time>2026-04-22T15:13:42.099Z</time></trkpt><trkpt lat="43.0427947" lon="11.45966"><ele>508.0</ele><time>2026-04-22T15:13:43.1Z</time></trkpt><trkpt lat="43.0427574" lon="11.4598345"><ele>509.0</ele><time>2026-04-22T15:13:44.096Z</time></trkpt><trkpt lat="43.0427275" lon="11.4599906"><ele>510.0</ele><time>2026-04-22T15:13:45.103Z</time></trkpt><trkpt lat="43.0427148" lon="11.4601335"><ele>511.0</ele><time>2026-04-22T15:13:46.096Z</time></trkpt><trkpt lat="43.042725" lon="11.4602618"><ele>511.0</ele><time>2026-04-22T15:13:47.104Z</time></trkpt><trkpt lat="43.0427515" lon="11.4603742"><ele>511.0</ele><time>2026-04-22T15:13:48.098Z</time></trkpt><trkpt lat="43.0428055" lon="11.4604961"><ele>511.0</ele><time>2026-04-22T15:13:49.095Z</time></trkpt><trkpt lat="43.0428801" lon="11.4606414"><ele>511.0</ele><time>2026-04-22T15:13:50.095Z</time></trkpt><trkpt lat="43.0429747" lon="11.4608157"><ele>510.6666666666667</ele><time>2026-04-22T15:13:51.093Z</time></trkpt><trkpt lat="43.0430735" lon="11.4610217"><ele>510.33333333333337</ele><time>2026-04-22T15:13:52.097Z</time></trkpt><trkpt lat="43.0431773" lon="11.4612586"><ele>510.0</ele><time>2026-04-22T15:13:53.102Z</time></trkpt><trkpt lat="43.0432758" lon="11.4615086"><ele>507.0</ele><time>2026-04-22T15:13:54.097Z</time></trkpt><trkpt lat="43.0433711" lon="11.4617494"><ele>504.0</ele><time>2026-04-22T15:13:55.095Z</time></trkpt><trkpt lat="43.04346" lon="11.4619748"><ele>501.0</ele><time>2026-04-22T15:13:56.101Z</time></trkpt><trkpt lat="43.0435364" lon="11.4621773"><ele>501.0</ele><time>2026-04-22T15:13:57.102Z</time></trkpt><trkpt lat="43.0435966" lon="11.4623549"><ele>501.0</ele><time>2026-04-22T15:13:58.103Z</time></trkpt><trkpt lat="43.0436407" lon="11.4625179"><ele>501.0</ele><time>2026-04-22T15:13:59.103Z</time></trkpt><trkpt lat="43.0436539" lon="11.4626599"><ele>501.0</ele><time>2026-04-22T15:14:00.093Z</time></trkpt><trkpt lat="43.0436423" lon="11.4627818"><ele>501.0</ele><time>2026-04-22T15:14:01.1Z</time></trkpt><trkpt lat="43.0435977" lon="11.4628792"><ele>501.0</ele><time>2026-04-22T15:14:02.101Z</time></trkpt><trkpt lat="43.0435324" lon="11.4629751"><ele>501.0</ele><time>2026-04-22T15:14:03.099Z</time></trkpt><trkpt lat="43.0434452" lon="11.4630781"><ele>501.0</ele><time>2026-04-22T15:14:04.097Z</time></trkpt><trkpt lat="43.0433497" lon="11.463204"><ele>501.0</ele><time>2026-04-22T15:14:05.097Z</time></trkpt><trkpt lat="43.0432594" lon="11.463342"><ele>500.6</ele><time>2026-04-22T15:14:06.104Z</time></trkpt><trkpt lat="43.0432016" lon="11.4634726"><ele>500.20000000000005</ele><time>2026-04-22T15:14:07.097Z</time></trkpt><trkpt lat="43.0431651" lon="11.4636047"><ele>499.79999999999995</ele><time>2026-04-22T15:14:08.105Z</time></trkpt><trkpt lat="43.043145" lon="11.4637514"><ele>499.4</ele><time>2026-04-22T15:14:09.094Z</time></trkpt><trkpt lat="43.0431237" lon="11.4639186"><ele>499.0</ele><time>2026-04-22T15:14:10.102Z</time></trkpt><trkpt lat="43.0431018" lon="11.4641172"><ele>499.0</ele><time>2026-04-22T15:14:11.099Z</time></trkpt><trkpt lat="43.0430779" lon="11.4643343"><ele>499.0</ele><time>2026-04-22T15:14:12.102Z</time></trkpt><trkpt lat="43.0430389" lon="11.4645478"><ele>499.0</ele><time>2026-04-22T15:14:13.102Z</time></trkpt><trkpt lat="43.0429933" lon="11.4647475"><ele>500.33333333333337</ele><time>2026-04-22T15:14:14.106Z</time></trkpt><trkpt lat="43.0429415" lon="11.4649347"><ele>501.66666666666663</ele><time>2026-04-22T15:14:15.102Z</time></trkpt><trkpt lat="43.0428748" lon="11.4651241"><ele>503.0</ele><time>2026-04-22T15:14:16.103Z</time></trkpt><trkpt lat="43.0428004" lon="11.4653037"><ele>502.75</ele><time>2026-04-22T15:14:17.096Z</time></trkpt><trkpt lat="43.0427314" lon="11.4654716"><ele>502.5</ele><time>2026-04-22T15:14:18.101Z</time></trkpt><trkpt lat="43.0426828" lon="11.4656398"><ele>502.25</ele><time>2026-04-22T15:14:19.105Z</time></trkpt><trkpt lat="43.042655" lon="11.4658292"><ele>502.0</ele><time>2026-04-22T15:14:20.099Z</time></trkpt><trkpt lat="43.0426412" lon="11.4660501"><ele>501.6666666666667</ele><time>2026-04-22T15:14:21.103Z</time></trkpt><trkpt lat="43.0426319" lon="11.4663015"><ele>501.33333333333337</ele><time>2026-04-22T15:14:22.105Z</time></trkpt><trkpt lat="43.0426259" lon="11.4665598"><ele>501.0</ele><time>2026-04-22T15:14:23.101Z</time></trkpt><trkpt lat="43.042622" lon="11.4667979"><ele>501.0</ele><time>2026-04-22T15:14:24.105Z</time></trkpt><trkpt lat="43.0426126" lon="11.4669959"><ele>501.0</ele><time>2026-04-22T15:14:25.103Z</time></trkpt><trkpt lat="43.042595" lon="11.4671464"><ele>501.0</ele><time>2026-04-22T15:14:26.099Z</time></trkpt><trkpt lat="43.0425674" lon="11.4672748"><ele>501.0</ele><time>2026-04-22T15:14:27.103Z</time></trkpt><trkpt lat="43.0425163" lon="11.4674274"><ele>501.66666666666663</ele><time>2026-04-22T15:14:28.101Z</time></trkpt><trkpt lat="43.0424514" lon="11.4676143"><ele>502.3333333333333</ele><time>2026-04-22T15:14:29.1Z</time></trkpt><trkpt lat="43.0423752" lon="11.4678295"><ele>503.0</ele><time>2026-04-22T15:14:30.096Z</time></trkpt><trkpt lat="43.0423033" lon="11.4680612"><ele>503.66666666666663</ele><time>2026-04-22T15:14:31.101Z</time></trkpt><trkpt lat="43.0422437" lon="11.4682895"><ele>504.33333333333337</ele><time>2026-04-22T15:14:32.103Z</time></trkpt><trkpt lat="43.0421925" lon="11.4685125"><ele>505.0</ele><time>2026-04-22T15:14:33.095Z</time></trkpt><trkpt lat="43.0421416" lon="11.4687251"><ele>505.25</ele><time>2026-04-22T15:14:34.101Z</time></trkpt><trkpt lat="43.0420907" lon="11.4689294"><ele>505.5</ele><time>2026-04-22T15:14:35.103Z</time></trkpt><trkpt lat="43.0420197" lon="11.4691104"><ele>505.75</ele><time>2026-04-22T15:14:36.106Z</time></trkpt><trkpt lat="43.0419224" lon="11.4692446"><ele>506.0</ele><time>2026-04-22T15:14:37.105Z</time></trkpt><trkpt lat="43.0417965" lon="11.4693324"><ele>506.0</ele><time>2026-04-22T15:14:38.095Z</time></trkpt><trkpt lat="43.0416428" lon="11.4694032"><ele>506.0</ele><time>2026-04-22T15:14:39.101Z</time></trkpt><trkpt lat="43.0414667" lon="11.4694729"><ele>506.0</ele><time>2026-04-22T15:14:40.104Z</time></trkpt><trkpt lat="43.0412837" lon="11.4695606"><ele>509.3333333333333</ele><time>2026-04-22T15:14:41.096Z</time></trkpt><trkpt lat="43.0411179" lon="11.4696835"><ele>512.6666666666666</ele><time>2026-04-22T15:14:42.094Z</time></trkpt><trkpt lat="43.0409612" lon="11.4698298"><ele>516.0</ele><time>2026-04-22T15:14:43.101Z</time></trkpt><trkpt lat="43.0408213" lon="11.4699878"><ele>517.6666666666666</ele><time>2026-04-22T15:14:44.096Z</time></trkpt><trkpt lat="43.0406976" lon="11.470155"><ele>519.3333333333333</ele><time>2026-04-22T15:14:45.104Z</time></trkpt><trkpt lat="43.0405899" lon="11.4703256"><ele>521.0</ele><time>2026-04-22T15:14:46.103Z</time></trkpt><trkpt lat="43.0404928" lon="11.4704966"><ele>522.75</ele><time>2026-04-22T15:14:47.103Z</time></trkpt><trkpt lat="43.0403945" lon="11.4706497"><ele>524.5</ele><time>2026-04-22T15:14:48.1Z</time></trkpt><trkpt lat="43.040289" lon="11.4707575"><ele>526.25</ele><time>2026-04-22T15:14:49.094Z</time></trkpt><trkpt lat="43.0401675" lon="11.4708023"><ele>528.0</ele><time>2026-04-22T15:14:50.096Z</time></trkpt><trkpt lat="43.0400467" lon="11.470803"><ele>528.8</ele><time>2026-04-22T15:14:51.099Z</time></trkpt><trkpt lat="43.0399396" lon="11.4707935"><ele>529.5999999999999</ele><time>2026-04-22T15:14:52.103Z</time></trkpt><trkpt lat="43.0398435" lon="11.4708078"><ele>530.4000000000001</ele><time>2026-04-22T15:14:53.101Z</time></trkpt><trkpt lat="43.0397464" lon="11.470861"><ele>531.2</ele><time>2026-04-22T15:14:54.095Z</time></trkpt><trkpt lat="43.0396273" lon="11.4709335"><ele>532.0</ele><time>2026-04-22T15:14:55.102Z</time></trkpt><trkpt lat="43.0394922" lon="11.4710179"><ele>532.0</ele><time>2026-04-22T15:14:56.1Z</time></trkpt><trkpt lat="43.0393492" lon="11.4711114"><ele>532.0</ele><time>2026-04-22T15:14:57.1Z</time></trkpt><trkpt lat="43.0392056" lon="11.4712181"><ele>532.0</ele><time>2026-04-22T15:14:58.097Z</time></trkpt><trkpt lat="43.039066" lon="11.4713442"><ele>532.3333333333334</ele><time>2026-04-22T15:14:59.095Z</time></trkpt><trkpt lat="43.0389358" lon="11.4715026"><ele>532.6666666666666</ele><time>2026-04-22T15:15:00.1Z</time></trkpt><trkpt lat="43.0388221" lon="11.4716948"><ele>533.0</ele><time>2026-04-22T15:15:01.098Z</time></trkpt><trkpt lat="43.0387364" lon="11.4719159"><ele>538.0</ele><time>2026-04-22T15:15:02.097Z</time></trkpt><trkpt lat="43.0386887" lon="11.4721705"><ele>543.0</ele><time>2026-04-22T15:15:03.093Z</time></trkpt><trkpt lat="43.0386827" lon="11.4724473"><ele>548.0</ele><time>2026-04-22T15:15:04.108Z</time></trkpt><trkpt lat="43.0387042" lon="11.4727327"><ele>552.0</ele><time>2026-04-22T15:15:05.103Z</time></trkpt><trkpt lat="43.0387457" lon="11.4730145"><ele>556.0</ele><time>2026-04-22T15:15:06.104Z</time></trkpt><trkpt lat="43.0387792" lon="11.4732671"><ele>560.0</ele><time>2026-04-22T15:15:07.094Z</time></trkpt><trkpt lat="43.0387801" lon="11.4734878"><ele>560.0</ele><time>2026-04-22T15:15:08.099Z</time></trkpt><trkpt lat="43.0387196" lon="11.4736766"><ele>560.0</ele><time>2026-04-22T15:15:09.093Z</time></trkpt><trkpt lat="43.0385891" lon="11.473831"><ele>560.0</ele><time>2026-04-22T15:15:10.096Z</time></trkpt><trkpt lat="43.0384284" lon="11.4739557"><ele>563.0</ele><time>2026-04-22T15:15:11.098Z</time></trkpt><trkpt lat="43.0382496" lon="11.474059"><ele>566.0</ele><time>2026-04-22T15:15:12.103Z</time></trkpt><trkpt lat="43.0380584" lon="11.4741545"><ele>569.0</ele><time>2026-04-22T15:15:13.107Z</time></trkpt><trkpt lat="43.037893" lon="11.4742573"><ele>569.0</ele><time>2026-04-22T15:15:14.1Z</time></trkpt><trkpt lat="43.0377764" lon="11.4743875"><ele>569.0</ele><time>2026-04-22T15:15:15.097Z</time></trkpt><trkpt lat="43.0377171" lon="11.4745862"><ele>569.0</ele><time>2026-04-22T15:15:16.096Z</time></trkpt><trkpt lat="43.0377009" lon="11.4747959"><ele>573.0</ele><time>2026-04-22T15:15:17.104Z</time></trkpt><trkpt lat="43.0377177" lon="11.4750267"><ele>577.0</ele><time>2026-04-22T15:15:18.096Z</time></trkpt><trkpt lat="43.0377363" lon="11.4752631"><ele>581.0</ele><time>2026-04-22T15:15:19.107Z</time></trkpt><trkpt lat="43.0377507" lon="11.4754996"><ele>583.6666666666666</ele><time>2026-04-22T15:15:20.099Z</time></trkpt><trkpt lat="43.0377566" lon="11.4757222"><ele>586.3333333333334</ele><time>2026-04-22T15:15:21.096Z</time></trkpt><trkpt lat="43.0377662" lon="11.4759403"><ele>589.0</ele><time>2026-04-22T15:15:22.097Z</time></trkpt><trkpt lat="43.0377741" lon="11.4761537"><ele>590.0</ele><time>2026-04-22T15:15:23.094Z</time></trkpt><trkpt lat="43.0377823" lon="11.4763634"><ele>591.0</ele><time>2026-04-22T15:15:24.106Z</time></trkpt><trkpt lat="43.0377877" lon="11.4765734"><ele>592.0</ele><time>2026-04-22T15:15:25.102Z</time></trkpt><trkpt lat="43.0377916" lon="11.4767843"><ele>592.0</ele><time>2026-04-22T15:15:26.101Z</time></trkpt><trkpt lat="43.0378005" lon="11.4769945"><ele>592.0</ele><time>2026-04-22T15:15:27.102Z</time></trkpt><trkpt lat="43.037811" lon="11.4772035"><ele>592.0</ele><time>2026-04-22T15:15:28.103Z</time></trkpt><trkpt lat="43.0378145" lon="11.4774116"><ele>594.0</ele><time>2026-04-22T15:15:29.103Z</time></trkpt><trkpt lat="43.0377994" lon="11.4776157"><ele>596.0</ele><time>2026-04-22T15:15:30.096Z</time></trkpt><trkpt lat="43.0377692" lon="11.4778181"><ele>598.0</ele><time>2026-04-22T15:15:31.095Z</time></trkpt><trkpt lat="43.0377298" lon="11.4780227"><ele>598.0</ele><time>2026-04-22T15:15:32.103Z</time></trkpt><trkpt lat="43.0376867" lon="11.47823"><ele>598.0</ele><time>2026-04-22T15:15:33.097Z</time></trkpt><trkpt lat="43.0376306" lon="11.4784331"><ele>598.0</ele><time>2026-04-22T15:15:34.099Z</time></trkpt><trkpt lat="43.0375537" lon="11.4786271"><ele>598.3333333333334</ele><time>2026-04-22T15:15:35.097Z</time></trkpt><trkpt lat="43.0374536" lon="11.4788027"><ele>598.6666666666666</ele><time>2026-04-22T15:15:36.095Z</time></trkpt><trkpt lat="43.0373432" lon="11.4789636"><ele>599.0</ele><time>2026-04-22T15:15:37.095Z</time></trkpt><trkpt lat="43.0372336" lon="11.4791053"><ele>599.0</ele><time>2026-04-22T15:15:38.097Z</time></trkpt><trkpt lat="43.0371367" lon="11.4792353"><ele>599.0</ele><time>2026-04-22T15:15:39.101Z</time></trkpt><trkpt lat="43.0370576" lon="11.4793557"><ele>599.0</ele><time>2026-04-22T15:15:40.092Z</time></trkpt><trkpt lat="43.0369875" lon="11.4794623"><ele>599.0</ele><time>2026-04-22T15:15:41.096Z</time></trkpt><trkpt lat="43.036928" lon="11.4795549"><ele>599.0</ele><time>2026-04-22T15:15:42.096Z</time></trkpt><trkpt lat="43.0368871" lon="11.4796286"><ele>599.3333333333333</ele><time>2026-04-22T15:15:43.097Z</time></trkpt><trkpt lat="43.0368558" lon="11.4797118"><ele>599.6666666666666</ele><time>2026-04-22T15:15:47.1Z</time></trkpt><trkpt lat="43.0368796" lon="11.4797942"><ele>600.0</ele><time>2026-04-22T15:15:49.1Z</time></trkpt><trkpt lat="43.0369273" lon="11.4798606"><ele>600.3333333333334</ele><time>2026-04-22T15:15:50.108Z</time></trkpt><trkpt lat="43.0370079" lon="11.4799313"><ele>600.6666666666667</ele><time>2026-04-22T15:15:51.099Z</time></trkpt><trkpt lat="43.0371339" lon="11.4800149"><ele>601.0</ele><time>2026-04-22T15:15:52.095Z</time></trkpt><trkpt lat="43.0372746" lon="11.4801124"><ele>601.0</ele><time>2026-04-22T15:15:53.097Z</time></trkpt><trkpt lat="43.037427" lon="11.4802402"><ele>601.0</ele><time>2026-04-22T15:15:54.096Z</time></trkpt><trkpt lat="43.0375807" lon="11.4803921"><ele>601.0</ele><time>2026-04-22T15:15:55.104Z</time></trkpt><trkpt lat="43.0377425" lon="11.4805495"><ele>598.0</ele><time>2026-04-22T15:15:56.099Z</time></trkpt><trkpt lat="43.0379098" lon="11.4807086"><ele>595.0</ele><time>2026-04-22T15:15:57.099Z</time></trkpt><trkpt lat="43.038079" lon="11.4808628"><ele>592.0</ele><time>2026-04-22T15:15:58.095Z</time></trkpt><trkpt lat="43.0382477" lon="11.4810118"><ele>591.3333333333334</ele><time>2026-04-22T15:15:59.104Z</time></trkpt><trkpt lat="43.0384164" lon="11.4811588"><ele>590.6666666666666</ele><time>2026-04-22T15:16:00.1Z</time></trkpt><trkpt lat="43.0385844" lon="11.4813025"><ele>590.0</ele><time>2026-04-22T15:16:01.101Z</time></trkpt><trkpt lat="43.0387538" lon="11.4814484"><ele>589.6666666666666</ele><time>2026-04-22T15:16:02.099Z</time></trkpt><trkpt lat="43.0389202" lon="11.4815923"><ele>589.3333333333334</ele><time>2026-04-22T15:16:03.103Z</time></trkpt><trkpt lat="43.0390851" lon="11.4817359"><ele>589.0</ele><time>2026-04-22T15:16:04.097Z</time></trkpt><trkpt lat="43.0392499" lon="11.4818818"><ele>591.3333333333334</ele><time>2026-04-22T15:16:05.102Z</time></trkpt><trkpt lat="43.0394178" lon="11.4820322"><ele>593.6666666666666</ele><time>2026-04-22T15:16:06.096Z</time></trkpt><trkpt lat="43.0395816" lon="11.4821789"><ele>596.0</ele><time>2026-04-22T15:16:07.1Z</time></trkpt><trkpt lat="43.0397403" lon="11.4823176"><ele>599.0</ele><time>2026-04-22T15:16:08.1Z</time></trkpt><trkpt lat="43.0398975" lon="11.4824575"><ele>602.0</ele><time>2026-04-22T15:16:09.106Z</time></trkpt><trkpt lat="43.0400587" lon="11.482592"><ele>605.0</ele><time>2026-04-22T15:16:10.096Z</time></trkpt><trkpt lat="43.0402257" lon="11.4827146"><ele>606.6666666666666</ele><time>2026-04-22T15:16:11.103Z</time></trkpt><trkpt lat="43.0404053" lon="11.4828173"><ele>608.3333333333334</ele><time>2026-04-22T15:16:12.102Z</time></trkpt><trkpt lat="43.0406016" lon="11.4829023"><ele>610.0</ele><time>2026-04-22T15:16:13.101Z</time></trkpt><trkpt lat="43.0408111" lon="11.4829663"><ele>612.6666666666667</ele><time>2026-04-22T15:16:14.102Z</time></trkpt><trkpt lat="43.0410301" lon="11.4830203"><ele>615.3333333333334</ele><time>2026-04-22T15:16:15.105Z</time></trkpt><trkpt lat="43.0412522" lon="11.4830768"><ele>618.0</ele><time>2026-04-22T15:16:16.096Z</time></trkpt><trkpt lat="43.0414647" lon="11.4831316"><ele>616.0</ele><time>2026-04-22T15:16:17.1Z</time></trkpt><trkpt lat="43.0416663" lon="11.4831881"><ele>614.0</ele><time>2026-04-22T15:16:18.101Z</time></trkpt><trkpt lat="43.0418541" lon="11.4832415"><ele>612.0</ele><time>2026-04-22T15:16:19.104Z</time></trkpt><trkpt lat="43.0420324" lon="11.4832916"><ele>612.0</ele><time>2026-04-22T15:16:20.102Z</time></trkpt><trkpt lat="43.0422011" lon="11.4833432"><ele>612.0</ele><time>2026-04-22T15:16:21.103Z</time></trkpt><trkpt lat="43.0423694" lon="11.4833926"><ele>612.0</ele><time>2026-04-22T15:16:22.101Z</time></trkpt><trkpt lat="43.0425365" lon="11.4834413"><ele>612.3333333333334</ele><time>2026-04-22T15:16:23.101Z</time></trkpt><trkpt lat="43.0427065" lon="11.4834931"><ele>612.6666666666667</ele><time>2026-04-22T15:16:24.104Z</time></trkpt><trkpt lat="43.0428767" lon="11.4835455"><ele>613.0</ele><time>2026-04-22T15:16:25.095Z</time></trkpt><trkpt lat="43.0430486" lon="11.4835986"><ele>613.0</ele><time>2026-04-22T15:16:26.097Z</time></trkpt><trkpt lat="43.0432231" lon="11.4836506"><ele>613.0</ele><time>2026-04-22T15:16:27.097Z</time></trkpt><trkpt lat="43.0433939" lon="11.4837086"><ele>613.0</ele><time>2026-04-22T15:16:28.1Z</time></trkpt><trkpt lat="43.0435618" lon="11.4837809"><ele>612.3333333333334</ele><time>2026-04-22T15:16:29.098Z</time></trkpt><trkpt lat="43.0437201" lon="11.4838774"><ele>611.6666666666666</ele><time>2026-04-22T15:16:30.104Z</time></trkpt><trkpt lat="43.0438734" lon="11.484002"><ele>611.0</ele><time>2026-04-22T15:16:31.105Z</time></trkpt><trkpt lat="43.0440218" lon="11.4841558"><ele>611.0</ele><time>2026-04-22T15:16:32.103Z</time></trkpt><trkpt lat="43.0441631" lon="11.4843106"><ele>611.0</ele><time>2026-04-22T15:16:33.106Z</time></trkpt><trkpt lat="43.044293" lon="11.4844683"><ele>611.0</ele><time>2026-04-22T15:16:34.098Z</time></trkpt><trkpt lat="43.0444101" lon="11.4846341"><ele>611.3333333333333</ele><time>2026-04-22T15:16:35.099Z</time></trkpt><trkpt lat="43.0445041" lon="11.4848095"><ele>611.6666666666666</ele><time>2026-04-22T15:16:36.1Z</time></trkpt><trkpt lat="43.0445753" lon="11.4850101"><ele>612.0</ele><time>2026-04-22T15:16:37.103Z</time></trkpt><trkpt lat="43.0446364" lon="11.4852314"><ele>612.6666666666666</ele><time>2026-04-22T15:16:38.104Z</time></trkpt><trkpt lat="43.0446907" lon="11.485454"><ele>613.3333333333333</ele><time>2026-04-22T15:16:39.103Z</time></trkpt><trkpt lat="43.0447488" lon="11.4856822"><ele>614.0</ele><time>2026-04-22T15:16:40.102Z</time></trkpt><trkpt lat="43.0448154" lon="11.4859231"><ele>614.0</ele><time>2026-04-22T15:16:41.103Z</time></trkpt><trkpt lat="43.0448886" lon="11.4861663"><ele>614.0</ele><time>2026-04-22T15:16:42.101Z</time></trkpt><trkpt lat="43.0449591" lon="11.4863962"><ele>614.0</ele><time>2026-04-22T15:16:43.096Z</time></trkpt><trkpt lat="43.0450268" lon="11.4866117"><ele>614.3333333333333</ele><time>2026-04-22T15:16:44.103Z</time></trkpt><trkpt lat="43.0450989" lon="11.4868097"><ele>614.6666666666666</ele><time>2026-04-22T15:16:45.104Z</time></trkpt><trkpt lat="43.0451979" lon="11.4869835"><ele>615.0</ele><time>2026-04-22T15:16:46.104Z</time></trkpt><trkpt lat="43.045326" lon="11.4870898"><ele>614.3333333333334</ele><time>2026-04-22T15:16:47.105Z</time></trkpt><trkpt lat="43.045479" lon="11.4871243"><ele>613.6666666666667</ele><time>2026-04-22T15:16:48.105Z</time></trkpt><trkpt lat="43.0456586" lon="11.4871227"><ele>613.0</ele><time>2026-04-22T15:16:49.096Z</time></trkpt><trkpt lat="43.0458357" lon="11.4871442"><ele>613.0</ele><time>2026-04-22T15:16:50.104Z</time></trkpt><trkpt lat="43.0459977" lon="11.4872258"><ele>613.0</ele><time>2026-04-22T15:16:51.098Z</time></trkpt><trkpt lat="43.0461266" lon="11.4873606"><ele>613.0</ele><time>2026-04-22T15:16:52.1Z</time></trkpt><trkpt lat="43.046232" lon="11.4875594"><ele>613.0</ele><time>2026-04-22T15:16:53.098Z</time></trkpt><trkpt lat="43.0462933" lon="11.4878247"><ele>613.0</ele><time>2026-04-22T15:16:54.105Z</time></trkpt><trkpt lat="43.046329" lon="11.4881128"><ele>613.0</ele><time>2026-04-22T15:16:55.098Z</time></trkpt><trkpt lat="43.0463615" lon="11.4883969"><ele>609.3333333333334</ele><time>2026-04-22T15:16:56.106Z</time></trkpt><trkpt lat="43.0464007" lon="11.4886632"><ele>605.6666666666666</ele><time>2026-04-22T15:16:57.1Z</time></trkpt><trkpt lat="43.0464434" lon="11.4888959"><ele>602.0</ele><time>2026-04-22T15:16:58.103Z</time></trkpt><trkpt lat="43.0464919" lon="11.4891029"><ele>599.3333333333333</ele><time>2026-04-22T15:16:59.099Z</time></trkpt><trkpt lat="43.0465659" lon="11.4892977"><ele>596.6666666666666</ele><time>2026-04-22T15:17:00.105Z</time></trkpt><trkpt lat="43.0466714" lon="11.4894576"><ele>594.0</ele><time>2026-04-22T15:17:01.099Z</time></trkpt><trkpt lat="43.0468102" lon="11.4895687"><ele>595.0</ele><time>2026-04-22T15:17:02.106Z</time></trkpt><trkpt lat="43.0469764" lon="11.489628"><ele>596.0</ele><time>2026-04-22T15:17:03.106Z</time></trkpt><trkpt lat="43.0471603" lon="11.4896516"><ele>597.0</ele><time>2026-04-22T15:17:04.103Z</time></trkpt><trkpt lat="43.0473468" lon="11.4896637"><ele>599.0</ele><time>2026-04-22T15:17:05.104Z</time></trkpt><trkpt lat="43.0475196" lon="11.4897275"><ele>601.0</ele><time>2026-04-22T15:17:06.099Z</time></trkpt><trkpt lat="43.0476648" lon="11.4898548"><ele>603.0</ele><time>2026-04-22T15:17:07.097Z</time></trkpt><trkpt lat="43.0477887" lon="11.4899876"><ele>603.0</ele><time>2026-04-22T15:17:08.105Z</time></trkpt><trkpt lat="43.047928" lon="11.4900969"><ele>603.0</ele><time>2026-04-22T15:17:09.098Z</time></trkpt><trkpt lat="43.0480758" lon="11.4901654"><ele>603.0</ele><time>2026-04-22T15:17:10.106Z</time></trkpt><trkpt lat="43.0482422" lon="11.4901353"><ele>603.0</ele><time>2026-04-22T15:17:11.102Z</time></trkpt><trkpt lat="43.048417" lon="11.4900788"><ele>603.0</ele><time>2026-04-22T15:17:12.103Z</time></trkpt><trkpt lat="43.04858" lon="11.4900446"><ele>603.0</ele><time>2026-04-22T15:17:13.105Z</time></trkpt><trkpt lat="43.0487274" lon="11.4900332"><ele>603.0</ele><time>2026-04-22T15:17:14.106Z</time></trkpt><trkpt lat="43.0488601" lon="11.4900583"><ele>603.0</ele><time>2026-04-22T15:17:15.107Z</time></trkpt><trkpt lat="43.0489712" lon="11.4901744"><ele>603.0</ele><time>2026-04-22T15:17:16.104Z</time></trkpt><trkpt lat="43.0490209" lon="11.4904446"><ele>600.3333333333334</ele><time>2026-04-22T15:17:17.103Z</time></trkpt><trkpt lat="43.04907" lon="11.4906819"><ele>597.6666666666667</ele><time>2026-04-22T15:17:18.099Z</time></trkpt><trkpt lat="43.0491268" lon="11.4909066"><ele>595.0</ele><time>2026-04-22T15:17:19.104Z</time></trkpt><trkpt lat="43.0492119" lon="11.49108"><ele>595.0</ele><time>2026-04-22T15:17:20.092Z</time></trkpt><trkpt lat="43.0493222" lon="11.4911909"><ele>595.0</ele><time>2026-04-22T15:17:21.097Z</time></trkpt><trkpt lat="43.0494509" lon="11.4911819"><ele>595.0</ele><time>2026-04-22T15:17:22.101Z</time></trkpt><trkpt lat="43.0495878" lon="11.4911274"><ele>595.0</ele><time>2026-04-22T15:17:23.094Z</time></trkpt><trkpt lat="43.0497145" lon="11.4910866"><ele>595.0</ele><time>2026-04-22T15:17:24.103Z</time></trkpt><trkpt lat="43.0498453" lon="11.4910771"><ele>595.0</ele><time>2026-04-22T15:17:25.093Z</time></trkpt><trkpt lat="43.0499693" lon="11.4910853"><ele>595.0</ele><time>2026-04-22T15:17:26.104Z</time></trkpt><trkpt lat="43.0500819" lon="11.491085"><ele>595.0</ele><time>2026-04-22T15:17:27.094Z</time></trkpt><trkpt lat="43.0501865" lon="11.4910441"><ele>595.5</ele><time>2026-04-22T15:17:28.1Z</time></trkpt><trkpt lat="43.050273" lon="11.4909575"><ele>596.0</ele><time>2026-04-22T15:17:29.098Z</time></trkpt><trkpt lat="43.0503551" lon="11.4908456"><ele>596.5</ele><time>2026-04-22T15:17:30.104Z</time></trkpt><trkpt lat="43.050421" lon="11.4907043"><ele>597.0</ele><time>2026-04-22T15:17:31.099Z</time></trkpt><trkpt lat="43.0504807" lon="11.4905554"><ele>600.5</ele><time>2026-04-22T15:17:32.092Z</time></trkpt><trkpt lat="43.0505378" lon="11.49041"><ele>604.0</ele><time>2026-04-22T15:17:33.102Z</time></trkpt><trkpt lat="43.0505944" lon="11.4902615"><ele>607.5</ele><time>2026-04-22T15:17:34.103Z</time></trkpt><trkpt lat="43.0506605" lon="11.4901111"><ele>611.0</ele><time>2026-04-22T15:17:35.1Z</time></trkpt><trkpt lat="43.0507245" lon="11.4899491"><ele>611.0</ele><time>2026-04-22T15:17:36.102Z</time></trkpt><trkpt lat="43.0507873" lon="11.4897972"><ele>611.0</ele><time>2026-04-22T15:17:37.095Z</time></trkpt><trkpt lat="43.050848" lon="11.4896619"><ele>611.0</ele><time>2026-04-22T15:17:38.104Z</time></trkpt><trkpt lat="43.0509203" lon="11.489555"><ele>611.0</ele><time>2026-04-22T15:17:39.095Z</time></trkpt><trkpt lat="43.0510064" lon="11.4894886"><ele>611.0</ele><time>2026-04-22T15:17:40.098Z</time></trkpt><trkpt lat="43.0511208" lon="11.4894831"><ele>608.75</ele><time>2026-04-22T15:17:41.099Z</time></trkpt><trkpt lat="43.0512407" lon="11.4895552"><ele>606.5</ele><time>2026-04-22T15:17:42.095Z</time></trkpt><trkpt lat="43.0513337" lon="11.4896814"><ele>604.25</ele><time>2026-04-22T15:17:43.099Z</time></trkpt><trkpt lat="43.0514154" lon="11.489872"><ele>602.0</ele><time>2026-04-22T15:17:44.104Z</time></trkpt><trkpt lat="43.0514868" lon="11.4900817"><ele>597.6666666666666</ele><time>2026-04-22T15:17:45.095Z</time></trkpt><trkpt lat="43.0515651" lon="11.4902821"><ele>593.3333333333334</ele><time>2026-04-22T15:17:46.101Z</time></trkpt><trkpt lat="43.0516466" lon="11.4904647"><ele>589.0</ele><time>2026-04-22T15:17:47.101Z</time></trkpt><trkpt lat="43.0517518" lon="11.4906434"><ele>583.6666666666667</ele><time>2026-04-22T15:17:48.101Z</time></trkpt><trkpt lat="43.0518738" lon="11.4907891"><ele>578.3333333333334</ele><time>2026-04-22T15:17:49.1Z</time></trkpt><trkpt lat="43.0520003" lon="11.4908915"><ele>573.0</ele><time>2026-04-22T15:17:50.103Z</time></trkpt><trkpt lat="43.0521378" lon="11.4909707"><ele>573.0</ele><time>2026-04-22T15:17:51.099Z</time></trkpt><trkpt lat="43.0522857" lon="11.4910135"><ele>573.0</ele><time>2026-04-22T15:17:52.097Z</time></trkpt><trkpt lat="43.0524381" lon="11.4910063"><ele>573.0</ele><time>2026-04-22T15:17:53.107Z</time></trkpt><trkpt lat="43.0525874" lon="11.4909299"><ele>574.3333333333334</ele><time>2026-04-22T15:17:54.095Z</time></trkpt><trkpt lat="43.0527333" lon="11.4908363"><ele>575.6666666666667</ele><time>2026-04-22T15:17:55.096Z</time></trkpt><trkpt lat="43.0528679" lon="11.4907411"><ele>577.0</ele><time>2026-04-22T15:17:56.104Z</time></trkpt><trkpt lat="43.0529885" lon="11.4906279"><ele>577.0</ele><time>2026-04-22T15:17:57.092Z</time></trkpt><trkpt lat="43.0530877" lon="11.4904962"><ele>577.0</ele><time>2026-04-22T15:17:58.1Z</time></trkpt><trkpt lat="43.0531601" lon="11.4903355"><ele>577.0</ele><time>2026-04-22T15:17:59.097Z</time></trkpt><trkpt lat="43.0532067" lon="11.4901669"><ele>577.0</ele><time>2026-04-22T15:18:00.1Z</time></trkpt><trkpt lat="43.0532379" lon="11.4899695"><ele>575.0</ele><time>2026-04-22T15:18:01.094Z</time></trkpt><trkpt lat="43.0532676" lon="11.4897799"><ele>573.0</ele><time>2026-04-22T15:18:02.104Z</time></trkpt><trkpt lat="43.053298" lon="11.4895887"><ele>571.0</ele><time>2026-04-22T15:18:03.1Z</time></trkpt><trkpt lat="43.053332" lon="11.4894062"><ele>569.0</ele><time>2026-04-22T15:18:04.1Z</time></trkpt><trkpt lat="43.0533667" lon="11.4892296"><ele>569.0</ele><time>2026-04-22T15:18:05.1Z</time></trkpt><trkpt lat="43.0534167" lon="11.4890689"><ele>569.0</ele><time>2026-04-22T15:18:06.098Z</time></trkpt><trkpt lat="43.0534955" lon="11.4889492"><ele>569.0</ele><time>2026-04-22T15:18:07.097Z</time></trkpt><trkpt lat="43.0535986" lon="11.4888593"><ele>569.0</ele><time>2026-04-22T15:18:08.096Z</time></trkpt><trkpt lat="43.0537213" lon="11.4888013"><ele>569.0</ele><time>2026-04-22T15:18:09.098Z</time></trkpt><trkpt lat="43.0538504" lon="11.4887643"><ele>569.0</ele><time>2026-04-22T15:18:10.097Z</time></trkpt><trkpt lat="43.0539753" lon="11.4887367"><ele>569.0</ele><time>2026-04-22T15:18:11.099Z</time></trkpt><trkpt lat="43.0540881" lon="11.4887111"><ele>569.0</ele><time>2026-04-22T15:18:12.094Z</time></trkpt><trkpt lat="43.0541899" lon="11.4886843"><ele>568.3333333333333</ele><time>2026-04-22T15:18:13.092Z</time></trkpt><trkpt lat="43.0542802" lon="11.4886664"><ele>567.6666666666666</ele><time>2026-04-22T15:18:14.103Z</time></trkpt><trkpt lat="43.0543465" lon="11.4886523"><ele>567.0</ele><time>2026-04-22T15:18:15.097Z</time></trkpt><trkpt lat="43.0544479" lon="11.4886561"><ele>566.3333333333334</ele><time>2026-04-22T15:18:17.095Z</time></trkpt><trkpt lat="43.0545355" lon="11.4886773"><ele>565.6666666666667</ele><time>2026-04-22T15:18:19.097Z</time></trkpt><trkpt lat="43.0546043" lon="11.4887067"><ele>565.0</ele><time>2026-04-22T15:18:21.095Z</time></trkpt><trkpt lat="43.0546933" lon="11.4887468"><ele>563.3333333333334</ele><time>2026-04-22T15:18:24.106Z</time></trkpt><trkpt lat="43.0547637" lon="11.4887917"><ele>561.6666666666667</ele><time>2026-04-22T15:18:26.098Z</time></trkpt><trkpt lat="43.0548536" lon="11.4888703"><ele>560.0</ele><time>2026-04-22T15:18:28.098Z</time></trkpt><trkpt lat="43.0549323" lon="11.4889397"><ele>558.3333333333334</ele><time>2026-04-22T15:18:30.099Z</time></trkpt><trkpt lat="43.0549782" lon="11.4889995"><ele>556.6666666666666</ele><time>2026-04-22T15:18:32.096Z</time></trkpt><trkpt lat="43.0550183" lon="11.4891007"><ele>555.0</ele><time>2026-04-22T15:18:34.105Z</time></trkpt><trkpt lat="43.0549866" lon="11.4891985"><ele>555.0</ele><time>2026-04-22T15:18:37.101Z</time></trkpt><trkpt lat="43.054846" lon="11.4892116"><ele>555.0</ele><time>2026-04-22T15:18:39.099Z</time></trkpt><trkpt lat="43.0547601" lon="11.489227"><ele>555.0</ele><time>2026-04-22T15:18:40.099Z</time></trkpt><trkpt lat="43.054648" lon="11.4892498"><ele>555.0</ele><time>2026-04-22T15:18:41.102Z</time></trkpt><trkpt lat="43.0545246" lon="11.489273"><ele>555.0</ele><time>2026-04-22T15:18:42.1Z</time></trkpt><trkpt lat="43.0544092" lon="11.489296"><ele>555.0</ele><time>2026-04-22T15:18:43.095Z</time></trkpt><trkpt lat="43.0543027" lon="11.4893305"><ele>555.0</ele><time>2026-04-22T15:18:44.097Z</time></trkpt><trkpt lat="43.0542136" lon="11.4893953"><ele>555.0</ele><time>2026-04-22T15:18:45.097Z</time></trkpt><trkpt lat="43.0541502" lon="11.4895018"><ele>555.0</ele><time>2026-04-22T15:18:46.1Z</time></trkpt><trkpt lat="43.0541264" lon="11.4896361"><ele>553.2</ele><time>2026-04-22T15:18:47.102Z</time></trkpt><trkpt lat="43.0541365" lon="11.4897812"><ele>551.4</ele><time>2026-04-22T15:18:48.096Z</time></trkpt><trkpt lat="43.0541732" lon="11.4899288"><ele>549.6</ele><time>2026-04-22T15:18:49.093Z</time></trkpt><trkpt lat="43.0542394" lon="11.4900515"><ele>547.8</ele><time>2026-04-22T15:18:50.101Z</time></trkpt><trkpt lat="43.0543219" lon="11.4901481"><ele>546.0</ele><time>2026-04-22T15:18:51.097Z</time></trkpt><trkpt lat="43.0544124" lon="11.4902273"><ele>546.0</ele><time>2026-04-22T15:18:52.095Z</time></trkpt><trkpt lat="43.0545056" lon="11.4903035"><ele>546.0</ele><time>2026-04-22T15:18:53.103Z</time></trkpt><trkpt lat="43.0545958" lon="11.4903841"><ele>546.0</ele><time>2026-04-22T15:18:54.099Z</time></trkpt><trkpt lat="43.0546804" lon="11.4904802"><ele>546.0</ele><time>2026-04-22T15:18:55.098Z</time></trkpt><trkpt lat="43.0547584" lon="11.4905884"><ele>546.0</ele><time>2026-04-22T15:18:56.098Z</time></trkpt><trkpt lat="43.0548352" lon="11.4907006"><ele>544.4</ele><time>2026-04-22T15:18:57.096Z</time></trkpt><trkpt lat="43.0549092" lon="11.4908099"><ele>542.8</ele><time>2026-04-22T15:18:58.099Z</time></trkpt><trkpt lat="43.054979" lon="11.4909223"><ele>541.1999999999999</ele><time>2026-04-22T15:18:59.093Z</time></trkpt><trkpt lat="43.0550404" lon="11.491043"><ele>539.6</ele><time>2026-04-22T15:19:00.097Z</time></trkpt><trkpt lat="43.0550912" lon="11.4911667"><ele>538.0</ele><time>2026-04-22T15:19:01.095Z</time></trkpt><trkpt lat="43.0551388" lon="11.4912895"><ele>534.5</ele><time>2026-04-22T15:19:02.095Z</time></trkpt><trkpt lat="43.0551845" lon="11.4914035"><ele>531.0</ele><time>2026-04-22T15:19:03.094Z</time></trkpt><trkpt lat="43.0552296" lon="11.4915058"><ele>527.5</ele><time>2026-04-22T15:19:04.097Z</time></trkpt><trkpt lat="43.0552785" lon="11.4915896"><ele>524.0</ele><time>2026-04-22T15:19:05.095Z</time></trkpt><trkpt lat="43.0553209" lon="11.4916543"><ele>520.5</ele><time>2026-04-22T15:19:06.103Z</time></trkpt><trkpt lat="43.0553861" lon="11.4917321"><ele>517.0</ele><time>2026-04-22T15:19:08.097Z</time></trkpt><trkpt lat="43.0554452" lon="11.491784"><ele>517.0</ele><time>2026-04-22T15:19:11.098Z</time></trkpt><trkpt lat="43.055457" lon="11.4918717"><ele>517.0</ele><time>2026-04-22T15:19:15.096Z</time></trkpt><trkpt lat="43.0553912" lon="11.491891"><ele>517.0</ele><time>2026-04-22T15:19:17.101Z</time></trkpt><trkpt lat="43.0552928" lon="11.4917751"><ele>517.0</ele><time>2026-04-22T15:19:19.092Z</time></trkpt><trkpt lat="43.0552386" lon="11.491691"><ele>517.0</ele><time>2026-04-22T15:19:20.092Z</time></trkpt><trkpt lat="43.0551898" lon="11.4915999"><ele>517.0</ele><time>2026-04-22T15:19:21.096Z</time></trkpt><trkpt lat="43.0551331" lon="11.4915174"><ele>517.0</ele><time>2026-04-22T15:19:22.093Z</time></trkpt><trkpt lat="43.0550667" lon="11.4914329"><ele>517.0</ele><time>2026-04-22T15:19:23.1Z</time></trkpt><trkpt lat="43.0549979" lon="11.4913384"><ele>517.0</ele><time>2026-04-22T15:19:24.1Z</time></trkpt><trkpt lat="43.0549351" lon="11.4912399"><ele>517.0</ele><time>2026-04-22T15:19:25.102Z</time></trkpt><trkpt lat="43.0548761" lon="11.4911477"><ele>517.0</ele><time>2026-04-22T15:19:26.095Z</time></trkpt><trkpt lat="43.0548189" lon="11.4910638"><ele>520.0</ele><time>2026-04-22T15:19:27.096Z</time></trkpt><trkpt lat="43.0547594" lon="11.4909939"><ele>523.0</ele><time>2026-04-22T15:19:28.093Z</time></trkpt><trkpt lat="43.0546978" lon="11.4909461"><ele>526.0</ele><time>2026-04-22T15:19:29.097Z</time></trkpt><trkpt lat="43.0546274" lon="11.4909288"><ele>529.0</ele><time>2026-04-22T15:19:30.092Z</time></trkpt><trkpt lat="43.0545528" lon="11.490953"><ele>532.0</ele><time>2026-04-22T15:19:31.094Z</time></trkpt><trkpt lat="43.0544864" lon="11.4910023"><ele>535.0</ele><time>2026-04-22T15:19:32.099Z</time></trkpt><trkpt lat="43.0544323" lon="11.49105"><ele>538.0</ele><time>2026-04-22T15:19:33.098Z</time></trkpt><trkpt lat="43.054374" lon="11.4910867"><ele>538.0</ele><time>2026-04-22T15:19:35.097Z</time></trkpt><trkpt lat="43.0544165" lon="11.4911688"><ele>538.0</ele><time>2026-04-22T15:23:24.11Z</time></trkpt><trkpt lat="43.0544857" lon="11.4911076"><ele>538.0</ele><time>2026-04-22T15:23:26.11Z</time></trkpt><trkpt lat="43.0545416" lon="11.4910453"><ele>538.0</ele><time>2026-04-22T15:23:27.111Z</time></trkpt><trkpt lat="43.0546209" lon="11.4910091"><ele>538.0</ele><time>2026-04-22T15:23:28.107Z</time></trkpt><trkpt lat="43.0547159" lon="11.4910143"><ele>538.0</ele><time>2026-04-22T15:23:29.108Z</time></trkpt><trkpt lat="43.0548107" lon="11.49108"><ele>538.0</ele><time>2026-04-22T15:23:30.111Z</time></trkpt><trkpt lat="43.0549047" lon="11.4911986"><ele>538.0</ele><time>2026-04-22T15:23:31.105Z</time></trkpt><trkpt lat="43.0549942" lon="11.4913419"><ele>538.0</ele><time>2026-04-22T15:23:32.112Z</time></trkpt><trkpt lat="43.0550872" lon="11.4914884"><ele>538.0</ele><time>2026-04-22T15:23:33.11Z</time></trkpt><trkpt lat="43.0551719" lon="11.4916137"><ele>533.8</ele><time>2026-04-22T15:23:34.114Z</time></trkpt><trkpt lat="43.055245" lon="11.4917242"><ele>529.5999999999999</ele><time>2026-04-22T15:23:35.124Z</time></trkpt><trkpt lat="43.0553029" lon="11.4918262"><ele>525.4000000000001</ele><time>2026-04-22T15:23:36.126Z</time></trkpt><trkpt lat="43.0553535" lon="11.4919092"><ele>521.2</ele><time>2026-04-22T15:23:37.124Z</time></trkpt><trkpt lat="43.0554031" lon="11.4919716"><ele>517.0</ele><time>2026-04-22T15:23:38.122Z</time></trkpt><trkpt lat="43.055505" lon="11.492013"><ele>517.0</ele><time>2026-04-22T15:23:40.126Z</time></trkpt><trkpt lat="43.0555852" lon="11.4919981"><ele>517.0</ele><time>2026-04-22T15:23:42.121Z</time></trkpt><trkpt lat="43.0556534" lon="11.4919785"><ele>517.0</ele><time>2026-04-22T15:23:52.116Z</time></trkpt><trkpt lat="43.0557478" lon="11.4919366"><ele>517.0</ele><time>2026-04-22T15:23:54.122Z</time></trkpt><trkpt lat="43.0558148" lon="11.4919039"><ele>517.0</ele><time>2026-04-22T15:23:55.118Z</time></trkpt><trkpt lat="43.0558813" lon="11.4918723"><ele>517.0</ele><time>2026-04-22T15:23:56.107Z</time></trkpt><trkpt lat="43.0559499" lon="11.4918512"><ele>520.4</ele><time>2026-04-22T15:23:57.116Z</time></trkpt><trkpt lat="43.0560744" lon="11.491829"><ele>523.8000000000001</ele><time>2026-04-22T15:23:59.115Z</time></trkpt><trkpt lat="43.0561784" lon="11.4918236"><ele>527.2</ele><time>2026-04-22T15:24:01.116Z</time></trkpt><trkpt lat="43.0562731" lon="11.491819"><ele>530.6</ele><time>2026-04-22T15:24:03.109Z</time></trkpt><trkpt lat="43.056382" lon="11.4918012"><ele>534.0</ele><time>2026-04-22T15:24:05.109Z</time></trkpt><trkpt lat="43.0564851" lon="11.4917535"><ele>534.0</ele><time>2026-04-22T15:24:07.119Z</time></trkpt><trkpt lat="43.0565778" lon="11.4916837"><ele>534.0</ele><time>2026-04-22T15:24:09.121Z</time></trkpt><trkpt lat="43.056632" lon="11.4916231"><ele>534.0</ele><time>2026-04-22T15:24:11.107Z</time></trkpt><trkpt lat="43.0566697" lon="11.4915433"><ele>534.0</ele><time>2026-04-22T15:24:13.123Z</time></trkpt><trkpt lat="43.0567417" lon="11.491441"><ele>534.0</ele><time>2026-04-22T15:24:15.118Z</time></trkpt><trkpt lat="43.0568492" lon="11.4913547"><ele>533.8333333333334</ele><time>2026-04-22T15:24:17.121Z</time></trkpt><trkpt lat="43.0569035" lon="11.4912918"><ele>533.6666666666666</ele><time>2026-04-22T15:24:18.12Z</time></trkpt><trkpt lat="43.0569588" lon="11.4912426"><ele>533.5</ele><time>2026-04-22T15:24:19.117Z</time></trkpt><trkpt lat="43.0570156" lon="11.4911938"><ele>533.3333333333333</ele><time>2026-04-22T15:24:20.119Z</time></trkpt><trkpt lat="43.0570751" lon="11.4911513"><ele>533.1666666666666</ele><time>2026-04-22T15:24:21.115Z</time></trkpt><trkpt lat="43.0571842" lon="11.4910582"><ele>533.0</ele><time>2026-04-22T15:24:23.118Z</time></trkpt><trkpt lat="43.0572828" lon="11.4909657"><ele>534.0</ele><time>2026-04-22T15:24:25.11Z</time></trkpt><trkpt lat="43.0573637" lon="11.4908908"><ele>535.0</ele><time>2026-04-22T15:24:27.108Z</time></trkpt><trkpt lat="43.0574197" lon="11.490837"><ele>536.0</ele><time>2026-04-22T15:24:29.116Z</time></trkpt><trkpt lat="43.0574563" lon="11.4907147"><ele>537.0</ele><time>2026-04-22T15:24:34.123Z</time></trkpt><trkpt lat="43.0574394" lon="11.4905635"><ele>538.0</ele><time>2026-04-22T15:24:36.118Z</time></trkpt><trkpt lat="43.0574849" lon="11.4904362"><ele>540.4</ele><time>2026-04-22T15:24:38.117Z</time></trkpt><trkpt lat="43.0575995" lon="11.4903819"><ele>542.8</ele><time>2026-04-22T15:24:40.124Z</time></trkpt><trkpt lat="43.0576933" lon="11.4903289"><ele>545.2</ele><time>2026-04-22T15:24:42.109Z</time></trkpt><trkpt lat="43.057744" lon="11.4902716"><ele>547.6</ele><time>2026-04-22T15:24:44.12Z</time></trkpt><trkpt lat="43.0576709" lon="11.4902126"><ele>550.0</ele><time>2026-04-22T15:24:48.106Z</time></trkpt><trkpt lat="43.0575965" lon="11.4902402"><ele>550.0</ele><time>2026-04-22T15:24:51.117Z</time></trkpt><trkpt lat="43.0576669" lon="11.4902611"><ele>550.0</ele><time>2026-04-22T15:28:07.106Z</time></trkpt><trkpt lat="43.0577321" lon="11.4902273"><ele>550.0</ele><time>2026-04-22T15:29:30.105Z</time></trkpt><trkpt lat="43.057794" lon="11.4901843"><ele>550.0</ele><time>2026-04-22T15:29:36.61Z</time></trkpt><trkpt lat="43.0578042" lon="11.4900945"><ele>550.0</ele><time>2026-04-22T15:29:45.105Z</time></trkpt><trkpt lat="43.0578675" lon="11.490082"><ele>550.0</ele><time>2026-04-22T15:31:09.107Z</time></trkpt></trkseg><trkseg><trkpt lat="43.057498" lon="11.4901989"><ele>550.0</ele><time>2026-04-23T07:33:22.834Z</time></trkpt><trkpt lat="43.0575137" lon="11.4901137"><ele>550.0</ele><time>2026-04-23T07:33:24.831Z</time></trkpt><trkpt lat="43.0574209" lon="11.4901034"><ele>550.0</ele><time>2026-04-23T07:33:25.833Z</time></trkpt><trkpt lat="43.0573398" lon="11.4900592"><ele>550.0</ele><time>2026-04-23T07:33:26.83Z</time></trkpt><trkpt lat="43.0572892" lon="11.4899052"><ele>550.0</ele><time>2026-04-23T07:33:28.83Z</time></trkpt><trkpt lat="43.057264" lon="11.4898227"><ele>550.0</ele><time>2026-04-23T07:33:29.829Z</time></trkpt><trkpt lat="43.057238" lon="11.4897383"><ele>550.0</ele><time>2026-04-23T07:33:30.829Z</time></trkpt><trkpt lat="43.0572091" lon="11.4896559"><ele>550.0</ele><time>2026-04-23T07:33:31.825Z</time></trkpt><trkpt lat="43.0571822" lon="11.4895744"><ele>550.0</ele><time>2026-04-23T07:33:32.826Z</time></trkpt><trkpt lat="43.0571442" lon="11.4894359"><ele>550.0</ele><time>2026-04-23T07:33:34.826Z</time></trkpt><trkpt lat="43.0570915" lon="11.4893192"><ele>550.0</ele><time>2026-04-23T07:33:36.831Z</time></trkpt><trkpt lat="43.0570485" lon="11.4892235"><ele>550.0</ele><time>2026-04-23T07:33:38.826Z</time></trkpt><trkpt lat="43.0570269" lon="11.4891402"><ele>550.0</ele><time>2026-04-23T07:33:42.826Z</time></trkpt><trkpt lat="43.056973" lon="11.4890401"><ele>550.0</ele><time>2026-04-23T07:33:44.832Z</time></trkpt><trkpt lat="43.0569315" lon="11.4889663"><ele>550.0</ele><time>2026-04-23T07:33:45.833Z</time></trkpt><trkpt lat="43.0568708" lon="11.4888375"><ele>550.0</ele><time>2026-04-23T07:33:47.828Z</time></trkpt><trkpt lat="43.0568283" lon="11.488753"><ele>550.0</ele><time>2026-04-23T07:33:50.83Z</time></trkpt><trkpt lat="43.0567527" lon="11.4887087"><ele>550.0</ele><time>2026-04-23T07:33:52.827Z</time></trkpt><trkpt lat="43.0566601" lon="11.4887404"><ele>549.8</ele><time>2026-04-23T07:33:54.831Z</time></trkpt><trkpt lat="43.0565544" lon="11.488795"><ele>549.6</ele><time>2026-04-23T07:33:56.832Z</time></trkpt><trkpt lat="43.0564595" lon="11.488863"><ele>549.4</ele><time>2026-04-23T07:33:58.828Z</time></trkpt><trkpt lat="43.0564255" lon="11.4889391"><ele>549.2</ele><time>2026-04-23T07:34:01.826Z</time></trkpt><trkpt lat="43.0563505" lon="11.488936"><ele>549.0</ele><time>2026-04-23T07:34:44.835Z</time></trkpt><trkpt lat="43.0562551" lon="11.4889494"><ele>549.0</ele><time>2026-04-23T07:34:46.827Z</time></trkpt><trkpt lat="43.056193" lon="11.4889771"><ele>549.0</ele><time>2026-04-23T07:34:47.833Z</time></trkpt><trkpt lat="43.0561091" lon="11.4890055"><ele>549.0</ele><time>2026-04-23T07:34:48.83Z</time></trkpt><trkpt lat="43.0560172" lon="11.489028"><ele>549.0</ele><time>2026-04-23T07:34:49.831Z</time></trkpt><trkpt lat="43.0559133" lon="11.4890244"><ele>549.0</ele><time>2026-04-23T07:34:50.834Z</time></trkpt><trkpt lat="43.0558017" lon="11.488991"><ele>549.8</ele><time>2026-04-23T07:34:51.827Z</time></trkpt><trkpt lat="43.0556961" lon="11.4889483"><ele>550.5999999999999</ele><time>2026-04-23T07:34:52.825Z</time></trkpt><trkpt lat="43.055594" lon="11.4889253"><ele>551.4</ele><time>2026-04-23T07:34:53.839Z</time></trkpt><trkpt lat="43.0555034" lon="11.4889364"><ele>552.1999999999999</ele><time>2026-04-23T07:34:54.837Z</time></trkpt><trkpt lat="43.0554193" lon="11.4889615"><ele>553.0</ele><time>2026-04-23T07:34:55.832Z</time></trkpt><trkpt lat="43.0553407" lon="11.4889795"><ele>553.0</ele><time>2026-04-23T07:34:56.835Z</time></trkpt><trkpt lat="43.0552638" lon="11.4889884"><ele>553.0</ele><time>2026-04-23T07:34:57.834Z</time></trkpt><trkpt lat="43.0551878" lon="11.4889913"><ele>553.0</ele><time>2026-04-23T07:34:58.836Z</time></trkpt><trkpt lat="43.0551149" lon="11.489008"><ele>553.0</ele><time>2026-04-23T07:34:59.835Z</time></trkpt><trkpt lat="43.0550589" lon="11.4890511"><ele>553.0</ele><time>2026-04-23T07:35:00.833Z</time></trkpt><trkpt lat="43.0550184" lon="11.4891778"><ele>553.0</ele><time>2026-04-23T07:35:02.848Z</time></trkpt><trkpt lat="43.0549257" lon="11.489251"><ele>553.5</ele><time>2026-04-23T07:35:04.833Z</time></trkpt><trkpt lat="43.0548151" lon="11.4892494"><ele>554.0</ele><time>2026-04-23T07:35:05.833Z</time></trkpt><trkpt lat="43.0546704" lon="11.4892473"><ele>554.5</ele><time>2026-04-23T07:35:06.829Z</time></trkpt><trkpt lat="43.0545226" lon="11.4892631"><ele>555.0</ele><time>2026-04-23T07:35:07.83Z</time></trkpt><trkpt lat="43.0543855" lon="11.4892857"><ele>555.0</ele><time>2026-04-23T07:35:08.828Z</time></trkpt><trkpt lat="43.0542701" lon="11.4893405"><ele>555.0</ele><time>2026-04-23T07:35:09.834Z</time></trkpt><trkpt lat="43.054188" lon="11.4894413"><ele>555.0</ele><time>2026-04-23T07:35:10.829Z</time></trkpt><trkpt lat="43.0541275" lon="11.4895769"><ele>555.0</ele><time>2026-04-23T07:35:11.83Z</time></trkpt><trkpt lat="43.0540966" lon="11.4897264"><ele>552.75</ele><time>2026-04-23T07:35:12.829Z</time></trkpt><trkpt lat="43.054109" lon="11.4898799"><ele>550.5</ele><time>2026-04-23T07:35:13.828Z</time></trkpt><trkpt lat="43.054176" lon="11.4900251"><ele>548.25</ele><time>2026-04-23T07:35:14.823Z</time></trkpt><trkpt lat="43.0542715" lon="11.4901453"><ele>546.0</ele><time>2026-04-23T07:35:15.828Z</time></trkpt><trkpt lat="43.0543938" lon="11.49024"><ele>546.0</ele><time>2026-04-23T07:35:16.828Z</time></trkpt><trkpt lat="43.0545231" lon="11.4903345"><ele>546.0</ele><time>2026-04-23T07:35:17.833Z</time></trkpt><trkpt lat="43.0546315" lon="11.4904347"><ele>546.0</ele><time>2026-04-23T07:35:18.832Z</time></trkpt><trkpt lat="43.0547248" lon="11.4905445"><ele>546.0</ele><time>2026-04-23T07:35:19.829Z</time></trkpt><trkpt lat="43.0547989" lon="11.4906567"><ele>544.4</ele><time>2026-04-23T07:35:20.833Z</time></trkpt><trkpt lat="43.054867" lon="11.4907662"><ele>542.8</ele><time>2026-04-23T07:35:21.831Z</time></trkpt><trkpt lat="43.0549402" lon="11.4908725"><ele>541.1999999999999</ele><time>2026-04-23T07:35:22.83Z</time></trkpt><trkpt lat="43.0550137" lon="11.490999"><ele>539.6</ele><time>2026-04-23T07:35:23.829Z</time></trkpt><trkpt lat="43.0550709" lon="11.491133"><ele>538.0</ele><time>2026-04-23T07:35:24.827Z</time></trkpt><trkpt lat="43.0551169" lon="11.4912716"><ele>533.8</ele><time>2026-04-23T07:35:25.831Z</time></trkpt><trkpt lat="43.0551595" lon="11.4914029"><ele>529.5999999999999</ele><time>2026-04-23T07:35:26.826Z</time></trkpt><trkpt lat="43.0552035" lon="11.4915218"><ele>525.4000000000001</ele><time>2026-04-23T07:35:27.828Z</time></trkpt><trkpt lat="43.0552547" lon="11.4916259"><ele>521.2</ele><time>2026-04-23T07:35:28.829Z</time></trkpt><trkpt lat="43.0553138" lon="11.491713"><ele>517.0</ele><time>2026-04-23T07:35:29.827Z</time></trkpt><trkpt lat="43.0553682" lon="11.4917892"><ele>517.0</ele><time>2026-04-23T07:35:30.833Z</time></trkpt><trkpt lat="43.0554084" lon="11.4918566"><ele>517.0</ele><time>2026-04-23T07:35:31.829Z</time></trkpt><trkpt lat="43.0553592" lon="11.4919353"><ele>517.0</ele><time>2026-04-23T07:35:34.83Z</time></trkpt><trkpt lat="43.0552662" lon="11.4918176"><ele>517.0</ele><time>2026-04-23T07:35:36.829Z</time></trkpt><trkpt lat="43.055204" lon="11.4917243"><ele>517.0</ele><time>2026-04-23T07:35:37.829Z</time></trkpt><trkpt lat="43.0551249" lon="11.4916199"><ele>517.0</ele><time>2026-04-23T07:35:38.828Z</time></trkpt><trkpt lat="43.0550352" lon="11.4915002"><ele>517.0</ele><time>2026-04-23T07:35:39.827Z</time></trkpt><trkpt lat="43.0549458" lon="11.4913751"><ele>517.0</ele><time>2026-04-23T07:35:40.828Z</time></trkpt><trkpt lat="43.0548598" lon="11.4912499"><ele>517.0</ele><time>2026-04-23T07:35:41.828Z</time></trkpt><trkpt lat="43.0547827" lon="11.491134"><ele>520.5</ele><time>2026-04-23T07:35:42.825Z</time></trkpt><trkpt lat="43.0547157" lon="11.4910382"><ele>524.0</ele><time>2026-04-23T07:35:43.826Z</time></trkpt><trkpt lat="43.0546541" lon="11.4909681"><ele>527.5</ele><time>2026-04-23T07:35:44.829Z</time></trkpt><trkpt lat="43.0545893" lon="11.4909345"><ele>531.0</ele><time>2026-04-23T07:35:45.825Z</time></trkpt><trkpt lat="43.054512" lon="11.4909402"><ele>534.5</ele><time>2026-04-23T07:35:46.829Z</time></trkpt><trkpt lat="43.0544327" lon="11.4909855"><ele>538.0</ele><time>2026-04-23T07:35:47.826Z</time></trkpt><trkpt lat="43.0543671" lon="11.4910725"><ele>538.0</ele><time>2026-04-23T07:35:48.826Z</time></trkpt><trkpt lat="43.0543301" lon="11.4911812"><ele>538.0</ele><time>2026-04-23T07:35:49.826Z</time></trkpt><trkpt lat="43.0543169" lon="11.4913218"><ele>538.0</ele><time>2026-04-23T07:35:50.831Z</time></trkpt><trkpt lat="43.0543254" lon="11.4914699"><ele>538.0</ele><time>2026-04-23T07:35:51.831Z</time></trkpt><trkpt lat="43.0543462" lon="11.4916237"><ele>538.0</ele><time>2026-04-23T07:35:52.83Z</time></trkpt><trkpt lat="43.0543733" lon="11.4917816"><ele>537.5</ele><time>2026-04-23T07:35:53.825Z</time></trkpt><trkpt lat="43.0544012" lon="11.4919492"><ele>537.0</ele><time>2026-04-23T07:35:54.829Z</time></trkpt><trkpt lat="43.0544155" lon="11.492117"><ele>536.5</ele><time>2026-04-23T07:35:55.829Z</time></trkpt><trkpt lat="43.0544231" lon="11.4922826"><ele>536.0</ele><time>2026-04-23T07:35:56.836Z</time></trkpt><trkpt lat="43.0544282" lon="11.4924459"><ele>533.0</ele><time>2026-04-23T07:35:57.83Z</time></trkpt><trkpt lat="43.0544263" lon="11.4926025"><ele>530.0</ele><time>2026-04-23T07:35:58.83Z</time></trkpt><trkpt lat="43.054409" lon="11.492764"><ele>527.0</ele><time>2026-04-23T07:35:59.829Z</time></trkpt><trkpt lat="43.054376" lon="11.492926"><ele>524.0</ele><time>2026-04-23T07:36:00.829Z</time></trkpt><trkpt lat="43.0543217" lon="11.4930824"><ele>521.5</ele><time>2026-04-23T07:36:01.832Z</time></trkpt><trkpt lat="43.0542513" lon="11.4932252"><ele>519.0</ele><time>2026-04-23T07:36:02.831Z</time></trkpt><trkpt lat="43.0541649" lon="11.4933483"><ele>516.5</ele><time>2026-04-23T07:36:03.834Z</time></trkpt><trkpt lat="43.0540653" lon="11.4934572"><ele>514.0</ele><time>2026-04-23T07:36:04.831Z</time></trkpt><trkpt lat="43.0539526" lon="11.4935477"><ele>514.0</ele><time>2026-04-23T07:36:05.837Z</time></trkpt><trkpt lat="43.0538333" lon="11.493633"><ele>514.0</ele><time>2026-04-23T07:36:06.835Z</time></trkpt><trkpt lat="43.053726" lon="11.4937358"><ele>514.0</ele><time>2026-04-23T07:36:07.829Z</time></trkpt><trkpt lat="43.0536298" lon="11.4938698"><ele>514.0</ele><time>2026-04-23T07:36:08.829Z</time></trkpt><trkpt lat="43.05355" lon="11.4940179"><ele>512.5</ele><time>2026-04-23T07:36:09.83Z</time></trkpt><trkpt lat="43.0534872" lon="11.4941811"><ele>511.0</ele><time>2026-04-23T07:36:10.843Z</time></trkpt><trkpt lat="43.0534573" lon="11.4943651"><ele>509.5</ele><time>2026-04-23T07:36:11.832Z</time></trkpt><trkpt lat="43.0534539" lon="11.4945531"><ele>508.0</ele><time>2026-04-23T07:36:12.83Z</time></trkpt><trkpt lat="43.0534621" lon="11.494741"><ele>507.25</ele><time>2026-04-23T07:36:13.829Z</time></trkpt><trkpt lat="43.0534826" lon="11.494936"><ele>506.5</ele><time>2026-04-23T07:36:14.826Z</time></trkpt><trkpt lat="43.0534993" lon="11.4951297"><ele>505.75</ele><time>2026-04-23T07:36:15.835Z</time></trkpt><trkpt lat="43.0535135" lon="11.4953221"><ele>505.0</ele><time>2026-04-23T07:36:16.836Z</time></trkpt><trkpt lat="43.053525" lon="11.4955149"><ele>504.75</ele><time>2026-04-23T07:36:17.83Z</time></trkpt><trkpt lat="43.0535293" lon="11.4957048"><ele>504.5</ele><time>2026-04-23T07:36:18.828Z</time></trkpt><trkpt lat="43.0535273" lon="11.4958957"><ele>504.25</ele><time>2026-04-23T07:36:19.83Z</time></trkpt><trkpt lat="43.0535169" lon="11.4960879"><ele>504.0</ele><time>2026-04-23T07:36:20.836Z</time></trkpt><trkpt lat="43.0534927" lon="11.4962814"><ele>502.75</ele><time>2026-04-23T07:36:21.829Z</time></trkpt><trkpt lat="43.0534622" lon="11.496478"><ele>501.5</ele><time>2026-04-23T07:36:22.831Z</time></trkpt><trkpt lat="43.0534316" lon="11.4966671"><ele>500.25</ele><time>2026-04-23T07:36:23.834Z</time></trkpt><trkpt lat="43.0534004" lon="11.4968472"><ele>499.0</ele><time>2026-04-23T07:36:24.834Z</time></trkpt><trkpt lat="43.0533691" lon="11.4970265"><ele>498.25</ele><time>2026-04-23T07:36:25.833Z</time></trkpt><trkpt lat="43.0533312" lon="11.4972026"><ele>497.5</ele><time>2026-04-23T07:36:26.831Z</time></trkpt><trkpt lat="43.0532841" lon="11.4973758"><ele>496.75</ele><time>2026-04-23T07:36:27.838Z</time></trkpt><trkpt lat="43.0532271" lon="11.4975494"><ele>496.0</ele><time>2026-04-23T07:36:28.835Z</time></trkpt><trkpt lat="43.0531622" lon="11.4977204"><ele>497.33333333333337</ele><time>2026-04-23T07:36:29.829Z</time></trkpt><trkpt lat="43.053091" lon="11.4978958"><ele>498.66666666666663</ele><time>2026-04-23T07:36:30.835Z</time></trkpt><trkpt lat="43.0530123" lon="11.4980899"><ele>500.0</ele><time>2026-04-23T07:36:31.834Z</time></trkpt><trkpt lat="43.0529232" lon="11.4982976"><ele>500.0</ele><time>2026-04-23T07:36:32.837Z</time></trkpt><trkpt lat="43.0528253" lon="11.4985093"><ele>500.0</ele><time>2026-04-23T07:36:33.84Z</time></trkpt><trkpt lat="43.0527261" lon="11.498717"><ele>500.0</ele><time>2026-04-23T07:36:34.835Z</time></trkpt><trkpt lat="43.0526296" lon="11.4989208"><ele>497.66666666666663</ele><time>2026-04-23T07:36:35.84Z</time></trkpt><trkpt lat="43.052541" lon="11.4991269"><ele>495.33333333333337</ele><time>2026-04-23T07:36:36.837Z</time></trkpt><trkpt lat="43.0524619" lon="11.4993279"><ele>493.0</ele><time>2026-04-23T07:36:37.841Z</time></trkpt><trkpt lat="43.0523891" lon="11.4995186"><ele>488.33333333333337</ele><time>2026-04-23T07:36:38.833Z</time></trkpt><trkpt lat="43.0523147" lon="11.4997039"><ele>483.66666666666663</ele><time>2026-04-23T07:36:39.833Z</time></trkpt><trkpt lat="43.0522416" lon="11.4998933"><ele>479.0</ele><time>2026-04-23T07:36:40.842Z</time></trkpt><trkpt lat="43.0521714" lon="11.5000707"><ele>479.0</ele><time>2026-04-23T07:36:41.837Z</time></trkpt><trkpt lat="43.052107" lon="11.500232"><ele>479.0</ele><time>2026-04-23T07:36:42.834Z</time></trkpt><trkpt lat="43.0520461" lon="11.500388"><ele>479.0</ele><time>2026-04-23T07:36:43.833Z</time></trkpt><trkpt lat="43.0519904" lon="11.5005532"><ele>479.0</ele><time>2026-04-23T07:36:44.832Z</time></trkpt><trkpt lat="43.0519483" lon="11.5007286"><ele>477.75</ele><time>2026-04-23T07:36:45.838Z</time></trkpt><trkpt lat="43.0519247" lon="11.5009228"><ele>476.5</ele><time>2026-04-23T07:36:46.836Z</time></trkpt><trkpt lat="43.0519163" lon="11.5011263"><ele>475.25</ele><time>2026-04-23T07:36:47.835Z</time></trkpt><trkpt lat="43.0519201" lon="11.5013387"><ele>474.0</ele><time>2026-04-23T07:36:48.834Z</time></trkpt><trkpt lat="43.0519289" lon="11.5015599"><ele>472.33333333333337</ele><time>2026-04-23T07:36:49.832Z</time></trkpt><trkpt lat="43.051932" lon="11.5017774"><ele>470.6666666666667</ele><time>2026-04-23T07:36:50.838Z</time></trkpt><trkpt lat="43.051926" lon="11.5019892"><ele>469.0</ele><time>2026-04-23T07:36:51.832Z</time></trkpt><trkpt lat="43.0519024" lon="11.5021904"><ele>468.25</ele><time>2026-04-23T07:36:52.837Z</time></trkpt><trkpt lat="43.051861" lon="11.5023805"><ele>467.5</ele><time>2026-04-23T07:36:53.835Z</time></trkpt><trkpt lat="43.0518056" lon="11.5025688"><ele>466.75</ele><time>2026-04-23T07:36:54.83Z</time></trkpt><trkpt lat="43.0517556" lon="11.502755"><ele>466.0</ele><time>2026-04-23T07:36:55.832Z</time></trkpt><trkpt lat="43.0517233" lon="11.5029416"><ele>465.5</ele><time>2026-04-23T07:36:56.832Z</time></trkpt><trkpt lat="43.0517137" lon="11.5031287"><ele>465.0</ele><time>2026-04-23T07:36:57.831Z</time></trkpt><trkpt lat="43.0517475" lon="11.5033119"><ele>464.5</ele><time>2026-04-23T07:36:58.83Z</time></trkpt><trkpt lat="43.0518084" lon="11.5034946"><ele>464.0</ele><time>2026-04-23T07:36:59.831Z</time></trkpt><trkpt lat="43.0518869" lon="11.5036655"><ele>462.0</ele><time>2026-04-23T07:37:00.839Z</time></trkpt><trkpt lat="43.0519767" lon="11.503822"><ele>460.0</ele><time>2026-04-23T07:37:01.831Z</time></trkpt><trkpt lat="43.0520581" lon="11.5039658"><ele>458.0</ele><time>2026-04-23T07:37:02.833Z</time></trkpt><trkpt lat="43.0521338" lon="11.5041025"><ele>456.0</ele><time>2026-04-23T07:37:03.833Z</time></trkpt><trkpt lat="43.052192" lon="11.5042248"><ele>456.0</ele><time>2026-04-23T07:37:04.834Z</time></trkpt><trkpt lat="43.052235" lon="11.5043391"><ele>456.0</ele><time>2026-04-23T07:37:05.831Z</time></trkpt><trkpt lat="43.0522635" lon="11.5044437"><ele>456.0</ele><time>2026-04-23T07:37:06.834Z</time></trkpt><trkpt lat="43.0522877" lon="11.5045483"><ele>456.0</ele><time>2026-04-23T07:37:07.834Z</time></trkpt><trkpt lat="43.0522991" lon="11.5046596"><ele>456.0</ele><time>2026-04-23T07:37:08.836Z</time></trkpt><trkpt lat="43.052302" lon="11.5047764"><ele>456.0</ele><time>2026-04-23T07:37:09.83Z</time></trkpt><trkpt lat="43.0522887" lon="11.5048853"><ele>454.6666666666667</ele><time>2026-04-23T07:37:10.837Z</time></trkpt><trkpt lat="43.0522778" lon="11.5049791"><ele>453.33333333333337</ele><time>2026-04-23T07:37:11.832Z</time></trkpt><trkpt lat="43.0523423" lon="11.5050506"><ele>452.0</ele><time>2026-04-23T07:37:13.833Z</time></trkpt><trkpt lat="43.052421" lon="11.5049606"><ele>450.6666666666667</ele><time>2026-04-23T07:37:15.836Z</time></trkpt><trkpt lat="43.0524226" lon="11.504873"><ele>449.33333333333337</ele><time>2026-04-23T07:37:16.833Z</time></trkpt><trkpt lat="43.0524014" lon="11.5047676"><ele>448.0</ele><time>2026-04-23T07:37:17.831Z</time></trkpt><trkpt lat="43.0523826" lon="11.5046566"><ele>449.33333333333337</ele><time>2026-04-23T07:37:18.835Z</time></trkpt><trkpt lat="43.0523784" lon="11.5045573"><ele>450.6666666666667</ele><time>2026-04-23T07:37:19.834Z</time></trkpt><trkpt lat="43.052379" lon="11.5044036"><ele>452.0</ele><time>2026-04-23T07:37:21.834Z</time></trkpt><trkpt lat="43.0523646" lon="11.5043185"><ele>453.33333333333337</ele><time>2026-04-23T07:37:23.834Z</time></trkpt><trkpt lat="43.0523256" lon="11.5042463"><ele>454.6666666666667</ele><time>2026-04-23T07:37:27.832Z</time></trkpt><trkpt lat="43.0523223" lon="11.5041464"><ele>456.0</ele><time>2026-04-23T07:39:35.842Z</time></trkpt><trkpt lat="43.0523125" lon="11.5040492"><ele>456.0</ele><time>2026-04-23T07:39:41.832Z</time></trkpt><trkpt lat="43.052259" lon="11.5040019"><ele>456.0</ele><time>2026-04-23T07:39:45.834Z</time></trkpt><trkpt lat="43.0521892" lon="11.5040533"><ele>456.0</ele><time>2026-04-23T07:42:44.832Z</time></trkpt><trkpt lat="43.0521716" lon="11.504184"><ele>456.0</ele><time>2026-04-23T07:42:48.832Z</time></trkpt><trkpt lat="43.0522138" lon="11.5043665"><ele>456.0</ele><time>2026-04-23T07:42:50.837Z</time></trkpt><trkpt lat="43.0522517" lon="11.5044802"><ele>454.4</ele><time>2026-04-23T07:42:51.831Z</time></trkpt><trkpt lat="43.0522923" lon="11.504604"><ele>452.8</ele><time>2026-04-23T07:42:52.833Z</time></trkpt><trkpt lat="43.0523226" lon="11.5047315"><ele>451.19999999999993</ele><time>2026-04-23T07:42:53.836Z</time></trkpt><trkpt lat="43.0523358" lon="11.5048559"><ele>449.59999999999997</ele><time>2026-04-23T07:42:54.837Z</time></trkpt><trkpt lat="43.0523339" lon="11.5049702"><ele>448.0</ele><time>2026-04-23T07:42:55.835Z</time></trkpt><trkpt lat="43.0523588" lon="11.5050838"><ele>450.5</ele><time>2026-04-23T07:42:57.836Z</time></trkpt><trkpt lat="43.0524814" lon="11.5050619"><ele>453.0</ele><time>2026-04-23T07:42:59.837Z</time></trkpt><trkpt lat="43.0525852" lon="11.505042"><ele>455.5</ele><time>2026-04-23T07:43:00.834Z</time></trkpt><trkpt lat="43.0527169" lon="11.5050473"><ele>458.0</ele><time>2026-04-23T07:43:01.846Z</time></trkpt><trkpt lat="43.0528604" lon="11.5051057"><ele>458.0</ele><time>2026-04-23T07:43:02.84Z</time></trkpt><trkpt lat="43.0530044" lon="11.5052168"><ele>458.0</ele><time>2026-04-23T07:43:03.834Z</time></trkpt><trkpt lat="43.0531244" lon="11.5053385"><ele>458.0</ele><time>2026-04-23T07:43:04.835Z</time></trkpt><trkpt lat="43.0532273" lon="11.5055139"><ele>455.0</ele><time>2026-04-23T07:43:05.834Z</time></trkpt><trkpt lat="43.0532973" lon="11.5057171"><ele>452.0</ele><time>2026-04-23T07:43:06.84Z</time></trkpt><trkpt lat="43.0533199" lon="11.5059524"><ele>449.0</ele><time>2026-04-23T07:43:07.84Z</time></trkpt><trkpt lat="43.0532993" lon="11.5061918"><ele>450.3333333333333</ele><time>2026-04-23T07:43:08.832Z</time></trkpt><trkpt lat="43.0532561" lon="11.5064434"><ele>451.66666666666663</ele><time>2026-04-23T07:43:09.844Z</time></trkpt><trkpt lat="43.0532074" lon="11.5067002"><ele>453.0</ele><time>2026-04-23T07:43:10.84Z</time></trkpt><trkpt lat="43.0531634" lon="11.5069447"><ele>450.33333333333337</ele><time>2026-04-23T07:43:11.842Z</time></trkpt><trkpt lat="43.0531249" lon="11.5071883"><ele>447.6666666666667</ele><time>2026-04-23T07:43:12.838Z</time></trkpt><trkpt lat="43.0530916" lon="11.50743"><ele>445.0</ele><time>2026-04-23T07:43:13.839Z</time></trkpt><trkpt lat="43.0530549" lon="11.5076643"><ele>445.0</ele><time>2026-04-23T07:43:14.838Z</time></trkpt><trkpt lat="43.0530243" lon="11.5079012"><ele>445.0</ele><time>2026-04-23T07:43:15.839Z</time></trkpt><trkpt lat="43.0529992" lon="11.5081379"><ele>445.0</ele><time>2026-04-23T07:43:16.841Z</time></trkpt><trkpt lat="43.0529804" lon="11.5083719"><ele>442.0</ele><time>2026-04-23T07:43:17.84Z</time></trkpt><trkpt lat="43.0529772" lon="11.5086049"><ele>439.0</ele><time>2026-04-23T07:43:18.841Z</time></trkpt><trkpt lat="43.0529924" lon="11.5088343"><ele>436.0</ele><time>2026-04-23T07:43:19.84Z</time></trkpt><trkpt lat="43.0530292" lon="11.5090702"><ele>433.33333333333337</ele><time>2026-04-23T07:43:20.838Z</time></trkpt><trkpt lat="43.0530767" lon="11.5092985"><ele>430.66666666666663</ele><time>2026-04-23T07:43:21.835Z</time></trkpt><trkpt lat="43.0531313" lon="11.5095224"><ele>428.0</ele><time>2026-04-23T07:43:22.841Z</time></trkpt><trkpt lat="43.0531926" lon="11.5097436"><ele>427.0</ele><time>2026-04-23T07:43:23.843Z</time></trkpt><trkpt lat="43.0532668" lon="11.5099545"><ele>426.0</ele><time>2026-04-23T07:43:24.84Z</time></trkpt><trkpt lat="43.0533625" lon="11.5101506"><ele>425.0</ele><time>2026-04-23T07:43:25.841Z</time></trkpt><trkpt lat="43.0534887" lon="11.5103189"><ele>422.66666666666663</ele><time>2026-04-23T07:43:26.837Z</time></trkpt><trkpt lat="43.0536399" lon="11.5104558"><ele>420.33333333333337</ele><time>2026-04-23T07:43:27.83Z</time></trkpt><trkpt lat="43.0538066" lon="11.5105695"><ele>418.0</ele><time>2026-04-23T07:43:28.836Z</time></trkpt><trkpt lat="43.0539831" lon="11.5106445"><ele>417.33333333333337</ele><time>2026-04-23T07:43:29.839Z</time></trkpt><trkpt lat="43.0541637" lon="11.5106757"><ele>416.66666666666663</ele><time>2026-04-23T07:43:30.836Z</time></trkpt><trkpt lat="43.0543408" lon="11.510653"><ele>416.0</ele><time>2026-04-23T07:43:31.844Z</time></trkpt><trkpt lat="43.0545057" lon="11.5105598"><ele>416.0</ele><time>2026-04-23T07:43:32.836Z</time></trkpt><trkpt lat="43.0546626" lon="11.5104191"><ele>416.0</ele><time>2026-04-23T07:43:33.833Z</time></trkpt><trkpt lat="43.0548044" lon="11.5102365"><ele>416.0</ele><time>2026-04-23T07:43:34.834Z</time></trkpt><trkpt lat="43.0549269" lon="11.5100248"><ele>415.3333333333333</ele><time>2026-04-23T07:43:35.835Z</time></trkpt><trkpt lat="43.0550254" lon="11.5097925"><ele>414.66666666666663</ele><time>2026-04-23T07:43:36.838Z</time></trkpt><trkpt lat="43.0551131" lon="11.5095461"><ele>414.0</ele><time>2026-04-23T07:43:37.836Z</time></trkpt><trkpt lat="43.0551957" lon="11.5093076"><ele>414.0</ele><time>2026-04-23T07:43:38.831Z</time></trkpt><trkpt lat="43.055278" lon="11.5090894"><ele>414.0</ele><time>2026-04-23T07:43:39.836Z</time></trkpt><trkpt lat="43.0553776" lon="11.5088856"><ele>414.0</ele><time>2026-04-23T07:43:40.841Z</time></trkpt><trkpt lat="43.0555064" lon="11.5087096"><ele>414.33333333333337</ele><time>2026-04-23T07:43:41.837Z</time></trkpt><trkpt lat="43.0556431" lon="11.5085573"><ele>414.6666666666667</ele><time>2026-04-23T07:43:42.841Z</time></trkpt><trkpt lat="43.0557712" lon="11.5084204"><ele>415.0</ele><time>2026-04-23T07:43:43.834Z</time></trkpt><trkpt lat="43.0558879" lon="11.5082845"><ele>409.33333333333337</ele><time>2026-04-23T07:43:44.836Z</time></trkpt><trkpt lat="43.0559767" lon="11.5081239"><ele>403.66666666666663</ele><time>2026-04-23T07:43:45.835Z</time></trkpt><trkpt lat="43.05602" lon="11.5079178"><ele>398.0</ele><time>2026-04-23T07:43:46.834Z</time></trkpt><trkpt lat="43.0560228" lon="11.5076774"><ele>397.3333333333333</ele><time>2026-04-23T07:43:47.838Z</time></trkpt><trkpt lat="43.0559957" lon="11.5074352"><ele>396.66666666666663</ele><time>2026-04-23T07:43:48.833Z</time></trkpt><trkpt lat="43.0559458" lon="11.507207"><ele>396.0</ele><time>2026-04-23T07:43:49.838Z</time></trkpt><trkpt lat="43.0558669" lon="11.507001"><ele>398.0</ele><time>2026-04-23T07:43:50.836Z</time></trkpt><trkpt lat="43.0557509" lon="11.5068087"><ele>400.0</ele><time>2026-04-23T07:43:51.841Z</time></trkpt><trkpt lat="43.0556237" lon="11.5066326"><ele>402.0</ele><time>2026-04-23T07:43:52.841Z</time></trkpt><trkpt lat="43.0555142" lon="11.5064521"><ele>402.66666666666663</ele><time>2026-04-23T07:43:53.841Z</time></trkpt><trkpt lat="43.0554447" lon="11.5062393"><ele>403.3333333333333</ele><time>2026-04-23T07:43:54.839Z</time></trkpt><trkpt lat="43.0554204" lon="11.5060003"><ele>404.0</ele><time>2026-04-23T07:43:55.838Z</time></trkpt><trkpt lat="43.0554779" lon="11.5057412"><ele>404.0</ele><time>2026-04-23T07:43:56.831Z</time></trkpt><trkpt lat="43.0555906" lon="11.505481"><ele>404.0</ele><time>2026-04-23T07:43:57.833Z</time></trkpt><trkpt lat="43.0557155" lon="11.505226"><ele>404.0</ele><time>2026-04-23T07:43:58.834Z</time></trkpt><trkpt lat="43.055817" lon="11.5049771"><ele>399.3333333333333</ele><time>2026-04-23T07:43:59.836Z</time></trkpt><trkpt lat="43.0559252" lon="11.5047432"><ele>394.66666666666663</ele><time>2026-04-23T07:44:00.836Z</time></trkpt><trkpt lat="43.0560332" lon="11.5045312"><ele>390.0</ele><time>2026-04-23T07:44:01.834Z</time></trkpt><trkpt lat="43.0561442" lon="11.5043291"><ele>390.0</ele><time>2026-04-23T07:44:02.827Z</time></trkpt><trkpt lat="43.0562734" lon="11.5041487"><ele>390.0</ele><time>2026-04-23T07:44:03.833Z</time></trkpt><trkpt lat="43.0564203" lon="11.5039976"><ele>390.0</ele><time>2026-04-23T07:44:04.834Z</time></trkpt><trkpt lat="43.0565845" lon="11.5038738"><ele>388.0</ele><time>2026-04-23T07:44:05.837Z</time></trkpt><trkpt lat="43.056763" lon="11.5037606"><ele>386.0</ele><time>2026-04-23T07:44:06.83Z</time></trkpt><trkpt lat="43.056946" lon="11.5036579"><ele>384.0</ele><time>2026-04-23T07:44:07.83Z</time></trkpt><trkpt lat="43.0571258" lon="11.5035656"><ele>384.0</ele><time>2026-04-23T07:44:08.834Z</time></trkpt><trkpt lat="43.0573054" lon="11.5034929"><ele>384.0</ele><time>2026-04-23T07:44:09.832Z</time></trkpt><trkpt lat="43.0574767" lon="11.5034394"><ele>384.0</ele><time>2026-04-23T07:44:10.84Z</time></trkpt><trkpt lat="43.0576275" lon="11.503375"><ele>381.75</ele><time>2026-04-23T07:44:11.834Z</time></trkpt><trkpt lat="43.0577532" lon="11.5032777"><ele>379.5</ele><time>2026-04-23T07:44:12.834Z</time></trkpt><trkpt lat="43.0578384" lon="11.5031266"><ele>377.25</ele><time>2026-04-23T07:44:13.831Z</time></trkpt><trkpt lat="43.0578632" lon="11.5029129"><ele>375.0</ele><time>2026-04-23T07:44:14.829Z</time></trkpt><trkpt lat="43.057848" lon="11.5026754"><ele>375.0</ele><time>2026-04-23T07:44:15.833Z</time></trkpt><trkpt lat="43.0578248" lon="11.5024446"><ele>375.0</ele><time>2026-04-23T07:44:16.833Z</time></trkpt><trkpt lat="43.0578322" lon="11.5022448"><ele>375.0</ele><time>2026-04-23T07:44:17.835Z</time></trkpt><trkpt lat="43.0578957" lon="11.5020863"><ele>375.0</ele><time>2026-04-23T07:44:18.832Z</time></trkpt><trkpt lat="43.0580391" lon="11.5019935"><ele>374.3333333333333</ele><time>2026-04-23T07:44:19.829Z</time></trkpt><trkpt lat="43.0582037" lon="11.5019578"><ele>373.66666666666663</ele><time>2026-04-23T07:44:20.832Z</time></trkpt><trkpt lat="43.0583769" lon="11.501969"><ele>373.0</ele><time>2026-04-23T07:44:21.836Z</time></trkpt><trkpt lat="43.0585543" lon="11.5020368"><ele>369.0</ele><time>2026-04-23T07:44:22.833Z</time></trkpt><trkpt lat="43.0587083" lon="11.502154"><ele>365.0</ele><time>2026-04-23T07:44:23.836Z</time></trkpt><trkpt lat="43.0588377" lon="11.5023481"><ele>361.0</ele><time>2026-04-23T07:44:24.83Z</time></trkpt><trkpt lat="43.0589737" lon="11.5025512"><ele>361.0</ele><time>2026-04-23T07:44:25.83Z</time></trkpt><trkpt lat="43.0590971" lon="11.5027299"><ele>361.0</ele><time>2026-04-23T07:44:26.83Z</time></trkpt><trkpt lat="43.0592149" lon="11.5028774"><ele>361.0</ele><time>2026-04-23T07:44:27.836Z</time></trkpt><trkpt lat="43.05934" lon="11.5029879"><ele>354.66666666666663</ele><time>2026-04-23T07:44:28.832Z</time></trkpt><trkpt lat="43.059491" lon="11.5030631"><ele>348.3333333333333</ele><time>2026-04-23T07:44:29.829Z</time></trkpt><trkpt lat="43.059653" lon="11.5030936"><ele>342.0</ele><time>2026-04-23T07:44:30.832Z</time></trkpt><trkpt lat="43.0598199" lon="11.5031062"><ele>340.6666666666667</ele><time>2026-04-23T07:44:31.832Z</time></trkpt><trkpt lat="43.0599801" lon="11.5030986"><ele>339.33333333333337</ele><time>2026-04-23T07:44:32.834Z</time></trkpt><trkpt lat="43.0601353" lon="11.5030749"><ele>338.0</ele><time>2026-04-23T07:44:33.833Z</time></trkpt><trkpt lat="43.0602811" lon="11.5030142"><ele>344.0</ele><time>2026-04-23T07:44:34.832Z</time></trkpt><trkpt lat="43.0604134" lon="11.5029103"><ele>350.0</ele><time>2026-04-23T07:44:35.828Z</time></trkpt><trkpt lat="43.0605296" lon="11.5027662"><ele>356.0</ele><time>2026-04-23T07:44:36.832Z</time></trkpt><trkpt lat="43.0606242" lon="11.5026025"><ele>356.0</ele><time>2026-04-23T07:44:37.83Z</time></trkpt><trkpt lat="43.0607101" lon="11.5024344"><ele>356.0</ele><time>2026-04-23T07:44:38.838Z</time></trkpt><trkpt lat="43.0608017" lon="11.502271"><ele>356.0</ele><time>2026-04-23T07:44:39.833Z</time></trkpt><trkpt lat="43.0609116" lon="11.5021422"><ele>356.0</ele><time>2026-04-23T07:44:40.836Z</time></trkpt><trkpt lat="43.0610502" lon="11.5020559"><ele>354.0</ele><time>2026-04-23T07:44:41.829Z</time></trkpt><trkpt lat="43.0612046" lon="11.5020193"><ele>352.0</ele><time>2026-04-23T07:44:42.834Z</time></trkpt><trkpt lat="43.0613684" lon="11.5020163"><ele>350.0</ele><time>2026-04-23T07:44:43.838Z</time></trkpt><trkpt lat="43.0615235" lon="11.5019845"><ele>348.0</ele><time>2026-04-23T07:44:44.836Z</time></trkpt><trkpt lat="43.061663" lon="11.5019271"><ele>346.0</ele><time>2026-04-23T07:44:45.84Z</time></trkpt><trkpt lat="43.0617933" lon="11.5018513"><ele>344.0</ele><time>2026-04-23T07:44:46.834Z</time></trkpt><trkpt lat="43.0619088" lon="11.5017492"><ele>342.0</ele><time>2026-04-23T07:44:47.837Z</time></trkpt><trkpt lat="43.0620212" lon="11.5016409"><ele>342.0</ele><time>2026-04-23T07:44:48.836Z</time></trkpt><trkpt lat="43.0621298" lon="11.5015263"><ele>342.0</ele><time>2026-04-23T07:44:49.841Z</time></trkpt><trkpt lat="43.0622344" lon="11.5014184"><ele>342.0</ele><time>2026-04-23T07:44:50.836Z</time></trkpt><trkpt lat="43.0623356" lon="11.5013227"><ele>342.0</ele><time>2026-04-23T07:44:51.83Z</time></trkpt><trkpt lat="43.0624318" lon="11.5012366"><ele>341.0</ele><time>2026-04-23T07:44:52.837Z</time></trkpt><trkpt lat="43.0625234" lon="11.501159"><ele>340.0</ele><time>2026-04-23T07:44:53.843Z</time></trkpt><trkpt lat="43.0626118" lon="11.501095"><ele>339.0</ele><time>2026-04-23T07:44:54.836Z</time></trkpt><trkpt lat="43.0626975" lon="11.5010465"><ele>338.0</ele><time>2026-04-23T07:44:55.832Z</time></trkpt><trkpt lat="43.062784" lon="11.501011"><ele>337.0</ele><time>2026-04-23T07:44:56.837Z</time></trkpt><trkpt lat="43.0628738" lon="11.5009931"><ele>337.0</ele><time>2026-04-23T07:44:57.841Z</time></trkpt><trkpt lat="43.0629702" lon="11.5009893"><ele>337.0</ele><time>2026-04-23T07:44:58.833Z</time></trkpt><trkpt lat="43.0630654" lon="11.5010091"><ele>337.0</ele><time>2026-04-23T07:44:59.839Z</time></trkpt><trkpt lat="43.0631549" lon="11.5010473"><ele>337.0</ele><time>2026-04-23T07:45:00.835Z</time></trkpt><trkpt lat="43.0632371" lon="11.5010937"><ele>337.0</ele><time>2026-04-23T07:45:01.832Z</time></trkpt><trkpt lat="43.0633123" lon="11.5011402"><ele>336.14285714285717</ele><time>2026-04-23T07:45:02.832Z</time></trkpt><trkpt lat="43.063382" lon="11.5011838"><ele>335.2857142857143</ele><time>2026-04-23T07:45:03.832Z</time></trkpt><trkpt lat="43.0634494" lon="11.5012222"><ele>334.42857142857144</ele><time>2026-04-23T07:45:04.836Z</time></trkpt><trkpt lat="43.0635149" lon="11.5012522"><ele>333.57142857142856</ele><time>2026-04-23T07:45:05.831Z</time></trkpt><trkpt lat="43.0635767" lon="11.5012773"><ele>332.7142857142857</ele><time>2026-04-23T07:45:06.832Z</time></trkpt><trkpt lat="43.0636386" lon="11.5013039"><ele>331.8571428571429</ele><time>2026-04-23T07:45:07.837Z</time></trkpt><trkpt lat="43.0636983" lon="11.5013339"><ele>331.0</ele><time>2026-04-23T07:45:08.83Z</time></trkpt><trkpt lat="43.0638162" lon="11.5013886"><ele>329.0</ele><time>2026-04-23T07:45:10.833Z</time></trkpt><trkpt lat="43.063931" lon="11.5014455"><ele>327.0</ele><time>2026-04-23T07:45:12.838Z</time></trkpt><trkpt lat="43.0640507" lon="11.5015017"><ele>325.0</ele><time>2026-04-23T07:45:14.84Z</time></trkpt><trkpt lat="43.0641676" lon="11.5015607"><ele>323.0</ele><time>2026-04-23T07:45:16.841Z</time></trkpt><trkpt lat="43.0642836" lon="11.5016256"><ele>322.79999999999995</ele><time>2026-04-23T07:45:18.837Z</time></trkpt><trkpt lat="43.0644031" lon="11.5016835"><ele>322.6</ele><time>2026-04-23T07:45:20.834Z</time></trkpt><trkpt lat="43.0644722" lon="11.5017097"><ele>322.4</ele><time>2026-04-23T07:45:21.835Z</time></trkpt><trkpt lat="43.0645583" lon="11.5017309"><ele>322.20000000000005</ele><time>2026-04-23T07:45:22.834Z</time></trkpt><trkpt lat="43.0646647" lon="11.5017416"><ele>322.0</ele><time>2026-04-23T07:45:23.84Z</time></trkpt><trkpt lat="43.0647779" lon="11.5017424"><ele>322.0</ele><time>2026-04-23T07:45:24.833Z</time></trkpt><trkpt lat="43.0648923" lon="11.5017274"><ele>322.0</ele><time>2026-04-23T07:45:25.84Z</time></trkpt><trkpt lat="43.0649985" lon="11.5016886"><ele>322.0</ele><time>2026-04-23T07:45:26.838Z</time></trkpt><trkpt lat="43.0650941" lon="11.5016324"><ele>322.0</ele><time>2026-04-23T07:45:27.833Z</time></trkpt><trkpt lat="43.0651788" lon="11.5015578"><ele>322.0</ele><time>2026-04-23T07:45:28.836Z</time></trkpt><trkpt lat="43.0652556" lon="11.501469"><ele>321.8</ele><time>2026-04-23T07:45:29.835Z</time></trkpt><trkpt lat="43.065321" lon="11.5013606"><ele>321.6</ele><time>2026-04-23T07:45:30.84Z</time></trkpt><trkpt lat="43.0653792" lon="11.501243"><ele>321.40000000000003</ele><time>2026-04-23T07:45:31.837Z</time></trkpt><trkpt lat="43.0654361" lon="11.5011195"><ele>321.20000000000005</ele><time>2026-04-23T07:45:32.837Z</time></trkpt><trkpt lat="43.0654918" lon="11.5009997"><ele>321.0</ele><time>2026-04-23T07:45:33.836Z</time></trkpt><trkpt lat="43.0655463" lon="11.5008851"><ele>321.0</ele><time>2026-04-23T07:45:34.832Z</time></trkpt><trkpt lat="43.0655977" lon="11.5007738"><ele>321.0</ele><time>2026-04-23T07:45:35.838Z</time></trkpt><trkpt lat="43.0656506" lon="11.5006705"><ele>321.0</ele><time>2026-04-23T07:45:36.832Z</time></trkpt><trkpt lat="43.0657041" lon="11.5005631"><ele>321.0</ele><time>2026-04-23T07:45:37.838Z</time></trkpt><trkpt lat="43.0657609" lon="11.5004554"><ele>321.0</ele><time>2026-04-23T07:45:38.838Z</time></trkpt><trkpt lat="43.0658325" lon="11.5003523"><ele>319.25</ele><time>2026-04-23T07:45:39.834Z</time></trkpt><trkpt lat="43.0659234" lon="11.5002597"><ele>317.5</ele><time>2026-04-23T07:45:40.835Z</time></trkpt><trkpt lat="43.0660292" lon="11.5001843"><ele>315.75</ele><time>2026-04-23T07:45:41.835Z</time></trkpt><trkpt lat="43.0661408" lon="11.5001302"><ele>314.0</ele><time>2026-04-23T07:45:42.835Z</time></trkpt><trkpt lat="43.0662465" lon="11.5000982"><ele>314.0</ele><time>2026-04-23T07:45:43.84Z</time></trkpt><trkpt lat="43.0663429" lon="11.5000802"><ele>314.0</ele><time>2026-04-23T07:45:44.833Z</time></trkpt><trkpt lat="43.066429" lon="11.5000604"><ele>314.0</ele><time>2026-04-23T07:45:45.837Z</time></trkpt><trkpt lat="43.0665196" lon="11.5000318"><ele>314.0</ele><time>2026-04-23T07:45:46.836Z</time></trkpt><trkpt lat="43.0666201" lon="11.4999887"><ele>314.0</ele><time>2026-04-23T07:45:47.835Z</time></trkpt><trkpt lat="43.0667355" lon="11.4999276"><ele>311.33333333333337</ele><time>2026-04-23T07:45:48.841Z</time></trkpt><trkpt lat="43.066864" lon="11.4998491"><ele>308.6666666666667</ele><time>2026-04-23T07:45:49.834Z</time></trkpt><trkpt lat="43.0670037" lon="11.4997585"><ele>306.0</ele><time>2026-04-23T07:45:50.836Z</time></trkpt><trkpt lat="43.0671526" lon="11.4996584"><ele>305.3333333333333</ele><time>2026-04-23T07:45:51.837Z</time></trkpt><trkpt lat="43.067307" lon="11.4995524"><ele>304.66666666666663</ele><time>2026-04-23T07:45:52.84Z</time></trkpt><trkpt lat="43.0674679" lon="11.4994504"><ele>304.0</ele><time>2026-04-23T07:45:53.838Z</time></trkpt><trkpt lat="43.0676368" lon="11.4993504"><ele>304.0</ele><time>2026-04-23T07:45:54.836Z</time></trkpt><trkpt lat="43.0678149" lon="11.4992629"><ele>304.0</ele><time>2026-04-23T07:45:55.838Z</time></trkpt><trkpt lat="43.0679973" lon="11.4991902"><ele>304.0</ele><time>2026-04-23T07:45:56.842Z</time></trkpt><trkpt lat="43.0681833" lon="11.4991259"><ele>300.66666666666663</ele><time>2026-04-23T07:45:57.833Z</time></trkpt><trkpt lat="43.0683737" lon="11.4990719"><ele>297.3333333333333</ele><time>2026-04-23T07:45:58.838Z</time></trkpt><trkpt lat="43.068565" lon="11.4990103"><ele>294.0</ele><time>2026-04-23T07:45:59.842Z</time></trkpt><trkpt lat="43.068762" lon="11.4989517"><ele>294.0</ele><time>2026-04-23T07:46:00.837Z</time></trkpt><trkpt lat="43.0689609" lon="11.4988941"><ele>294.0</ele><time>2026-04-23T07:46:01.841Z</time></trkpt><trkpt lat="43.0691584" lon="11.4988334"><ele>294.0</ele><time>2026-04-23T07:46:02.835Z</time></trkpt><trkpt lat="43.0693574" lon="11.4987731"><ele>292.3333333333333</ele><time>2026-04-23T07:46:03.835Z</time></trkpt><trkpt lat="43.0695558" lon="11.4987126"><ele>290.66666666666663</ele><time>2026-04-23T07:46:04.831Z</time></trkpt><trkpt lat="43.0697545" lon="11.4986559"><ele>289.0</ele><time>2026-04-23T07:46:05.84Z</time></trkpt><trkpt lat="43.069951" lon="11.4985925"><ele>287.66666666666663</ele><time>2026-04-23T07:46:06.841Z</time></trkpt><trkpt lat="43.0701409" lon="11.4985058"><ele>286.3333333333333</ele><time>2026-04-23T07:46:07.842Z</time></trkpt><trkpt lat="43.0703227" lon="11.4983906"><ele>285.0</ele><time>2026-04-23T07:46:08.837Z</time></trkpt><trkpt lat="43.0705061" lon="11.4982621"><ele>285.0</ele><time>2026-04-23T07:46:09.839Z</time></trkpt><trkpt lat="43.0706881" lon="11.4981272"><ele>285.0</ele><time>2026-04-23T07:46:10.834Z</time></trkpt><trkpt lat="43.0708694" lon="11.4979851"><ele>285.0</ele><time>2026-04-23T07:46:11.834Z</time></trkpt><trkpt lat="43.0710513" lon="11.4978462"><ele>282.3333333333333</ele><time>2026-04-23T07:46:12.841Z</time></trkpt><trkpt lat="43.0712318" lon="11.4977033"><ele>279.66666666666663</ele><time>2026-04-23T07:46:13.84Z</time></trkpt><trkpt lat="43.0714126" lon="11.4975562"><ele>277.0</ele><time>2026-04-23T07:46:14.834Z</time></trkpt><trkpt lat="43.0715978" lon="11.4974161"><ele>278.0</ele><time>2026-04-23T07:46:15.841Z</time></trkpt><trkpt lat="43.0717828" lon="11.4972783"><ele>279.0</ele><time>2026-04-23T07:46:16.835Z</time></trkpt><trkpt lat="43.0719672" lon="11.4971388"><ele>280.0</ele><time>2026-04-23T07:46:17.835Z</time></trkpt><trkpt lat="43.0721531" lon="11.4969992"><ele>278.66666666666663</ele><time>2026-04-23T07:46:18.835Z</time></trkpt><trkpt lat="43.0723398" lon="11.4968582"><ele>277.3333333333333</ele><time>2026-04-23T07:46:19.833Z</time></trkpt><trkpt lat="43.0725299" lon="11.4967215"><ele>276.0</ele><time>2026-04-23T07:46:20.86Z</time></trkpt><trkpt lat="43.0727226" lon="11.4965936"><ele>276.0</ele><time>2026-04-23T07:46:21.848Z</time></trkpt><trkpt lat="43.0729178" lon="11.4964771"><ele>276.0</ele><time>2026-04-23T07:46:22.852Z</time></trkpt><trkpt lat="43.0731181" lon="11.4963748"><ele>276.0</ele><time>2026-04-23T07:46:23.837Z</time></trkpt><trkpt lat="43.0733223" lon="11.49629"><ele>272.3333333333333</ele><time>2026-04-23T07:46:24.855Z</time></trkpt><trkpt lat="43.073527" lon="11.4962034"><ele>268.66666666666663</ele><time>2026-04-23T07:46:25.842Z</time></trkpt><trkpt lat="43.0737321" lon="11.4961033"><ele>265.0</ele><time>2026-04-23T07:46:26.861Z</time></trkpt><trkpt lat="43.0739345" lon="11.4959917"><ele>264.66666666666663</ele><time>2026-04-23T07:46:27.855Z</time></trkpt><trkpt lat="43.0741293" lon="11.4958588"><ele>264.3333333333333</ele><time>2026-04-23T07:46:28.85Z</time></trkpt><trkpt lat="43.0743175" lon="11.4957061"><ele>264.0</ele><time>2026-04-23T07:46:29.845Z</time></trkpt><trkpt lat="43.0745021" lon="11.4955361"><ele>262.0</ele><time>2026-04-23T07:46:30.847Z</time></trkpt><trkpt lat="43.0746946" lon="11.4953756"><ele>260.0</ele><time>2026-04-23T07:46:31.855Z</time></trkpt><trkpt lat="43.0748858" lon="11.4952127"><ele>259.0</ele><time>2026-04-23T07:46:32.853Z</time></trkpt><trkpt lat="43.0750774" lon="11.4950504"><ele>258.0</ele><time>2026-04-23T07:46:33.858Z</time></trkpt><trkpt lat="43.0752687" lon="11.4948873"><ele>258.0</ele><time>2026-04-23T07:46:34.855Z</time></trkpt><trkpt lat="43.0754602" lon="11.4947272"><ele>258.0</ele><time>2026-04-23T07:46:35.846Z</time></trkpt><trkpt lat="43.0756487" lon="11.4945624"><ele>258.0</ele><time>2026-04-23T07:46:36.859Z</time></trkpt><trkpt lat="43.0758317" lon="11.4943908"><ele>256.3333333333333</ele><time>2026-04-23T07:46:37.845Z</time></trkpt><trkpt lat="43.0760116" lon="11.4942119"><ele>254.66666666666666</ele><time>2026-04-23T07:46:38.836Z</time></trkpt><trkpt lat="43.07619" lon="11.4940279"><ele>253.0</ele><time>2026-04-23T07:46:39.839Z</time></trkpt><trkpt lat="43.0763648" lon="11.4938394"><ele>252.66666666666666</ele><time>2026-04-23T07:46:40.847Z</time></trkpt><trkpt lat="43.0765352" lon="11.4936551"><ele>252.33333333333331</ele><time>2026-04-23T07:46:41.852Z</time></trkpt><trkpt lat="43.0766985" lon="11.4934815"><ele>252.0</ele><time>2026-04-23T07:46:42.846Z</time></trkpt><trkpt lat="43.0768561" lon="11.4933225"><ele>251.66666666666669</ele><time>2026-04-23T07:46:43.845Z</time></trkpt><trkpt lat="43.0770152" lon="11.4931813"><ele>251.33333333333334</ele><time>2026-04-23T07:46:44.848Z</time></trkpt><trkpt lat="43.0771778" lon="11.4930614"><ele>251.0</ele><time>2026-04-23T07:46:45.836Z</time></trkpt><trkpt lat="43.0773411" lon="11.49297"><ele>250.8</ele><time>2026-04-23T07:46:46.841Z</time></trkpt><trkpt lat="43.0774849" lon="11.4929009"><ele>250.60000000000002</ele><time>2026-04-23T07:46:47.838Z</time></trkpt><trkpt lat="43.0775761" lon="11.4928536"><ele>250.4</ele><time>2026-04-23T07:46:48.837Z</time></trkpt><trkpt lat="43.0776626" lon="11.4928427"><ele>250.2</ele><time>2026-04-23T07:46:50.841Z</time></trkpt><trkpt lat="43.0777291" lon="11.4929211"><ele>250.0</ele><time>2026-04-23T07:46:52.835Z</time></trkpt><trkpt lat="43.0777929" lon="11.4929942"><ele>249.99999999999997</ele><time>2026-04-23T07:46:54.833Z</time></trkpt><trkpt lat="43.077902" lon="11.4930859"><ele>250.0</ele><time>2026-04-23T07:46:56.838Z</time></trkpt><trkpt lat="43.0779659" lon="11.493144"><ele>250.0</ele><time>2026-04-23T07:46:57.84Z</time></trkpt><trkpt lat="43.0780284" lon="11.4932002"><ele>250.0</ele><time>2026-04-23T07:46:58.836Z</time></trkpt><trkpt lat="43.0780867" lon="11.4932632"><ele>249.99999999999997</ele><time>2026-04-23T07:46:59.841Z</time></trkpt><trkpt lat="43.0781406" lon="11.493331"><ele>250.0</ele><time>2026-04-23T07:47:00.837Z</time></trkpt><trkpt lat="43.0781933" lon="11.4934062"><ele>249.99999999999997</ele><time>2026-04-23T07:47:01.842Z</time></trkpt><trkpt lat="43.0782483" lon="11.4934878"><ele>250.0</ele><time>2026-04-23T07:47:02.835Z</time></trkpt><trkpt lat="43.0783058" lon="11.4935749"><ele>250.0</ele><time>2026-04-23T07:47:03.843Z</time></trkpt><trkpt lat="43.0783658" lon="11.4936641"><ele>250.0</ele><time>2026-04-23T07:47:04.842Z</time></trkpt><trkpt lat="43.078427" lon="11.4937571"><ele>249.99999999999997</ele><time>2026-04-23T07:47:05.835Z</time></trkpt><trkpt lat="43.0784891" lon="11.4938525"><ele>250.0</ele><time>2026-04-23T07:47:06.84Z</time></trkpt><trkpt lat="43.0785513" lon="11.4939428"><ele>250.8</ele><time>2026-04-23T07:47:07.832Z</time></trkpt><trkpt lat="43.0786089" lon="11.4940366"><ele>251.6</ele><time>2026-04-23T07:47:08.839Z</time></trkpt><trkpt lat="43.0786608" lon="11.4941364"><ele>252.39999999999998</ele><time>2026-04-23T07:47:09.833Z</time></trkpt><trkpt lat="43.078709" lon="11.4942415"><ele>253.2</ele><time>2026-04-23T07:47:10.838Z</time></trkpt><trkpt lat="43.0787533" lon="11.4943503"><ele>254.0</ele><time>2026-04-23T07:47:11.839Z</time></trkpt><trkpt lat="43.0787953" lon="11.4944636"><ele>254.0</ele><time>2026-04-23T07:47:12.839Z</time></trkpt><trkpt lat="43.0788385" lon="11.4945831"><ele>253.99999999999997</ele><time>2026-04-23T07:47:13.842Z</time></trkpt><trkpt lat="43.0788825" lon="11.4947037"><ele>253.99999999999997</ele><time>2026-04-23T07:47:14.841Z</time></trkpt><trkpt lat="43.078923" lon="11.4948247"><ele>254.0</ele><time>2026-04-23T07:47:15.838Z</time></trkpt><trkpt lat="43.0789612" lon="11.4949484"><ele>254.0</ele><time>2026-04-23T07:47:16.835Z</time></trkpt><trkpt lat="43.0789966" lon="11.4950737"><ele>254.0</ele><time>2026-04-23T07:47:17.836Z</time></trkpt><trkpt lat="43.079033" lon="11.4951963"><ele>253.99999999999997</ele><time>2026-04-23T07:47:18.838Z</time></trkpt><trkpt lat="43.0790709" lon="11.4953191"><ele>253.99999999999997</ele><time>2026-04-23T07:47:19.834Z</time></trkpt><trkpt lat="43.0791098" lon="11.4954412"><ele>254.0</ele><time>2026-04-23T07:47:20.837Z</time></trkpt><trkpt lat="43.0791536" lon="11.4955643"><ele>254.0</ele><time>2026-04-23T07:47:21.842Z</time></trkpt><trkpt lat="43.0791977" lon="11.4956877"><ele>255.6</ele><time>2026-04-23T07:47:22.836Z</time></trkpt><trkpt lat="43.0792453" lon="11.4958191"><ele>257.2</ele><time>2026-04-23T07:47:23.834Z</time></trkpt><trkpt lat="43.0792933" lon="11.4959653"><ele>258.79999999999995</ele><time>2026-04-23T07:47:24.834Z</time></trkpt><trkpt lat="43.0793392" lon="11.4961027"><ele>260.4</ele><time>2026-04-23T07:47:25.836Z</time></trkpt><trkpt lat="43.0793764" lon="11.4962178"><ele>262.0</ele><time>2026-04-23T07:47:26.841Z</time></trkpt><trkpt lat="43.0794065" lon="11.4963082"><ele>262.6</ele><time>2026-04-23T07:47:27.832Z</time></trkpt><trkpt lat="43.0794494" lon="11.4964305"><ele>263.2</ele><time>2026-04-23T07:47:29.833Z</time></trkpt><trkpt lat="43.0794801" lon="11.4965095"><ele>263.8</ele><time>2026-04-23T07:47:30.837Z</time></trkpt><trkpt lat="43.079512" lon="11.4966145"><ele>264.4</ele><time>2026-04-23T07:47:31.832Z</time></trkpt><trkpt lat="43.0795336" lon="11.4967533"><ele>265.0</ele><time>2026-04-23T07:47:32.836Z</time></trkpt><trkpt lat="43.0795379" lon="11.4969046"><ele>265.0</ele><time>2026-04-23T07:47:33.844Z</time></trkpt><trkpt lat="43.0795453" lon="11.4970395"><ele>265.0</ele><time>2026-04-23T07:47:34.841Z</time></trkpt><trkpt lat="43.0795604" lon="11.4971622"><ele>265.0</ele><time>2026-04-23T07:47:35.833Z</time></trkpt><trkpt lat="43.0795784" lon="11.4972606"><ele>265.0</ele><time>2026-04-23T07:47:36.83Z</time></trkpt><trkpt lat="43.0796069" lon="11.4973833"><ele>265.0</ele><time>2026-04-23T07:47:38.831Z</time></trkpt><trkpt lat="43.0796298" lon="11.4974768"><ele>265.0</ele><time>2026-04-23T07:48:45.847Z</time></trkpt><trkpt lat="43.0796587" lon="11.4975665"><ele>264.5</ele><time>2026-04-23T07:48:46.851Z</time></trkpt><trkpt lat="43.0797136" lon="11.4977149"><ele>264.0</ele><time>2026-04-23T07:48:47.857Z</time></trkpt><trkpt lat="43.0797703" lon="11.4978888"><ele>263.5</ele><time>2026-04-23T07:48:48.849Z</time></trkpt><trkpt lat="43.0798334" lon="11.4980929"><ele>263.0</ele><time>2026-04-23T07:48:49.849Z</time></trkpt><trkpt lat="43.0799013" lon="11.4983135"><ele>264.25</ele><time>2026-04-23T07:48:50.842Z</time></trkpt><trkpt lat="43.079967" lon="11.4985116"><ele>265.5</ele><time>2026-04-23T07:48:51.839Z</time></trkpt><trkpt lat="43.080035" lon="11.498664"><ele>266.75</ele><time>2026-04-23T07:48:52.84Z</time></trkpt><trkpt lat="43.0801249" lon="11.4987993"><ele>268.0</ele><time>2026-04-23T07:48:53.846Z</time></trkpt><trkpt lat="43.0802273" lon="11.4989309"><ele>268.0</ele><time>2026-04-23T07:48:54.841Z</time></trkpt><trkpt lat="43.0803257" lon="11.4990694"><ele>268.0</ele><time>2026-04-23T07:48:55.836Z</time></trkpt><trkpt lat="43.0804153" lon="11.4991977"><ele>268.0</ele><time>2026-04-23T07:48:56.841Z</time></trkpt><trkpt lat="43.0804997" lon="11.4993218"><ele>268.0</ele><time>2026-04-23T07:48:57.836Z</time></trkpt><trkpt lat="43.0805885" lon="11.4994524"><ele>268.0</ele><time>2026-04-23T07:48:58.837Z</time></trkpt><trkpt lat="43.080689" lon="11.4996048"><ele>268.0</ele><time>2026-04-23T07:48:59.836Z</time></trkpt><trkpt lat="43.0807965" lon="11.4997717"><ele>268.0</ele><time>2026-04-23T07:49:00.842Z</time></trkpt><trkpt lat="43.0809111" lon="11.4999382"><ele>268.0</ele><time>2026-04-23T07:49:01.838Z</time></trkpt><trkpt lat="43.0810313" lon="11.5000897"><ele>268.0</ele><time>2026-04-23T07:49:02.84Z</time></trkpt><trkpt lat="43.0811569" lon="11.500214"><ele>268.0</ele><time>2026-04-23T07:49:03.843Z</time></trkpt><trkpt lat="43.0812851" lon="11.5003049"><ele>268.0</ele><time>2026-04-23T07:49:04.838Z</time></trkpt><trkpt lat="43.0814268" lon="11.5003564"><ele>268.0</ele><time>2026-04-23T07:49:05.836Z</time></trkpt><trkpt lat="43.0815867" lon="11.500383"><ele>268.0</ele><time>2026-04-23T07:49:06.838Z</time></trkpt><trkpt lat="43.0817609" lon="11.5004036"><ele>267.66666666666663</ele><time>2026-04-23T07:49:07.836Z</time></trkpt><trkpt lat="43.0819402" lon="11.5004292"><ele>267.3333333333333</ele><time>2026-04-23T07:49:08.837Z</time></trkpt><trkpt lat="43.0821092" lon="11.5004647"><ele>267.0</ele><time>2026-04-23T07:49:09.839Z</time></trkpt><trkpt lat="43.0822683" lon="11.5005112"><ele>267.0</ele><time>2026-04-23T07:49:10.841Z</time></trkpt><trkpt lat="43.082428" lon="11.5005686"><ele>267.0</ele><time>2026-04-23T07:49:11.833Z</time></trkpt><trkpt lat="43.0825834" lon="11.5006442"><ele>267.0</ele><time>2026-04-23T07:49:12.835Z</time></trkpt><trkpt lat="43.0827404" lon="11.5007362"><ele>267.0</ele><time>2026-04-23T07:49:13.837Z</time></trkpt><trkpt lat="43.0829066" lon="11.5008349"><ele>267.0</ele><time>2026-04-23T07:49:14.838Z</time></trkpt><trkpt lat="43.083088" lon="11.5009467"><ele>267.0</ele><time>2026-04-23T07:49:15.833Z</time></trkpt><trkpt lat="43.0832749" lon="11.5010619"><ele>267.0</ele><time>2026-04-23T07:49:16.84Z</time></trkpt><trkpt lat="43.0834653" lon="11.5011788"><ele>267.0</ele><time>2026-04-23T07:49:17.84Z</time></trkpt><trkpt lat="43.083648" lon="11.5012943"><ele>267.0</ele><time>2026-04-23T07:49:18.834Z</time></trkpt><trkpt lat="43.0838152" lon="11.5014014"><ele>267.0</ele><time>2026-04-23T07:49:19.838Z</time></trkpt><trkpt lat="43.0839621" lon="11.501495"><ele>267.0</ele><time>2026-04-23T07:49:20.835Z</time></trkpt><trkpt lat="43.084087" lon="11.5015706"><ele>267.0</ele><time>2026-04-23T07:49:21.837Z</time></trkpt><trkpt lat="43.0841739" lon="11.5016278"><ele>267.0</ele><time>2026-04-23T07:49:22.836Z</time></trkpt><trkpt lat="43.084247" lon="11.501732"><ele>267.25</ele><time>2026-04-23T07:49:24.836Z</time></trkpt><trkpt lat="43.0842394" lon="11.501916"><ele>267.5</ele><time>2026-04-23T07:49:26.832Z</time></trkpt><trkpt lat="43.0841954" lon="11.5020764"><ele>267.75</ele><time>2026-04-23T07:49:27.838Z</time></trkpt><trkpt lat="43.0841395" lon="11.5022878"><ele>268.0</ele><time>2026-04-23T07:49:28.836Z</time></trkpt><trkpt lat="43.0840814" lon="11.5025194"><ele>268.0</ele><time>2026-04-23T07:49:29.839Z</time></trkpt><trkpt lat="43.0840345" lon="11.5027569"><ele>268.0</ele><time>2026-04-23T07:49:30.838Z</time></trkpt><trkpt lat="43.0840208" lon="11.5030108"><ele>268.0</ele><time>2026-04-23T07:49:31.839Z</time></trkpt><trkpt lat="43.0840264" lon="11.5032637"><ele>270.0</ele><time>2026-04-23T07:49:32.834Z</time></trkpt><trkpt lat="43.0840378" lon="11.503509"><ele>272.0</ele><time>2026-04-23T07:49:33.841Z</time></trkpt><trkpt lat="43.0840253" lon="11.503723"><ele>274.0</ele><time>2026-04-23T07:49:34.837Z</time></trkpt><trkpt lat="43.0839761" lon="11.5039152"><ele>275.25</ele><time>2026-04-23T07:49:35.835Z</time></trkpt><trkpt lat="43.0839087" lon="11.5040946"><ele>276.5</ele><time>2026-04-23T07:49:36.833Z</time></trkpt><trkpt lat="43.0838251" lon="11.5042261"><ele>277.75</ele><time>2026-04-23T07:49:37.84Z</time></trkpt><trkpt lat="43.0837373" lon="11.5043151"><ele>279.0</ele><time>2026-04-23T07:49:38.834Z</time></trkpt><trkpt lat="43.0836394" lon="11.5043491"><ele>279.0</ele><time>2026-04-23T07:49:39.835Z</time></trkpt><trkpt lat="43.0835152" lon="11.504322"><ele>279.0</ele><time>2026-04-23T07:49:40.841Z</time></trkpt><trkpt lat="43.0833759" lon="11.5042549"><ele>279.0</ele><time>2026-04-23T07:49:41.835Z</time></trkpt><trkpt lat="43.083236" lon="11.5041995"><ele>279.0</ele><time>2026-04-23T07:49:42.844Z</time></trkpt><trkpt lat="43.0831067" lon="11.5041722"><ele>281.25</ele><time>2026-04-23T07:49:43.84Z</time></trkpt><trkpt lat="43.0829958" lon="11.5041942"><ele>283.5</ele><time>2026-04-23T07:49:44.835Z</time></trkpt><trkpt lat="43.0829167" lon="11.504294"><ele>285.75</ele><time>2026-04-23T07:49:45.837Z</time></trkpt><trkpt lat="43.0828425" lon="11.5044332"><ele>288.0</ele><time>2026-04-23T07:49:46.843Z</time></trkpt><trkpt lat="43.0827694" lon="11.5046008"><ele>289.6666666666667</ele><time>2026-04-23T07:49:47.842Z</time></trkpt><trkpt lat="43.0826898" lon="11.5047862"><ele>291.33333333333337</ele><time>2026-04-23T07:49:48.843Z</time></trkpt><trkpt lat="43.0825979" lon="11.5049828"><ele>293.0</ele><time>2026-04-23T07:49:49.835Z</time></trkpt><trkpt lat="43.0824894" lon="11.5051837"><ele>293.33333333333337</ele><time>2026-04-23T07:49:50.846Z</time></trkpt><trkpt lat="43.0823706" lon="11.5053996"><ele>293.6666666666667</ele><time>2026-04-23T07:49:51.833Z</time></trkpt><trkpt lat="43.082241" lon="11.5056183"><ele>294.0</ele><time>2026-04-23T07:49:52.832Z</time></trkpt><trkpt lat="43.0821052" lon="11.505841"><ele>296.0</ele><time>2026-04-23T07:49:53.844Z</time></trkpt><trkpt lat="43.0819686" lon="11.5060681"><ele>298.0</ele><time>2026-04-23T07:49:54.84Z</time></trkpt><trkpt lat="43.0818369" lon="11.5062908"><ele>300.0</ele><time>2026-04-23T07:49:55.841Z</time></trkpt><trkpt lat="43.0817173" lon="11.5065016"><ele>300.0</ele><time>2026-04-23T07:49:56.839Z</time></trkpt><trkpt lat="43.0816079" lon="11.5066856"><ele>300.0</ele><time>2026-04-23T07:49:57.841Z</time></trkpt><trkpt lat="43.0815082" lon="11.5068503"><ele>300.0</ele><time>2026-04-23T07:49:58.834Z</time></trkpt><trkpt lat="43.0814139" lon="11.5070078"><ele>301.75</ele><time>2026-04-23T07:49:59.843Z</time></trkpt><trkpt lat="43.0813216" lon="11.5071629"><ele>303.5</ele><time>2026-04-23T07:50:00.837Z</time></trkpt><trkpt lat="43.0812265" lon="11.5073136"><ele>305.25</ele><time>2026-04-23T07:50:01.831Z</time></trkpt><trkpt lat="43.0811338" lon="11.5074641"><ele>307.0</ele><time>2026-04-23T07:50:02.835Z</time></trkpt><trkpt lat="43.0810441" lon="11.507617"><ele>307.0</ele><time>2026-04-23T07:50:03.84Z</time></trkpt><trkpt lat="43.0809553" lon="11.5077717"><ele>307.0</ele><time>2026-04-23T07:50:04.838Z</time></trkpt><trkpt lat="43.080864" lon="11.5079273"><ele>307.0</ele><time>2026-04-23T07:50:05.842Z</time></trkpt><trkpt lat="43.0807728" lon="11.5080833"><ele>307.0</ele><time>2026-04-23T07:50:06.841Z</time></trkpt><trkpt lat="43.0806814" lon="11.508238"><ele>307.0</ele><time>2026-04-23T07:50:07.836Z</time></trkpt><trkpt lat="43.0805931" lon="11.5083908"><ele>307.0</ele><time>2026-04-23T07:50:08.83Z</time></trkpt><trkpt lat="43.0805048" lon="11.5085514"><ele>307.0</ele><time>2026-04-23T07:50:09.832Z</time></trkpt><trkpt lat="43.0804145" lon="11.5087305"><ele>307.0</ele><time>2026-04-23T07:50:10.836Z</time></trkpt><trkpt lat="43.0803239" lon="11.5089156"><ele>306.3333333333333</ele><time>2026-04-23T07:50:11.834Z</time></trkpt><trkpt lat="43.0802277" lon="11.5091201"><ele>305.6666666666667</ele><time>2026-04-23T07:50:12.837Z</time></trkpt><trkpt lat="43.080128" lon="11.5093398"><ele>305.0</ele><time>2026-04-23T07:50:13.834Z</time></trkpt><trkpt lat="43.0800448" lon="11.509542"><ele>305.75</ele><time>2026-04-23T07:50:14.839Z</time></trkpt><trkpt lat="43.0799824" lon="11.5097182"><ele>306.5</ele><time>2026-04-23T07:50:15.833Z</time></trkpt><trkpt lat="43.0799384" lon="11.5098962"><ele>307.25</ele><time>2026-04-23T07:50:16.841Z</time></trkpt><trkpt lat="43.0799112" lon="11.5100786"><ele>308.0</ele><time>2026-04-23T07:50:17.834Z</time></trkpt><trkpt lat="43.0799061" lon="11.5102712"><ele>309.0</ele><time>2026-04-23T07:50:18.836Z</time></trkpt><trkpt lat="43.079914" lon="11.5104714"><ele>310.0</ele><time>2026-04-23T07:50:19.833Z</time></trkpt><trkpt lat="43.0799294" lon="11.5106841"><ele>311.0</ele><time>2026-04-23T07:50:20.834Z</time></trkpt><trkpt lat="43.0799511" lon="11.5109008"><ele>311.0</ele><time>2026-04-23T07:50:21.837Z</time></trkpt><trkpt lat="43.0799706" lon="11.5111108"><ele>311.0</ele><time>2026-04-23T07:50:22.837Z</time></trkpt><trkpt lat="43.08" lon="11.5113043"><ele>311.0</ele><time>2026-04-23T07:50:23.839Z</time></trkpt><trkpt lat="43.0800531" lon="11.5114848"><ele>311.0</ele><time>2026-04-23T07:50:24.836Z</time></trkpt><trkpt lat="43.080129" lon="11.5116683"><ele>310.6666666666667</ele><time>2026-04-23T07:50:25.834Z</time></trkpt><trkpt lat="43.0802225" lon="11.5118538"><ele>310.3333333333333</ele><time>2026-04-23T07:50:26.832Z</time></trkpt><trkpt lat="43.0803344" lon="11.5120493"><ele>310.0</ele><time>2026-04-23T07:50:27.84Z</time></trkpt><trkpt lat="43.0804539" lon="11.5122581"><ele>310.66666666666663</ele><time>2026-04-23T07:50:28.842Z</time></trkpt><trkpt lat="43.0805721" lon="11.5124686"><ele>311.3333333333333</ele><time>2026-04-23T07:50:29.838Z</time></trkpt><trkpt lat="43.0806782" lon="11.5126623"><ele>312.0</ele><time>2026-04-23T07:50:30.842Z</time></trkpt><trkpt lat="43.0807681" lon="11.5128365"><ele>315.0</ele><time>2026-04-23T07:50:31.836Z</time></trkpt><trkpt lat="43.0808537" lon="11.5129775"><ele>318.0</ele><time>2026-04-23T07:50:32.839Z</time></trkpt><trkpt lat="43.0809438" lon="11.5130853"><ele>321.0</ele><time>2026-04-23T07:50:33.837Z</time></trkpt><trkpt lat="43.0810449" lon="11.5131582"><ele>324.0</ele><time>2026-04-23T07:50:34.842Z</time></trkpt><trkpt lat="43.0811593" lon="11.5132005"><ele>324.0</ele><time>2026-04-23T07:50:35.843Z</time></trkpt><trkpt lat="43.0812869" lon="11.5132083"><ele>324.0</ele><time>2026-04-23T07:50:36.844Z</time></trkpt><trkpt lat="43.081421" lon="11.5131941"><ele>324.0</ele><time>2026-04-23T07:50:37.843Z</time></trkpt><trkpt lat="43.0815436" lon="11.5131876"><ele>324.0</ele><time>2026-04-23T07:50:38.838Z</time></trkpt><trkpt lat="43.081651" lon="11.5132183"><ele>324.75</ele><time>2026-04-23T07:50:39.838Z</time></trkpt><trkpt lat="43.0817535" lon="11.5133"><ele>325.5</ele><time>2026-04-23T07:50:40.834Z</time></trkpt><trkpt lat="43.0818542" lon="11.5134257"><ele>326.25</ele><time>2026-04-23T07:50:41.836Z</time></trkpt><trkpt lat="43.0819436" lon="11.5135692"><ele>327.0</ele><time>2026-04-23T07:50:42.841Z</time></trkpt><trkpt lat="43.0820246" lon="11.5137028"><ele>327.20000000000005</ele><time>2026-04-23T07:50:43.845Z</time></trkpt><trkpt lat="43.0820979" lon="11.5138214"><ele>327.4</ele><time>2026-04-23T07:50:44.834Z</time></trkpt><trkpt lat="43.0821726" lon="11.5139357"><ele>327.6</ele><time>2026-04-23T07:50:45.838Z</time></trkpt><trkpt lat="43.0822448" lon="11.5140438"><ele>327.79999999999995</ele><time>2026-04-23T07:50:46.841Z</time></trkpt><trkpt lat="43.0823173" lon="11.5141484"><ele>328.0</ele><time>2026-04-23T07:50:47.839Z</time></trkpt><trkpt lat="43.0823953" lon="11.5142455"><ele>327.79999999999995</ele><time>2026-04-23T07:50:48.841Z</time></trkpt><trkpt lat="43.0824763" lon="11.5143354"><ele>327.6</ele><time>2026-04-23T07:50:49.832Z</time></trkpt><trkpt lat="43.0825612" lon="11.5144155"><ele>327.4</ele><time>2026-04-23T07:50:50.836Z</time></trkpt><trkpt lat="43.08265" lon="11.5144911"><ele>327.20000000000005</ele><time>2026-04-23T07:50:51.836Z</time></trkpt><trkpt lat="43.0827419" lon="11.5145702"><ele>327.0</ele><time>2026-04-23T07:50:52.843Z</time></trkpt><trkpt lat="43.0828365" lon="11.5146539"><ele>327.0</ele><time>2026-04-23T07:50:53.838Z</time></trkpt><trkpt lat="43.08293" lon="11.5147373"><ele>327.0</ele><time>2026-04-23T07:50:54.838Z</time></trkpt><trkpt lat="43.0830252" lon="11.5148169"><ele>327.0</ele><time>2026-04-23T07:50:55.842Z</time></trkpt><trkpt lat="43.0831185" lon="11.5148795"><ele>327.0</ele><time>2026-04-23T07:50:56.839Z</time></trkpt><trkpt lat="43.0832112" lon="11.5149278"><ele>327.0</ele><time>2026-04-23T07:50:57.836Z</time></trkpt><trkpt lat="43.0832967" lon="11.514963"><ele>326.5</ele><time>2026-04-23T07:50:58.841Z</time></trkpt><trkpt lat="43.0833812" lon="11.5149938"><ele>326.0</ele><time>2026-04-23T07:50:59.836Z</time></trkpt><trkpt lat="43.083465" lon="11.5150171"><ele>325.5</ele><time>2026-04-23T07:51:00.841Z</time></trkpt><trkpt lat="43.0835495" lon="11.5150371"><ele>325.0</ele><time>2026-04-23T07:51:01.837Z</time></trkpt><trkpt lat="43.083634" lon="11.5150567"><ele>324.5</ele><time>2026-04-23T07:51:02.84Z</time></trkpt><trkpt lat="43.0837207" lon="11.5150742"><ele>324.0</ele><time>2026-04-23T07:51:03.842Z</time></trkpt><trkpt lat="43.0838102" lon="11.5150795"><ele>324.0</ele><time>2026-04-23T07:51:04.839Z</time></trkpt><trkpt lat="43.0838991" lon="11.5150734"><ele>324.0</ele><time>2026-04-23T07:51:05.841Z</time></trkpt><trkpt lat="43.083987" lon="11.5150442"><ele>324.0</ele><time>2026-04-23T07:51:06.835Z</time></trkpt><trkpt lat="43.0840726" lon="11.5150012"><ele>324.0</ele><time>2026-04-23T07:51:07.84Z</time></trkpt><trkpt lat="43.0841589" lon="11.5149384"><ele>324.0</ele><time>2026-04-23T07:51:08.838Z</time></trkpt><trkpt lat="43.0842457" lon="11.5148835"><ele>323.25</ele><time>2026-04-23T07:51:09.834Z</time></trkpt><trkpt lat="43.0843398" lon="11.5148393"><ele>322.5</ele><time>2026-04-23T07:51:10.837Z</time></trkpt><trkpt lat="43.0844477" lon="11.5148152"><ele>321.75</ele><time>2026-04-23T07:51:11.837Z</time></trkpt><trkpt lat="43.0845787" lon="11.5148164"><ele>321.0</ele><time>2026-04-23T07:51:12.839Z</time></trkpt><trkpt lat="43.0847348" lon="11.5148248"><ele>321.0</ele><time>2026-04-23T07:51:13.847Z</time></trkpt><trkpt lat="43.0849128" lon="11.5148398"><ele>321.0</ele><time>2026-04-23T07:51:14.833Z</time></trkpt><trkpt lat="43.0850787" lon="11.5148555"><ele>321.0</ele><time>2026-04-23T07:51:15.843Z</time></trkpt><trkpt lat="43.0852232" lon="11.5148729"><ele>320.0</ele><time>2026-04-23T07:51:16.833Z</time></trkpt><trkpt lat="43.085342" lon="11.5148984"><ele>319.0</ele><time>2026-04-23T07:51:17.834Z</time></trkpt><trkpt lat="43.0854517" lon="11.5149442"><ele>318.0</ele><time>2026-04-23T07:51:18.836Z</time></trkpt><trkpt lat="43.0855565" lon="11.5150183"><ele>317.0</ele><time>2026-04-23T07:51:19.839Z</time></trkpt><trkpt lat="43.0856553" lon="11.5151268"><ele>317.0</ele><time>2026-04-23T07:51:20.838Z</time></trkpt><trkpt lat="43.0857514" lon="11.5152641"><ele>317.0</ele><time>2026-04-23T07:51:21.842Z</time></trkpt><trkpt lat="43.0858412" lon="11.5153998"><ele>317.0</ele><time>2026-04-23T07:51:22.843Z</time></trkpt><trkpt lat="43.0859383" lon="11.5155209"><ele>317.0</ele><time>2026-04-23T07:51:23.841Z</time></trkpt><trkpt lat="43.0860518" lon="11.5156246"><ele>315.75</ele><time>2026-04-23T07:51:24.842Z</time></trkpt><trkpt lat="43.0861675" lon="11.5157214"><ele>314.5</ele><time>2026-04-23T07:51:25.837Z</time></trkpt><trkpt lat="43.0862707" lon="11.5158168"><ele>313.25</ele><time>2026-04-23T07:51:26.841Z</time></trkpt><trkpt lat="43.0863567" lon="11.5159258"><ele>312.0</ele><time>2026-04-23T07:51:27.838Z</time></trkpt><trkpt lat="43.08643" lon="11.516046"><ele>312.0</ele><time>2026-04-23T07:51:28.84Z</time></trkpt><trkpt lat="43.0864891" lon="11.5161653"><ele>312.0</ele><time>2026-04-23T07:51:29.835Z</time></trkpt><trkpt lat="43.0865379" lon="11.5162924"><ele>312.0</ele><time>2026-04-23T07:51:30.84Z</time></trkpt><trkpt lat="43.0865726" lon="11.5164233"><ele>312.0</ele><time>2026-04-23T07:51:31.834Z</time></trkpt><trkpt lat="43.0865866" lon="11.516556"><ele>312.0</ele><time>2026-04-23T07:51:32.847Z</time></trkpt><trkpt lat="43.0865868" lon="11.5166982"><ele>310.0</ele><time>2026-04-23T07:51:33.831Z</time></trkpt><trkpt lat="43.08658" lon="11.516869"><ele>308.0</ele><time>2026-04-23T07:51:34.838Z</time></trkpt><trkpt lat="43.0865601" lon="11.517066"><ele>306.0</ele><time>2026-04-23T07:51:35.837Z</time></trkpt><trkpt lat="43.0865349" lon="11.5172533"><ele>304.0</ele><time>2026-04-23T07:51:36.836Z</time></trkpt><trkpt lat="43.086518" lon="11.5174274"><ele>303.0</ele><time>2026-04-23T07:51:37.832Z</time></trkpt><trkpt lat="43.0865049" lon="11.5175858"><ele>302.0</ele><time>2026-04-23T07:51:38.835Z</time></trkpt><trkpt lat="43.0864906" lon="11.5177327"><ele>301.0</ele><time>2026-04-23T07:51:39.837Z</time></trkpt><trkpt lat="43.0864751" lon="11.5178649"><ele>300.0</ele><time>2026-04-23T07:51:40.841Z</time></trkpt><trkpt lat="43.0864605" lon="11.5179981"><ele>299.0</ele><time>2026-04-23T07:51:41.841Z</time></trkpt><trkpt lat="43.0864447" lon="11.5181391"><ele>298.25</ele><time>2026-04-23T07:51:42.836Z</time></trkpt><trkpt lat="43.0864299" lon="11.518291"><ele>297.5</ele><time>2026-04-23T07:51:43.847Z</time></trkpt><trkpt lat="43.0864143" lon="11.5184496"><ele>296.75</ele><time>2026-04-23T07:51:44.837Z</time></trkpt><trkpt lat="43.0863973" lon="11.5186191"><ele>296.0</ele><time>2026-04-23T07:51:45.833Z</time></trkpt><trkpt lat="43.0863776" lon="11.5187892"><ele>295.5</ele><time>2026-04-23T07:51:46.845Z</time></trkpt><trkpt lat="43.0863587" lon="11.5189629"><ele>295.0</ele><time>2026-04-23T07:51:47.839Z</time></trkpt><trkpt lat="43.0863396" lon="11.5191345"><ele>294.5</ele><time>2026-04-23T07:51:48.84Z</time></trkpt><trkpt lat="43.0863206" lon="11.519305"><ele>294.0</ele><time>2026-04-23T07:51:49.835Z</time></trkpt><trkpt lat="43.0863039" lon="11.5194757"><ele>294.5</ele><time>2026-04-23T07:51:50.839Z</time></trkpt><trkpt lat="43.0862886" lon="11.5196466"><ele>295.0</ele><time>2026-04-23T07:51:51.837Z</time></trkpt><trkpt lat="43.0862733" lon="11.5198171"><ele>295.5</ele><time>2026-04-23T07:51:52.836Z</time></trkpt><trkpt lat="43.0862578" lon="11.5199896"><ele>296.0</ele><time>2026-04-23T07:51:53.841Z</time></trkpt><trkpt lat="43.0862393" lon="11.5201624"><ele>296.0</ele><time>2026-04-23T07:51:54.838Z</time></trkpt><trkpt lat="43.0862113" lon="11.5203295"><ele>296.0</ele><time>2026-04-23T07:51:55.839Z</time></trkpt><trkpt lat="43.0861718" lon="11.5204888"><ele>296.0</ele><time>2026-04-23T07:51:56.843Z</time></trkpt><trkpt lat="43.0861183" lon="11.5206394"><ele>296.0</ele><time>2026-04-23T07:51:57.837Z</time></trkpt><trkpt lat="43.0860543" lon="11.5207858"><ele>296.5</ele><time>2026-04-23T07:51:58.839Z</time></trkpt><trkpt lat="43.0859775" lon="11.5209192"><ele>297.0</ele><time>2026-04-23T07:51:59.838Z</time></trkpt><trkpt lat="43.0858891" lon="11.521036"><ele>297.5</ele><time>2026-04-23T07:52:00.835Z</time></trkpt><trkpt lat="43.0857928" lon="11.5211413"><ele>298.0</ele><time>2026-04-23T07:52:01.84Z</time></trkpt><trkpt lat="43.0856897" lon="11.5212377"><ele>298.0</ele><time>2026-04-23T07:52:02.843Z</time></trkpt><trkpt lat="43.085579" lon="11.5213239"><ele>298.0</ele><time>2026-04-23T07:52:03.846Z</time></trkpt><trkpt lat="43.0854623" lon="11.5213997"><ele>298.0</ele><time>2026-04-23T07:52:04.842Z</time></trkpt><trkpt lat="43.0853426" lon="11.5214621"><ele>298.0</ele><time>2026-04-23T07:52:05.842Z</time></trkpt><trkpt lat="43.0852213" lon="11.5215186"><ele>298.0</ele><time>2026-04-23T07:52:06.842Z</time></trkpt><trkpt lat="43.0850975" lon="11.5215687"><ele>298.0</ele><time>2026-04-23T07:52:07.834Z</time></trkpt><trkpt lat="43.084976" lon="11.5216151"><ele>298.0</ele><time>2026-04-23T07:52:08.84Z</time></trkpt><trkpt lat="43.0848533" lon="11.5216613"><ele>298.0</ele><time>2026-04-23T07:52:09.844Z</time></trkpt><trkpt lat="43.0847262" lon="11.5217141"><ele>297.25</ele><time>2026-04-23T07:52:10.843Z</time></trkpt><trkpt lat="43.0845996" lon="11.5217722"><ele>296.5</ele><time>2026-04-23T07:52:11.835Z</time></trkpt><trkpt lat="43.0844733" lon="11.5218326"><ele>295.75</ele><time>2026-04-23T07:52:12.841Z</time></trkpt><trkpt lat="43.0843498" lon="11.5218932"><ele>295.0</ele><time>2026-04-23T07:52:13.847Z</time></trkpt><trkpt lat="43.0842271" lon="11.5219532"><ele>295.0</ele><time>2026-04-23T07:52:14.836Z</time></trkpt><trkpt lat="43.084103" lon="11.5220179"><ele>295.0</ele><time>2026-04-23T07:52:15.844Z</time></trkpt><trkpt lat="43.0839786" lon="11.5220853"><ele>295.0</ele><time>2026-04-23T07:52:16.841Z</time></trkpt><trkpt lat="43.0838597" lon="11.5221546"><ele>295.0</ele><time>2026-04-23T07:52:17.833Z</time></trkpt><trkpt lat="43.0837508" lon="11.5222351"><ele>296.0</ele><time>2026-04-23T07:52:18.842Z</time></trkpt><trkpt lat="43.083655" lon="11.5223324"><ele>297.0</ele><time>2026-04-23T07:52:19.842Z</time></trkpt><trkpt lat="43.0835732" lon="11.5224488"><ele>298.0</ele><time>2026-04-23T07:52:20.842Z</time></trkpt><trkpt lat="43.0835064" lon="11.522585"><ele>299.0</ele><time>2026-04-23T07:52:21.836Z</time></trkpt><trkpt lat="43.0834535" lon="11.5227316"><ele>299.0</ele><time>2026-04-23T07:52:22.838Z</time></trkpt><trkpt lat="43.0834155" lon="11.5228848"><ele>299.0</ele><time>2026-04-23T07:52:23.838Z</time></trkpt><trkpt lat="43.0833836" lon="11.5230382"><ele>299.0</ele><time>2026-04-23T07:52:24.834Z</time></trkpt><trkpt lat="43.0833464" lon="11.5231884"><ele>299.0</ele><time>2026-04-23T07:52:25.84Z</time></trkpt><trkpt lat="43.0833139" lon="11.52333"><ele>299.0</ele><time>2026-04-23T07:52:26.834Z</time></trkpt><trkpt lat="43.0832891" lon="11.5234576"><ele>299.0</ele><time>2026-04-23T07:52:27.83Z</time></trkpt><trkpt lat="43.0832699" lon="11.5235691"><ele>299.0</ele><time>2026-04-23T07:52:28.836Z</time></trkpt><trkpt lat="43.0832502" lon="11.5236649"><ele>299.0</ele><time>2026-04-23T07:52:29.837Z</time></trkpt><trkpt lat="43.0832118" lon="11.5238137"><ele>299.0</ele><time>2026-04-23T07:52:31.834Z</time></trkpt><trkpt lat="43.083166" lon="11.5239072"><ele>298.59999999999997</ele><time>2026-04-23T07:52:33.833Z</time></trkpt><trkpt lat="43.0831012" lon="11.5239977"><ele>298.2</ele><time>2026-04-23T07:52:35.837Z</time></trkpt><trkpt lat="43.0830388" lon="11.5240574"><ele>297.79999999999995</ele><time>2026-04-23T07:52:36.831Z</time></trkpt><trkpt lat="43.0829535" lon="11.5241197"><ele>297.4</ele><time>2026-04-23T07:52:37.834Z</time></trkpt><trkpt lat="43.0828489" lon="11.5241812"><ele>297.0</ele><time>2026-04-23T07:52:38.83Z</time></trkpt><trkpt lat="43.082724" lon="11.5242469"><ele>297.0</ele><time>2026-04-23T07:52:39.844Z</time></trkpt><trkpt lat="43.0825909" lon="11.5243287"><ele>297.0</ele><time>2026-04-23T07:52:40.84Z</time></trkpt><trkpt lat="43.0824687" lon="11.5244229"><ele>297.0</ele><time>2026-04-23T07:52:41.839Z</time></trkpt><trkpt lat="43.082353" lon="11.5245334"><ele>297.0</ele><time>2026-04-23T07:52:42.837Z</time></trkpt><trkpt lat="43.0822453" lon="11.5246568"><ele>295.3333333333333</ele><time>2026-04-23T07:52:43.833Z</time></trkpt><trkpt lat="43.0821325" lon="11.5247989"><ele>293.66666666666663</ele><time>2026-04-23T07:52:44.838Z</time></trkpt><trkpt lat="43.0820122" lon="11.5249616"><ele>292.0</ele><time>2026-04-23T07:52:45.834Z</time></trkpt><trkpt lat="43.0818792" lon="11.5251402"><ele>292.0</ele><time>2026-04-23T07:52:46.839Z</time></trkpt><trkpt lat="43.0817516" lon="11.5253158"><ele>292.0</ele><time>2026-04-23T07:52:47.835Z</time></trkpt><trkpt lat="43.0816384" lon="11.5254698"><ele>292.0</ele><time>2026-04-23T07:52:48.842Z</time></trkpt><trkpt lat="43.0815412" lon="11.5256161"><ele>292.25</ele><time>2026-04-23T07:52:49.841Z</time></trkpt><trkpt lat="43.0814585" lon="11.5257682"><ele>292.5</ele><time>2026-04-23T07:52:50.838Z</time></trkpt><trkpt lat="43.0813847" lon="11.5259276"><ele>292.75</ele><time>2026-04-23T07:52:51.841Z</time></trkpt><trkpt lat="43.0813152" lon="11.5261002"><ele>293.0</ele><time>2026-04-23T07:52:52.837Z</time></trkpt><trkpt lat="43.0812392" lon="11.5263004"><ele>294.0</ele><time>2026-04-23T07:52:53.845Z</time></trkpt><trkpt lat="43.0811533" lon="11.5265345"><ele>295.0</ele><time>2026-04-23T07:52:54.836Z</time></trkpt><trkpt lat="43.081057" lon="11.5267756"><ele>296.0</ele><time>2026-04-23T07:52:55.838Z</time></trkpt><trkpt lat="43.0809641" lon="11.5270077"><ele>296.6666666666667</ele><time>2026-04-23T07:52:56.844Z</time></trkpt><trkpt lat="43.0808837" lon="11.5272127"><ele>297.3333333333333</ele><time>2026-04-23T07:52:57.838Z</time></trkpt><trkpt lat="43.080809" lon="11.5273894"><ele>298.0</ele><time>2026-04-23T07:52:58.841Z</time></trkpt><trkpt lat="43.080737" lon="11.5275556"><ele>300.5</ele><time>2026-04-23T07:52:59.837Z</time></trkpt><trkpt lat="43.0806705" lon="11.5277125"><ele>303.0</ele><time>2026-04-23T07:53:00.841Z</time></trkpt><trkpt lat="43.0806058" lon="11.5278631"><ele>305.5</ele><time>2026-04-23T07:53:01.829Z</time></trkpt><trkpt lat="43.0805433" lon="11.5280213"><ele>308.0</ele><time>2026-04-23T07:53:02.83Z</time></trkpt><trkpt lat="43.0804799" lon="11.5281888"><ele>308.33333333333337</ele><time>2026-04-23T07:53:03.838Z</time></trkpt><trkpt lat="43.0804127" lon="11.5283717"><ele>308.6666666666667</ele><time>2026-04-23T07:53:04.834Z</time></trkpt><trkpt lat="43.0803452" lon="11.5285586"><ele>309.0</ele><time>2026-04-23T07:53:05.834Z</time></trkpt><trkpt lat="43.0802816" lon="11.528745"><ele>309.0</ele><time>2026-04-23T07:53:06.834Z</time></trkpt><trkpt lat="43.0802229" lon="11.5289173"><ele>309.0</ele><time>2026-04-23T07:53:07.833Z</time></trkpt><trkpt lat="43.0801716" lon="11.5290716"><ele>309.0</ele><time>2026-04-23T07:53:08.838Z</time></trkpt><trkpt lat="43.0801312" lon="11.5292112"><ele>309.0</ele><time>2026-04-23T07:53:09.83Z</time></trkpt><trkpt lat="43.0801037" lon="11.5293364"><ele>309.0</ele><time>2026-04-23T07:53:10.833Z</time></trkpt><trkpt lat="43.0800796" lon="11.5294404"><ele>309.0</ele><time>2026-04-23T07:53:11.836Z</time></trkpt><trkpt lat="43.0800609" lon="11.5295354"><ele>309.0</ele><time>2026-04-23T07:53:12.834Z</time></trkpt><trkpt lat="43.0800283" lon="11.5296856"><ele>309.0</ele><time>2026-04-23T07:53:14.834Z</time></trkpt><trkpt lat="43.0800078" lon="11.5298277"><ele>309.0</ele><time>2026-04-23T07:53:16.839Z</time></trkpt><trkpt lat="43.080005" lon="11.5299149"><ele>309.0</ele><time>2026-04-23T07:53:17.834Z</time></trkpt><trkpt lat="43.0799972" lon="11.5300665"><ele>308.4</ele><time>2026-04-23T07:53:19.838Z</time></trkpt><trkpt lat="43.0799945" lon="11.5301652"><ele>307.79999999999995</ele><time>2026-04-23T07:53:21.838Z</time></trkpt><trkpt lat="43.0800164" lon="11.5302607"><ele>307.20000000000005</ele><time>2026-04-23T07:53:25.835Z</time></trkpt><trkpt lat="43.0800097" lon="11.5303957"><ele>306.6</ele><time>2026-04-23T07:55:44.841Z</time></trkpt><trkpt lat="43.0800079" lon="11.530529"><ele>306.0</ele><time>2026-04-23T07:55:45.848Z</time></trkpt><trkpt lat="43.0800093" lon="11.5307011"><ele>305.75</ele><time>2026-04-23T07:55:46.852Z</time></trkpt><trkpt lat="43.080005" lon="11.5308756"><ele>305.5</ele><time>2026-04-23T07:55:47.848Z</time></trkpt><trkpt lat="43.0799937" lon="11.531042"><ele>305.25</ele><time>2026-04-23T07:55:48.859Z</time></trkpt><trkpt lat="43.0799752" lon="11.5312043"><ele>305.0</ele><time>2026-04-23T07:55:49.842Z</time></trkpt><trkpt lat="43.0799474" lon="11.5313562"><ele>303.4</ele><time>2026-04-23T07:55:50.854Z</time></trkpt><trkpt lat="43.0799111" lon="11.5314926"><ele>301.8</ele><time>2026-04-23T07:55:51.849Z</time></trkpt><trkpt lat="43.0798692" lon="11.531617"><ele>300.2</ele><time>2026-04-23T07:55:52.842Z</time></trkpt><trkpt lat="43.0798237" lon="11.5317338"><ele>298.6</ele><time>2026-04-23T07:55:53.847Z</time></trkpt><trkpt lat="43.0797781" lon="11.5318454"><ele>297.0</ele><time>2026-04-23T07:55:54.854Z</time></trkpt><trkpt lat="43.0797323" lon="11.531954"><ele>298.1666666666667</ele><time>2026-04-23T07:55:55.861Z</time></trkpt><trkpt lat="43.0796909" lon="11.5320615"><ele>299.3333333333333</ele><time>2026-04-23T07:55:56.857Z</time></trkpt><trkpt lat="43.0796577" lon="11.5321701"><ele>300.5</ele><time>2026-04-23T07:55:57.854Z</time></trkpt><trkpt lat="43.0796357" lon="11.532277"><ele>301.66666666666663</ele><time>2026-04-23T07:55:58.856Z</time></trkpt><trkpt lat="43.0796267" lon="11.5323751"><ele>302.8333333333333</ele><time>2026-04-23T07:55:59.854Z</time></trkpt><trkpt lat="43.0796336" lon="11.5324731"><ele>304.0</ele><time>2026-04-23T07:56:00.856Z</time></trkpt><trkpt lat="43.0796537" lon="11.5325763"><ele>304.0</ele><time>2026-04-23T07:56:01.853Z</time></trkpt><trkpt lat="43.0796831" lon="11.5326739"><ele>304.0</ele><time>2026-04-23T07:56:02.855Z</time></trkpt><trkpt lat="43.0797176" lon="11.5327637"><ele>304.0</ele><time>2026-04-23T07:56:03.843Z</time></trkpt><trkpt lat="43.0797507" lon="11.532859"><ele>304.0</ele><time>2026-04-23T07:56:04.854Z</time></trkpt><trkpt lat="43.0797785" lon="11.5329584"><ele>304.0</ele><time>2026-04-23T07:56:05.84Z</time></trkpt><trkpt lat="43.0798001" lon="11.5330587"><ele>304.0</ele><time>2026-04-23T07:56:06.846Z</time></trkpt><trkpt lat="43.0798153" lon="11.5331567"><ele>305.3333333333333</ele><time>2026-04-23T07:56:07.847Z</time></trkpt><trkpt lat="43.0798245" lon="11.5332499"><ele>306.66666666666663</ele><time>2026-04-23T07:56:08.851Z</time></trkpt><trkpt lat="43.0798231" lon="11.5333397"><ele>308.0</ele><time>2026-04-23T07:56:09.847Z</time></trkpt><trkpt lat="43.0797899" lon="11.5335005"><ele>309.3333333333333</ele><time>2026-04-23T07:56:11.858Z</time></trkpt><trkpt lat="43.0797718" lon="11.5335882"><ele>310.6666666666667</ele><time>2026-04-23T07:56:12.841Z</time></trkpt><trkpt lat="43.0797559" lon="11.5336776"><ele>312.0</ele><time>2026-04-23T07:56:13.841Z</time></trkpt><trkpt lat="43.0797469" lon="11.5337713"><ele>312.8333333333333</ele><time>2026-04-23T07:56:14.844Z</time></trkpt><trkpt lat="43.0797476" lon="11.5338723"><ele>313.6666666666667</ele><time>2026-04-23T07:56:15.848Z</time></trkpt><trkpt lat="43.0797576" lon="11.533979"><ele>314.5</ele><time>2026-04-23T07:56:16.847Z</time></trkpt><trkpt lat="43.0797733" lon="11.5340885"><ele>315.33333333333337</ele><time>2026-04-23T07:56:17.855Z</time></trkpt><trkpt lat="43.0797935" lon="11.534197"><ele>316.1666666666667</ele><time>2026-04-23T07:56:18.833Z</time></trkpt><trkpt lat="43.0798148" lon="11.5343023"><ele>317.0</ele><time>2026-04-23T07:56:19.846Z</time></trkpt><trkpt lat="43.0798389" lon="11.5344169"><ele>317.0</ele><time>2026-04-23T07:56:20.838Z</time></trkpt><trkpt lat="43.0798695" lon="11.5345357"><ele>317.0</ele><time>2026-04-23T07:56:21.863Z</time></trkpt><trkpt lat="43.0799047" lon="11.5346576"><ele>317.0</ele><time>2026-04-23T07:56:22.845Z</time></trkpt><trkpt lat="43.0799442" lon="11.5347804"><ele>317.0</ele><time>2026-04-23T07:56:23.847Z</time></trkpt><trkpt lat="43.0799951" lon="11.5349009"><ele>317.0</ele><time>2026-04-23T07:56:24.837Z</time></trkpt><trkpt lat="43.0800635" lon="11.5350177"><ele>315.8</ele><time>2026-04-23T07:56:25.848Z</time></trkpt><trkpt lat="43.0801396" lon="11.5351282"><ele>314.6</ele><time>2026-04-23T07:56:26.848Z</time></trkpt><trkpt lat="43.0802027" lon="11.5352319"><ele>313.40000000000003</ele><time>2026-04-23T07:56:27.838Z</time></trkpt><trkpt lat="43.0802459" lon="11.5353358"><ele>312.2</ele><time>2026-04-23T07:56:28.859Z</time></trkpt><trkpt lat="43.0802637" lon="11.5354385"><ele>311.0</ele><time>2026-04-23T07:56:29.84Z</time></trkpt><trkpt lat="43.080265" lon="11.5355594"><ele>310.0</ele><time>2026-04-23T07:56:30.841Z</time></trkpt><trkpt lat="43.0802742" lon="11.5357571"><ele>309.0</ele><time>2026-04-23T07:56:31.839Z</time></trkpt><trkpt lat="43.0802498" lon="11.5359038"><ele>308.0</ele><time>2026-04-23T07:56:32.855Z</time></trkpt><trkpt lat="43.0802465" lon="11.5360699"><ele>307.0</ele><time>2026-04-23T07:56:33.847Z</time></trkpt><trkpt lat="43.0802388" lon="11.536245"><ele>304.75</ele><time>2026-04-23T07:56:34.844Z</time></trkpt><trkpt lat="43.080248" lon="11.5364421"><ele>302.5</ele><time>2026-04-23T07:56:35.852Z</time></trkpt><trkpt lat="43.080261" lon="11.5366252"><ele>300.25</ele><time>2026-04-23T07:56:36.84Z</time></trkpt><trkpt lat="43.0802621" lon="11.536795"><ele>298.0</ele><time>2026-04-23T07:56:37.844Z</time></trkpt><trkpt lat="43.0802584" lon="11.5369434"><ele>296.6</ele><time>2026-04-23T07:56:38.842Z</time></trkpt><trkpt lat="43.0802594" lon="11.5370864"><ele>295.20000000000005</ele><time>2026-04-23T07:56:39.841Z</time></trkpt><trkpt lat="43.0802878" lon="11.5372156"><ele>293.8</ele><time>2026-04-23T07:56:40.841Z</time></trkpt><trkpt lat="43.0803395" lon="11.5373319"><ele>292.40000000000003</ele><time>2026-04-23T07:56:41.846Z</time></trkpt><trkpt lat="43.0804234" lon="11.5374311"><ele>291.0</ele><time>2026-04-23T07:56:42.848Z</time></trkpt><trkpt lat="43.0805325" lon="11.5375153"><ele>291.0</ele><time>2026-04-23T07:56:43.86Z</time></trkpt><trkpt lat="43.0806455" lon="11.5376013"><ele>291.0</ele><time>2026-04-23T07:56:44.845Z</time></trkpt><trkpt lat="43.0807196" lon="11.5377206"><ele>291.0</ele><time>2026-04-23T07:56:45.837Z</time></trkpt><trkpt lat="43.0807601" lon="11.5378944"><ele>291.0</ele><time>2026-04-23T07:56:46.835Z</time></trkpt><trkpt lat="43.0807856" lon="11.5381084"><ele>289.6666666666667</ele><time>2026-04-23T07:56:47.838Z</time></trkpt><trkpt lat="43.0808143" lon="11.5383443"><ele>288.33333333333337</ele><time>2026-04-23T07:56:48.845Z</time></trkpt><trkpt lat="43.080848" lon="11.5385962"><ele>287.0</ele><time>2026-04-23T07:56:49.843Z</time></trkpt><trkpt lat="43.0808845" lon="11.5388297"><ele>286.75</ele><time>2026-04-23T07:56:50.852Z</time></trkpt><trkpt lat="43.0809242" lon="11.5390398"><ele>286.5</ele><time>2026-04-23T07:56:51.84Z</time></trkpt><trkpt lat="43.0809687" lon="11.5392279"><ele>286.25</ele><time>2026-04-23T07:56:52.847Z</time></trkpt><trkpt lat="43.0810192" lon="11.5394075"><ele>286.0</ele><time>2026-04-23T07:56:53.838Z</time></trkpt><trkpt lat="43.0810929" lon="11.5395773"><ele>287.0</ele><time>2026-04-23T07:56:54.838Z</time></trkpt><trkpt lat="43.0811951" lon="11.5397442"><ele>288.0</ele><time>2026-04-23T07:56:55.84Z</time></trkpt><trkpt lat="43.0813162" lon="11.5398971"><ele>289.0</ele><time>2026-04-23T07:56:56.835Z</time></trkpt><trkpt lat="43.0814373" lon="11.5400411"><ele>289.0</ele><time>2026-04-23T07:56:57.838Z</time></trkpt><trkpt lat="43.0815452" lon="11.5401705"><ele>289.0</ele><time>2026-04-23T07:56:58.834Z</time></trkpt><trkpt lat="43.081625" lon="11.5403067"><ele>289.0</ele><time>2026-04-23T07:56:59.834Z</time></trkpt><trkpt lat="43.0816731" lon="11.5404533"><ele>289.0</ele><time>2026-04-23T07:57:00.843Z</time></trkpt><trkpt lat="43.0816995" lon="11.5406129"><ele>290.3333333333333</ele><time>2026-04-23T07:57:01.834Z</time></trkpt><trkpt lat="43.0817149" lon="11.5408079"><ele>291.6666666666667</ele><time>2026-04-23T07:57:02.835Z</time></trkpt><trkpt lat="43.0817296" lon="11.5410286"><ele>293.0</ele><time>2026-04-23T07:57:03.837Z</time></trkpt><trkpt lat="43.0817566" lon="11.5412745"><ele>294.0</ele><time>2026-04-23T07:57:04.84Z</time></trkpt><trkpt lat="43.0818009" lon="11.5415269"><ele>295.0</ele><time>2026-04-23T07:57:05.835Z</time></trkpt><trkpt lat="43.0818523" lon="11.5417494"><ele>296.0</ele><time>2026-04-23T07:57:06.842Z</time></trkpt><trkpt lat="43.0818946" lon="11.5419469"><ele>296.0</ele><time>2026-04-23T07:57:07.835Z</time></trkpt><trkpt lat="43.0819208" lon="11.5421391"><ele>296.0</ele><time>2026-04-23T07:57:08.837Z</time></trkpt><trkpt lat="43.0819256" lon="11.5423361"><ele>296.0</ele><time>2026-04-23T07:57:09.837Z</time></trkpt><trkpt lat="43.0819249" lon="11.5425079"><ele>296.0</ele><time>2026-04-23T07:57:10.842Z</time></trkpt><trkpt lat="43.0819337" lon="11.5426692"><ele>296.0</ele><time>2026-04-23T07:57:11.834Z</time></trkpt><trkpt lat="43.0819575" lon="11.5428038"><ele>296.0</ele><time>2026-04-23T07:57:12.836Z</time></trkpt><trkpt lat="43.0820119" lon="11.542917"><ele>296.0</ele><time>2026-04-23T07:57:13.837Z</time></trkpt><trkpt lat="43.0820919" lon="11.5429922"><ele>296.0</ele><time>2026-04-23T07:57:14.834Z</time></trkpt><trkpt lat="43.0821958" lon="11.5430447"><ele>296.0</ele><time>2026-04-23T07:57:15.842Z</time></trkpt><trkpt lat="43.0823376" lon="11.5430605"><ele>294.0</ele><time>2026-04-23T07:57:16.839Z</time></trkpt><trkpt lat="43.0825089" lon="11.5430666"><ele>292.0</ele><time>2026-04-23T07:57:17.833Z</time></trkpt><trkpt lat="43.0826902" lon="11.5431083"><ele>290.0</ele><time>2026-04-23T07:57:18.835Z</time></trkpt><trkpt lat="43.082862" lon="11.5431537"><ele>290.0</ele><time>2026-04-23T07:57:19.835Z</time></trkpt><trkpt lat="43.0830266" lon="11.5431888"><ele>290.0</ele><time>2026-04-23T07:57:20.843Z</time></trkpt><trkpt lat="43.0831876" lon="11.5432188"><ele>290.0</ele><time>2026-04-23T07:57:21.832Z</time></trkpt><trkpt lat="43.0833301" lon="11.5432535"><ele>289.0</ele><time>2026-04-23T07:57:22.846Z</time></trkpt><trkpt lat="43.0834507" lon="11.5432931"><ele>288.0</ele><time>2026-04-23T07:57:23.839Z</time></trkpt><trkpt lat="43.0835501" lon="11.5433253"><ele>287.0</ele><time>2026-04-23T07:57:24.84Z</time></trkpt><trkpt lat="43.083638" lon="11.5433364"><ele>286.0</ele><time>2026-04-23T07:57:25.834Z</time></trkpt><trkpt lat="43.0837211" lon="11.5433121"><ele>285.0</ele><time>2026-04-23T07:57:26.842Z</time></trkpt><trkpt lat="43.0838041" lon="11.5432515"><ele>285.0</ele><time>2026-04-23T07:57:27.837Z</time></trkpt><trkpt lat="43.0838909" lon="11.5431791"><ele>285.0</ele><time>2026-04-23T07:57:28.839Z</time></trkpt><trkpt lat="43.0839875" lon="11.5431368"><ele>285.0</ele><time>2026-04-23T07:57:29.839Z</time></trkpt><trkpt lat="43.0840981" lon="11.5431324"><ele>285.0</ele><time>2026-04-23T07:57:30.839Z</time></trkpt><trkpt lat="43.0842314" lon="11.5431783"><ele>282.3333333333333</ele><time>2026-04-23T07:57:31.834Z</time></trkpt><trkpt lat="43.0843857" lon="11.5432658"><ele>279.66666666666663</ele><time>2026-04-23T07:57:32.836Z</time></trkpt><trkpt lat="43.0845632" lon="11.5433668"><ele>277.0</ele><time>2026-04-23T07:57:33.839Z</time></trkpt><trkpt lat="43.0847494" lon="11.5434608"><ele>277.0</ele><time>2026-04-23T07:57:34.839Z</time></trkpt><trkpt lat="43.0849283" lon="11.5435547"><ele>277.0</ele><time>2026-04-23T07:57:35.836Z</time></trkpt><trkpt lat="43.0850857" lon="11.5436428"><ele>277.0</ele><time>2026-04-23T07:57:36.833Z</time></trkpt><trkpt lat="43.0852259" lon="11.5437258"><ele>275.6</ele><time>2026-04-23T07:57:37.831Z</time></trkpt><trkpt lat="43.0853424" lon="11.5438"><ele>274.2</ele><time>2026-04-23T07:57:38.837Z</time></trkpt><trkpt lat="43.0854481" lon="11.5438672"><ele>272.8</ele><time>2026-04-23T07:57:39.834Z</time></trkpt><trkpt lat="43.0855441" lon="11.5439251"><ele>271.4</ele><time>2026-04-23T07:57:40.834Z</time></trkpt><trkpt lat="43.0856334" lon="11.5439677"><ele>270.0</ele><time>2026-04-23T07:57:41.836Z</time></trkpt><trkpt lat="43.0857275" lon="11.5440007"><ele>270.0</ele><time>2026-04-23T07:57:42.832Z</time></trkpt><trkpt lat="43.0858299" lon="11.5440246"><ele>270.0</ele><time>2026-04-23T07:57:43.845Z</time></trkpt><trkpt lat="43.0859412" lon="11.5440413"><ele>270.0</ele><time>2026-04-23T07:57:44.839Z</time></trkpt><trkpt lat="43.0860548" lon="11.5440569"><ele>270.0</ele><time>2026-04-23T07:57:45.84Z</time></trkpt><trkpt lat="43.0861625" lon="11.5440717"><ele>270.0</ele><time>2026-04-23T07:57:46.839Z</time></trkpt><trkpt lat="43.0862668" lon="11.5440858"><ele>270.0</ele><time>2026-04-23T07:57:47.833Z</time></trkpt><trkpt lat="43.0863762" lon="11.5441128"><ele>270.0</ele><time>2026-04-23T07:57:48.837Z</time></trkpt><trkpt lat="43.0864936" lon="11.5441628"><ele>270.0</ele><time>2026-04-23T07:57:49.835Z</time></trkpt><trkpt lat="43.0866142" lon="11.5442443"><ele>270.0</ele><time>2026-04-23T07:57:50.841Z</time></trkpt><trkpt lat="43.0867292" lon="11.5443379"><ele>270.25</ele><time>2026-04-23T07:57:51.836Z</time></trkpt><trkpt lat="43.0868401" lon="11.5444346"><ele>270.5</ele><time>2026-04-23T07:57:52.834Z</time></trkpt><trkpt lat="43.0869423" lon="11.5445267"><ele>270.75</ele><time>2026-04-23T07:57:53.836Z</time></trkpt><trkpt lat="43.0870286" lon="11.5446152"><ele>271.0</ele><time>2026-04-23T07:57:54.841Z</time></trkpt><trkpt lat="43.087094" lon="11.5447001"><ele>271.0</ele><time>2026-04-23T07:57:55.837Z</time></trkpt><trkpt lat="43.0871409" lon="11.5448063"><ele>271.0</ele><time>2026-04-23T07:57:57.837Z</time></trkpt><trkpt lat="43.0871173" lon="11.5448985"><ele>271.0</ele><time>2026-04-23T07:57:59.836Z</time></trkpt><trkpt lat="43.0870495" lon="11.5450599"><ele>271.0</ele><time>2026-04-23T07:58:01.838Z</time></trkpt><trkpt lat="43.0870048" lon="11.5451664"><ele>271.0</ele><time>2026-04-23T07:58:02.837Z</time></trkpt><trkpt lat="43.0869624" lon="11.5452915"><ele>270.2</ele><time>2026-04-23T07:58:03.835Z</time></trkpt><trkpt lat="43.0869182" lon="11.5454203"><ele>269.40000000000003</ele><time>2026-04-23T07:58:04.832Z</time></trkpt><trkpt lat="43.086875" lon="11.5455463"><ele>268.6</ele><time>2026-04-23T07:58:05.839Z</time></trkpt><trkpt lat="43.0868369" lon="11.5456646"><ele>267.8</ele><time>2026-04-23T07:58:06.832Z</time></trkpt><trkpt lat="43.0868062" lon="11.5457756"><ele>267.0</ele><time>2026-04-23T07:58:07.835Z</time></trkpt><trkpt lat="43.0867784" lon="11.5458812"><ele>267.0</ele><time>2026-04-23T07:58:08.834Z</time></trkpt><trkpt lat="43.0867541" lon="11.5459853"><ele>267.0</ele><time>2026-04-23T07:58:09.838Z</time></trkpt><trkpt lat="43.0867313" lon="11.5460881"><ele>267.0</ele><time>2026-04-23T07:58:10.838Z</time></trkpt><trkpt lat="43.0867118" lon="11.5461893"><ele>267.0</ele><time>2026-04-23T07:58:11.833Z</time></trkpt><trkpt lat="43.0866906" lon="11.546291"><ele>267.0</ele><time>2026-04-23T07:58:12.836Z</time></trkpt><trkpt lat="43.0866646" lon="11.5463948"><ele>267.0</ele><time>2026-04-23T07:58:13.844Z</time></trkpt><trkpt lat="43.0866405" lon="11.5465012"><ele>266.8571428571429</ele><time>2026-04-23T07:58:14.839Z</time></trkpt><trkpt lat="43.0866142" lon="11.5466032"><ele>266.7142857142857</ele><time>2026-04-23T07:58:15.836Z</time></trkpt><trkpt lat="43.0865852" lon="11.5466997"><ele>266.57142857142856</ele><time>2026-04-23T07:58:16.838Z</time></trkpt><trkpt lat="43.0865619" lon="11.5467933"><ele>266.42857142857144</ele><time>2026-04-23T07:58:17.84Z</time></trkpt><trkpt lat="43.0865412" lon="11.5468865"><ele>266.2857142857143</ele><time>2026-04-23T07:58:18.836Z</time></trkpt><trkpt lat="43.0865279" lon="11.5469746"><ele>266.14285714285717</ele><time>2026-04-23T07:58:19.836Z</time></trkpt><trkpt lat="43.0865147" lon="11.5470619"><ele>266.0</ele><time>2026-04-23T07:58:20.836Z</time></trkpt><trkpt lat="43.0864896" lon="11.5472218"><ele>264.85714285714283</ele><time>2026-04-23T07:58:22.839Z</time></trkpt><trkpt lat="43.0864754" lon="11.5473073"><ele>263.7142857142857</ele><time>2026-04-23T07:58:23.843Z</time></trkpt><trkpt lat="43.0864579" lon="11.5473989"><ele>262.57142857142856</ele><time>2026-04-23T07:58:24.839Z</time></trkpt><trkpt lat="43.0864408" lon="11.5474946"><ele>261.42857142857144</ele><time>2026-04-23T07:58:25.843Z</time></trkpt><trkpt lat="43.0864228" lon="11.547589"><ele>260.2857142857143</ele><time>2026-04-23T07:58:26.832Z</time></trkpt><trkpt lat="43.0864044" lon="11.5476826"><ele>259.1428571428571</ele><time>2026-04-23T07:58:27.833Z</time></trkpt><trkpt lat="43.0863875" lon="11.5477706"><ele>258.0</ele><time>2026-04-23T07:58:28.836Z</time></trkpt><trkpt lat="43.0863706" lon="11.5478555"><ele>257.6666666666667</ele><time>2026-04-23T07:58:29.832Z</time></trkpt><trkpt lat="43.0863548" lon="11.5479913"><ele>257.3333333333333</ele><time>2026-04-23T07:58:31.83Z</time></trkpt><trkpt lat="43.0863904" lon="11.5480838"><ele>257.0</ele><time>2026-04-23T07:58:33.837Z</time></trkpt><trkpt lat="43.0864667" lon="11.5481327"><ele>256.66666666666663</ele><time>2026-04-23T07:58:35.836Z</time></trkpt><trkpt lat="43.0865546" lon="11.5481341"><ele>256.3333333333333</ele><time>2026-04-23T07:58:37.835Z</time></trkpt><trkpt lat="43.0866035" lon="11.5480633"><ele>256.0</ele><time>2026-04-23T07:58:39.835Z</time></trkpt><trkpt lat="43.0865683" lon="11.5479621"><ele>256.0</ele><time>2026-04-23T07:58:41.84Z</time></trkpt><trkpt lat="43.0864604" lon="11.5479105"><ele>256.0</ele><time>2026-04-23T07:58:43.837Z</time></trkpt><trkpt lat="43.0863817" lon="11.5478586"><ele>256.0</ele><time>2026-04-23T07:58:45.831Z</time></trkpt><trkpt lat="43.0864009" lon="11.5477276"><ele>256.0</ele><time>2026-04-23T07:58:47.833Z</time></trkpt><trkpt lat="43.0864184" lon="11.5476234"><ele>256.0</ele><time>2026-04-23T07:58:48.832Z</time></trkpt><trkpt lat="43.0864433" lon="11.5475031"><ele>256.3333333333333</ele><time>2026-04-23T07:58:49.832Z</time></trkpt><trkpt lat="43.0864714" lon="11.5473825"><ele>256.66666666666663</ele><time>2026-04-23T07:58:50.837Z</time></trkpt><trkpt lat="43.0865066" lon="11.5472606"><ele>257.0</ele><time>2026-04-23T07:58:51.835Z</time></trkpt><trkpt lat="43.0865361" lon="11.5471439"><ele>257.3333333333333</ele><time>2026-04-23T07:58:52.839Z</time></trkpt><trkpt lat="43.0865628" lon="11.5470374"><ele>257.6666666666667</ele><time>2026-04-23T07:58:53.834Z</time></trkpt><trkpt lat="43.0865874" lon="11.5469358"><ele>258.0</ele><time>2026-04-23T07:58:54.834Z</time></trkpt><trkpt lat="43.0866123" lon="11.5468325"><ele>259.3333333333333</ele><time>2026-04-23T07:58:55.835Z</time></trkpt><trkpt lat="43.0866386" lon="11.5467285"><ele>260.6666666666667</ele><time>2026-04-23T07:58:56.832Z</time></trkpt><trkpt lat="43.0866673" lon="11.5466185"><ele>262.0</ele><time>2026-04-23T07:58:57.837Z</time></trkpt><trkpt lat="43.0866982" lon="11.5465115"><ele>263.33333333333337</ele><time>2026-04-23T07:58:58.838Z</time></trkpt><trkpt lat="43.0867266" lon="11.5464075"><ele>264.6666666666667</ele><time>2026-04-23T07:58:59.837Z</time></trkpt><trkpt lat="43.0867517" lon="11.5463092"><ele>266.0</ele><time>2026-04-23T07:59:00.834Z</time></trkpt><trkpt lat="43.0867677" lon="11.5462193"><ele>266.2</ele><time>2026-04-23T07:59:01.839Z</time></trkpt><trkpt lat="43.0867931" lon="11.5460808"><ele>266.40000000000003</ele><time>2026-04-23T07:59:03.841Z</time></trkpt><trkpt lat="43.086824" lon="11.5459399"><ele>266.6</ele><time>2026-04-23T07:59:05.834Z</time></trkpt><trkpt lat="43.0868454" lon="11.5458417"><ele>266.8</ele><time>2026-04-23T07:59:06.839Z</time></trkpt><trkpt lat="43.0868748" lon="11.5457262"><ele>267.0</ele><time>2026-04-23T07:59:07.836Z</time></trkpt><trkpt lat="43.0869108" lon="11.5455963"><ele>267.0</ele><time>2026-04-23T07:59:08.839Z</time></trkpt><trkpt lat="43.0869526" lon="11.5454606"><ele>267.0</ele><time>2026-04-23T07:59:09.835Z</time></trkpt><trkpt lat="43.086991" lon="11.545338"><ele>267.0</ele><time>2026-04-23T07:59:10.835Z</time></trkpt><trkpt lat="43.0870252" lon="11.545233"><ele>267.0</ele><time>2026-04-23T07:59:11.84Z</time></trkpt><trkpt lat="43.0870559" lon="11.5451526"><ele>267.0</ele><time>2026-04-23T07:59:12.833Z</time></trkpt><trkpt lat="43.087111" lon="11.5450847"><ele>267.0</ele><time>2026-04-23T07:59:14.833Z</time></trkpt><trkpt lat="43.0871798" lon="11.545172"><ele>267.8</ele><time>2026-04-23T07:59:17.835Z</time></trkpt><trkpt lat="43.0872473" lon="11.5452251"><ele>268.6</ele><time>2026-04-23T07:59:18.838Z</time></trkpt><trkpt lat="43.0873404" lon="11.5452922"><ele>269.40000000000003</ele><time>2026-04-23T07:59:19.83Z</time></trkpt><trkpt lat="43.0874476" lon="11.5453703"><ele>270.2</ele><time>2026-04-23T07:59:20.839Z</time></trkpt><trkpt lat="43.087538" lon="11.5454335"><ele>271.0</ele><time>2026-04-23T07:59:21.836Z</time></trkpt><trkpt lat="43.0875013" lon="11.5455412"><ele>271.66666666666663</ele><time>2026-04-23T07:59:26.832Z</time></trkpt><trkpt lat="43.0874605" lon="11.5456471"><ele>272.3333333333333</ele><time>2026-04-23T07:59:28.833Z</time></trkpt><trkpt lat="43.0874378" lon="11.545741"><ele>273.0</ele><time>2026-04-23T07:59:30.837Z</time></trkpt><trkpt lat="43.0874671" lon="11.5458461"><ele>273.6666666666667</ele><time>2026-04-23T07:59:33.843Z</time></trkpt><trkpt lat="43.0875326" lon="11.5458474"><ele>274.33333333333337</ele><time>2026-04-23T07:59:35.832Z</time></trkpt><trkpt lat="43.0875764" lon="11.5457631"><ele>275.0</ele><time>2026-04-23T07:59:37.84Z</time></trkpt><trkpt lat="43.0876124" lon="11.5456525"><ele>275.0</ele><time>2026-04-23T07:59:39.834Z</time></trkpt><trkpt lat="43.0876343" lon="11.5455536"><ele>275.0</ele><time>2026-04-23T07:59:41.841Z</time></trkpt><trkpt lat="43.0875991" lon="11.5454592"><ele>275.0</ele><time>2026-04-23T07:59:43.842Z</time></trkpt><trkpt lat="43.0875139" lon="11.5453888"><ele>275.0</ele><time>2026-04-23T07:59:45.833Z</time></trkpt><trkpt lat="43.0874045" lon="11.5453176"><ele>275.0</ele><time>2026-04-23T07:59:47.83Z</time></trkpt><trkpt lat="43.0873372" lon="11.5452735"><ele>275.0</ele><time>2026-04-23T07:59:48.837Z</time></trkpt><trkpt lat="43.0872678" lon="11.5452293"><ele>274.33333333333337</ele><time>2026-04-23T07:59:49.832Z</time></trkpt><trkpt lat="43.0872042" lon="11.5451865"><ele>273.6666666666667</ele><time>2026-04-23T07:59:50.835Z</time></trkpt><trkpt lat="43.0871456" lon="11.5451474"><ele>273.0</ele><time>2026-04-23T07:59:51.83Z</time></trkpt><trkpt lat="43.0870701" lon="11.5450818"><ele>272.3333333333333</ele><time>2026-04-23T07:59:53.837Z</time></trkpt><trkpt lat="43.0871084" lon="11.5449456"><ele>271.66666666666663</ele><time>2026-04-23T07:59:56.833Z</time></trkpt><trkpt lat="43.0871672" lon="11.5448122"><ele>271.0</ele><time>2026-04-23T07:59:58.837Z</time></trkpt><trkpt lat="43.0872105" lon="11.5447314"><ele>271.0</ele><time>2026-04-23T08:00:00.837Z</time></trkpt><trkpt lat="43.0872019" lon="11.544636"><ele>271.0</ele><time>2026-04-23T08:00:03.83Z</time></trkpt><trkpt lat="43.0871334" lon="11.5447225"><ele>271.0</ele><time>2026-04-23T08:00:06.831Z</time></trkpt><trkpt lat="43.0870858" lon="11.5448674"><ele>271.0</ele><time>2026-04-23T08:00:08.831Z</time></trkpt><trkpt lat="43.0870588" lon="11.5449555"><ele>271.0</ele><time>2026-04-23T08:00:09.833Z</time></trkpt><trkpt lat="43.0870275" lon="11.5450596"><ele>271.0</ele><time>2026-04-23T08:00:10.842Z</time></trkpt><trkpt lat="43.0869874" lon="11.5451756"><ele>271.0</ele><time>2026-04-23T08:00:11.836Z</time></trkpt><trkpt lat="43.0869474" lon="11.545283"><ele>271.0</ele><time>2026-04-23T08:00:12.832Z</time></trkpt><trkpt lat="43.0869147" lon="11.5453817"><ele>271.0</ele><time>2026-04-23T08:00:13.835Z</time></trkpt><trkpt lat="43.0868831" lon="11.5454798"><ele>271.0</ele><time>2026-04-23T08:00:14.836Z</time></trkpt><trkpt lat="43.0868511" lon="11.5455757"><ele>271.0</ele><time>2026-04-23T08:00:15.833Z</time></trkpt><trkpt lat="43.0868239" lon="11.5456706"><ele>271.0</ele><time>2026-04-23T08:00:16.834Z</time></trkpt><trkpt lat="43.0868006" lon="11.5457616"><ele>270.2</ele><time>2026-04-23T08:00:17.836Z</time></trkpt><trkpt lat="43.086773" lon="11.54585"><ele>269.40000000000003</ele><time>2026-04-23T08:00:18.829Z</time></trkpt><trkpt lat="43.0867507" lon="11.5459344"><ele>268.6</ele><time>2026-04-23T08:00:19.834Z</time></trkpt><trkpt lat="43.0867155" lon="11.5460401"><ele>267.8</ele><time>2026-04-23T08:00:21.839Z</time></trkpt><trkpt lat="43.0865867" lon="11.5460076"><ele>267.0</ele><time>2026-04-23T08:00:24.84Z</time></trkpt><trkpt lat="43.0864825" lon="11.5459729"><ele>265.75</ele><time>2026-04-23T08:00:25.833Z</time></trkpt><trkpt lat="43.0863631" lon="11.54594"><ele>264.5</ele><time>2026-04-23T08:00:26.835Z</time></trkpt><trkpt lat="43.0862469" lon="11.5458951"><ele>263.25</ele><time>2026-04-23T08:00:27.835Z</time></trkpt><trkpt lat="43.0861387" lon="11.5458562"><ele>262.0</ele><time>2026-04-23T08:00:28.841Z</time></trkpt><trkpt lat="43.0860391" lon="11.5458242"><ele>262.0</ele><time>2026-04-23T08:00:29.834Z</time></trkpt><trkpt lat="43.0859521" lon="11.5458016"><ele>262.0</ele><time>2026-04-23T08:00:30.839Z</time></trkpt><trkpt lat="43.0858806" lon="11.5457821"><ele>262.0</ele><time>2026-04-23T08:00:31.834Z</time></trkpt><trkpt lat="43.0857997" lon="11.5457873"><ele>262.0</ele><time>2026-04-23T08:00:33.835Z</time></trkpt><trkpt lat="43.0857305" lon="11.5458888"><ele>262.0</ele><time>2026-04-23T08:00:35.832Z</time></trkpt><trkpt lat="43.0856878" lon="11.5459762"><ele>262.0</ele><time>2026-04-23T08:00:36.832Z</time></trkpt><trkpt lat="43.0856432" lon="11.5460784"><ele>261.8</ele><time>2026-04-23T08:00:37.834Z</time></trkpt><trkpt lat="43.0855901" lon="11.5461879"><ele>261.6</ele><time>2026-04-23T08:00:38.837Z</time></trkpt><trkpt lat="43.0855331" lon="11.5463021"><ele>261.40000000000003</ele><time>2026-04-23T08:00:39.835Z</time></trkpt><trkpt lat="43.0854775" lon="11.5464211"><ele>261.2</ele><time>2026-04-23T08:00:40.835Z</time></trkpt><trkpt lat="43.0854199" lon="11.5465394"><ele>261.0</ele><time>2026-04-23T08:00:41.832Z</time></trkpt><trkpt lat="43.0853608" lon="11.5466553"><ele>260.6</ele><time>2026-04-23T08:00:42.834Z</time></trkpt><trkpt lat="43.0852949" lon="11.5467746"><ele>260.20000000000005</ele><time>2026-04-23T08:00:43.841Z</time></trkpt><trkpt lat="43.0852272" lon="11.5469009"><ele>259.79999999999995</ele><time>2026-04-23T08:00:44.834Z</time></trkpt><trkpt lat="43.0851652" lon="11.5470243"><ele>259.4</ele><time>2026-04-23T08:00:45.836Z</time></trkpt><trkpt lat="43.0851045" lon="11.5471455"><ele>259.0</ele><time>2026-04-23T08:00:46.839Z</time></trkpt><trkpt lat="43.0850411" lon="11.5472764"><ele>258.25</ele><time>2026-04-23T08:00:47.835Z</time></trkpt><trkpt lat="43.0849726" lon="11.5474142"><ele>257.5</ele><time>2026-04-23T08:00:48.837Z</time></trkpt><trkpt lat="43.0849075" lon="11.5475522"><ele>256.75</ele><time>2026-04-23T08:00:49.838Z</time></trkpt><trkpt lat="43.0848472" lon="11.5476805"><ele>256.0</ele><time>2026-04-23T08:00:50.839Z</time></trkpt><trkpt lat="43.0847913" lon="11.5478036"><ele>254.83333333333331</ele><time>2026-04-23T08:00:51.832Z</time></trkpt><trkpt lat="43.0847386" lon="11.5479232"><ele>253.66666666666666</ele><time>2026-04-23T08:00:52.832Z</time></trkpt><trkpt lat="43.0846864" lon="11.5480303"><ele>252.5</ele><time>2026-04-23T08:00:53.837Z</time></trkpt><trkpt lat="43.0846375" lon="11.5481188"><ele>251.33333333333331</ele><time>2026-04-23T08:00:54.839Z</time></trkpt><trkpt lat="43.0845856" lon="11.5482333"><ele>250.16666666666666</ele><time>2026-04-23T08:00:56.833Z</time></trkpt><trkpt lat="43.0846122" lon="11.5483125"><ele>249.0</ele><time>2026-04-23T08:00:59.837Z</time></trkpt><trkpt lat="43.0847362" lon="11.5483779"><ele>249.0</ele><time>2026-04-23T08:01:01.841Z</time></trkpt><trkpt lat="43.0848309" lon="11.5484168"><ele>249.0</ele><time>2026-04-23T08:01:02.838Z</time></trkpt><trkpt lat="43.0849326" lon="11.5484993"><ele>249.0</ele><time>2026-04-23T08:01:03.841Z</time></trkpt><trkpt lat="43.085041" lon="11.5486094"><ele>249.0</ele><time>2026-04-23T08:01:04.836Z</time></trkpt><trkpt lat="43.0851615" lon="11.548731"><ele>249.5</ele><time>2026-04-23T08:01:05.832Z</time></trkpt><trkpt lat="43.0852888" lon="11.5488528"><ele>250.0</ele><time>2026-04-23T08:01:06.84Z</time></trkpt><trkpt lat="43.0854128" lon="11.5489669"><ele>250.5</ele><time>2026-04-23T08:01:07.836Z</time></trkpt><trkpt lat="43.0855216" lon="11.5490719"><ele>251.0</ele><time>2026-04-23T08:01:08.842Z</time></trkpt><trkpt lat="43.0856256" lon="11.5491615"><ele>251.0</ele><time>2026-04-23T08:01:09.842Z</time></trkpt><trkpt lat="43.0857239" lon="11.5492311"><ele>251.00000000000003</ele><time>2026-04-23T08:01:10.833Z</time></trkpt><trkpt lat="43.0858148" lon="11.5492838"><ele>251.00000000000003</ele><time>2026-04-23T08:01:11.841Z</time></trkpt><trkpt lat="43.0858905" lon="11.5493199"><ele>251.0</ele><time>2026-04-23T08:01:12.834Z</time></trkpt><trkpt lat="43.0859674" lon="11.5493431"><ele>251.0</ele><time>2026-04-23T08:01:14.832Z</time></trkpt><trkpt lat="43.0859175" lon="11.5494487"><ele>250.8</ele><time>2026-04-23T08:01:17.835Z</time></trkpt><trkpt lat="43.0858712" lon="11.5495105"><ele>250.60000000000002</ele><time>2026-04-23T08:01:18.836Z</time></trkpt><trkpt lat="43.0858105" lon="11.5495811"><ele>250.4</ele><time>2026-04-23T08:01:19.838Z</time></trkpt><trkpt lat="43.0857478" lon="11.5496806"><ele>250.2</ele><time>2026-04-23T08:01:20.839Z</time></trkpt><trkpt lat="43.0856755" lon="11.5498016"><ele>250.0</ele><time>2026-04-23T08:01:21.834Z</time></trkpt><trkpt lat="43.0856104" lon="11.5499124"><ele>250.0</ele><time>2026-04-23T08:01:22.836Z</time></trkpt><trkpt lat="43.0855555" lon="11.5500194"><ele>250.0</ele><time>2026-04-23T08:01:23.838Z</time></trkpt><trkpt lat="43.0855029" lon="11.5501218"><ele>250.0</ele><time>2026-04-23T08:01:24.831Z</time></trkpt><trkpt lat="43.0854503" lon="11.55022"><ele>250.0</ele><time>2026-04-23T08:01:25.837Z</time></trkpt><trkpt lat="43.0853918" lon="11.5503139"><ele>250.0</ele><time>2026-04-23T08:01:26.834Z</time></trkpt><trkpt lat="43.0853324" lon="11.5504101"><ele>249.66666666666666</ele><time>2026-04-23T08:01:27.832Z</time></trkpt><trkpt lat="43.0852741" lon="11.5505055"><ele>249.33333333333331</ele><time>2026-04-23T08:01:28.835Z</time></trkpt><trkpt lat="43.0852181" lon="11.5505957"><ele>249.0</ele><time>2026-04-23T08:01:29.834Z</time></trkpt><trkpt lat="43.0851679" lon="11.550684"><ele>248.66666666666669</ele><time>2026-04-23T08:01:30.837Z</time></trkpt><trkpt lat="43.0851255" lon="11.550763"><ele>248.33333333333334</ele><time>2026-04-23T08:01:31.838Z</time></trkpt><trkpt lat="43.0850592" lon="11.5508823"><ele>248.0</ele><time>2026-04-23T08:01:33.835Z</time></trkpt><trkpt lat="43.0849971" lon="11.5509939"><ele>248.0</ele><time>2026-04-23T08:01:35.833Z</time></trkpt><trkpt lat="43.0849464" lon="11.5510987"><ele>248.0</ele><time>2026-04-23T08:01:37.835Z</time></trkpt><trkpt lat="43.0848619" lon="11.5512091"><ele>248.0</ele><time>2026-04-23T08:01:39.83Z</time></trkpt><trkpt lat="43.084801" lon="11.5512869"><ele>248.0</ele><time>2026-04-23T08:01:40.836Z</time></trkpt><trkpt lat="43.0847242" lon="11.5513769"><ele>248.0</ele><time>2026-04-23T08:01:41.831Z</time></trkpt><trkpt lat="43.0846412" lon="11.5514737"><ele>247.5</ele><time>2026-04-23T08:01:42.833Z</time></trkpt><trkpt lat="43.0845557" lon="11.5515822"><ele>247.0</ele><time>2026-04-23T08:01:43.838Z</time></trkpt><trkpt lat="43.084463" lon="11.5517034"><ele>246.5</ele><time>2026-04-23T08:01:44.835Z</time></trkpt><trkpt lat="43.0843637" lon="11.5518392"><ele>246.0</ele><time>2026-04-23T08:01:45.835Z</time></trkpt><trkpt lat="43.084268" lon="11.5519958"><ele>244.66666666666669</ele><time>2026-04-23T08:01:46.84Z</time></trkpt><trkpt lat="43.0841798" lon="11.5521706"><ele>243.33333333333334</ele><time>2026-04-23T08:01:47.839Z</time></trkpt><trkpt lat="43.0840973" lon="11.5523574"><ele>242.0</ele><time>2026-04-23T08:01:48.835Z</time></trkpt><trkpt lat="43.08402" lon="11.5525438"><ele>242.0</ele><time>2026-04-23T08:01:49.842Z</time></trkpt><trkpt lat="43.0839507" lon="11.5527295"><ele>242.0</ele><time>2026-04-23T08:01:50.841Z</time></trkpt><trkpt lat="43.0838896" lon="11.5529132"><ele>242.0</ele><time>2026-04-23T08:01:51.834Z</time></trkpt><trkpt lat="43.0838402" lon="11.5531008"><ele>242.0</ele><time>2026-04-23T08:01:52.835Z</time></trkpt><trkpt lat="43.0838014" lon="11.5532925"><ele>242.25</ele><time>2026-04-23T08:01:53.836Z</time></trkpt><trkpt lat="43.0837729" lon="11.5534896"><ele>242.5</ele><time>2026-04-23T08:01:54.835Z</time></trkpt><trkpt lat="43.0837455" lon="11.5536866"><ele>242.75</ele><time>2026-04-23T08:01:55.837Z</time></trkpt><trkpt lat="43.0837157" lon="11.5538824"><ele>243.0</ele><time>2026-04-23T08:01:56.836Z</time></trkpt><trkpt lat="43.0836871" lon="11.5540766"><ele>243.75</ele><time>2026-04-23T08:01:57.837Z</time></trkpt><trkpt lat="43.0836591" lon="11.554269"><ele>244.5</ele><time>2026-04-23T08:01:58.835Z</time></trkpt><trkpt lat="43.0836302" lon="11.5544609"><ele>245.25</ele><time>2026-04-23T08:01:59.838Z</time></trkpt><trkpt lat="43.0836002" lon="11.5546504"><ele>246.0</ele><time>2026-04-23T08:02:00.834Z</time></trkpt><trkpt lat="43.0835708" lon="11.5548303"><ele>247.25</ele><time>2026-04-23T08:02:01.836Z</time></trkpt><trkpt lat="43.0835395" lon="11.5550051"><ele>248.5</ele><time>2026-04-23T08:02:02.832Z</time></trkpt><trkpt lat="43.0835117" lon="11.5551888"><ele>249.75</ele><time>2026-04-23T08:02:03.844Z</time></trkpt><trkpt lat="43.0834871" lon="11.5553764"><ele>251.0</ele><time>2026-04-23T08:02:04.837Z</time></trkpt><trkpt lat="43.0834728" lon="11.5555673"><ele>252.0</ele><time>2026-04-23T08:02:05.838Z</time></trkpt><trkpt lat="43.0834704" lon="11.5557575"><ele>253.0</ele><time>2026-04-23T08:02:06.839Z</time></trkpt><trkpt lat="43.0834826" lon="11.5559414"><ele>254.0</ele><time>2026-04-23T08:02:07.832Z</time></trkpt><trkpt lat="43.0835201" lon="11.556109"><ele>255.0</ele><time>2026-04-23T08:02:08.838Z</time></trkpt><trkpt lat="43.0836173" lon="11.5562352"><ele>255.0</ele><time>2026-04-23T08:02:09.848Z</time></trkpt><trkpt lat="43.0837746" lon="11.556299"><ele>255.0</ele><time>2026-04-23T08:02:10.841Z</time></trkpt><trkpt lat="43.0839506" lon="11.5563446"><ele>255.0</ele><time>2026-04-23T08:02:11.833Z</time></trkpt><trkpt lat="43.0841295" lon="11.5564053"><ele>258.3333333333333</ele><time>2026-04-23T08:02:12.833Z</time></trkpt><trkpt lat="43.0842968" lon="11.5564979"><ele>261.66666666666663</ele><time>2026-04-23T08:02:13.834Z</time></trkpt><trkpt lat="43.0844387" lon="11.5566373"><ele>265.0</ele><time>2026-04-23T08:02:14.835Z</time></trkpt><trkpt lat="43.0845468" lon="11.5568257"><ele>267.66666666666663</ele><time>2026-04-23T08:02:15.834Z</time></trkpt><trkpt lat="43.0846245" lon="11.557038"><ele>270.3333333333333</ele><time>2026-04-23T08:02:16.834Z</time></trkpt><trkpt lat="43.0846583" lon="11.557279"><ele>273.0</ele><time>2026-04-23T08:02:17.84Z</time></trkpt><trkpt lat="43.084654" lon="11.5575406"><ele>273.0</ele><time>2026-04-23T08:02:18.837Z</time></trkpt><trkpt lat="43.0846083" lon="11.5578099"><ele>273.0</ele><time>2026-04-23T08:02:19.837Z</time></trkpt><trkpt lat="43.084549" lon="11.5580446"><ele>273.0</ele><time>2026-04-23T08:02:20.832Z</time></trkpt><trkpt lat="43.0844751" lon="11.5582654"><ele>274.6666666666667</ele><time>2026-04-23T08:02:21.838Z</time></trkpt><trkpt lat="43.0844003" lon="11.5584684"><ele>276.33333333333337</ele><time>2026-04-23T08:02:22.838Z</time></trkpt><trkpt lat="43.0843439" lon="11.5586576"><ele>278.0</ele><time>2026-04-23T08:02:23.835Z</time></trkpt><trkpt lat="43.0843253" lon="11.5588443"><ele>278.75</ele><time>2026-04-23T08:02:24.834Z</time></trkpt><trkpt lat="43.0843459" lon="11.5590156"><ele>279.5</ele><time>2026-04-23T08:02:25.84Z</time></trkpt><trkpt lat="43.0844095" lon="11.5591625"><ele>280.25</ele><time>2026-04-23T08:02:26.839Z</time></trkpt><trkpt lat="43.084511" lon="11.5592572"><ele>281.0</ele><time>2026-04-23T08:02:27.829Z</time></trkpt><trkpt lat="43.0846493" lon="11.5593158"><ele>281.0</ele><time>2026-04-23T08:02:28.837Z</time></trkpt><trkpt lat="43.0847766" lon="11.5593501"><ele>281.0</ele><time>2026-04-23T08:02:29.842Z</time></trkpt><trkpt lat="43.0848574" lon="11.5594195"><ele>281.0</ele><time>2026-04-23T08:02:30.831Z</time></trkpt><trkpt lat="43.0848904" lon="11.5595344"><ele>281.0</ele><time>2026-04-23T08:02:31.832Z</time></trkpt><trkpt lat="43.0848778" lon="11.5596871"><ele>281.0</ele><time>2026-04-23T08:02:32.835Z</time></trkpt><trkpt lat="43.0848345" lon="11.5598713"><ele>281.0</ele><time>2026-04-23T08:02:33.844Z</time></trkpt><trkpt lat="43.0848252" lon="11.5600505"><ele>281.0</ele><time>2026-04-23T08:02:34.835Z</time></trkpt><trkpt lat="43.0848762" lon="11.5602024"><ele>281.0</ele><time>2026-04-23T08:02:35.83Z</time></trkpt><trkpt lat="43.0849725" lon="11.5603311"><ele>281.0</ele><time>2026-04-23T08:02:36.832Z</time></trkpt><trkpt lat="43.0850739" lon="11.5604699"><ele>283.5</ele><time>2026-04-23T08:02:37.836Z</time></trkpt><trkpt lat="43.0851289" lon="11.5606141"><ele>286.0</ele><time>2026-04-23T08:02:38.835Z</time></trkpt><trkpt lat="43.085121" lon="11.5607669"><ele>288.5</ele><time>2026-04-23T08:02:39.839Z</time></trkpt><trkpt lat="43.0850375" lon="11.5609049"><ele>291.0</ele><time>2026-04-23T08:02:40.84Z</time></trkpt><trkpt lat="43.0849085" lon="11.5610134"><ele>291.5</ele><time>2026-04-23T08:02:41.833Z</time></trkpt><trkpt lat="43.0847989" lon="11.5611148"><ele>292.0</ele><time>2026-04-23T08:02:42.839Z</time></trkpt><trkpt lat="43.0847451" lon="11.5612425"><ele>292.5</ele><time>2026-04-23T08:02:43.84Z</time></trkpt><trkpt lat="43.0847619" lon="11.5613918"><ele>293.0</ele><time>2026-04-23T08:02:44.83Z</time></trkpt><trkpt lat="43.0848184" lon="11.5615529"><ele>294.6666666666667</ele><time>2026-04-23T08:02:45.834Z</time></trkpt><trkpt lat="43.0848968" lon="11.5617461"><ele>296.3333333333333</ele><time>2026-04-23T08:02:46.833Z</time></trkpt><trkpt lat="43.0849867" lon="11.561957"><ele>298.0</ele><time>2026-04-23T08:02:47.84Z</time></trkpt><trkpt lat="43.0850578" lon="11.5621906"><ele>298.75</ele><time>2026-04-23T08:02:48.842Z</time></trkpt><trkpt lat="43.0850806" lon="11.5624063"><ele>299.5</ele><time>2026-04-23T08:02:49.841Z</time></trkpt><trkpt lat="43.0850651" lon="11.562578"><ele>300.25</ele><time>2026-04-23T08:02:50.832Z</time></trkpt><trkpt lat="43.0850174" lon="11.5626983"><ele>301.0</ele><time>2026-04-23T08:02:51.832Z</time></trkpt><trkpt lat="43.0849398" lon="11.5627775"><ele>300.75</ele><time>2026-04-23T08:02:52.833Z</time></trkpt><trkpt lat="43.0848337" lon="11.5628368"><ele>300.5</ele><time>2026-04-23T08:02:53.836Z</time></trkpt><trkpt lat="43.0846887" lon="11.5628655"><ele>300.25</ele><time>2026-04-23T08:02:54.839Z</time></trkpt><trkpt lat="43.0845301" lon="11.5628784"><ele>300.0</ele><time>2026-04-23T08:02:55.836Z</time></trkpt><trkpt lat="43.0843541" lon="11.5628833"><ele>300.0</ele><time>2026-04-23T08:02:56.834Z</time></trkpt><trkpt lat="43.0841742" lon="11.5629013"><ele>300.0</ele><time>2026-04-23T08:02:57.832Z</time></trkpt><trkpt lat="43.0840045" lon="11.5629423"><ele>300.0</ele><time>2026-04-23T08:02:58.831Z</time></trkpt><trkpt lat="43.0838433" lon="11.5630085"><ele>300.3333333333333</ele><time>2026-04-23T08:02:59.836Z</time></trkpt><trkpt lat="43.0837045" lon="11.5631124"><ele>300.66666666666663</ele><time>2026-04-23T08:03:00.837Z</time></trkpt><trkpt lat="43.0835884" lon="11.5632474"><ele>301.0</ele><time>2026-04-23T08:03:01.841Z</time></trkpt><trkpt lat="43.0834898" lon="11.5633993"><ele>301.0</ele><time>2026-04-23T08:03:02.835Z</time></trkpt><trkpt lat="43.0833981" lon="11.5635585"><ele>301.0</ele><time>2026-04-23T08:03:03.836Z</time></trkpt><trkpt lat="43.0833087" lon="11.5637211"><ele>301.0</ele><time>2026-04-23T08:03:04.834Z</time></trkpt><trkpt lat="43.0832246" lon="11.5638932"><ele>301.0</ele><time>2026-04-23T08:03:05.834Z</time></trkpt><trkpt lat="43.0831469" lon="11.5640738"><ele>301.0</ele><time>2026-04-23T08:03:06.839Z</time></trkpt><trkpt lat="43.0830809" lon="11.5642625"><ele>301.0</ele><time>2026-04-23T08:03:07.841Z</time></trkpt><trkpt lat="43.0830189" lon="11.5644473"><ele>301.0</ele><time>2026-04-23T08:03:08.837Z</time></trkpt><trkpt lat="43.0829528" lon="11.5646283"><ele>301.0</ele><time>2026-04-23T08:03:09.837Z</time></trkpt><trkpt lat="43.0828871" lon="11.5648067"><ele>302.5</ele><time>2026-04-23T08:03:10.843Z</time></trkpt><trkpt lat="43.0828217" lon="11.5649832"><ele>304.0</ele><time>2026-04-23T08:03:11.836Z</time></trkpt><trkpt lat="43.0827485" lon="11.5651549"><ele>305.5</ele><time>2026-04-23T08:03:12.835Z</time></trkpt><trkpt lat="43.0826625" lon="11.5653197"><ele>307.0</ele><time>2026-04-23T08:03:13.836Z</time></trkpt><trkpt lat="43.0825712" lon="11.5654719"><ele>307.3333333333333</ele><time>2026-04-23T08:03:14.838Z</time></trkpt><trkpt lat="43.0824739" lon="11.5656264"><ele>307.6666666666667</ele><time>2026-04-23T08:03:15.838Z</time></trkpt><trkpt lat="43.0823704" lon="11.5657849"><ele>308.0</ele><time>2026-04-23T08:03:16.838Z</time></trkpt><trkpt lat="43.0822577" lon="11.565952"><ele>308.0</ele><time>2026-04-23T08:03:17.84Z</time></trkpt><trkpt lat="43.0821392" lon="11.5661363"><ele>308.0</ele><time>2026-04-23T08:03:18.833Z</time></trkpt><trkpt lat="43.082016" lon="11.5663281"><ele>308.0</ele><time>2026-04-23T08:03:19.836Z</time></trkpt><trkpt lat="43.0818921" lon="11.5665254"><ele>311.6666666666667</ele><time>2026-04-23T08:03:20.839Z</time></trkpt><trkpt lat="43.0817749" lon="11.5667456"><ele>315.3333333333333</ele><time>2026-04-23T08:03:21.834Z</time></trkpt><trkpt lat="43.0816791" lon="11.5670073"><ele>319.0</ele><time>2026-04-23T08:03:22.836Z</time></trkpt><trkpt lat="43.0816064" lon="11.567288"><ele>316.0</ele><time>2026-04-23T08:03:23.843Z</time></trkpt><trkpt lat="43.0815509" lon="11.5675453"><ele>313.0</ele><time>2026-04-23T08:03:24.841Z</time></trkpt><trkpt lat="43.0815308" lon="11.5677905"><ele>310.0</ele><time>2026-04-23T08:03:25.836Z</time></trkpt><trkpt lat="43.0815264" lon="11.5680357"><ele>310.0</ele><time>2026-04-23T08:03:26.833Z</time></trkpt><trkpt lat="43.0815196" lon="11.56827"><ele>310.0</ele><time>2026-04-23T08:03:27.835Z</time></trkpt><trkpt lat="43.0815028" lon="11.5685014"><ele>310.0</ele><time>2026-04-23T08:03:28.837Z</time></trkpt><trkpt lat="43.0814659" lon="11.5687295"><ele>313.66666666666663</ele><time>2026-04-23T08:03:29.833Z</time></trkpt><trkpt lat="43.0814139" lon="11.5689523"><ele>317.3333333333333</ele><time>2026-04-23T08:03:30.837Z</time></trkpt><trkpt lat="43.0813441" lon="11.5691634"><ele>321.0</ele><time>2026-04-23T08:03:31.838Z</time></trkpt><trkpt lat="43.0812657" lon="11.5693621"><ele>324.6666666666667</ele><time>2026-04-23T08:03:32.838Z</time></trkpt><trkpt lat="43.0811853" lon="11.569553"><ele>328.33333333333337</ele><time>2026-04-23T08:03:33.835Z</time></trkpt><trkpt lat="43.0811053" lon="11.5697442"><ele>332.0</ele><time>2026-04-23T08:03:34.834Z</time></trkpt><trkpt lat="43.0810184" lon="11.5699239"><ele>332.0</ele><time>2026-04-23T08:03:35.834Z</time></trkpt><trkpt lat="43.0809206" lon="11.5700884"><ele>332.0</ele><time>2026-04-23T08:03:36.838Z</time></trkpt><trkpt lat="43.0808085" lon="11.5702123"><ele>332.0</ele><time>2026-04-23T08:03:37.833Z</time></trkpt><trkpt lat="43.0806863" lon="11.570286"><ele>332.0</ele><time>2026-04-23T08:03:38.84Z</time></trkpt><trkpt lat="43.0805725" lon="11.5703279"><ele>331.20000000000005</ele><time>2026-04-23T08:03:39.833Z</time></trkpt><trkpt lat="43.0804692" lon="11.5703568"><ele>330.4</ele><time>2026-04-23T08:03:40.835Z</time></trkpt><trkpt lat="43.0803658" lon="11.5703923"><ele>329.6</ele><time>2026-04-23T08:03:41.84Z</time></trkpt><trkpt lat="43.080267" lon="11.5704429"><ele>328.79999999999995</ele><time>2026-04-23T08:03:42.839Z</time></trkpt><trkpt lat="43.0801555" lon="11.5704846"><ele>328.0</ele><time>2026-04-23T08:03:43.843Z</time></trkpt><trkpt lat="43.080032" lon="11.5705179"><ele>330.2</ele><time>2026-04-23T08:03:44.832Z</time></trkpt><trkpt lat="43.0799125" lon="11.570544"><ele>332.4</ele><time>2026-04-23T08:03:45.833Z</time></trkpt><trkpt lat="43.0798071" lon="11.5705659"><ele>334.59999999999997</ele><time>2026-04-23T08:03:46.836Z</time></trkpt><trkpt lat="43.079721" lon="11.5705969"><ele>336.79999999999995</ele><time>2026-04-23T08:03:47.83Z</time></trkpt><trkpt lat="43.0796724" lon="11.570719"><ele>339.0</ele><time>2026-04-23T08:03:49.837Z</time></trkpt><trkpt lat="43.0797723" lon="11.5708244"><ele>339.0</ele><time>2026-04-23T08:03:51.838Z</time></trkpt><trkpt lat="43.0798589" lon="11.5708449"><ele>339.0</ele><time>2026-04-23T08:03:52.842Z</time></trkpt><trkpt lat="43.0799572" lon="11.5708506"><ele>339.0</ele><time>2026-04-23T08:03:53.845Z</time></trkpt><trkpt lat="43.080056" lon="11.5708569"><ele>339.0</ele><time>2026-04-23T08:03:54.836Z</time></trkpt><trkpt lat="43.0801606" lon="11.5708871"><ele>339.0</ele><time>2026-04-23T08:03:55.846Z</time></trkpt><trkpt lat="43.0802749" lon="11.5709506"><ele>338.3333333333333</ele><time>2026-04-23T08:03:56.835Z</time></trkpt><trkpt lat="43.0803985" lon="11.5710352"><ele>337.66666666666663</ele><time>2026-04-23T08:03:57.839Z</time></trkpt><trkpt lat="43.0805371" lon="11.5711368"><ele>337.0</ele><time>2026-04-23T08:03:58.839Z</time></trkpt><trkpt lat="43.0806914" lon="11.5712546"><ele>339.66666666666663</ele><time>2026-04-23T08:03:59.834Z</time></trkpt><trkpt lat="43.0808518" lon="11.5713714"><ele>342.3333333333333</ele><time>2026-04-23T08:04:00.844Z</time></trkpt><trkpt lat="43.0810039" lon="11.5714923"><ele>345.0</ele><time>2026-04-23T08:04:01.834Z</time></trkpt><trkpt lat="43.081141" lon="11.5716115"><ele>345.0</ele><time>2026-04-23T08:04:02.84Z</time></trkpt><trkpt lat="43.0812662" lon="11.5717269"><ele>345.0</ele><time>2026-04-23T08:04:03.838Z</time></trkpt><trkpt lat="43.0813784" lon="11.5718248"><ele>345.0</ele><time>2026-04-23T08:04:04.841Z</time></trkpt><trkpt lat="43.0814865" lon="11.5719038"><ele>345.0</ele><time>2026-04-23T08:04:05.836Z</time></trkpt><trkpt lat="43.0815876" lon="11.5719749"><ele>345.8</ele><time>2026-04-23T08:04:06.835Z</time></trkpt><trkpt lat="43.0816775" lon="11.572058"><ele>346.6</ele><time>2026-04-23T08:04:07.832Z</time></trkpt><trkpt lat="43.0817546" lon="11.5721554"><ele>347.4</ele><time>2026-04-23T08:04:08.839Z</time></trkpt><trkpt lat="43.081823" lon="11.5722715"><ele>348.2</ele><time>2026-04-23T08:04:09.838Z</time></trkpt><trkpt lat="43.0818881" lon="11.5724019"><ele>349.0</ele><time>2026-04-23T08:04:10.833Z</time></trkpt><trkpt lat="43.081951" lon="11.5725501"><ele>349.0</ele><time>2026-04-23T08:04:11.837Z</time></trkpt><trkpt lat="43.0820147" lon="11.5727058"><ele>349.0</ele><time>2026-04-23T08:04:12.832Z</time></trkpt><trkpt lat="43.0820802" lon="11.5728619"><ele>349.0</ele><time>2026-04-23T08:04:13.843Z</time></trkpt><trkpt lat="43.0821486" lon="11.5730206"><ele>349.0</ele><time>2026-04-23T08:04:14.834Z</time></trkpt><trkpt lat="43.0822195" lon="11.5731815"><ele>349.75</ele><time>2026-04-23T08:04:15.843Z</time></trkpt><trkpt lat="43.0822877" lon="11.5733456"><ele>350.5</ele><time>2026-04-23T08:04:16.835Z</time></trkpt><trkpt lat="43.082359" lon="11.5735144"><ele>351.25</ele><time>2026-04-23T08:04:17.836Z</time></trkpt><trkpt lat="43.082428" lon="11.5736788"><ele>352.0</ele><time>2026-04-23T08:04:18.836Z</time></trkpt><trkpt lat="43.0824929" lon="11.5738397"><ele>352.0</ele><time>2026-04-23T08:04:19.84Z</time></trkpt><trkpt lat="43.0825594" lon="11.573996"><ele>352.0</ele><time>2026-04-23T08:04:20.847Z</time></trkpt><trkpt lat="43.0826259" lon="11.5741487"><ele>352.0</ele><time>2026-04-23T08:04:21.836Z</time></trkpt><trkpt lat="43.0826941" lon="11.5743033"><ele>352.0</ele><time>2026-04-23T08:04:22.834Z</time></trkpt><trkpt lat="43.0827604" lon="11.5744595"><ele>350.75</ele><time>2026-04-23T08:04:23.839Z</time></trkpt><trkpt lat="43.0828227" lon="11.5746153"><ele>349.5</ele><time>2026-04-23T08:04:24.835Z</time></trkpt><trkpt lat="43.0828832" lon="11.5747699"><ele>348.25</ele><time>2026-04-23T08:04:25.835Z</time></trkpt><trkpt lat="43.0829471" lon="11.5749229"><ele>347.0</ele><time>2026-04-23T08:04:26.834Z</time></trkpt><trkpt lat="43.0830108" lon="11.5750772"><ele>347.0</ele><time>2026-04-23T08:04:27.832Z</time></trkpt><trkpt lat="43.0830731" lon="11.5752238"><ele>347.0</ele><time>2026-04-23T08:04:28.841Z</time></trkpt><trkpt lat="43.0831345" lon="11.5753663"><ele>347.0</ele><time>2026-04-23T08:04:29.834Z</time></trkpt><trkpt lat="43.0831975" lon="11.5755087"><ele>347.0</ele><time>2026-04-23T08:04:30.84Z</time></trkpt><trkpt lat="43.0832632" lon="11.57565"><ele>347.75</ele><time>2026-04-23T08:04:31.837Z</time></trkpt><trkpt lat="43.0833299" lon="11.5757909"><ele>348.5</ele><time>2026-04-23T08:04:32.839Z</time></trkpt><trkpt lat="43.0833959" lon="11.5759353"><ele>349.25</ele><time>2026-04-23T08:04:33.847Z</time></trkpt><trkpt lat="43.083462" lon="11.5760901"><ele>350.0</ele><time>2026-04-23T08:04:34.835Z</time></trkpt><trkpt lat="43.0835281" lon="11.5762491"><ele>350.0</ele><time>2026-04-23T08:04:35.837Z</time></trkpt><trkpt lat="43.0835918" lon="11.5764103"><ele>350.0</ele><time>2026-04-23T08:04:36.833Z</time></trkpt><trkpt lat="43.0836505" lon="11.5765773"><ele>350.0</ele><time>2026-04-23T08:04:37.834Z</time></trkpt><trkpt lat="43.0836991" lon="11.5767421"><ele>350.0</ele><time>2026-04-23T08:04:38.841Z</time></trkpt><trkpt lat="43.0837422" lon="11.5769102"><ele>350.0</ele><time>2026-04-23T08:04:39.835Z</time></trkpt><trkpt lat="43.0837792" lon="11.5770797"><ele>350.0</ele><time>2026-04-23T08:04:40.837Z</time></trkpt><trkpt lat="43.0838151" lon="11.577247"><ele>350.0</ele><time>2026-04-23T08:04:41.838Z</time></trkpt><trkpt lat="43.0838531" lon="11.5774138"><ele>350.0</ele><time>2026-04-23T08:04:42.845Z</time></trkpt><trkpt lat="43.0838899" lon="11.5775804"><ele>350.0</ele><time>2026-04-23T08:04:43.837Z</time></trkpt><trkpt lat="43.0839285" lon="11.5777485"><ele>350.0</ele><time>2026-04-23T08:04:44.842Z</time></trkpt><trkpt lat="43.0839679" lon="11.5779177"><ele>350.0</ele><time>2026-04-23T08:04:45.843Z</time></trkpt><trkpt lat="43.0840057" lon="11.5780888"><ele>350.0</ele><time>2026-04-23T08:04:46.841Z</time></trkpt><trkpt lat="43.0840441" lon="11.5782616"><ele>350.0</ele><time>2026-04-23T08:04:47.836Z</time></trkpt><trkpt lat="43.0840821" lon="11.5784332"><ele>350.0</ele><time>2026-04-23T08:04:48.837Z</time></trkpt><trkpt lat="43.0841219" lon="11.5786081"><ele>350.0</ele><time>2026-04-23T08:04:49.833Z</time></trkpt><trkpt lat="43.0841621" lon="11.5787801"><ele>350.0</ele><time>2026-04-23T08:04:50.837Z</time></trkpt><trkpt lat="43.0842064" lon="11.5789479"><ele>353.0</ele><time>2026-04-23T08:04:51.842Z</time></trkpt><trkpt lat="43.0842591" lon="11.5791041"><ele>356.0</ele><time>2026-04-23T08:04:52.836Z</time></trkpt><trkpt lat="43.0843261" lon="11.5792504"><ele>359.0</ele><time>2026-04-23T08:04:53.839Z</time></trkpt><trkpt lat="43.0844086" lon="11.5793928"><ele>362.0</ele><time>2026-04-23T08:04:54.842Z</time></trkpt><trkpt lat="43.0844995" lon="11.5795403"><ele>364.6666666666667</ele><time>2026-04-23T08:04:55.841Z</time></trkpt><trkpt lat="43.0845955" lon="11.5797023"><ele>367.3333333333333</ele><time>2026-04-23T08:04:56.838Z</time></trkpt><trkpt lat="43.0846979" lon="11.5798834"><ele>370.0</ele><time>2026-04-23T08:04:57.834Z</time></trkpt><trkpt lat="43.0847971" lon="11.5800655"><ele>370.0</ele><time>2026-04-23T08:04:58.84Z</time></trkpt><trkpt lat="43.0848831" lon="11.5802248"><ele>370.0</ele><time>2026-04-23T08:04:59.842Z</time></trkpt><trkpt lat="43.0849464" lon="11.580364"><ele>370.0</ele><time>2026-04-23T08:05:00.835Z</time></trkpt><trkpt lat="43.0849953" lon="11.5804961"><ele>370.0</ele><time>2026-04-23T08:05:01.838Z</time></trkpt><trkpt lat="43.0850382" lon="11.5806349"><ele>370.25</ele><time>2026-04-23T08:05:02.834Z</time></trkpt><trkpt lat="43.0850748" lon="11.5807857"><ele>370.5</ele><time>2026-04-23T08:05:03.832Z</time></trkpt><trkpt lat="43.0851105" lon="11.5809461"><ele>370.75</ele><time>2026-04-23T08:05:04.83Z</time></trkpt><trkpt lat="43.0851513" lon="11.581112"><ele>371.0</ele><time>2026-04-23T08:05:05.835Z</time></trkpt><trkpt lat="43.0851969" lon="11.5812783"><ele>371.0</ele><time>2026-04-23T08:05:06.834Z</time></trkpt><trkpt lat="43.0852454" lon="11.58144"><ele>371.0</ele><time>2026-04-23T08:05:07.834Z</time></trkpt><trkpt lat="43.0852976" lon="11.5815992"><ele>371.0</ele><time>2026-04-23T08:05:08.831Z</time></trkpt><trkpt lat="43.0853664" lon="11.5817493"><ele>371.0</ele><time>2026-04-23T08:05:09.834Z</time></trkpt><trkpt lat="43.0854511" lon="11.5818895"><ele>372.0</ele><time>2026-04-23T08:05:10.846Z</time></trkpt><trkpt lat="43.0855488" lon="11.5820241"><ele>373.0</ele><time>2026-04-23T08:05:11.837Z</time></trkpt><trkpt lat="43.0856413" lon="11.5821519"><ele>374.0</ele><time>2026-04-23T08:05:12.843Z</time></trkpt><trkpt lat="43.0857234" lon="11.5822747"><ele>375.0</ele><time>2026-04-23T08:05:13.834Z</time></trkpt><trkpt lat="43.0857888" lon="11.5823896"><ele>375.0</ele><time>2026-04-23T08:05:14.832Z</time></trkpt><trkpt lat="43.0858431" lon="11.5824958"><ele>375.0</ele><time>2026-04-23T08:05:15.84Z</time></trkpt><trkpt lat="43.0858993" lon="11.582595"><ele>375.0</ele><time>2026-04-23T08:05:16.836Z</time></trkpt><trkpt lat="43.0859686" lon="11.5826714"><ele>375.0</ele><time>2026-04-23T08:05:17.835Z</time></trkpt><trkpt lat="43.0860548" lon="11.582745"><ele>375.0</ele><time>2026-04-23T08:05:18.839Z</time></trkpt><trkpt lat="43.0861532" lon="11.5828246"><ele>370.5</ele><time>2026-04-23T08:05:19.84Z</time></trkpt><trkpt lat="43.086262" lon="11.5829236"><ele>366.0</ele><time>2026-04-23T08:05:20.838Z</time></trkpt><trkpt lat="43.0863674" lon="11.5830328"><ele>361.5</ele><time>2026-04-23T08:05:21.835Z</time></trkpt><trkpt lat="43.0864682" lon="11.5831423"><ele>357.0</ele><time>2026-04-23T08:05:22.841Z</time></trkpt><trkpt lat="43.0865623" lon="11.5832387"><ele>360.0</ele><time>2026-04-23T08:05:23.837Z</time></trkpt><trkpt lat="43.0866595" lon="11.5833345"><ele>363.0</ele><time>2026-04-23T08:05:24.833Z</time></trkpt><trkpt lat="43.0867626" lon="11.583427"><ele>366.0</ele><time>2026-04-23T08:05:25.834Z</time></trkpt><trkpt lat="43.0868712" lon="11.5835118"><ele>369.0</ele><time>2026-04-23T08:05:26.837Z</time></trkpt><trkpt lat="43.0869832" lon="11.5836006"><ele>365.5</ele><time>2026-04-23T08:05:27.838Z</time></trkpt><trkpt lat="43.0871022" lon="11.5836939"><ele>362.0</ele><time>2026-04-23T08:05:28.836Z</time></trkpt><trkpt lat="43.0872248" lon="11.5837945"><ele>358.5</ele><time>2026-04-23T08:05:29.836Z</time></trkpt><trkpt lat="43.0873519" lon="11.5838966"><ele>355.0</ele><time>2026-04-23T08:05:30.834Z</time></trkpt><trkpt lat="43.0874838" lon="11.5840034"><ele>355.0</ele><time>2026-04-23T08:05:31.838Z</time></trkpt><trkpt lat="43.0876155" lon="11.5841134"><ele>355.0</ele><time>2026-04-23T08:05:32.841Z</time></trkpt><trkpt lat="43.0877469" lon="11.5842246"><ele>355.0</ele><time>2026-04-23T08:05:33.836Z</time></trkpt><trkpt lat="43.0878779" lon="11.5843319"><ele>355.0</ele><time>2026-04-23T08:05:34.828Z</time></trkpt><trkpt lat="43.0880067" lon="11.5844384"><ele>355.0</ele><time>2026-04-23T08:05:35.839Z</time></trkpt><trkpt lat="43.0881331" lon="11.584539"><ele>355.0</ele><time>2026-04-23T08:05:36.833Z</time></trkpt><trkpt lat="43.088257" lon="11.5846277"><ele>355.0</ele><time>2026-04-23T08:05:37.835Z</time></trkpt><trkpt lat="43.0883798" lon="11.5847019"><ele>356.25</ele><time>2026-04-23T08:05:38.837Z</time></trkpt><trkpt lat="43.0885035" lon="11.584768"><ele>357.5</ele><time>2026-04-23T08:05:39.832Z</time></trkpt><trkpt lat="43.0886235" lon="11.5848345"><ele>358.75</ele><time>2026-04-23T08:05:40.838Z</time></trkpt><trkpt lat="43.088742" lon="11.584916"><ele>360.0</ele><time>2026-04-23T08:05:41.842Z</time></trkpt><trkpt lat="43.0888618" lon="11.5850133"><ele>360.0</ele><time>2026-04-23T08:05:42.837Z</time></trkpt><trkpt lat="43.0889832" lon="11.5851198"><ele>360.0</ele><time>2026-04-23T08:05:43.839Z</time></trkpt><trkpt lat="43.0891045" lon="11.5852281"><ele>360.0</ele><time>2026-04-23T08:05:44.84Z</time></trkpt><trkpt lat="43.0892217" lon="11.5853334"><ele>360.0</ele><time>2026-04-23T08:05:45.837Z</time></trkpt><trkpt lat="43.0893358" lon="11.5854384"><ele>362.5</ele><time>2026-04-23T08:05:46.835Z</time></trkpt><trkpt lat="43.0894516" lon="11.5855411"><ele>365.0</ele><time>2026-04-23T08:05:47.839Z</time></trkpt><trkpt lat="43.0895715" lon="11.5856419"><ele>367.5</ele><time>2026-04-23T08:05:48.838Z</time></trkpt><trkpt lat="43.0896937" lon="11.5857435"><ele>370.0</ele><time>2026-04-23T08:05:49.834Z</time></trkpt><trkpt lat="43.0898168" lon="11.5858476"><ele>368.5</ele><time>2026-04-23T08:05:50.841Z</time></trkpt><trkpt lat="43.0899365" lon="11.5859523"><ele>367.0</ele><time>2026-04-23T08:05:51.835Z</time></trkpt><trkpt lat="43.0900472" lon="11.5860577"><ele>365.5</ele><time>2026-04-23T08:05:52.835Z</time></trkpt><trkpt lat="43.0901444" lon="11.5861665"><ele>364.0</ele><time>2026-04-23T08:05:53.833Z</time></trkpt><trkpt lat="43.0902279" lon="11.5862906"><ele>367.5</ele><time>2026-04-23T08:05:54.843Z</time></trkpt><trkpt lat="43.0903056" lon="11.5864356"><ele>371.0</ele><time>2026-04-23T08:05:55.838Z</time></trkpt><trkpt lat="43.0903858" lon="11.5865935"><ele>374.5</ele><time>2026-04-23T08:05:56.84Z</time></trkpt><trkpt lat="43.0904705" lon="11.5867554"><ele>378.0</ele><time>2026-04-23T08:05:57.833Z</time></trkpt><trkpt lat="43.0905567" lon="11.5869261"><ele>379.5</ele><time>2026-04-23T08:05:58.84Z</time></trkpt><trkpt lat="43.0906412" lon="11.5870936"><ele>381.0</ele><time>2026-04-23T08:05:59.838Z</time></trkpt><trkpt lat="43.0907241" lon="11.5872594"><ele>382.5</ele><time>2026-04-23T08:06:00.843Z</time></trkpt><trkpt lat="43.0908035" lon="11.5874182"><ele>384.0</ele><time>2026-04-23T08:06:01.839Z</time></trkpt><trkpt lat="43.0908852" lon="11.5875652"><ele>380.5</ele><time>2026-04-23T08:06:02.833Z</time></trkpt><trkpt lat="43.0909722" lon="11.5876941"><ele>377.0</ele><time>2026-04-23T08:06:03.837Z</time></trkpt><trkpt lat="43.0910692" lon="11.5877984"><ele>373.5</ele><time>2026-04-23T08:06:04.832Z</time></trkpt><trkpt lat="43.0911793" lon="11.5878803"><ele>370.0</ele><time>2026-04-23T08:06:05.841Z</time></trkpt><trkpt lat="43.0913001" lon="11.5879504"><ele>370.0</ele><time>2026-04-23T08:06:06.845Z</time></trkpt><trkpt lat="43.0914257" lon="11.5880115"><ele>370.0</ele><time>2026-04-23T08:06:07.836Z</time></trkpt><trkpt lat="43.0915576" lon="11.5880765"><ele>370.0</ele><time>2026-04-23T08:06:08.839Z</time></trkpt><trkpt lat="43.0916911" lon="11.5881538"><ele>370.0</ele><time>2026-04-23T08:06:09.835Z</time></trkpt><trkpt lat="43.0918267" lon="11.5882433"><ele>369.0</ele><time>2026-04-23T08:06:10.836Z</time></trkpt><trkpt lat="43.0919639" lon="11.5883369"><ele>368.0</ele><time>2026-04-23T08:06:11.835Z</time></trkpt><trkpt lat="43.0920966" lon="11.5884243"><ele>367.0</ele><time>2026-04-23T08:06:12.835Z</time></trkpt><trkpt lat="43.0922231" lon="11.5885025"><ele>366.0</ele><time>2026-04-23T08:06:13.837Z</time></trkpt><trkpt lat="43.0923397" lon="11.5885726"><ele>364.6</ele><time>2026-04-23T08:06:14.833Z</time></trkpt><trkpt lat="43.0924423" lon="11.5886356"><ele>363.20000000000005</ele><time>2026-04-23T08:06:15.838Z</time></trkpt><trkpt lat="43.0925312" lon="11.5886926"><ele>361.79999999999995</ele><time>2026-04-23T08:06:16.839Z</time></trkpt><trkpt lat="43.0926115" lon="11.5887494"><ele>360.4</ele><time>2026-04-23T08:06:17.838Z</time></trkpt><trkpt lat="43.0926913" lon="11.5888142"><ele>359.0</ele><time>2026-04-23T08:06:18.835Z</time></trkpt><trkpt lat="43.0927731" lon="11.5888955"><ele>358.75</ele><time>2026-04-23T08:06:19.841Z</time></trkpt><trkpt lat="43.0928649" lon="11.5889925"><ele>358.5</ele><time>2026-04-23T08:06:20.837Z</time></trkpt><trkpt lat="43.0929615" lon="11.5891054"><ele>358.25</ele><time>2026-04-23T08:06:21.836Z</time></trkpt><trkpt lat="43.0930569" lon="11.5892363"><ele>358.0</ele><time>2026-04-23T08:06:22.834Z</time></trkpt><trkpt lat="43.0931473" lon="11.5893788"><ele>355.75</ele><time>2026-04-23T08:06:23.842Z</time></trkpt><trkpt lat="43.0932265" lon="11.5895302"><ele>353.5</ele><time>2026-04-23T08:06:24.837Z</time></trkpt><trkpt lat="43.093298" lon="11.5896915"><ele>351.25</ele><time>2026-04-23T08:06:25.836Z</time></trkpt><trkpt lat="43.0933683" lon="11.5898559"><ele>349.0</ele><time>2026-04-23T08:06:26.84Z</time></trkpt><trkpt lat="43.0934364" lon="11.5900079"><ele>348.75</ele><time>2026-04-23T08:06:27.834Z</time></trkpt><trkpt lat="43.0935106" lon="11.5901535"><ele>348.5</ele><time>2026-04-23T08:06:28.833Z</time></trkpt><trkpt lat="43.093595" lon="11.5902876"><ele>348.25</ele><time>2026-04-23T08:06:29.835Z</time></trkpt><trkpt lat="43.0936906" lon="11.5904084"><ele>348.0</ele><time>2026-04-23T08:06:30.843Z</time></trkpt><trkpt lat="43.0938013" lon="11.5905242"><ele>349.0</ele><time>2026-04-23T08:06:31.834Z</time></trkpt><trkpt lat="43.0939265" lon="11.5906346"><ele>350.0</ele><time>2026-04-23T08:06:32.831Z</time></trkpt><trkpt lat="43.0940643" lon="11.5907492"><ele>351.0</ele><time>2026-04-23T08:06:33.837Z</time></trkpt><trkpt lat="43.0941933" lon="11.5908713"><ele>351.0</ele><time>2026-04-23T08:06:34.835Z</time></trkpt><trkpt lat="43.0943074" lon="11.5909918"><ele>351.0</ele><time>2026-04-23T08:06:35.833Z</time></trkpt><trkpt lat="43.0943993" lon="11.5911187"><ele>351.0</ele><time>2026-04-23T08:06:36.832Z</time></trkpt><trkpt lat="43.0944613" lon="11.5912616"><ele>351.0</ele><time>2026-04-23T08:06:37.836Z</time></trkpt><trkpt lat="43.0945106" lon="11.5914213"><ele>347.5</ele><time>2026-04-23T08:06:38.831Z</time></trkpt><trkpt lat="43.0945583" lon="11.5915936"><ele>344.0</ele><time>2026-04-23T08:06:39.83Z</time></trkpt><trkpt lat="43.094616" lon="11.5917726"><ele>340.5</ele><time>2026-04-23T08:06:40.841Z</time></trkpt><trkpt lat="43.0946883" lon="11.5919637"><ele>337.0</ele><time>2026-04-23T08:06:41.838Z</time></trkpt><trkpt lat="43.0947726" lon="11.5921759"><ele>335.0</ele><time>2026-04-23T08:06:42.832Z</time></trkpt><trkpt lat="43.0948665" lon="11.5924089"><ele>333.0</ele><time>2026-04-23T08:06:43.835Z</time></trkpt><trkpt lat="43.0949693" lon="11.5926618"><ele>331.0</ele><time>2026-04-23T08:06:44.837Z</time></trkpt><trkpt lat="43.0950871" lon="11.5929285"><ele>337.0</ele><time>2026-04-23T08:06:45.835Z</time></trkpt><trkpt lat="43.0952103" lon="11.593208"><ele>343.0</ele><time>2026-04-23T08:06:46.832Z</time></trkpt><trkpt lat="43.0953292" lon="11.5934856"><ele>340.0</ele><time>2026-04-23T08:06:47.832Z</time></trkpt><trkpt lat="43.0954336" lon="11.5937417"><ele>337.0</ele><time>2026-04-23T08:06:48.838Z</time></trkpt><trkpt lat="43.0955231" lon="11.5939631"><ele>334.0</ele><time>2026-04-23T08:06:49.833Z</time></trkpt><trkpt lat="43.0956001" lon="11.5941505"><ele>334.0</ele><time>2026-04-23T08:06:50.831Z</time></trkpt><trkpt lat="43.095664" lon="11.5943108"><ele>334.0</ele><time>2026-04-23T08:06:51.834Z</time></trkpt><trkpt lat="43.0957133" lon="11.5944423"><ele>334.0</ele><time>2026-04-23T08:06:52.836Z</time></trkpt><trkpt lat="43.0957593" lon="11.5945622"><ele>334.0</ele><time>2026-04-23T08:06:53.832Z</time></trkpt><trkpt lat="43.0958099" lon="11.5946784"><ele>334.0</ele><time>2026-04-23T08:06:54.838Z</time></trkpt><trkpt lat="43.0958715" lon="11.5947807"><ele>336.6</ele><time>2026-04-23T08:06:55.838Z</time></trkpt><trkpt lat="43.0959527" lon="11.5948677"><ele>339.2</ele><time>2026-04-23T08:06:56.83Z</time></trkpt><trkpt lat="43.0960515" lon="11.594939"><ele>341.8</ele><time>2026-04-23T08:06:57.833Z</time></trkpt><trkpt lat="43.0961575" lon="11.595006"><ele>344.40000000000003</ele><time>2026-04-23T08:06:58.836Z</time></trkpt><trkpt lat="43.0962581" lon="11.5950858"><ele>347.0</ele><time>2026-04-23T08:06:59.833Z</time></trkpt><trkpt lat="43.0963409" lon="11.595189"><ele>347.0</ele><time>2026-04-23T08:07:00.838Z</time></trkpt><trkpt lat="43.0964066" lon="11.5953227"><ele>347.0</ele><time>2026-04-23T08:07:01.836Z</time></trkpt><trkpt lat="43.0964615" lon="11.5954836"><ele>347.0</ele><time>2026-04-23T08:07:02.832Z</time></trkpt><trkpt lat="43.0965121" lon="11.5956495"><ele>347.0</ele><time>2026-04-23T08:07:03.837Z</time></trkpt><trkpt lat="43.096559" lon="11.5958184"><ele>349.6666666666667</ele><time>2026-04-23T08:07:04.831Z</time></trkpt><trkpt lat="43.0966067" lon="11.5960015"><ele>352.3333333333333</ele><time>2026-04-23T08:07:05.833Z</time></trkpt><trkpt lat="43.0966567" lon="11.5962062"><ele>355.0</ele><time>2026-04-23T08:07:06.835Z</time></trkpt><trkpt lat="43.0967056" lon="11.5964262"><ele>355.5</ele><time>2026-04-23T08:07:07.836Z</time></trkpt><trkpt lat="43.0967532" lon="11.5966286"><ele>356.0</ele><time>2026-04-23T08:07:08.839Z</time></trkpt><trkpt lat="43.0967955" lon="11.5968078"><ele>356.5</ele><time>2026-04-23T08:07:09.84Z</time></trkpt><trkpt lat="43.0968328" lon="11.5969582"><ele>357.0</ele><time>2026-04-23T08:07:10.839Z</time></trkpt><trkpt lat="43.0968672" lon="11.5970813"><ele>358.0</ele><time>2026-04-23T08:07:11.832Z</time></trkpt><trkpt lat="43.0969023" lon="11.5971755"><ele>359.0</ele><time>2026-04-23T08:07:12.834Z</time></trkpt><trkpt lat="43.096945" lon="11.5972468"><ele>360.0</ele><time>2026-04-23T08:07:13.832Z</time></trkpt><trkpt lat="43.0970075" lon="11.5972974"><ele>361.0</ele><time>2026-04-23T08:07:14.842Z</time></trkpt><trkpt lat="43.0970933" lon="11.5973293"><ele>362.0</ele><time>2026-04-23T08:07:15.838Z</time></trkpt><trkpt lat="43.0971945" lon="11.597364"><ele>363.0</ele><time>2026-04-23T08:07:16.837Z</time></trkpt><trkpt lat="43.0972891" lon="11.5974301"><ele>363.0</ele><time>2026-04-23T08:07:17.833Z</time></trkpt><trkpt lat="43.0973802" lon="11.5975303"><ele>363.0</ele><time>2026-04-23T08:07:18.835Z</time></trkpt><trkpt lat="43.0974759" lon="11.5976637"><ele>363.0</ele><time>2026-04-23T08:07:19.84Z</time></trkpt><trkpt lat="43.0975777" lon="11.5978299"><ele>363.0</ele><time>2026-04-23T08:07:20.835Z</time></trkpt><trkpt lat="43.0976815" lon="11.5980039"><ele>364.5</ele><time>2026-04-23T08:07:21.837Z</time></trkpt><trkpt lat="43.0977764" lon="11.5981638"><ele>366.0</ele><time>2026-04-23T08:07:22.835Z</time></trkpt><trkpt lat="43.0978622" lon="11.5983108"><ele>367.5</ele><time>2026-04-23T08:07:23.842Z</time></trkpt><trkpt lat="43.0979366" lon="11.5984378"><ele>369.0</ele><time>2026-04-23T08:07:24.839Z</time></trkpt><trkpt lat="43.0980026" lon="11.5985343"><ele>369.0</ele><time>2026-04-23T08:07:25.836Z</time></trkpt><trkpt lat="43.0980682" lon="11.5985998"><ele>369.0</ele><time>2026-04-23T08:07:26.839Z</time></trkpt><trkpt lat="43.0981369" lon="11.5986279"><ele>369.0</ele><time>2026-04-23T08:07:27.836Z</time></trkpt><trkpt lat="43.0982126" lon="11.5986184"><ele>369.0</ele><time>2026-04-23T08:07:28.836Z</time></trkpt><trkpt lat="43.0982983" lon="11.5985781"><ele>369.0</ele><time>2026-04-23T08:07:29.84Z</time></trkpt><trkpt lat="43.0983842" lon="11.5985093"><ele>369.0</ele><time>2026-04-23T08:07:30.835Z</time></trkpt><trkpt lat="43.0984581" lon="11.5984166"><ele>368.6</ele><time>2026-04-23T08:07:31.834Z</time></trkpt><trkpt lat="43.0985184" lon="11.5983116"><ele>368.2</ele><time>2026-04-23T08:07:32.834Z</time></trkpt><trkpt lat="43.098564" lon="11.5981925"><ele>367.8</ele><time>2026-04-23T08:07:33.843Z</time></trkpt><trkpt lat="43.0985987" lon="11.598057"><ele>367.40000000000003</ele><time>2026-04-23T08:07:34.84Z</time></trkpt><trkpt lat="43.0986275" lon="11.5979102"><ele>367.0</ele><time>2026-04-23T08:07:35.835Z</time></trkpt><trkpt lat="43.098657" lon="11.597748"><ele>366.16666666666663</ele><time>2026-04-23T08:07:36.839Z</time></trkpt><trkpt lat="43.098695" lon="11.5975992"><ele>365.3333333333333</ele><time>2026-04-23T08:07:37.838Z</time></trkpt><trkpt lat="43.0987399" lon="11.5974747"><ele>364.5</ele><time>2026-04-23T08:07:38.834Z</time></trkpt><trkpt lat="43.0987911" lon="11.5973898"><ele>363.6666666666667</ele><time>2026-04-23T08:07:39.837Z</time></trkpt><trkpt lat="43.0988543" lon="11.5973486"><ele>362.83333333333337</ele><time>2026-04-23T08:07:40.831Z</time></trkpt><trkpt lat="43.0989303" lon="11.59735"><ele>362.0</ele><time>2026-04-23T08:07:41.833Z</time></trkpt><trkpt lat="43.0990126" lon="11.5973955"><ele>361.0</ele><time>2026-04-23T08:07:42.832Z</time></trkpt><trkpt lat="43.0990936" lon="11.5974673"><ele>360.0</ele><time>2026-04-23T08:07:43.832Z</time></trkpt><trkpt lat="43.0991748" lon="11.5975575"><ele>359.0</ele><time>2026-04-23T08:07:44.83Z</time></trkpt><trkpt lat="43.0992697" lon="11.5976822"><ele>358.0</ele><time>2026-04-23T08:07:45.831Z</time></trkpt><trkpt lat="43.0993823" lon="11.5978442"><ele>360.66666666666663</ele><time>2026-04-23T08:07:46.833Z</time></trkpt><trkpt lat="43.0995099" lon="11.5980371"><ele>363.3333333333333</ele><time>2026-04-23T08:07:47.841Z</time></trkpt><trkpt lat="43.0996319" lon="11.5982369"><ele>366.0</ele><time>2026-04-23T08:07:48.837Z</time></trkpt><trkpt lat="43.0997483" lon="11.5984278"><ele>366.0</ele><time>2026-04-23T08:07:49.838Z</time></trkpt><trkpt lat="43.099859" lon="11.5986075"><ele>366.0</ele><time>2026-04-23T08:07:50.835Z</time></trkpt><trkpt lat="43.0999616" lon="11.5987724"><ele>366.0</ele><time>2026-04-23T08:07:51.837Z</time></trkpt><trkpt lat="43.1000569" lon="11.5989195"><ele>363.0</ele><time>2026-04-23T08:07:52.838Z</time></trkpt><trkpt lat="43.1001458" lon="11.5990496"><ele>360.0</ele><time>2026-04-23T08:07:53.834Z</time></trkpt><trkpt lat="43.1002339" lon="11.5991546"><ele>357.0</ele><time>2026-04-23T08:07:54.837Z</time></trkpt><trkpt lat="43.1003284" lon="11.5992296"><ele>354.0</ele><time>2026-04-23T08:07:55.833Z</time></trkpt><trkpt lat="43.1004308" lon="11.5992748"><ele>354.0</ele><time>2026-04-23T08:07:56.838Z</time></trkpt><trkpt lat="43.1005389" lon="11.5992864"><ele>354.0</ele><time>2026-04-23T08:07:57.835Z</time></trkpt><trkpt lat="43.1006654" lon="11.5992776"><ele>354.0</ele><time>2026-04-23T08:07:58.84Z</time></trkpt><trkpt lat="43.1008102" lon="11.5992599"><ele>354.0</ele><time>2026-04-23T08:07:59.835Z</time></trkpt><trkpt lat="43.100964" lon="11.599223"><ele>352.75</ele><time>2026-04-23T08:08:00.838Z</time></trkpt><trkpt lat="43.1011171" lon="11.5991989"><ele>351.5</ele><time>2026-04-23T08:08:01.838Z</time></trkpt><trkpt lat="43.1012567" lon="11.5992"><ele>350.25</ele><time>2026-04-23T08:08:02.841Z</time></trkpt><trkpt lat="43.1013872" lon="11.5992209"><ele>349.0</ele><time>2026-04-23T08:08:03.836Z</time></trkpt><trkpt lat="43.1015053" lon="11.5992643"><ele>349.75</ele><time>2026-04-23T08:08:04.839Z</time></trkpt><trkpt lat="43.1016141" lon="11.5993385"><ele>350.5</ele><time>2026-04-23T08:08:05.839Z</time></trkpt><trkpt lat="43.1017185" lon="11.5994369"><ele>351.25</ele><time>2026-04-23T08:08:06.837Z</time></trkpt><trkpt lat="43.1018141" lon="11.599548"><ele>352.0</ele><time>2026-04-23T08:08:07.835Z</time></trkpt><trkpt lat="43.101892" lon="11.5996595"><ele>352.0</ele><time>2026-04-23T08:08:08.837Z</time></trkpt><trkpt lat="43.1019519" lon="11.5997756"><ele>352.0</ele><time>2026-04-23T08:08:09.84Z</time></trkpt><trkpt lat="43.1020041" lon="11.5999002"><ele>352.0</ele><time>2026-04-23T08:08:10.835Z</time></trkpt><trkpt lat="43.1020583" lon="11.6000268"><ele>352.0</ele><time>2026-04-23T08:08:11.834Z</time></trkpt><trkpt lat="43.102114" lon="11.6001515"><ele>352.0</ele><time>2026-04-23T08:08:12.835Z</time></trkpt><trkpt lat="43.1021666" lon="11.6002717"><ele>350.5</ele><time>2026-04-23T08:08:13.839Z</time></trkpt><trkpt lat="43.1022155" lon="11.6003808"><ele>349.0</ele><time>2026-04-23T08:08:14.842Z</time></trkpt><trkpt lat="43.1022636" lon="11.6004847"><ele>347.5</ele><time>2026-04-23T08:08:15.835Z</time></trkpt><trkpt lat="43.1023122" lon="11.6005834"><ele>346.0</ele><time>2026-04-23T08:08:16.84Z</time></trkpt><trkpt lat="43.1023585" lon="11.6006836"><ele>344.5</ele><time>2026-04-23T08:08:17.835Z</time></trkpt><trkpt lat="43.1024051" lon="11.6007879"><ele>343.0</ele><time>2026-04-23T08:08:18.835Z</time></trkpt><trkpt lat="43.1024558" lon="11.600886"><ele>346.16666666666663</ele><time>2026-04-23T08:08:19.842Z</time></trkpt><trkpt lat="43.1025157" lon="11.6009758"><ele>349.3333333333333</ele><time>2026-04-23T08:08:20.836Z</time></trkpt><trkpt lat="43.1025823" lon="11.6010429"><ele>352.5</ele><time>2026-04-23T08:08:21.843Z</time></trkpt><trkpt lat="43.1026537" lon="11.6010866"><ele>355.6666666666667</ele><time>2026-04-23T08:08:22.844Z</time></trkpt><trkpt lat="43.1027274" lon="11.6011056"><ele>358.83333333333337</ele><time>2026-04-23T08:08:23.842Z</time></trkpt><trkpt lat="43.1028007" lon="11.6010927"><ele>362.0</ele><time>2026-04-23T08:08:24.842Z</time></trkpt><trkpt lat="43.1028673" lon="11.6010443"><ele>362.0</ele><time>2026-04-23T08:08:25.837Z</time></trkpt><trkpt lat="43.1029276" lon="11.6009684"><ele>362.0</ele><time>2026-04-23T08:08:26.838Z</time></trkpt><trkpt lat="43.1029851" lon="11.6008683"><ele>362.0</ele><time>2026-04-23T08:08:27.833Z</time></trkpt><trkpt lat="43.103046" lon="11.6007601"><ele>362.0</ele><time>2026-04-23T08:08:28.841Z</time></trkpt><trkpt lat="43.1031168" lon="11.6006466"><ele>362.0</ele><time>2026-04-23T08:08:29.832Z</time></trkpt><trkpt lat="43.1032029" lon="11.6005502"><ele>362.20000000000005</ele><time>2026-04-23T08:08:30.839Z</time></trkpt><trkpt lat="43.1032964" lon="11.6004806"><ele>362.4</ele><time>2026-04-23T08:08:31.835Z</time></trkpt><trkpt lat="43.1033884" lon="11.6004426"><ele>362.6</ele><time>2026-04-23T08:08:32.838Z</time></trkpt><trkpt lat="43.1034869" lon="11.6004299"><ele>362.79999999999995</ele><time>2026-04-23T08:08:33.843Z</time></trkpt><trkpt lat="43.1036036" lon="11.6004393"><ele>363.0</ele><time>2026-04-23T08:08:34.837Z</time></trkpt><trkpt lat="43.1037473" lon="11.6004684"><ele>363.0</ele><time>2026-04-23T08:08:35.841Z</time></trkpt><trkpt lat="43.1039203" lon="11.6005058"><ele>363.0</ele><time>2026-04-23T08:08:36.841Z</time></trkpt><trkpt lat="43.1041166" lon="11.6005412"><ele>363.0</ele><time>2026-04-23T08:08:37.842Z</time></trkpt><trkpt lat="43.104329" lon="11.6005763"><ele>363.6666666666667</ele><time>2026-04-23T08:08:38.845Z</time></trkpt><trkpt lat="43.104551" lon="11.6006141"><ele>364.33333333333337</ele><time>2026-04-23T08:08:39.838Z</time></trkpt><trkpt lat="43.1047618" lon="11.6006546"><ele>365.0</ele><time>2026-04-23T08:08:40.836Z</time></trkpt><trkpt lat="43.104951" lon="11.6006924"><ele>365.6666666666667</ele><time>2026-04-23T08:08:41.835Z</time></trkpt><trkpt lat="43.1051198" lon="11.6007221"><ele>366.3333333333333</ele><time>2026-04-23T08:08:42.838Z</time></trkpt><trkpt lat="43.1052745" lon="11.600744"><ele>367.0</ele><time>2026-04-23T08:08:43.841Z</time></trkpt><trkpt lat="43.1054198" lon="11.6007436"><ele>367.0</ele><time>2026-04-23T08:08:44.841Z</time></trkpt><trkpt lat="43.1055658" lon="11.600706"><ele>367.0</ele><time>2026-04-23T08:08:45.844Z</time></trkpt><trkpt lat="43.1057166" lon="11.6006342"><ele>367.0</ele><time>2026-04-23T08:08:46.833Z</time></trkpt><trkpt lat="43.1058662" lon="11.6005355"><ele>367.25</ele><time>2026-04-23T08:08:47.84Z</time></trkpt><trkpt lat="43.1059996" lon="11.6004319"><ele>367.5</ele><time>2026-04-23T08:08:48.844Z</time></trkpt><trkpt lat="43.1061154" lon="11.6003408"><ele>367.75</ele><time>2026-04-23T08:08:49.838Z</time></trkpt><trkpt lat="43.1062151" lon="11.600283"><ele>368.0</ele><time>2026-04-23T08:08:50.84Z</time></trkpt><trkpt lat="43.1063099" lon="11.6002679"><ele>368.0</ele><time>2026-04-23T08:08:51.839Z</time></trkpt><trkpt lat="43.1064065" lon="11.6002854"><ele>368.0</ele><time>2026-04-23T08:08:52.839Z</time></trkpt><trkpt lat="43.1065129" lon="11.6003334"><ele>368.0</ele><time>2026-04-23T08:08:53.836Z</time></trkpt><trkpt lat="43.1066318" lon="11.6004102"><ele>368.0</ele><time>2026-04-23T08:08:54.845Z</time></trkpt><trkpt lat="43.1067677" lon="11.6005017"><ele>373.33333333333337</ele><time>2026-04-23T08:08:55.839Z</time></trkpt><trkpt lat="43.1069232" lon="11.6006132"><ele>378.6666666666667</ele><time>2026-04-23T08:08:56.833Z</time></trkpt><trkpt lat="43.1070875" lon="11.6007364"><ele>384.0</ele><time>2026-04-23T08:08:57.841Z</time></trkpt><trkpt lat="43.1072391" lon="11.6008562"><ele>384.0</ele><time>2026-04-23T08:08:58.835Z</time></trkpt><trkpt lat="43.1073783" lon="11.6009666"><ele>384.0</ele><time>2026-04-23T08:08:59.84Z</time></trkpt><trkpt lat="43.1075045" lon="11.601069"><ele>384.0</ele><time>2026-04-23T08:09:00.837Z</time></trkpt><trkpt lat="43.1076168" lon="11.6011604"><ele>384.0</ele><time>2026-04-23T08:09:01.838Z</time></trkpt><trkpt lat="43.1077152" lon="11.6012341"><ele>385.79999999999995</ele><time>2026-04-23T08:09:02.842Z</time></trkpt><trkpt lat="43.1077975" lon="11.6013"><ele>387.59999999999997</ele><time>2026-04-23T08:09:03.834Z</time></trkpt><trkpt lat="43.1078682" lon="11.6013724"><ele>389.4</ele><time>2026-04-23T08:09:04.831Z</time></trkpt><trkpt lat="43.1079315" lon="11.6014588"><ele>391.2</ele><time>2026-04-23T08:09:05.835Z</time></trkpt><trkpt lat="43.1079891" lon="11.6015629"><ele>393.0</ele><time>2026-04-23T08:09:06.836Z</time></trkpt><trkpt lat="43.1080393" lon="11.6016761"><ele>393.0</ele><time>2026-04-23T08:09:07.839Z</time></trkpt><trkpt lat="43.108076" lon="11.6017979"><ele>393.0</ele><time>2026-04-23T08:09:08.833Z</time></trkpt><trkpt lat="43.1080947" lon="11.6019392"><ele>393.0</ele><time>2026-04-23T08:09:09.842Z</time></trkpt><trkpt lat="43.108093" lon="11.6021028"><ele>393.0</ele><time>2026-04-23T08:09:10.837Z</time></trkpt><trkpt lat="43.1080778" lon="11.6022876"><ele>392.0</ele><time>2026-04-23T08:09:11.84Z</time></trkpt><trkpt lat="43.1080452" lon="11.6024844"><ele>391.0</ele><time>2026-04-23T08:09:12.842Z</time></trkpt><trkpt lat="43.1079985" lon="11.6026822"><ele>390.0</ele><time>2026-04-23T08:09:13.833Z</time></trkpt><trkpt lat="43.1079489" lon="11.602864"><ele>389.0</ele><time>2026-04-23T08:09:14.834Z</time></trkpt><trkpt lat="43.1079066" lon="11.6030177"><ele>386.79999999999995</ele><time>2026-04-23T08:09:15.833Z</time></trkpt><trkpt lat="43.1078696" lon="11.603159"><ele>384.59999999999997</ele><time>2026-04-23T08:09:16.838Z</time></trkpt><trkpt lat="43.1078463" lon="11.6032866"><ele>382.4</ele><time>2026-04-23T08:09:17.841Z</time></trkpt><trkpt lat="43.1078439" lon="11.6034101"><ele>380.2</ele><time>2026-04-23T08:09:18.837Z</time></trkpt><trkpt lat="43.1078604" lon="11.6035447"><ele>378.0</ele><time>2026-04-23T08:09:19.834Z</time></trkpt><trkpt lat="43.1078967" lon="11.6036857"><ele>376.25</ele><time>2026-04-23T08:09:20.834Z</time></trkpt><trkpt lat="43.107947" lon="11.6038356"><ele>374.5</ele><time>2026-04-23T08:09:21.832Z</time></trkpt><trkpt lat="43.108004" lon="11.6039968"><ele>372.75</ele><time>2026-04-23T08:09:22.84Z</time></trkpt><trkpt lat="43.1080614" lon="11.6041593"><ele>371.0</ele><time>2026-04-23T08:09:23.841Z</time></trkpt><trkpt lat="43.1081186" lon="11.6043087"><ele>371.0</ele><time>2026-04-23T08:09:24.837Z</time></trkpt><trkpt lat="43.1081786" lon="11.6044338"><ele>371.0</ele><time>2026-04-23T08:09:25.841Z</time></trkpt><trkpt lat="43.1082526" lon="11.6045402"><ele>371.0</ele><time>2026-04-23T08:09:26.835Z</time></trkpt><trkpt lat="43.1083423" lon="11.6046332"><ele>371.0</ele><time>2026-04-23T08:09:27.836Z</time></trkpt><trkpt lat="43.1084472" lon="11.6047194"><ele>372.25</ele><time>2026-04-23T08:09:28.841Z</time></trkpt><trkpt lat="43.1085648" lon="11.604811"><ele>373.5</ele><time>2026-04-23T08:09:29.834Z</time></trkpt><trkpt lat="43.1086858" lon="11.6049168"><ele>374.75</ele><time>2026-04-23T08:09:30.833Z</time></trkpt><trkpt lat="43.1088099" lon="11.6050275"><ele>376.0</ele><time>2026-04-23T08:09:31.832Z</time></trkpt><trkpt lat="43.1089384" lon="11.6051369"><ele>376.0</ele><time>2026-04-23T08:09:32.844Z</time></trkpt><trkpt lat="43.1090682" lon="11.6052491"><ele>376.0</ele><time>2026-04-23T08:09:33.838Z</time></trkpt><trkpt lat="43.1092044" lon="11.6053667"><ele>376.0</ele><time>2026-04-23T08:09:34.832Z</time></trkpt><trkpt lat="43.1093557" lon="11.6055003"><ele>375.66666666666663</ele><time>2026-04-23T08:09:35.838Z</time></trkpt><trkpt lat="43.1095178" lon="11.6056511"><ele>375.3333333333333</ele><time>2026-04-23T08:09:36.832Z</time></trkpt><trkpt lat="43.1096785" lon="11.605806"><ele>375.0</ele><time>2026-04-23T08:09:37.844Z</time></trkpt><trkpt lat="43.1098281" lon="11.6059574"><ele>374.0</ele><time>2026-04-23T08:09:38.838Z</time></trkpt><trkpt lat="43.1099672" lon="11.6061033"><ele>373.0</ele><time>2026-04-23T08:09:39.84Z</time></trkpt><trkpt lat="43.1101005" lon="11.6062385"><ele>372.0</ele><time>2026-04-23T08:09:40.842Z</time></trkpt><trkpt lat="43.1102246" lon="11.6063624"><ele>372.0</ele><time>2026-04-23T08:09:41.837Z</time></trkpt><trkpt lat="43.1103389" lon="11.6064809"><ele>372.0</ele><time>2026-04-23T08:09:42.839Z</time></trkpt><trkpt lat="43.1104458" lon="11.6065914"><ele>372.0</ele><time>2026-04-23T08:09:43.833Z</time></trkpt><trkpt lat="43.1105532" lon="11.6066873"><ele>372.0</ele><time>2026-04-23T08:09:44.835Z</time></trkpt><trkpt lat="43.1106695" lon="11.6067633"><ele>370.5</ele><time>2026-04-23T08:09:45.839Z</time></trkpt><trkpt lat="43.1108022" lon="11.6068287"><ele>369.0</ele><time>2026-04-23T08:09:46.834Z</time></trkpt><trkpt lat="43.110937" lon="11.6068913"><ele>367.5</ele><time>2026-04-23T08:09:47.837Z</time></trkpt><trkpt lat="43.1110693" lon="11.6069737"><ele>366.0</ele><time>2026-04-23T08:09:48.834Z</time></trkpt><trkpt lat="43.1112049" lon="11.6070837"><ele>365.6666666666667</ele><time>2026-04-23T08:09:49.835Z</time></trkpt><trkpt lat="43.1113455" lon="11.6072144"><ele>365.33333333333337</ele><time>2026-04-23T08:09:50.838Z</time></trkpt><trkpt lat="43.1114823" lon="11.6073538"><ele>365.0</ele><time>2026-04-23T08:09:51.839Z</time></trkpt><trkpt lat="43.1116117" lon="11.6074831"><ele>365.0</ele><time>2026-04-23T08:09:52.837Z</time></trkpt><trkpt lat="43.1117316" lon="11.6076009"><ele>365.0</ele><time>2026-04-23T08:09:53.845Z</time></trkpt><trkpt lat="43.111846" lon="11.6077041"><ele>365.0</ele><time>2026-04-23T08:09:54.834Z</time></trkpt><trkpt lat="43.1119532" lon="11.6077969"><ele>365.0</ele><time>2026-04-23T08:09:55.836Z</time></trkpt><trkpt lat="43.1120508" lon="11.607882"><ele>365.0</ele><time>2026-04-23T08:09:56.833Z</time></trkpt><trkpt lat="43.112136" lon="11.6079573"><ele>365.0</ele><time>2026-04-23T08:09:57.837Z</time></trkpt><trkpt lat="43.1122032" lon="11.6080178"><ele>365.0</ele><time>2026-04-23T08:09:58.838Z</time></trkpt><trkpt lat="43.1122891" lon="11.6080918"><ele>365.0</ele><time>2026-04-23T08:10:00.841Z</time></trkpt><trkpt lat="43.1123562" lon="11.608109"><ele>365.0</ele><time>2026-04-23T08:10:03.837Z</time></trkpt><trkpt lat="43.1124791" lon="11.6082487"><ele>365.0</ele><time>2026-04-23T08:10:49.845Z</time></trkpt><trkpt lat="43.112585" lon="11.608365"><ele>365.0</ele><time>2026-04-23T08:10:50.848Z</time></trkpt><trkpt lat="43.1127133" lon="11.6085159"><ele>365.0</ele><time>2026-04-23T08:10:51.837Z</time></trkpt><trkpt lat="43.1128409" lon="11.6086952"><ele>363.33333333333337</ele><time>2026-04-23T08:10:52.843Z</time></trkpt><trkpt lat="43.1129647" lon="11.6089008"><ele>361.6666666666667</ele><time>2026-04-23T08:10:53.848Z</time></trkpt><trkpt lat="43.1130809" lon="11.6091247"><ele>360.0</ele><time>2026-04-23T08:10:54.839Z</time></trkpt><trkpt lat="43.1131709" lon="11.6093424"><ele>363.0</ele><time>2026-04-23T08:10:55.842Z</time></trkpt><trkpt lat="43.1132421" lon="11.6095508"><ele>366.0</ele><time>2026-04-23T08:10:56.839Z</time></trkpt><trkpt lat="43.1133023" lon="11.6097394"><ele>369.0</ele><time>2026-04-23T08:10:57.84Z</time></trkpt><trkpt lat="43.113361" lon="11.6099142"><ele>369.0</ele><time>2026-04-23T08:10:58.837Z</time></trkpt><trkpt lat="43.1134273" lon="11.6100843"><ele>369.0</ele><time>2026-04-23T08:10:59.841Z</time></trkpt><trkpt lat="43.1135136" lon="11.6102606"><ele>369.0</ele><time>2026-04-23T08:11:00.842Z</time></trkpt><trkpt lat="43.1136177" lon="11.6104464"><ele>366.6666666666667</ele><time>2026-04-23T08:11:01.845Z</time></trkpt><trkpt lat="43.1137197" lon="11.6106304"><ele>364.33333333333337</ele><time>2026-04-23T08:11:02.843Z</time></trkpt><trkpt lat="43.1138051" lon="11.6107984"><ele>362.0</ele><time>2026-04-23T08:11:03.842Z</time></trkpt><trkpt lat="43.1138852" lon="11.6109499"><ele>362.0</ele><time>2026-04-23T08:11:04.842Z</time></trkpt><trkpt lat="43.1139642" lon="11.6110754"><ele>362.0</ele><time>2026-04-23T08:11:05.839Z</time></trkpt><trkpt lat="43.1140511" lon="11.6111862"><ele>362.0</ele><time>2026-04-23T08:11:06.835Z</time></trkpt><trkpt lat="43.1141599" lon="11.6113008"><ele>362.0</ele><time>2026-04-23T08:11:07.838Z</time></trkpt><trkpt lat="43.1142816" lon="11.6114293"><ele>364.0</ele><time>2026-04-23T08:11:08.836Z</time></trkpt><trkpt lat="43.114397" lon="11.6115779"><ele>366.0</ele><time>2026-04-23T08:11:09.837Z</time></trkpt><trkpt lat="43.1144954" lon="11.6117408"><ele>368.0</ele><time>2026-04-23T08:11:10.842Z</time></trkpt><trkpt lat="43.1145817" lon="11.6119079"><ele>366.0</ele><time>2026-04-23T08:11:11.833Z</time></trkpt><trkpt lat="43.1146426" lon="11.6120757"><ele>364.0</ele><time>2026-04-23T08:11:12.84Z</time></trkpt><trkpt lat="43.1146822" lon="11.6122509"><ele>362.0</ele><time>2026-04-23T08:11:13.837Z</time></trkpt><trkpt lat="43.1147093" lon="11.6124338"><ele>360.0</ele><time>2026-04-23T08:11:14.838Z</time></trkpt><trkpt lat="43.11474" lon="11.6126032"><ele>360.0</ele><time>2026-04-23T08:11:15.836Z</time></trkpt><trkpt lat="43.1147833" lon="11.612747"><ele>360.0</ele><time>2026-04-23T08:11:16.841Z</time></trkpt><trkpt lat="43.1148458" lon="11.6128654"><ele>360.0</ele><time>2026-04-23T08:11:17.833Z</time></trkpt><trkpt lat="43.1149291" lon="11.6129832"><ele>360.0</ele><time>2026-04-23T08:11:18.836Z</time></trkpt><trkpt lat="43.1150315" lon="11.6131206"><ele>363.3333333333333</ele><time>2026-04-23T08:11:19.833Z</time></trkpt><trkpt lat="43.1151478" lon="11.6132832"><ele>366.66666666666663</ele><time>2026-04-23T08:11:20.834Z</time></trkpt><trkpt lat="43.1152583" lon="11.6134538"><ele>370.0</ele><time>2026-04-23T08:11:21.84Z</time></trkpt><trkpt lat="43.1153549" lon="11.6136157"><ele>368.75</ele><time>2026-04-23T08:11:22.837Z</time></trkpt><trkpt lat="43.1154478" lon="11.6137655"><ele>367.5</ele><time>2026-04-23T08:11:23.839Z</time></trkpt><trkpt lat="43.1155525" lon="11.6139023"><ele>366.25</ele><time>2026-04-23T08:11:24.837Z</time></trkpt><trkpt lat="43.1156759" lon="11.614031"><ele>365.0</ele><time>2026-04-23T08:11:25.838Z</time></trkpt><trkpt lat="43.1158072" lon="11.6141534"><ele>367.75</ele><time>2026-04-23T08:11:26.84Z</time></trkpt><trkpt lat="43.1159199" lon="11.6142696"><ele>370.5</ele><time>2026-04-23T08:11:27.84Z</time></trkpt><trkpt lat="43.1160019" lon="11.6144053"><ele>373.25</ele><time>2026-04-23T08:11:28.835Z</time></trkpt><trkpt lat="43.1160574" lon="11.6145792"><ele>376.0</ele><time>2026-04-23T08:11:29.84Z</time></trkpt><trkpt lat="43.1160923" lon="11.6147845"><ele>376.3333333333333</ele><time>2026-04-23T08:11:30.84Z</time></trkpt><trkpt lat="43.1161067" lon="11.615008"><ele>376.6666666666667</ele><time>2026-04-23T08:11:31.836Z</time></trkpt><trkpt lat="43.1161052" lon="11.6152494"><ele>377.0</ele><time>2026-04-23T08:11:32.834Z</time></trkpt><trkpt lat="43.1160935" lon="11.6155051"><ele>377.6666666666667</ele><time>2026-04-23T08:11:33.842Z</time></trkpt><trkpt lat="43.1160778" lon="11.6157402"><ele>378.3333333333333</ele><time>2026-04-23T08:11:34.843Z</time></trkpt><trkpt lat="43.1160512" lon="11.6159531"><ele>379.0</ele><time>2026-04-23T08:11:35.839Z</time></trkpt><trkpt lat="43.1160074" lon="11.6161627"><ele>379.66666666666663</ele><time>2026-04-23T08:11:36.841Z</time></trkpt><trkpt lat="43.1159382" lon="11.6163731"><ele>380.3333333333333</ele><time>2026-04-23T08:11:37.84Z</time></trkpt><trkpt lat="43.115845" lon="11.6166001"><ele>381.0</ele><time>2026-04-23T08:11:38.839Z</time></trkpt><trkpt lat="43.11573" lon="11.6168403"><ele>381.3333333333333</ele><time>2026-04-23T08:11:39.839Z</time></trkpt><trkpt lat="43.1156169" lon="11.617082"><ele>381.66666666666663</ele><time>2026-04-23T08:11:40.841Z</time></trkpt><trkpt lat="43.115508" lon="11.6173166"><ele>382.0</ele><time>2026-04-23T08:11:41.836Z</time></trkpt><trkpt lat="43.1154141" lon="11.6175155"><ele>382.0</ele><time>2026-04-23T08:11:42.833Z</time></trkpt><trkpt lat="43.1153402" lon="11.6176797"><ele>382.0</ele><time>2026-04-23T08:11:43.841Z</time></trkpt><trkpt lat="43.1152831" lon="11.617828"><ele>382.0</ele><time>2026-04-23T08:11:44.841Z</time></trkpt><trkpt lat="43.1152397" lon="11.6179714"><ele>382.0</ele><time>2026-04-23T08:11:45.838Z</time></trkpt><trkpt lat="43.1152047" lon="11.618109"><ele>383.40000000000003</ele><time>2026-04-23T08:11:46.837Z</time></trkpt><trkpt lat="43.1151757" lon="11.6182362"><ele>384.8</ele><time>2026-04-23T08:11:47.84Z</time></trkpt><trkpt lat="43.115157" lon="11.6183348"><ele>386.2</ele><time>2026-04-23T08:11:48.84Z</time></trkpt><trkpt lat="43.1151484" lon="11.6184226"><ele>387.6</ele><time>2026-04-23T08:11:50.839Z</time></trkpt><trkpt lat="43.1152246" lon="11.6184771"><ele>389.0</ele><time>2026-04-23T08:11:55.84Z</time></trkpt><trkpt lat="43.1153574" lon="11.6185066"><ele>388.99999999999994</ele><time>2026-04-23T08:11:57.835Z</time></trkpt><trkpt lat="43.1154431" lon="11.6185311"><ele>389.0</ele><time>2026-04-23T08:11:58.844Z</time></trkpt><trkpt lat="43.1155277" lon="11.6185645"><ele>389.0</ele><time>2026-04-23T08:11:59.838Z</time></trkpt><trkpt lat="43.1156098" lon="11.6185886"><ele>389.0</ele><time>2026-04-23T08:12:00.838Z</time></trkpt><trkpt lat="43.1156922" lon="11.6186089"><ele>388.99999999999994</ele><time>2026-04-23T08:12:01.836Z</time></trkpt><trkpt lat="43.1157746" lon="11.618619"><ele>389.0</ele><time>2026-04-23T08:12:02.842Z</time></trkpt><trkpt lat="43.1158535" lon="11.6186233"><ele>388.49999999999994</ele><time>2026-04-23T08:12:03.835Z</time></trkpt><trkpt lat="43.1159323" lon="11.6186269"><ele>388.0</ele><time>2026-04-23T08:12:04.836Z</time></trkpt><trkpt lat="43.116015" lon="11.618625"><ele>387.5</ele><time>2026-04-23T08:12:05.841Z</time></trkpt><trkpt lat="43.1161018" lon="11.6186172"><ele>387.0</ele><time>2026-04-23T08:12:06.847Z</time></trkpt><trkpt lat="43.1161877" lon="11.6185985"><ele>386.49999999999994</ele><time>2026-04-23T08:12:07.832Z</time></trkpt><trkpt lat="43.1162808" lon="11.6185663"><ele>386.0</ele><time>2026-04-23T08:12:08.84Z</time></trkpt><trkpt lat="43.1163833" lon="11.6185234"><ele>386.0</ele><time>2026-04-23T08:12:09.836Z</time></trkpt><trkpt lat="43.1164903" lon="11.6184868"><ele>386.0</ele><time>2026-04-23T08:12:10.838Z</time></trkpt><trkpt lat="43.1165977" lon="11.6184591"><ele>386.0</ele><time>2026-04-23T08:12:11.841Z</time></trkpt><trkpt lat="43.1167056" lon="11.6184409"><ele>386.0</ele><time>2026-04-23T08:12:12.835Z</time></trkpt><trkpt lat="43.1168137" lon="11.6184407"><ele>386.0</ele><time>2026-04-23T08:12:13.842Z</time></trkpt><trkpt lat="43.1169251" lon="11.6184497"><ele>384.0</ele><time>2026-04-23T08:12:14.841Z</time></trkpt><trkpt lat="43.1170461" lon="11.618462"><ele>382.0</ele><time>2026-04-23T08:12:15.841Z</time></trkpt><trkpt lat="43.1171825" lon="11.618483"><ele>380.0</ele><time>2026-04-23T08:12:16.845Z</time></trkpt><trkpt lat="43.1173312" lon="11.6185063"><ele>378.0</ele><time>2026-04-23T08:12:17.833Z</time></trkpt><trkpt lat="43.1174847" lon="11.6185286"><ele>376.3333333333333</ele><time>2026-04-23T08:12:18.835Z</time></trkpt><trkpt lat="43.1176437" lon="11.6185458"><ele>374.66666666666663</ele><time>2026-04-23T08:12:19.84Z</time></trkpt><trkpt lat="43.1178095" lon="11.6185567"><ele>373.0</ele><time>2026-04-23T08:12:20.842Z</time></trkpt><trkpt lat="43.117992" lon="11.6185608"><ele>373.0</ele><time>2026-04-23T08:12:21.84Z</time></trkpt><trkpt lat="43.1181975" lon="11.6185629"><ele>373.0</ele><time>2026-04-23T08:12:22.843Z</time></trkpt><trkpt lat="43.1184151" lon="11.6185656"><ele>373.0</ele><time>2026-04-23T08:12:23.837Z</time></trkpt><trkpt lat="43.1186243" lon="11.6185698"><ele>372.3333333333333</ele><time>2026-04-23T08:12:24.836Z</time></trkpt><trkpt lat="43.1188182" lon="11.6185778"><ele>371.6666666666667</ele><time>2026-04-23T08:12:25.835Z</time></trkpt><trkpt lat="43.1190008" lon="11.6186011"><ele>371.0</ele><time>2026-04-23T08:12:26.85Z</time></trkpt><trkpt lat="43.119198" lon="11.6186292"><ele>370.33333333333337</ele><time>2026-04-23T08:12:27.841Z</time></trkpt><trkpt lat="43.1194172" lon="11.618656"><ele>369.6666666666667</ele><time>2026-04-23T08:12:28.836Z</time></trkpt><trkpt lat="43.1196432" lon="11.6186782"><ele>369.0</ele><time>2026-04-23T08:12:29.846Z</time></trkpt><trkpt lat="43.1198516" lon="11.6186926"><ele>371.0</ele><time>2026-04-23T08:12:30.835Z</time></trkpt><trkpt lat="43.1200397" lon="11.618709"><ele>373.0</ele><time>2026-04-23T08:12:31.841Z</time></trkpt><trkpt lat="43.1202044" lon="11.6187262"><ele>375.0</ele><time>2026-04-23T08:12:32.844Z</time></trkpt><trkpt lat="43.1203456" lon="11.6187399"><ele>375.0</ele><time>2026-04-23T08:12:33.843Z</time></trkpt><trkpt lat="43.1204675" lon="11.6187482"><ele>375.0</ele><time>2026-04-23T08:12:34.841Z</time></trkpt><trkpt lat="43.1205837" lon="11.6187434"><ele>375.0</ele><time>2026-04-23T08:12:35.835Z</time></trkpt><trkpt lat="43.1206975" lon="11.6187199"><ele>375.0</ele><time>2026-04-23T08:12:36.84Z</time></trkpt><trkpt lat="43.1208112" lon="11.6186631"><ele>376.25</ele><time>2026-04-23T08:12:37.831Z</time></trkpt><trkpt lat="43.1209248" lon="11.6185782"><ele>377.5</ele><time>2026-04-23T08:12:38.833Z</time></trkpt><trkpt lat="43.1210338" lon="11.6184753"><ele>378.75</ele><time>2026-04-23T08:12:39.844Z</time></trkpt><trkpt lat="43.121129" lon="11.6183721"><ele>380.0</ele><time>2026-04-23T08:12:40.835Z</time></trkpt><trkpt lat="43.1212111" lon="11.6182752"><ele>380.0</ele><time>2026-04-23T08:12:41.838Z</time></trkpt><trkpt lat="43.1212923" lon="11.6181891"><ele>380.0</ele><time>2026-04-23T08:12:42.838Z</time></trkpt><trkpt lat="43.1213728" lon="11.6181037"><ele>380.0</ele><time>2026-04-23T08:12:43.843Z</time></trkpt><trkpt lat="43.1214588" lon="11.6180133"><ele>380.0</ele><time>2026-04-23T08:12:44.844Z</time></trkpt><trkpt lat="43.1215488" lon="11.617916"><ele>380.0</ele><time>2026-04-23T08:12:45.839Z</time></trkpt><trkpt lat="43.1216459" lon="11.6178148"><ele>381.0</ele><time>2026-04-23T08:12:46.835Z</time></trkpt><trkpt lat="43.121752" lon="11.6177062"><ele>382.0</ele><time>2026-04-23T08:12:47.836Z</time></trkpt><trkpt lat="43.1218758" lon="11.617585"><ele>383.0</ele><time>2026-04-23T08:12:48.841Z</time></trkpt><trkpt lat="43.1220183" lon="11.6174404"><ele>383.0</ele><time>2026-04-23T08:12:49.846Z</time></trkpt><trkpt lat="43.122165" lon="11.6172965"><ele>383.0</ele><time>2026-04-23T08:12:50.837Z</time></trkpt><trkpt lat="43.1223059" lon="11.6171568"><ele>383.0</ele><time>2026-04-23T08:12:51.842Z</time></trkpt><trkpt lat="43.1224369" lon="11.6170184"><ele>380.0</ele><time>2026-04-23T08:12:52.836Z</time></trkpt><trkpt lat="43.1225577" lon="11.6168706"><ele>377.0</ele><time>2026-04-23T08:12:53.841Z</time></trkpt><trkpt lat="43.1226681" lon="11.6167061"><ele>374.0</ele><time>2026-04-23T08:12:54.847Z</time></trkpt><trkpt lat="43.1227757" lon="11.6165273"><ele>374.0</ele><time>2026-04-23T08:12:55.838Z</time></trkpt><trkpt lat="43.1228788" lon="11.6163282"><ele>374.0</ele><time>2026-04-23T08:12:56.843Z</time></trkpt><trkpt lat="43.1229851" lon="11.6161031"><ele>374.0</ele><time>2026-04-23T08:12:57.845Z</time></trkpt><trkpt lat="43.1230931" lon="11.6158517"><ele>374.33333333333337</ele><time>2026-04-23T08:12:58.843Z</time></trkpt><trkpt lat="43.1232124" lon="11.6155912"><ele>374.6666666666667</ele><time>2026-04-23T08:12:59.845Z</time></trkpt><trkpt lat="43.1233412" lon="11.6153389"><ele>375.0</ele><time>2026-04-23T08:13:00.837Z</time></trkpt><trkpt lat="43.1234667" lon="11.615109"><ele>377.3333333333333</ele><time>2026-04-23T08:13:01.842Z</time></trkpt><trkpt lat="43.1235737" lon="11.614924"><ele>379.66666666666663</ele><time>2026-04-23T08:13:02.843Z</time></trkpt><trkpt lat="43.1236725" lon="11.6147762"><ele>382.0</ele><time>2026-04-23T08:13:03.838Z</time></trkpt><trkpt lat="43.1237713" lon="11.6146494"><ele>382.0</ele><time>2026-04-23T08:13:04.845Z</time></trkpt><trkpt lat="43.1238767" lon="11.6145423"><ele>382.0</ele><time>2026-04-23T08:13:05.838Z</time></trkpt><trkpt lat="43.1239888" lon="11.6144548"><ele>382.0</ele><time>2026-04-23T08:13:06.844Z</time></trkpt><trkpt lat="43.1241072" lon="11.6143844"><ele>382.0</ele><time>2026-04-23T08:13:07.842Z</time></trkpt><trkpt lat="43.1242297" lon="11.6143281"><ele>383.75</ele><time>2026-04-23T08:13:08.84Z</time></trkpt><trkpt lat="43.1243614" lon="11.6142927"><ele>385.5</ele><time>2026-04-23T08:13:09.848Z</time></trkpt><trkpt lat="43.1244991" lon="11.6142705"><ele>387.25</ele><time>2026-04-23T08:13:10.838Z</time></trkpt><trkpt lat="43.1246441" lon="11.6142452"><ele>389.0</ele><time>2026-04-23T08:13:11.838Z</time></trkpt><trkpt lat="43.124789" lon="11.6142274"><ele>387.25</ele><time>2026-04-23T08:13:12.833Z</time></trkpt><trkpt lat="43.1249257" lon="11.6142246"><ele>385.5</ele><time>2026-04-23T08:13:13.847Z</time></trkpt><trkpt lat="43.1250607" lon="11.6142601"><ele>383.75</ele><time>2026-04-23T08:13:14.84Z</time></trkpt><trkpt lat="43.1251948" lon="11.6143252"><ele>382.0</ele><time>2026-04-23T08:13:15.841Z</time></trkpt><trkpt lat="43.125324" lon="11.6143977"><ele>382.0</ele><time>2026-04-23T08:13:16.84Z</time></trkpt><trkpt lat="43.1254484" lon="11.6144694"><ele>382.0</ele><time>2026-04-23T08:13:17.834Z</time></trkpt><trkpt lat="43.1255662" lon="11.6145226"><ele>382.0</ele><time>2026-04-23T08:13:18.843Z</time></trkpt><trkpt lat="43.1256786" lon="11.6145521"><ele>382.0</ele><time>2026-04-23T08:13:19.843Z</time></trkpt><trkpt lat="43.1257801" lon="11.6145602"><ele>381.40000000000003</ele><time>2026-04-23T08:13:20.844Z</time></trkpt><trkpt lat="43.1258725" lon="11.6145399"><ele>380.8</ele><time>2026-04-23T08:13:21.841Z</time></trkpt><trkpt lat="43.1259615" lon="11.6145127"><ele>380.2</ele><time>2026-04-23T08:13:22.834Z</time></trkpt><trkpt lat="43.1260488" lon="11.6144823"><ele>379.6</ele><time>2026-04-23T08:13:23.835Z</time></trkpt><trkpt lat="43.1261374" lon="11.6144511"><ele>379.0</ele><time>2026-04-23T08:13:24.832Z</time></trkpt><trkpt lat="43.1262316" lon="11.6144302"><ele>379.0</ele><time>2026-04-23T08:13:25.843Z</time></trkpt><trkpt lat="43.1263313" lon="11.6144162"><ele>379.0</ele><time>2026-04-23T08:13:26.838Z</time></trkpt><trkpt lat="43.1264344" lon="11.614404"><ele>379.0</ele><time>2026-04-23T08:13:27.841Z</time></trkpt><trkpt lat="43.1265413" lon="11.6143946"><ele>379.0</ele><time>2026-04-23T08:13:28.841Z</time></trkpt><trkpt lat="43.1266523" lon="11.6143879"><ele>379.0</ele><time>2026-04-23T08:13:29.846Z</time></trkpt><trkpt lat="43.1267689" lon="11.6143859"><ele>378.75</ele><time>2026-04-23T08:13:30.845Z</time></trkpt><trkpt lat="43.1268892" lon="11.6143844"><ele>378.5</ele><time>2026-04-23T08:13:31.841Z</time></trkpt><trkpt lat="43.1270076" lon="11.6143817"><ele>378.25</ele><time>2026-04-23T08:13:32.839Z</time></trkpt><trkpt lat="43.1271183" lon="11.6143713"><ele>378.0</ele><time>2026-04-23T08:13:33.846Z</time></trkpt><trkpt lat="43.1272202" lon="11.6143514"><ele>378.0</ele><time>2026-04-23T08:13:34.834Z</time></trkpt><trkpt lat="43.1273128" lon="11.6143116"><ele>378.0</ele><time>2026-04-23T08:13:35.837Z</time></trkpt><trkpt lat="43.1273998" lon="11.6142497"><ele>378.0</ele><time>2026-04-23T08:13:36.843Z</time></trkpt><trkpt lat="43.127483" lon="11.6141629"><ele>378.0</ele><time>2026-04-23T08:13:37.837Z</time></trkpt><trkpt lat="43.1275675" lon="11.6140639"><ele>378.0</ele><time>2026-04-23T08:13:38.846Z</time></trkpt><trkpt lat="43.1276466" lon="11.6139369"><ele>377.25</ele><time>2026-04-23T08:13:39.841Z</time></trkpt><trkpt lat="43.1277245" lon="11.6138049"><ele>376.5</ele><time>2026-04-23T08:13:40.834Z</time></trkpt><trkpt lat="43.1278053" lon="11.6136697"><ele>375.75</ele><time>2026-04-23T08:13:41.843Z</time></trkpt><trkpt lat="43.1278866" lon="11.6135464"><ele>375.0</ele><time>2026-04-23T08:13:42.838Z</time></trkpt><trkpt lat="43.1279735" lon="11.613443"><ele>373.75</ele><time>2026-04-23T08:13:43.851Z</time></trkpt><trkpt lat="43.1280729" lon="11.6133511"><ele>372.5</ele><time>2026-04-23T08:13:44.84Z</time></trkpt><trkpt lat="43.1281886" lon="11.6132712"><ele>371.25</ele><time>2026-04-23T08:13:45.84Z</time></trkpt><trkpt lat="43.1283067" lon="11.6131935"><ele>370.0</ele><time>2026-04-23T08:13:46.838Z</time></trkpt><trkpt lat="43.1284259" lon="11.6131124"><ele>369.6</ele><time>2026-04-23T08:13:47.835Z</time></trkpt><trkpt lat="43.1285384" lon="11.6130364"><ele>369.2</ele><time>2026-04-23T08:13:48.836Z</time></trkpt><trkpt lat="43.1286409" lon="11.6129703"><ele>368.79999999999995</ele><time>2026-04-23T08:13:49.845Z</time></trkpt><trkpt lat="43.1287236" lon="11.6129105"><ele>368.4</ele><time>2026-04-23T08:13:50.838Z</time></trkpt><trkpt lat="43.1287831" lon="11.6128489"><ele>368.0</ele><time>2026-04-23T08:13:51.838Z</time></trkpt><trkpt lat="43.1288222" lon="11.6127792"><ele>366.59999999999997</ele><time>2026-04-23T08:13:52.838Z</time></trkpt><trkpt lat="43.1288408" lon="11.612684"><ele>365.2</ele><time>2026-04-23T08:13:53.843Z</time></trkpt><trkpt lat="43.1288441" lon="11.6125659"><ele>363.8</ele><time>2026-04-23T08:13:54.835Z</time></trkpt><trkpt lat="43.1288395" lon="11.6124247"><ele>362.4</ele><time>2026-04-23T08:13:55.844Z</time></trkpt><trkpt lat="43.1288358" lon="11.6122521"><ele>361.0</ele><time>2026-04-23T08:13:56.837Z</time></trkpt><trkpt lat="43.1288386" lon="11.612066"><ele>359.25</ele><time>2026-04-23T08:13:57.837Z</time></trkpt><trkpt lat="43.1288448" lon="11.6118816"><ele>357.5</ele><time>2026-04-23T08:13:58.842Z</time></trkpt><trkpt lat="43.128852" lon="11.6116992"><ele>355.75</ele><time>2026-04-23T08:13:59.844Z</time></trkpt><trkpt lat="43.1288628" lon="11.6115191"><ele>354.0</ele><time>2026-04-23T08:14:00.843Z</time></trkpt><trkpt lat="43.1288741" lon="11.6113455"><ele>354.0</ele><time>2026-04-23T08:14:01.84Z</time></trkpt><trkpt lat="43.128881" lon="11.6111777"><ele>354.0</ele><time>2026-04-23T08:14:02.837Z</time></trkpt><trkpt lat="43.1288856" lon="11.6110147"><ele>354.0</ele><time>2026-04-23T08:14:03.845Z</time></trkpt><trkpt lat="43.1288901" lon="11.6108548"><ele>354.0</ele><time>2026-04-23T08:14:04.834Z</time></trkpt><trkpt lat="43.1288937" lon="11.6106977"><ele>353.6</ele><time>2026-04-23T08:14:05.838Z</time></trkpt><trkpt lat="43.1288944" lon="11.6105449"><ele>353.2</ele><time>2026-04-23T08:14:06.84Z</time></trkpt><trkpt lat="43.128887" lon="11.6103947"><ele>352.8</ele><time>2026-04-23T08:14:07.839Z</time></trkpt><trkpt lat="43.1288669" lon="11.6102534"><ele>352.40000000000003</ele><time>2026-04-23T08:14:08.843Z</time></trkpt><trkpt lat="43.1288334" lon="11.6101204"><ele>352.0</ele><time>2026-04-23T08:14:09.84Z</time></trkpt><trkpt lat="43.128795" lon="11.6099848"><ele>353.75</ele><time>2026-04-23T08:14:10.839Z</time></trkpt><trkpt lat="43.1287551" lon="11.6098519"><ele>355.5</ele><time>2026-04-23T08:14:11.834Z</time></trkpt><trkpt lat="43.128712" lon="11.6097166"><ele>357.25</ele><time>2026-04-23T08:14:12.834Z</time></trkpt><trkpt lat="43.1286599" lon="11.6095823"><ele>359.0</ele><time>2026-04-23T08:14:13.841Z</time></trkpt><trkpt lat="43.1285909" lon="11.6094325"><ele>362.33333333333337</ele><time>2026-04-23T08:14:14.846Z</time></trkpt><trkpt lat="43.1285089" lon="11.6092529"><ele>365.6666666666667</ele><time>2026-04-23T08:14:15.847Z</time></trkpt><trkpt lat="43.1284247" lon="11.6090566"><ele>369.0</ele><time>2026-04-23T08:14:16.844Z</time></trkpt><trkpt lat="43.1283424" lon="11.6088376"><ele>371.3333333333333</ele><time>2026-04-23T08:14:17.835Z</time></trkpt><trkpt lat="43.1282577" lon="11.6086095"><ele>373.66666666666663</ele><time>2026-04-23T08:14:18.841Z</time></trkpt><trkpt lat="43.1281595" lon="11.6083885"><ele>376.0</ele><time>2026-04-23T08:14:19.84Z</time></trkpt><trkpt lat="43.1280488" lon="11.6081786"><ele>374.0</ele><time>2026-04-23T08:14:20.839Z</time></trkpt><trkpt lat="43.1279246" lon="11.6079769"><ele>372.0</ele><time>2026-04-23T08:14:21.839Z</time></trkpt><trkpt lat="43.1278017" lon="11.6077868"><ele>370.0</ele><time>2026-04-23T08:14:22.837Z</time></trkpt><trkpt lat="43.1276994" lon="11.6076005"><ele>370.0</ele><time>2026-04-23T08:14:23.843Z</time></trkpt><trkpt lat="43.1276211" lon="11.6074217"><ele>370.0</ele><time>2026-04-23T08:14:24.837Z</time></trkpt><trkpt lat="43.1275665" lon="11.6072524"><ele>370.0</ele><time>2026-04-23T08:14:25.844Z</time></trkpt><trkpt lat="43.1275238" lon="11.6071058"><ele>370.0</ele><time>2026-04-23T08:14:26.841Z</time></trkpt><trkpt lat="43.1274767" lon="11.6069451"><ele>370.5</ele><time>2026-04-23T08:14:27.846Z</time></trkpt><trkpt lat="43.1274339" lon="11.6067837"><ele>371.0</ele><time>2026-04-23T08:14:28.84Z</time></trkpt><trkpt lat="43.1273949" lon="11.6066159"><ele>371.5</ele><time>2026-04-23T08:14:29.841Z</time></trkpt><trkpt lat="43.1273659" lon="11.6064503"><ele>372.0</ele><time>2026-04-23T08:14:30.838Z</time></trkpt><trkpt lat="43.1273392" lon="11.606282"><ele>369.5</ele><time>2026-04-23T08:14:31.836Z</time></trkpt><trkpt lat="43.1273132" lon="11.6061169"><ele>367.0</ele><time>2026-04-23T08:14:32.842Z</time></trkpt><trkpt lat="43.1272767" lon="11.6059597"><ele>364.5</ele><time>2026-04-23T08:14:33.841Z</time></trkpt><trkpt lat="43.1272251" lon="11.6058134"><ele>362.0</ele><time>2026-04-23T08:14:34.841Z</time></trkpt><trkpt lat="43.1271508" lon="11.6056836"><ele>362.0</ele><time>2026-04-23T08:14:35.837Z</time></trkpt><trkpt lat="43.1270577" lon="11.6055667"><ele>362.0</ele><time>2026-04-23T08:14:36.836Z</time></trkpt><trkpt lat="43.1269431" lon="11.605448"><ele>362.0</ele><time>2026-04-23T08:14:37.84Z</time></trkpt><trkpt lat="43.126808" lon="11.6053282"><ele>362.0</ele><time>2026-04-23T08:14:38.84Z</time></trkpt><trkpt lat="43.1266707" lon="11.6052081"><ele>361.6666666666667</ele><time>2026-04-23T08:14:39.843Z</time></trkpt><trkpt lat="43.1265496" lon="11.6050791"><ele>361.3333333333333</ele><time>2026-04-23T08:14:40.835Z</time></trkpt><trkpt lat="43.1264439" lon="11.604934"><ele>361.0</ele><time>2026-04-23T08:14:41.844Z</time></trkpt><trkpt lat="43.1263515" lon="11.6047666"><ele>361.0</ele><time>2026-04-23T08:14:42.842Z</time></trkpt><trkpt lat="43.1262733" lon="11.604581"><ele>361.0</ele><time>2026-04-23T08:14:43.85Z</time></trkpt><trkpt lat="43.1261995" lon="11.6043851"><ele>361.0</ele><time>2026-04-23T08:14:44.848Z</time></trkpt><trkpt lat="43.1261272" lon="11.6041935"><ele>362.66666666666663</ele><time>2026-04-23T08:14:45.837Z</time></trkpt><trkpt lat="43.1260541" lon="11.6040107"><ele>364.3333333333333</ele><time>2026-04-23T08:14:46.84Z</time></trkpt><trkpt lat="43.1259776" lon="11.6038341"><ele>366.0</ele><time>2026-04-23T08:14:47.842Z</time></trkpt><trkpt lat="43.1262697" lon="11.5904324"><ele>358.75</ele><time>2026-04-23T08:16:26.833Z</time></trkpt><trkpt lat="43.1262779" lon="11.5902996"><ele>351.5</ele><time>2026-04-23T08:16:27.834Z</time></trkpt><trkpt lat="43.1263139" lon="11.5901739"><ele>344.25</ele><time>2026-04-23T08:16:28.84Z</time></trkpt><trkpt lat="43.1264376" lon="11.5899264"><ele>337.0</ele><time>2026-04-23T08:16:30.835Z</time></trkpt><trkpt lat="43.1265242" lon="11.5898042"><ele>337.25</ele><time>2026-04-23T08:16:31.834Z</time></trkpt><trkpt lat="43.126614" lon="11.5896907"><ele>337.5</ele><time>2026-04-23T08:16:32.833Z</time></trkpt><trkpt lat="43.1267074" lon="11.5895693"><ele>337.75</ele><time>2026-04-23T08:16:33.835Z</time></trkpt><trkpt lat="43.1268023" lon="11.5894456"><ele>338.0</ele><time>2026-04-23T08:16:34.841Z</time></trkpt><trkpt lat="43.1268971" lon="11.5893218"><ele>338.0</ele><time>2026-04-23T08:16:35.84Z</time></trkpt><trkpt lat="43.1269913" lon="11.5891981"><ele>338.0</ele><time>2026-04-23T08:16:36.839Z</time></trkpt><trkpt lat="43.1270851" lon="11.5890739"><ele>338.0</ele><time>2026-04-23T08:16:37.837Z</time></trkpt><trkpt lat="43.1271813" lon="11.5889368"><ele>338.0</ele><time>2026-04-23T08:16:38.839Z</time></trkpt><trkpt lat="43.1272796" lon="11.5888049"><ele>337.5</ele><time>2026-04-23T08:16:39.837Z</time></trkpt><trkpt lat="43.1273735" lon="11.5886741"><ele>337.0</ele><time>2026-04-23T08:16:40.837Z</time></trkpt><trkpt lat="43.1274633" lon="11.5885477"><ele>336.5</ele><time>2026-04-23T08:16:41.834Z</time></trkpt><trkpt lat="43.1275499" lon="11.5884227"><ele>336.0</ele><time>2026-04-23T08:16:42.835Z</time></trkpt><trkpt lat="43.1276282" lon="11.5883075"><ele>336.0</ele><time>2026-04-23T08:16:43.841Z</time></trkpt><trkpt lat="43.1277025" lon="11.588196"><ele>336.0</ele><time>2026-04-23T08:16:44.843Z</time></trkpt><trkpt lat="43.1277707" lon="11.5880918"><ele>336.0</ele><time>2026-04-23T08:16:45.837Z</time></trkpt><trkpt lat="43.1278297" lon="11.5879845"><ele>336.0</ele><time>2026-04-23T08:16:46.838Z</time></trkpt><trkpt lat="43.1278734" lon="11.5878714"><ele>336.0</ele><time>2026-04-23T08:16:47.833Z</time></trkpt><trkpt lat="43.1279072" lon="11.587749"><ele>335.3333333333333</ele><time>2026-04-23T08:16:48.837Z</time></trkpt><trkpt lat="43.1279383" lon="11.5876083"><ele>334.66666666666663</ele><time>2026-04-23T08:16:49.844Z</time></trkpt><trkpt lat="43.1279915" lon="11.5872721"><ele>334.0</ele><time>2026-04-23T08:16:51.841Z</time></trkpt><trkpt lat="43.1280225" lon="11.587091"><ele>333.25</ele><time>2026-04-23T08:16:52.836Z</time></trkpt><trkpt lat="43.1280484" lon="11.5868991"><ele>332.5</ele><time>2026-04-23T08:16:53.844Z</time></trkpt><trkpt lat="43.1280808" lon="11.586711"><ele>331.75</ele><time>2026-04-23T08:16:54.841Z</time></trkpt><trkpt lat="43.1281192" lon="11.5865309"><ele>331.0</ele><time>2026-04-23T08:16:55.837Z</time></trkpt><trkpt lat="43.1281583" lon="11.5863625"><ele>331.0</ele><time>2026-04-23T08:16:56.842Z</time></trkpt><trkpt lat="43.1281955" lon="11.5861993"><ele>331.0</ele><time>2026-04-23T08:16:57.844Z</time></trkpt><trkpt lat="43.1282267" lon="11.5860399"><ele>331.0</ele><time>2026-04-23T08:16:58.836Z</time></trkpt><trkpt lat="43.1282517" lon="11.5858777"><ele>331.0</ele><time>2026-04-23T08:16:59.833Z</time></trkpt><trkpt lat="43.1282712" lon="11.5857173"><ele>329.25</ele><time>2026-04-23T08:17:00.843Z</time></trkpt><trkpt lat="43.1282863" lon="11.5855523"><ele>327.5</ele><time>2026-04-23T08:17:01.839Z</time></trkpt><trkpt lat="43.1282965" lon="11.5853861"><ele>325.75</ele><time>2026-04-23T08:17:02.842Z</time></trkpt><trkpt lat="43.1283001" lon="11.5852277"><ele>324.0</ele><time>2026-04-23T08:17:03.841Z</time></trkpt><trkpt lat="43.1283115" lon="11.5850732"><ele>323.0</ele><time>2026-04-23T08:17:04.837Z</time></trkpt><trkpt lat="43.1283217" lon="11.58492"><ele>322.0</ele><time>2026-04-23T08:17:05.839Z</time></trkpt><trkpt lat="43.128335" lon="11.5847579"><ele>321.0</ele><time>2026-04-23T08:17:06.836Z</time></trkpt><trkpt lat="43.1283536" lon="11.5845926"><ele>320.0</ele><time>2026-04-23T08:17:07.836Z</time></trkpt><trkpt lat="43.1283858" lon="11.5844255"><ele>317.33333333333337</ele><time>2026-04-23T08:17:08.833Z</time></trkpt><trkpt lat="43.1284343" lon="11.5842562"><ele>314.6666666666667</ele><time>2026-04-23T08:17:09.837Z</time></trkpt><trkpt lat="43.1284983" lon="11.5841045"><ele>312.0</ele><time>2026-04-23T08:17:10.835Z</time></trkpt><trkpt lat="43.1286632" lon="11.5838559"><ele>312.0</ele><time>2026-04-23T08:17:12.838Z</time></trkpt><trkpt lat="43.1287711" lon="11.5837783"><ele>312.0</ele><time>2026-04-23T08:17:13.845Z</time></trkpt><trkpt lat="43.1288858" lon="11.5837331"><ele>312.0</ele><time>2026-04-23T08:17:14.835Z</time></trkpt><trkpt lat="43.1290026" lon="11.5836872"><ele>312.0</ele><time>2026-04-23T08:17:15.838Z</time></trkpt><trkpt lat="43.1291065" lon="11.5836181"><ele>308.4</ele><time>2026-04-23T08:17:16.835Z</time></trkpt><trkpt lat="43.1291854" lon="11.583523"><ele>304.79999999999995</ele><time>2026-04-23T08:17:17.835Z</time></trkpt><trkpt lat="43.1292396" lon="11.5833942"><ele>301.2</ele><time>2026-04-23T08:17:18.836Z</time></trkpt><trkpt lat="43.1292798" lon="11.5832478"><ele>297.59999999999997</ele><time>2026-04-23T08:17:19.835Z</time></trkpt><trkpt lat="43.1293102" lon="11.5830936"><ele>294.0</ele><time>2026-04-23T08:17:20.843Z</time></trkpt><trkpt lat="43.1293446" lon="11.5829349"><ele>291.25</ele><time>2026-04-23T08:17:21.839Z</time></trkpt><trkpt lat="43.1293768" lon="11.5827658"><ele>288.5</ele><time>2026-04-23T08:17:22.834Z</time></trkpt><trkpt lat="43.1293926" lon="11.5825826"><ele>285.75</ele><time>2026-04-23T08:17:23.843Z</time></trkpt><trkpt lat="43.1294091" lon="11.5823952"><ele>283.0</ele><time>2026-04-23T08:17:24.842Z</time></trkpt><trkpt lat="43.1294307" lon="11.582198"><ele>279.0</ele><time>2026-04-23T08:17:25.843Z</time></trkpt><trkpt lat="43.1294563" lon="11.5819855"><ele>275.0</ele><time>2026-04-23T08:17:26.841Z</time></trkpt><trkpt lat="43.1294848" lon="11.5817524"><ele>271.0</ele><time>2026-04-23T08:17:27.838Z</time></trkpt><trkpt lat="43.1295178" lon="11.5815138"><ele>271.0</ele><time>2026-04-23T08:17:28.839Z</time></trkpt><trkpt lat="43.1295544" lon="11.5812749"><ele>271.0</ele><time>2026-04-23T08:17:29.835Z</time></trkpt><trkpt lat="43.1295906" lon="11.5810473"><ele>271.0</ele><time>2026-04-23T08:17:30.844Z</time></trkpt><trkpt lat="43.1296211" lon="11.580834"><ele>268.66666666666663</ele><time>2026-04-23T08:17:31.841Z</time></trkpt><trkpt lat="43.1296734" lon="11.5804582"><ele>266.3333333333333</ele><time>2026-04-23T08:17:33.838Z</time></trkpt><trkpt lat="43.1296908" lon="11.5802907"><ele>264.0</ele><time>2026-04-23T08:17:34.841Z</time></trkpt><trkpt lat="43.1297172" lon="11.5801337"><ele>263.5</ele><time>2026-04-23T08:17:35.841Z</time></trkpt><trkpt lat="43.1297527" lon="11.5799719"><ele>263.0</ele><time>2026-04-23T08:17:36.838Z</time></trkpt><trkpt lat="43.1298034" lon="11.5798007"><ele>262.5</ele><time>2026-04-23T08:17:37.84Z</time></trkpt><trkpt lat="43.1298741" lon="11.5796207"><ele>262.0</ele><time>2026-04-23T08:17:38.841Z</time></trkpt><trkpt lat="43.129955" lon="11.5794342"><ele>262.0</ele><time>2026-04-23T08:17:39.843Z</time></trkpt><trkpt lat="43.1300383" lon="11.5792499"><ele>262.0</ele><time>2026-04-23T08:17:40.842Z</time></trkpt><trkpt lat="43.1301165" lon="11.5790773"><ele>262.0</ele><time>2026-04-23T08:17:41.841Z</time></trkpt><trkpt lat="43.1301865" lon="11.5789101"><ele>262.0</ele><time>2026-04-23T08:17:42.833Z</time></trkpt><trkpt lat="43.1302418" lon="11.5787497"><ele>261.6</ele><time>2026-04-23T08:17:43.843Z</time></trkpt><trkpt lat="43.1302783" lon="11.5785963"><ele>261.2</ele><time>2026-04-23T08:17:44.836Z</time></trkpt><trkpt lat="43.1302951" lon="11.5784411"><ele>260.8</ele><time>2026-04-23T08:17:45.834Z</time></trkpt><trkpt lat="43.1302948" lon="11.5782896"><ele>260.4</ele><time>2026-04-23T08:17:46.842Z</time></trkpt><trkpt lat="43.1302824" lon="11.5781506"><ele>260.0</ele><time>2026-04-23T08:17:47.835Z</time></trkpt><trkpt lat="43.130251" lon="11.5780185"><ele>260.0</ele><time>2026-04-23T08:17:48.836Z</time></trkpt><trkpt lat="43.1302022" lon="11.5778966"><ele>260.0</ele><time>2026-04-23T08:17:49.837Z</time></trkpt><trkpt lat="43.1301373" lon="11.5777804"><ele>260.0</ele><time>2026-04-23T08:17:50.844Z</time></trkpt><trkpt lat="43.1300629" lon="11.577656"><ele>260.0</ele><time>2026-04-23T08:17:51.835Z</time></trkpt><trkpt lat="43.1299894" lon="11.5775369"><ele>260.0</ele><time>2026-04-23T08:17:52.844Z</time></trkpt><trkpt lat="43.1298093" lon="11.5773573"><ele>258.25</ele><time>2026-04-23T08:17:54.84Z</time></trkpt><trkpt lat="43.1297002" lon="11.5773061"><ele>256.5</ele><time>2026-04-23T08:17:55.833Z</time></trkpt><trkpt lat="43.1295758" lon="11.5772875"><ele>254.75</ele><time>2026-04-23T08:17:56.835Z</time></trkpt><trkpt lat="43.129449" lon="11.5772782"><ele>253.0</ele><time>2026-04-23T08:17:57.83Z</time></trkpt><trkpt lat="43.1293257" lon="11.5772579"><ele>253.0</ele><time>2026-04-23T08:17:58.835Z</time></trkpt><trkpt lat="43.1292121" lon="11.5772125"><ele>253.0</ele><time>2026-04-23T08:17:59.839Z</time></trkpt><trkpt lat="43.1291186" lon="11.577134"><ele>253.0</ele><time>2026-04-23T08:18:00.835Z</time></trkpt><trkpt lat="43.1290607" lon="11.5770286"><ele>253.0</ele><time>2026-04-23T08:18:01.838Z</time></trkpt><trkpt lat="43.1290473" lon="11.5768679"><ele>253.0</ele><time>2026-04-23T08:18:02.831Z</time></trkpt><trkpt lat="43.1290684" lon="11.5766577"><ele>253.66666666666666</ele><time>2026-04-23T08:18:03.835Z</time></trkpt><trkpt lat="43.1291052" lon="11.5764022"><ele>254.33333333333331</ele><time>2026-04-23T08:18:04.832Z</time></trkpt><trkpt lat="43.1291366" lon="11.5761147"><ele>255.0</ele><time>2026-04-23T08:18:05.831Z</time></trkpt><trkpt lat="43.1291599" lon="11.5758347"><ele>256.0</ele><time>2026-04-23T08:18:06.833Z</time></trkpt><trkpt lat="43.1291778" lon="11.575588"><ele>257.0</ele><time>2026-04-23T08:18:07.836Z</time></trkpt><trkpt lat="43.1291934" lon="11.5753753"><ele>258.0</ele><time>2026-04-23T08:18:08.84Z</time></trkpt><trkpt lat="43.1292148" lon="11.5751991"><ele>258.4</ele><time>2026-04-23T08:18:09.837Z</time></trkpt><trkpt lat="43.1292452" lon="11.5750458"><ele>258.8</ele><time>2026-04-23T08:18:10.832Z</time></trkpt><trkpt lat="43.1292866" lon="11.574913"><ele>259.2</ele><time>2026-04-23T08:18:11.835Z</time></trkpt><trkpt lat="43.1293571" lon="11.5748273"><ele>259.6</ele><time>2026-04-23T08:18:12.836Z</time></trkpt><trkpt lat="43.1294445" lon="11.5747832"><ele>260.0</ele><time>2026-04-23T08:18:13.833Z</time></trkpt><trkpt lat="43.1296116" lon="11.5747919"><ele>260.0</ele><time>2026-04-23T08:18:15.838Z</time></trkpt><trkpt lat="43.129712" lon="11.5748085"><ele>260.0</ele><time>2026-04-23T08:18:16.839Z</time></trkpt><trkpt lat="43.1298302" lon="11.5748484"><ele>260.0</ele><time>2026-04-23T08:18:17.836Z</time></trkpt><trkpt lat="43.1299638" lon="11.5748982"><ele>260.0</ele><time>2026-04-23T08:18:18.839Z</time></trkpt><trkpt lat="43.1301057" lon="11.5749421"><ele>260.0</ele><time>2026-04-23T08:18:19.842Z</time></trkpt><trkpt lat="43.1302528" lon="11.5749816"><ele>260.0</ele><time>2026-04-23T08:18:20.847Z</time></trkpt><trkpt lat="43.1304045" lon="11.5750202"><ele>260.0</ele><time>2026-04-23T08:18:21.834Z</time></trkpt><trkpt lat="43.1305616" lon="11.5750567"><ele>260.0</ele><time>2026-04-23T08:18:22.842Z</time></trkpt><trkpt lat="43.1307212" lon="11.5750969"><ele>260.0</ele><time>2026-04-23T08:18:23.837Z</time></trkpt><trkpt lat="43.1308827" lon="11.5751367"><ele>260.0</ele><time>2026-04-23T08:18:24.838Z</time></trkpt><trkpt lat="43.1310453" lon="11.5751767"><ele>260.33333333333337</ele><time>2026-04-23T08:18:25.836Z</time></trkpt><trkpt lat="43.13121" lon="11.5752152"><ele>260.6666666666667</ele><time>2026-04-23T08:18:26.834Z</time></trkpt><trkpt lat="43.1313748" lon="11.5752531"><ele>261.0</ele><time>2026-04-23T08:18:27.839Z</time></trkpt><trkpt lat="43.1315378" lon="11.5752932"><ele>261.6666666666667</ele><time>2026-04-23T08:18:28.835Z</time></trkpt><trkpt lat="43.1317028" lon="11.5753385"><ele>262.33333333333337</ele><time>2026-04-23T08:18:29.834Z</time></trkpt><trkpt lat="43.1318611" lon="11.575385"><ele>263.0</ele><time>2026-04-23T08:18:30.845Z</time></trkpt><trkpt lat="43.1319971" lon="11.5754232"><ele>263.0</ele><time>2026-04-23T08:18:31.832Z</time></trkpt><trkpt lat="43.1321062" lon="11.5754553"><ele>263.0</ele><time>2026-04-23T08:18:32.833Z</time></trkpt><trkpt lat="43.1321985" lon="11.5754862"><ele>263.0</ele><time>2026-04-23T08:18:33.835Z</time></trkpt><trkpt lat="43.1322824" lon="11.5755146"><ele>263.0</ele><time>2026-04-23T08:18:34.837Z</time></trkpt><trkpt lat="43.132474" lon="11.5755811"><ele>263.5</ele><time>2026-04-23T08:18:36.836Z</time></trkpt><trkpt lat="43.132582" lon="11.575618"><ele>264.0</ele><time>2026-04-23T08:18:37.84Z</time></trkpt><trkpt lat="43.1326984" lon="11.575658"><ele>264.5</ele><time>2026-04-23T08:18:38.838Z</time></trkpt><trkpt lat="43.1328178" lon="11.5757019"><ele>265.0</ele><time>2026-04-23T08:18:39.842Z</time></trkpt><trkpt lat="43.1329423" lon="11.5757439"><ele>265.0</ele><time>2026-04-23T08:18:40.834Z</time></trkpt><trkpt lat="43.133068" lon="11.5757825"><ele>265.0</ele><time>2026-04-23T08:18:41.841Z</time></trkpt><trkpt lat="43.1331958" lon="11.575823"><ele>265.0</ele><time>2026-04-23T08:18:42.839Z</time></trkpt><trkpt lat="43.1333253" lon="11.5758641"><ele>265.0</ele><time>2026-04-23T08:18:43.842Z</time></trkpt><trkpt lat="43.1334557" lon="11.5759056"><ele>265.0</ele><time>2026-04-23T08:18:44.84Z</time></trkpt><trkpt lat="43.1335851" lon="11.5759452"><ele>265.0</ele><time>2026-04-23T08:18:45.839Z</time></trkpt><trkpt lat="43.133716" lon="11.5759864"><ele>265.0</ele><time>2026-04-23T08:18:46.839Z</time></trkpt><trkpt lat="43.1338484" lon="11.576028"><ele>265.0</ele><time>2026-04-23T08:18:47.837Z</time></trkpt><trkpt lat="43.1339822" lon="11.5760685"><ele>265.25</ele><time>2026-04-23T08:18:48.837Z</time></trkpt><trkpt lat="43.134116" lon="11.5761154"><ele>265.5</ele><time>2026-04-23T08:18:49.838Z</time></trkpt><trkpt lat="43.1342519" lon="11.5761613"><ele>265.75</ele><time>2026-04-23T08:18:50.839Z</time></trkpt><trkpt lat="43.1343918" lon="11.5762076"><ele>266.0</ele><time>2026-04-23T08:18:51.842Z</time></trkpt><trkpt lat="43.1345333" lon="11.5762556"><ele>265.0</ele><time>2026-04-23T08:18:52.835Z</time></trkpt><trkpt lat="43.1346773" lon="11.5763065"><ele>264.0</ele><time>2026-04-23T08:18:53.847Z</time></trkpt><trkpt lat="43.1348236" lon="11.5763648"><ele>263.0</ele><time>2026-04-23T08:18:54.839Z</time></trkpt><trkpt lat="43.1349674" lon="11.5764454"><ele>263.0</ele><time>2026-04-23T08:18:55.839Z</time></trkpt><trkpt lat="43.1352454" lon="11.5766585"><ele>263.0</ele><time>2026-04-23T08:18:57.835Z</time></trkpt><trkpt lat="43.1353811" lon="11.5767776"><ele>263.0</ele><time>2026-04-23T08:18:58.846Z</time></trkpt><trkpt lat="43.1355144" lon="11.5769032"><ele>263.0</ele><time>2026-04-23T08:18:59.843Z</time></trkpt><trkpt lat="43.1356516" lon="11.5770289"><ele>263.0</ele><time>2026-04-23T08:19:00.842Z</time></trkpt><trkpt lat="43.1357917" lon="11.5771529"><ele>262.6666666666667</ele><time>2026-04-23T08:19:01.841Z</time></trkpt><trkpt lat="43.135932" lon="11.5772844"><ele>262.3333333333333</ele><time>2026-04-23T08:19:02.84Z</time></trkpt><trkpt lat="43.1360714" lon="11.5774094"><ele>262.0</ele><time>2026-04-23T08:19:03.84Z</time></trkpt><trkpt lat="43.1362061" lon="11.577535"><ele>262.0</ele><time>2026-04-23T08:19:04.838Z</time></trkpt><trkpt lat="43.1363432" lon="11.577664"><ele>262.0</ele><time>2026-04-23T08:19:05.839Z</time></trkpt><trkpt lat="43.1364827" lon="11.5777895"><ele>262.0</ele><time>2026-04-23T08:19:06.84Z</time></trkpt><trkpt lat="43.1366255" lon="11.5779193"><ele>262.66666666666663</ele><time>2026-04-23T08:19:07.839Z</time></trkpt><trkpt lat="43.1367689" lon="11.5780524"><ele>263.3333333333333</ele><time>2026-04-23T08:19:08.84Z</time></trkpt><trkpt lat="43.1369136" lon="11.5781786"><ele>264.0</ele><time>2026-04-23T08:19:09.832Z</time></trkpt><trkpt lat="43.1370517" lon="11.5783039"><ele>264.0</ele><time>2026-04-23T08:19:10.839Z</time></trkpt><trkpt lat="43.1371763" lon="11.5784232"><ele>264.0</ele><time>2026-04-23T08:19:11.839Z</time></trkpt><trkpt lat="43.1372885" lon="11.578524"><ele>264.0</ele><time>2026-04-23T08:19:12.834Z</time></trkpt><trkpt lat="43.1373852" lon="11.5786067"><ele>264.0</ele><time>2026-04-23T08:19:13.841Z</time></trkpt><trkpt lat="43.1374601" lon="11.5786722"><ele>264.2</ele><time>2026-04-23T08:19:14.836Z</time></trkpt><trkpt lat="43.1375207" lon="11.5787173"><ele>264.4</ele><time>2026-04-23T08:19:15.84Z</time></trkpt><trkpt lat="43.13763" lon="11.5787162"><ele>264.6</ele><time>2026-04-23T08:19:17.838Z</time></trkpt><trkpt lat="43.1377253" lon="11.5785785"><ele>264.8</ele><time>2026-04-23T08:19:19.838Z</time></trkpt><trkpt lat="43.1377737" lon="11.5784732"><ele>265.0</ele><time>2026-04-23T08:19:20.843Z</time></trkpt><trkpt lat="43.1378391" lon="11.5783551"><ele>265.25</ele><time>2026-04-23T08:19:21.84Z</time></trkpt><trkpt lat="43.1379129" lon="11.5782175"><ele>265.5</ele><time>2026-04-23T08:19:22.843Z</time></trkpt><trkpt lat="43.1380016" lon="11.5780595"><ele>265.75</ele><time>2026-04-23T08:19:23.842Z</time></trkpt><trkpt lat="43.1381011" lon="11.5778751"><ele>266.0</ele><time>2026-04-23T08:19:24.842Z</time></trkpt><trkpt lat="43.1382115" lon="11.5776756"><ele>269.0</ele><time>2026-04-23T08:19:25.841Z</time></trkpt><trkpt lat="43.1383347" lon="11.5774554"><ele>272.0</ele><time>2026-04-23T08:19:26.843Z</time></trkpt><trkpt lat="43.1384598" lon="11.5772425"><ele>275.0</ele><time>2026-04-23T08:19:27.846Z</time></trkpt><trkpt lat="43.138571" lon="11.5770514"><ele>275.75</ele><time>2026-04-23T08:19:28.848Z</time></trkpt><trkpt lat="43.1386593" lon="11.5768856"><ele>276.5</ele><time>2026-04-23T08:19:29.838Z</time></trkpt><trkpt lat="43.1387201" lon="11.5767301"><ele>277.25</ele><time>2026-04-23T08:19:30.842Z</time></trkpt><trkpt lat="43.1387567" lon="11.5765576"><ele>278.0</ele><time>2026-04-23T08:19:31.833Z</time></trkpt><trkpt lat="43.1387718" lon="11.5763602"><ele>280.33333333333337</ele><time>2026-04-23T08:19:32.837Z</time></trkpt><trkpt lat="43.1387736" lon="11.5761397"><ele>282.6666666666667</ele><time>2026-04-23T08:19:33.838Z</time></trkpt><trkpt lat="43.1387679" lon="11.5759203"><ele>285.0</ele><time>2026-04-23T08:19:34.844Z</time></trkpt><trkpt lat="43.1387602" lon="11.5757143"><ele>285.0</ele><time>2026-04-23T08:19:35.835Z</time></trkpt><trkpt lat="43.1387377" lon="11.5755388"><ele>285.0</ele><time>2026-04-23T08:19:36.839Z</time></trkpt><trkpt lat="43.1386863" lon="11.5753895"><ele>285.0</ele><time>2026-04-23T08:19:37.842Z</time></trkpt><trkpt lat="43.1386087" lon="11.5752551"><ele>285.0</ele><time>2026-04-23T08:19:38.837Z</time></trkpt><trkpt lat="43.1383777" lon="11.5749831"><ele>289.3333333333333</ele><time>2026-04-23T08:19:40.834Z</time></trkpt><trkpt lat="43.138243" lon="11.5748427"><ele>293.66666666666663</ele><time>2026-04-23T08:19:41.832Z</time></trkpt><trkpt lat="43.1381187" lon="11.5747087"><ele>298.0</ele><time>2026-04-23T08:19:42.836Z</time></trkpt><trkpt lat="43.1380264" lon="11.574578"><ele>298.75</ele><time>2026-04-23T08:19:43.845Z</time></trkpt><trkpt lat="43.1379722" lon="11.5744472"><ele>299.5</ele><time>2026-04-23T08:19:44.841Z</time></trkpt><trkpt lat="43.1379564" lon="11.5742965"><ele>300.25</ele><time>2026-04-23T08:19:45.833Z</time></trkpt><trkpt lat="43.1379597" lon="11.5741329"><ele>301.0</ele><time>2026-04-23T08:19:46.84Z</time></trkpt><trkpt lat="43.1379625" lon="11.5739094"><ele>300.0</ele><time>2026-04-23T08:19:47.837Z</time></trkpt><trkpt lat="43.1379586" lon="11.5736444"><ele>299.0</ele><time>2026-04-23T08:19:48.836Z</time></trkpt><trkpt lat="43.1379552" lon="11.5733387"><ele>298.0</ele><time>2026-04-23T08:19:49.841Z</time></trkpt><trkpt lat="43.1379476" lon="11.5730266"><ele>296.66666666666663</ele><time>2026-04-23T08:19:50.844Z</time></trkpt><trkpt lat="43.1379478" lon="11.572732"><ele>295.3333333333333</ele><time>2026-04-23T08:19:51.843Z</time></trkpt><trkpt lat="43.1379495" lon="11.572479"><ele>294.0</ele><time>2026-04-23T08:19:52.835Z</time></trkpt><trkpt lat="43.1379558" lon="11.5722856"><ele>294.0</ele><time>2026-04-23T08:19:53.841Z</time></trkpt><trkpt lat="43.1379752" lon="11.5721305"><ele>294.0</ele><time>2026-04-23T08:19:54.84Z</time></trkpt><trkpt lat="43.138023" lon="11.5720108"><ele>294.0</ele><time>2026-04-23T08:19:55.843Z</time></trkpt><trkpt lat="43.1381036" lon="11.5719228"><ele>294.0</ele><time>2026-04-23T08:19:56.843Z</time></trkpt><trkpt lat="43.1382089" lon="11.5718539"><ele>294.0</ele><time>2026-04-23T08:19:57.836Z</time></trkpt><trkpt lat="43.1383426" lon="11.5717977"><ele>296.6666666666667</ele><time>2026-04-23T08:19:58.843Z</time></trkpt><trkpt lat="43.1384798" lon="11.571727"><ele>299.33333333333337</ele><time>2026-04-23T08:19:59.842Z</time></trkpt><trkpt lat="43.1386947" lon="11.5715326"><ele>302.0</ele><time>2026-04-23T08:20:01.839Z</time></trkpt><trkpt lat="43.1387471" lon="11.5713731"><ele>302.0</ele><time>2026-04-23T08:20:02.842Z</time></trkpt><trkpt lat="43.1387681" lon="11.571209"><ele>302.0</ele><time>2026-04-23T08:20:03.834Z</time></trkpt><trkpt lat="43.1387595" lon="11.5710511"><ele>302.0</ele><time>2026-04-23T08:20:04.831Z</time></trkpt><trkpt lat="43.1387163" lon="11.5708932"><ele>302.0</ele><time>2026-04-23T08:20:05.837Z</time></trkpt><trkpt lat="43.1386554" lon="11.5707538"><ele>301.5</ele><time>2026-04-23T08:20:06.83Z</time></trkpt><trkpt lat="43.1385711" lon="11.5706062"><ele>301.0</ele><time>2026-04-23T08:20:07.836Z</time></trkpt><trkpt lat="43.1384892" lon="11.570461"><ele>300.5</ele><time>2026-04-23T08:20:08.841Z</time></trkpt><trkpt lat="43.1384412" lon="11.5703152"><ele>300.0</ele><time>2026-04-23T08:20:09.836Z</time></trkpt><trkpt lat="43.1384354" lon="11.5701582"><ele>301.25</ele><time>2026-04-23T08:20:10.84Z</time></trkpt><trkpt lat="43.1384679" lon="11.5699804"><ele>302.5</ele><time>2026-04-23T08:20:11.843Z</time></trkpt><trkpt lat="43.1385032" lon="11.5697803"><ele>303.75</ele><time>2026-04-23T08:20:12.845Z</time></trkpt><trkpt lat="43.1385256" lon="11.5695568"><ele>305.0</ele><time>2026-04-23T08:20:13.843Z</time></trkpt><trkpt lat="43.138535" lon="11.5693222"><ele>305.25</ele><time>2026-04-23T08:20:14.844Z</time></trkpt><trkpt lat="43.138528" lon="11.5691095"><ele>305.5</ele><time>2026-04-23T08:20:15.836Z</time></trkpt><trkpt lat="43.1384994" lon="11.5689202"><ele>305.75</ele><time>2026-04-23T08:20:16.835Z</time></trkpt><trkpt lat="43.1384459" lon="11.5687479"><ele>306.0</ele><time>2026-04-23T08:20:17.839Z</time></trkpt><trkpt lat="43.1383681" lon="11.5685895"><ele>306.3333333333333</ele><time>2026-04-23T08:20:18.839Z</time></trkpt><trkpt lat="43.1382623" lon="11.5684382"><ele>306.66666666666663</ele><time>2026-04-23T08:20:19.834Z</time></trkpt><trkpt lat="43.1381397" lon="11.5682855"><ele>307.0</ele><time>2026-04-23T08:20:20.846Z</time></trkpt><trkpt lat="43.1379394" lon="11.567998"><ele>302.5</ele><time>2026-04-23T08:20:22.847Z</time></trkpt><trkpt lat="43.137879" lon="11.5678549"><ele>298.0</ele><time>2026-04-23T08:20:23.847Z</time></trkpt><trkpt lat="43.1378539" lon="11.5677039"><ele>293.5</ele><time>2026-04-23T08:20:24.838Z</time></trkpt><trkpt lat="43.1378608" lon="11.567543"><ele>289.0</ele><time>2026-04-23T08:20:25.834Z</time></trkpt><trkpt lat="43.1378972" lon="11.5673534"><ele>289.0</ele><time>2026-04-23T08:20:26.84Z</time></trkpt><trkpt lat="43.1379377" lon="11.5671602"><ele>289.0</ele><time>2026-04-23T08:20:27.84Z</time></trkpt><trkpt lat="43.1379645" lon="11.5669665"><ele>289.0</ele><time>2026-04-23T08:20:28.838Z</time></trkpt><trkpt lat="43.1379722" lon="11.5667673"><ele>289.0</ele><time>2026-04-23T08:20:29.834Z</time></trkpt><trkpt lat="43.1379607" lon="11.5665466"><ele>288.66666666666663</ele><time>2026-04-23T08:20:30.832Z</time></trkpt><trkpt lat="43.137947" lon="11.5663088"><ele>288.3333333333333</ele><time>2026-04-23T08:20:31.841Z</time></trkpt><trkpt lat="43.1379356" lon="11.5660714"><ele>288.0</ele><time>2026-04-23T08:20:32.839Z</time></trkpt><trkpt lat="43.1379239" lon="11.5658496"><ele>288.0</ele><time>2026-04-23T08:20:33.842Z</time></trkpt><trkpt lat="43.137913" lon="11.5656506"><ele>288.0</ele><time>2026-04-23T08:20:34.836Z</time></trkpt><trkpt lat="43.1379019" lon="11.5654779"><ele>288.0</ele><time>2026-04-23T08:20:35.83Z</time></trkpt><trkpt lat="43.1378873" lon="11.5653295"><ele>288.0</ele><time>2026-04-23T08:20:36.84Z</time></trkpt><trkpt lat="43.1378625" lon="11.5651946"><ele>288.0</ele><time>2026-04-23T08:20:37.834Z</time></trkpt><trkpt lat="43.1378198" lon="11.5650682"><ele>288.0</ele><time>2026-04-23T08:20:38.836Z</time></trkpt><trkpt lat="43.1377581" lon="11.5649377"><ele>288.0</ele><time>2026-04-23T08:20:39.836Z</time></trkpt><trkpt lat="43.1376844" lon="11.5647918"><ele>288.0</ele><time>2026-04-23T08:20:40.834Z</time></trkpt><trkpt lat="43.1376153" lon="11.5646558"><ele>288.8</ele><time>2026-04-23T08:20:41.841Z</time></trkpt><trkpt lat="43.1375071" lon="11.5644356"><ele>289.6</ele><time>2026-04-23T08:20:43.841Z</time></trkpt><trkpt lat="43.1374532" lon="11.5643676"><ele>290.4</ele><time>2026-04-23T08:20:44.839Z</time></trkpt><trkpt lat="43.1373896" lon="11.5643297"><ele>291.2</ele><time>2026-04-23T08:20:45.835Z</time></trkpt><trkpt lat="43.1373172" lon="11.5643233"><ele>292.0</ele><time>2026-04-23T08:20:46.839Z</time></trkpt><trkpt lat="43.137228" lon="11.5643403"><ele>287.4</ele><time>2026-04-23T08:20:47.839Z</time></trkpt><trkpt lat="43.1371394" lon="11.5643934"><ele>282.79999999999995</ele><time>2026-04-23T08:20:48.841Z</time></trkpt><trkpt lat="43.137059" lon="11.564473"><ele>278.2</ele><time>2026-04-23T08:20:49.844Z</time></trkpt><trkpt lat="43.137005" lon="11.564575"><ele>273.59999999999997</ele><time>2026-04-23T08:20:50.847Z</time></trkpt><trkpt lat="43.1369722" lon="11.5647013"><ele>269.0</ele><time>2026-04-23T08:20:51.845Z</time></trkpt><trkpt lat="43.136965" lon="11.564841"><ele>269.0</ele><time>2026-04-23T08:20:52.843Z</time></trkpt><trkpt lat="43.1369916" lon="11.5649858"><ele>269.0</ele><time>2026-04-23T08:20:53.843Z</time></trkpt><trkpt lat="43.1370487" lon="11.5651289"><ele>269.0</ele><time>2026-04-23T08:20:54.837Z</time></trkpt><trkpt lat="43.1371223" lon="11.565272"><ele>269.0</ele><time>2026-04-23T08:20:55.836Z</time></trkpt><trkpt lat="43.1371925" lon="11.5653987"><ele>268.59999999999997</ele><time>2026-04-23T08:20:56.837Z</time></trkpt><trkpt lat="43.1372485" lon="11.5655228"><ele>268.2</ele><time>2026-04-23T08:20:57.841Z</time></trkpt><trkpt lat="43.1372811" lon="11.5656616"><ele>267.79999999999995</ele><time>2026-04-23T08:20:58.844Z</time></trkpt><trkpt lat="43.1372775" lon="11.5658143"><ele>267.4</ele><time>2026-04-23T08:20:59.838Z</time></trkpt><trkpt lat="43.137244" lon="11.565968"><ele>267.0</ele><time>2026-04-23T08:21:00.844Z</time></trkpt><trkpt lat="43.1371851" lon="11.5661123"><ele>268.3333333333333</ele><time>2026-04-23T08:21:01.842Z</time></trkpt><trkpt lat="43.1371002" lon="11.5662321"><ele>269.66666666666663</ele><time>2026-04-23T08:21:02.836Z</time></trkpt><trkpt lat="43.1368373" lon="11.5664194"><ele>271.0</ele><time>2026-04-23T08:21:04.84Z</time></trkpt><trkpt lat="43.1366718" lon="11.566472"><ele>265.25</ele><time>2026-04-23T08:21:05.837Z</time></trkpt><trkpt lat="43.1365272" lon="11.566519"><ele>259.5</ele><time>2026-04-23T08:21:06.841Z</time></trkpt><trkpt lat="43.1364034" lon="11.5665581"><ele>253.75</ele><time>2026-04-23T08:21:07.84Z</time></trkpt><trkpt lat="43.1363049" lon="11.5665944"><ele>248.0</ele><time>2026-04-23T08:21:08.84Z</time></trkpt><trkpt lat="43.1362327" lon="11.5666037"><ele>248.0</ele><time>2026-04-23T08:21:09.845Z</time></trkpt><trkpt lat="43.136168" lon="11.5665684"><ele>248.0</ele><time>2026-04-23T08:21:10.838Z</time></trkpt><trkpt lat="43.1361172" lon="11.5664955"><ele>248.0</ele><time>2026-04-23T08:21:11.844Z</time></trkpt><trkpt lat="43.1360852" lon="11.5663773"><ele>248.0</ele><time>2026-04-23T08:21:12.832Z</time></trkpt><trkpt lat="43.1360895" lon="11.5662296"><ele>248.0</ele><time>2026-04-23T08:21:13.839Z</time></trkpt><trkpt lat="43.1361438" lon="11.5660993"><ele>248.0</ele><time>2026-04-23T08:21:14.838Z</time></trkpt><trkpt lat="43.1362353" lon="11.5659935"><ele>248.0</ele><time>2026-04-23T08:21:15.839Z</time></trkpt><trkpt lat="43.1363153" lon="11.5658811"><ele>248.0</ele><time>2026-04-23T08:21:16.842Z</time></trkpt><trkpt lat="43.136377" lon="11.5657625"><ele>248.0</ele><time>2026-04-23T08:21:17.841Z</time></trkpt><trkpt lat="43.1364025" lon="11.565643"><ele>248.0</ele><time>2026-04-23T08:21:18.834Z</time></trkpt><trkpt lat="43.1363881" lon="11.5655214"><ele>248.0</ele><time>2026-04-23T08:21:19.834Z</time></trkpt><trkpt lat="43.1363341" lon="11.5654044"><ele>248.0</ele><time>2026-04-23T08:21:20.835Z</time></trkpt><trkpt lat="43.1362521" lon="11.5652933"><ele>248.0</ele><time>2026-04-23T08:21:21.842Z</time></trkpt><trkpt lat="43.1361596" lon="11.5651875"><ele>248.0</ele><time>2026-04-23T08:21:22.843Z</time></trkpt><trkpt lat="43.1360793" lon="11.5650765"><ele>247.25</ele><time>2026-04-23T08:21:23.839Z</time></trkpt><trkpt lat="43.1360273" lon="11.5648142"><ele>246.5</ele><time>2026-04-23T08:21:25.841Z</time></trkpt><trkpt lat="43.1360522" lon="11.5646692"><ele>245.75</ele><time>2026-04-23T08:21:26.835Z</time></trkpt><trkpt lat="43.136108" lon="11.5645117"><ele>245.0</ele><time>2026-04-23T08:21:27.836Z</time></trkpt><trkpt lat="43.1361929" lon="11.56434"><ele>243.75</ele><time>2026-04-23T08:21:28.837Z</time></trkpt><trkpt lat="43.1362787" lon="11.5641795"><ele>242.5</ele><time>2026-04-23T08:21:29.835Z</time></trkpt><trkpt lat="43.1363433" lon="11.5640323"><ele>241.25</ele><time>2026-04-23T08:21:30.841Z</time></trkpt><trkpt lat="43.1363837" lon="11.5638842"><ele>240.0</ele><time>2026-04-23T08:21:31.839Z</time></trkpt><trkpt lat="43.1363948" lon="11.5637341"><ele>240.2</ele><time>2026-04-23T08:21:32.836Z</time></trkpt><trkpt lat="43.1363814" lon="11.5635892"><ele>240.4</ele><time>2026-04-23T08:21:33.841Z</time></trkpt><trkpt lat="43.1363516" lon="11.5634523"><ele>240.60000000000002</ele><time>2026-04-23T08:21:34.834Z</time></trkpt><trkpt lat="43.1363089" lon="11.5633321"><ele>240.8</ele><time>2026-04-23T08:21:35.836Z</time></trkpt><trkpt lat="43.1362558" lon="11.5632233"><ele>241.0</ele><time>2026-04-23T08:21:36.841Z</time></trkpt><trkpt lat="43.136192" lon="11.5631345"><ele>241.0</ele><time>2026-04-23T08:21:37.837Z</time></trkpt><trkpt lat="43.136117" lon="11.5630537"><ele>241.00000000000003</ele><time>2026-04-23T08:21:38.833Z</time></trkpt><trkpt lat="43.136043" lon="11.5629683"><ele>241.00000000000003</ele><time>2026-04-23T08:21:39.839Z</time></trkpt><trkpt lat="43.1359656" lon="11.5628735"><ele>241.0</ele><time>2026-04-23T08:21:40.841Z</time></trkpt><trkpt lat="43.1358851" lon="11.5627714"><ele>241.0</ele><time>2026-04-23T08:21:41.84Z</time></trkpt><trkpt lat="43.1358024" lon="11.5626662"><ele>236.66666666666666</ele><time>2026-04-23T08:21:42.835Z</time></trkpt><trkpt lat="43.1357174" lon="11.562556"><ele>232.33333333333331</ele><time>2026-04-23T08:21:43.834Z</time></trkpt><trkpt lat="43.1356303" lon="11.5624401"><ele>228.0</ele><time>2026-04-23T08:21:44.834Z</time></trkpt><trkpt lat="43.1354649" lon="11.5622083"><ele>228.0</ele><time>2026-04-23T08:21:46.843Z</time></trkpt><trkpt lat="43.1353925" lon="11.5620906"><ele>228.0</ele><time>2026-04-23T08:21:47.837Z</time></trkpt><trkpt lat="43.1353307" lon="11.5619798"><ele>228.0</ele><time>2026-04-23T08:21:48.843Z</time></trkpt><trkpt lat="43.1352799" lon="11.5618758"><ele>228.0</ele><time>2026-04-23T08:21:49.839Z</time></trkpt><trkpt lat="43.1352276" lon="11.5617764"><ele>228.0</ele><time>2026-04-23T08:21:50.843Z</time></trkpt><trkpt lat="43.1351668" lon="11.56167"><ele>229.25</ele><time>2026-04-23T08:21:51.844Z</time></trkpt><trkpt lat="43.1350995" lon="11.5615506"><ele>230.5</ele><time>2026-04-23T08:21:52.845Z</time></trkpt><trkpt lat="43.13503" lon="11.5614173"><ele>231.75</ele><time>2026-04-23T08:21:53.842Z</time></trkpt><trkpt lat="43.1349554" lon="11.561273"><ele>233.0</ele><time>2026-04-23T08:21:54.842Z</time></trkpt><trkpt lat="43.1348733" lon="11.5611162"><ele>226.0</ele><time>2026-04-23T08:21:55.836Z</time></trkpt><trkpt lat="43.1347858" lon="11.5609481"><ele>219.0</ele><time>2026-04-23T08:21:56.841Z</time></trkpt><trkpt lat="43.1346876" lon="11.560762"><ele>212.0</ele><time>2026-04-23T08:21:57.837Z</time></trkpt><trkpt lat="43.1345746" lon="11.5605503"><ele>213.33333333333334</ele><time>2026-04-23T08:21:58.842Z</time></trkpt><trkpt lat="43.1344602" lon="11.5603321"><ele>214.66666666666669</ele><time>2026-04-23T08:21:59.843Z</time></trkpt><trkpt lat="43.1343561" lon="11.5601422"><ele>216.0</ele><time>2026-04-23T08:22:00.839Z</time></trkpt><trkpt lat="43.1342601" lon="11.5599633"><ele>216.0</ele><time>2026-04-23T08:22:01.841Z</time></trkpt><trkpt lat="43.1341752" lon="11.5598055"><ele>216.0</ele><time>2026-04-23T08:22:02.838Z</time></trkpt><trkpt lat="43.1341033" lon="11.559662"><ele>216.0</ele><time>2026-04-23T08:22:03.847Z</time></trkpt><trkpt lat="43.1340434" lon="11.559519"><ele>216.0</ele><time>2026-04-23T08:22:04.846Z</time></trkpt><trkpt lat="43.1340011" lon="11.5593616"><ele>210.66666666666669</ele><time>2026-04-23T08:22:05.832Z</time></trkpt><trkpt lat="43.1339817" lon="11.5589972"><ele>205.33333333333334</ele><time>2026-04-23T08:22:07.836Z</time></trkpt><trkpt lat="43.133994" lon="11.558775"><ele>200.0</ele><time>2026-04-23T08:22:08.837Z</time></trkpt><trkpt lat="43.134015" lon="11.5585517"><ele>200.0</ele><time>2026-04-23T08:22:09.841Z</time></trkpt><trkpt lat="43.1340311" lon="11.5583419"><ele>200.0</ele><time>2026-04-23T08:22:10.833Z</time></trkpt><trkpt lat="43.1340434" lon="11.5581466"><ele>200.0</ele><time>2026-04-23T08:22:11.842Z</time></trkpt><trkpt lat="43.1340374" lon="11.5579422"><ele>200.0</ele><time>2026-04-23T08:22:12.831Z</time></trkpt><trkpt lat="43.1340182" lon="11.5577334"><ele>200.0</ele><time>2026-04-23T08:22:13.844Z</time></trkpt><trkpt lat="43.1339926" lon="11.5575224"><ele>200.0</ele><time>2026-04-23T08:22:14.835Z</time></trkpt><trkpt lat="43.1339621" lon="11.5573107"><ele>200.0</ele><time>2026-04-23T08:22:15.838Z</time></trkpt><trkpt lat="43.1339257" lon="11.557098"><ele>201.66666666666669</ele><time>2026-04-23T08:22:16.844Z</time></trkpt><trkpt lat="43.1338895" lon="11.5568858"><ele>203.33333333333331</ele><time>2026-04-23T08:22:17.837Z</time></trkpt><trkpt lat="43.1338537" lon="11.5566759"><ele>205.0</ele><time>2026-04-23T08:22:18.837Z</time></trkpt><trkpt lat="43.1338171" lon="11.5564821"><ele>205.0</ele><time>2026-04-23T08:22:19.844Z</time></trkpt><trkpt lat="43.133778" lon="11.5563186"><ele>205.0</ele><time>2026-04-23T08:22:20.841Z</time></trkpt><trkpt lat="43.1337416" lon="11.5561907"><ele>205.0</ele><time>2026-04-23T08:22:21.834Z</time></trkpt><trkpt lat="43.1337033" lon="11.5561003"><ele>205.0</ele><time>2026-04-23T08:22:22.833Z</time></trkpt><trkpt lat="43.1336495" lon="11.5560165"><ele>205.0</ele><time>2026-04-23T08:22:23.836Z</time></trkpt><trkpt lat="43.1335729" lon="11.5559304"><ele>207.5</ele><time>2026-04-23T08:22:24.836Z</time></trkpt><trkpt lat="43.1334814" lon="11.5558605"><ele>210.0</ele><time>2026-04-23T08:22:25.839Z</time></trkpt><trkpt lat="43.1333797" lon="11.5558195"><ele>212.5</ele><time>2026-04-23T08:22:26.842Z</time></trkpt><trkpt lat="43.1331486" lon="11.5558629"><ele>215.0</ele><time>2026-04-23T08:22:28.84Z</time></trkpt><trkpt lat="43.1330247" lon="11.5559436"><ele>216.0</ele><time>2026-04-23T08:22:29.845Z</time></trkpt><trkpt lat="43.1329009" lon="11.5560631"><ele>217.0</ele><time>2026-04-23T08:22:30.837Z</time></trkpt><trkpt lat="43.1327734" lon="11.5562145"><ele>218.0</ele><time>2026-04-23T08:22:31.834Z</time></trkpt><trkpt lat="43.1326397" lon="11.5564083"><ele>218.0</ele><time>2026-04-23T08:22:32.835Z</time></trkpt><trkpt lat="43.1325051" lon="11.5566172"><ele>218.0</ele><time>2026-04-23T08:22:33.836Z</time></trkpt><trkpt lat="43.1323803" lon="11.5568076"><ele>218.0</ele><time>2026-04-23T08:22:34.833Z</time></trkpt><trkpt lat="43.1322587" lon="11.5569703"><ele>216.66666666666669</ele><time>2026-04-23T08:22:35.839Z</time></trkpt><trkpt lat="43.1321351" lon="11.5571036"><ele>215.33333333333331</ele><time>2026-04-23T08:22:36.832Z</time></trkpt><trkpt lat="43.1319995" lon="11.557205"><ele>214.0</ele><time>2026-04-23T08:22:37.84Z</time></trkpt><trkpt lat="43.1318429" lon="11.5572799"><ele>214.0</ele><time>2026-04-23T08:22:38.835Z</time></trkpt><trkpt lat="43.1316798" lon="11.5573381"><ele>214.0</ele><time>2026-04-23T08:22:39.838Z</time></trkpt><trkpt lat="43.1315254" lon="11.5573842"><ele>214.0</ele><time>2026-04-23T08:22:40.842Z</time></trkpt><trkpt lat="43.1313953" lon="11.5574079"><ele>213.6</ele><time>2026-04-23T08:22:41.842Z</time></trkpt><trkpt lat="43.1312877" lon="11.5574098"><ele>213.2</ele><time>2026-04-23T08:22:42.832Z</time></trkpt><trkpt lat="43.1311918" lon="11.5573554"><ele>212.79999999999998</ele><time>2026-04-23T08:22:43.842Z</time></trkpt><trkpt lat="43.1311203" lon="11.5572513"><ele>212.39999999999998</ele><time>2026-04-23T08:22:44.845Z</time></trkpt><trkpt lat="43.1310675" lon="11.5571143"><ele>212.0</ele><time>2026-04-23T08:22:45.836Z</time></trkpt><trkpt lat="43.13104" lon="11.5569656"><ele>218.0</ele><time>2026-04-23T08:22:46.843Z</time></trkpt><trkpt lat="43.1310424" lon="11.5567997"><ele>224.0</ele><time>2026-04-23T08:22:47.839Z</time></trkpt><trkpt lat="43.1311551" lon="11.556554"><ele>230.0</ele><time>2026-04-23T08:22:49.844Z</time></trkpt><trkpt lat="43.1312683" lon="11.5564664"><ele>230.0</ele><time>2026-04-23T08:22:50.833Z</time></trkpt><trkpt lat="43.1314027" lon="11.5563836"><ele>230.0</ele><time>2026-04-23T08:22:51.844Z</time></trkpt><trkpt lat="43.1315553" lon="11.5562899"><ele>230.0</ele><time>2026-04-23T08:22:52.835Z</time></trkpt><trkpt lat="43.1317226" lon="11.5561813"><ele>234.33333333333334</ele><time>2026-04-23T08:22:53.837Z</time></trkpt><trkpt lat="43.1319049" lon="11.5560364"><ele>238.66666666666669</ele><time>2026-04-23T08:22:54.837Z</time></trkpt><trkpt lat="43.1320942" lon="11.5558642"><ele>243.0</ele><time>2026-04-23T08:22:55.832Z</time></trkpt><trkpt lat="43.1322643" lon="11.5556842"><ele>244.0</ele><time>2026-04-23T08:22:56.838Z</time></trkpt><trkpt lat="43.1324096" lon="11.5555195"><ele>245.0</ele><time>2026-04-23T08:22:57.837Z</time></trkpt><trkpt lat="43.1325367" lon="11.555377"><ele>246.0</ele><time>2026-04-23T08:22:58.84Z</time></trkpt><trkpt lat="43.1326473" lon="11.5552498"><ele>246.0</ele><time>2026-04-23T08:22:59.843Z</time></trkpt><trkpt lat="43.1327354" lon="11.5551407"><ele>246.00000000000003</ele><time>2026-04-23T08:23:00.841Z</time></trkpt><trkpt lat="43.1328082" lon="11.5550464"><ele>246.00000000000003</ele><time>2026-04-23T08:23:01.837Z</time></trkpt><trkpt lat="43.1328578" lon="11.5549478"><ele>246.0</ele><time>2026-04-23T08:23:02.834Z</time></trkpt><trkpt lat="43.1328863" lon="11.554846"><ele>246.0</ele><time>2026-04-23T08:23:03.838Z</time></trkpt><trkpt lat="43.1328839" lon="11.5547191"><ele>246.0</ele><time>2026-04-23T08:23:04.836Z</time></trkpt><trkpt lat="43.1328515" lon="11.5545938"><ele>246.00000000000003</ele><time>2026-04-23T08:23:05.835Z</time></trkpt><trkpt lat="43.1327969" lon="11.5544711"><ele>246.00000000000003</ele><time>2026-04-23T08:23:06.845Z</time></trkpt><trkpt lat="43.1327286" lon="11.5543436"><ele>246.0</ele><time>2026-04-23T08:23:07.843Z</time></trkpt><trkpt lat="43.1326436" lon="11.554228"><ele>246.0</ele><time>2026-04-23T08:23:08.837Z</time></trkpt><trkpt lat="43.1324685" lon="11.5540684"><ele>250.0</ele><time>2026-04-23T08:23:10.845Z</time></trkpt><trkpt lat="43.1323801" lon="11.5540344"><ele>254.00000000000003</ele><time>2026-04-23T08:23:11.834Z</time></trkpt><trkpt lat="43.132289" lon="11.5540419"><ele>258.0</ele><time>2026-04-23T08:23:12.845Z</time></trkpt><trkpt lat="43.1321945" lon="11.5541054"><ele>262.0</ele><time>2026-04-23T08:23:13.851Z</time></trkpt><trkpt lat="43.1320913" lon="11.5542045"><ele>266.0</ele><time>2026-04-23T08:23:14.838Z</time></trkpt><trkpt lat="43.1319848" lon="11.5543544"><ele>266.0</ele><time>2026-04-23T08:23:15.834Z</time></trkpt><trkpt lat="43.1318699" lon="11.5545298"><ele>266.0</ele><time>2026-04-23T08:23:16.84Z</time></trkpt><trkpt lat="43.131753" lon="11.5547142"><ele>266.0</ele><time>2026-04-23T08:23:17.841Z</time></trkpt><trkpt lat="43.1316336" lon="11.5548712"><ele>265.0</ele><time>2026-04-23T08:23:18.837Z</time></trkpt><trkpt lat="43.1315173" lon="11.5549991"><ele>264.0</ele><time>2026-04-23T08:23:19.845Z</time></trkpt><trkpt lat="43.1314042" lon="11.5550942"><ele>263.0</ele><time>2026-04-23T08:23:20.841Z</time></trkpt><trkpt lat="43.1312873" lon="11.5551567"><ele>262.0</ele><time>2026-04-23T08:23:21.84Z</time></trkpt><trkpt lat="43.1311633" lon="11.5551774"><ele>262.0</ele><time>2026-04-23T08:23:22.84Z</time></trkpt><trkpt lat="43.1310478" lon="11.5551538"><ele>262.0</ele><time>2026-04-23T08:23:23.84Z</time></trkpt><trkpt lat="43.1309458" lon="11.5550828"><ele>262.0</ele><time>2026-04-23T08:23:24.836Z</time></trkpt><trkpt lat="43.1308538" lon="11.5549721"><ele>262.0</ele><time>2026-04-23T08:23:25.848Z</time></trkpt><trkpt lat="43.1307681" lon="11.5548274"><ele>263.0</ele><time>2026-04-23T08:23:26.842Z</time></trkpt><trkpt lat="43.1306842" lon="11.5546644"><ele>264.0</ele><time>2026-04-23T08:23:27.837Z</time></trkpt><trkpt lat="43.1305874" lon="11.5545331"><ele>265.0</ele><time>2026-04-23T08:23:28.839Z</time></trkpt><trkpt lat="43.1304628" lon="11.5544114"><ele>266.0</ele><time>2026-04-23T08:23:29.845Z</time></trkpt><trkpt lat="43.1301895" lon="11.5541395"><ele>266.0</ele><time>2026-04-23T08:23:31.836Z</time></trkpt><trkpt lat="43.1300527" lon="11.55399"><ele>266.0</ele><time>2026-04-23T08:23:32.836Z</time></trkpt><trkpt lat="43.1299243" lon="11.5538729"><ele>266.0</ele><time>2026-04-23T08:23:33.839Z</time></trkpt><trkpt lat="43.1297978" lon="11.5537921"><ele>266.25</ele><time>2026-04-23T08:23:34.839Z</time></trkpt><trkpt lat="43.1296722" lon="11.5537547"><ele>266.5</ele><time>2026-04-23T08:23:35.834Z</time></trkpt><trkpt lat="43.129544" lon="11.5537391"><ele>266.75</ele><time>2026-04-23T08:23:36.842Z</time></trkpt><trkpt lat="43.1294311" lon="11.5537293"><ele>267.0</ele><time>2026-04-23T08:23:37.839Z</time></trkpt><trkpt lat="43.1293459" lon="11.5536923"><ele>269.2</ele><time>2026-04-23T08:23:38.838Z</time></trkpt><trkpt lat="43.129296" lon="11.5536231"><ele>271.4</ele><time>2026-04-23T08:23:39.835Z</time></trkpt><trkpt lat="43.1292847" lon="11.5535252"><ele>273.6</ele><time>2026-04-23T08:23:40.84Z</time></trkpt><trkpt lat="43.1293009" lon="11.5534048"><ele>275.8</ele><time>2026-04-23T08:23:41.839Z</time></trkpt><trkpt lat="43.1293543" lon="11.5532817"><ele>278.0</ele><time>2026-04-23T08:23:42.837Z</time></trkpt><trkpt lat="43.1294389" lon="11.5531721"><ele>278.0</ele><time>2026-04-23T08:23:43.835Z</time></trkpt><trkpt lat="43.1295399" lon="11.5530935"><ele>278.0</ele><time>2026-04-23T08:23:44.841Z</time></trkpt><trkpt lat="43.1296548" lon="11.5530621"><ele>278.0</ele><time>2026-04-23T08:23:45.84Z</time></trkpt><trkpt lat="43.1297791" lon="11.5530792"><ele>278.0</ele><time>2026-04-23T08:23:46.841Z</time></trkpt><trkpt lat="43.1299236" lon="11.5531282"><ele>278.0</ele><time>2026-04-23T08:23:47.836Z</time></trkpt><trkpt lat="43.1300865" lon="11.5532168"><ele>278.0</ele><time>2026-04-23T08:23:48.841Z</time></trkpt><trkpt lat="43.1302429" lon="11.553296"><ele>278.0</ele><time>2026-04-23T08:23:49.838Z</time></trkpt><trkpt lat="43.1303796" lon="11.5533656"><ele>278.0</ele><time>2026-04-23T08:23:50.838Z</time></trkpt><trkpt lat="43.1306061" lon="11.5534499"><ele>278.0</ele><time>2026-04-23T08:23:52.839Z</time></trkpt><trkpt lat="43.1307145" lon="11.5534566"><ele>278.0</ele><time>2026-04-23T08:23:53.834Z</time></trkpt><trkpt lat="43.1308225" lon="11.5534362"><ele>279.0</ele><time>2026-04-23T08:23:54.843Z</time></trkpt><trkpt lat="43.130915" lon="11.5533796"><ele>280.0</ele><time>2026-04-23T08:23:55.838Z</time></trkpt><trkpt lat="43.1309936" lon="11.5532958"><ele>281.0</ele><time>2026-04-23T08:23:56.841Z</time></trkpt><trkpt lat="43.131065" lon="11.5531791"><ele>282.0</ele><time>2026-04-23T08:23:57.839Z</time></trkpt><trkpt lat="43.1311159" lon="11.5530478"><ele>283.0</ele><time>2026-04-23T08:23:58.84Z</time></trkpt><trkpt lat="43.1311502" lon="11.5529164"><ele>284.8</ele><time>2026-04-23T08:23:59.835Z</time></trkpt><trkpt lat="43.1311645" lon="11.5527808"><ele>286.6</ele><time>2026-04-23T08:24:00.845Z</time></trkpt><trkpt lat="43.1311603" lon="11.5526378"><ele>288.4</ele><time>2026-04-23T08:24:01.84Z</time></trkpt><trkpt lat="43.1311427" lon="11.5524875"><ele>290.2</ele><time>2026-04-23T08:24:02.848Z</time></trkpt><trkpt lat="43.1311252" lon="11.5523501"><ele>292.0</ele><time>2026-04-23T08:24:03.844Z</time></trkpt><trkpt lat="43.1311145" lon="11.5522274"><ele>292.0</ele><time>2026-04-23T08:24:04.839Z</time></trkpt><trkpt lat="43.131111" lon="11.5521119"><ele>292.0</ele><time>2026-04-23T08:24:05.839Z</time></trkpt><trkpt lat="43.1311182" lon="11.5519815"><ele>292.0</ele><time>2026-04-23T08:24:06.842Z</time></trkpt><trkpt lat="43.1311444" lon="11.5518317"><ele>292.0</ele><time>2026-04-23T08:24:07.839Z</time></trkpt><trkpt lat="43.1312004" lon="11.5516625"><ele>292.0</ele><time>2026-04-23T08:24:08.835Z</time></trkpt><trkpt lat="43.131282" lon="11.5514812"><ele>294.0</ele><time>2026-04-23T08:24:09.842Z</time></trkpt><trkpt lat="43.131387" lon="11.5512833"><ele>296.0</ele><time>2026-04-23T08:24:10.847Z</time></trkpt><trkpt lat="43.1315113" lon="11.5510753"><ele>298.0</ele><time>2026-04-23T08:24:11.835Z</time></trkpt><trkpt lat="43.1317721" lon="11.5506177"><ele>302.5</ele><time>2026-04-23T08:24:13.843Z</time></trkpt><trkpt lat="43.1319095" lon="11.5503622"><ele>307.0</ele><time>2026-04-23T08:24:14.839Z</time></trkpt><trkpt lat="43.1320515" lon="11.5501029"><ele>307.0</ele><time>2026-04-23T08:24:15.841Z</time></trkpt><trkpt lat="43.1321824" lon="11.5498562"><ele>307.0</ele><time>2026-04-23T08:24:16.845Z</time></trkpt><trkpt lat="43.1323048" lon="11.5496307"><ele>307.0</ele><time>2026-04-23T08:24:17.841Z</time></trkpt><trkpt lat="43.132419" lon="11.5494401"><ele>307.66666666666663</ele><time>2026-04-23T08:24:18.845Z</time></trkpt><trkpt lat="43.1325347" lon="11.5492878"><ele>308.3333333333333</ele><time>2026-04-23T08:24:19.84Z</time></trkpt><trkpt lat="43.1326574" lon="11.5491603"><ele>309.0</ele><time>2026-04-23T08:24:20.841Z</time></trkpt><trkpt lat="43.132793" lon="11.5490513"><ele>309.0</ele><time>2026-04-23T08:24:21.845Z</time></trkpt><trkpt lat="43.1329446" lon="11.5489496"><ele>309.0</ele><time>2026-04-23T08:24:22.839Z</time></trkpt><trkpt lat="43.1330968" lon="11.5488591"><ele>309.0</ele><time>2026-04-23T08:24:23.837Z</time></trkpt><trkpt lat="43.133221" lon="11.5487655"><ele>309.5</ele><time>2026-04-23T08:24:24.847Z</time></trkpt><trkpt lat="43.1333209" lon="11.5486656"><ele>310.0</ele><time>2026-04-23T08:24:25.837Z</time></trkpt><trkpt lat="43.1334003" lon="11.5485467"><ele>310.5</ele><time>2026-04-23T08:24:26.841Z</time></trkpt><trkpt lat="43.1334596" lon="11.5484005"><ele>311.0</ele><time>2026-04-23T08:24:27.838Z</time></trkpt><trkpt lat="43.1334936" lon="11.5482351"><ele>311.0</ele><time>2026-04-23T08:24:28.837Z</time></trkpt><trkpt lat="43.133507" lon="11.5480698"><ele>311.0</ele><time>2026-04-23T08:24:29.84Z</time></trkpt><trkpt lat="43.1334996" lon="11.5479112"><ele>311.0</ele><time>2026-04-23T08:24:30.842Z</time></trkpt><trkpt lat="43.1334612" lon="11.5477549"><ele>311.0</ele><time>2026-04-23T08:24:31.842Z</time></trkpt><trkpt lat="43.1334143" lon="11.5475835"><ele>311.0</ele><time>2026-04-23T08:24:32.842Z</time></trkpt><trkpt lat="43.1333019" lon="11.5471397"><ele>311.0</ele><time>2026-04-23T08:24:34.843Z</time></trkpt><trkpt lat="43.1332445" lon="11.5468779"><ele>305.6666666666667</ele><time>2026-04-23T08:24:35.84Z</time></trkpt><trkpt lat="43.1331834" lon="11.5466047"><ele>300.3333333333333</ele><time>2026-04-23T08:24:36.834Z</time></trkpt><trkpt lat="43.1331185" lon="11.5463315"><ele>295.0</ele><time>2026-04-23T08:24:37.844Z</time></trkpt><trkpt lat="43.1330499" lon="11.5460555"><ele>295.0</ele><time>2026-04-23T08:24:38.844Z</time></trkpt><trkpt lat="43.1329851" lon="11.5457756"><ele>295.0</ele><time>2026-04-23T08:24:39.835Z</time></trkpt><trkpt lat="43.1329225" lon="11.5455027"><ele>295.0</ele><time>2026-04-23T08:24:40.842Z</time></trkpt><trkpt lat="43.1328627" lon="11.5452356"><ele>296.0</ele><time>2026-04-23T08:24:41.841Z</time></trkpt><trkpt lat="43.132801" lon="11.5449699"><ele>297.0</ele><time>2026-04-23T08:24:42.844Z</time></trkpt><trkpt lat="43.1327421" lon="11.54471"><ele>298.0</ele><time>2026-04-23T08:24:43.844Z</time></trkpt><trkpt lat="43.1326859" lon="11.544465"><ele>299.3333333333333</ele><time>2026-04-23T08:24:44.845Z</time></trkpt><trkpt lat="43.1326323" lon="11.5442334"><ele>300.6666666666667</ele><time>2026-04-23T08:24:45.846Z</time></trkpt><trkpt lat="43.1325676" lon="11.5440079"><ele>302.0</ele><time>2026-04-23T08:24:46.85Z</time></trkpt><trkpt lat="43.1324909" lon="11.5437774"><ele>302.0</ele><time>2026-04-23T08:24:47.841Z</time></trkpt><trkpt lat="43.1324059" lon="11.5435469"><ele>302.0</ele><time>2026-04-23T08:24:48.847Z</time></trkpt><trkpt lat="43.1323208" lon="11.5433148"><ele>302.0</ele><time>2026-04-23T08:24:49.839Z</time></trkpt><trkpt lat="43.1322325" lon="11.5430898"><ele>302.6666666666667</ele><time>2026-04-23T08:24:50.839Z</time></trkpt><trkpt lat="43.1321483" lon="11.5428772"><ele>303.3333333333333</ele><time>2026-04-23T08:24:51.836Z</time></trkpt><trkpt lat="43.1320679" lon="11.5426793"><ele>304.0</ele><time>2026-04-23T08:24:52.845Z</time></trkpt><trkpt lat="43.1319982" lon="11.5424959"><ele>304.0</ele><time>2026-04-23T08:24:53.85Z</time></trkpt><trkpt lat="43.1318848" lon="11.5421907"><ele>304.0</ele><time>2026-04-23T08:24:55.836Z</time></trkpt><trkpt lat="43.1318555" lon="11.542046"><ele>304.0</ele><time>2026-04-23T08:24:56.839Z</time></trkpt><trkpt lat="43.1318508" lon="11.5418935"><ele>304.3333333333333</ele><time>2026-04-23T08:24:57.834Z</time></trkpt><trkpt lat="43.1318779" lon="11.5417135"><ele>304.6666666666667</ele><time>2026-04-23T08:24:58.841Z</time></trkpt><trkpt lat="43.1319289" lon="11.5415096"><ele>305.0</ele><time>2026-04-23T08:24:59.84Z</time></trkpt><trkpt lat="43.1319877" lon="11.5412856"><ele>305.33333333333337</ele><time>2026-04-23T08:25:00.84Z</time></trkpt><trkpt lat="43.1320341" lon="11.5410467"><ele>305.6666666666667</ele><time>2026-04-23T08:25:01.844Z</time></trkpt><trkpt lat="43.1320665" lon="11.5408134"><ele>306.0</ele><time>2026-04-23T08:25:02.838Z</time></trkpt><trkpt lat="43.1321047" lon="11.5405865"><ele>306.0</ele><time>2026-04-23T08:25:03.839Z</time></trkpt><trkpt lat="43.1321551" lon="11.5403717"><ele>306.0</ele><time>2026-04-23T08:25:04.835Z</time></trkpt><trkpt lat="43.1322101" lon="11.5401699"><ele>306.0</ele><time>2026-04-23T08:25:05.845Z</time></trkpt><trkpt lat="43.1322561" lon="11.5399705"><ele>306.0</ele><time>2026-04-23T08:25:06.843Z</time></trkpt><trkpt lat="43.1322852" lon="11.5397809"><ele>306.0</ele><time>2026-04-23T08:25:07.831Z</time></trkpt><trkpt lat="43.1322919" lon="11.5395889"><ele>306.0</ele><time>2026-04-23T08:25:08.842Z</time></trkpt><trkpt lat="43.1322853" lon="11.5393834"><ele>306.0</ele><time>2026-04-23T08:25:09.841Z</time></trkpt><trkpt lat="43.1322782" lon="11.5391668"><ele>304.3333333333333</ele><time>2026-04-23T08:25:10.839Z</time></trkpt><trkpt lat="43.1322843" lon="11.538955"><ele>302.66666666666663</ele><time>2026-04-23T08:25:11.838Z</time></trkpt><trkpt lat="43.1323" lon="11.5387448"><ele>301.0</ele><time>2026-04-23T08:25:12.841Z</time></trkpt><trkpt lat="43.1323308" lon="11.5385454"><ele>297.0</ele><time>2026-04-23T08:25:13.838Z</time></trkpt><trkpt lat="43.132368" lon="11.5383504"><ele>293.0</ele><time>2026-04-23T08:25:14.84Z</time></trkpt><trkpt lat="43.1324739" lon="11.5379361"><ele>289.6666666666667</ele><time>2026-04-23T08:25:16.842Z</time></trkpt><trkpt lat="43.132539" lon="11.5377228"><ele>286.3333333333333</ele><time>2026-04-23T08:25:17.843Z</time></trkpt><trkpt lat="43.1326027" lon="11.5375188"><ele>283.0</ele><time>2026-04-23T08:25:18.838Z</time></trkpt><trkpt lat="43.1326673" lon="11.5373341"><ele>283.0</ele><time>2026-04-23T08:25:19.849Z</time></trkpt><trkpt lat="43.1327407" lon="11.5371653"><ele>283.0</ele><time>2026-04-23T08:25:20.836Z</time></trkpt><trkpt lat="43.1328296" lon="11.5370026"><ele>283.0</ele><time>2026-04-23T08:25:21.843Z</time></trkpt><trkpt lat="43.1329282" lon="11.5368442"><ele>283.0</ele><time>2026-04-23T08:25:22.839Z</time></trkpt><trkpt lat="43.1330373" lon="11.5366934"><ele>280.66666666666663</ele><time>2026-04-23T08:25:23.842Z</time></trkpt><trkpt lat="43.1331539" lon="11.5365382"><ele>278.3333333333333</ele><time>2026-04-23T08:25:24.844Z</time></trkpt><trkpt lat="43.1332697" lon="11.536381"><ele>276.0</ele><time>2026-04-23T08:25:25.837Z</time></trkpt><trkpt lat="43.1333806" lon="11.536224"><ele>275.0</ele><time>2026-04-23T08:25:26.844Z</time></trkpt><trkpt lat="43.13348" lon="11.5360637"><ele>274.0</ele><time>2026-04-23T08:25:27.842Z</time></trkpt><trkpt lat="43.1335757" lon="11.5358876"><ele>273.0</ele><time>2026-04-23T08:25:28.842Z</time></trkpt><trkpt lat="43.1336622" lon="11.5357"><ele>273.0</ele><time>2026-04-23T08:25:29.845Z</time></trkpt><trkpt lat="43.1337507" lon="11.5354944"><ele>273.0</ele><time>2026-04-23T08:25:30.839Z</time></trkpt><trkpt lat="43.1338323" lon="11.5352844"><ele>273.0</ele><time>2026-04-23T08:25:31.846Z</time></trkpt><trkpt lat="43.1339197" lon="11.5350696"><ele>271.3333333333333</ele><time>2026-04-23T08:25:32.842Z</time></trkpt><trkpt lat="43.1340069" lon="11.5348599"><ele>269.66666666666663</ele><time>2026-04-23T08:25:33.847Z</time></trkpt><trkpt lat="43.1340952" lon="11.534654"><ele>268.0</ele><time>2026-04-23T08:25:34.841Z</time></trkpt><trkpt lat="43.1341834" lon="11.5344471"><ele>268.0</ele><time>2026-04-23T08:25:35.839Z</time></trkpt><trkpt lat="43.134348" lon="11.5340405"><ele>268.0</ele><time>2026-04-23T08:25:37.841Z</time></trkpt><trkpt lat="43.1344231" lon="11.5338371"><ele>266.66666666666663</ele><time>2026-04-23T08:25:38.834Z</time></trkpt><trkpt lat="43.1344944" lon="11.5336279"><ele>265.3333333333333</ele><time>2026-04-23T08:25:39.838Z</time></trkpt><trkpt lat="43.1345609" lon="11.5334144"><ele>264.0</ele><time>2026-04-23T08:25:40.838Z</time></trkpt><trkpt lat="43.1346237" lon="11.5331955"><ele>264.0</ele><time>2026-04-23T08:25:41.838Z</time></trkpt><trkpt lat="43.1346843" lon="11.5329736"><ele>264.0</ele><time>2026-04-23T08:25:42.84Z</time></trkpt><trkpt lat="43.1347442" lon="11.5327541"><ele>264.0</ele><time>2026-04-23T08:25:43.838Z</time></trkpt><trkpt lat="43.1348004" lon="11.5325358"><ele>263.6666666666667</ele><time>2026-04-23T08:25:44.842Z</time></trkpt><trkpt lat="43.1348531" lon="11.5323135"><ele>263.33333333333337</ele><time>2026-04-23T08:25:45.838Z</time></trkpt><trkpt lat="43.1349048" lon="11.5320871"><ele>263.0</ele><time>2026-04-23T08:25:46.843Z</time></trkpt><trkpt lat="43.1349499" lon="11.5318544"><ele>265.6666666666667</ele><time>2026-04-23T08:25:47.844Z</time></trkpt><trkpt lat="43.1349899" lon="11.531617"><ele>268.3333333333333</ele><time>2026-04-23T08:25:48.844Z</time></trkpt><trkpt lat="43.1350235" lon="11.5313799"><ele>271.0</ele><time>2026-04-23T08:25:49.841Z</time></trkpt><trkpt lat="43.1350495" lon="11.5311454"><ele>272.3333333333333</ele><time>2026-04-23T08:25:50.849Z</time></trkpt><trkpt lat="43.1350695" lon="11.5309266"><ele>273.6666666666667</ele><time>2026-04-23T08:25:51.846Z</time></trkpt><trkpt lat="43.1350759" lon="11.5307224"><ele>275.0</ele><time>2026-04-23T08:25:52.843Z</time></trkpt><trkpt lat="43.1350579" lon="11.5305295"><ele>275.0</ele><time>2026-04-23T08:25:53.843Z</time></trkpt><trkpt lat="43.1350087" lon="11.530339"><ele>275.0</ele><time>2026-04-23T08:25:54.845Z</time></trkpt><trkpt lat="43.1349351" lon="11.5301449"><ele>275.0</ele><time>2026-04-23T08:25:55.839Z</time></trkpt><trkpt lat="43.1348471" lon="11.5299343"><ele>268.5</ele><time>2026-04-23T08:25:56.842Z</time></trkpt><trkpt lat="43.1346832" lon="11.5294951"><ele>262.0</ele><time>2026-04-23T08:25:58.84Z</time></trkpt><trkpt lat="43.1346058" lon="11.5292861"><ele>262.0</ele><time>2026-04-23T08:25:59.845Z</time></trkpt><trkpt lat="43.1345371" lon="11.5290869"><ele>262.0</ele><time>2026-04-23T08:26:00.849Z</time></trkpt><trkpt lat="43.1344796" lon="11.528915"><ele>262.0</ele><time>2026-04-23T08:26:01.841Z</time></trkpt><trkpt lat="43.1344287" lon="11.528763"><ele>262.0</ele><time>2026-04-23T08:26:02.844Z</time></trkpt><trkpt lat="43.1343843" lon="11.5286171"><ele>262.25</ele><time>2026-04-23T08:26:03.842Z</time></trkpt><trkpt lat="43.1343636" lon="11.5284728"><ele>262.5</ele><time>2026-04-23T08:26:04.84Z</time></trkpt><trkpt lat="43.1343542" lon="11.528299"><ele>262.75</ele><time>2026-04-23T08:26:05.841Z</time></trkpt><trkpt lat="43.1343593" lon="11.528103"><ele>263.0</ele><time>2026-04-23T08:26:06.841Z</time></trkpt><trkpt lat="43.1343759" lon="11.5278909"><ele>262.0</ele><time>2026-04-23T08:26:07.841Z</time></trkpt><trkpt lat="43.1343992" lon="11.5276668"><ele>261.0</ele><time>2026-04-23T08:26:08.846Z</time></trkpt><trkpt lat="43.1344254" lon="11.5274347"><ele>260.0</ele><time>2026-04-23T08:26:09.845Z</time></trkpt><trkpt lat="43.1344529" lon="11.5272179"><ele>258.0</ele><time>2026-04-23T08:26:10.842Z</time></trkpt><trkpt lat="43.1344767" lon="11.5270044"><ele>256.0</ele><time>2026-04-23T08:26:11.838Z</time></trkpt><trkpt lat="43.1344953" lon="11.5267935"><ele>254.0</ele><time>2026-04-23T08:26:12.843Z</time></trkpt><trkpt lat="43.1345137" lon="11.5265819"><ele>254.0</ele><time>2026-04-23T08:26:13.838Z</time></trkpt><trkpt lat="43.1345304" lon="11.5263791"><ele>254.0</ele><time>2026-04-23T08:26:14.841Z</time></trkpt><trkpt lat="43.1345446" lon="11.5261858"><ele>254.0</ele><time>2026-04-23T08:26:15.839Z</time></trkpt><trkpt lat="43.1345608" lon="11.5259998"><ele>254.0</ele><time>2026-04-23T08:26:16.839Z</time></trkpt><trkpt lat="43.1345946" lon="11.5258158"><ele>252.66666666666669</ele><time>2026-04-23T08:26:17.844Z</time></trkpt><trkpt lat="43.1347224" lon="11.5254596"><ele>251.33333333333331</ele><time>2026-04-23T08:26:19.844Z</time></trkpt><trkpt lat="43.1347947" lon="11.5252777"><ele>250.0</ele><time>2026-04-23T08:26:20.842Z</time></trkpt><trkpt lat="43.134867" lon="11.5250866"><ele>250.66666666666666</ele><time>2026-04-23T08:26:21.845Z</time></trkpt><trkpt lat="43.1349291" lon="11.5248925"><ele>251.33333333333331</ele><time>2026-04-23T08:26:22.842Z</time></trkpt><trkpt lat="43.1349863" lon="11.524699"><ele>252.0</ele><time>2026-04-23T08:26:23.846Z</time></trkpt><trkpt lat="43.1350358" lon="11.5245065"><ele>252.0</ele><time>2026-04-23T08:26:24.847Z</time></trkpt><trkpt lat="43.1350678" lon="11.5243162"><ele>252.0</ele><time>2026-04-23T08:26:25.838Z</time></trkpt><trkpt lat="43.1350795" lon="11.5241255"><ele>252.0</ele><time>2026-04-23T08:26:26.843Z</time></trkpt><trkpt lat="43.1350731" lon="11.5239202"><ele>252.0</ele><time>2026-04-23T08:26:27.844Z</time></trkpt><trkpt lat="43.1350561" lon="11.5236957"><ele>250.33333333333331</ele><time>2026-04-23T08:26:28.841Z</time></trkpt><trkpt lat="43.1350391" lon="11.5234536"><ele>248.66666666666666</ele><time>2026-04-23T08:26:29.843Z</time></trkpt><trkpt lat="43.1350282" lon="11.5232053"><ele>247.0</ele><time>2026-04-23T08:26:30.844Z</time></trkpt><trkpt lat="43.1350144" lon="11.5229502"><ele>245.0</ele><time>2026-04-23T08:26:31.841Z</time></trkpt><trkpt lat="43.1349996" lon="11.5226956"><ele>243.0</ele><time>2026-04-23T08:26:32.841Z</time></trkpt><trkpt lat="43.1349894" lon="11.5224473"><ele>241.0</ele><time>2026-04-23T08:26:33.847Z</time></trkpt><trkpt lat="43.1349881" lon="11.5222048"><ele>239.66666666666666</ele><time>2026-04-23T08:26:34.843Z</time></trkpt><trkpt lat="43.1349941" lon="11.5219651"><ele>238.33333333333331</ele><time>2026-04-23T08:26:35.842Z</time></trkpt><trkpt lat="43.1350081" lon="11.5217304"><ele>237.0</ele><time>2026-04-23T08:26:36.845Z</time></trkpt><trkpt lat="43.1350181" lon="11.5214908"><ele>237.0</ele><time>2026-04-23T08:26:37.844Z</time></trkpt><trkpt lat="43.1350238" lon="11.5212551"><ele>237.0</ele><time>2026-04-23T08:26:38.839Z</time></trkpt><trkpt lat="43.1350197" lon="11.5208186"><ele>236.66666666666669</ele><time>2026-04-23T08:26:40.843Z</time></trkpt><trkpt lat="43.1350024" lon="11.5206149"><ele>236.33333333333334</ele><time>2026-04-23T08:26:41.836Z</time></trkpt><trkpt lat="43.1349727" lon="11.5204045"><ele>236.0</ele><time>2026-04-23T08:26:42.843Z</time></trkpt><trkpt lat="43.1349324" lon="11.5201818"><ele>230.0</ele><time>2026-04-23T08:26:43.846Z</time></trkpt><trkpt lat="43.1348843" lon="11.5199685"><ele>224.0</ele><time>2026-04-23T08:26:44.84Z</time></trkpt><trkpt lat="43.1348348" lon="11.519772"><ele>218.0</ele><time>2026-04-23T08:26:45.844Z</time></trkpt><trkpt lat="43.1347834" lon="11.5195946"><ele>221.0</ele><time>2026-04-23T08:26:46.841Z</time></trkpt><trkpt lat="43.134739" lon="11.5194337"><ele>224.0</ele><time>2026-04-23T08:26:47.841Z</time></trkpt><trkpt lat="43.1347037" lon="11.5192757"><ele>227.0</ele><time>2026-04-23T08:26:48.835Z</time></trkpt><trkpt lat="43.134672" lon="11.5190964"><ele>230.0</ele><time>2026-04-23T08:26:49.838Z</time></trkpt><trkpt lat="43.1346473" lon="11.5188819"><ele>234.33333333333334</ele><time>2026-04-23T08:26:50.839Z</time></trkpt><trkpt lat="43.1346356" lon="11.5186428"><ele>238.66666666666669</ele><time>2026-04-23T08:26:51.848Z</time></trkpt><trkpt lat="43.1346416" lon="11.5183867"><ele>243.0</ele><time>2026-04-23T08:26:52.841Z</time></trkpt><trkpt lat="43.1346541" lon="11.5181383"><ele>243.0</ele><time>2026-04-23T08:26:53.842Z</time></trkpt><trkpt lat="43.1346724" lon="11.5179226"><ele>243.0</ele><time>2026-04-23T08:26:54.84Z</time></trkpt><trkpt lat="43.1347152" lon="11.5177666"><ele>243.0</ele><time>2026-04-23T08:26:55.837Z</time></trkpt><trkpt lat="43.1347865" lon="11.5176355"><ele>243.0</ele><time>2026-04-23T08:26:56.843Z</time></trkpt><trkpt lat="43.1348837" lon="11.5175016"><ele>242.0</ele><time>2026-04-23T08:26:57.845Z</time></trkpt><trkpt lat="43.1350041" lon="11.5173504"><ele>241.0</ele><time>2026-04-23T08:26:58.845Z</time></trkpt><trkpt lat="43.1351504" lon="11.5171645"><ele>240.0</ele><time>2026-04-23T08:26:59.838Z</time></trkpt><trkpt lat="43.1354197" lon="11.5167268"><ele>240.0</ele><time>2026-04-23T08:27:01.835Z</time></trkpt><trkpt lat="43.1355424" lon="11.5165086"><ele>240.0</ele><time>2026-04-23T08:27:02.84Z</time></trkpt><trkpt lat="43.1356485" lon="11.5163158"><ele>240.0</ele><time>2026-04-23T08:27:03.84Z</time></trkpt><trkpt lat="43.1357584" lon="11.516141"><ele>237.25</ele><time>2026-04-23T08:27:04.838Z</time></trkpt><trkpt lat="43.1358695" lon="11.5159817"><ele>234.5</ele><time>2026-04-23T08:27:05.838Z</time></trkpt><trkpt lat="43.1359873" lon="11.5158612"><ele>231.75</ele><time>2026-04-23T08:27:06.844Z</time></trkpt><trkpt lat="43.136095" lon="11.5157534"><ele>229.0</ele><time>2026-04-23T08:27:07.841Z</time></trkpt><trkpt lat="43.1361852" lon="11.5156385"><ele>229.0</ele><time>2026-04-23T08:27:08.843Z</time></trkpt><trkpt lat="43.1362577" lon="11.5154967"><ele>229.0</ele><time>2026-04-23T08:27:09.84Z</time></trkpt><trkpt lat="43.1363026" lon="11.5153345"><ele>229.0</ele><time>2026-04-23T08:27:10.837Z</time></trkpt><trkpt lat="43.1363235" lon="11.51516"><ele>229.0</ele><time>2026-04-23T08:27:11.839Z</time></trkpt><trkpt lat="43.1363296" lon="11.5149814"><ele>229.0</ele><time>2026-04-23T08:27:12.84Z</time></trkpt><trkpt lat="43.1363231" lon="11.5148052"><ele>229.0</ele><time>2026-04-23T08:27:13.843Z</time></trkpt><trkpt lat="43.1363046" lon="11.5146338"><ele>229.0</ele><time>2026-04-23T08:27:14.84Z</time></trkpt><trkpt lat="43.1362752" lon="11.5144752"><ele>229.0</ele><time>2026-04-23T08:27:15.843Z</time></trkpt><trkpt lat="43.1362287" lon="11.5143313"><ele>229.0</ele><time>2026-04-23T08:27:16.842Z</time></trkpt><trkpt lat="43.1361492" lon="11.5141952"><ele>229.0</ele><time>2026-04-23T08:27:17.839Z</time></trkpt><trkpt lat="43.1360477" lon="11.5140341"><ele>229.0</ele><time>2026-04-23T08:27:18.84Z</time></trkpt><trkpt lat="43.1359321" lon="11.5138459"><ele>225.5</ele><time>2026-04-23T08:27:19.842Z</time></trkpt><trkpt lat="43.1358184" lon="11.5136377"><ele>222.0</ele><time>2026-04-23T08:27:20.842Z</time></trkpt><trkpt lat="43.1356048" lon="11.5131567"><ele>222.0</ele><time>2026-04-23T08:27:22.843Z</time></trkpt><trkpt lat="43.1355216" lon="11.5129189"><ele>222.0</ele><time>2026-04-23T08:27:23.846Z</time></trkpt><trkpt lat="43.1354582" lon="11.512694"><ele>222.0</ele><time>2026-04-23T08:27:24.847Z</time></trkpt><trkpt lat="43.1353986" lon="11.5124788"><ele>223.66666666666669</ele><time>2026-04-23T08:27:25.84Z</time></trkpt><trkpt lat="43.1353241" lon="11.5122731"><ele>225.33333333333334</ele><time>2026-04-23T08:27:26.843Z</time></trkpt><trkpt lat="43.1352406" lon="11.5120908"><ele>227.0</ele><time>2026-04-23T08:27:27.837Z</time></trkpt><trkpt lat="43.1351523" lon="11.5119285"><ele>228.0</ele><time>2026-04-23T08:27:28.839Z</time></trkpt><trkpt lat="43.1350629" lon="11.5117765"><ele>229.0</ele><time>2026-04-23T08:27:29.839Z</time></trkpt><trkpt lat="43.1349777" lon="11.5116316"><ele>230.0</ele><time>2026-04-23T08:27:30.844Z</time></trkpt><trkpt lat="43.1348942" lon="11.5114832"><ele>231.0</ele><time>2026-04-23T08:27:31.841Z</time></trkpt><trkpt lat="43.1348177" lon="11.5113338"><ele>233.0</ele><time>2026-04-23T08:27:32.838Z</time></trkpt><trkpt lat="43.1347491" lon="11.5111869"><ele>235.0</ele><time>2026-04-23T08:27:33.849Z</time></trkpt><trkpt lat="43.1346874" lon="11.5110444"><ele>237.0</ele><time>2026-04-23T08:27:34.835Z</time></trkpt><trkpt lat="43.1346287" lon="11.5109084"><ele>239.0</ele><time>2026-04-23T08:27:35.843Z</time></trkpt><trkpt lat="43.1345687" lon="11.5107736"><ele>239.0</ele><time>2026-04-23T08:27:36.841Z</time></trkpt><trkpt lat="43.1345087" lon="11.5106389"><ele>239.0</ele><time>2026-04-23T08:27:37.841Z</time></trkpt><trkpt lat="43.1344458" lon="11.510503"><ele>239.0</ele><time>2026-04-23T08:27:38.84Z</time></trkpt><trkpt lat="43.1343821" lon="11.5103641"><ele>239.0</ele><time>2026-04-23T08:27:39.834Z</time></trkpt><trkpt lat="43.1343167" lon="11.5102185"><ele>237.0</ele><time>2026-04-23T08:27:40.844Z</time></trkpt><trkpt lat="43.134243" lon="11.5100609"><ele>235.0</ele><time>2026-04-23T08:27:41.845Z</time></trkpt><trkpt lat="43.1340936" lon="11.5097312"><ele>233.0</ele><time>2026-04-23T08:27:43.846Z</time></trkpt><trkpt lat="43.1340255" lon="11.5095699"><ele>231.25</ele><time>2026-04-23T08:27:44.839Z</time></trkpt><trkpt lat="43.1339641" lon="11.509416"><ele>229.5</ele><time>2026-04-23T08:27:45.844Z</time></trkpt><trkpt lat="43.1339052" lon="11.5092671"><ele>227.75</ele><time>2026-04-23T08:27:46.842Z</time></trkpt><trkpt lat="43.1338534" lon="11.509124"><ele>226.0</ele><time>2026-04-23T08:27:47.843Z</time></trkpt><trkpt lat="43.1338108" lon="11.5089794"><ele>226.0</ele><time>2026-04-23T08:27:48.841Z</time></trkpt><trkpt lat="43.1337736" lon="11.5088305"><ele>226.0</ele><time>2026-04-23T08:27:49.839Z</time></trkpt><trkpt lat="43.1337374" lon="11.5086769"><ele>226.0</ele><time>2026-04-23T08:27:50.837Z</time></trkpt><trkpt lat="43.1337039" lon="11.5085236"><ele>226.0</ele><time>2026-04-23T08:27:51.844Z</time></trkpt><trkpt lat="43.1336734" lon="11.5083764"><ele>224.5</ele><time>2026-04-23T08:27:52.843Z</time></trkpt><trkpt lat="43.1336416" lon="11.5082281"><ele>223.0</ele><time>2026-04-23T08:27:53.839Z</time></trkpt><trkpt lat="43.1336111" lon="11.5080785"><ele>221.5</ele><time>2026-04-23T08:27:54.842Z</time></trkpt><trkpt lat="43.1335884" lon="11.5079268"><ele>220.0</ele><time>2026-04-23T08:27:55.842Z</time></trkpt><trkpt lat="43.1335767" lon="11.5077677"><ele>218.5</ele><time>2026-04-23T08:27:56.841Z</time></trkpt><trkpt lat="43.1335735" lon="11.5076018"><ele>217.0</ele><time>2026-04-23T08:27:57.845Z</time></trkpt><trkpt lat="43.1335823" lon="11.5074253"><ele>215.5</ele><time>2026-04-23T08:27:58.842Z</time></trkpt><trkpt lat="43.1335976" lon="11.5072419"><ele>214.0</ele><time>2026-04-23T08:27:59.843Z</time></trkpt><trkpt lat="43.1336177" lon="11.5070522"><ele>213.33333333333331</ele><time>2026-04-23T08:28:00.844Z</time></trkpt><trkpt lat="43.1336441" lon="11.5068572"><ele>212.66666666666669</ele><time>2026-04-23T08:28:01.838Z</time></trkpt><trkpt lat="43.1336744" lon="11.5066615"><ele>212.0</ele><time>2026-04-23T08:28:02.838Z</time></trkpt><trkpt lat="43.1337286" lon="11.5062651"><ele>211.0</ele><time>2026-04-23T08:28:04.844Z</time></trkpt><trkpt lat="43.1337543" lon="11.5060612"><ele>210.0</ele><time>2026-04-23T08:28:05.842Z</time></trkpt><trkpt lat="43.1337786" lon="11.5058524"><ele>209.0</ele><time>2026-04-23T08:28:06.837Z</time></trkpt><trkpt lat="43.1338004" lon="11.5056466"><ele>209.0</ele><time>2026-04-23T08:28:07.844Z</time></trkpt><trkpt lat="43.1338245" lon="11.5054501"><ele>209.0</ele><time>2026-04-23T08:28:08.841Z</time></trkpt><trkpt lat="43.133848" lon="11.5052581"><ele>209.0</ele><time>2026-04-23T08:28:09.844Z</time></trkpt><trkpt lat="43.1338693" lon="11.5050656"><ele>209.0</ele><time>2026-04-23T08:28:10.843Z</time></trkpt><trkpt lat="43.133889" lon="11.5048737"><ele>209.5</ele><time>2026-04-23T08:28:11.838Z</time></trkpt><trkpt lat="43.1339113" lon="11.5046929"><ele>210.0</ele><time>2026-04-23T08:28:12.838Z</time></trkpt><trkpt lat="43.1339349" lon="11.5045232"><ele>210.5</ele><time>2026-04-23T08:28:13.84Z</time></trkpt><trkpt lat="43.1339586" lon="11.5043615"><ele>211.0</ele><time>2026-04-23T08:28:14.84Z</time></trkpt><trkpt lat="43.1339797" lon="11.5042013"><ele>211.5</ele><time>2026-04-23T08:28:15.844Z</time></trkpt><trkpt lat="43.1340018" lon="11.5040483"><ele>212.0</ele><time>2026-04-23T08:28:16.842Z</time></trkpt><trkpt lat="43.1340233" lon="11.5038933"><ele>212.5</ele><time>2026-04-23T08:28:17.843Z</time></trkpt><trkpt lat="43.134049" lon="11.5037323"><ele>213.0</ele><time>2026-04-23T08:28:18.844Z</time></trkpt><trkpt lat="43.1340815" lon="11.503563"><ele>212.0</ele><time>2026-04-23T08:28:19.845Z</time></trkpt><trkpt lat="43.1341193" lon="11.5033835"><ele>211.0</ele><time>2026-04-23T08:28:20.84Z</time></trkpt><trkpt lat="43.1341598" lon="11.503196"><ele>210.0</ele><time>2026-04-23T08:28:21.849Z</time></trkpt><trkpt lat="43.1342008" lon="11.5030019"><ele>209.0</ele><time>2026-04-23T08:28:22.845Z</time></trkpt><trkpt lat="43.1342407" lon="11.502801"><ele>205.5</ele><time>2026-04-23T08:28:23.845Z</time></trkpt><trkpt lat="43.1343179" lon="11.5023789"><ele>202.0</ele><time>2026-04-23T08:28:25.838Z</time></trkpt><trkpt lat="43.1343603" lon="11.5021487"><ele>199.33333333333331</ele><time>2026-04-23T08:28:26.852Z</time></trkpt><trkpt lat="43.1344059" lon="11.501907"><ele>196.66666666666669</ele><time>2026-04-23T08:28:27.845Z</time></trkpt><trkpt lat="43.1344559" lon="11.5016601"><ele>194.0</ele><time>2026-04-23T08:28:28.847Z</time></trkpt><trkpt lat="43.134506" lon="11.501418"><ele>191.0</ele><time>2026-04-23T08:28:29.844Z</time></trkpt><trkpt lat="43.1345527" lon="11.5011843"><ele>188.0</ele><time>2026-04-23T08:28:30.842Z</time></trkpt><trkpt lat="43.1345962" lon="11.5009581"><ele>185.0</ele><time>2026-04-23T08:28:31.85Z</time></trkpt><trkpt lat="43.1346417" lon="11.5007343"><ele>185.0</ele><time>2026-04-23T08:28:32.838Z</time></trkpt><trkpt lat="43.134689" lon="11.5005066"><ele>185.0</ele><time>2026-04-23T08:28:33.846Z</time></trkpt><trkpt lat="43.1347362" lon="11.500282"><ele>185.0</ele><time>2026-04-23T08:28:34.841Z</time></trkpt><trkpt lat="43.1347855" lon="11.5000582"><ele>183.0</ele><time>2026-04-23T08:28:35.842Z</time></trkpt><trkpt lat="43.134835" lon="11.4998289"><ele>181.0</ele><time>2026-04-23T08:28:36.847Z</time></trkpt><trkpt lat="43.1348944" lon="11.4996047"><ele>179.0</ele><time>2026-04-23T08:28:37.843Z</time></trkpt><trkpt lat="43.134956" lon="11.4993796"><ele>175.66666666666666</ele><time>2026-04-23T08:28:38.841Z</time></trkpt><trkpt lat="43.1350221" lon="11.4991533"><ele>172.33333333333334</ele><time>2026-04-23T08:28:39.839Z</time></trkpt><trkpt lat="43.1350941" lon="11.4989262"><ele>169.0</ele><time>2026-04-23T08:28:40.845Z</time></trkpt><trkpt lat="43.135167" lon="11.4987016"><ele>166.66666666666669</ele><time>2026-04-23T08:28:41.839Z</time></trkpt><trkpt lat="43.1352388" lon="11.4984814"><ele>164.33333333333334</ele><time>2026-04-23T08:28:42.835Z</time></trkpt><trkpt lat="43.1353068" lon="11.4982634"><ele>162.0</ele><time>2026-04-23T08:28:43.843Z</time></trkpt><trkpt lat="43.135374" lon="11.4980452"><ele>161.5</ele><time>2026-04-23T08:28:44.843Z</time></trkpt><trkpt lat="43.1355127" lon="11.4976099"><ele>161.0</ele><time>2026-04-23T08:28:46.84Z</time></trkpt><trkpt lat="43.135591" lon="11.4974015"><ele>161.0</ele><time>2026-04-23T08:28:47.843Z</time></trkpt><trkpt lat="43.1356786" lon="11.4972046"><ele>161.0</ele><time>2026-04-23T08:28:48.839Z</time></trkpt><trkpt lat="43.1357731" lon="11.4970179"><ele>161.0</ele><time>2026-04-23T08:28:49.836Z</time></trkpt><trkpt lat="43.1358729" lon="11.4968345"><ele>161.33333333333331</ele><time>2026-04-23T08:28:50.84Z</time></trkpt><trkpt lat="43.1359806" lon="11.4966538"><ele>161.66666666666666</ele><time>2026-04-23T08:28:51.843Z</time></trkpt><trkpt lat="43.1360872" lon="11.4964748"><ele>162.0</ele><time>2026-04-23T08:28:52.843Z</time></trkpt><trkpt lat="43.1361918" lon="11.4963001"><ele>162.33333333333334</ele><time>2026-04-23T08:28:53.844Z</time></trkpt><trkpt lat="43.1362969" lon="11.4961174"><ele>162.66666666666669</ele><time>2026-04-23T08:28:54.84Z</time></trkpt><trkpt lat="43.1363999" lon="11.4959285"><ele>163.0</ele><time>2026-04-23T08:28:55.842Z</time></trkpt><trkpt lat="43.1365045" lon="11.495742"><ele>162.33333333333334</ele><time>2026-04-23T08:28:56.84Z</time></trkpt><trkpt lat="43.1366107" lon="11.4955556"><ele>161.66666666666666</ele><time>2026-04-23T08:28:57.845Z</time></trkpt><trkpt lat="43.1367196" lon="11.4953721"><ele>161.0</ele><time>2026-04-23T08:28:58.844Z</time></trkpt><trkpt lat="43.136833" lon="11.4951863"><ele>163.0</ele><time>2026-04-23T08:28:59.839Z</time></trkpt><trkpt lat="43.1369457" lon="11.4949968"><ele>165.0</ele><time>2026-04-23T08:29:00.838Z</time></trkpt><trkpt lat="43.1370581" lon="11.494803"><ele>167.0</ele><time>2026-04-23T08:29:01.861Z</time></trkpt><trkpt lat="43.1371681" lon="11.4946079"><ele>166.33333333333331</ele><time>2026-04-23T08:29:02.853Z</time></trkpt><trkpt lat="43.1372707" lon="11.4944195"><ele>165.66666666666666</ele><time>2026-04-23T08:29:03.857Z</time></trkpt><trkpt lat="43.1373599" lon="11.4942347"><ele>165.0</ele><time>2026-04-23T08:29:04.846Z</time></trkpt><trkpt lat="43.137432" lon="11.4940454"><ele>167.0</ele><time>2026-04-23T08:29:05.838Z</time></trkpt><trkpt lat="43.1375065" lon="11.493616"><ele>169.0</ele><time>2026-04-23T08:29:07.858Z</time></trkpt><trkpt lat="43.1375225" lon="11.4933897"><ele>169.0</ele><time>2026-04-23T08:29:08.851Z</time></trkpt><trkpt lat="43.1375371" lon="11.4931692"><ele>169.0</ele><time>2026-04-23T08:29:09.85Z</time></trkpt><trkpt lat="43.1375519" lon="11.4929509"><ele>169.0</ele><time>2026-04-23T08:29:10.847Z</time></trkpt><trkpt lat="43.1375714" lon="11.4927358"><ele>169.66666666666669</ele><time>2026-04-23T08:29:11.853Z</time></trkpt><trkpt lat="43.1375922" lon="11.4925243"><ele>170.33333333333334</ele><time>2026-04-23T08:29:12.851Z</time></trkpt><trkpt lat="43.1376136" lon="11.4923114"><ele>171.0</ele><time>2026-04-23T08:29:13.857Z</time></trkpt><trkpt lat="43.1376374" lon="11.4921011"><ele>173.33333333333334</ele><time>2026-04-23T08:29:14.843Z</time></trkpt><trkpt lat="43.1376642" lon="11.4918924"><ele>175.66666666666669</ele><time>2026-04-23T08:29:15.857Z</time></trkpt><trkpt lat="43.1376927" lon="11.4916857"><ele>178.0</ele><time>2026-04-23T08:29:16.855Z</time></trkpt><trkpt lat="43.1377216" lon="11.4914846"><ele>178.0</ele><time>2026-04-23T08:29:17.837Z</time></trkpt><trkpt lat="43.1377475" lon="11.4912838"><ele>178.0</ele><time>2026-04-23T08:29:18.857Z</time></trkpt><trkpt lat="43.1377697" lon="11.4910946"><ele>178.0</ele><time>2026-04-23T08:29:19.843Z</time></trkpt><trkpt lat="43.1377861" lon="11.4909245"><ele>178.0</ele><time>2026-04-23T08:29:20.862Z</time></trkpt><trkpt lat="43.1377957" lon="11.4907803"><ele>177.8</ele><time>2026-04-23T08:29:21.855Z</time></trkpt><trkpt lat="43.1378" lon="11.4906611"><ele>177.60000000000002</ele><time>2026-04-23T08:29:22.856Z</time></trkpt><trkpt lat="43.1378018" lon="11.4905502"><ele>177.39999999999998</ele><time>2026-04-23T08:29:23.858Z</time></trkpt><trkpt lat="43.1377974" lon="11.4904232"><ele>177.2</ele><time>2026-04-23T08:29:24.853Z</time></trkpt><trkpt lat="43.1377879" lon="11.4902704"><ele>177.0</ele><time>2026-04-23T08:29:25.852Z</time></trkpt><trkpt lat="43.1377742" lon="11.4901104"><ele>177.0</ele><time>2026-04-23T08:29:26.848Z</time></trkpt><trkpt lat="43.1377566" lon="11.4897674"><ele>177.0</ele><time>2026-04-23T08:29:28.86Z</time></trkpt><trkpt lat="43.1377499" lon="11.4895932"><ele>177.0</ele><time>2026-04-23T08:29:29.843Z</time></trkpt><trkpt lat="43.1377461" lon="11.4894155"><ele>174.0</ele><time>2026-04-23T08:29:30.857Z</time></trkpt><trkpt lat="43.1377443" lon="11.4892285"><ele>171.0</ele><time>2026-04-23T08:29:31.847Z</time></trkpt><trkpt lat="43.1377405" lon="11.4890385"><ele>168.0</ele><time>2026-04-23T08:29:32.848Z</time></trkpt><trkpt lat="43.1377338" lon="11.4888459"><ele>165.0</ele><time>2026-04-23T08:29:33.838Z</time></trkpt><trkpt lat="43.1377268" lon="11.4886566"><ele>162.5</ele><time>2026-04-23T08:29:34.846Z</time></trkpt><trkpt lat="43.1377211" lon="11.4884688"><ele>160.0</ele><time>2026-04-23T08:29:35.854Z</time></trkpt><trkpt lat="43.1377164" lon="11.4882805"><ele>157.5</ele><time>2026-04-23T08:29:36.845Z</time></trkpt><trkpt lat="43.1377172" lon="11.4880938"><ele>155.0</ele><time>2026-04-23T08:29:37.841Z</time></trkpt><trkpt lat="43.1377193" lon="11.4879159"><ele>154.2</ele><time>2026-04-23T08:29:38.842Z</time></trkpt><trkpt lat="43.1377193" lon="11.4877635"><ele>153.4</ele><time>2026-04-23T08:29:39.834Z</time></trkpt><trkpt lat="43.137718" lon="11.4876472"><ele>152.6</ele><time>2026-04-23T08:29:40.839Z</time></trkpt><trkpt lat="43.1377127" lon="11.4875393"><ele>151.8</ele><time>2026-04-23T08:29:41.842Z</time></trkpt><trkpt lat="43.137705" lon="11.4874142"><ele>151.0</ele><time>2026-04-23T08:29:42.841Z</time></trkpt><trkpt lat="43.1376986" lon="11.4872666"><ele>151.0</ele><time>2026-04-23T08:29:43.845Z</time></trkpt><trkpt lat="43.1376933" lon="11.4871187"><ele>151.0</ele><time>2026-04-23T08:29:44.835Z</time></trkpt><trkpt lat="43.1376946" lon="11.4869906"><ele>151.0</ele><time>2026-04-23T08:29:45.839Z</time></trkpt><trkpt lat="43.1376992" lon="11.4868894"><ele>151.0</ele><time>2026-04-23T08:29:46.84Z</time></trkpt><trkpt lat="43.1377027" lon="11.4867949"><ele>151.0</ele><time>2026-04-23T08:29:47.836Z</time></trkpt><trkpt lat="43.1377037" lon="11.4866048"><ele>150.25</ele><time>2026-04-23T08:29:49.839Z</time></trkpt><trkpt lat="43.137738" lon="11.4864884"><ele>149.5</ele><time>2026-04-23T08:29:51.838Z</time></trkpt><trkpt lat="43.1378842" lon="11.4864937"><ele>148.75</ele><time>2026-04-23T08:29:53.839Z</time></trkpt><trkpt lat="43.1380079" lon="11.4865308"><ele>148.0</ele><time>2026-04-23T08:29:54.841Z</time></trkpt><trkpt lat="43.1381674" lon="11.4865618"><ele>148.0</ele><time>2026-04-23T08:29:55.841Z</time></trkpt><trkpt lat="43.1383277" lon="11.4865676"><ele>148.0</ele><time>2026-04-23T08:29:56.837Z</time></trkpt><trkpt lat="43.1384803" lon="11.4865765"><ele>148.0</ele><time>2026-04-23T08:29:57.837Z</time></trkpt><trkpt lat="43.1386131" lon="11.4865894"><ele>148.0</ele><time>2026-04-23T08:29:58.841Z</time></trkpt><trkpt lat="43.1387277" lon="11.4865943"><ele>148.0</ele><time>2026-04-23T08:29:59.837Z</time></trkpt><trkpt lat="43.1388222" lon="11.4865948"><ele>148.0</ele><time>2026-04-23T08:30:00.84Z</time></trkpt><trkpt lat="43.1388867" lon="11.4865882"><ele>148.0</ele><time>2026-04-23T08:30:01.836Z</time></trkpt><trkpt lat="43.1389336" lon="11.4865027"><ele>148.0</ele><time>2026-04-23T08:30:05.834Z</time></trkpt><trkpt lat="43.1389303" lon="11.4863281"><ele>148.0</ele><time>2026-04-23T08:30:07.835Z</time></trkpt><trkpt lat="43.1389267" lon="11.4861978"><ele>147.5</ele><time>2026-04-23T08:30:08.835Z</time></trkpt><trkpt lat="43.1389237" lon="11.4858774"><ele>147.0</ele><time>2026-04-23T08:30:10.834Z</time></trkpt><trkpt lat="43.1389185" lon="11.4857264"><ele>146.5</ele><time>2026-04-23T08:30:11.837Z</time></trkpt><trkpt lat="43.1389098" lon="11.4855961"><ele>146.0</ele><time>2026-04-23T08:30:12.839Z</time></trkpt><trkpt lat="43.1388949" lon="11.4854811"><ele>146.0</ele><time>2026-04-23T08:30:13.842Z</time></trkpt><trkpt lat="43.1388839" lon="11.4853884"><ele>146.0</ele><time>2026-04-23T08:30:14.839Z</time></trkpt><trkpt lat="43.1389196" lon="11.485289"><ele>146.0</ele><time>2026-04-23T08:30:16.835Z</time></trkpt><trkpt lat="43.1390573" lon="11.4852459"><ele>146.0</ele><time>2026-04-23T08:30:18.843Z</time></trkpt><trkpt lat="43.1391733" lon="11.4852236"><ele>146.0</ele><time>2026-04-23T08:30:19.838Z</time></trkpt><trkpt lat="43.1392868" lon="11.4851807"><ele>145.83333333333331</ele><time>2026-04-23T08:30:20.84Z</time></trkpt><trkpt lat="43.1393817" lon="11.4851531"><ele>145.66666666666666</ele><time>2026-04-23T08:30:21.835Z</time></trkpt><trkpt lat="43.1394774" lon="11.4851328"><ele>145.5</ele><time>2026-04-23T08:30:22.839Z</time></trkpt><trkpt lat="43.1395625" lon="11.4850974"><ele>145.33333333333334</ele><time>2026-04-23T08:30:23.842Z</time></trkpt><trkpt lat="43.1396388" lon="11.4850654"><ele>145.16666666666669</ele><time>2026-04-23T08:30:24.838Z</time></trkpt><trkpt lat="43.1397193" lon="11.4850416"><ele>145.0</ele><time>2026-04-23T08:30:26.835Z</time></trkpt><trkpt lat="43.1397077" lon="11.4848739"><ele>145.0</ele><time>2026-04-23T08:30:32.838Z</time></trkpt><trkpt lat="43.1396436" lon="11.4846238"><ele>145.0</ele><time>2026-04-23T08:30:34.843Z</time></trkpt><trkpt lat="43.139608" lon="11.4844903"><ele>145.0</ele><time>2026-04-23T08:30:35.833Z</time></trkpt><trkpt lat="43.139586" lon="11.4843618"><ele>145.0</ele><time>2026-04-23T08:30:36.84Z</time></trkpt><trkpt lat="43.1395635" lon="11.4842429"><ele>145.0</ele><time>2026-04-23T08:30:37.834Z</time></trkpt><trkpt lat="43.1395361" lon="11.4841174"><ele>145.0</ele><time>2026-04-23T08:30:38.835Z</time></trkpt><trkpt lat="43.1395013" lon="11.4839879"><ele>145.0</ele><time>2026-04-23T08:30:39.839Z</time></trkpt><trkpt lat="43.1394646" lon="11.4838594"><ele>145.0</ele><time>2026-04-23T08:30:40.837Z</time></trkpt><trkpt lat="43.1394217" lon="11.4837246"><ele>145.0</ele><time>2026-04-23T08:30:41.841Z</time></trkpt><trkpt lat="43.1393757" lon="11.4835817"><ele>145.0</ele><time>2026-04-23T08:30:42.841Z</time></trkpt><trkpt lat="43.1393347" lon="11.4834468"><ele>145.0</ele><time>2026-04-23T08:30:43.846Z</time></trkpt><trkpt lat="43.139305" lon="11.4833378"><ele>145.0</ele><time>2026-04-23T08:30:44.836Z</time></trkpt><trkpt lat="43.139282" lon="11.4832483"><ele>145.0</ele><time>2026-04-23T08:30:45.837Z</time></trkpt><trkpt lat="43.1392501" lon="11.4831429"><ele>145.0</ele><time>2026-04-23T08:30:47.836Z</time></trkpt><trkpt lat="43.1392131" lon="11.4830517"><ele>145.0</ele><time>2026-04-23T08:31:03.836Z</time></trkpt><trkpt lat="43.1390312" lon="11.4830667"><ele>145.16666666666669</ele><time>2026-04-23T08:31:06.84Z</time></trkpt><trkpt lat="43.1389547" lon="11.483105"><ele>145.33333333333334</ele><time>2026-04-23T08:31:07.846Z</time></trkpt><trkpt lat="43.1388712" lon="11.4831442"><ele>145.5</ele><time>2026-04-23T08:31:08.843Z</time></trkpt><trkpt lat="43.1387845" lon="11.4831813"><ele>145.66666666666666</ele><time>2026-04-23T08:31:09.843Z</time></trkpt><trkpt lat="43.138699" lon="11.4832138"><ele>145.83333333333331</ele><time>2026-04-23T08:31:10.851Z</time></trkpt><trkpt lat="43.1386135" lon="11.4832419"><ele>146.0</ele><time>2026-04-23T08:31:11.852Z</time></trkpt><trkpt lat="43.1385271" lon="11.4832637"><ele>146.0</ele><time>2026-04-23T08:31:12.835Z</time></trkpt><trkpt lat="43.1384374" lon="11.4832856"><ele>146.0</ele><time>2026-04-23T08:31:13.852Z</time></trkpt><trkpt lat="43.1383379" lon="11.4833061"><ele>146.0</ele><time>2026-04-23T08:31:14.843Z</time></trkpt><trkpt lat="43.1382332" lon="11.4833211"><ele>146.0</ele><time>2026-04-23T08:31:15.85Z</time></trkpt><trkpt lat="43.1381241" lon="11.4833312"><ele>146.0</ele><time>2026-04-23T08:31:16.852Z</time></trkpt><trkpt lat="43.1380119" lon="11.4833344"><ele>146.2</ele><time>2026-04-23T08:31:17.846Z</time></trkpt><trkpt lat="43.137903" lon="11.483335"><ele>146.39999999999998</ele><time>2026-04-23T08:31:18.842Z</time></trkpt><trkpt lat="43.1377998" lon="11.4833332"><ele>146.6</ele><time>2026-04-23T08:31:19.847Z</time></trkpt><trkpt lat="43.1377012" lon="11.4833311"><ele>146.79999999999998</ele><time>2026-04-23T08:31:20.847Z</time></trkpt><trkpt lat="43.1376056" lon="11.483331"><ele>147.0</ele><time>2026-04-23T08:31:21.846Z</time></trkpt><trkpt lat="43.13751" lon="11.4833326"><ele>147.0</ele><time>2026-04-23T08:31:22.843Z</time></trkpt><trkpt lat="43.1374144" lon="11.4833316"><ele>147.0</ele><time>2026-04-23T08:31:23.848Z</time></trkpt><trkpt lat="43.1373188" lon="11.4833367"><ele>147.0</ele><time>2026-04-23T08:31:24.84Z</time></trkpt><trkpt lat="43.1371253" lon="11.4833446"><ele>147.0</ele><time>2026-04-23T08:31:26.853Z</time></trkpt><trkpt lat="43.1370335" lon="11.4833446"><ele>146.83333333333334</ele><time>2026-04-23T08:31:27.841Z</time></trkpt><trkpt lat="43.1369584" lon="11.483342"><ele>146.66666666666666</ele><time>2026-04-23T08:31:28.852Z</time></trkpt><trkpt lat="43.1368945" lon="11.4833413"><ele>146.5</ele><time>2026-04-23T08:31:29.847Z</time></trkpt><trkpt lat="43.1368229" lon="11.4833379"><ele>146.33333333333331</ele><time>2026-04-23T08:31:30.846Z</time></trkpt><trkpt lat="43.136744" lon="11.4833399"><ele>146.16666666666666</ele><time>2026-04-23T08:31:31.852Z</time></trkpt><trkpt lat="43.1366552" lon="11.483342"><ele>146.0</ele><time>2026-04-23T08:31:32.842Z</time></trkpt><trkpt lat="43.1365579" lon="11.4833446"><ele>146.0</ele><time>2026-04-23T08:31:33.86Z</time></trkpt><trkpt lat="43.1364523" lon="11.4833504"><ele>146.0</ele><time>2026-04-23T08:31:34.839Z</time></trkpt><trkpt lat="43.1363457" lon="11.4833566"><ele>146.0</ele><time>2026-04-23T08:31:35.844Z</time></trkpt><trkpt lat="43.1362353" lon="11.4833634"><ele>146.0</ele><time>2026-04-23T08:31:36.845Z</time></trkpt><trkpt lat="43.1361229" lon="11.4833677"><ele>146.0</ele><time>2026-04-23T08:31:37.846Z</time></trkpt><trkpt lat="43.1360136" lon="11.4833678"><ele>146.0</ele><time>2026-04-23T08:31:38.858Z</time></trkpt><trkpt lat="43.135908" lon="11.4833634"><ele>146.0</ele><time>2026-04-23T08:31:39.856Z</time></trkpt><trkpt lat="43.1358154" lon="11.4833606"><ele>146.0</ele><time>2026-04-23T08:31:40.853Z</time></trkpt><trkpt lat="43.1357299" lon="11.4833514"><ele>146.0</ele><time>2026-04-23T08:31:41.857Z</time></trkpt><trkpt lat="43.1356424" lon="11.4833383"><ele>146.0</ele><time>2026-04-23T08:31:42.854Z</time></trkpt><trkpt lat="43.1355639" lon="11.4833248"><ele>146.0</ele><time>2026-04-23T08:31:43.86Z</time></trkpt><trkpt lat="43.1354906" lon="11.4833097"><ele>146.0</ele><time>2026-04-23T08:31:44.858Z</time></trkpt><trkpt lat="43.135416" lon="11.483295"><ele>146.0</ele><time>2026-04-23T08:31:45.857Z</time></trkpt><trkpt lat="43.1352515" lon="11.4832639"><ele>146.0</ele><time>2026-04-23T08:31:47.858Z</time></trkpt><trkpt lat="43.1351606" lon="11.4832424"><ele>146.0</ele><time>2026-04-23T08:31:48.858Z</time></trkpt><trkpt lat="43.1350664" lon="11.4832243"><ele>146.0</ele><time>2026-04-23T08:31:49.855Z</time></trkpt><trkpt lat="43.1349717" lon="11.4832092"><ele>146.0</ele><time>2026-04-23T08:31:50.861Z</time></trkpt><trkpt lat="43.1348783" lon="11.4831917"><ele>146.0</ele><time>2026-04-23T08:31:51.847Z</time></trkpt><trkpt lat="43.134785" lon="11.4831722"><ele>146.0</ele><time>2026-04-23T08:31:52.858Z</time></trkpt><trkpt lat="43.1346896" lon="11.4831526"><ele>146.0</ele><time>2026-04-23T08:31:53.855Z</time></trkpt><trkpt lat="43.134594" lon="11.4831347"><ele>145.8</ele><time>2026-04-23T08:31:54.86Z</time></trkpt><trkpt lat="43.134498" lon="11.4831193"><ele>145.6</ele><time>2026-04-23T08:31:55.846Z</time></trkpt><trkpt lat="43.1343962" lon="11.4830962"><ele>145.4</ele><time>2026-04-23T08:31:56.851Z</time></trkpt><trkpt lat="43.1342958" lon="11.4830765"><ele>145.2</ele><time>2026-04-23T08:31:57.852Z</time></trkpt><trkpt lat="43.1342068" lon="11.4830619"><ele>145.0</ele><time>2026-04-23T08:31:58.852Z</time></trkpt><trkpt lat="43.1341296" lon="11.483052"><ele>145.0</ele><time>2026-04-23T08:31:59.85Z</time></trkpt><trkpt lat="43.134065" lon="11.4830513"><ele>145.0</ele><time>2026-04-23T08:32:00.855Z</time></trkpt><trkpt lat="43.1340508" lon="11.483167"><ele>145.0</ele><time>2026-04-23T08:32:03.839Z</time></trkpt><trkpt lat="43.1341196" lon="11.4832233"><ele>145.0</ele><time>2026-04-23T08:32:06.839Z</time></trkpt><trkpt lat="43.1343029" lon="11.4830964"><ele>145.0</ele><time>2026-04-23T08:32:11.839Z</time></trkpt><trkpt lat="43.134413" lon="11.4831387"><ele>145.0</ele><time>2026-04-23T08:32:12.839Z</time></trkpt><trkpt lat="43.134553" lon="11.483182"><ele>145.0</ele><time>2026-04-23T08:32:13.843Z</time></trkpt><trkpt lat="43.1347016" lon="11.4832151"><ele>145.0</ele><time>2026-04-23T08:32:14.847Z</time></trkpt><trkpt lat="43.1348569" lon="11.4832468"><ele>145.25</ele><time>2026-04-23T08:32:15.844Z</time></trkpt><trkpt lat="43.135008" lon="11.4832817"><ele>145.5</ele><time>2026-04-23T08:32:16.848Z</time></trkpt><trkpt lat="43.1351487" lon="11.483307"><ele>145.75</ele><time>2026-04-23T08:32:17.842Z</time></trkpt><trkpt lat="43.1352875" lon="11.4833213"><ele>146.0</ele><time>2026-04-23T08:32:18.846Z</time></trkpt><trkpt lat="43.1354229" lon="11.4833347"><ele>146.0</ele><time>2026-04-23T08:32:19.843Z</time></trkpt><trkpt lat="43.1355562" lon="11.4833505"><ele>146.0</ele><time>2026-04-23T08:32:20.842Z</time></trkpt><trkpt lat="43.1356854" lon="11.4833692"><ele>146.0</ele><time>2026-04-23T08:32:21.848Z</time></trkpt><trkpt lat="43.1358129" lon="11.4833859"><ele>146.0</ele><time>2026-04-23T08:32:22.842Z</time></trkpt><trkpt lat="43.1359348" lon="11.4833914"><ele>146.0</ele><time>2026-04-23T08:32:23.846Z</time></trkpt><trkpt lat="43.1360553" lon="11.4833919"><ele>146.0</ele><time>2026-04-23T08:32:24.839Z</time></trkpt><trkpt lat="43.1361743" lon="11.4833908"><ele>146.0</ele><time>2026-04-23T08:32:25.843Z</time></trkpt><trkpt lat="43.1362941" lon="11.4833893"><ele>146.0</ele><time>2026-04-23T08:32:26.841Z</time></trkpt><trkpt lat="43.1364102" lon="11.4833895"><ele>146.0</ele><time>2026-04-23T08:32:27.845Z</time></trkpt><trkpt lat="43.1366182" lon="11.4833895"><ele>146.0</ele><time>2026-04-23T08:32:29.836Z</time></trkpt><trkpt lat="43.1367023" lon="11.4833892"><ele>146.0</ele><time>2026-04-23T08:32:30.838Z</time></trkpt><trkpt lat="43.1367723" lon="11.4833905"><ele>146.0</ele><time>2026-04-23T08:32:31.838Z</time></trkpt><trkpt lat="43.1368447" lon="11.4833861"><ele>146.0</ele><time>2026-04-23T08:32:32.842Z</time></trkpt><trkpt lat="43.1369282" lon="11.4833806"><ele>146.0</ele><time>2026-04-23T08:32:33.838Z</time></trkpt><trkpt lat="43.1370189" lon="11.4833816"><ele>146.0</ele><time>2026-04-23T08:32:34.841Z</time></trkpt><trkpt lat="43.1371219" lon="11.4833854"><ele>146.0</ele><time>2026-04-23T08:32:35.841Z</time></trkpt><trkpt lat="43.1372234" lon="11.4833865"><ele>146.0</ele><time>2026-04-23T08:32:36.84Z</time></trkpt><trkpt lat="43.1373103" lon="11.4833837"><ele>146.0</ele><time>2026-04-23T08:32:37.835Z</time></trkpt><trkpt lat="43.1373775" lon="11.4833819"><ele>146.0</ele><time>2026-04-23T08:32:38.839Z</time></trkpt><trkpt lat="43.1374567" lon="11.4833843"><ele>146.25</ele><time>2026-04-23T08:32:40.842Z</time></trkpt><trkpt lat="43.1375272" lon="11.4833507"><ele>146.5</ele><time>2026-04-23T08:32:47.838Z</time></trkpt><trkpt lat="43.1376015" lon="11.4833625"><ele>146.75</ele><time>2026-04-23T08:32:49.835Z</time></trkpt><trkpt lat="43.1377962" lon="11.4833585"><ele>147.0</ele><time>2026-04-23T08:32:53.845Z</time></trkpt><trkpt lat="43.1379249" lon="11.4833569"><ele>147.0</ele><time>2026-04-23T08:32:55.839Z</time></trkpt><trkpt lat="43.1379992" lon="11.4833508"><ele>147.0</ele><time>2026-04-23T08:32:56.842Z</time></trkpt><trkpt lat="43.1380863" lon="11.4833506"><ele>147.0</ele><time>2026-04-23T08:32:57.842Z</time></trkpt><trkpt lat="43.1381775" lon="11.4833492"><ele>147.0</ele><time>2026-04-23T08:32:58.839Z</time></trkpt><trkpt lat="43.1382701" lon="11.4833423"><ele>147.0</ele><time>2026-04-23T08:32:59.837Z</time></trkpt><trkpt lat="43.1383686" lon="11.4833372"><ele>147.0</ele><time>2026-04-23T08:33:00.835Z</time></trkpt><trkpt lat="43.1384695" lon="11.4833208"><ele>146.75</ele><time>2026-04-23T08:33:01.837Z</time></trkpt><trkpt lat="43.1385774" lon="11.4832943"><ele>146.5</ele><time>2026-04-23T08:33:02.844Z</time></trkpt><trkpt lat="43.1386889" lon="11.4832618"><ele>146.25</ele><time>2026-04-23T08:33:03.843Z</time></trkpt><trkpt lat="43.1387999" lon="11.4832212"><ele>146.0</ele><time>2026-04-23T08:33:04.843Z</time></trkpt><trkpt lat="43.1389081" lon="11.4831758"><ele>146.0</ele><time>2026-04-23T08:33:05.839Z</time></trkpt><trkpt lat="43.1390052" lon="11.4831263"><ele>146.0</ele><time>2026-04-23T08:33:06.847Z</time></trkpt><trkpt lat="43.1390974" lon="11.4830709"><ele>146.0</ele><time>2026-04-23T08:33:07.842Z</time></trkpt><trkpt lat="43.1391952" lon="11.4830141"><ele>146.0</ele><time>2026-04-23T08:33:08.848Z</time></trkpt><trkpt lat="43.1392988" lon="11.4829514"><ele>146.0</ele><time>2026-04-23T08:33:09.841Z</time></trkpt><trkpt lat="43.139403" lon="11.4828843"><ele>146.33333333333331</ele><time>2026-04-23T08:33:10.841Z</time></trkpt><trkpt lat="43.1396157" lon="11.4827314"><ele>146.66666666666666</ele><time>2026-04-23T08:33:12.838Z</time></trkpt><trkpt lat="43.1397213" lon="11.482652"><ele>147.0</ele><time>2026-04-23T08:33:13.849Z</time></trkpt><trkpt lat="43.1398198" lon="11.4825766"><ele>146.0</ele><time>2026-04-23T08:33:14.844Z</time></trkpt><trkpt lat="43.139922" lon="11.4824985"><ele>145.0</ele><time>2026-04-23T08:33:15.836Z</time></trkpt><trkpt lat="43.1400264" lon="11.4824205"><ele>144.0</ele><time>2026-04-23T08:33:16.846Z</time></trkpt><trkpt lat="43.1401246" lon="11.4823486"><ele>143.0</ele><time>2026-04-23T08:33:17.842Z</time></trkpt><trkpt lat="43.1402177" lon="11.4822863"><ele>143.0</ele><time>2026-04-23T08:33:18.842Z</time></trkpt><trkpt lat="43.1402988" lon="11.4822331"><ele>143.0</ele><time>2026-04-23T08:33:19.845Z</time></trkpt><trkpt lat="43.1403665" lon="11.4821823"><ele>143.0</ele><time>2026-04-23T08:33:20.839Z</time></trkpt><trkpt lat="43.1404296" lon="11.4821299"><ele>143.0</ele><time>2026-04-23T08:33:21.845Z</time></trkpt><trkpt lat="43.1404963" lon="11.4820691"><ele>143.0</ele><time>2026-04-23T08:33:22.843Z</time></trkpt><trkpt lat="43.1405831" lon="11.4820071"><ele>143.0</ele><time>2026-04-23T08:33:23.838Z</time></trkpt><trkpt lat="43.1406898" lon="11.4819472"><ele>142.5</ele><time>2026-04-23T08:33:24.845Z</time></trkpt><trkpt lat="43.1408131" lon="11.4818704"><ele>142.0</ele><time>2026-04-23T08:33:25.845Z</time></trkpt><trkpt lat="43.1409445" lon="11.4817781"><ele>141.5</ele><time>2026-04-23T08:33:26.842Z</time></trkpt><trkpt lat="43.1410785" lon="11.4816832"><ele>141.0</ele><time>2026-04-23T08:33:27.84Z</time></trkpt><trkpt lat="43.1412121" lon="11.4815776"><ele>141.0</ele><time>2026-04-23T08:33:28.846Z</time></trkpt><trkpt lat="43.1413423" lon="11.4814825"><ele>141.0</ele><time>2026-04-23T08:33:29.843Z</time></trkpt><trkpt lat="43.1414736" lon="11.4813808"><ele>141.0</ele><time>2026-04-23T08:33:30.841Z</time></trkpt><trkpt lat="43.1416026" lon="11.4812678"><ele>141.5</ele><time>2026-04-23T08:33:31.841Z</time></trkpt><trkpt lat="43.1418389" lon="11.4809981"><ele>142.0</ele><time>2026-04-23T08:33:33.846Z</time></trkpt><trkpt lat="43.141947" lon="11.4808464"><ele>142.0</ele><time>2026-04-23T08:33:34.838Z</time></trkpt><trkpt lat="43.1420571" lon="11.4806966"><ele>142.0</ele><time>2026-04-23T08:33:35.847Z</time></trkpt><trkpt lat="43.1421646" lon="11.4805537"><ele>142.0</ele><time>2026-04-23T08:33:36.844Z</time></trkpt><trkpt lat="43.1422765" lon="11.48041"><ele>142.66666666666669</ele><time>2026-04-23T08:33:37.843Z</time></trkpt><trkpt lat="43.1423897" lon="11.4802681"><ele>143.33333333333334</ele><time>2026-04-23T08:33:38.843Z</time></trkpt><trkpt lat="43.1425016" lon="11.480127"><ele>144.0</ele><time>2026-04-23T08:33:39.849Z</time></trkpt><trkpt lat="43.1426101" lon="11.4799838"><ele>144.0</ele><time>2026-04-23T08:33:40.847Z</time></trkpt><trkpt lat="43.1427022" lon="11.479826"><ele>144.0</ele><time>2026-04-23T08:33:41.843Z</time></trkpt><trkpt lat="43.1427724" lon="11.4796478"><ele>144.0</ele><time>2026-04-23T08:33:42.839Z</time></trkpt><trkpt lat="43.1428281" lon="11.4794499"><ele>143.66666666666666</ele><time>2026-04-23T08:33:43.844Z</time></trkpt><trkpt lat="43.1428685" lon="11.4792383"><ele>143.33333333333331</ele><time>2026-04-23T08:33:44.846Z</time></trkpt><trkpt lat="43.1429028" lon="11.4790172"><ele>143.0</ele><time>2026-04-23T08:33:45.845Z</time></trkpt><trkpt lat="43.142934" lon="11.4787953"><ele>143.0</ele><time>2026-04-23T08:33:46.846Z</time></trkpt><trkpt lat="43.1429654" lon="11.4785763"><ele>143.0</ele><time>2026-04-23T08:33:47.845Z</time></trkpt><trkpt lat="43.1429974" lon="11.4783556"><ele>143.0</ele><time>2026-04-23T08:33:48.843Z</time></trkpt><trkpt lat="43.1430367" lon="11.4781382"><ele>143.0</ele><time>2026-04-23T08:33:49.844Z</time></trkpt><trkpt lat="43.1430778" lon="11.4779252"><ele>143.0</ele><time>2026-04-23T08:33:50.847Z</time></trkpt><trkpt lat="43.1431262" lon="11.4777235"><ele>143.0</ele><time>2026-04-23T08:33:51.842Z</time></trkpt><trkpt lat="43.1431883" lon="11.4775357"><ele>143.0</ele><time>2026-04-23T08:33:52.843Z</time></trkpt><trkpt lat="43.1433529" lon="11.4772005"><ele>143.0</ele><time>2026-04-23T08:33:54.845Z</time></trkpt><trkpt lat="43.1434559" lon="11.4770503"><ele>143.0</ele><time>2026-04-23T08:33:55.841Z</time></trkpt><trkpt lat="43.1435728" lon="11.4769114"><ele>143.0</ele><time>2026-04-23T08:33:56.847Z</time></trkpt><trkpt lat="43.1437019" lon="11.476783"><ele>143.0</ele><time>2026-04-23T08:33:57.844Z</time></trkpt><trkpt lat="43.1438327" lon="11.4766542"><ele>143.0</ele><time>2026-04-23T08:33:58.848Z</time></trkpt><trkpt lat="43.1439616" lon="11.4765164"><ele>142.66666666666666</ele><time>2026-04-23T08:33:59.844Z</time></trkpt><trkpt lat="43.144093" lon="11.4763798"><ele>142.33333333333334</ele><time>2026-04-23T08:34:00.846Z</time></trkpt><trkpt lat="43.1442225" lon="11.4762588"><ele>142.0</ele><time>2026-04-23T08:34:01.843Z</time></trkpt><trkpt lat="43.1443545" lon="11.4761666"><ele>142.0</ele><time>2026-04-23T08:34:02.842Z</time></trkpt><trkpt lat="43.1444985" lon="11.476128"><ele>142.0</ele><time>2026-04-23T08:34:03.842Z</time></trkpt><trkpt lat="43.1446534" lon="11.4761462"><ele>142.0</ele><time>2026-04-23T08:34:04.844Z</time></trkpt><trkpt lat="43.1448115" lon="11.4762005"><ele>142.0</ele><time>2026-04-23T08:34:05.847Z</time></trkpt><trkpt lat="43.1449732" lon="11.4762539"><ele>142.0</ele><time>2026-04-23T08:34:06.84Z</time></trkpt><trkpt lat="43.1451407" lon="11.4762824"><ele>142.0</ele><time>2026-04-23T08:34:07.842Z</time></trkpt><trkpt lat="43.1453084" lon="11.4762676"><ele>142.0</ele><time>2026-04-23T08:34:08.843Z</time></trkpt><trkpt lat="43.1454816" lon="11.4762262"><ele>142.0</ele><time>2026-04-23T08:34:09.836Z</time></trkpt><trkpt lat="43.1456585" lon="11.4761729"><ele>142.0</ele><time>2026-04-23T08:34:10.844Z</time></trkpt><trkpt lat="43.1458348" lon="11.4761147"><ele>143.0</ele><time>2026-04-23T08:34:11.842Z</time></trkpt><trkpt lat="43.1460106" lon="11.476048"><ele>144.0</ele><time>2026-04-23T08:34:12.841Z</time></trkpt><trkpt lat="43.1461873" lon="11.4759751"><ele>145.0</ele><time>2026-04-23T08:34:13.846Z</time></trkpt><trkpt lat="43.1465329" lon="11.4758358"><ele>146.0</ele><time>2026-04-23T08:34:15.841Z</time></trkpt><trkpt lat="43.1467099" lon="11.4757664"><ele>147.0</ele><time>2026-04-23T08:34:16.836Z</time></trkpt><trkpt lat="43.1468885" lon="11.4756957"><ele>148.0</ele><time>2026-04-23T08:34:17.846Z</time></trkpt><trkpt lat="43.1470701" lon="11.4756275"><ele>148.0</ele><time>2026-04-23T08:34:18.843Z</time></trkpt><trkpt lat="43.1472515" lon="11.4755597"><ele>148.0</ele><time>2026-04-23T08:34:19.843Z</time></trkpt><trkpt lat="43.1474319" lon="11.4754901"><ele>148.0</ele><time>2026-04-23T08:34:20.839Z</time></trkpt><trkpt lat="43.1476082" lon="11.4754207"><ele>146.66666666666669</ele><time>2026-04-23T08:34:21.84Z</time></trkpt><trkpt lat="43.1477854" lon="11.4753524"><ele>145.33333333333334</ele><time>2026-04-23T08:34:22.839Z</time></trkpt><trkpt lat="43.1479605" lon="11.4752866"><ele>144.0</ele><time>2026-04-23T08:34:23.839Z</time></trkpt><trkpt lat="43.1481346" lon="11.4752234"><ele>144.66666666666666</ele><time>2026-04-23T08:34:24.838Z</time></trkpt><trkpt lat="43.1483074" lon="11.4751617"><ele>145.33333333333331</ele><time>2026-04-23T08:34:25.844Z</time></trkpt><trkpt lat="43.1484763" lon="11.4750977"><ele>146.0</ele><time>2026-04-23T08:34:26.842Z</time></trkpt><trkpt lat="43.1486457" lon="11.4750342"><ele>146.0</ele><time>2026-04-23T08:34:27.846Z</time></trkpt><trkpt lat="43.1488168" lon="11.474972"><ele>146.0</ele><time>2026-04-23T08:34:28.84Z</time></trkpt><trkpt lat="43.1489904" lon="11.4749081"><ele>146.0</ele><time>2026-04-23T08:34:29.839Z</time></trkpt><trkpt lat="43.1491655" lon="11.4748415"><ele>145.66666666666666</ele><time>2026-04-23T08:34:30.841Z</time></trkpt><trkpt lat="43.1493338" lon="11.4747584"><ele>145.33333333333334</ele><time>2026-04-23T08:34:31.837Z</time></trkpt><trkpt lat="43.149498" lon="11.4746621"><ele>145.0</ele><time>2026-04-23T08:34:32.849Z</time></trkpt><trkpt lat="43.149663" lon="11.4745583"><ele>145.0</ele><time>2026-04-23T08:34:33.841Z</time></trkpt><trkpt lat="43.149832" lon="11.4744528"><ele>145.0</ele><time>2026-04-23T08:34:34.845Z</time></trkpt><trkpt lat="43.150168" lon="11.4742358"><ele>145.66666666666669</ele><time>2026-04-23T08:34:36.843Z</time></trkpt><trkpt lat="43.1503224" lon="11.4741279"><ele>146.33333333333334</ele><time>2026-04-23T08:34:37.843Z</time></trkpt><trkpt lat="43.1504682" lon="11.474017"><ele>147.0</ele><time>2026-04-23T08:34:38.846Z</time></trkpt><trkpt lat="43.1506086" lon="11.4738956"><ele>147.33333333333334</ele><time>2026-04-23T08:34:39.845Z</time></trkpt><trkpt lat="43.1507474" lon="11.4737662"><ele>147.66666666666669</ele><time>2026-04-23T08:34:40.847Z</time></trkpt><trkpt lat="43.1508845" lon="11.4736333"><ele>148.0</ele><time>2026-04-23T08:34:41.84Z</time></trkpt><trkpt lat="43.1510187" lon="11.473501"><ele>148.0</ele><time>2026-04-23T08:34:42.843Z</time></trkpt><trkpt lat="43.1511551" lon="11.4733688"><ele>148.0</ele><time>2026-04-23T08:34:43.847Z</time></trkpt><trkpt lat="43.1512963" lon="11.4732363"><ele>148.0</ele><time>2026-04-23T08:34:44.846Z</time></trkpt><trkpt lat="43.1514398" lon="11.4731036"><ele>148.33333333333334</ele><time>2026-04-23T08:34:45.84Z</time></trkpt><trkpt lat="43.15159" lon="11.4729772"><ele>148.66666666666666</ele><time>2026-04-23T08:34:46.842Z</time></trkpt><trkpt lat="43.1517476" lon="11.4728585"><ele>149.0</ele><time>2026-04-23T08:34:47.84Z</time></trkpt><trkpt lat="43.1519128" lon="11.4727502"><ele>147.0</ele><time>2026-04-23T08:34:48.843Z</time></trkpt><trkpt lat="43.152087" lon="11.4726529"><ele>145.0</ele><time>2026-04-23T08:34:49.846Z</time></trkpt><trkpt lat="43.1522651" lon="11.4725752"><ele>143.0</ele><time>2026-04-23T08:34:50.841Z</time></trkpt><trkpt lat="43.1524489" lon="11.4725086"><ele>143.0</ele><time>2026-04-23T08:34:51.845Z</time></trkpt><trkpt lat="43.1526369" lon="11.4724557"><ele>143.0</ele><time>2026-04-23T08:34:52.846Z</time></trkpt><trkpt lat="43.1528267" lon="11.4724184"><ele>143.0</ele><time>2026-04-23T08:34:53.84Z</time></trkpt><trkpt lat="43.1530184" lon="11.4723777"><ele>143.0</ele><time>2026-04-23T08:34:54.844Z</time></trkpt><trkpt lat="43.1532094" lon="11.4723392"><ele>143.0</ele><time>2026-04-23T08:34:55.847Z</time></trkpt><trkpt lat="43.1535848" lon="11.4722567"><ele>143.0</ele><time>2026-04-23T08:34:57.841Z</time></trkpt><trkpt lat="43.1537707" lon="11.4722116"><ele>143.0</ele><time>2026-04-23T08:34:58.844Z</time></trkpt><trkpt lat="43.1539543" lon="11.4721694"><ele>143.0</ele><time>2026-04-23T08:34:59.84Z</time></trkpt><trkpt lat="43.1541365" lon="11.4721259"><ele>143.33333333333331</ele><time>2026-04-23T08:35:00.844Z</time></trkpt><trkpt lat="43.1543213" lon="11.4720796"><ele>143.66666666666666</ele><time>2026-04-23T08:35:01.842Z</time></trkpt><trkpt lat="43.1545038" lon="11.4720302"><ele>144.0</ele><time>2026-04-23T08:35:02.841Z</time></trkpt><trkpt lat="43.1546883" lon="11.4719847"><ele>144.33333333333334</ele><time>2026-04-23T08:35:03.846Z</time></trkpt><trkpt lat="43.1548723" lon="11.4719411"><ele>144.66666666666669</ele><time>2026-04-23T08:35:04.842Z</time></trkpt><trkpt lat="43.1550578" lon="11.4719004"><ele>145.0</ele><time>2026-04-23T08:35:05.841Z</time></trkpt><trkpt lat="43.1552446" lon="11.4718576"><ele>145.0</ele><time>2026-04-23T08:35:06.844Z</time></trkpt><trkpt lat="43.1554323" lon="11.4718139"><ele>145.0</ele><time>2026-04-23T08:35:07.84Z</time></trkpt><trkpt lat="43.1556206" lon="11.4717699"><ele>145.0</ele><time>2026-04-23T08:35:08.843Z</time></trkpt><trkpt lat="43.1558089" lon="11.4717253"><ele>146.0</ele><time>2026-04-23T08:35:09.845Z</time></trkpt><trkpt lat="43.1559951" lon="11.47168"><ele>147.0</ele><time>2026-04-23T08:35:10.845Z</time></trkpt><trkpt lat="43.1561819" lon="11.4716327"><ele>148.0</ele><time>2026-04-23T08:35:11.844Z</time></trkpt><trkpt lat="43.1563676" lon="11.4715896"><ele>148.33333333333334</ele><time>2026-04-23T08:35:12.843Z</time></trkpt><trkpt lat="43.1565514" lon="11.4715467"><ele>148.66666666666666</ele><time>2026-04-23T08:35:13.853Z</time></trkpt><trkpt lat="43.1567344" lon="11.4715046"><ele>149.0</ele><time>2026-04-23T08:35:14.844Z</time></trkpt><trkpt lat="43.1569194" lon="11.4714608"><ele>149.0</ele><time>2026-04-23T08:35:15.844Z</time></trkpt><trkpt lat="43.1571071" lon="11.471419"><ele>149.0</ele><time>2026-04-23T08:35:16.844Z</time></trkpt><trkpt lat="43.1574813" lon="11.4713373"><ele>149.0</ele><time>2026-04-23T08:35:18.863Z</time></trkpt><trkpt lat="43.1576673" lon="11.4712861"><ele>149.0</ele><time>2026-04-23T08:35:19.847Z</time></trkpt><trkpt lat="43.1578483" lon="11.4712204"><ele>149.0</ele><time>2026-04-23T08:35:20.855Z</time></trkpt><trkpt lat="43.1580242" lon="11.4711303"><ele>148.33333333333331</ele><time>2026-04-23T08:35:21.86Z</time></trkpt><trkpt lat="43.1581938" lon="11.4710136"><ele>147.66666666666666</ele><time>2026-04-23T08:35:22.858Z</time></trkpt><trkpt lat="43.1583603" lon="11.4708875"><ele>147.0</ele><time>2026-04-23T08:35:23.864Z</time></trkpt><trkpt lat="43.1585267" lon="11.4707607"><ele>147.0</ele><time>2026-04-23T08:35:24.855Z</time></trkpt><trkpt lat="43.1586912" lon="11.4706315"><ele>147.0</ele><time>2026-04-23T08:35:25.856Z</time></trkpt><trkpt lat="43.158858" lon="11.4705041"><ele>147.0</ele><time>2026-04-23T08:35:26.846Z</time></trkpt><trkpt lat="43.1590253" lon="11.4703746"><ele>147.0</ele><time>2026-04-23T08:35:27.848Z</time></trkpt><trkpt lat="43.1591859" lon="11.4702357"><ele>147.0</ele><time>2026-04-23T08:35:28.858Z</time></trkpt><trkpt lat="43.1593452" lon="11.4700925"><ele>147.0</ele><time>2026-04-23T08:35:29.852Z</time></trkpt><trkpt lat="43.1594976" lon="11.4699407"><ele>147.0</ele><time>2026-04-23T08:35:30.862Z</time></trkpt><trkpt lat="43.1596481" lon="11.46979"><ele>147.0</ele><time>2026-04-23T08:35:31.854Z</time></trkpt><trkpt lat="43.1597985" lon="11.4696421"><ele>147.0</ele><time>2026-04-23T08:35:32.854Z</time></trkpt><trkpt lat="43.1599449" lon="11.469497"><ele>146.66666666666666</ele><time>2026-04-23T08:35:33.87Z</time></trkpt><trkpt lat="43.1600896" lon="11.4693531"><ele>146.33333333333331</ele><time>2026-04-23T08:35:34.862Z</time></trkpt><trkpt lat="43.1602343" lon="11.4692101"><ele>146.0</ele><time>2026-04-23T08:35:35.859Z</time></trkpt><trkpt lat="43.160378" lon="11.4690719"><ele>146.0</ele><time>2026-04-23T08:35:36.845Z</time></trkpt><trkpt lat="43.1605254" lon="11.4689412"><ele>146.0</ele><time>2026-04-23T08:35:37.863Z</time></trkpt><trkpt lat="43.1608346" lon="11.4687438"><ele>147.0</ele><time>2026-04-23T08:35:39.87Z</time></trkpt><trkpt lat="43.1609924" lon="11.4686855"><ele>148.0</ele><time>2026-04-23T08:35:40.86Z</time></trkpt><trkpt lat="43.1611589" lon="11.4686388"><ele>149.0</ele><time>2026-04-23T08:35:41.843Z</time></trkpt><trkpt lat="43.1613296" lon="11.468609"><ele>149.0</ele><time>2026-04-23T08:35:42.845Z</time></trkpt><trkpt lat="43.1615023" lon="11.4685842"><ele>149.0</ele><time>2026-04-23T08:35:43.857Z</time></trkpt><trkpt lat="43.1616775" lon="11.4685568"><ele>149.0</ele><time>2026-04-23T08:35:44.845Z</time></trkpt><trkpt lat="43.1618531" lon="11.4685245"><ele>148.66666666666666</ele><time>2026-04-23T08:35:45.861Z</time></trkpt><trkpt lat="43.1620326" lon="11.4684878"><ele>148.33333333333334</ele><time>2026-04-23T08:35:46.859Z</time></trkpt><trkpt lat="43.1622101" lon="11.4684526"><ele>148.0</ele><time>2026-04-23T08:35:47.841Z</time></trkpt><trkpt lat="43.1623854" lon="11.4684171"><ele>148.0</ele><time>2026-04-23T08:35:48.852Z</time></trkpt><trkpt lat="43.1625587" lon="11.4683821"><ele>148.0</ele><time>2026-04-23T08:35:49.847Z</time></trkpt><trkpt lat="43.1627318" lon="11.4683404"><ele>148.0</ele><time>2026-04-23T08:35:50.865Z</time></trkpt><trkpt lat="43.1629052" lon="11.468291"><ele>148.0</ele><time>2026-04-23T08:35:51.843Z</time></trkpt><trkpt lat="43.163072" lon="11.4682193"><ele>148.0</ele><time>2026-04-23T08:35:52.849Z</time></trkpt><trkpt lat="43.1632243" lon="11.4681186"><ele>148.0</ele><time>2026-04-23T08:35:53.858Z</time></trkpt><trkpt lat="43.1633582" lon="11.4680137"><ele>147.0</ele><time>2026-04-23T08:35:54.842Z</time></trkpt><trkpt lat="43.1634808" lon="11.4679251"><ele>146.0</ele><time>2026-04-23T08:35:55.863Z</time></trkpt><trkpt lat="43.1635918" lon="11.4678533"><ele>145.0</ele><time>2026-04-23T08:35:56.847Z</time></trkpt><trkpt lat="43.1636922" lon="11.467801"><ele>144.0</ele><time>2026-04-23T08:35:57.854Z</time></trkpt><trkpt lat="43.1637748" lon="11.4677775"><ele>144.0</ele><time>2026-04-23T08:35:58.847Z</time></trkpt><trkpt lat="43.163916" lon="11.4678888"><ele>144.0</ele><time>2026-04-23T08:36:01.847Z</time></trkpt><trkpt lat="43.1639612" lon="11.4680349"><ele>144.0</ele><time>2026-04-23T08:36:03.865Z</time></trkpt><trkpt lat="43.1640123" lon="11.4681966"><ele>144.0</ele><time>2026-04-23T08:36:05.855Z</time></trkpt><trkpt lat="43.1640477" lon="11.4683167"><ele>145.0</ele><time>2026-04-23T08:36:06.852Z</time></trkpt><trkpt lat="43.1640859" lon="11.4684556"><ele>146.0</ele><time>2026-04-23T08:36:07.844Z</time></trkpt><trkpt lat="43.164115" lon="11.4685942"><ele>147.0</ele><time>2026-04-23T08:36:08.844Z</time></trkpt><trkpt lat="43.1641207" lon="11.4687296"><ele>148.0</ele><time>2026-04-23T08:36:09.868Z</time></trkpt><trkpt lat="43.1641038" lon="11.468861"><ele>149.0</ele><time>2026-04-23T08:36:10.853Z</time></trkpt><trkpt lat="43.1640558" lon="11.4689791"><ele>150.0</ele><time>2026-04-23T08:36:11.847Z</time></trkpt><trkpt lat="43.1639793" lon="11.4690634"><ele>151.0</ele><time>2026-04-23T08:36:12.84Z</time></trkpt><trkpt lat="43.1638751" lon="11.4691136"><ele>152.0</ele><time>2026-04-23T08:36:13.845Z</time></trkpt><trkpt lat="43.1637491" lon="11.4691274"><ele>153.0</ele><time>2026-04-23T08:36:14.861Z</time></trkpt><trkpt lat="43.1635991" lon="11.4691385"><ele>153.0</ele><time>2026-04-23T08:36:15.859Z</time></trkpt><trkpt lat="43.1634334" lon="11.4691668"><ele>153.0</ele><time>2026-04-23T08:36:16.846Z</time></trkpt><trkpt lat="43.1632797" lon="11.4692159"><ele>153.0</ele><time>2026-04-23T08:36:17.841Z</time></trkpt><trkpt lat="43.1631405" lon="11.4692749"><ele>152.66666666666666</ele><time>2026-04-23T08:36:18.838Z</time></trkpt><trkpt lat="43.1630195" lon="11.4693581"><ele>152.33333333333331</ele><time>2026-04-23T08:36:19.842Z</time></trkpt><trkpt lat="43.1628414" lon="11.4696124"><ele>152.0</ele><time>2026-04-23T08:36:21.845Z</time></trkpt><trkpt lat="43.1627711" lon="11.4697401"><ele>153.25</ele><time>2026-04-23T08:36:22.841Z</time></trkpt><trkpt lat="43.1627186" lon="11.4698721"><ele>154.5</ele><time>2026-04-23T08:36:23.846Z</time></trkpt><trkpt lat="43.1626808" lon="11.4700235"><ele>155.75</ele><time>2026-04-23T08:36:24.849Z</time></trkpt><trkpt lat="43.1626569" lon="11.4701931"><ele>157.0</ele><time>2026-04-23T08:36:25.841Z</time></trkpt><trkpt lat="43.1626433" lon="11.4703862"><ele>158.66666666666669</ele><time>2026-04-23T08:36:26.844Z</time></trkpt><trkpt lat="43.1626339" lon="11.4706055"><ele>160.33333333333334</ele><time>2026-04-23T08:36:27.845Z</time></trkpt><trkpt lat="43.1626246" lon="11.4708509"><ele>162.0</ele><time>2026-04-23T08:36:28.844Z</time></trkpt><trkpt lat="43.1626198" lon="11.4711002"><ele>163.66666666666666</ele><time>2026-04-23T08:36:29.836Z</time></trkpt><trkpt lat="43.1626128" lon="11.4713334"><ele>165.33333333333331</ele><time>2026-04-23T08:36:30.837Z</time></trkpt><trkpt lat="43.162586" lon="11.4715439"><ele>167.0</ele><time>2026-04-23T08:36:31.841Z</time></trkpt><trkpt lat="43.162529" lon="11.4717347"><ele>167.0</ele><time>2026-04-23T08:36:32.835Z</time></trkpt><trkpt lat="43.1624483" lon="11.4719252"><ele>167.0</ele><time>2026-04-23T08:36:33.845Z</time></trkpt><trkpt lat="43.162349" lon="11.472114"><ele>167.0</ele><time>2026-04-23T08:36:34.848Z</time></trkpt><trkpt lat="43.1622387" lon="11.472305"><ele>168.66666666666666</ele><time>2026-04-23T08:36:35.847Z</time></trkpt><trkpt lat="43.1621356" lon="11.4725056"><ele>170.33333333333334</ele><time>2026-04-23T08:36:36.838Z</time></trkpt><trkpt lat="43.1620412" lon="11.472695"><ele>172.0</ele><time>2026-04-23T08:36:37.842Z</time></trkpt><trkpt lat="43.1619579" lon="11.4728582"><ele>173.2</ele><time>2026-04-23T08:36:38.841Z</time></trkpt><trkpt lat="43.1618865" lon="11.4729952"><ele>174.39999999999998</ele><time>2026-04-23T08:36:39.842Z</time></trkpt><trkpt lat="43.1618361" lon="11.4731102"><ele>175.60000000000002</ele><time>2026-04-23T08:36:40.837Z</time></trkpt><trkpt lat="43.161787" lon="11.4733046"><ele>176.8</ele><time>2026-04-23T08:36:42.838Z</time></trkpt><trkpt lat="43.1617865" lon="11.4734068"><ele>178.0</ele><time>2026-04-23T08:36:43.841Z</time></trkpt><trkpt lat="43.1617983" lon="11.4735224"><ele>178.0</ele><time>2026-04-23T08:36:44.84Z</time></trkpt><trkpt lat="43.1618211" lon="11.4736516"><ele>178.0</ele><time>2026-04-23T08:36:45.845Z</time></trkpt><trkpt lat="43.1618586" lon="11.4738033"><ele>178.0</ele><time>2026-04-23T08:36:46.852Z</time></trkpt><trkpt lat="43.1618992" lon="11.4739601"><ele>178.0</ele><time>2026-04-23T08:36:47.844Z</time></trkpt><trkpt lat="43.1619222" lon="11.4741113"><ele>178.0</ele><time>2026-04-23T08:36:48.841Z</time></trkpt><trkpt lat="43.1619227" lon="11.4742642"><ele>178.5</ele><time>2026-04-23T08:36:49.844Z</time></trkpt><trkpt lat="43.1619255" lon="11.4744272"><ele>179.0</ele><time>2026-04-23T08:36:50.839Z</time></trkpt><trkpt lat="43.1619518" lon="11.4745934"><ele>179.5</ele><time>2026-04-23T08:36:51.845Z</time></trkpt><trkpt lat="43.1619978" lon="11.4747362"><ele>180.0</ele><time>2026-04-23T08:36:52.842Z</time></trkpt><trkpt lat="43.1620675" lon="11.4748451"><ele>180.0</ele><time>2026-04-23T08:36:53.844Z</time></trkpt><trkpt lat="43.1621675" lon="11.4749237"><ele>180.0</ele><time>2026-04-23T08:36:54.845Z</time></trkpt><trkpt lat="43.1622839" lon="11.4749756"><ele>180.0</ele><time>2026-04-23T08:36:55.844Z</time></trkpt><trkpt lat="43.1624072" lon="11.4750009"><ele>180.0</ele><time>2026-04-23T08:36:56.839Z</time></trkpt><trkpt lat="43.1625224" lon="11.475008"><ele>182.0</ele><time>2026-04-23T08:36:57.84Z</time></trkpt><trkpt lat="43.1626292" lon="11.4750187"><ele>184.0</ele><time>2026-04-23T08:36:58.845Z</time></trkpt><trkpt lat="43.1627335" lon="11.4750488"><ele>186.0</ele><time>2026-04-23T08:36:59.839Z</time></trkpt><trkpt lat="43.1628351" lon="11.4751031"><ele>188.0</ele><time>2026-04-23T08:37:00.844Z</time></trkpt><trkpt lat="43.1629413" lon="11.4751775"><ele>190.0</ele><time>2026-04-23T08:37:01.843Z</time></trkpt><trkpt lat="43.1631687" lon="11.475339"><ele>190.25</ele><time>2026-04-23T08:37:03.845Z</time></trkpt><trkpt lat="43.1632844" lon="11.4754075"><ele>190.5</ele><time>2026-04-23T08:37:04.844Z</time></trkpt><trkpt lat="43.1634025" lon="11.4754699"><ele>190.75</ele><time>2026-04-23T08:37:05.843Z</time></trkpt><trkpt lat="43.1635181" lon="11.4755237"><ele>191.0</ele><time>2026-04-23T08:37:06.848Z</time></trkpt><trkpt lat="43.163625" lon="11.4755703"><ele>190.20000000000002</ele><time>2026-04-23T08:37:07.844Z</time></trkpt><trkpt lat="43.1637215" lon="11.4756117"><ele>189.4</ele><time>2026-04-23T08:37:08.844Z</time></trkpt><trkpt lat="43.163809" lon="11.4756488"><ele>188.6</ele><time>2026-04-23T08:37:09.845Z</time></trkpt><trkpt lat="43.1638911" lon="11.4756874"><ele>187.8</ele><time>2026-04-23T08:37:10.84Z</time></trkpt><trkpt lat="43.1639723" lon="11.4757308"><ele>187.0</ele><time>2026-04-23T08:37:11.843Z</time></trkpt><trkpt lat="43.1640548" lon="11.4757787"><ele>187.0</ele><time>2026-04-23T08:37:12.836Z</time></trkpt><trkpt lat="43.1641385" lon="11.4758284"><ele>187.0</ele><time>2026-04-23T08:37:13.849Z</time></trkpt><trkpt lat="43.1642261" lon="11.4758782"><ele>187.0</ele><time>2026-04-23T08:37:14.845Z</time></trkpt><trkpt lat="43.1643176" lon="11.4759304"><ele>187.0</ele><time>2026-04-23T08:37:15.839Z</time></trkpt><trkpt lat="43.1644118" lon="11.4759829"><ele>187.0</ele><time>2026-04-23T08:37:16.84Z</time></trkpt><trkpt lat="43.1645081" lon="11.4760329"><ele>187.0</ele><time>2026-04-23T08:37:17.849Z</time></trkpt><trkpt lat="43.1646045" lon="11.4760778"><ele>187.0</ele><time>2026-04-23T08:37:18.841Z</time></trkpt><trkpt lat="43.1647019" lon="11.4761103"><ele>187.0</ele><time>2026-04-23T08:37:19.843Z</time></trkpt><trkpt lat="43.1648026" lon="11.4761367"><ele>187.0</ele><time>2026-04-23T08:37:20.84Z</time></trkpt><trkpt lat="43.1649084" lon="11.4761658"><ele>187.0</ele><time>2026-04-23T08:37:21.842Z</time></trkpt><trkpt lat="43.1650195" lon="11.4761987"><ele>187.0</ele><time>2026-04-23T08:37:22.842Z</time></trkpt><trkpt lat="43.165241" lon="11.4762665"><ele>187.0</ele><time>2026-04-23T08:37:24.849Z</time></trkpt><trkpt lat="43.1653494" lon="11.4763044"><ele>187.0</ele><time>2026-04-23T08:37:25.838Z</time></trkpt><trkpt lat="43.1654629" lon="11.4763567"><ele>186.25</ele><time>2026-04-23T08:37:26.842Z</time></trkpt><trkpt lat="43.1655813" lon="11.4764266"><ele>185.5</ele><time>2026-04-23T08:37:27.853Z</time></trkpt><trkpt lat="43.1657079" lon="11.476519"><ele>184.75</ele><time>2026-04-23T08:37:28.844Z</time></trkpt><trkpt lat="43.1658403" lon="11.476618"><ele>184.0</ele><time>2026-04-23T08:37:29.848Z</time></trkpt><trkpt lat="43.1659689" lon="11.4767125"><ele>185.75</ele><time>2026-04-23T08:37:30.844Z</time></trkpt><trkpt lat="43.1660886" lon="11.4768044"><ele>187.5</ele><time>2026-04-23T08:37:31.842Z</time></trkpt><trkpt lat="43.1662048" lon="11.4768856"><ele>189.25</ele><time>2026-04-23T08:37:32.849Z</time></trkpt><trkpt lat="43.1663216" lon="11.4769672"><ele>191.0</ele><time>2026-04-23T08:37:33.846Z</time></trkpt><trkpt lat="43.1664338" lon="11.4770456"><ele>191.5</ele><time>2026-04-23T08:37:34.843Z</time></trkpt><trkpt lat="43.1665377" lon="11.4771294"><ele>192.0</ele><time>2026-04-23T08:37:35.845Z</time></trkpt><trkpt lat="43.166632" lon="11.4772165"><ele>192.5</ele><time>2026-04-23T08:37:36.848Z</time></trkpt><trkpt lat="43.1667252" lon="11.477317"><ele>193.0</ele><time>2026-04-23T08:37:37.844Z</time></trkpt><trkpt lat="43.1668214" lon="11.4774192"><ele>193.0</ele><time>2026-04-23T08:37:38.844Z</time></trkpt><trkpt lat="43.1669179" lon="11.4775212"><ele>193.0</ele><time>2026-04-23T08:37:39.846Z</time></trkpt><trkpt lat="43.1670123" lon="11.4776168"><ele>193.0</ele><time>2026-04-23T08:37:40.847Z</time></trkpt><trkpt lat="43.1671" lon="11.4776953"><ele>193.0</ele><time>2026-04-23T08:37:41.843Z</time></trkpt><trkpt lat="43.1671853" lon="11.4777591"><ele>193.0</ele><time>2026-04-23T08:37:42.838Z</time></trkpt><trkpt lat="43.167273" lon="11.4778076"><ele>193.25</ele><time>2026-04-23T08:37:43.847Z</time></trkpt><trkpt lat="43.167456" lon="11.4778412"><ele>193.5</ele><time>2026-04-23T08:37:45.839Z</time></trkpt><trkpt lat="43.167556" lon="11.4778365"><ele>193.75</ele><time>2026-04-23T08:37:46.844Z</time></trkpt><trkpt lat="43.1676745" lon="11.47782"><ele>194.0</ele><time>2026-04-23T08:37:47.844Z</time></trkpt><trkpt lat="43.1678112" lon="11.4778048"><ele>194.0</ele><time>2026-04-23T08:37:48.843Z</time></trkpt><trkpt lat="43.1679517" lon="11.4777946"><ele>194.0</ele><time>2026-04-23T08:37:49.841Z</time></trkpt><trkpt lat="43.1680797" lon="11.4777897"><ele>194.0</ele><time>2026-04-23T08:37:50.847Z</time></trkpt><trkpt lat="43.1681963" lon="11.4777866"><ele>194.0</ele><time>2026-04-23T08:37:51.842Z</time></trkpt><trkpt lat="43.1683003" lon="11.4777967"><ele>194.39999999999998</ele><time>2026-04-23T08:37:52.845Z</time></trkpt><trkpt lat="43.168387" lon="11.477807"><ele>194.8</ele><time>2026-04-23T08:37:53.848Z</time></trkpt><trkpt lat="43.1684526" lon="11.4778241"><ele>195.2</ele><time>2026-04-23T08:37:54.841Z</time></trkpt><trkpt lat="43.1685319" lon="11.4778788"><ele>195.60000000000002</ele><time>2026-04-23T08:37:56.843Z</time></trkpt><trkpt lat="43.1686155" lon="11.477904"><ele>196.0</ele><time>2026-04-23T08:40:07.844Z</time></trkpt><trkpt lat="43.1687838" lon="11.4779339"><ele>196.0</ele><time>2026-04-23T08:40:09.848Z</time></trkpt><trkpt lat="43.1689006" lon="11.4779637"><ele>196.0</ele><time>2026-04-23T08:40:10.838Z</time></trkpt><trkpt lat="43.1690129" lon="11.4779971"><ele>196.0</ele><time>2026-04-23T08:40:11.849Z</time></trkpt><trkpt lat="43.1691153" lon="11.478037"><ele>196.0</ele><time>2026-04-23T08:40:12.842Z</time></trkpt><trkpt lat="43.1692025" lon="11.4780896"><ele>196.0</ele><time>2026-04-23T08:40:13.848Z</time></trkpt><trkpt lat="43.1692816" lon="11.4781508"><ele>196.0</ele><time>2026-04-23T08:40:14.844Z</time></trkpt><trkpt lat="43.1693421" lon="11.4782188"><ele>196.0</ele><time>2026-04-23T08:40:15.845Z</time></trkpt><trkpt lat="43.1693908" lon="11.4782889"><ele>196.0</ele><time>2026-04-23T08:40:16.848Z</time></trkpt><trkpt lat="43.1694322" lon="11.4783627"><ele>196.0</ele><time>2026-04-23T08:40:17.843Z</time></trkpt><trkpt lat="43.1694672" lon="11.478443"><ele>196.0</ele><time>2026-04-23T08:40:18.842Z</time></trkpt><trkpt lat="43.169504" lon="11.4785281"><ele>196.0</ele><time>2026-04-23T08:40:19.85Z</time></trkpt><trkpt lat="43.1695435" lon="11.4786217"><ele>196.0</ele><time>2026-04-23T08:40:20.845Z</time></trkpt><trkpt lat="43.1695871" lon="11.4787212"><ele>197.0</ele><time>2026-04-23T08:40:21.85Z</time></trkpt><trkpt lat="43.1696356" lon="11.4788248"><ele>198.0</ele><time>2026-04-23T08:40:22.85Z</time></trkpt><trkpt lat="43.1696911" lon="11.4789312"><ele>199.0</ele><time>2026-04-23T08:40:23.848Z</time></trkpt><trkpt lat="43.1697535" lon="11.4790395"><ele>200.0</ele><time>2026-04-23T08:40:24.852Z</time></trkpt><trkpt lat="43.1698158" lon="11.4791381"><ele>201.0</ele><time>2026-04-23T08:40:25.845Z</time></trkpt><trkpt lat="43.169877" lon="11.4792215"><ele>201.0</ele><time>2026-04-23T08:40:26.847Z</time></trkpt><trkpt lat="43.1699413" lon="11.4792877"><ele>201.0</ele><time>2026-04-23T08:40:27.847Z</time></trkpt><trkpt lat="43.1700096" lon="11.4793426"><ele>201.0</ele><time>2026-04-23T08:40:28.845Z</time></trkpt><trkpt lat="43.1701682" lon="11.47942"><ele>201.0</ele><time>2026-04-23T08:40:30.848Z</time></trkpt><trkpt lat="43.1702538" lon="11.4794479"><ele>201.0</ele><time>2026-04-23T08:40:31.845Z</time></trkpt><trkpt lat="43.1703386" lon="11.4794728"><ele>201.0</ele><time>2026-04-23T08:40:32.847Z</time></trkpt><trkpt lat="43.1704226" lon="11.4795003"><ele>201.0</ele><time>2026-04-23T08:40:33.847Z</time></trkpt><trkpt lat="43.1705095" lon="11.4795339"><ele>201.0</ele><time>2026-04-23T08:40:34.842Z</time></trkpt><trkpt lat="43.1705957" lon="11.4795748"><ele>201.0</ele><time>2026-04-23T08:40:35.844Z</time></trkpt><trkpt lat="43.1706773" lon="11.4796289"><ele>201.0</ele><time>2026-04-23T08:40:36.847Z</time></trkpt><trkpt lat="43.170757" lon="11.4797008"><ele>201.60000000000002</ele><time>2026-04-23T08:40:37.845Z</time></trkpt><trkpt lat="43.1708278" lon="11.4797854"><ele>202.2</ele><time>2026-04-23T08:40:38.848Z</time></trkpt><trkpt lat="43.1708837" lon="11.4798797"><ele>202.8</ele><time>2026-04-23T08:40:39.841Z</time></trkpt><trkpt lat="43.1709251" lon="11.4799879"><ele>203.39999999999998</ele><time>2026-04-23T08:40:40.849Z</time></trkpt><trkpt lat="43.1709619" lon="11.4801113"><ele>204.0</ele><time>2026-04-23T08:40:41.848Z</time></trkpt><trkpt lat="43.1709933" lon="11.4802509"><ele>204.0</ele><time>2026-04-23T08:40:42.847Z</time></trkpt><trkpt lat="43.1710274" lon="11.4803959"><ele>204.0</ele><time>2026-04-23T08:40:43.853Z</time></trkpt><trkpt lat="43.1710581" lon="11.4805361"><ele>204.0</ele><time>2026-04-23T08:40:44.841Z</time></trkpt><trkpt lat="43.1710829" lon="11.480676"><ele>204.0</ele><time>2026-04-23T08:40:45.847Z</time></trkpt><trkpt lat="43.1711027" lon="11.4808131"><ele>204.0</ele><time>2026-04-23T08:40:46.847Z</time></trkpt><trkpt lat="43.1711232" lon="11.480948"><ele>203.79999999999998</ele><time>2026-04-23T08:40:47.844Z</time></trkpt><trkpt lat="43.1711466" lon="11.481083"><ele>203.6</ele><time>2026-04-23T08:40:48.845Z</time></trkpt><trkpt lat="43.1711683" lon="11.481213"><ele>203.4</ele><time>2026-04-23T08:40:49.846Z</time></trkpt><trkpt lat="43.1712043" lon="11.481448"><ele>203.2</ele><time>2026-04-23T08:40:51.848Z</time></trkpt><trkpt lat="43.1712179" lon="11.4815456"><ele>203.0</ele><time>2026-04-23T08:40:52.846Z</time></trkpt><trkpt lat="43.1712186" lon="11.4816565"><ele>203.00000000000003</ele><time>2026-04-23T08:40:54.849Z</time></trkpt><trkpt lat="43.1711505" lon="11.4816532"><ele>203.0</ele><time>2026-04-23T08:40:57.849Z</time></trkpt><trkpt lat="43.1711095" lon="11.4815286"><ele>203.0</ele><time>2026-04-23T08:41:00.846Z</time></trkpt><trkpt lat="43.1711271" lon="11.4813793"><ele>203.0</ele><time>2026-04-23T08:41:02.845Z</time></trkpt><trkpt lat="43.171129" lon="11.4812375"><ele>203.00000000000003</ele><time>2026-04-23T08:41:04.844Z</time></trkpt><trkpt lat="43.1711873" lon="11.4812762"><ele>203.0</ele><time>2026-04-23T08:41:33.854Z</time></trkpt><trkpt lat="43.1712138" lon="11.4815369"><ele>203.0</ele><time>2026-04-23T08:41:37.853Z</time></trkpt><trkpt lat="43.1712318" lon="11.4816903"><ele>203.0</ele><time>2026-04-23T08:41:39.844Z</time></trkpt><trkpt lat="43.1712533" lon="11.4818171"><ele>203.0</ele><time>2026-04-23T08:41:40.847Z</time></trkpt><trkpt lat="43.171277" lon="11.4819619"><ele>203.0</ele><time>2026-04-23T08:41:41.845Z</time></trkpt><trkpt lat="43.171303" lon="11.4820983"><ele>203.0</ele><time>2026-04-23T08:41:42.844Z</time></trkpt><trkpt lat="43.1713391" lon="11.4822275"><ele>201.5</ele><time>2026-04-23T08:41:43.85Z</time></trkpt><trkpt lat="43.1713866" lon="11.4823448"><ele>200.0</ele><time>2026-04-23T08:41:44.846Z</time></trkpt><trkpt lat="43.1714464" lon="11.4824706"><ele>198.5</ele><time>2026-04-23T08:41:45.848Z</time></trkpt><trkpt lat="43.1715143" lon="11.4826083"><ele>197.0</ele><time>2026-04-23T08:41:46.848Z</time></trkpt><trkpt lat="43.1715879" lon="11.4827557"><ele>199.8</ele><time>2026-04-23T08:41:47.846Z</time></trkpt><trkpt lat="43.17165" lon="11.4828962"><ele>202.6</ele><time>2026-04-23T08:41:48.848Z</time></trkpt><trkpt lat="43.1717008" lon="11.4830185"><ele>205.4</ele><time>2026-04-23T08:41:49.841Z</time></trkpt><trkpt lat="43.1717516" lon="11.4831139"><ele>208.20000000000002</ele><time>2026-04-23T08:41:50.844Z</time></trkpt><trkpt lat="43.1717957" lon="11.4831808"><ele>211.0</ele><time>2026-04-23T08:41:51.843Z</time></trkpt><trkpt lat="43.1718578" lon="11.4832487"><ele>211.0</ele><time>2026-04-23T08:41:53.845Z</time></trkpt><trkpt lat="43.1719375" lon="11.4832815"><ele>211.0</ele><time>2026-04-23T08:51:46.846Z</time></trkpt><trkpt lat="43.1720944" lon="11.4834417"><ele>211.0</ele><time>2026-04-23T08:51:49.85Z</time></trkpt><trkpt lat="43.172171" lon="11.4835328"><ele>211.0</ele><time>2026-04-23T08:51:50.85Z</time></trkpt><trkpt lat="43.172242" lon="11.4836188"><ele>210.99999999999997</ele><time>2026-04-23T08:51:51.861Z</time></trkpt><trkpt lat="43.1723029" lon="11.4836841"><ele>211.0</ele><time>2026-04-23T08:51:52.856Z</time></trkpt><trkpt lat="43.1723592" lon="11.4837364"><ele>211.0</ele><time>2026-04-23T08:51:53.873Z</time></trkpt><trkpt lat="43.1724628" lon="11.4838039"><ele>211.0</ele><time>2026-04-23T08:51:55.871Z</time></trkpt><trkpt lat="43.1725308" lon="11.4838308"><ele>210.99999999999997</ele><time>2026-04-23T08:51:56.845Z</time></trkpt><trkpt lat="43.1726041" lon="11.4838614"><ele>211.0</ele><time>2026-04-23T08:51:57.858Z</time></trkpt><trkpt lat="43.1726816" lon="11.4838933"><ele>213.8</ele><time>2026-04-23T08:51:58.858Z</time></trkpt><trkpt lat="43.1727645" lon="11.4839281"><ele>216.60000000000002</ele><time>2026-04-23T08:51:59.862Z</time></trkpt><trkpt lat="43.1728536" lon="11.4839638"><ele>219.4</ele><time>2026-04-23T08:52:00.864Z</time></trkpt><trkpt lat="43.1729545" lon="11.4840013"><ele>222.2</ele><time>2026-04-23T08:52:01.849Z</time></trkpt><trkpt lat="43.1730566" lon="11.4840382"><ele>225.0</ele><time>2026-04-23T08:52:02.848Z</time></trkpt><trkpt lat="43.1731537" lon="11.4840694"><ele>226.0</ele><time>2026-04-23T08:52:03.852Z</time></trkpt><trkpt lat="43.1732499" lon="11.4840973"><ele>227.0</ele><time>2026-04-23T08:52:04.853Z</time></trkpt><trkpt lat="43.1733535" lon="11.484127"><ele>228.0</ele><time>2026-04-23T08:52:05.849Z</time></trkpt><trkpt lat="43.173468" lon="11.4841612"><ele>229.0</ele><time>2026-04-23T08:52:06.851Z</time></trkpt><trkpt lat="43.1735962" lon="11.4841945"><ele>229.0</ele><time>2026-04-23T08:52:07.844Z</time></trkpt><trkpt lat="43.1738574" lon="11.4842677"><ele>229.0</ele><time>2026-04-23T08:52:09.851Z</time></trkpt><trkpt lat="43.1739869" lon="11.4843128"><ele>229.0</ele><time>2026-04-23T08:52:10.849Z</time></trkpt><trkpt lat="43.1741182" lon="11.4843614"><ele>229.0</ele><time>2026-04-23T08:52:11.844Z</time></trkpt><trkpt lat="43.1742477" lon="11.4844027"><ele>229.0</ele><time>2026-04-23T08:52:12.842Z</time></trkpt><trkpt lat="43.1743697" lon="11.4844388"><ele>229.0</ele><time>2026-04-23T08:52:13.851Z</time></trkpt><trkpt lat="43.1744861" lon="11.4844754"><ele>229.0</ele><time>2026-04-23T08:52:14.845Z</time></trkpt><trkpt lat="43.1745959" lon="11.4845204"><ele>228.99999999999997</ele><time>2026-04-23T08:52:15.847Z</time></trkpt><trkpt lat="43.174697" lon="11.4845748"><ele>229.0</ele><time>2026-04-23T08:52:16.846Z</time></trkpt><trkpt lat="43.174786" lon="11.4846323"><ele>229.0</ele><time>2026-04-23T08:52:17.849Z</time></trkpt><trkpt lat="43.1748625" lon="11.4846861"><ele>229.0</ele><time>2026-04-23T08:52:18.849Z</time></trkpt><trkpt lat="43.1749323" lon="11.4847309"><ele>228.99999999999997</ele><time>2026-04-23T08:52:19.846Z</time></trkpt><trkpt lat="43.1749962" lon="11.4847684"><ele>229.0</ele><time>2026-04-23T08:52:20.845Z</time></trkpt><trkpt lat="43.1751078" lon="11.4848361"><ele>229.0</ele><time>2026-04-23T08:52:22.844Z</time></trkpt><trkpt lat="43.1752144" lon="11.4849029"><ele>229.0</ele><time>2026-04-23T08:52:24.844Z</time></trkpt><trkpt lat="43.1753131" lon="11.484973"><ele>229.0</ele><time>2026-04-23T08:52:26.847Z</time></trkpt><trkpt lat="43.1754016" lon="11.4850232"><ele>229.0</ele><time>2026-04-23T08:52:28.851Z</time></trkpt><trkpt lat="43.1755525" lon="11.4848396"><ele>229.0</ele><time>2026-04-23T08:52:32.845Z</time></trkpt><trkpt lat="43.1756139" lon="11.4847072"><ele>228.99999999999997</ele><time>2026-04-23T08:52:33.846Z</time></trkpt><trkpt lat="43.1756813" lon="11.4845697"><ele>228.99999999999997</ele><time>2026-04-23T08:52:34.842Z</time></trkpt><trkpt lat="43.1757422" lon="11.4844431"><ele>229.0</ele><time>2026-04-23T08:52:35.847Z</time></trkpt><trkpt lat="43.1757936" lon="11.4843283"><ele>229.0</ele><time>2026-04-23T08:52:36.845Z</time></trkpt><trkpt lat="43.1758349" lon="11.484214"><ele>229.0</ele><time>2026-04-23T08:52:37.85Z</time></trkpt><trkpt lat="43.1758604" lon="11.4840961"><ele>229.0</ele><time>2026-04-23T08:52:38.843Z</time></trkpt><trkpt lat="43.1758633" lon="11.4839652"><ele>229.0</ele><time>2026-04-23T08:52:39.846Z</time></trkpt><trkpt lat="43.1758435" lon="11.4837917"><ele>229.0</ele><time>2026-04-23T08:52:40.847Z</time></trkpt><trkpt lat="43.1758113" lon="11.4835828"><ele>226.33333333333331</ele><time>2026-04-23T08:52:41.843Z</time></trkpt><trkpt lat="43.1757792" lon="11.4833561"><ele>223.66666666666669</ele><time>2026-04-23T08:52:42.85Z</time></trkpt><trkpt lat="43.1757529" lon="11.4831361"><ele>221.0</ele><time>2026-04-23T08:52:43.848Z</time></trkpt><trkpt lat="43.1757295" lon="11.482951"><ele>219.75</ele><time>2026-04-23T08:52:44.846Z</time></trkpt><trkpt lat="43.1757102" lon="11.4828108"><ele>218.5</ele><time>2026-04-23T08:52:45.846Z</time></trkpt><trkpt lat="43.1756739" lon="11.4826763"><ele>217.25</ele><time>2026-04-23T08:52:47.854Z</time></trkpt><trkpt lat="43.1756244" lon="11.482548"><ele>216.0</ele><time>2026-04-23T08:52:49.849Z</time></trkpt><trkpt lat="43.1756177" lon="11.4822981"><ele>214.20000000000002</ele><time>2026-04-23T08:52:51.85Z</time></trkpt><trkpt lat="43.1756432" lon="11.4821366"><ele>212.40000000000003</ele><time>2026-04-23T08:52:52.85Z</time></trkpt><trkpt lat="43.1756795" lon="11.4819761"><ele>210.6</ele><time>2026-04-23T08:52:53.847Z</time></trkpt><trkpt lat="43.1757146" lon="11.4818353"><ele>208.8</ele><time>2026-04-23T08:52:54.846Z</time></trkpt><trkpt lat="43.1757566" lon="11.4817234"><ele>207.0</ele><time>2026-04-23T08:52:55.853Z</time></trkpt><trkpt lat="43.175815" lon="11.4816395"><ele>207.0</ele><time>2026-04-23T08:52:56.849Z</time></trkpt><trkpt lat="43.1758839" lon="11.4815699"><ele>207.0</ele><time>2026-04-23T08:52:57.844Z</time></trkpt><trkpt lat="43.1759509" lon="11.4814955"><ele>207.0</ele><time>2026-04-23T08:52:58.84Z</time></trkpt><trkpt lat="43.1760129" lon="11.4814124"><ele>207.0</ele><time>2026-04-23T08:52:59.842Z</time></trkpt><trkpt lat="43.1760638" lon="11.4813151"><ele>207.0</ele><time>2026-04-23T08:53:00.847Z</time></trkpt><trkpt lat="43.176102" lon="11.4811975"><ele>207.0</ele><time>2026-04-23T08:53:01.849Z</time></trkpt><trkpt lat="43.1761248" lon="11.4810568"><ele>204.75</ele><time>2026-04-23T08:53:02.846Z</time></trkpt><trkpt lat="43.1761424" lon="11.4808962"><ele>202.5</ele><time>2026-04-23T08:53:03.844Z</time></trkpt><trkpt lat="43.1761609" lon="11.4807319"><ele>200.25</ele><time>2026-04-23T08:53:04.847Z</time></trkpt><trkpt lat="43.1761776" lon="11.4805715"><ele>198.0</ele><time>2026-04-23T08:53:05.846Z</time></trkpt><trkpt lat="43.176195" lon="11.4804206"><ele>197.4</ele><time>2026-04-23T08:53:06.849Z</time></trkpt><trkpt lat="43.1762176" lon="11.4802883"><ele>196.8</ele><time>2026-04-23T08:53:07.853Z</time></trkpt><trkpt lat="43.1762547" lon="11.4801737"><ele>196.2</ele><time>2026-04-23T08:53:08.847Z</time></trkpt><trkpt lat="43.1763182" lon="11.4800651"><ele>195.6</ele><time>2026-04-23T08:53:09.844Z</time></trkpt><trkpt lat="43.1764049" lon="11.4799639"><ele>195.0</ele><time>2026-04-23T08:53:10.852Z</time></trkpt><trkpt lat="43.1765716" lon="11.4797564"><ele>195.0</ele><time>2026-04-23T08:53:12.85Z</time></trkpt><trkpt lat="43.1766351" lon="11.4796433"><ele>195.0</ele><time>2026-04-23T08:53:13.853Z</time></trkpt><trkpt lat="43.1766843" lon="11.4795219"><ele>195.0</ele><time>2026-04-23T08:53:14.844Z</time></trkpt><trkpt lat="43.1767195" lon="11.4793991"><ele>195.0</ele><time>2026-04-23T08:53:15.845Z</time></trkpt><trkpt lat="43.176734" lon="11.4792615"><ele>195.0</ele><time>2026-04-23T08:53:16.85Z</time></trkpt><trkpt lat="43.1767285" lon="11.4791072"><ele>192.33333333333334</ele><time>2026-04-23T08:53:17.849Z</time></trkpt><trkpt lat="43.1767106" lon="11.4789212"><ele>189.66666666666669</ele><time>2026-04-23T08:53:18.849Z</time></trkpt><trkpt lat="43.1766872" lon="11.4787112"><ele>187.0</ele><time>2026-04-23T08:53:19.844Z</time></trkpt><trkpt lat="43.1766646" lon="11.4784911"><ele>185.0</ele><time>2026-04-23T08:53:20.851Z</time></trkpt><trkpt lat="43.1766632" lon="11.4782872"><ele>183.0</ele><time>2026-04-23T08:53:21.84Z</time></trkpt><trkpt lat="43.1766864" lon="11.4781022"><ele>181.0</ele><time>2026-04-23T08:53:22.848Z</time></trkpt><trkpt lat="43.1767177" lon="11.477943"><ele>179.0</ele><time>2026-04-23T08:53:23.848Z</time></trkpt><trkpt lat="43.1767533" lon="11.4778078"><ele>177.0</ele><time>2026-04-23T08:53:24.845Z</time></trkpt><trkpt lat="43.176796" lon="11.4776981"><ele>175.0</ele><time>2026-04-23T08:53:25.852Z</time></trkpt><trkpt lat="43.1768511" lon="11.4776154"><ele>173.0</ele><time>2026-04-23T08:53:26.844Z</time></trkpt><trkpt lat="43.1769274" lon="11.4775543"><ele>171.0</ele><time>2026-04-23T08:53:27.844Z</time></trkpt><trkpt lat="43.1770223" lon="11.4775133"><ele>169.0</ele><time>2026-04-23T08:53:28.844Z</time></trkpt><trkpt lat="43.1771321" lon="11.4774819"><ele>169.0</ele><time>2026-04-23T08:53:29.847Z</time></trkpt><trkpt lat="43.1772596" lon="11.4774617"><ele>169.0</ele><time>2026-04-23T08:53:30.85Z</time></trkpt><trkpt lat="43.1773965" lon="11.4774434"><ele>169.0</ele><time>2026-04-23T08:53:31.85Z</time></trkpt><trkpt lat="43.1776967" lon="11.4774057"><ele>167.0</ele><time>2026-04-23T08:53:33.854Z</time></trkpt><trkpt lat="43.177849" lon="11.4773841"><ele>165.0</ele><time>2026-04-23T08:53:34.845Z</time></trkpt><trkpt lat="43.1779954" lon="11.4773602"><ele>163.0</ele><time>2026-04-23T08:53:35.844Z</time></trkpt><trkpt lat="43.1781414" lon="11.4773348"><ele>161.0</ele><time>2026-04-23T08:53:36.845Z</time></trkpt><trkpt lat="43.1782832" lon="11.477316"><ele>160.0</ele><time>2026-04-23T08:53:37.846Z</time></trkpt><trkpt lat="43.178423" lon="11.4772875"><ele>159.0</ele><time>2026-04-23T08:53:38.849Z</time></trkpt><trkpt lat="43.1785592" lon="11.4772586"><ele>158.0</ele><time>2026-04-23T08:53:39.849Z</time></trkpt><trkpt lat="43.1786898" lon="11.4772261"><ele>157.0</ele><time>2026-04-23T08:53:40.852Z</time></trkpt><trkpt lat="43.1788175" lon="11.4771865"><ele>157.0</ele><time>2026-04-23T08:53:41.843Z</time></trkpt><trkpt lat="43.1789462" lon="11.4771455"><ele>157.0</ele><time>2026-04-23T08:53:42.844Z</time></trkpt><trkpt lat="43.1790735" lon="11.4771072"><ele>157.0</ele><time>2026-04-23T08:53:43.843Z</time></trkpt><trkpt lat="43.1791989" lon="11.477077"><ele>157.0</ele><time>2026-04-23T08:53:44.849Z</time></trkpt><trkpt lat="43.179323" lon="11.4770631"><ele>156.5</ele><time>2026-04-23T08:53:45.842Z</time></trkpt><trkpt lat="43.1794479" lon="11.4770681"><ele>156.0</ele><time>2026-04-23T08:53:46.847Z</time></trkpt><trkpt lat="43.1795742" lon="11.4770927"><ele>155.5</ele><time>2026-04-23T08:53:47.848Z</time></trkpt><trkpt lat="43.179703" lon="11.4771309"><ele>155.0</ele><time>2026-04-23T08:53:48.847Z</time></trkpt><trkpt lat="43.1798344" lon="11.4771745"><ele>155.0</ele><time>2026-04-23T08:53:49.845Z</time></trkpt><trkpt lat="43.1799686" lon="11.4772177"><ele>155.0</ele><time>2026-04-23T08:53:50.844Z</time></trkpt><trkpt lat="43.1801015" lon="11.4772595"><ele>155.0</ele><time>2026-04-23T08:53:51.841Z</time></trkpt><trkpt lat="43.1802277" lon="11.4772977"><ele>155.0</ele><time>2026-04-23T08:53:52.847Z</time></trkpt><trkpt lat="43.1804724" lon="11.4773572"><ele>155.0</ele><time>2026-04-23T08:53:54.847Z</time></trkpt><trkpt lat="43.1805993" lon="11.4773802"><ele>155.0</ele><time>2026-04-23T08:53:55.851Z</time></trkpt><trkpt lat="43.1807348" lon="11.4774058"><ele>155.0</ele><time>2026-04-23T08:53:56.846Z</time></trkpt><trkpt lat="43.1808717" lon="11.4774344"><ele>155.0</ele><time>2026-04-23T08:53:57.846Z</time></trkpt><trkpt lat="43.1810105" lon="11.4774639"><ele>155.25</ele><time>2026-04-23T08:53:58.85Z</time></trkpt><trkpt lat="43.1811514" lon="11.4774967"><ele>155.5</ele><time>2026-04-23T08:53:59.843Z</time></trkpt><trkpt lat="43.1812904" lon="11.477531"><ele>155.75</ele><time>2026-04-23T08:54:00.85Z</time></trkpt><trkpt lat="43.1814281" lon="11.4775643"><ele>156.0</ele><time>2026-04-23T08:54:01.847Z</time></trkpt><trkpt lat="43.1815634" lon="11.4776013"><ele>156.0</ele><time>2026-04-23T08:54:02.851Z</time></trkpt><trkpt lat="43.1816992" lon="11.4776432"><ele>156.0</ele><time>2026-04-23T08:54:03.854Z</time></trkpt><trkpt lat="43.181835" lon="11.4776855"><ele>156.0</ele><time>2026-04-23T08:54:04.846Z</time></trkpt><trkpt lat="43.1819647" lon="11.4777239"><ele>156.0</ele><time>2026-04-23T08:54:05.844Z</time></trkpt><trkpt lat="43.1820855" lon="11.4777603"><ele>156.0</ele><time>2026-04-23T08:54:06.843Z</time></trkpt><trkpt lat="43.1821941" lon="11.477794"><ele>156.0</ele><time>2026-04-23T08:54:07.85Z</time></trkpt><trkpt lat="43.1822906" lon="11.4778193"><ele>156.0</ele><time>2026-04-23T08:54:08.848Z</time></trkpt><trkpt lat="43.1823758" lon="11.4778201"><ele>156.0</ele><time>2026-04-23T08:54:09.843Z</time></trkpt><trkpt lat="43.1824583" lon="11.4777927"><ele>156.0</ele><time>2026-04-23T08:54:10.841Z</time></trkpt><trkpt lat="43.1825492" lon="11.4777304"><ele>155.66666666666666</ele><time>2026-04-23T08:54:11.841Z</time></trkpt><trkpt lat="43.182648" lon="11.4776454"><ele>155.33333333333331</ele><time>2026-04-23T08:54:12.848Z</time></trkpt><trkpt lat="43.1827517" lon="11.477548"><ele>155.0</ele><time>2026-04-23T08:54:13.848Z</time></trkpt><trkpt lat="43.1829793" lon="11.4773419"><ele>155.0</ele><time>2026-04-23T08:54:15.849Z</time></trkpt><trkpt lat="43.1831047" lon="11.477239"><ele>155.0</ele><time>2026-04-23T08:54:16.849Z</time></trkpt><trkpt lat="43.1832318" lon="11.4771411"><ele>155.0</ele><time>2026-04-23T08:54:17.844Z</time></trkpt><trkpt lat="43.1833573" lon="11.4770396"><ele>155.0</ele><time>2026-04-23T08:54:18.846Z</time></trkpt><trkpt lat="43.183483" lon="11.4769324"><ele>154.5</ele><time>2026-04-23T08:54:19.846Z</time></trkpt><trkpt lat="43.1836077" lon="11.4768296"><ele>154.0</ele><time>2026-04-23T08:54:20.849Z</time></trkpt><trkpt lat="43.1837318" lon="11.4767316"><ele>153.5</ele><time>2026-04-23T08:54:21.849Z</time></trkpt><trkpt lat="43.1838531" lon="11.4766329"><ele>153.0</ele><time>2026-04-23T08:54:22.849Z</time></trkpt><trkpt lat="43.1839749" lon="11.4765339"><ele>153.25</ele><time>2026-04-23T08:54:23.857Z</time></trkpt><trkpt lat="43.1840987" lon="11.4764377"><ele>153.5</ele><time>2026-04-23T08:54:24.85Z</time></trkpt><trkpt lat="43.1842198" lon="11.4763417"><ele>153.75</ele><time>2026-04-23T08:54:25.849Z</time></trkpt><trkpt lat="43.1843397" lon="11.4762428"><ele>154.0</ele><time>2026-04-23T08:54:26.846Z</time></trkpt><trkpt lat="43.1844616" lon="11.4761436"><ele>154.0</ele><time>2026-04-23T08:54:27.847Z</time></trkpt><trkpt lat="43.1845871" lon="11.4760435"><ele>154.0</ele><time>2026-04-23T08:54:28.848Z</time></trkpt><trkpt lat="43.1847145" lon="11.4759422"><ele>154.0</ele><time>2026-04-23T08:54:29.845Z</time></trkpt><trkpt lat="43.1848434" lon="11.4758386"><ele>154.0</ele><time>2026-04-23T08:54:30.851Z</time></trkpt><trkpt lat="43.1849725" lon="11.4757337"><ele>154.0</ele><time>2026-04-23T08:54:31.844Z</time></trkpt><trkpt lat="43.1851046" lon="11.4756235"><ele>154.0</ele><time>2026-04-23T08:54:32.851Z</time></trkpt><trkpt lat="43.1852423" lon="11.4755066"><ele>154.0</ele><time>2026-04-23T08:54:33.842Z</time></trkpt><trkpt lat="43.1853887" lon="11.4753857"><ele>154.0</ele><time>2026-04-23T08:54:34.848Z</time></trkpt><trkpt lat="43.1856895" lon="11.4751343"><ele>154.0</ele><time>2026-04-23T08:54:36.852Z</time></trkpt><trkpt lat="43.185838" lon="11.475015"><ele>154.0</ele><time>2026-04-23T08:54:37.85Z</time></trkpt><trkpt lat="43.1859826" lon="11.4749134"><ele>154.0</ele><time>2026-04-23T08:54:38.846Z</time></trkpt><trkpt lat="43.1861225" lon="11.4748368"><ele>154.0</ele><time>2026-04-23T08:54:39.845Z</time></trkpt><trkpt lat="43.1862568" lon="11.4747911"><ele>154.0</ele><time>2026-04-23T08:54:40.848Z</time></trkpt><trkpt lat="43.1863917" lon="11.4747763"><ele>154.0</ele><time>2026-04-23T08:54:41.846Z</time></trkpt><trkpt lat="43.1865319" lon="11.4747794"><ele>154.0</ele><time>2026-04-23T08:54:42.846Z</time></trkpt><trkpt lat="43.1866807" lon="11.4747835"><ele>154.0</ele><time>2026-04-23T08:54:43.856Z</time></trkpt><trkpt lat="43.1868379" lon="11.4747719"><ele>154.25</ele><time>2026-04-23T08:54:44.846Z</time></trkpt><trkpt lat="43.1869948" lon="11.4747512"><ele>154.5</ele><time>2026-04-23T08:54:45.85Z</time></trkpt><trkpt lat="43.1871409" lon="11.4747383"><ele>154.75</ele><time>2026-04-23T08:54:46.842Z</time></trkpt><trkpt lat="43.1872715" lon="11.4747399"><ele>155.0</ele><time>2026-04-23T08:54:47.847Z</time></trkpt><trkpt lat="43.1873847" lon="11.4747699"><ele>155.66666666666666</ele><time>2026-04-23T08:54:48.846Z</time></trkpt><trkpt lat="43.1874834" lon="11.4748315"><ele>156.33333333333331</ele><time>2026-04-23T08:54:49.845Z</time></trkpt><trkpt lat="43.1875695" lon="11.474909"><ele>157.0</ele><time>2026-04-23T08:54:50.852Z</time></trkpt><trkpt lat="43.1876484" lon="11.4749758"><ele>157.66666666666666</ele><time>2026-04-23T08:54:51.847Z</time></trkpt><trkpt lat="43.1877198" lon="11.475015"><ele>158.33333333333334</ele><time>2026-04-23T08:54:52.85Z</time></trkpt><trkpt lat="43.1877872" lon="11.4750124"><ele>159.0</ele><time>2026-04-23T08:54:53.849Z</time></trkpt><trkpt lat="43.1878805" lon="11.4749332"><ele>159.0</ele><time>2026-04-23T08:54:55.85Z</time></trkpt><trkpt lat="43.1879438" lon="11.4746413"><ele>159.0</ele><time>2026-04-23T08:54:58.844Z</time></trkpt><trkpt lat="43.1879725" lon="11.4744894"><ele>159.0</ele><time>2026-04-23T08:54:59.843Z</time></trkpt><trkpt lat="43.1880283" lon="11.4743487"><ele>159.0</ele><time>2026-04-23T08:55:00.849Z</time></trkpt><trkpt lat="43.1881168" lon="11.4742373"><ele>159.0</ele><time>2026-04-23T08:55:01.843Z</time></trkpt><trkpt lat="43.1882345" lon="11.4741475"><ele>159.0</ele><time>2026-04-23T08:55:02.848Z</time></trkpt><trkpt lat="43.1883463" lon="11.4740676"><ele>159.0</ele><time>2026-04-23T08:55:03.851Z</time></trkpt><trkpt lat="43.1884425" lon="11.4739745"><ele>160.5</ele><time>2026-04-23T08:55:04.85Z</time></trkpt><trkpt lat="43.1885245" lon="11.4738464"><ele>162.0</ele><time>2026-04-23T08:55:05.843Z</time></trkpt><trkpt lat="43.1886012" lon="11.4736685"><ele>163.5</ele><time>2026-04-23T08:55:06.847Z</time></trkpt><trkpt lat="43.1886731" lon="11.4734575"><ele>165.0</ele><time>2026-04-23T08:55:07.84Z</time></trkpt><trkpt lat="43.1887409" lon="11.4732427"><ele>165.0</ele><time>2026-04-23T08:55:08.841Z</time></trkpt><trkpt lat="43.1888006" lon="11.473051"><ele>165.0</ele><time>2026-04-23T08:55:09.848Z</time></trkpt><trkpt lat="43.1888589" lon="11.4728742"><ele>165.0</ele><time>2026-04-23T08:55:10.85Z</time></trkpt><trkpt lat="43.1889271" lon="11.4727034"><ele>165.0</ele><time>2026-04-23T08:55:11.846Z</time></trkpt><trkpt lat="43.1889917" lon="11.4725278"><ele>165.66666666666666</ele><time>2026-04-23T08:55:12.843Z</time></trkpt><trkpt lat="43.1890504" lon="11.4723271"><ele>166.33333333333331</ele><time>2026-04-23T08:55:13.853Z</time></trkpt><trkpt lat="43.1891013" lon="11.4721241"><ele>167.0</ele><time>2026-04-23T08:55:14.843Z</time></trkpt><trkpt lat="43.1891528" lon="11.4719317"><ele>167.0</ele><time>2026-04-23T08:55:15.846Z</time></trkpt><trkpt lat="43.1892033" lon="11.4717563"><ele>167.0</ele><time>2026-04-23T08:55:16.849Z</time></trkpt><trkpt lat="43.1893527" lon="11.4714753"><ele>167.0</ele><time>2026-04-23T08:55:18.844Z</time></trkpt><trkpt lat="43.189457" lon="11.4713669"><ele>167.0</ele><time>2026-04-23T08:55:19.839Z</time></trkpt><trkpt lat="43.1895737" lon="11.4712771"><ele>167.0</ele><time>2026-04-23T08:55:20.846Z</time></trkpt><trkpt lat="43.1897036" lon="11.4712025"><ele>167.0</ele><time>2026-04-23T08:55:21.844Z</time></trkpt><trkpt lat="43.1898417" lon="11.4711342"><ele>167.0</ele><time>2026-04-23T08:55:22.843Z</time></trkpt><trkpt lat="43.1899809" lon="11.4710661"><ele>166.5</ele><time>2026-04-23T08:55:23.843Z</time></trkpt><trkpt lat="43.1901177" lon="11.4709853"><ele>166.0</ele><time>2026-04-23T08:55:24.847Z</time></trkpt><trkpt lat="43.1902454" lon="11.4708883"><ele>165.5</ele><time>2026-04-23T08:55:25.844Z</time></trkpt><trkpt lat="43.1903665" lon="11.4707693"><ele>165.0</ele><time>2026-04-23T08:55:26.848Z</time></trkpt><trkpt lat="43.1904802" lon="11.4706354"><ele>165.0</ele><time>2026-04-23T08:55:27.845Z</time></trkpt><trkpt lat="43.1905859" lon="11.4704994"><ele>165.0</ele><time>2026-04-23T08:55:28.849Z</time></trkpt><trkpt lat="43.1906805" lon="11.4703658"><ele>165.0</ele><time>2026-04-23T08:55:29.846Z</time></trkpt><trkpt lat="43.190765" lon="11.4702318"><ele>165.0</ele><time>2026-04-23T08:55:30.849Z</time></trkpt><trkpt lat="43.1908448" lon="11.4700864"><ele>164.25</ele><time>2026-04-23T08:55:31.842Z</time></trkpt><trkpt lat="43.1909183" lon="11.4699284"><ele>163.5</ele><time>2026-04-23T08:55:32.849Z</time></trkpt><trkpt lat="43.1909857" lon="11.4697544"><ele>162.75</ele><time>2026-04-23T08:55:33.85Z</time></trkpt><trkpt lat="43.1910487" lon="11.4695725"><ele>162.0</ele><time>2026-04-23T08:55:34.839Z</time></trkpt><trkpt lat="43.1911148" lon="11.4693903"><ele>160.33333333333334</ele><time>2026-04-23T08:55:35.841Z</time></trkpt><trkpt lat="43.1911872" lon="11.4692178"><ele>158.66666666666669</ele><time>2026-04-23T08:55:36.843Z</time></trkpt><trkpt lat="43.1912705" lon="11.4690593"><ele>157.0</ele><time>2026-04-23T08:55:37.847Z</time></trkpt><trkpt lat="43.191506" lon="11.4687812"><ele>157.66666666666669</ele><time>2026-04-23T08:55:39.846Z</time></trkpt><trkpt lat="43.1916583" lon="11.468644"><ele>158.33333333333334</ele><time>2026-04-23T08:55:40.851Z</time></trkpt><trkpt lat="43.1918242" lon="11.4684977"><ele>159.0</ele><time>2026-04-23T08:55:41.851Z</time></trkpt><trkpt lat="43.1919992" lon="11.4683356"><ele>159.0</ele><time>2026-04-23T08:55:42.839Z</time></trkpt><trkpt lat="43.1921862" lon="11.4681575"><ele>159.0</ele><time>2026-04-23T08:55:43.847Z</time></trkpt><trkpt lat="43.1923887" lon="11.4679677"><ele>157.5</ele><time>2026-04-23T08:55:44.844Z</time></trkpt><trkpt lat="43.1925986" lon="11.4677653"><ele>156.0</ele><time>2026-04-23T08:55:45.845Z</time></trkpt><trkpt lat="43.1927955" lon="11.4675721"><ele>156.0</ele><time>2026-04-23T08:55:46.841Z</time></trkpt><trkpt lat="43.19298" lon="11.4673945"><ele>156.0</ele><time>2026-04-23T08:55:47.85Z</time></trkpt><trkpt lat="43.1931539" lon="11.4672331"><ele>156.0</ele><time>2026-04-23T08:55:48.847Z</time></trkpt><trkpt lat="43.193318" lon="11.4670783"><ele>156.0</ele><time>2026-04-23T08:55:49.842Z</time></trkpt><trkpt lat="43.193479" lon="11.4669275"><ele>156.0</ele><time>2026-04-23T08:55:50.845Z</time></trkpt><trkpt lat="43.1936309" lon="11.4667878"><ele>156.0</ele><time>2026-04-23T08:55:51.846Z</time></trkpt><trkpt lat="43.1937781" lon="11.4666587"><ele>156.0</ele><time>2026-04-23T08:55:52.845Z</time></trkpt><trkpt lat="43.1939184" lon="11.4665341"><ele>156.0</ele><time>2026-04-23T08:55:53.846Z</time></trkpt><trkpt lat="43.1940527" lon="11.4664109"><ele>156.0</ele><time>2026-04-23T08:55:54.84Z</time></trkpt><trkpt lat="43.1941815" lon="11.466291"><ele>155.66666666666666</ele><time>2026-04-23T08:55:55.846Z</time></trkpt><trkpt lat="43.1943156" lon="11.4661596"><ele>155.33333333333331</ele><time>2026-04-23T08:55:56.846Z</time></trkpt><trkpt lat="43.1944533" lon="11.4660238"><ele>155.0</ele><time>2026-04-23T08:55:57.841Z</time></trkpt><trkpt lat="43.1945828" lon="11.4658962"><ele>155.0</ele><time>2026-04-23T08:55:58.841Z</time></trkpt><trkpt lat="43.1947839" lon="11.4657145"><ele>155.0</ele><time>2026-04-23T08:56:00.847Z</time></trkpt><trkpt lat="43.1948471" lon="11.4656708"><ele>155.0</ele><time>2026-04-23T08:56:01.843Z</time></trkpt><trkpt lat="43.194922" lon="11.4656984"><ele>155.0</ele><time>2026-04-23T08:56:03.845Z</time></trkpt><trkpt lat="43.1949853" lon="11.4658694"><ele>155.0</ele><time>2026-04-23T08:56:05.843Z</time></trkpt><trkpt lat="43.1950453" lon="11.4659995"><ele>155.0</ele><time>2026-04-23T08:56:06.852Z</time></trkpt><trkpt lat="43.1951304" lon="11.4661415"><ele>155.0</ele><time>2026-04-23T08:56:07.845Z</time></trkpt><trkpt lat="43.1952317" lon="11.4662891"><ele>155.0</ele><time>2026-04-23T08:56:08.849Z</time></trkpt><trkpt lat="43.1953096" lon="11.4664261"><ele>155.75</ele><time>2026-04-23T08:56:09.847Z</time></trkpt><trkpt lat="43.1953661" lon="11.466573"><ele>156.5</ele><time>2026-04-23T08:56:10.849Z</time></trkpt><trkpt lat="43.1954038" lon="11.4667489"><ele>157.25</ele><time>2026-04-23T08:56:11.848Z</time></trkpt><trkpt lat="43.1954368" lon="11.4669557"><ele>158.0</ele><time>2026-04-23T08:56:12.847Z</time></trkpt><trkpt lat="43.1954695" lon="11.4671599"><ele>158.4</ele><time>2026-04-23T08:56:13.854Z</time></trkpt><trkpt lat="43.1954983" lon="11.4673292"><ele>158.8</ele><time>2026-04-23T08:56:14.848Z</time></trkpt><trkpt lat="43.1955294" lon="11.4674519"><ele>159.2</ele><time>2026-04-23T08:56:15.848Z</time></trkpt><trkpt lat="43.1955735" lon="11.467545"><ele>159.6</ele><time>2026-04-23T08:56:16.849Z</time></trkpt><trkpt lat="43.1956374" lon="11.4676158"><ele>160.0</ele><time>2026-04-23T08:56:17.844Z</time></trkpt><trkpt lat="43.1957293" lon="11.4676609"><ele>161.66666666666669</ele><time>2026-04-23T08:56:18.845Z</time></trkpt><trkpt lat="43.1958401" lon="11.4676865"><ele>163.33333333333334</ele><time>2026-04-23T08:56:19.849Z</time></trkpt><trkpt lat="43.1960993" lon="11.4677859"><ele>165.0</ele><time>2026-04-23T08:56:21.844Z</time></trkpt><trkpt lat="43.1962262" lon="11.467878"><ele>165.5</ele><time>2026-04-23T08:56:22.85Z</time></trkpt><trkpt lat="43.1963373" lon="11.4680071"><ele>166.0</ele><time>2026-04-23T08:56:23.853Z</time></trkpt><trkpt lat="43.1964271" lon="11.4681634"><ele>166.5</ele><time>2026-04-23T08:56:24.846Z</time></trkpt><trkpt lat="43.1965039" lon="11.4683107"><ele>167.0</ele><time>2026-04-23T08:56:25.846Z</time></trkpt><trkpt lat="43.1965661" lon="11.4684498"><ele>168.6</ele><time>2026-04-23T08:56:26.845Z</time></trkpt><trkpt lat="43.1966091" lon="11.4685983"><ele>170.2</ele><time>2026-04-23T08:56:27.843Z</time></trkpt><trkpt lat="43.196633" lon="11.4687518"><ele>171.8</ele><time>2026-04-23T08:56:28.844Z</time></trkpt><trkpt lat="43.1966527" lon="11.4688948"><ele>173.4</ele><time>2026-04-23T08:56:29.849Z</time></trkpt><trkpt lat="43.1966845" lon="11.4690125"><ele>175.0</ele><time>2026-04-23T08:56:30.844Z</time></trkpt><trkpt lat="43.1967382" lon="11.4691115"><ele>176.5</ele><time>2026-04-23T08:56:31.845Z</time></trkpt><trkpt lat="43.1968087" lon="11.4692139"><ele>178.0</ele><time>2026-04-23T08:56:32.85Z</time></trkpt><trkpt lat="43.1968905" lon="11.4693286"><ele>179.5</ele><time>2026-04-23T08:56:33.848Z</time></trkpt><trkpt lat="43.19697" lon="11.469458"><ele>181.0</ele><time>2026-04-23T08:56:34.849Z</time></trkpt><trkpt lat="43.1970466" lon="11.469607"><ele>181.25</ele><time>2026-04-23T08:56:35.851Z</time></trkpt><trkpt lat="43.1971129" lon="11.4697644"><ele>181.5</ele><time>2026-04-23T08:56:36.848Z</time></trkpt><trkpt lat="43.197169" lon="11.4699164"><ele>181.75</ele><time>2026-04-23T08:56:37.848Z</time></trkpt><trkpt lat="43.1972198" lon="11.4700711"><ele>182.0</ele><time>2026-04-23T08:56:38.844Z</time></trkpt><trkpt lat="43.1972679" lon="11.4702272"><ele>182.0</ele><time>2026-04-23T08:56:39.848Z</time></trkpt><trkpt lat="43.1973116" lon="11.4703685"><ele>182.0</ele><time>2026-04-23T08:56:40.845Z</time></trkpt><trkpt lat="43.1974283" lon="11.4705671"><ele>182.0</ele><time>2026-04-23T08:56:42.849Z</time></trkpt><trkpt lat="43.1975246" lon="11.4706193"><ele>182.0</ele><time>2026-04-23T08:56:43.848Z</time></trkpt><trkpt lat="43.1976353" lon="11.470644"><ele>186.5</ele><time>2026-04-23T08:56:44.851Z</time></trkpt><trkpt lat="43.1977688" lon="11.4706508"><ele>191.0</ele><time>2026-04-23T08:56:45.841Z</time></trkpt><trkpt lat="43.1979167" lon="11.4706684"><ele>195.5</ele><time>2026-04-23T08:56:46.844Z</time></trkpt><trkpt lat="43.1980475" lon="11.4707167"><ele>200.0</ele><time>2026-04-23T08:56:47.84Z</time></trkpt><trkpt lat="43.1981643" lon="11.4708056"><ele>201.0</ele><time>2026-04-23T08:56:48.845Z</time></trkpt><trkpt lat="43.1982743" lon="11.4709334"><ele>202.0</ele><time>2026-04-23T08:56:49.843Z</time></trkpt><trkpt lat="43.1983599" lon="11.4710817"><ele>203.0</ele><time>2026-04-23T08:56:50.839Z</time></trkpt><trkpt lat="43.198424" lon="11.4712419"><ele>204.0</ele><time>2026-04-23T08:56:51.851Z</time></trkpt><trkpt lat="43.1984786" lon="11.4714094"><ele>205.5</ele><time>2026-04-23T08:56:52.845Z</time></trkpt><trkpt lat="43.1985215" lon="11.471579"><ele>207.0</ele><time>2026-04-23T08:56:53.849Z</time></trkpt><trkpt lat="43.1985423" lon="11.471744"><ele>208.5</ele><time>2026-04-23T08:56:54.848Z</time></trkpt><trkpt lat="43.1985495" lon="11.4719143"><ele>210.0</ele><time>2026-04-23T08:56:55.85Z</time></trkpt><trkpt lat="43.1985408" lon="11.4720987"><ele>210.75</ele><time>2026-04-23T08:56:56.848Z</time></trkpt><trkpt lat="43.1985176" lon="11.4723012"><ele>211.5</ele><time>2026-04-23T08:56:57.849Z</time></trkpt><trkpt lat="43.1984878" lon="11.4725094"><ele>212.25</ele><time>2026-04-23T08:56:58.847Z</time></trkpt><trkpt lat="43.1984697" lon="11.4727017"><ele>213.0</ele><time>2026-04-23T08:56:59.851Z</time></trkpt><trkpt lat="43.1984707" lon="11.4728717"><ele>213.25</ele><time>2026-04-23T08:57:00.85Z</time></trkpt><trkpt lat="43.1984931" lon="11.4730091"><ele>213.5</ele><time>2026-04-23T08:57:01.846Z</time></trkpt><trkpt lat="43.1985992" lon="11.4732266"><ele>213.75</ele><time>2026-04-23T08:57:03.845Z</time></trkpt><trkpt lat="43.1986866" lon="11.4733451"><ele>214.0</ele><time>2026-04-23T08:57:04.847Z</time></trkpt><trkpt lat="43.1987697" lon="11.4734783"><ele>214.0</ele><time>2026-04-23T08:57:05.849Z</time></trkpt><trkpt lat="43.1988343" lon="11.4736114"><ele>214.0</ele><time>2026-04-23T08:57:06.848Z</time></trkpt><trkpt lat="43.1988802" lon="11.473762"><ele>214.0</ele><time>2026-04-23T08:57:07.844Z</time></trkpt><trkpt lat="43.1988912" lon="11.473938"><ele>214.0</ele><time>2026-04-23T08:57:08.844Z</time></trkpt><trkpt lat="43.1988818" lon="11.4741217"><ele>211.75</ele><time>2026-04-23T08:57:09.85Z</time></trkpt><trkpt lat="43.1988862" lon="11.4742945"><ele>209.5</ele><time>2026-04-23T08:57:10.845Z</time></trkpt><trkpt lat="43.1989157" lon="11.4744532"><ele>207.25</ele><time>2026-04-23T08:57:11.849Z</time></trkpt><trkpt lat="43.1989684" lon="11.4745991"><ele>205.0</ele><time>2026-04-23T08:57:12.846Z</time></trkpt><trkpt lat="43.199034" lon="11.4747306"><ele>203.5</ele><time>2026-04-23T08:57:13.852Z</time></trkpt><trkpt lat="43.1991082" lon="11.4748594"><ele>202.0</ele><time>2026-04-23T08:57:14.844Z</time></trkpt><trkpt lat="43.199191" lon="11.475002"><ele>200.5</ele><time>2026-04-23T08:57:15.842Z</time></trkpt><trkpt lat="43.1992778" lon="11.4751587"><ele>199.0</ele><time>2026-04-23T08:57:16.849Z</time></trkpt><trkpt lat="43.1993605" lon="11.4753037"><ele>199.0</ele><time>2026-04-23T08:57:17.844Z</time></trkpt><trkpt lat="43.1994505" lon="11.4754369"><ele>199.0</ele><time>2026-04-23T08:57:18.848Z</time></trkpt><trkpt lat="43.1995545" lon="11.4755623"><ele>199.0</ele><time>2026-04-23T08:57:19.85Z</time></trkpt><trkpt lat="43.1996632" lon="11.4756673"><ele>199.0</ele><time>2026-04-23T08:57:20.844Z</time></trkpt><trkpt lat="43.199776" lon="11.4757522"><ele>201.33333333333331</ele><time>2026-04-23T08:57:21.839Z</time></trkpt><trkpt lat="43.1998988" lon="11.4758337"><ele>203.66666666666669</ele><time>2026-04-23T08:57:22.84Z</time></trkpt><trkpt lat="43.2001355" lon="11.4760458"><ele>206.0</ele><time>2026-04-23T08:57:24.843Z</time></trkpt><trkpt lat="43.2002478" lon="11.476173"><ele>203.0</ele><time>2026-04-23T08:57:25.843Z</time></trkpt><trkpt lat="43.2003696" lon="11.4763024"><ele>200.0</ele><time>2026-04-23T08:57:26.85Z</time></trkpt><trkpt lat="43.2004958" lon="11.476439"><ele>197.0</ele><time>2026-04-23T08:57:27.846Z</time></trkpt><trkpt lat="43.2006115" lon="11.4765781"><ele>201.33333333333334</ele><time>2026-04-23T08:57:28.843Z</time></trkpt><trkpt lat="43.2007162" lon="11.4767248"><ele>205.66666666666669</ele><time>2026-04-23T08:57:29.847Z</time></trkpt><trkpt lat="43.2008133" lon="11.4768945"><ele>210.0</ele><time>2026-04-23T08:57:30.847Z</time></trkpt><trkpt lat="43.2009085" lon="11.4770913"><ele>208.66666666666669</ele><time>2026-04-23T08:57:31.845Z</time></trkpt><trkpt lat="43.2010024" lon="11.4773197"><ele>207.33333333333334</ele><time>2026-04-23T08:57:32.844Z</time></trkpt><trkpt lat="43.2010952" lon="11.477569"><ele>206.0</ele><time>2026-04-23T08:57:33.852Z</time></trkpt><trkpt lat="43.2011842" lon="11.4778163"><ele>204.33333333333334</ele><time>2026-04-23T08:57:34.847Z</time></trkpt><trkpt lat="43.2012804" lon="11.4780665"><ele>202.66666666666669</ele><time>2026-04-23T08:57:35.85Z</time></trkpt><trkpt lat="43.201384" lon="11.4783196"><ele>201.0</ele><time>2026-04-23T08:57:36.846Z</time></trkpt><trkpt lat="43.2014787" lon="11.4785645"><ele>205.0</ele><time>2026-04-23T08:57:37.846Z</time></trkpt><trkpt lat="43.2015627" lon="11.4787944"><ele>209.0</ele><time>2026-04-23T08:57:38.849Z</time></trkpt><trkpt lat="43.2016362" lon="11.4790123"><ele>213.0</ele><time>2026-04-23T08:57:39.848Z</time></trkpt><trkpt lat="43.2016993" lon="11.4792226"><ele>213.0</ele><time>2026-04-23T08:57:40.849Z</time></trkpt><trkpt lat="43.2017551" lon="11.4794291"><ele>213.0</ele><time>2026-04-23T08:57:41.852Z</time></trkpt><trkpt lat="43.2018049" lon="11.479633"><ele>213.0</ele><time>2026-04-23T08:57:42.851Z</time></trkpt><trkpt lat="43.2018536" lon="11.4798387"><ele>212.5</ele><time>2026-04-23T08:57:43.853Z</time></trkpt><trkpt lat="43.2019892" lon="11.4802456"><ele>212.0</ele><time>2026-04-23T08:57:45.846Z</time></trkpt><trkpt lat="43.2020671" lon="11.4804382"><ele>211.0</ele><time>2026-04-23T08:57:46.845Z</time></trkpt><trkpt lat="43.2021383" lon="11.4806249"><ele>210.0</ele><time>2026-04-23T08:57:47.849Z</time></trkpt><trkpt lat="43.2022" lon="11.4808175"><ele>209.0</ele><time>2026-04-23T08:57:48.848Z</time></trkpt><trkpt lat="43.2022446" lon="11.4810313"><ele>210.66666666666669</ele><time>2026-04-23T08:57:49.848Z</time></trkpt><trkpt lat="43.2022765" lon="11.4812683"><ele>212.33333333333331</ele><time>2026-04-23T08:57:50.844Z</time></trkpt><trkpt lat="43.202302" lon="11.4815028"><ele>214.0</ele><time>2026-04-23T08:57:51.842Z</time></trkpt><trkpt lat="43.2023181" lon="11.4817115"><ele>214.0</ele><time>2026-04-23T08:57:52.846Z</time></trkpt><trkpt lat="43.2023176" lon="11.4819076"><ele>214.0</ele><time>2026-04-23T08:57:53.848Z</time></trkpt><trkpt lat="43.2022948" lon="11.482107"><ele>214.0</ele><time>2026-04-23T08:57:54.849Z</time></trkpt><trkpt lat="43.2022568" lon="11.4823059"><ele>214.0</ele><time>2026-04-23T08:57:55.842Z</time></trkpt><trkpt lat="43.2022198" lon="11.4824964"><ele>216.25</ele><time>2026-04-23T08:57:56.845Z</time></trkpt><trkpt lat="43.2021997" lon="11.4826845"><ele>218.5</ele><time>2026-04-23T08:57:57.848Z</time></trkpt><trkpt lat="43.2021976" lon="11.4828777"><ele>220.75</ele><time>2026-04-23T08:57:58.844Z</time></trkpt><trkpt lat="43.2021997" lon="11.4830529"><ele>223.0</ele><time>2026-04-23T08:57:59.849Z</time></trkpt><trkpt lat="43.2021859" lon="11.4831975"><ele>226.5</ele><time>2026-04-23T08:58:00.843Z</time></trkpt><trkpt lat="43.2021476" lon="11.4833304"><ele>230.0</ele><time>2026-04-23T08:58:01.847Z</time></trkpt><trkpt lat="43.2020846" lon="11.4834493"><ele>233.5</ele><time>2026-04-23T08:58:02.845Z</time></trkpt><trkpt lat="43.2019978" lon="11.4835716"><ele>237.0</ele><time>2026-04-23T08:58:03.851Z</time></trkpt><trkpt lat="43.2019037" lon="11.4837063"><ele>241.0</ele><time>2026-04-23T08:58:04.848Z</time></trkpt><trkpt lat="43.2017782" lon="11.4839406"><ele>245.0</ele><time>2026-04-23T08:58:06.843Z</time></trkpt><trkpt lat="43.2017587" lon="11.4840569"><ele>249.0</ele><time>2026-04-23T08:58:07.846Z</time></trkpt><trkpt lat="43.2017664" lon="11.4841686"><ele>253.0</ele><time>2026-04-23T08:58:08.85Z</time></trkpt><trkpt lat="43.2018115" lon="11.4842734"><ele>253.0</ele><time>2026-04-23T08:58:09.844Z</time></trkpt><trkpt lat="43.2018791" lon="11.4843782"><ele>253.0</ele><time>2026-04-23T08:58:10.845Z</time></trkpt><trkpt lat="43.2019463" lon="11.4844962"><ele>253.0</ele><time>2026-04-23T08:58:11.846Z</time></trkpt><trkpt lat="43.2020005" lon="11.4846215"><ele>253.0</ele><time>2026-04-23T08:58:12.843Z</time></trkpt><trkpt lat="43.2020422" lon="11.4847529"><ele>253.0</ele><time>2026-04-23T08:58:13.843Z</time></trkpt><trkpt lat="43.2020789" lon="11.4849023"><ele>253.25</ele><time>2026-04-23T08:58:14.855Z</time></trkpt><trkpt lat="43.202113" lon="11.4850862"><ele>253.5</ele><time>2026-04-23T08:58:15.848Z</time></trkpt><trkpt lat="43.2021436" lon="11.4852821"><ele>253.75</ele><time>2026-04-23T08:58:16.847Z</time></trkpt><trkpt lat="43.2021741" lon="11.4854662"><ele>254.0</ele><time>2026-04-23T08:58:17.846Z</time></trkpt><trkpt lat="43.2022062" lon="11.485633"><ele>254.0</ele><time>2026-04-23T08:58:18.852Z</time></trkpt><trkpt lat="43.2022387" lon="11.4857818"><ele>253.99999999999997</ele><time>2026-04-23T08:58:19.843Z</time></trkpt><trkpt lat="43.2022699" lon="11.4859178"><ele>253.99999999999997</ele><time>2026-04-23T08:58:20.849Z</time></trkpt><trkpt lat="43.2023126" lon="11.4860487"><ele>254.0</ele><time>2026-04-23T08:58:21.849Z</time></trkpt><trkpt lat="43.2023733" lon="11.486181"><ele>254.0</ele><time>2026-04-23T08:58:22.843Z</time></trkpt><trkpt lat="43.2024496" lon="11.4863119"><ele>252.0</ele><time>2026-04-23T08:58:23.852Z</time></trkpt><trkpt lat="43.202544" lon="11.4864468"><ele>250.0</ele><time>2026-04-23T08:58:24.851Z</time></trkpt><trkpt lat="43.2026669" lon="11.4865945"><ele>248.0</ele><time>2026-04-23T08:58:25.853Z</time></trkpt><trkpt lat="43.2029641" lon="11.4869272"><ele>248.0</ele><time>2026-04-23T08:58:27.841Z</time></trkpt><trkpt lat="43.2031032" lon="11.4870918"><ele>248.0</ele><time>2026-04-23T08:58:28.844Z</time></trkpt><trkpt lat="43.2032309" lon="11.4872516"><ele>248.0</ele><time>2026-04-23T08:58:29.846Z</time></trkpt><trkpt lat="43.2033475" lon="11.4873959"><ele>248.25</ele><time>2026-04-23T08:58:30.846Z</time></trkpt><trkpt lat="43.2034499" lon="11.4875215"><ele>248.5</ele><time>2026-04-23T08:58:31.852Z</time></trkpt><trkpt lat="43.2035387" lon="11.487628"><ele>248.75</ele><time>2026-04-23T08:58:32.845Z</time></trkpt><trkpt lat="43.2036158" lon="11.4877263"><ele>249.0</ele><time>2026-04-23T08:58:33.854Z</time></trkpt><trkpt lat="43.2036817" lon="11.487835"><ele>246.39999999999998</ele><time>2026-04-23T08:58:34.844Z</time></trkpt><trkpt lat="43.2037438" lon="11.4879576"><ele>243.79999999999998</ele><time>2026-04-23T08:58:35.846Z</time></trkpt><trkpt lat="43.2038041" lon="11.4880801"><ele>241.20000000000002</ele><time>2026-04-23T08:58:36.85Z</time></trkpt><trkpt lat="43.2038681" lon="11.4882014"><ele>238.60000000000002</ele><time>2026-04-23T08:58:37.846Z</time></trkpt><trkpt lat="43.2039325" lon="11.4883254"><ele>236.0</ele><time>2026-04-23T08:58:38.854Z</time></trkpt><trkpt lat="43.2039981" lon="11.4884533"><ele>239.0</ele><time>2026-04-23T08:58:39.85Z</time></trkpt><trkpt lat="43.2040694" lon="11.4885798"><ele>242.0</ele><time>2026-04-23T08:58:40.849Z</time></trkpt><trkpt lat="43.2041478" lon="11.4887032"><ele>245.0</ele><time>2026-04-23T08:58:41.842Z</time></trkpt><trkpt lat="43.2042349" lon="11.4888255"><ele>248.0</ele><time>2026-04-23T08:58:42.842Z</time></trkpt><trkpt lat="43.2043252" lon="11.4889449"><ele>248.0</ele><time>2026-04-23T08:58:43.849Z</time></trkpt><trkpt lat="43.2044109" lon="11.4890673"><ele>248.0</ele><time>2026-04-23T08:58:44.854Z</time></trkpt><trkpt lat="43.2044849" lon="11.4892013"><ele>248.0</ele><time>2026-04-23T08:58:45.843Z</time></trkpt><trkpt lat="43.2045472" lon="11.489353"><ele>248.0</ele><time>2026-04-23T08:58:46.843Z</time></trkpt><trkpt lat="43.2046535" lon="11.4896806"><ele>250.4</ele><time>2026-04-23T08:58:48.841Z</time></trkpt><trkpt lat="43.2046905" lon="11.4898311"><ele>252.8</ele><time>2026-04-23T08:58:49.841Z</time></trkpt><trkpt lat="43.204721" lon="11.4899562"><ele>255.2</ele><time>2026-04-23T08:58:50.844Z</time></trkpt><trkpt lat="43.2047502" lon="11.4900665"><ele>257.6</ele><time>2026-04-23T08:58:51.846Z</time></trkpt><trkpt lat="43.2047804" lon="11.4901625"><ele>260.0</ele><time>2026-04-23T08:58:52.849Z</time></trkpt><trkpt lat="43.2048371" lon="11.4902876"><ele>260.0</ele><time>2026-04-23T08:58:54.847Z</time></trkpt><trkpt lat="43.2048698" lon="11.490367"><ele>260.0</ele><time>2026-04-23T08:59:00.854Z</time></trkpt><trkpt lat="43.2047979" lon="11.490463"><ele>260.0</ele><time>2026-04-23T08:59:02.846Z</time></trkpt><trkpt lat="43.2047338" lon="11.4905491"><ele>260.0</ele><time>2026-04-23T08:59:03.847Z</time></trkpt><trkpt lat="43.2046541" lon="11.4906648"><ele>260.0</ele><time>2026-04-23T08:59:04.846Z</time></trkpt><trkpt lat="43.2045584" lon="11.4907968"><ele>253.66666666666669</ele><time>2026-04-23T08:59:05.847Z</time></trkpt><trkpt lat="43.2044535" lon="11.4909144"><ele>247.33333333333331</ele><time>2026-04-23T08:59:06.844Z</time></trkpt><trkpt lat="43.2043418" lon="11.4910128"><ele>241.0</ele><time>2026-04-23T08:59:07.848Z</time></trkpt><trkpt lat="43.2040883" lon="11.4911757"><ele>242.5</ele><time>2026-04-23T08:59:09.85Z</time></trkpt><trkpt lat="43.2039606" lon="11.491241"><ele>244.0</ele><time>2026-04-23T08:59:10.851Z</time></trkpt><trkpt lat="43.2038367" lon="11.4913004"><ele>245.5</ele><time>2026-04-23T08:59:11.844Z</time></trkpt><trkpt lat="43.2037256" lon="11.4913644"><ele>247.0</ele><time>2026-04-23T08:59:12.85Z</time></trkpt><trkpt lat="43.2036286" lon="11.4914391"><ele>247.0</ele><time>2026-04-23T08:59:13.855Z</time></trkpt><trkpt lat="43.203534" lon="11.4915166"><ele>247.0</ele><time>2026-04-23T08:59:14.853Z</time></trkpt><trkpt lat="43.203435" lon="11.491612"><ele>247.0</ele><time>2026-04-23T08:59:15.847Z</time></trkpt><trkpt lat="43.2033332" lon="11.4917216"><ele>247.0</ele><time>2026-04-23T08:59:16.846Z</time></trkpt><trkpt lat="43.2032347" lon="11.4918374"><ele>245.25</ele><time>2026-04-23T08:59:17.852Z</time></trkpt><trkpt lat="43.2031381" lon="11.4919464"><ele>243.5</ele><time>2026-04-23T08:59:18.844Z</time></trkpt><trkpt lat="43.2030356" lon="11.4920376"><ele>241.75</ele><time>2026-04-23T08:59:19.852Z</time></trkpt><trkpt lat="43.2029245" lon="11.4921135"><ele>240.0</ele><time>2026-04-23T08:59:20.854Z</time></trkpt><trkpt lat="43.2028072" lon="11.4921655"><ele>240.0</ele><time>2026-04-23T08:59:21.848Z</time></trkpt><trkpt lat="43.2026844" lon="11.4921961"><ele>240.0</ele><time>2026-04-23T08:59:22.847Z</time></trkpt><trkpt lat="43.2025562" lon="11.4922118"><ele>240.0</ele><time>2026-04-23T08:59:23.853Z</time></trkpt><trkpt lat="43.2024285" lon="11.4922231"><ele>240.0</ele><time>2026-04-23T08:59:24.847Z</time></trkpt><trkpt lat="43.2023013" lon="11.4922315"><ele>241.75</ele><time>2026-04-23T08:59:25.847Z</time></trkpt><trkpt lat="43.2021766" lon="11.4922476"><ele>243.5</ele><time>2026-04-23T08:59:26.851Z</time></trkpt><trkpt lat="43.2020546" lon="11.4922769"><ele>245.25</ele><time>2026-04-23T08:59:27.844Z</time></trkpt><trkpt lat="43.2019353" lon="11.4923102"><ele>247.0</ele><time>2026-04-23T08:59:28.844Z</time></trkpt><trkpt lat="43.2017065" lon="11.4923512"><ele>247.0</ele><time>2026-04-23T08:59:30.845Z</time></trkpt><trkpt lat="43.2015951" lon="11.4923581"><ele>247.0</ele><time>2026-04-23T08:59:31.847Z</time></trkpt><trkpt lat="43.201479" lon="11.4923694"><ele>247.0</ele><time>2026-04-23T08:59:32.85Z</time></trkpt><trkpt lat="43.2013687" lon="11.4923836"><ele>247.0</ele><time>2026-04-23T08:59:33.847Z</time></trkpt><trkpt lat="43.2012632" lon="11.4924001"><ele>247.0</ele><time>2026-04-23T08:59:34.847Z</time></trkpt><trkpt lat="43.2011546" lon="11.4924151"><ele>247.6</ele><time>2026-04-23T08:59:35.848Z</time></trkpt><trkpt lat="43.2010455" lon="11.4924301"><ele>248.2</ele><time>2026-04-23T08:59:36.848Z</time></trkpt><trkpt lat="43.2009414" lon="11.4924494"><ele>248.8</ele><time>2026-04-23T08:59:37.843Z</time></trkpt><trkpt lat="43.2008462" lon="11.4924771"><ele>249.4</ele><time>2026-04-23T08:59:38.845Z</time></trkpt><trkpt lat="43.200754" lon="11.4925176"><ele>250.0</ele><time>2026-04-23T08:59:39.852Z</time></trkpt><trkpt lat="43.2006569" lon="11.4925678"><ele>248.8</ele><time>2026-04-23T08:59:40.846Z</time></trkpt><trkpt lat="43.2005598" lon="11.4926222"><ele>247.6</ele><time>2026-04-23T08:59:41.846Z</time></trkpt><trkpt lat="43.200472" lon="11.4926732"><ele>246.39999999999998</ele><time>2026-04-23T08:59:42.849Z</time></trkpt><trkpt lat="43.2003933" lon="11.4927139"><ele>245.2</ele><time>2026-04-23T08:59:43.852Z</time></trkpt><trkpt lat="43.200325" lon="11.4927454"><ele>244.0</ele><time>2026-04-23T08:59:44.847Z</time></trkpt><trkpt lat="43.2002187" lon="11.4927707"><ele>244.0</ele><time>2026-04-23T08:59:46.848Z</time></trkpt><trkpt lat="43.2001403" lon="11.4927404"><ele>244.0</ele><time>2026-04-23T08:59:48.848Z</time></trkpt><trkpt lat="43.2000704" lon="11.4927021"><ele>244.0</ele><time>2026-04-23T08:59:49.841Z</time></trkpt><trkpt lat="43.1998454" lon="11.4925889"><ele>244.0</ele><time>2026-04-23T08:59:51.848Z</time></trkpt><trkpt lat="43.1997237" lon="11.4925268"><ele>245.6</ele><time>2026-04-23T08:59:52.842Z</time></trkpt><trkpt lat="43.1996044" lon="11.4924675"><ele>247.2</ele><time>2026-04-23T08:59:53.846Z</time></trkpt><trkpt lat="43.1994973" lon="11.4924178"><ele>248.79999999999998</ele><time>2026-04-23T08:59:54.851Z</time></trkpt><trkpt lat="43.1993998" lon="11.4923756"><ele>250.39999999999998</ele><time>2026-04-23T08:59:55.844Z</time></trkpt><trkpt lat="43.1993087" lon="11.4923384"><ele>252.0</ele><time>2026-04-23T08:59:56.845Z</time></trkpt><trkpt lat="43.199226" lon="11.4923064"><ele>252.0</ele><time>2026-04-23T08:59:57.846Z</time></trkpt><trkpt lat="43.1991608" lon="11.4922767"><ele>252.0</ele><time>2026-04-23T08:59:58.848Z</time></trkpt><trkpt lat="43.1990858" lon="11.4922196"><ele>252.0</ele><time>2026-04-23T09:00:00.851Z</time></trkpt><trkpt lat="43.1991592" lon="11.4922472"><ele>252.0</ele><time>2026-04-23T09:00:16.843Z</time></trkpt><trkpt lat="43.1993417" lon="11.492352"><ele>252.0</ele><time>2026-04-23T09:00:19.84Z</time></trkpt><trkpt lat="43.1994321" lon="11.4923914"><ele>252.0</ele><time>2026-04-23T09:00:20.851Z</time></trkpt><trkpt lat="43.1995244" lon="11.4924374"><ele>252.0</ele><time>2026-04-23T09:00:21.851Z</time></trkpt><trkpt lat="43.1996152" lon="11.4924843"><ele>252.0</ele><time>2026-04-23T09:00:22.851Z</time></trkpt><trkpt lat="43.1997142" lon="11.4925355"><ele>252.0</ele><time>2026-04-23T09:00:23.844Z</time></trkpt><trkpt lat="43.1998243" lon="11.4925894"><ele>252.0</ele><time>2026-04-23T09:00:24.845Z</time></trkpt><trkpt lat="43.1999371" lon="11.492643"><ele>250.39999999999998</ele><time>2026-04-23T09:00:25.85Z</time></trkpt><trkpt lat="43.2000422" lon="11.4926959"><ele>248.79999999999998</ele><time>2026-04-23T09:00:26.847Z</time></trkpt><trkpt lat="43.200129" lon="11.4927384"><ele>247.2</ele><time>2026-04-23T09:00:27.85Z</time></trkpt><trkpt lat="43.2001949" lon="11.492764"><ele>245.6</ele><time>2026-04-23T09:00:28.843Z</time></trkpt><trkpt lat="43.2002847" lon="11.49278"><ele>244.0</ele><time>2026-04-23T09:00:30.847Z</time></trkpt><trkpt lat="43.2004003" lon="11.4927154"><ele>244.0</ele><time>2026-04-23T09:00:32.844Z</time></trkpt><trkpt lat="43.2004871" lon="11.4926559"><ele>244.0</ele><time>2026-04-23T09:00:33.839Z</time></trkpt><trkpt lat="43.2005901" lon="11.4925907"><ele>244.0</ele><time>2026-04-23T09:00:34.845Z</time></trkpt><trkpt lat="43.2007087" lon="11.4925282"><ele>244.0</ele><time>2026-04-23T09:00:35.846Z</time></trkpt><trkpt lat="43.2008248" lon="11.4924714"><ele>246.0</ele><time>2026-04-23T09:00:36.847Z</time></trkpt><trkpt lat="43.2009339" lon="11.4924231"><ele>248.0</ele><time>2026-04-23T09:00:37.846Z</time></trkpt><trkpt lat="43.2011543" lon="11.4923644"><ele>250.0</ele><time>2026-04-23T09:00:39.846Z</time></trkpt><trkpt lat="43.2012966" lon="11.4923494"><ele>250.0</ele><time>2026-04-23T09:00:40.841Z</time></trkpt><trkpt lat="43.2014444" lon="11.4923376"><ele>250.0</ele><time>2026-04-23T09:00:41.849Z</time></trkpt><trkpt lat="43.2015798" lon="11.4923265"><ele>250.0</ele><time>2026-04-23T09:00:42.847Z</time></trkpt><trkpt lat="43.2017089" lon="11.4923223"><ele>250.0</ele><time>2026-04-23T09:00:43.847Z</time></trkpt><trkpt lat="43.2018223" lon="11.4923155"><ele>249.25</ele><time>2026-04-23T09:00:44.845Z</time></trkpt><trkpt lat="43.2019342" lon="11.4923048"><ele>248.5</ele><time>2026-04-23T09:00:45.844Z</time></trkpt><trkpt lat="43.2020505" lon="11.4922824"><ele>247.75</ele><time>2026-04-23T09:00:46.844Z</time></trkpt><trkpt lat="43.2021701" lon="11.4922519"><ele>247.0</ele><time>2026-04-23T09:00:47.851Z</time></trkpt><trkpt lat="43.2022931" lon="11.4922211"><ele>245.25</ele><time>2026-04-23T09:00:48.845Z</time></trkpt><trkpt lat="43.2024189" lon="11.4921993"><ele>243.5</ele><time>2026-04-23T09:00:49.848Z</time></trkpt><trkpt lat="43.2025444" lon="11.4921866"><ele>241.75</ele><time>2026-04-23T09:00:50.843Z</time></trkpt><trkpt lat="43.2026705" lon="11.4921691"><ele>240.0</ele><time>2026-04-23T09:00:51.85Z</time></trkpt><trkpt lat="43.2028033" lon="11.4921376"><ele>240.0</ele><time>2026-04-23T09:00:52.841Z</time></trkpt><trkpt lat="43.2029383" lon="11.4920921"><ele>240.0</ele><time>2026-04-23T09:00:53.844Z</time></trkpt><trkpt lat="43.203064" lon="11.492037"><ele>240.0</ele><time>2026-04-23T09:00:54.85Z</time></trkpt><trkpt lat="43.2031716" lon="11.4919728"><ele>240.0</ele><time>2026-04-23T09:00:55.851Z</time></trkpt><trkpt lat="43.2032671" lon="11.4918939"><ele>242.33333333333331</ele><time>2026-04-23T09:00:56.844Z</time></trkpt><trkpt lat="43.2033612" lon="11.4917873"><ele>244.66666666666666</ele><time>2026-04-23T09:00:57.847Z</time></trkpt><trkpt lat="43.2034588" lon="11.4916716"><ele>247.0</ele><time>2026-04-23T09:00:58.848Z</time></trkpt><trkpt lat="43.2036705" lon="11.4914462"><ele>247.0</ele><time>2026-04-23T09:01:00.844Z</time></trkpt><trkpt lat="43.2037687" lon="11.4913632"><ele>247.0</ele><time>2026-04-23T09:01:01.844Z</time></trkpt><trkpt lat="43.2038582" lon="11.4913013"><ele>247.0</ele><time>2026-04-23T09:01:02.844Z</time></trkpt><trkpt lat="43.2039543" lon="11.4912517"><ele>247.0</ele><time>2026-04-23T09:01:03.848Z</time></trkpt><trkpt lat="43.2040593" lon="11.4912035"><ele>247.0</ele><time>2026-04-23T09:01:04.84Z</time></trkpt><trkpt lat="43.2041669" lon="11.491155"><ele>245.5</ele><time>2026-04-23T09:01:05.841Z</time></trkpt><trkpt lat="43.2042814" lon="11.4910864"><ele>244.0</ele><time>2026-04-23T09:01:06.844Z</time></trkpt><trkpt lat="43.2043959" lon="11.4910054"><ele>242.5</ele><time>2026-04-23T09:01:07.842Z</time></trkpt><trkpt lat="43.2045012" lon="11.4909139"><ele>241.0</ele><time>2026-04-23T09:01:08.843Z</time></trkpt><trkpt lat="43.204595" lon="11.4908108"><ele>241.0</ele><time>2026-04-23T09:01:09.849Z</time></trkpt><trkpt lat="43.2046755" lon="11.4906989"><ele>241.00000000000003</ele><time>2026-04-23T09:01:10.843Z</time></trkpt><trkpt lat="43.2047455" lon="11.4905933"><ele>241.00000000000003</ele><time>2026-04-23T09:01:11.843Z</time></trkpt><trkpt lat="43.2048074" lon="11.4904976"><ele>241.0</ele><time>2026-04-23T09:01:12.848Z</time></trkpt><trkpt lat="43.2048635" lon="11.49042"><ele>241.0</ele><time>2026-04-23T09:01:13.85Z</time></trkpt><trkpt lat="43.2049484" lon="11.4903777"><ele>242.0</ele><time>2026-04-23T09:01:15.841Z</time></trkpt><trkpt lat="43.2050099" lon="11.4904866"><ele>243.0</ele><time>2026-04-23T09:01:17.844Z</time></trkpt><trkpt lat="43.2050707" lon="11.4905853"><ele>244.0</ele><time>2026-04-23T09:01:18.85Z</time></trkpt><trkpt lat="43.2051589" lon="11.4906991"><ele>245.0</ele><time>2026-04-23T09:01:19.846Z</time></trkpt><trkpt lat="43.2053726" lon="11.4908757"><ele>245.0</ele><time>2026-04-23T09:01:21.847Z</time></trkpt><trkpt lat="43.2054772" lon="11.4909174"><ele>245.0</ele><time>2026-04-23T09:01:22.844Z</time></trkpt><trkpt lat="43.205589" lon="11.4909315"><ele>245.0</ele><time>2026-04-23T09:01:23.852Z</time></trkpt><trkpt lat="43.2057063" lon="11.4909311"><ele>245.0</ele><time>2026-04-23T09:01:24.843Z</time></trkpt><trkpt lat="43.2058218" lon="11.490919"><ele>248.25</ele><time>2026-04-23T09:01:25.853Z</time></trkpt><trkpt lat="43.2059347" lon="11.4909012"><ele>251.5</ele><time>2026-04-23T09:01:26.844Z</time></trkpt><trkpt lat="43.2060451" lon="11.4908836"><ele>254.75</ele><time>2026-04-23T09:01:27.849Z</time></trkpt><trkpt lat="43.2061555" lon="11.4908751"><ele>258.0</ele><time>2026-04-23T09:01:28.843Z</time></trkpt><trkpt lat="43.2062724" lon="11.4908858"><ele>258.0</ele><time>2026-04-23T09:01:29.847Z</time></trkpt><trkpt lat="43.2063838" lon="11.4909155"><ele>258.0</ele><time>2026-04-23T09:01:30.849Z</time></trkpt><trkpt lat="43.2064779" lon="11.4909628"><ele>258.0</ele><time>2026-04-23T09:01:31.844Z</time></trkpt><trkpt lat="43.2065656" lon="11.4910357"><ele>258.0</ele><time>2026-04-23T09:01:32.848Z</time></trkpt><trkpt lat="43.2066449" lon="11.491127"><ele>258.0</ele><time>2026-04-23T09:01:33.844Z</time></trkpt><trkpt lat="43.2067206" lon="11.491247"><ele>256.75</ele><time>2026-04-23T09:01:34.849Z</time></trkpt><trkpt lat="43.206791" lon="11.4913951"><ele>255.5</ele><time>2026-04-23T09:01:35.85Z</time></trkpt><trkpt lat="43.2068497" lon="11.4915524"><ele>254.25</ele><time>2026-04-23T09:01:36.846Z</time></trkpt><trkpt lat="43.2069038" lon="11.4916994"><ele>253.0</ele><time>2026-04-23T09:01:37.841Z</time></trkpt><trkpt lat="43.206966" lon="11.491838"><ele>253.0</ele><time>2026-04-23T09:01:38.845Z</time></trkpt><trkpt lat="43.2070396" lon="11.491968"><ele>253.0</ele><time>2026-04-23T09:01:39.847Z</time></trkpt><trkpt lat="43.2071271" lon="11.492088"><ele>253.0</ele><time>2026-04-23T09:01:40.851Z</time></trkpt><trkpt lat="43.2073344" lon="11.4922932"><ele>251.75</ele><time>2026-04-23T09:01:42.848Z</time></trkpt><trkpt lat="43.2074441" lon="11.4923877"><ele>250.5</ele><time>2026-04-23T09:01:43.844Z</time></trkpt><trkpt lat="43.2075528" lon="11.492491"><ele>249.25</ele><time>2026-04-23T09:01:44.844Z</time></trkpt><trkpt lat="43.2076692" lon="11.4926083"><ele>248.0</ele><time>2026-04-23T09:01:45.852Z</time></trkpt><trkpt lat="43.2078025" lon="11.4927437"><ele>248.0</ele><time>2026-04-23T09:01:46.854Z</time></trkpt><trkpt lat="43.2079447" lon="11.4928908"><ele>248.0</ele><time>2026-04-23T09:01:47.848Z</time></trkpt><trkpt lat="43.2080783" lon="11.4930337"><ele>248.0</ele><time>2026-04-23T09:01:48.849Z</time></trkpt><trkpt lat="43.2082047" lon="11.4931671"><ele>248.66666666666669</ele><time>2026-04-23T09:01:49.847Z</time></trkpt><trkpt lat="43.2083339" lon="11.493292"><ele>249.33333333333331</ele><time>2026-04-23T09:01:50.852Z</time></trkpt><trkpt lat="43.2084679" lon="11.4934025"><ele>250.0</ele><time>2026-04-23T09:01:51.846Z</time></trkpt><trkpt lat="43.2085937" lon="11.4935065"><ele>250.0</ele><time>2026-04-23T09:01:52.851Z</time></trkpt><trkpt lat="43.2087079" lon="11.4936087"><ele>250.0</ele><time>2026-04-23T09:01:53.846Z</time></trkpt><trkpt lat="43.2088098" lon="11.4937263"><ele>250.0</ele><time>2026-04-23T09:01:54.846Z</time></trkpt><trkpt lat="43.2088972" lon="11.4938721"><ele>250.0</ele><time>2026-04-23T09:01:55.85Z</time></trkpt><trkpt lat="43.2089729" lon="11.4940449"><ele>253.0</ele><time>2026-04-23T09:01:56.849Z</time></trkpt><trkpt lat="43.2090423" lon="11.4942491"><ele>256.0</ele><time>2026-04-23T09:01:57.844Z</time></trkpt><trkpt lat="43.2091078" lon="11.494479"><ele>259.0</ele><time>2026-04-23T09:01:58.851Z</time></trkpt><trkpt lat="43.2091636" lon="11.4947192"><ele>259.66666666666663</ele><time>2026-04-23T09:01:59.849Z</time></trkpt><trkpt lat="43.2092042" lon="11.4949375"><ele>260.3333333333333</ele><time>2026-04-23T09:02:00.844Z</time></trkpt><trkpt lat="43.2092306" lon="11.4951279"><ele>261.0</ele><time>2026-04-23T09:02:01.849Z</time></trkpt><trkpt lat="43.2092607" lon="11.4954152"><ele>261.40000000000003</ele><time>2026-04-23T09:02:03.852Z</time></trkpt><trkpt lat="43.2092897" lon="11.4955265"><ele>261.8</ele><time>2026-04-23T09:02:04.85Z</time></trkpt><trkpt lat="43.2093308" lon="11.495632"><ele>262.20000000000005</ele><time>2026-04-23T09:02:05.851Z</time></trkpt><trkpt lat="43.2093762" lon="11.4957414"><ele>262.6</ele><time>2026-04-23T09:02:06.848Z</time></trkpt><trkpt lat="43.2094223" lon="11.4958652"><ele>263.0</ele><time>2026-04-23T09:02:07.849Z</time></trkpt><trkpt lat="43.2094633" lon="11.4959981"><ele>263.0</ele><time>2026-04-23T09:02:08.85Z</time></trkpt><trkpt lat="43.2095017" lon="11.4961327"><ele>263.0</ele><time>2026-04-23T09:02:09.843Z</time></trkpt><trkpt lat="43.2095392" lon="11.4962613"><ele>263.0</ele><time>2026-04-23T09:02:10.848Z</time></trkpt><trkpt lat="43.2095813" lon="11.4963843"><ele>263.0</ele><time>2026-04-23T09:02:11.848Z</time></trkpt><trkpt lat="43.2096376" lon="11.4965055"><ele>263.0</ele><time>2026-04-23T09:02:12.852Z</time></trkpt><trkpt lat="43.2097101" lon="11.4966201"><ele>263.5</ele><time>2026-04-23T09:02:13.845Z</time></trkpt><trkpt lat="43.209797" lon="11.4967235"><ele>264.0</ele><time>2026-04-23T09:02:14.852Z</time></trkpt><trkpt lat="43.20989" lon="11.496819"><ele>264.5</ele><time>2026-04-23T09:02:15.845Z</time></trkpt><trkpt lat="43.2099908" lon="11.4968939"><ele>265.0</ele><time>2026-04-23T09:02:16.854Z</time></trkpt><trkpt lat="43.2100927" lon="11.4969642"><ele>265.0</ele><time>2026-04-23T09:02:17.847Z</time></trkpt><trkpt lat="43.2101948" lon="11.4970332"><ele>265.0</ele><time>2026-04-23T09:02:18.847Z</time></trkpt><trkpt lat="43.2102945" lon="11.4970999"><ele>265.0</ele><time>2026-04-23T09:02:19.846Z</time></trkpt><trkpt lat="43.2103886" lon="11.497169"><ele>265.0</ele><time>2026-04-23T09:02:20.847Z</time></trkpt><trkpt lat="43.2104833" lon="11.4972387"><ele>265.0</ele><time>2026-04-23T09:02:21.844Z</time></trkpt><trkpt lat="43.2105771" lon="11.4973091"><ele>264.75</ele><time>2026-04-23T09:02:22.849Z</time></trkpt><trkpt lat="43.2107435" lon="11.4974746"><ele>264.5</ele><time>2026-04-23T09:02:24.849Z</time></trkpt><trkpt lat="43.2108036" lon="11.4975838"><ele>264.25</ele><time>2026-04-23T09:02:25.845Z</time></trkpt><trkpt lat="43.2108467" lon="11.4977114"><ele>264.0</ele><time>2026-04-23T09:02:26.849Z</time></trkpt><trkpt lat="43.210875" lon="11.497853"><ele>263.0</ele><time>2026-04-23T09:02:27.847Z</time></trkpt><trkpt lat="43.2108944" lon="11.4980043"><ele>262.0</ele><time>2026-04-23T09:02:28.844Z</time></trkpt><trkpt lat="43.2109121" lon="11.4981515"><ele>261.0</ele><time>2026-04-23T09:02:29.846Z</time></trkpt><trkpt lat="43.2109387" lon="11.4982826"><ele>260.0</ele><time>2026-04-23T09:02:30.848Z</time></trkpt><trkpt lat="43.2109799" lon="11.4984045"><ele>259.0</ele><time>2026-04-23T09:02:31.843Z</time></trkpt><trkpt lat="43.2110414" lon="11.498515"><ele>259.0</ele><time>2026-04-23T09:02:32.841Z</time></trkpt><trkpt lat="43.2111203" lon="11.4985965"><ele>259.0</ele><time>2026-04-23T09:02:33.848Z</time></trkpt><trkpt lat="43.2112095" lon="11.4986504"><ele>259.0</ele><time>2026-04-23T09:02:34.844Z</time></trkpt><trkpt lat="43.2113009" lon="11.4986805"><ele>259.0</ele><time>2026-04-23T09:02:35.843Z</time></trkpt><trkpt lat="43.2113929" lon="11.4986891"><ele>259.0</ele><time>2026-04-23T09:02:36.844Z</time></trkpt><trkpt lat="43.2114936" lon="11.4986776"><ele>257.5</ele><time>2026-04-23T09:02:37.841Z</time></trkpt><trkpt lat="43.2115977" lon="11.4986572"><ele>256.0</ele><time>2026-04-23T09:02:38.841Z</time></trkpt><trkpt lat="43.2116984" lon="11.4986338"><ele>254.5</ele><time>2026-04-23T09:02:39.848Z</time></trkpt><trkpt lat="43.2117902" lon="11.4986086"><ele>253.0</ele><time>2026-04-23T09:02:40.846Z</time></trkpt><trkpt lat="43.211869" lon="11.4985893"><ele>251.49999999999997</ele><time>2026-04-23T09:02:41.848Z</time></trkpt><trkpt lat="43.2119362" lon="11.4985907"><ele>250.0</ele><time>2026-04-23T09:02:42.844Z</time></trkpt><trkpt lat="43.2120005" lon="11.4986217"><ele>248.5</ele><time>2026-04-23T09:02:43.849Z</time></trkpt><trkpt lat="43.2121256" lon="11.4987992"><ele>247.0</ele><time>2026-04-23T09:02:45.85Z</time></trkpt><trkpt lat="43.2121774" lon="11.498924"><ele>245.5</ele><time>2026-04-23T09:02:46.852Z</time></trkpt><trkpt lat="43.2122057" lon="11.4990586"><ele>244.0</ele><time>2026-04-23T09:02:47.843Z</time></trkpt><trkpt lat="43.2122184" lon="11.4991964"><ele>244.0</ele><time>2026-04-23T09:02:48.847Z</time></trkpt><trkpt lat="43.2122065" lon="11.4993253"><ele>243.99999999999997</ele><time>2026-04-23T09:02:49.853Z</time></trkpt><trkpt lat="43.2121721" lon="11.4994417"><ele>243.99999999999997</ele><time>2026-04-23T09:02:50.851Z</time></trkpt><trkpt lat="43.2121162" lon="11.4995312"><ele>244.0</ele><time>2026-04-23T09:02:51.848Z</time></trkpt><trkpt lat="43.212043" lon="11.4995922"><ele>244.0</ele><time>2026-04-23T09:02:52.849Z</time></trkpt><trkpt lat="43.2119539" lon="11.4996323"><ele>241.39999999999998</ele><time>2026-04-23T09:02:53.85Z</time></trkpt><trkpt lat="43.2118622" lon="11.499661"><ele>238.79999999999998</ele><time>2026-04-23T09:02:54.847Z</time></trkpt><trkpt lat="43.2117702" lon="11.4996867"><ele>236.20000000000002</ele><time>2026-04-23T09:02:55.846Z</time></trkpt><trkpt lat="43.2116836" lon="11.4997252"><ele>233.60000000000002</ele><time>2026-04-23T09:02:56.848Z</time></trkpt><trkpt lat="43.2116074" lon="11.4997846"><ele>231.0</ele><time>2026-04-23T09:02:57.846Z</time></trkpt><trkpt lat="43.2115479" lon="11.4998787"><ele>231.0</ele><time>2026-04-23T09:02:58.849Z</time></trkpt><trkpt lat="43.2115086" lon="11.5000133"><ele>231.00000000000003</ele><time>2026-04-23T09:02:59.847Z</time></trkpt><trkpt lat="43.2114798" lon="11.5001613"><ele>231.00000000000003</ele><time>2026-04-23T09:03:00.849Z</time></trkpt><trkpt lat="43.2114603" lon="11.500319"><ele>231.0</ele><time>2026-04-23T09:03:01.846Z</time></trkpt><trkpt lat="43.2114388" lon="11.5004698"><ele>231.0</ele><time>2026-04-23T09:03:02.847Z</time></trkpt><trkpt lat="43.2114142" lon="11.5006107"><ele>228.0</ele><time>2026-04-23T09:03:03.848Z</time></trkpt><trkpt lat="43.2113844" lon="11.5007407"><ele>225.0</ele><time>2026-04-23T09:03:04.843Z</time></trkpt><trkpt lat="43.2112917" lon="11.5009669"><ele>222.0</ele><time>2026-04-23T09:03:06.847Z</time></trkpt><trkpt lat="43.2112256" lon="11.5010563"><ele>219.0</ele><time>2026-04-23T09:03:07.846Z</time></trkpt><trkpt lat="43.2111388" lon="11.5011161"><ele>219.0</ele><time>2026-04-23T09:03:08.85Z</time></trkpt><trkpt lat="43.2110379" lon="11.5011579"><ele>218.99999999999997</ele><time>2026-04-23T09:03:09.841Z</time></trkpt><trkpt lat="43.2109371" lon="11.5012114"><ele>218.99999999999997</ele><time>2026-04-23T09:03:10.844Z</time></trkpt><trkpt lat="43.2108408" lon="11.5012781"><ele>219.0</ele><time>2026-04-23T09:03:11.847Z</time></trkpt><trkpt lat="43.2107534" lon="11.5013509"><ele>219.0</ele><time>2026-04-23T09:03:12.844Z</time></trkpt><trkpt lat="43.2106752" lon="11.5014327"><ele>219.2</ele><time>2026-04-23T09:03:13.845Z</time></trkpt><trkpt lat="43.2106123" lon="11.5015318"><ele>219.39999999999998</ele><time>2026-04-23T09:03:14.851Z</time></trkpt><trkpt lat="43.2105646" lon="11.5016463"><ele>219.6</ele><time>2026-04-23T09:03:15.85Z</time></trkpt><trkpt lat="43.2105268" lon="11.5017693"><ele>219.8</ele><time>2026-04-23T09:03:16.85Z</time></trkpt><trkpt lat="43.21049" lon="11.5018969"><ele>220.0</ele><time>2026-04-23T09:03:17.856Z</time></trkpt><trkpt lat="43.2104553" lon="11.5020231"><ele>221.66666666666666</ele><time>2026-04-23T09:03:18.844Z</time></trkpt><trkpt lat="43.2104194" lon="11.5021375"><ele>223.33333333333331</ele><time>2026-04-23T09:03:19.842Z</time></trkpt><trkpt lat="43.2103778" lon="11.5022375"><ele>225.0</ele><time>2026-04-23T09:03:20.846Z</time></trkpt><trkpt lat="43.2103267" lon="11.502322"><ele>226.66666666666669</ele><time>2026-04-23T09:03:21.849Z</time></trkpt><trkpt lat="43.2102669" lon="11.502398"><ele>228.33333333333334</ele><time>2026-04-23T09:03:22.842Z</time></trkpt><trkpt lat="43.210197" lon="11.5024704"><ele>230.0</ele><time>2026-04-23T09:03:23.853Z</time></trkpt><trkpt lat="43.2101162" lon="11.5025455"><ele>230.0</ele><time>2026-04-23T09:03:24.846Z</time></trkpt><trkpt lat="43.2100302" lon="11.5026214"><ele>230.0</ele><time>2026-04-23T09:03:25.849Z</time></trkpt><trkpt lat="43.2098685" lon="11.502782"><ele>230.0</ele><time>2026-04-23T09:03:27.848Z</time></trkpt><trkpt lat="43.2097932" lon="11.5028623"><ele>230.0</ele><time>2026-04-23T09:03:28.849Z</time></trkpt><trkpt lat="43.2097167" lon="11.5029437"><ele>227.8</ele><time>2026-04-23T09:03:29.847Z</time></trkpt><trkpt lat="43.2096452" lon="11.5030248"><ele>225.6</ele><time>2026-04-23T09:03:30.851Z</time></trkpt><trkpt lat="43.2095753" lon="11.503104"><ele>223.39999999999998</ele><time>2026-04-23T09:03:31.845Z</time></trkpt><trkpt lat="43.2095049" lon="11.5031829"><ele>221.2</ele><time>2026-04-23T09:03:32.851Z</time></trkpt><trkpt lat="43.2094359" lon="11.5032618"><ele>219.0</ele><time>2026-04-23T09:03:33.85Z</time></trkpt><trkpt lat="43.2093636" lon="11.5033488"><ele>219.0</ele><time>2026-04-23T09:03:34.844Z</time></trkpt><trkpt lat="43.209287" lon="11.5034532"><ele>219.0</ele><time>2026-04-23T09:03:35.843Z</time></trkpt><trkpt lat="43.2092124" lon="11.5035728"><ele>219.0</ele><time>2026-04-23T09:03:36.85Z</time></trkpt><trkpt lat="43.2091423" lon="11.5037015"><ele>219.0</ele><time>2026-04-23T09:03:37.847Z</time></trkpt><trkpt lat="43.2090742" lon="11.5038303"><ele>216.79999999999998</ele><time>2026-04-23T09:03:38.851Z</time></trkpt><trkpt lat="43.2090084" lon="11.5039562"><ele>214.59999999999997</ele><time>2026-04-23T09:03:39.85Z</time></trkpt><trkpt lat="43.2089424" lon="11.5040752"><ele>212.4</ele><time>2026-04-23T09:03:40.849Z</time></trkpt><trkpt lat="43.2088748" lon="11.5041896"><ele>210.2</ele><time>2026-04-23T09:03:41.847Z</time></trkpt><trkpt lat="43.2088078" lon="11.5042931"><ele>208.0</ele><time>2026-04-23T09:03:42.85Z</time></trkpt><trkpt lat="43.2087435" lon="11.5043836"><ele>208.0</ele><time>2026-04-23T09:03:43.845Z</time></trkpt><trkpt lat="43.2086794" lon="11.5044591"><ele>208.0</ele><time>2026-04-23T09:03:44.848Z</time></trkpt><trkpt lat="43.2086066" lon="11.5045172"><ele>208.0</ele><time>2026-04-23T09:03:45.85Z</time></trkpt><trkpt lat="43.2085207" lon="11.5045566"><ele>208.0</ele><time>2026-04-23T09:03:46.849Z</time></trkpt><trkpt lat="43.2083203" lon="11.5045934"><ele>205.33333333333331</ele><time>2026-04-23T09:03:48.844Z</time></trkpt><trkpt lat="43.2082205" lon="11.5046015"><ele>202.66666666666666</ele><time>2026-04-23T09:03:49.846Z</time></trkpt><trkpt lat="43.2081314" lon="11.5046055"><ele>200.0</ele><time>2026-04-23T09:03:50.855Z</time></trkpt><trkpt lat="43.2080519" lon="11.5045977"><ele>197.33333333333331</ele><time>2026-04-23T09:03:51.849Z</time></trkpt><trkpt lat="43.2079818" lon="11.5045792"><ele>194.66666666666666</ele><time>2026-04-23T09:03:52.852Z</time></trkpt><trkpt lat="43.2079194" lon="11.5045543"><ele>192.0</ele><time>2026-04-23T09:03:53.858Z</time></trkpt><trkpt lat="43.2078197" lon="11.5045349"><ele>190.33333333333334</ele><time>2026-04-23T09:03:55.845Z</time></trkpt><trkpt lat="43.2077545" lon="11.5045987"><ele>188.66666666666666</ele><time>2026-04-23T09:03:57.855Z</time></trkpt><trkpt lat="43.2077822" lon="11.5047067"><ele>187.0</ele><time>2026-04-23T09:03:59.845Z</time></trkpt><trkpt lat="43.2078823" lon="11.504783"><ele>185.33333333333331</ele><time>2026-04-23T09:04:01.843Z</time></trkpt><trkpt lat="43.2079531" lon="11.5048114"><ele>183.66666666666666</ele><time>2026-04-23T09:04:02.844Z</time></trkpt><trkpt lat="43.2080394" lon="11.5048456"><ele>182.0</ele><time>2026-04-23T09:04:03.846Z</time></trkpt><trkpt lat="43.2081389" lon="11.5048992"><ele>184.5</ele><time>2026-04-23T09:04:04.846Z</time></trkpt><trkpt lat="43.2082444" lon="11.5049677"><ele>187.0</ele><time>2026-04-23T09:04:05.849Z</time></trkpt><trkpt lat="43.2083437" lon="11.5050236"><ele>189.5</ele><time>2026-04-23T09:04:06.842Z</time></trkpt><trkpt lat="43.208445" lon="11.505073"><ele>192.0</ele><time>2026-04-23T09:04:07.845Z</time></trkpt><trkpt lat="43.2086433" lon="11.5051298"><ele>191.99999999999997</ele><time>2026-04-23T09:04:09.856Z</time></trkpt><trkpt lat="43.2087363" lon="11.5051403"><ele>192.0</ele><time>2026-04-23T09:04:10.849Z</time></trkpt><trkpt lat="43.2088176" lon="11.5051488"><ele>192.0</ele><time>2026-04-23T09:04:11.846Z</time></trkpt><trkpt lat="43.2088857" lon="11.5051592"><ele>192.0</ele><time>2026-04-23T09:04:12.844Z</time></trkpt><trkpt lat="43.2089507" lon="11.5051654"><ele>192.0</ele><time>2026-04-23T09:04:13.849Z</time></trkpt><trkpt lat="43.209019" lon="11.5051629"><ele>191.99999999999997</ele><time>2026-04-23T09:04:14.85Z</time></trkpt><trkpt lat="43.2090848" lon="11.5051446"><ele>192.0</ele><time>2026-04-23T09:04:15.841Z</time></trkpt><trkpt lat="43.2091443" lon="11.505114"><ele>190.25</ele><time>2026-04-23T09:04:16.849Z</time></trkpt><trkpt lat="43.2092534" lon="11.5050413"><ele>188.5</ele><time>2026-04-23T09:04:18.851Z</time></trkpt><trkpt lat="43.2093524" lon="11.5049637"><ele>186.75</ele><time>2026-04-23T09:04:20.849Z</time></trkpt><trkpt lat="43.2094602" lon="11.5049045"><ele>185.0</ele><time>2026-04-23T09:04:22.848Z</time></trkpt><trkpt lat="43.2095772" lon="11.5048877"><ele>185.0</ele><time>2026-04-23T09:04:24.844Z</time></trkpt><trkpt lat="43.2096919" lon="11.5049292"><ele>185.0</ele><time>2026-04-23T09:04:26.843Z</time></trkpt><trkpt lat="43.209798" lon="11.5049907"><ele>185.0</ele><time>2026-04-23T09:04:28.847Z</time></trkpt><trkpt lat="43.2099758" lon="11.5051557"><ele>185.0</ele><time>2026-04-23T09:04:32.852Z</time></trkpt><trkpt lat="43.2100511" lon="11.50524"><ele>183.4</ele><time>2026-04-23T09:04:34.843Z</time></trkpt><trkpt lat="43.2101275" lon="11.5053104"><ele>181.8</ele><time>2026-04-23T09:04:36.845Z</time></trkpt><trkpt lat="43.210207" lon="11.505358"><ele>180.2</ele><time>2026-04-23T09:04:38.843Z</time></trkpt><trkpt lat="43.210305" lon="11.5053908"><ele>178.6</ele><time>2026-04-23T09:04:40.848Z</time></trkpt><trkpt lat="43.210413" lon="11.5054241"><ele>177.0</ele><time>2026-04-23T09:04:42.846Z</time></trkpt><trkpt lat="43.2104765" lon="11.5054382"><ele>176.39999999999998</ele><time>2026-04-23T09:04:43.846Z</time></trkpt><trkpt lat="43.2105413" lon="11.5054488"><ele>175.79999999999998</ele><time>2026-04-23T09:04:44.846Z</time></trkpt><trkpt lat="43.2106041" lon="11.5054551"><ele>175.2</ele><time>2026-04-23T09:04:45.845Z</time></trkpt><trkpt lat="43.2107238" lon="11.5054492"><ele>174.6</ele><time>2026-04-23T09:04:47.849Z</time></trkpt><trkpt lat="43.210848" lon="11.5054142"><ele>174.0</ele><time>2026-04-23T09:04:49.853Z</time></trkpt><trkpt lat="43.2109852" lon="11.5053622"><ele>174.0</ele><time>2026-04-23T09:04:51.847Z</time></trkpt><trkpt lat="43.2110545" lon="11.505344"><ele>174.0</ele><time>2026-04-23T09:04:52.845Z</time></trkpt><trkpt lat="43.211123" lon="11.5053368"><ele>174.0</ele><time>2026-04-23T09:04:53.845Z</time></trkpt><trkpt lat="43.2111888" lon="11.5053493"><ele>174.0</ele><time>2026-04-23T09:04:54.853Z</time></trkpt><trkpt lat="43.2112513" lon="11.5053862"><ele>174.0</ele><time>2026-04-23T09:04:55.848Z</time></trkpt><trkpt lat="43.2113076" lon="11.5054456"><ele>174.0</ele><time>2026-04-23T09:04:56.852Z</time></trkpt><trkpt lat="43.2113523" lon="11.5055232"><ele>174.0</ele><time>2026-04-23T09:04:57.841Z</time></trkpt><trkpt lat="43.211391" lon="11.5056141"><ele>172.5</ele><time>2026-04-23T09:04:58.854Z</time></trkpt><trkpt lat="43.2114247" lon="11.5057133"><ele>171.0</ele><time>2026-04-23T09:04:59.85Z</time></trkpt><trkpt lat="43.2114551" lon="11.5058181"><ele>169.5</ele><time>2026-04-23T09:05:00.851Z</time></trkpt><trkpt lat="43.2114842" lon="11.5059207"><ele>168.0</ele><time>2026-04-23T09:05:01.839Z</time></trkpt><trkpt lat="43.2115127" lon="11.5060213"><ele>166.5</ele><time>2026-04-23T09:05:02.847Z</time></trkpt><trkpt lat="43.2115412" lon="11.5061128"><ele>165.0</ele><time>2026-04-23T09:05:03.849Z</time></trkpt><trkpt lat="43.2115698" lon="11.5062028"><ele>165.00000000000003</ele><time>2026-04-23T09:05:04.845Z</time></trkpt><trkpt lat="43.2115974" lon="11.5062963"><ele>165.0</ele><time>2026-04-23T09:05:05.844Z</time></trkpt><trkpt lat="43.2116264" lon="11.5063896"><ele>165.0</ele><time>2026-04-23T09:05:06.847Z</time></trkpt><trkpt lat="43.2116542" lon="11.5064825"><ele>165.0</ele><time>2026-04-23T09:05:07.845Z</time></trkpt><trkpt lat="43.2116788" lon="11.5065742"><ele>165.0</ele><time>2026-04-23T09:05:08.849Z</time></trkpt><trkpt lat="43.2117036" lon="11.5066641"><ele>165.00000000000003</ele><time>2026-04-23T09:05:09.849Z</time></trkpt><trkpt lat="43.2117271" lon="11.5067532"><ele>165.0</ele><time>2026-04-23T09:05:10.852Z</time></trkpt><trkpt lat="43.2117766" lon="11.5069195"><ele>165.00000000000003</ele><time>2026-04-23T09:05:12.845Z</time></trkpt><trkpt lat="43.2118012" lon="11.5070013"><ele>165.0</ele><time>2026-04-23T09:05:13.854Z</time></trkpt><trkpt lat="43.2118248" lon="11.5070841"><ele>165.0</ele><time>2026-04-23T09:05:14.849Z</time></trkpt><trkpt lat="43.2118467" lon="11.5071679"><ele>165.0</ele><time>2026-04-23T09:05:15.853Z</time></trkpt><trkpt lat="43.2118696" lon="11.5072512"><ele>165.0</ele><time>2026-04-23T09:05:16.849Z</time></trkpt><trkpt lat="43.2118954" lon="11.507334"><ele>165.00000000000003</ele><time>2026-04-23T09:05:17.848Z</time></trkpt><trkpt lat="43.2119233" lon="11.5074176"><ele>165.0</ele><time>2026-04-23T09:05:18.847Z</time></trkpt><trkpt lat="43.2119526" lon="11.5074995"><ele>164.8</ele><time>2026-04-23T09:05:19.855Z</time></trkpt><trkpt lat="43.2120199" lon="11.5076304"><ele>164.6</ele><time>2026-04-23T09:05:21.847Z</time></trkpt><trkpt lat="43.2121006" lon="11.5077143"><ele>164.39999999999998</ele><time>2026-04-23T09:05:23.857Z</time></trkpt><trkpt lat="43.2121951" lon="11.5077728"><ele>164.2</ele><time>2026-04-23T09:05:25.843Z</time></trkpt><trkpt lat="43.2123034" lon="11.507827"><ele>164.0</ele><time>2026-04-23T09:05:27.848Z</time></trkpt><trkpt lat="43.2124099" lon="11.5078984"><ele>163.6</ele><time>2026-04-23T09:05:29.85Z</time></trkpt><trkpt lat="43.2125042" lon="11.5079861"><ele>163.2</ele><time>2026-04-23T09:05:31.85Z</time></trkpt><trkpt lat="43.2126213" lon="11.508176"><ele>162.79999999999998</ele><time>2026-04-23T09:05:34.851Z</time></trkpt><trkpt lat="43.2126547" lon="11.5082601"><ele>162.39999999999998</ele><time>2026-04-23T09:05:35.844Z</time></trkpt><trkpt lat="43.2126918" lon="11.5083457"><ele>162.0</ele><time>2026-04-23T09:05:36.849Z</time></trkpt><trkpt lat="43.2127285" lon="11.5084323"><ele>162.0</ele><time>2026-04-23T09:05:37.849Z</time></trkpt><trkpt lat="43.2127652" lon="11.5085185"><ele>162.0</ele><time>2026-04-23T09:05:38.848Z</time></trkpt><trkpt lat="43.2128027" lon="11.5086004"><ele>162.0</ele><time>2026-04-23T09:05:39.852Z</time></trkpt><trkpt lat="43.2128396" lon="11.5086828"><ele>162.0</ele><time>2026-04-23T09:05:40.853Z</time></trkpt><trkpt lat="43.2128773" lon="11.5087638"><ele>162.0</ele><time>2026-04-23T09:05:41.85Z</time></trkpt><trkpt lat="43.2129178" lon="11.5088438"><ele>162.0</ele><time>2026-04-23T09:05:42.848Z</time></trkpt><trkpt lat="43.2129577" lon="11.5089227"><ele>162.0</ele><time>2026-04-23T09:05:43.845Z</time></trkpt><trkpt lat="43.2129982" lon="11.5090042"><ele>161.83333333333334</ele><time>2026-04-23T09:05:44.852Z</time></trkpt><trkpt lat="43.2130375" lon="11.5090841"><ele>161.66666666666666</ele><time>2026-04-23T09:05:45.854Z</time></trkpt><trkpt lat="43.2130753" lon="11.5091649"><ele>161.5</ele><time>2026-04-23T09:05:46.839Z</time></trkpt><trkpt lat="43.2131115" lon="11.5092459"><ele>161.33333333333331</ele><time>2026-04-23T09:05:47.846Z</time></trkpt><trkpt lat="43.2131491" lon="11.5093294"><ele>161.16666666666666</ele><time>2026-04-23T09:05:48.846Z</time></trkpt><trkpt lat="43.2131921" lon="11.5094191"><ele>161.0</ele><time>2026-04-23T09:05:49.849Z</time></trkpt><trkpt lat="43.2132475" lon="11.5095178"><ele>161.5</ele><time>2026-04-23T09:05:50.852Z</time></trkpt><trkpt lat="43.213321" lon="11.5096191"><ele>162.0</ele><time>2026-04-23T09:05:51.849Z</time></trkpt><trkpt lat="43.2134081" lon="11.5097199"><ele>162.5</ele><time>2026-04-23T09:05:52.846Z</time></trkpt><trkpt lat="43.2135712" lon="11.5099032"><ele>163.0</ele><time>2026-04-23T09:05:54.852Z</time></trkpt><trkpt lat="43.2136365" lon="11.5099841"><ele>163.0</ele><time>2026-04-23T09:05:55.846Z</time></trkpt><trkpt lat="43.2137034" lon="11.5100655"><ele>163.0</ele><time>2026-04-23T09:05:56.853Z</time></trkpt><trkpt lat="43.213784" lon="11.5101732"><ele>163.0</ele><time>2026-04-23T09:05:57.85Z</time></trkpt><trkpt lat="43.2138845" lon="11.5103336"><ele>163.0</ele><time>2026-04-23T09:05:58.851Z</time></trkpt><trkpt lat="43.2139917" lon="11.5105267"><ele>163.33333333333334</ele><time>2026-04-23T09:05:59.852Z</time></trkpt><trkpt lat="43.2140924" lon="11.5107144"><ele>163.66666666666666</ele><time>2026-04-23T09:06:00.854Z</time></trkpt><trkpt lat="43.2141811" lon="11.5108816"><ele>164.0</ele><time>2026-04-23T09:06:01.844Z</time></trkpt><trkpt lat="43.2142509" lon="11.5110411"><ele>164.0</ele><time>2026-04-23T09:06:02.849Z</time></trkpt><trkpt lat="43.2142927" lon="11.5112038"><ele>164.0</ele><time>2026-04-23T09:06:03.851Z</time></trkpt><trkpt lat="43.2142935" lon="11.5113724"><ele>164.0</ele><time>2026-04-23T09:06:04.854Z</time></trkpt><trkpt lat="43.2142631" lon="11.5115457"><ele>164.0</ele><time>2026-04-23T09:06:05.847Z</time></trkpt><trkpt lat="43.2142237" lon="11.5117123"><ele>164.39999999999998</ele><time>2026-04-23T09:06:06.845Z</time></trkpt><trkpt lat="43.2142076" lon="11.5118525"><ele>164.8</ele><time>2026-04-23T09:06:07.845Z</time></trkpt><trkpt lat="43.2142195" lon="11.5119776"><ele>165.2</ele><time>2026-04-23T09:06:08.842Z</time></trkpt><trkpt lat="43.214259" lon="11.5120926"><ele>165.60000000000002</ele><time>2026-04-23T09:06:09.852Z</time></trkpt><trkpt lat="43.2143212" lon="11.5122034"><ele>166.0</ele><time>2026-04-23T09:06:10.847Z</time></trkpt><trkpt lat="43.214396" lon="11.5123098"><ele>166.66666666666669</ele><time>2026-04-23T09:06:11.847Z</time></trkpt><trkpt lat="43.2144811" lon="11.5124031"><ele>167.33333333333334</ele><time>2026-04-23T09:06:12.852Z</time></trkpt><trkpt lat="43.2145727" lon="11.5124897"><ele>168.0</ele><time>2026-04-23T09:06:13.846Z</time></trkpt><trkpt lat="43.2147879" lon="11.5126751"><ele>170.5</ele><time>2026-04-23T09:06:15.844Z</time></trkpt><trkpt lat="43.2149072" lon="11.5127866"><ele>173.0</ele><time>2026-04-23T09:06:16.846Z</time></trkpt><trkpt lat="43.2150269" lon="11.5129026"><ele>175.5</ele><time>2026-04-23T09:06:17.843Z</time></trkpt><trkpt lat="43.2151381" lon="11.5130209"><ele>178.0</ele><time>2026-04-23T09:06:18.845Z</time></trkpt><trkpt lat="43.2152355" lon="11.5131434"><ele>178.5</ele><time>2026-04-23T09:06:19.842Z</time></trkpt><trkpt lat="43.2153227" lon="11.5132688"><ele>179.0</ele><time>2026-04-23T09:06:20.844Z</time></trkpt><trkpt lat="43.2153939" lon="11.5134071"><ele>179.5</ele><time>2026-04-23T09:06:21.843Z</time></trkpt><trkpt lat="43.2154509" lon="11.5135558"><ele>180.0</ele><time>2026-04-23T09:06:22.844Z</time></trkpt><trkpt lat="43.2154925" lon="11.5137062"><ele>180.5</ele><time>2026-04-23T09:06:23.843Z</time></trkpt><trkpt lat="43.2155201" lon="11.5138603"><ele>181.0</ele><time>2026-04-23T09:06:24.841Z</time></trkpt><trkpt lat="43.2155427" lon="11.5140243"><ele>181.5</ele><time>2026-04-23T09:06:25.85Z</time></trkpt><trkpt lat="43.2155738" lon="11.5141809"><ele>182.0</ele><time>2026-04-23T09:06:26.847Z</time></trkpt><trkpt lat="43.2156206" lon="11.5143363"><ele>182.5</ele><time>2026-04-23T09:06:27.849Z</time></trkpt><trkpt lat="43.2156805" lon="11.5145005"><ele>183.0</ele><time>2026-04-23T09:06:28.848Z</time></trkpt><trkpt lat="43.2157428" lon="11.5146855"><ele>183.5</ele><time>2026-04-23T09:06:29.847Z</time></trkpt><trkpt lat="43.2158107" lon="11.5148947"><ele>184.0</ele><time>2026-04-23T09:06:30.848Z</time></trkpt><trkpt lat="43.2158866" lon="11.515123"><ele>180.66666666666669</ele><time>2026-04-23T09:06:31.85Z</time></trkpt><trkpt lat="43.2159658" lon="11.5153484"><ele>177.33333333333334</ele><time>2026-04-23T09:06:32.85Z</time></trkpt><trkpt lat="43.2160518" lon="11.5155691"><ele>174.0</ele><time>2026-04-23T09:06:33.846Z</time></trkpt><trkpt lat="43.2161545" lon="11.5158058"><ele>171.5</ele><time>2026-04-23T09:06:34.849Z</time></trkpt><trkpt lat="43.2164057" lon="11.5163007"><ele>169.0</ele><time>2026-04-23T09:06:36.853Z</time></trkpt><trkpt lat="43.2165432" lon="11.5165647"><ele>169.0</ele><time>2026-04-23T09:06:37.848Z</time></trkpt><trkpt lat="43.2166812" lon="11.5168428"><ele>169.0</ele><time>2026-04-23T09:06:38.846Z</time></trkpt><trkpt lat="43.2168066" lon="11.5171173"><ele>169.33333333333334</ele><time>2026-04-23T09:06:39.851Z</time></trkpt><trkpt lat="43.2169169" lon="11.517381"><ele>169.66666666666666</ele><time>2026-04-23T09:06:40.847Z</time></trkpt><trkpt lat="43.2170172" lon="11.5176299"><ele>170.0</ele><time>2026-04-23T09:06:41.853Z</time></trkpt><trkpt lat="43.2171116" lon="11.5178699"><ele>169.66666666666666</ele><time>2026-04-23T09:06:42.85Z</time></trkpt><trkpt lat="43.217198" lon="11.5180963"><ele>169.33333333333334</ele><time>2026-04-23T09:06:43.85Z</time></trkpt><trkpt lat="43.217277" lon="11.5183044"><ele>169.0</ele><time>2026-04-23T09:06:44.847Z</time></trkpt><trkpt lat="43.2173496" lon="11.518506"><ele>170.66666666666669</ele><time>2026-04-23T09:06:45.845Z</time></trkpt><trkpt lat="43.2174105" lon="11.5187107"><ele>172.33333333333334</ele><time>2026-04-23T09:06:46.851Z</time></trkpt><trkpt lat="43.2174557" lon="11.5189174"><ele>174.0</ele><time>2026-04-23T09:06:47.853Z</time></trkpt><trkpt lat="43.2174843" lon="11.5191221"><ele>174.0</ele><time>2026-04-23T09:06:48.854Z</time></trkpt><trkpt lat="43.2174896" lon="11.5193354"><ele>174.0</ele><time>2026-04-23T09:06:49.855Z</time></trkpt><trkpt lat="43.2174683" lon="11.5195681"><ele>174.0</ele><time>2026-04-23T09:06:50.853Z</time></trkpt><trkpt lat="43.2174449" lon="11.5198244"><ele>176.0</ele><time>2026-04-23T09:06:51.852Z</time></trkpt><trkpt lat="43.2174286" lon="11.5200999"><ele>178.0</ele><time>2026-04-23T09:06:52.851Z</time></trkpt><trkpt lat="43.2174185" lon="11.5203538"><ele>180.0</ele><time>2026-04-23T09:06:53.854Z</time></trkpt><trkpt lat="43.2174116" lon="11.5205633"><ele>181.25</ele><time>2026-04-23T09:06:54.852Z</time></trkpt><trkpt lat="43.2174111" lon="11.5207283"><ele>182.5</ele><time>2026-04-23T09:06:55.847Z</time></trkpt><trkpt lat="43.217452" lon="11.5209551"><ele>183.75</ele><time>2026-04-23T09:06:57.85Z</time></trkpt><trkpt lat="43.2174913" lon="11.5210556"><ele>185.0</ele><time>2026-04-23T09:06:58.847Z</time></trkpt><trkpt lat="43.2175477" lon="11.5211541"><ele>183.5</ele><time>2026-04-23T09:06:59.85Z</time></trkpt><trkpt lat="43.2176164" lon="11.5212547"><ele>182.0</ele><time>2026-04-23T09:07:00.849Z</time></trkpt><trkpt lat="43.2176984" lon="11.5213462"><ele>180.5</ele><time>2026-04-23T09:07:01.847Z</time></trkpt><trkpt lat="43.2177973" lon="11.5214232"><ele>179.0</ele><time>2026-04-23T09:07:02.844Z</time></trkpt><trkpt lat="43.2179165" lon="11.521495"><ele>179.0</ele><time>2026-04-23T09:07:03.858Z</time></trkpt><trkpt lat="43.2180357" lon="11.5215732"><ele>179.0</ele><time>2026-04-23T09:07:04.846Z</time></trkpt><trkpt lat="43.2181353" lon="11.5216654"><ele>179.0</ele><time>2026-04-23T09:07:05.846Z</time></trkpt><trkpt lat="43.2181997" lon="11.5217686"><ele>179.0</ele><time>2026-04-23T09:07:06.852Z</time></trkpt><trkpt lat="43.2182239" lon="11.521895"><ele>179.0</ele><time>2026-04-23T09:07:07.846Z</time></trkpt><trkpt lat="43.218227" lon="11.522053"><ele>179.25</ele><time>2026-04-23T09:07:08.846Z</time></trkpt><trkpt lat="43.2182264" lon="11.5222301"><ele>179.5</ele><time>2026-04-23T09:07:09.85Z</time></trkpt><trkpt lat="43.2182466" lon="11.5224053"><ele>179.75</ele><time>2026-04-23T09:07:10.847Z</time></trkpt><trkpt lat="43.2182936" lon="11.5225972"><ele>180.0</ele><time>2026-04-23T09:07:11.851Z</time></trkpt><trkpt lat="43.2183558" lon="11.5227995"><ele>177.33333333333334</ele><time>2026-04-23T09:07:12.842Z</time></trkpt><trkpt lat="43.2184236" lon="11.5229987"><ele>174.66666666666669</ele><time>2026-04-23T09:07:13.86Z</time></trkpt><trkpt lat="43.2185022" lon="11.5231914"><ele>172.0</ele><time>2026-04-23T09:07:14.845Z</time></trkpt><trkpt lat="43.2185861" lon="11.5233729"><ele>172.0</ele><time>2026-04-23T09:07:15.851Z</time></trkpt><trkpt lat="43.2186773" lon="11.5235447"><ele>172.0</ele><time>2026-04-23T09:07:16.848Z</time></trkpt><trkpt lat="43.218889" lon="11.5238911"><ele>172.0</ele><time>2026-04-23T09:07:18.845Z</time></trkpt><trkpt lat="43.2190032" lon="11.5240873"><ele>172.0</ele><time>2026-04-23T09:07:19.851Z</time></trkpt><trkpt lat="43.2191264" lon="11.5242932"><ele>172.0</ele><time>2026-04-23T09:07:20.854Z</time></trkpt><trkpt lat="43.2192468" lon="11.5244944"><ele>170.33333333333334</ele><time>2026-04-23T09:07:21.851Z</time></trkpt><trkpt lat="43.2193567" lon="11.5246742"><ele>168.66666666666666</ele><time>2026-04-23T09:07:22.846Z</time></trkpt><trkpt lat="43.219457" lon="11.5248313"><ele>167.0</ele><time>2026-04-23T09:07:23.849Z</time></trkpt><trkpt lat="43.219553" lon="11.5249565"><ele>167.0</ele><time>2026-04-23T09:07:24.856Z</time></trkpt><trkpt lat="43.2196448" lon="11.5250347"><ele>167.0</ele><time>2026-04-23T09:07:25.846Z</time></trkpt><trkpt lat="43.2197391" lon="11.5250614"><ele>167.0</ele><time>2026-04-23T09:07:26.84Z</time></trkpt><trkpt lat="43.2198412" lon="11.525053"><ele>167.0</ele><time>2026-04-23T09:07:27.845Z</time></trkpt><trkpt lat="43.2199491" lon="11.525014"><ele>167.0</ele><time>2026-04-23T09:07:28.854Z</time></trkpt><trkpt lat="43.2200686" lon="11.5249609"><ele>168.5</ele><time>2026-04-23T09:07:29.848Z</time></trkpt><trkpt lat="43.220198" lon="11.524896"><ele>170.0</ele><time>2026-04-23T09:07:30.846Z</time></trkpt><trkpt lat="43.2203306" lon="11.5248406"><ele>171.5</ele><time>2026-04-23T09:07:31.85Z</time></trkpt><trkpt lat="43.2204593" lon="11.52482"><ele>173.0</ele><time>2026-04-23T09:07:32.848Z</time></trkpt><trkpt lat="43.2205798" lon="11.5248639"><ele>174.25</ele><time>2026-04-23T09:07:33.853Z</time></trkpt><trkpt lat="43.2206986" lon="11.5249592"><ele>175.5</ele><time>2026-04-23T09:07:34.851Z</time></trkpt><trkpt lat="43.2208146" lon="11.525073"><ele>176.75</ele><time>2026-04-23T09:07:35.846Z</time></trkpt><trkpt lat="43.2209388" lon="11.5251727"><ele>178.0</ele><time>2026-04-23T09:07:36.842Z</time></trkpt><trkpt lat="43.2210824" lon="11.5252391"><ele>178.0</ele><time>2026-04-23T09:07:37.846Z</time></trkpt><trkpt lat="43.2214183" lon="11.5253137"><ele>178.0</ele><time>2026-04-23T09:07:39.849Z</time></trkpt><trkpt lat="43.2216127" lon="11.5253407"><ele>180.0</ele><time>2026-04-23T09:07:40.853Z</time></trkpt><trkpt lat="43.2218091" lon="11.5253684"><ele>182.0</ele><time>2026-04-23T09:07:41.85Z</time></trkpt><trkpt lat="43.2219975" lon="11.5253981"><ele>184.0</ele><time>2026-04-23T09:07:42.849Z</time></trkpt><trkpt lat="43.222181" lon="11.5254302"><ele>179.0</ele><time>2026-04-23T09:07:43.849Z</time></trkpt><trkpt lat="43.2223503" lon="11.5254509"><ele>174.0</ele><time>2026-04-23T09:07:44.847Z</time></trkpt><trkpt lat="43.2224977" lon="11.525463"><ele>169.0</ele><time>2026-04-23T09:07:45.849Z</time></trkpt><trkpt lat="43.2226317" lon="11.5254758"><ele>169.0</ele><time>2026-04-23T09:07:46.845Z</time></trkpt><trkpt lat="43.2227497" lon="11.5255049"><ele>169.0</ele><time>2026-04-23T09:07:47.852Z</time></trkpt><trkpt lat="43.2228529" lon="11.5255729"><ele>169.0</ele><time>2026-04-23T09:07:48.85Z</time></trkpt><trkpt lat="43.2229475" lon="11.5256745"><ele>169.0</ele><time>2026-04-23T09:07:49.848Z</time></trkpt><trkpt lat="43.2230389" lon="11.5257934"><ele>169.0</ele><time>2026-04-23T09:07:50.853Z</time></trkpt><trkpt lat="43.2231278" lon="11.5258959"><ele>169.0</ele><time>2026-04-23T09:07:51.85Z</time></trkpt><trkpt lat="43.2232141" lon="11.5259643"><ele>169.0</ele><time>2026-04-23T09:07:52.854Z</time></trkpt><trkpt lat="43.2233032" lon="11.5259946"><ele>169.0</ele><time>2026-04-23T09:07:53.855Z</time></trkpt><trkpt lat="43.223403" lon="11.5260006"><ele>169.0</ele><time>2026-04-23T09:07:54.848Z</time></trkpt><trkpt lat="43.2235177" lon="11.5259898"><ele>171.33333333333334</ele><time>2026-04-23T09:07:55.85Z</time></trkpt><trkpt lat="43.2236576" lon="11.5259768"><ele>173.66666666666666</ele><time>2026-04-23T09:07:56.848Z</time></trkpt><trkpt lat="43.2238201" lon="11.5259677"><ele>176.0</ele><time>2026-04-23T09:07:57.849Z</time></trkpt><trkpt lat="43.2239925" lon="11.5259476"><ele>176.5</ele><time>2026-04-23T09:07:58.849Z</time></trkpt><trkpt lat="43.2243367" lon="11.5259127"><ele>177.0</ele><time>2026-04-23T09:08:00.857Z</time></trkpt><trkpt lat="43.2245142" lon="11.5259306"><ele>177.0</ele><time>2026-04-23T09:08:01.849Z</time></trkpt><trkpt lat="43.224696" lon="11.5259783"><ele>177.0</ele><time>2026-04-23T09:08:02.854Z</time></trkpt><trkpt lat="43.2248848" lon="11.5260351"><ele>177.0</ele><time>2026-04-23T09:08:03.843Z</time></trkpt><trkpt lat="43.225084" lon="11.5260941"><ele>176.33333333333334</ele><time>2026-04-23T09:08:04.851Z</time></trkpt><trkpt lat="43.2252946" lon="11.5261565"><ele>175.66666666666669</ele><time>2026-04-23T09:08:05.851Z</time></trkpt><trkpt lat="43.2254985" lon="11.526222"><ele>175.0</ele><time>2026-04-23T09:08:06.845Z</time></trkpt><trkpt lat="43.2256847" lon="11.5262901"><ele>175.0</ele><time>2026-04-23T09:08:07.85Z</time></trkpt><trkpt lat="43.2258392" lon="11.526352"><ele>175.0</ele><time>2026-04-23T09:08:08.857Z</time></trkpt><trkpt lat="43.2259672" lon="11.5263974"><ele>175.0</ele><time>2026-04-23T09:08:09.847Z</time></trkpt><trkpt lat="43.2260876" lon="11.5264238"><ele>175.0</ele><time>2026-04-23T09:08:10.845Z</time></trkpt><trkpt lat="43.2262161" lon="11.5264287"><ele>175.0</ele><time>2026-04-23T09:08:11.843Z</time></trkpt><trkpt lat="43.2263622" lon="11.5264202"><ele>175.0</ele><time>2026-04-23T09:08:12.851Z</time></trkpt><trkpt lat="43.2265147" lon="11.5264043"><ele>175.0</ele><time>2026-04-23T09:08:13.853Z</time></trkpt><trkpt lat="43.2266585" lon="11.5263844"><ele>175.0</ele><time>2026-04-23T09:08:14.853Z</time></trkpt><trkpt lat="43.2267995" lon="11.5263697"><ele>175.5</ele><time>2026-04-23T09:08:15.852Z</time></trkpt><trkpt lat="43.2269336" lon="11.5263614"><ele>176.0</ele><time>2026-04-23T09:08:16.85Z</time></trkpt><trkpt lat="43.2270615" lon="11.5263578"><ele>176.5</ele><time>2026-04-23T09:08:17.85Z</time></trkpt><trkpt lat="43.2271812" lon="11.5263712"><ele>177.0</ele><time>2026-04-23T09:08:18.852Z</time></trkpt><trkpt lat="43.2272861" lon="11.5264228"><ele>175.66666666666666</ele><time>2026-04-23T09:08:19.853Z</time></trkpt><trkpt lat="43.2274805" lon="11.5266285"><ele>174.33333333333331</ele><time>2026-04-23T09:08:21.843Z</time></trkpt><trkpt lat="43.227593" lon="11.5267688"><ele>173.0</ele><time>2026-04-23T09:08:22.847Z</time></trkpt><trkpt lat="43.2277166" lon="11.5269109"><ele>173.0</ele><time>2026-04-23T09:08:23.849Z</time></trkpt><trkpt lat="43.2278456" lon="11.5270395"><ele>173.0</ele><time>2026-04-23T09:08:24.855Z</time></trkpt><trkpt lat="43.2279808" lon="11.5271562"><ele>173.0</ele><time>2026-04-23T09:08:25.845Z</time></trkpt><trkpt lat="43.2281296" lon="11.5272622"><ele>171.33333333333331</ele><time>2026-04-23T09:08:26.844Z</time></trkpt><trkpt lat="43.228292" lon="11.5273473"><ele>169.66666666666666</ele><time>2026-04-23T09:08:27.844Z</time></trkpt><trkpt lat="43.2284567" lon="11.527414"><ele>168.0</ele><time>2026-04-23T09:08:28.848Z</time></trkpt><trkpt lat="43.2286092" lon="11.5274795"><ele>168.0</ele><time>2026-04-23T09:08:29.844Z</time></trkpt><trkpt lat="43.2287455" lon="11.5275622"><ele>168.0</ele><time>2026-04-23T09:08:30.846Z</time></trkpt><trkpt lat="43.2288759" lon="11.5276765"><ele>168.0</ele><time>2026-04-23T09:08:31.849Z</time></trkpt><trkpt lat="43.2290027" lon="11.5278307"><ele>170.0</ele><time>2026-04-23T09:08:32.848Z</time></trkpt><trkpt lat="43.2291372" lon="11.5280126"><ele>172.0</ele><time>2026-04-23T09:08:33.859Z</time></trkpt><trkpt lat="43.2292786" lon="11.5282001"><ele>174.0</ele><time>2026-04-23T09:08:34.852Z</time></trkpt><trkpt lat="43.2294123" lon="11.5283842"><ele>174.0</ele><time>2026-04-23T09:08:35.848Z</time></trkpt><trkpt lat="43.2295325" lon="11.5285399"><ele>174.0</ele><time>2026-04-23T09:08:36.843Z</time></trkpt><trkpt lat="43.2296386" lon="11.5286604"><ele>174.0</ele><time>2026-04-23T09:08:37.845Z</time></trkpt><trkpt lat="43.2297245" lon="11.5287444"><ele>174.0</ele><time>2026-04-23T09:08:38.848Z</time></trkpt><trkpt lat="43.2297877" lon="11.528797"><ele>174.5</ele><time>2026-04-23T09:08:39.848Z</time></trkpt><trkpt lat="43.2298627" lon="11.5288219"><ele>175.0</ele><time>2026-04-23T09:08:41.848Z</time></trkpt><trkpt lat="43.2300004" lon="11.5289193"><ele>175.5</ele><time>2026-04-23T09:08:44.851Z</time></trkpt><trkpt lat="43.2300896" lon="11.5290387"><ele>176.0</ele><time>2026-04-23T09:08:45.848Z</time></trkpt><trkpt lat="43.2301996" lon="11.5291923"><ele>176.0</ele><time>2026-04-23T09:08:46.855Z</time></trkpt><trkpt lat="43.2303229" lon="11.5293635"><ele>176.0</ele><time>2026-04-23T09:08:47.844Z</time></trkpt><trkpt lat="43.2304584" lon="11.5295448"><ele>176.0</ele><time>2026-04-23T09:08:48.85Z</time></trkpt><trkpt lat="43.230602" lon="11.5297361"><ele>174.66666666666666</ele><time>2026-04-23T09:08:49.851Z</time></trkpt><trkpt lat="43.2307489" lon="11.5299372"><ele>173.33333333333334</ele><time>2026-04-23T09:08:50.853Z</time></trkpt><trkpt lat="43.230889" lon="11.530134"><ele>172.0</ele><time>2026-04-23T09:08:51.851Z</time></trkpt><trkpt lat="43.2310247" lon="11.5303227"><ele>171.0</ele><time>2026-04-23T09:08:52.842Z</time></trkpt><trkpt lat="43.231152" lon="11.530503"><ele>170.0</ele><time>2026-04-23T09:08:53.853Z</time></trkpt><trkpt lat="43.231266" lon="11.5306873"><ele>169.0</ele><time>2026-04-23T09:08:54.843Z</time></trkpt><trkpt lat="43.2313608" lon="11.5308962"><ele>169.0</ele><time>2026-04-23T09:08:55.85Z</time></trkpt><trkpt lat="43.2314355" lon="11.5311286"><ele>169.0</ele><time>2026-04-23T09:08:56.85Z</time></trkpt><trkpt lat="43.2314969" lon="11.5313816"><ele>169.0</ele><time>2026-04-23T09:08:57.845Z</time></trkpt><trkpt lat="43.2315515" lon="11.5316634"><ele>169.33333333333334</ele><time>2026-04-23T09:08:58.853Z</time></trkpt><trkpt lat="43.2316006" lon="11.531945"><ele>169.66666666666666</ele><time>2026-04-23T09:08:59.85Z</time></trkpt><trkpt lat="43.2316485" lon="11.5322386"><ele>170.0</ele><time>2026-04-23T09:09:00.852Z</time></trkpt><trkpt lat="43.2317014" lon="11.5325296"><ele>170.0</ele><time>2026-04-23T09:09:01.846Z</time></trkpt><trkpt lat="43.2317638" lon="11.532815"><ele>170.0</ele><time>2026-04-23T09:09:02.849Z</time></trkpt><trkpt lat="43.2318806" lon="11.5333865"><ele>170.0</ele><time>2026-04-23T09:09:04.847Z</time></trkpt><trkpt lat="43.2319355" lon="11.533654"><ele>170.0</ele><time>2026-04-23T09:09:05.851Z</time></trkpt><trkpt lat="43.2319949" lon="11.5338949"><ele>170.0</ele><time>2026-04-23T09:09:06.853Z</time></trkpt><trkpt lat="43.2320899" lon="11.5341123"><ele>170.0</ele><time>2026-04-23T09:09:07.85Z</time></trkpt><trkpt lat="43.2322341" lon="11.5343014"><ele>170.0</ele><time>2026-04-23T09:09:08.85Z</time></trkpt><trkpt lat="43.2324138" lon="11.5344625"><ele>170.0</ele><time>2026-04-23T09:09:09.848Z</time></trkpt><trkpt lat="43.2326053" lon="11.5346085"><ele>170.0</ele><time>2026-04-23T09:09:10.847Z</time></trkpt><trkpt lat="43.232801" lon="11.5347572"><ele>170.0</ele><time>2026-04-23T09:09:11.847Z</time></trkpt><trkpt lat="43.2329994" lon="11.5349078"><ele>171.33333333333331</ele><time>2026-04-23T09:09:12.849Z</time></trkpt><trkpt lat="43.2331973" lon="11.5350557"><ele>172.66666666666666</ele><time>2026-04-23T09:09:13.853Z</time></trkpt><trkpt lat="43.2333884" lon="11.5352081"><ele>174.0</ele><time>2026-04-23T09:09:14.85Z</time></trkpt><trkpt lat="43.2335677" lon="11.5353776"><ele>174.0</ele><time>2026-04-23T09:09:15.844Z</time></trkpt><trkpt lat="43.2337202" lon="11.5355823"><ele>174.0</ele><time>2026-04-23T09:09:16.848Z</time></trkpt><trkpt lat="43.23385" lon="11.5358223"><ele>174.0</ele><time>2026-04-23T09:09:17.854Z</time></trkpt><trkpt lat="43.2339788" lon="11.5360832"><ele>173.0</ele><time>2026-04-23T09:09:18.85Z</time></trkpt><trkpt lat="43.2341127" lon="11.5363546"><ele>172.0</ele><time>2026-04-23T09:09:19.85Z</time></trkpt><trkpt lat="43.2342512" lon="11.5366206"><ele>172.0</ele><time>2026-04-23T09:09:20.854Z</time></trkpt><trkpt lat="43.2343894" lon="11.5368882"><ele>172.0</ele><time>2026-04-23T09:09:21.849Z</time></trkpt><trkpt lat="43.234529" lon="11.5371534"><ele>172.0</ele><time>2026-04-23T09:09:22.852Z</time></trkpt><trkpt lat="43.2346707" lon="11.5374175"><ele>172.0</ele><time>2026-04-23T09:09:23.856Z</time></trkpt><trkpt lat="43.2349521" lon="11.5379434"><ele>173.0</ele><time>2026-04-23T09:09:25.85Z</time></trkpt><trkpt lat="43.2350941" lon="11.5382046"><ele>174.0</ele><time>2026-04-23T09:09:26.849Z</time></trkpt><trkpt lat="43.23524" lon="11.5384634"><ele>173.5</ele><time>2026-04-23T09:09:27.85Z</time></trkpt><trkpt lat="43.2353836" lon="11.5387244"><ele>173.0</ele><time>2026-04-23T09:09:28.845Z</time></trkpt><trkpt lat="43.2355238" lon="11.5389836"><ele>173.66666666666666</ele><time>2026-04-23T09:09:29.841Z</time></trkpt><trkpt lat="43.2356565" lon="11.5392325"><ele>174.33333333333334</ele><time>2026-04-23T09:09:30.849Z</time></trkpt><trkpt lat="43.2357758" lon="11.5394707"><ele>175.0</ele><time>2026-04-23T09:09:31.849Z</time></trkpt><trkpt lat="43.2358752" lon="11.5397076"><ele>175.0</ele><time>2026-04-23T09:09:32.851Z</time></trkpt><trkpt lat="43.2359361" lon="11.5399532"><ele>175.0</ele><time>2026-04-23T09:09:33.854Z</time></trkpt><trkpt lat="43.235947" lon="11.5402164"><ele>175.0</ele><time>2026-04-23T09:09:34.849Z</time></trkpt><trkpt lat="43.2359216" lon="11.5405061"><ele>175.0</ele><time>2026-04-23T09:09:35.845Z</time></trkpt><trkpt lat="43.2358914" lon="11.5408159"><ele>175.0</ele><time>2026-04-23T09:09:36.845Z</time></trkpt><trkpt lat="43.2358695" lon="11.5411394"><ele>177.0</ele><time>2026-04-23T09:09:37.845Z</time></trkpt><trkpt lat="43.2358518" lon="11.5414621"><ele>179.0</ele><time>2026-04-23T09:09:38.848Z</time></trkpt><trkpt lat="43.2358344" lon="11.5417875"><ele>179.0</ele><time>2026-04-23T09:09:39.85Z</time></trkpt><trkpt lat="43.2358175" lon="11.542117"><ele>179.0</ele><time>2026-04-23T09:09:40.845Z</time></trkpt><trkpt lat="43.2358033" lon="11.5424379"><ele>179.0</ele><time>2026-04-23T09:09:41.849Z</time></trkpt><trkpt lat="43.2357918" lon="11.5427207"><ele>179.0</ele><time>2026-04-23T09:09:42.846Z</time></trkpt><trkpt lat="43.2357797" lon="11.5429664"><ele>179.0</ele><time>2026-04-23T09:09:43.851Z</time></trkpt><trkpt lat="43.2357676" lon="11.5432114"><ele>178.5</ele><time>2026-04-23T09:09:44.852Z</time></trkpt><trkpt lat="43.2357338" lon="11.5436996"><ele>178.0</ele><time>2026-04-23T09:09:46.845Z</time></trkpt><trkpt lat="43.2357169" lon="11.5439464"><ele>177.66666666666669</ele><time>2026-04-23T09:09:47.853Z</time></trkpt><trkpt lat="43.2357036" lon="11.5441969"><ele>177.33333333333334</ele><time>2026-04-23T09:09:48.845Z</time></trkpt><trkpt lat="43.2356971" lon="11.544454"><ele>177.0</ele><time>2026-04-23T09:09:49.844Z</time></trkpt><trkpt lat="43.2356975" lon="11.5447128"><ele>176.66666666666666</ele><time>2026-04-23T09:09:50.843Z</time></trkpt><trkpt lat="43.2357153" lon="11.5449726"><ele>176.33333333333331</ele><time>2026-04-23T09:09:51.855Z</time></trkpt><trkpt lat="43.2357561" lon="11.545229"><ele>176.0</ele><time>2026-04-23T09:09:52.851Z</time></trkpt><trkpt lat="43.2358216" lon="11.5454785"><ele>176.0</ele><time>2026-04-23T09:09:53.844Z</time></trkpt><trkpt lat="43.2359046" lon="11.5457204"><ele>176.0</ele><time>2026-04-23T09:09:54.849Z</time></trkpt><trkpt lat="43.2359952" lon="11.5459605"><ele>176.0</ele><time>2026-04-23T09:09:55.849Z</time></trkpt><trkpt lat="43.2360943" lon="11.5461953"><ele>176.66666666666666</ele><time>2026-04-23T09:09:56.843Z</time></trkpt><trkpt lat="43.2362145" lon="11.5464185"><ele>177.33333333333334</ele><time>2026-04-23T09:09:57.853Z</time></trkpt><trkpt lat="43.2363476" lon="11.5466325"><ele>178.0</ele><time>2026-04-23T09:09:58.846Z</time></trkpt><trkpt lat="43.2364859" lon="11.5468389"><ele>178.0</ele><time>2026-04-23T09:09:59.853Z</time></trkpt><trkpt lat="43.2366299" lon="11.5470384"><ele>178.0</ele><time>2026-04-23T09:10:00.848Z</time></trkpt><trkpt lat="43.2367851" lon="11.5472246"><ele>178.0</ele><time>2026-04-23T09:10:01.85Z</time></trkpt><trkpt lat="43.2369468" lon="11.5474032"><ele>177.33333333333334</ele><time>2026-04-23T09:10:02.847Z</time></trkpt><trkpt lat="43.2371089" lon="11.5475861"><ele>176.66666666666666</ele><time>2026-04-23T09:10:03.854Z</time></trkpt><trkpt lat="43.2372694" lon="11.5477711"><ele>176.0</ele><time>2026-04-23T09:10:04.846Z</time></trkpt><trkpt lat="43.2374343" lon="11.5479519"><ele>176.0</ele><time>2026-04-23T09:10:05.845Z</time></trkpt><trkpt lat="43.2377777" lon="11.5483393"><ele>176.0</ele><time>2026-04-23T09:10:07.845Z</time></trkpt><trkpt lat="43.2379585" lon="11.5485348"><ele>176.0</ele><time>2026-04-23T09:10:08.848Z</time></trkpt><trkpt lat="43.2381483" lon="11.5487172"><ele>176.0</ele><time>2026-04-23T09:10:09.849Z</time></trkpt><trkpt lat="43.2383421" lon="11.5488822"><ele>176.0</ele><time>2026-04-23T09:10:10.847Z</time></trkpt><trkpt lat="43.2385331" lon="11.5490386"><ele>176.0</ele><time>2026-04-23T09:10:11.843Z</time></trkpt><trkpt lat="43.2387217" lon="11.5491902"><ele>176.0</ele><time>2026-04-23T09:10:12.852Z</time></trkpt><trkpt lat="43.2389108" lon="11.5493375"><ele>175.66666666666666</ele><time>2026-04-23T09:10:13.852Z</time></trkpt><trkpt lat="43.2391006" lon="11.5494861"><ele>175.33333333333334</ele><time>2026-04-23T09:10:14.854Z</time></trkpt><trkpt lat="43.2392822" lon="11.5496522"><ele>175.0</ele><time>2026-04-23T09:10:15.853Z</time></trkpt><trkpt lat="43.2394541" lon="11.5498379"><ele>175.0</ele><time>2026-04-23T09:10:16.845Z</time></trkpt><trkpt lat="43.2396163" lon="11.5500377"><ele>175.0</ele><time>2026-04-23T09:10:17.845Z</time></trkpt><trkpt lat="43.2397712" lon="11.5502451"><ele>175.0</ele><time>2026-04-23T09:10:18.844Z</time></trkpt><trkpt lat="43.2399217" lon="11.5504593"><ele>174.33333333333334</ele><time>2026-04-23T09:10:19.848Z</time></trkpt><trkpt lat="43.2400725" lon="11.5506749"><ele>173.66666666666666</ele><time>2026-04-23T09:10:20.844Z</time></trkpt><trkpt lat="43.2402251" lon="11.5508879"><ele>173.0</ele><time>2026-04-23T09:10:21.848Z</time></trkpt><trkpt lat="43.2403773" lon="11.5510961"><ele>172.33333333333331</ele><time>2026-04-23T09:10:22.847Z</time></trkpt><trkpt lat="43.2405234" lon="11.5512967"><ele>171.66666666666666</ele><time>2026-04-23T09:10:23.849Z</time></trkpt><trkpt lat="43.2406561" lon="11.5514793"><ele>171.0</ele><time>2026-04-23T09:10:24.844Z</time></trkpt><trkpt lat="43.2407696" lon="11.5516412"><ele>173.66666666666666</ele><time>2026-04-23T09:10:25.845Z</time></trkpt><trkpt lat="43.2408521" lon="11.5517938"><ele>176.33333333333331</ele><time>2026-04-23T09:10:26.85Z</time></trkpt><trkpt lat="43.2408225" lon="11.5520886"><ele>179.0</ele><time>2026-04-23T09:10:28.851Z</time></trkpt><trkpt lat="43.2407495" lon="11.5522218"><ele>179.2</ele><time>2026-04-23T09:10:29.851Z</time></trkpt><trkpt lat="43.2406835" lon="11.5523364"><ele>179.39999999999998</ele><time>2026-04-23T09:10:30.854Z</time></trkpt><trkpt lat="43.2406295" lon="11.5524311"><ele>179.6</ele><time>2026-04-23T09:10:31.845Z</time></trkpt><trkpt lat="43.2405764" lon="11.5525393"><ele>179.8</ele><time>2026-04-23T09:10:33.849Z</time></trkpt><trkpt lat="43.2405088" lon="11.5526641"><ele>180.0</ele><time>2026-04-23T09:10:39.849Z</time></trkpt><trkpt lat="43.2404688" lon="11.5527448"><ele>178.83333333333334</ele><time>2026-04-23T09:10:40.855Z</time></trkpt><trkpt lat="43.2404337" lon="11.5528283"><ele>177.66666666666666</ele><time>2026-04-23T09:10:41.845Z</time></trkpt><trkpt lat="43.2403976" lon="11.5528993"><ele>176.5</ele><time>2026-04-23T09:10:42.848Z</time></trkpt><trkpt lat="43.2403259" lon="11.553008"><ele>175.33333333333331</ele><time>2026-04-23T09:10:44.851Z</time></trkpt><trkpt lat="43.2402767" lon="11.5530807"><ele>174.16666666666666</ele><time>2026-04-23T09:10:46.849Z</time></trkpt><trkpt lat="43.2403535" lon="11.5531208"><ele>173.0</ele><time>2026-04-23T09:10:49.842Z</time></trkpt><trkpt lat="43.2405133" lon="11.5531763"><ele>173.0</ele><time>2026-04-23T09:10:53.852Z</time></trkpt><trkpt lat="43.2405555" lon="11.5530971"><ele>173.0</ele><time>2026-04-23T09:10:57.845Z</time></trkpt><trkpt lat="43.2404723" lon="11.5530293"><ele>173.0</ele><time>2026-04-23T09:11:00.847Z</time></trkpt><trkpt lat="43.2403971" lon="11.5530243"><ele>173.0</ele><time>2026-04-23T09:11:02.853Z</time></trkpt><trkpt lat="43.2403241" lon="11.5530466"><ele>173.0</ele><time>2026-04-23T09:11:05.85Z</time></trkpt><trkpt lat="43.2402696" lon="11.5530929"><ele>173.0</ele><time>2026-04-23T09:11:06.843Z</time></trkpt><trkpt lat="43.2402041" lon="11.5531751"><ele>173.0</ele><time>2026-04-23T09:11:07.851Z</time></trkpt><trkpt lat="43.2401358" lon="11.5532924"><ele>173.0</ele><time>2026-04-23T09:11:08.848Z</time></trkpt><trkpt lat="43.240062" lon="11.5534329"><ele>173.0</ele><time>2026-04-23T09:11:09.845Z</time></trkpt><trkpt lat="43.2399814" lon="11.5535846"><ele>173.0</ele><time>2026-04-23T09:11:10.85Z</time></trkpt><trkpt lat="43.239815" lon="11.5538339"><ele>173.0</ele><time>2026-04-23T09:11:12.846Z</time></trkpt><trkpt lat="43.2397315" lon="11.5539491"><ele>173.0</ele><time>2026-04-23T09:11:13.846Z</time></trkpt><trkpt lat="43.2396396" lon="11.5540815"><ele>173.0</ele><time>2026-04-23T09:11:14.851Z</time></trkpt><trkpt lat="43.2395396" lon="11.5542325"><ele>173.0</ele><time>2026-04-23T09:11:15.847Z</time></trkpt><trkpt lat="43.2394328" lon="11.55438"><ele>173.0</ele><time>2026-04-23T09:11:16.847Z</time></trkpt><trkpt lat="43.2393141" lon="11.554513"><ele>173.0</ele><time>2026-04-23T09:11:17.844Z</time></trkpt><trkpt lat="43.2391824" lon="11.554607"><ele>173.0</ele><time>2026-04-23T09:11:18.847Z</time></trkpt><trkpt lat="43.2390526" lon="11.5546418"><ele>173.0</ele><time>2026-04-23T09:11:19.852Z</time></trkpt><trkpt lat="43.2389331" lon="11.5546252"><ele>173.83333333333331</ele><time>2026-04-23T09:11:20.847Z</time></trkpt><trkpt lat="43.2388266" lon="11.5546138"><ele>174.66666666666666</ele><time>2026-04-23T09:11:21.847Z</time></trkpt><trkpt lat="43.2387427" lon="11.5546469"><ele>175.5</ele><time>2026-04-23T09:11:22.845Z</time></trkpt><trkpt lat="43.2386914" lon="11.5547143"><ele>176.33333333333334</ele><time>2026-04-23T09:11:23.848Z</time></trkpt><trkpt lat="43.2386593" lon="11.5548035"><ele>177.16666666666669</ele><time>2026-04-23T09:11:24.843Z</time></trkpt><trkpt lat="43.2386199" lon="11.554898"><ele>178.0</ele><time>2026-04-23T09:11:25.844Z</time></trkpt><trkpt lat="43.2385479" lon="11.5549794"><ele>178.0</ele><time>2026-04-23T09:11:26.845Z</time></trkpt><trkpt lat="43.2384395" lon="11.5550543"><ele>178.0</ele><time>2026-04-23T09:11:27.854Z</time></trkpt><trkpt lat="43.2383022" lon="11.5551272"><ele>178.0</ele><time>2026-04-23T09:11:28.848Z</time></trkpt><trkpt lat="43.2381592" lon="11.555201"><ele>178.0</ele><time>2026-04-23T09:11:29.85Z</time></trkpt><trkpt lat="43.2380318" lon="11.5552683"><ele>177.5</ele><time>2026-04-23T09:11:30.854Z</time></trkpt><trkpt lat="43.2379198" lon="11.5553314"><ele>177.0</ele><time>2026-04-23T09:11:31.859Z</time></trkpt><trkpt lat="43.2377394" lon="11.5554557"><ele>176.5</ele><time>2026-04-23T09:11:33.845Z</time></trkpt><trkpt lat="43.2376575" lon="11.555531"><ele>176.0</ele><time>2026-04-23T09:11:34.852Z</time></trkpt><trkpt lat="43.2375806" lon="11.5556211"><ele>176.0</ele><time>2026-04-23T09:11:35.848Z</time></trkpt><trkpt lat="43.2375208" lon="11.5557218"><ele>176.0</ele><time>2026-04-23T09:11:36.854Z</time></trkpt><trkpt lat="43.2374699" lon="11.5558258"><ele>176.0</ele><time>2026-04-23T09:11:37.845Z</time></trkpt><trkpt lat="43.2374203" lon="11.5559264"><ele>176.0</ele><time>2026-04-23T09:11:38.853Z</time></trkpt><trkpt lat="43.2373614" lon="11.5560285"><ele>176.0</ele><time>2026-04-23T09:11:39.852Z</time></trkpt><trkpt lat="43.2372862" lon="11.5561295"><ele>175.5</ele><time>2026-04-23T09:11:40.851Z</time></trkpt><trkpt lat="43.2371924" lon="11.5562366"><ele>175.0</ele><time>2026-04-23T09:11:41.846Z</time></trkpt><trkpt lat="43.2370992" lon="11.5563629"><ele>174.5</ele><time>2026-04-23T09:11:42.85Z</time></trkpt><trkpt lat="43.237027" lon="11.556511"><ele>174.0</ele><time>2026-04-23T09:11:43.847Z</time></trkpt><trkpt lat="43.236991" lon="11.5566622"><ele>174.0</ele><time>2026-04-23T09:11:44.847Z</time></trkpt><trkpt lat="43.2369774" lon="11.5567955"><ele>174.0</ele><time>2026-04-23T09:11:45.848Z</time></trkpt><trkpt lat="43.2369696" lon="11.5569194"><ele>174.0</ele><time>2026-04-23T09:11:46.85Z</time></trkpt><trkpt lat="43.2369645" lon="11.5570195"><ele>174.0</ele><time>2026-04-23T09:11:47.853Z</time></trkpt><trkpt lat="43.2369463" lon="11.5571497"><ele>174.0</ele><time>2026-04-23T09:11:49.847Z</time></trkpt><trkpt lat="43.2368921" lon="11.5572036"><ele>174.0</ele><time>2026-04-23T09:11:51.849Z</time></trkpt><trkpt lat="43.2367829" lon="11.5572058"><ele>174.5</ele><time>2026-04-23T09:11:53.853Z</time></trkpt><trkpt lat="43.2366285" lon="11.5571876"><ele>175.0</ele><time>2026-04-23T09:11:55.846Z</time></trkpt><trkpt lat="43.2365547" lon="11.5571761"><ele>175.5</ele><time>2026-04-23T09:11:56.85Z</time></trkpt><trkpt lat="43.2364838" lon="11.5571615"><ele>176.0</ele><time>2026-04-23T09:11:57.848Z</time></trkpt><trkpt lat="43.2364148" lon="11.5571323"><ele>176.5</ele><time>2026-04-23T09:11:58.848Z</time></trkpt><trkpt lat="43.2363551" lon="11.5570722"><ele>177.0</ele><time>2026-04-23T09:11:59.847Z</time></trkpt><trkpt lat="43.2363057" lon="11.5569859"><ele>177.0</ele><time>2026-04-23T09:12:00.848Z</time></trkpt><trkpt lat="43.2362642" lon="11.556886"><ele>177.0</ele><time>2026-04-23T09:12:01.847Z</time></trkpt><trkpt lat="43.2362217" lon="11.5567828"><ele>177.0</ele><time>2026-04-23T09:12:02.844Z</time></trkpt><trkpt lat="43.236176" lon="11.5566857"><ele>177.0</ele><time>2026-04-23T09:12:03.854Z</time></trkpt><trkpt lat="43.2361283" lon="11.5565994"><ele>177.0</ele><time>2026-04-23T09:12:04.853Z</time></trkpt><trkpt lat="43.2360785" lon="11.5565287"><ele>177.0</ele><time>2026-04-23T09:12:05.845Z</time></trkpt><trkpt lat="43.2360248" lon="11.5564702"><ele>177.0</ele><time>2026-04-23T09:12:06.848Z</time></trkpt><trkpt lat="43.235968" lon="11.5564261"><ele>177.0</ele><time>2026-04-23T09:12:07.846Z</time></trkpt><trkpt lat="43.2359022" lon="11.5563999"><ele>177.0</ele><time>2026-04-23T09:12:08.853Z</time></trkpt><trkpt lat="43.2358299" lon="11.5563969"><ele>177.0</ele><time>2026-04-23T09:12:09.848Z</time></trkpt><trkpt lat="43.2357558" lon="11.5564237"><ele>177.0</ele><time>2026-04-23T09:12:10.845Z</time></trkpt><trkpt lat="43.2356829" lon="11.5564767"><ele>177.0</ele><time>2026-04-23T09:12:11.844Z</time></trkpt><trkpt lat="43.235619" lon="11.5565316"><ele>177.0</ele><time>2026-04-23T09:12:12.847Z</time></trkpt><trkpt lat="43.2355594" lon="11.5565806"><ele>176.8</ele><time>2026-04-23T09:12:13.85Z</time></trkpt><trkpt lat="43.235502" lon="11.5566203"><ele>176.6</ele><time>2026-04-23T09:12:14.848Z</time></trkpt><trkpt lat="43.2353771" lon="11.556694"><ele>176.4</ele><time>2026-04-23T09:12:16.849Z</time></trkpt><trkpt lat="43.2352979" lon="11.5567344"><ele>176.20000000000002</ele><time>2026-04-23T09:12:17.843Z</time></trkpt><trkpt lat="43.2352133" lon="11.5567771"><ele>176.0</ele><time>2026-04-23T09:12:18.849Z</time></trkpt><trkpt lat="43.2351247" lon="11.5568246"><ele>176.0</ele><time>2026-04-23T09:12:19.842Z</time></trkpt><trkpt lat="43.2350293" lon="11.5568784"><ele>176.0</ele><time>2026-04-23T09:12:20.85Z</time></trkpt><trkpt lat="43.2349329" lon="11.5569337"><ele>176.0</ele><time>2026-04-23T09:12:21.848Z</time></trkpt><trkpt lat="43.2348362" lon="11.5569944"><ele>176.0</ele><time>2026-04-23T09:12:22.852Z</time></trkpt><trkpt lat="43.23474" lon="11.557066"><ele>176.0</ele><time>2026-04-23T09:12:23.851Z</time></trkpt><trkpt lat="43.2346487" lon="11.557152"><ele>176.20000000000002</ele><time>2026-04-23T09:12:24.844Z</time></trkpt><trkpt lat="43.2345666" lon="11.5572547"><ele>176.4</ele><time>2026-04-23T09:12:25.847Z</time></trkpt><trkpt lat="43.2344961" lon="11.5573595"><ele>176.6</ele><time>2026-04-23T09:12:26.856Z</time></trkpt><trkpt lat="43.2344329" lon="11.5574607"><ele>176.8</ele><time>2026-04-23T09:12:27.846Z</time></trkpt><trkpt lat="43.2343654" lon="11.5575663"><ele>177.0</ele><time>2026-04-23T09:12:28.848Z</time></trkpt><trkpt lat="43.2342958" lon="11.557673"><ele>177.0</ele><time>2026-04-23T09:12:29.854Z</time></trkpt><trkpt lat="43.2342242" lon="11.5577727"><ele>177.0</ele><time>2026-04-23T09:12:30.846Z</time></trkpt><trkpt lat="43.2341495" lon="11.5578735"><ele>177.0</ele><time>2026-04-23T09:12:31.85Z</time></trkpt><trkpt lat="43.2340744" lon="11.5579793"><ele>177.0</ele><time>2026-04-23T09:12:32.842Z</time></trkpt><trkpt lat="43.2339997" lon="11.5580891"><ele>177.0</ele><time>2026-04-23T09:12:33.848Z</time></trkpt><trkpt lat="43.233927" lon="11.5582008"><ele>177.25</ele><time>2026-04-23T09:12:34.849Z</time></trkpt><trkpt lat="43.2338567" lon="11.5583133"><ele>177.5</ele><time>2026-04-23T09:12:35.839Z</time></trkpt><trkpt lat="43.2337598" lon="11.558543"><ele>177.75</ele><time>2026-04-23T09:12:37.846Z</time></trkpt><trkpt lat="43.2337489" lon="11.5586649"><ele>178.0</ele><time>2026-04-23T09:12:38.852Z</time></trkpt><trkpt lat="43.2337574" lon="11.558792"><ele>180.33333333333334</ele><time>2026-04-23T09:12:39.846Z</time></trkpt><trkpt lat="43.2337779" lon="11.5589143"><ele>182.66666666666669</ele><time>2026-04-23T09:12:40.847Z</time></trkpt><trkpt lat="43.2338018" lon="11.5590259"><ele>185.0</ele><time>2026-04-23T09:12:41.845Z</time></trkpt><trkpt lat="43.2338238" lon="11.55913"><ele>187.33333333333334</ele><time>2026-04-23T09:12:42.847Z</time></trkpt><trkpt lat="43.2338449" lon="11.5592305"><ele>189.66666666666666</ele><time>2026-04-23T09:12:43.841Z</time></trkpt><trkpt lat="43.2338625" lon="11.559331"><ele>192.0</ele><time>2026-04-23T09:12:44.842Z</time></trkpt><trkpt lat="43.2338809" lon="11.5594279"><ele>192.0</ele><time>2026-04-23T09:12:45.847Z</time></trkpt><trkpt lat="43.2338959" lon="11.5595293"><ele>192.0</ele><time>2026-04-23T09:12:46.84Z</time></trkpt><trkpt lat="43.2339087" lon="11.5596338"><ele>192.0</ele><time>2026-04-23T09:12:47.848Z</time></trkpt><trkpt lat="43.2339209" lon="11.559739"><ele>192.0</ele><time>2026-04-23T09:12:48.843Z</time></trkpt><trkpt lat="43.2339321" lon="11.5598448"><ele>192.0</ele><time>2026-04-23T09:12:49.844Z</time></trkpt><trkpt lat="43.2339441" lon="11.55995"><ele>192.0</ele><time>2026-04-23T09:12:50.844Z</time></trkpt><trkpt lat="43.2339539" lon="11.5600554"><ele>193.33333333333334</ele><time>2026-04-23T09:12:51.844Z</time></trkpt><trkpt lat="43.2339601" lon="11.5601598"><ele>194.66666666666669</ele><time>2026-04-23T09:12:52.851Z</time></trkpt><trkpt lat="43.2339646" lon="11.5602613"><ele>196.0</ele><time>2026-04-23T09:12:53.841Z</time></trkpt><trkpt lat="43.2339789" lon="11.5603943"><ele>197.33333333333334</ele><time>2026-04-23T09:12:55.842Z</time></trkpt><trkpt lat="43.2339913" lon="11.5605031"><ele>198.66666666666669</ele><time>2026-04-23T09:13:07.843Z</time></trkpt><trkpt lat="43.233877" lon="11.5605182"><ele>200.0</ele><time>2026-04-23T09:13:13.851Z</time></trkpt><trkpt lat="43.233813" lon="11.5604743"><ele>201.0</ele><time>2026-04-23T09:26:57.852Z</time></trkpt><trkpt lat="43.2338056" lon="11.560602"><ele>202.0</ele><time>2026-04-23T09:27:02.86Z</time></trkpt><trkpt lat="43.2338937" lon="11.5606457"><ele>203.0</ele><time>2026-04-23T09:27:04.851Z</time></trkpt><trkpt lat="43.2339718" lon="11.5606869"><ele>204.0</ele><time>2026-04-23T09:27:07.848Z</time></trkpt><trkpt lat="43.2340144" lon="11.5605905"><ele>205.0</ele><time>2026-04-23T09:27:10.849Z</time></trkpt><trkpt lat="43.2340055" lon="11.560422"><ele>204.0</ele><time>2026-04-23T09:27:12.852Z</time></trkpt><trkpt lat="43.2339951" lon="11.5603127"><ele>203.0</ele><time>2026-04-23T09:27:13.853Z</time></trkpt><trkpt lat="43.2339832" lon="11.5601792"><ele>202.0</ele><time>2026-04-23T09:27:14.841Z</time></trkpt><trkpt lat="43.233967" lon="11.5600121"><ele>201.0</ele><time>2026-04-23T09:27:15.845Z</time></trkpt><trkpt lat="43.2339457" lon="11.5598187"><ele>200.0</ele><time>2026-04-23T09:27:16.846Z</time></trkpt><trkpt lat="43.2339229" lon="11.5596058"><ele>196.0</ele><time>2026-04-23T09:27:17.851Z</time></trkpt><trkpt lat="43.2338958" lon="11.5593921"><ele>192.0</ele><time>2026-04-23T09:27:18.851Z</time></trkpt><trkpt lat="43.2338284" lon="11.5589911"><ele>192.0</ele><time>2026-04-23T09:27:20.86Z</time></trkpt><trkpt lat="43.2337979" lon="11.5588027"><ele>192.0</ele><time>2026-04-23T09:27:21.853Z</time></trkpt><trkpt lat="43.2337794" lon="11.5586189"><ele>192.0</ele><time>2026-04-23T09:27:22.849Z</time></trkpt><trkpt lat="43.2337925" lon="11.5584461"><ele>192.0</ele><time>2026-04-23T09:27:23.852Z</time></trkpt><trkpt lat="43.2338518" lon="11.558286"><ele>189.0</ele><time>2026-04-23T09:27:24.855Z</time></trkpt><trkpt lat="43.2339475" lon="11.5581393"><ele>186.0</ele><time>2026-04-23T09:27:25.853Z</time></trkpt><trkpt lat="43.2340536" lon="11.5579924"><ele>183.0</ele><time>2026-04-23T09:27:26.85Z</time></trkpt><trkpt lat="43.2341672" lon="11.5578396"><ele>181.0</ele><time>2026-04-23T09:27:27.845Z</time></trkpt><trkpt lat="43.2342838" lon="11.5576856"><ele>179.0</ele><time>2026-04-23T09:27:28.853Z</time></trkpt><trkpt lat="43.2343987" lon="11.5575372"><ele>177.0</ele><time>2026-04-23T09:27:29.849Z</time></trkpt><trkpt lat="43.234504" lon="11.5573864"><ele>177.0</ele><time>2026-04-23T09:27:30.851Z</time></trkpt><trkpt lat="43.2346043" lon="11.5572333"><ele>177.0</ele><time>2026-04-23T09:27:31.845Z</time></trkpt><trkpt lat="43.2347095" lon="11.5570954"><ele>177.0</ele><time>2026-04-23T09:27:32.852Z</time></trkpt><trkpt lat="43.2348286" lon="11.5569838"><ele>177.0</ele><time>2026-04-23T09:27:33.859Z</time></trkpt><trkpt lat="43.2349616" lon="11.5568966"><ele>176.75</ele><time>2026-04-23T09:27:34.856Z</time></trkpt><trkpt lat="43.2350988" lon="11.5568279"><ele>176.5</ele><time>2026-04-23T09:27:35.844Z</time></trkpt><trkpt lat="43.2352314" lon="11.5567637"><ele>176.25</ele><time>2026-04-23T09:27:36.846Z</time></trkpt><trkpt lat="43.2353565" lon="11.5567081"><ele>176.0</ele><time>2026-04-23T09:27:37.843Z</time></trkpt><trkpt lat="43.2354675" lon="11.5566581"><ele>176.0</ele><time>2026-04-23T09:27:38.844Z</time></trkpt><trkpt lat="43.2355735" lon="11.5566029"><ele>176.0</ele><time>2026-04-23T09:27:39.848Z</time></trkpt><trkpt lat="43.2357832" lon="11.5564842"><ele>176.0</ele><time>2026-04-23T09:27:41.851Z</time></trkpt><trkpt lat="43.2358903" lon="11.5564616"><ele>176.0</ele><time>2026-04-23T09:27:42.844Z</time></trkpt><trkpt lat="43.2360014" lon="11.5564916"><ele>176.25</ele><time>2026-04-23T09:27:43.852Z</time></trkpt><trkpt lat="43.2361014" lon="11.5565848"><ele>176.5</ele><time>2026-04-23T09:27:44.847Z</time></trkpt><trkpt lat="43.2361867" lon="11.556736"><ele>176.75</ele><time>2026-04-23T09:27:45.851Z</time></trkpt><trkpt lat="43.236267" lon="11.5569238"><ele>177.0</ele><time>2026-04-23T09:27:46.851Z</time></trkpt><trkpt lat="43.2363602" lon="11.557105"><ele>178.0</ele><time>2026-04-23T09:27:47.849Z</time></trkpt><trkpt lat="43.2364714" lon="11.5572467"><ele>179.0</ele><time>2026-04-23T09:27:48.858Z</time></trkpt><trkpt lat="43.2365969" lon="11.5573095"><ele>180.0</ele><time>2026-04-23T09:27:49.843Z</time></trkpt><trkpt lat="43.2367166" lon="11.5573056"><ele>181.0</ele><time>2026-04-23T09:27:50.848Z</time></trkpt><trkpt lat="43.2368136" lon="11.5572972"><ele>181.0</ele><time>2026-04-23T09:27:51.851Z</time></trkpt><trkpt lat="43.2368909" lon="11.5572901"><ele>181.0</ele><time>2026-04-23T09:27:52.851Z</time></trkpt><trkpt lat="43.2369493" lon="11.5572446"><ele>181.0</ele><time>2026-04-23T09:27:53.848Z</time></trkpt><trkpt lat="43.2369913" lon="11.5571443"><ele>181.0</ele><time>2026-04-23T09:27:54.856Z</time></trkpt><trkpt lat="43.2370096" lon="11.5569891"><ele>181.0</ele><time>2026-04-23T09:27:55.853Z</time></trkpt><trkpt lat="43.2370171" lon="11.5567993"><ele>179.25</ele><time>2026-04-23T09:27:56.85Z</time></trkpt><trkpt lat="43.2370308" lon="11.556597"><ele>177.5</ele><time>2026-04-23T09:27:57.847Z</time></trkpt><trkpt lat="43.2370662" lon="11.556411"><ele>175.75</ele><time>2026-04-23T09:27:58.845Z</time></trkpt><trkpt lat="43.2371325" lon="11.5562465"><ele>174.0</ele><time>2026-04-23T09:27:59.849Z</time></trkpt><trkpt lat="43.2372196" lon="11.5561016"><ele>174.66666666666666</ele><time>2026-04-23T09:28:00.85Z</time></trkpt><trkpt lat="43.2374027" lon="11.5558844"><ele>175.33333333333331</ele><time>2026-04-23T09:28:02.848Z</time></trkpt><trkpt lat="43.2374908" lon="11.5558004"><ele>176.0</ele><time>2026-04-23T09:28:03.853Z</time></trkpt><trkpt lat="43.2375699" lon="11.5557063"><ele>176.0</ele><time>2026-04-23T09:28:04.851Z</time></trkpt><trkpt lat="43.2376412" lon="11.5556074"><ele>176.0</ele><time>2026-04-23T09:28:05.847Z</time></trkpt><trkpt lat="43.2377161" lon="11.5555096"><ele>176.0</ele><time>2026-04-23T09:28:06.847Z</time></trkpt><trkpt lat="43.2378059" lon="11.5554237"><ele>176.0</ele><time>2026-04-23T09:28:07.852Z</time></trkpt><trkpt lat="43.2379114" lon="11.5553479"><ele>176.0</ele><time>2026-04-23T09:28:08.849Z</time></trkpt><trkpt lat="43.2380338" lon="11.5552743"><ele>176.66666666666666</ele><time>2026-04-23T09:28:09.85Z</time></trkpt><trkpt lat="43.2381713" lon="11.5552054"><ele>177.33333333333334</ele><time>2026-04-23T09:28:10.853Z</time></trkpt><trkpt lat="43.2383143" lon="11.5551269"><ele>178.0</ele><time>2026-04-23T09:28:11.849Z</time></trkpt><trkpt lat="43.2384566" lon="11.5550484"><ele>178.0</ele><time>2026-04-23T09:28:12.849Z</time></trkpt><trkpt lat="43.2385749" lon="11.5549892"><ele>178.0</ele><time>2026-04-23T09:28:13.854Z</time></trkpt><trkpt lat="43.238657" lon="11.5549495"><ele>178.0</ele><time>2026-04-23T09:28:14.847Z</time></trkpt><trkpt lat="43.2387705" lon="11.5549288"><ele>178.0</ele><time>2026-04-23T09:28:16.845Z</time></trkpt><trkpt lat="43.2388804" lon="11.5549542"><ele>178.0</ele><time>2026-04-23T09:28:18.85Z</time></trkpt><trkpt lat="43.2389853" lon="11.5548837"><ele>177.60000000000002</ele><time>2026-04-23T09:28:20.851Z</time></trkpt><trkpt lat="43.239021" lon="11.5548117"><ele>177.20000000000002</ele><time>2026-04-23T09:28:21.854Z</time></trkpt><trkpt lat="43.2391085" lon="11.5546566"><ele>176.8</ele><time>2026-04-23T09:28:23.862Z</time></trkpt><trkpt lat="43.2391748" lon="11.5545904"><ele>176.4</ele><time>2026-04-23T09:28:24.851Z</time></trkpt><trkpt lat="43.2392563" lon="11.5545279"><ele>176.0</ele><time>2026-04-23T09:28:25.848Z</time></trkpt><trkpt lat="43.2393501" lon="11.5544452"><ele>175.25</ele><time>2026-04-23T09:28:26.854Z</time></trkpt><trkpt lat="43.2394508" lon="11.5543438"><ele>174.5</ele><time>2026-04-23T09:28:27.851Z</time></trkpt><trkpt lat="43.2395505" lon="11.554231"><ele>173.75</ele><time>2026-04-23T09:28:28.851Z</time></trkpt><trkpt lat="43.2396444" lon="11.5541113"><ele>173.0</ele><time>2026-04-23T09:28:29.849Z</time></trkpt><trkpt lat="43.2397316" lon="11.5539847"><ele>173.0</ele><time>2026-04-23T09:28:30.853Z</time></trkpt><trkpt lat="43.2398168" lon="11.5538552"><ele>173.0</ele><time>2026-04-23T09:28:31.851Z</time></trkpt><trkpt lat="43.239901" lon="11.5537217"><ele>173.0</ele><time>2026-04-23T09:28:32.85Z</time></trkpt><trkpt lat="43.2399809" lon="11.553592"><ele>173.0</ele><time>2026-04-23T09:28:33.856Z</time></trkpt><trkpt lat="43.240053" lon="11.5534744"><ele>173.0</ele><time>2026-04-23T09:28:34.845Z</time></trkpt><trkpt lat="43.2401144" lon="11.5533733"><ele>173.0</ele><time>2026-04-23T09:28:35.846Z</time></trkpt><trkpt lat="43.2401709" lon="11.5532804"><ele>173.0</ele><time>2026-04-23T09:28:36.85Z</time></trkpt><trkpt lat="43.2402251" lon="11.5532024"><ele>173.0</ele><time>2026-04-23T09:28:37.852Z</time></trkpt><trkpt lat="43.2402778" lon="11.5531419"><ele>173.0</ele><time>2026-04-23T09:28:38.848Z</time></trkpt><trkpt lat="43.2403888" lon="11.5531002"><ele>173.0</ele><time>2026-04-23T09:28:40.854Z</time></trkpt><trkpt lat="43.2404533" lon="11.5531271"><ele>173.0</ele><time>2026-04-23T09:28:41.853Z</time></trkpt><trkpt lat="43.2405218" lon="11.5531792"><ele>173.0</ele><time>2026-04-23T09:28:42.853Z</time></trkpt><trkpt lat="43.2406692" lon="11.5532845"><ele>173.0</ele><time>2026-04-23T09:28:44.85Z</time></trkpt><trkpt lat="43.2407468" lon="11.5533372"><ele>173.0</ele><time>2026-04-23T09:28:45.852Z</time></trkpt><trkpt lat="43.2408229" lon="11.5533918"><ele>173.0</ele><time>2026-04-23T09:28:46.854Z</time></trkpt><trkpt lat="43.2408948" lon="11.5534492"><ele>173.0</ele><time>2026-04-23T09:28:47.851Z</time></trkpt><trkpt lat="43.2409601" lon="11.5535033"><ele>173.0</ele><time>2026-04-23T09:28:48.851Z</time></trkpt><trkpt lat="43.2410267" lon="11.5535553"><ele>173.0</ele><time>2026-04-23T09:28:49.851Z</time></trkpt><trkpt lat="43.2410882" lon="11.5536059"><ele>173.0</ele><time>2026-04-23T09:28:50.851Z</time></trkpt><trkpt lat="43.2411451" lon="11.5536535"><ele>173.0</ele><time>2026-04-23T09:28:51.855Z</time></trkpt><trkpt lat="43.2412056" lon="11.5536985"><ele>173.0</ele><time>2026-04-23T09:28:52.853Z</time></trkpt><trkpt lat="43.2412696" lon="11.553738"><ele>173.0</ele><time>2026-04-23T09:28:53.859Z</time></trkpt><trkpt lat="43.2413392" lon="11.5537698"><ele>173.0</ele><time>2026-04-23T09:28:54.851Z</time></trkpt><trkpt lat="43.2414091" lon="11.5537965"><ele>173.0</ele><time>2026-04-23T09:28:55.851Z</time></trkpt><trkpt lat="43.2414729" lon="11.5538125"><ele>173.0</ele><time>2026-04-23T09:28:56.852Z</time></trkpt><trkpt lat="43.2416023" lon="11.5538137"><ele>173.0</ele><time>2026-04-23T09:28:58.857Z</time></trkpt><trkpt lat="43.2416781" lon="11.5538028"><ele>173.0</ele><time>2026-04-23T09:28:59.849Z</time></trkpt><trkpt lat="43.2417666" lon="11.5537942"><ele>173.0</ele><time>2026-04-23T09:29:00.853Z</time></trkpt><trkpt lat="43.2418629" lon="11.5537993"><ele>174.66666666666666</ele><time>2026-04-23T09:29:01.849Z</time></trkpt><trkpt lat="43.2419628" lon="11.5538231"><ele>176.33333333333334</ele><time>2026-04-23T09:29:02.855Z</time></trkpt><trkpt lat="43.2420671" lon="11.5538759"><ele>178.0</ele><time>2026-04-23T09:29:03.849Z</time></trkpt><trkpt lat="43.2423037" lon="11.5540614"><ele>182.0</ele><time>2026-04-23T09:29:05.858Z</time></trkpt><trkpt lat="43.2424232" lon="11.5541631"><ele>186.0</ele><time>2026-04-23T09:29:06.845Z</time></trkpt><trkpt lat="43.242529" lon="11.5542588"><ele>190.0</ele><time>2026-04-23T09:29:07.849Z</time></trkpt><trkpt lat="43.2426184" lon="11.5543404"><ele>194.0</ele><time>2026-04-23T09:29:08.851Z</time></trkpt><trkpt lat="43.2426883" lon="11.5544085"><ele>194.0</ele><time>2026-04-23T09:29:09.854Z</time></trkpt><trkpt lat="43.2427591" lon="11.5544604"><ele>194.0</ele><time>2026-04-23T09:29:10.851Z</time></trkpt><trkpt lat="43.2428408" lon="11.5545034"><ele>194.0</ele><time>2026-04-23T09:29:11.846Z</time></trkpt><trkpt lat="43.2429378" lon="11.5545303"><ele>194.0</ele><time>2026-04-23T09:29:12.852Z</time></trkpt><trkpt lat="43.2430461" lon="11.5545487"><ele>194.0</ele><time>2026-04-23T09:29:13.852Z</time></trkpt><trkpt lat="43.2431642" lon="11.5545547"><ele>192.0</ele><time>2026-04-23T09:29:14.848Z</time></trkpt><trkpt lat="43.2432932" lon="11.554542"><ele>190.0</ele><time>2026-04-23T09:29:15.85Z</time></trkpt><trkpt lat="43.243444" lon="11.5545144"><ele>188.0</ele><time>2026-04-23T09:29:16.852Z</time></trkpt><trkpt lat="43.243617" lon="11.5544821"><ele>188.66666666666666</ele><time>2026-04-23T09:29:17.852Z</time></trkpt><trkpt lat="43.2437919" lon="11.5544529"><ele>189.33333333333334</ele><time>2026-04-23T09:29:18.856Z</time></trkpt><trkpt lat="43.2439548" lon="11.5544303"><ele>190.0</ele><time>2026-04-23T09:29:19.852Z</time></trkpt><trkpt lat="43.2441051" lon="11.5544084"><ele>190.0</ele><time>2026-04-23T09:29:20.85Z</time></trkpt><trkpt lat="43.2442469" lon="11.5543863"><ele>190.0</ele><time>2026-04-23T09:29:21.845Z</time></trkpt><trkpt lat="43.2443924" lon="11.5543646"><ele>190.0</ele><time>2026-04-23T09:29:22.851Z</time></trkpt><trkpt lat="43.24455" lon="11.5543484"><ele>190.0</ele><time>2026-04-23T09:29:23.855Z</time></trkpt><trkpt lat="43.2447238" lon="11.5543343"><ele>188.0</ele><time>2026-04-23T09:29:24.852Z</time></trkpt><trkpt lat="43.2451195" lon="11.5542887"><ele>186.0</ele><time>2026-04-23T09:29:26.846Z</time></trkpt><trkpt lat="43.2453478" lon="11.5542563"><ele>186.0</ele><time>2026-04-23T09:29:27.851Z</time></trkpt><trkpt lat="43.2455799" lon="11.5542192"><ele>186.0</ele><time>2026-04-23T09:29:28.855Z</time></trkpt><trkpt lat="43.2458032" lon="11.5541858"><ele>183.0</ele><time>2026-04-23T09:29:29.856Z</time></trkpt><trkpt lat="43.2460129" lon="11.5541544"><ele>180.0</ele><time>2026-04-23T09:29:30.853Z</time></trkpt><trkpt lat="43.2462029" lon="11.5541284"><ele>177.0</ele><time>2026-04-23T09:29:31.856Z</time></trkpt><trkpt lat="43.2463713" lon="11.5541081"><ele>175.75</ele><time>2026-04-23T09:29:32.855Z</time></trkpt><trkpt lat="43.2465167" lon="11.5540982"><ele>174.5</ele><time>2026-04-23T09:29:33.864Z</time></trkpt><trkpt lat="43.2466394" lon="11.5541131"><ele>173.25</ele><time>2026-04-23T09:29:34.856Z</time></trkpt><trkpt lat="43.2467561" lon="11.5541444"><ele>172.0</ele><time>2026-04-23T09:29:35.855Z</time></trkpt><trkpt lat="43.2468822" lon="11.5542103"><ele>172.0</ele><time>2026-04-23T09:29:36.849Z</time></trkpt><trkpt lat="43.2470217" lon="11.554315"><ele>172.0</ele><time>2026-04-23T09:29:37.861Z</time></trkpt><trkpt lat="43.2471793" lon="11.5544539"><ele>172.0</ele><time>2026-04-23T09:29:38.85Z</time></trkpt><trkpt lat="43.2473553" lon="11.5545896"><ele>174.33333333333334</ele><time>2026-04-23T09:29:39.857Z</time></trkpt><trkpt lat="43.2475326" lon="11.5547165"><ele>176.66666666666666</ele><time>2026-04-23T09:29:40.853Z</time></trkpt><trkpt lat="43.2476956" lon="11.5548344"><ele>179.0</ele><time>2026-04-23T09:29:41.844Z</time></trkpt><trkpt lat="43.2478272" lon="11.5549434"><ele>179.0</ele><time>2026-04-23T09:29:42.853Z</time></trkpt><trkpt lat="43.247924" lon="11.5550617"><ele>179.0</ele><time>2026-04-23T09:29:43.85Z</time></trkpt><trkpt lat="43.247998" lon="11.5552073"><ele>179.0</ele><time>2026-04-23T09:29:44.855Z</time></trkpt><trkpt lat="43.2480613" lon="11.5553611"><ele>179.0</ele><time>2026-04-23T09:29:45.849Z</time></trkpt><trkpt lat="43.2482339" lon="11.555632"><ele>181.66666666666666</ele><time>2026-04-23T09:29:47.844Z</time></trkpt><trkpt lat="43.2483557" lon="11.5557456"><ele>184.33333333333334</ele><time>2026-04-23T09:29:48.852Z</time></trkpt><trkpt lat="43.2484997" lon="11.5558603"><ele>187.0</ele><time>2026-04-23T09:29:49.851Z</time></trkpt><trkpt lat="43.2486489" lon="11.5559682"><ele>187.0</ele><time>2026-04-23T09:29:50.853Z</time></trkpt><trkpt lat="43.2487759" lon="11.5560565"><ele>187.0</ele><time>2026-04-23T09:29:51.859Z</time></trkpt><trkpt lat="43.2488783" lon="11.556106"><ele>187.0</ele><time>2026-04-23T09:29:52.857Z</time></trkpt><trkpt lat="43.248975" lon="11.5561173"><ele>187.0</ele><time>2026-04-23T09:29:53.85Z</time></trkpt><trkpt lat="43.2490843" lon="11.5561054"><ele>189.25</ele><time>2026-04-23T09:29:54.86Z</time></trkpt><trkpt lat="43.2492086" lon="11.5560707"><ele>191.5</ele><time>2026-04-23T09:29:55.854Z</time></trkpt><trkpt lat="43.2493541" lon="11.5560326"><ele>193.75</ele><time>2026-04-23T09:29:56.856Z</time></trkpt><trkpt lat="43.249517" lon="11.5560038"><ele>196.0</ele><time>2026-04-23T09:29:57.849Z</time></trkpt><trkpt lat="43.2496846" lon="11.5559869"><ele>196.75</ele><time>2026-04-23T09:29:58.853Z</time></trkpt><trkpt lat="43.2498382" lon="11.55597"><ele>197.5</ele><time>2026-04-23T09:29:59.856Z</time></trkpt><trkpt lat="43.2499736" lon="11.5559455"><ele>198.25</ele><time>2026-04-23T09:30:00.853Z</time></trkpt><trkpt lat="43.2501006" lon="11.5558979"><ele>199.0</ele><time>2026-04-23T09:30:01.844Z</time></trkpt><trkpt lat="43.2502188" lon="11.5558225"><ele>199.0</ele><time>2026-04-23T09:30:02.846Z</time></trkpt><trkpt lat="43.2503376" lon="11.5557151"><ele>199.0</ele><time>2026-04-23T09:30:03.843Z</time></trkpt><trkpt lat="43.2504586" lon="11.555589"><ele>199.0</ele><time>2026-04-23T09:30:04.848Z</time></trkpt><trkpt lat="43.2505865" lon="11.5554471"><ele>207.0</ele><time>2026-04-23T09:30:05.848Z</time></trkpt><trkpt lat="43.250716" lon="11.5552934"><ele>215.0</ele><time>2026-04-23T09:30:06.843Z</time></trkpt><trkpt lat="43.250955" lon="11.5550122"><ele>215.0</ele><time>2026-04-23T09:30:08.847Z</time></trkpt><trkpt lat="43.2510705" lon="11.5549121"><ele>215.0</ele><time>2026-04-23T09:30:09.848Z</time></trkpt><trkpt lat="43.2512093" lon="11.5548359"><ele>215.0</ele><time>2026-04-23T09:30:10.844Z</time></trkpt><trkpt lat="43.2513759" lon="11.5547759"><ele>214.33333333333334</ele><time>2026-04-23T09:30:11.852Z</time></trkpt><trkpt lat="43.251553" lon="11.5547334"><ele>213.66666666666669</ele><time>2026-04-23T09:30:12.857Z</time></trkpt><trkpt lat="43.2517163" lon="11.5546909"><ele>213.0</ele><time>2026-04-23T09:30:13.859Z</time></trkpt><trkpt lat="43.2518667" lon="11.5546544"><ele>213.0</ele><time>2026-04-23T09:30:14.856Z</time></trkpt><trkpt lat="43.2519899" lon="11.5546309"><ele>213.0</ele><time>2026-04-23T09:30:15.854Z</time></trkpt><trkpt lat="43.2520953" lon="11.5546206"><ele>213.0</ele><time>2026-04-23T09:30:16.856Z</time></trkpt><trkpt lat="43.2522045" lon="11.5546261"><ele>213.0</ele><time>2026-04-23T09:30:17.845Z</time></trkpt><trkpt lat="43.2523193" lon="11.5546495"><ele>213.25</ele><time>2026-04-23T09:30:18.853Z</time></trkpt><trkpt lat="43.2524439" lon="11.5546889"><ele>213.5</ele><time>2026-04-23T09:30:19.856Z</time></trkpt><trkpt lat="43.2525713" lon="11.5547249"><ele>213.75</ele><time>2026-04-23T09:30:20.855Z</time></trkpt><trkpt lat="43.2527121" lon="11.5547374"><ele>214.0</ele><time>2026-04-23T09:30:21.851Z</time></trkpt><trkpt lat="43.2528695" lon="11.5547135"><ele>214.0</ele><time>2026-04-23T09:30:22.854Z</time></trkpt><trkpt lat="43.2530333" lon="11.5546732"><ele>214.0</ele><time>2026-04-23T09:30:23.851Z</time></trkpt><trkpt lat="43.2531899" lon="11.5546157"><ele>214.0</ele><time>2026-04-23T09:30:24.847Z</time></trkpt><trkpt lat="43.2533404" lon="11.5545388"><ele>220.0</ele><time>2026-04-23T09:30:25.854Z</time></trkpt><trkpt lat="43.2534828" lon="11.5544498"><ele>226.0</ele><time>2026-04-23T09:30:26.844Z</time></trkpt><trkpt lat="43.2536114" lon="11.5543513"><ele>232.0</ele><time>2026-04-23T09:30:27.855Z</time></trkpt><trkpt lat="43.2538352" lon="11.5541304"><ele>232.0</ele><time>2026-04-23T09:30:29.858Z</time></trkpt><trkpt lat="43.2539252" lon="11.5539929"><ele>232.0</ele><time>2026-04-23T09:30:30.851Z</time></trkpt><trkpt lat="43.2539919" lon="11.5538321"><ele>232.0</ele><time>2026-04-23T09:30:31.852Z</time></trkpt><trkpt lat="43.2540325" lon="11.5536536"><ele>232.0</ele><time>2026-04-23T09:30:32.844Z</time></trkpt><trkpt lat="43.2540541" lon="11.5534699"><ele>235.25</ele><time>2026-04-23T09:30:33.848Z</time></trkpt><trkpt lat="43.254071" lon="11.5532974"><ele>238.5</ele><time>2026-04-23T09:30:34.855Z</time></trkpt><trkpt lat="43.2541036" lon="11.5531409"><ele>241.75</ele><time>2026-04-23T09:30:35.85Z</time></trkpt><trkpt lat="43.254166" lon="11.5530161"><ele>245.0</ele><time>2026-04-23T09:30:36.852Z</time></trkpt><trkpt lat="43.2542581" lon="11.5529403"><ele>245.0</ele><time>2026-04-23T09:30:37.854Z</time></trkpt><trkpt lat="43.2543583" lon="11.5529105"><ele>245.0</ele><time>2026-04-23T09:30:38.845Z</time></trkpt><trkpt lat="43.2544626" lon="11.5529165"><ele>245.0</ele><time>2026-04-23T09:30:39.855Z</time></trkpt><trkpt lat="43.2545805" lon="11.5529312"><ele>245.0</ele><time>2026-04-23T09:30:40.849Z</time></trkpt><trkpt lat="43.2547194" lon="11.5529355"><ele>246.0</ele><time>2026-04-23T09:30:41.85Z</time></trkpt><trkpt lat="43.254879" lon="11.5529311"><ele>247.0</ele><time>2026-04-23T09:30:42.859Z</time></trkpt><trkpt lat="43.2550433" lon="11.5529231"><ele>248.0</ele><time>2026-04-23T09:30:43.851Z</time></trkpt><trkpt lat="43.2552016" lon="11.5529175"><ele>248.0</ele><time>2026-04-23T09:30:44.846Z</time></trkpt><trkpt lat="43.2553445" lon="11.5529189"><ele>248.0</ele><time>2026-04-23T09:30:45.857Z</time></trkpt><trkpt lat="43.2554781" lon="11.5529332"><ele>248.0</ele><time>2026-04-23T09:30:46.85Z</time></trkpt><trkpt lat="43.2556118" lon="11.5529642"><ele>248.0</ele><time>2026-04-23T09:30:47.858Z</time></trkpt><trkpt lat="43.2557506" lon="11.5530316"><ele>250.0</ele><time>2026-04-23T09:30:48.852Z</time></trkpt><trkpt lat="43.2560757" lon="11.5532387"><ele>252.0</ele><time>2026-04-23T09:30:50.856Z</time></trkpt><trkpt lat="43.2562532" lon="11.553354"><ele>252.0</ele><time>2026-04-23T09:30:51.859Z</time></trkpt><trkpt lat="43.2564222" lon="11.5534616"><ele>252.0</ele><time>2026-04-23T09:30:52.854Z</time></trkpt><trkpt lat="43.2565745" lon="11.5535589"><ele>252.0</ele><time>2026-04-23T09:30:53.857Z</time></trkpt><trkpt lat="43.2567146" lon="11.5536368"><ele>251.75</ele><time>2026-04-23T09:30:54.852Z</time></trkpt><trkpt lat="43.2568524" lon="11.5536908"><ele>251.5</ele><time>2026-04-23T09:30:55.848Z</time></trkpt><trkpt lat="43.2569914" lon="11.5537153"><ele>251.25</ele><time>2026-04-23T09:30:56.855Z</time></trkpt><trkpt lat="43.2571343" lon="11.5537038"><ele>251.0</ele><time>2026-04-23T09:30:57.849Z</time></trkpt><trkpt lat="43.2572847" lon="11.5536643"><ele>251.33333333333334</ele><time>2026-04-23T09:30:58.855Z</time></trkpt><trkpt lat="43.2574462" lon="11.5536039"><ele>251.66666666666669</ele><time>2026-04-23T09:30:59.85Z</time></trkpt><trkpt lat="43.2576187" lon="11.5535259"><ele>252.0</ele><time>2026-04-23T09:31:00.857Z</time></trkpt><trkpt lat="43.2577923" lon="11.5534345"><ele>252.0</ele><time>2026-04-23T09:31:01.851Z</time></trkpt><trkpt lat="43.2579518" lon="11.553356"><ele>252.0</ele><time>2026-04-23T09:31:02.843Z</time></trkpt><trkpt lat="43.2581087" lon="11.5532843"><ele>252.0</ele><time>2026-04-23T09:31:03.857Z</time></trkpt><trkpt lat="43.2582742" lon="11.5532303"><ele>252.0</ele><time>2026-04-23T09:31:04.852Z</time></trkpt><trkpt lat="43.2584369" lon="11.5531916"><ele>252.0</ele><time>2026-04-23T09:31:05.849Z</time></trkpt><trkpt lat="43.2585917" lon="11.5531592"><ele>252.0</ele><time>2026-04-23T09:31:06.845Z</time></trkpt><trkpt lat="43.2587373" lon="11.5531184"><ele>252.0</ele><time>2026-04-23T09:31:07.848Z</time></trkpt><trkpt lat="43.2588719" lon="11.5530676"><ele>252.0</ele><time>2026-04-23T09:31:08.843Z</time></trkpt><trkpt lat="43.2589981" lon="11.5529941"><ele>252.0</ele><time>2026-04-23T09:31:09.854Z</time></trkpt><trkpt lat="43.2592287" lon="11.5527449"><ele>250.0</ele><time>2026-04-23T09:31:11.85Z</time></trkpt><trkpt lat="43.2593375" lon="11.5525863"><ele>248.0</ele><time>2026-04-23T09:31:12.853Z</time></trkpt><trkpt lat="43.2594394" lon="11.5524131"><ele>246.0</ele><time>2026-04-23T09:31:13.854Z</time></trkpt><trkpt lat="43.2595149" lon="11.552227"><ele>246.0</ele><time>2026-04-23T09:31:14.859Z</time></trkpt><trkpt lat="43.2595756" lon="11.552015"><ele>246.0</ele><time>2026-04-23T09:31:15.855Z</time></trkpt><trkpt lat="43.2596276" lon="11.5518032"><ele>246.0</ele><time>2026-04-23T09:31:16.859Z</time></trkpt><trkpt lat="43.2596746" lon="11.5516177"><ele>246.0</ele><time>2026-04-23T09:31:17.849Z</time></trkpt><trkpt lat="43.2597226" lon="11.5514609"><ele>246.00000000000003</ele><time>2026-04-23T09:31:18.866Z</time></trkpt><trkpt lat="43.2597648" lon="11.5513451"><ele>246.00000000000003</ele><time>2026-04-23T09:31:19.86Z</time></trkpt><trkpt lat="43.2598001" lon="11.5512648"><ele>246.0</ele><time>2026-04-23T09:31:21.848Z</time></trkpt><trkpt lat="43.2597768" lon="11.5511397"><ele>246.0</ele><time>2026-04-23T09:31:30.862Z</time></trkpt><trkpt lat="43.2598774" lon="11.5508698"><ele>246.66666666666669</ele><time>2026-04-23T09:31:32.857Z</time></trkpt><trkpt lat="43.2599651" lon="11.5506992"><ele>247.33333333333334</ele><time>2026-04-23T09:31:33.852Z</time></trkpt><trkpt lat="43.2600663" lon="11.5505277"><ele>248.0</ele><time>2026-04-23T09:31:34.854Z</time></trkpt><trkpt lat="43.2601714" lon="11.5503601"><ele>245.66666666666669</ele><time>2026-04-23T09:31:35.863Z</time></trkpt><trkpt lat="43.2602821" lon="11.5502093"><ele>243.33333333333331</ele><time>2026-04-23T09:31:36.853Z</time></trkpt><trkpt lat="43.2604049" lon="11.5500894"><ele>241.0</ele><time>2026-04-23T09:31:37.858Z</time></trkpt><trkpt lat="43.2605384" lon="11.5500063"><ele>239.0</ele><time>2026-04-23T09:31:38.856Z</time></trkpt><trkpt lat="43.2606694" lon="11.5499571"><ele>237.0</ele><time>2026-04-23T09:31:39.847Z</time></trkpt><trkpt lat="43.2607942" lon="11.5499295"><ele>235.0</ele><time>2026-04-23T09:31:40.856Z</time></trkpt><trkpt lat="43.2609104" lon="11.5499213"><ele>233.0</ele><time>2026-04-23T09:31:41.862Z</time></trkpt><trkpt lat="43.2610213" lon="11.5499288"><ele>233.0</ele><time>2026-04-23T09:31:42.852Z</time></trkpt><trkpt lat="43.2611273" lon="11.5499509"><ele>233.0</ele><time>2026-04-23T09:31:43.859Z</time></trkpt><trkpt lat="43.2612363" lon="11.5499749"><ele>233.0</ele><time>2026-04-23T09:31:44.85Z</time></trkpt><trkpt lat="43.2613557" lon="11.5499826"><ele>233.0</ele><time>2026-04-23T09:31:45.855Z</time></trkpt><trkpt lat="43.2614727" lon="11.5499767"><ele>233.5</ele><time>2026-04-23T09:31:46.855Z</time></trkpt><trkpt lat="43.2615828" lon="11.5499498"><ele>234.0</ele><time>2026-04-23T09:31:47.856Z</time></trkpt><trkpt lat="43.2616865" lon="11.5499096"><ele>234.5</ele><time>2026-04-23T09:31:48.859Z</time></trkpt><trkpt lat="43.2617951" lon="11.549852"><ele>235.0</ele><time>2026-04-23T09:31:49.845Z</time></trkpt><trkpt lat="43.2619056" lon="11.5497702"><ele>235.0</ele><time>2026-04-23T09:31:50.85Z</time></trkpt><trkpt lat="43.2620209" lon="11.5496597"><ele>235.0</ele><time>2026-04-23T09:31:51.849Z</time></trkpt><trkpt lat="43.262276" lon="11.5493578"><ele>238.66666666666666</ele><time>2026-04-23T09:31:53.855Z</time></trkpt><trkpt lat="43.2624006" lon="11.5492027"><ele>242.33333333333331</ele><time>2026-04-23T09:31:54.855Z</time></trkpt><trkpt lat="43.262514" lon="11.5490432"><ele>246.0</ele><time>2026-04-23T09:31:55.853Z</time></trkpt><trkpt lat="43.2626178" lon="11.5488685"><ele>248.66666666666669</ele><time>2026-04-23T09:31:56.854Z</time></trkpt><trkpt lat="43.2627134" lon="11.5486775"><ele>251.33333333333334</ele><time>2026-04-23T09:31:57.849Z</time></trkpt><trkpt lat="43.2628116" lon="11.548477"><ele>254.0</ele><time>2026-04-23T09:31:58.855Z</time></trkpt><trkpt lat="43.2629092" lon="11.5482936"><ele>254.0</ele><time>2026-04-23T09:31:59.855Z</time></trkpt><trkpt lat="43.2629966" lon="11.548126"><ele>254.0</ele><time>2026-04-23T09:32:00.853Z</time></trkpt><trkpt lat="43.2630744" lon="11.5479564"><ele>254.0</ele><time>2026-04-23T09:32:01.857Z</time></trkpt><trkpt lat="43.2631444" lon="11.5477783"><ele>254.0</ele><time>2026-04-23T09:32:02.844Z</time></trkpt><trkpt lat="43.2632198" lon="11.547594"><ele>256.5</ele><time>2026-04-23T09:32:03.858Z</time></trkpt><trkpt lat="43.2633072" lon="11.5474264"><ele>259.0</ele><time>2026-04-23T09:32:04.855Z</time></trkpt><trkpt lat="43.2634083" lon="11.5472832"><ele>261.5</ele><time>2026-04-23T09:32:05.859Z</time></trkpt><trkpt lat="43.263508" lon="11.5471708"><ele>264.0</ele><time>2026-04-23T09:32:06.846Z</time></trkpt><trkpt lat="43.2636069" lon="11.5470747"><ele>264.0</ele><time>2026-04-23T09:32:07.847Z</time></trkpt><trkpt lat="43.263719" lon="11.5469797"><ele>264.0</ele><time>2026-04-23T09:32:08.853Z</time></trkpt><trkpt lat="43.2638388" lon="11.546881"><ele>264.0</ele><time>2026-04-23T09:32:09.853Z</time></trkpt><trkpt lat="43.2639616" lon="11.546772"><ele>264.0</ele><time>2026-04-23T09:32:10.856Z</time></trkpt><trkpt lat="43.2640814" lon="11.5466585"><ele>264.0</ele><time>2026-04-23T09:32:11.847Z</time></trkpt><trkpt lat="43.2641875" lon="11.5465441"><ele>264.0</ele><time>2026-04-23T09:32:12.852Z</time></trkpt><trkpt lat="43.2643634" lon="11.5462896"><ele>264.0</ele><time>2026-04-23T09:32:14.86Z</time></trkpt><trkpt lat="43.2644311" lon="11.5461426"><ele>267.0</ele><time>2026-04-23T09:32:15.849Z</time></trkpt><trkpt lat="43.2644793" lon="11.5459828"><ele>270.0</ele><time>2026-04-23T09:32:16.846Z</time></trkpt><trkpt lat="43.2645156" lon="11.5457973"><ele>273.0</ele><time>2026-04-23T09:32:17.848Z</time></trkpt><trkpt lat="43.264548" lon="11.545576"><ele>276.0</ele><time>2026-04-23T09:32:18.855Z</time></trkpt><trkpt lat="43.264581" lon="11.5453331"><ele>276.25</ele><time>2026-04-23T09:32:19.853Z</time></trkpt><trkpt lat="43.2646198" lon="11.545105"><ele>276.5</ele><time>2026-04-23T09:32:20.854Z</time></trkpt><trkpt lat="43.2646516" lon="11.544914"><ele>276.75</ele><time>2026-04-23T09:32:21.855Z</time></trkpt><trkpt lat="43.2646736" lon="11.5447582"><ele>277.0</ele><time>2026-04-23T09:32:22.848Z</time></trkpt><trkpt lat="43.2646948" lon="11.5446314"><ele>274.25</ele><time>2026-04-23T09:32:23.857Z</time></trkpt><trkpt lat="43.2647296" lon="11.5445118"><ele>271.5</ele><time>2026-04-23T09:32:24.851Z</time></trkpt><trkpt lat="43.26479" lon="11.5443925"><ele>268.75</ele><time>2026-04-23T09:32:25.854Z</time></trkpt><trkpt lat="43.2648682" lon="11.5442635"><ele>266.0</ele><time>2026-04-23T09:32:26.855Z</time></trkpt><trkpt lat="43.2649523" lon="11.544121"><ele>262.75</ele><time>2026-04-23T09:32:27.852Z</time></trkpt><trkpt lat="43.2650282" lon="11.5439663"><ele>259.5</ele><time>2026-04-23T09:32:28.848Z</time></trkpt><trkpt lat="43.2650939" lon="11.5438026"><ele>256.25</ele><time>2026-04-23T09:32:29.847Z</time></trkpt><trkpt lat="43.2651506" lon="11.543632"><ele>253.0</ele><time>2026-04-23T09:32:30.861Z</time></trkpt><trkpt lat="43.2651957" lon="11.5434534"><ele>250.0</ele><time>2026-04-23T09:32:31.848Z</time></trkpt><trkpt lat="43.2652244" lon="11.5432621"><ele>247.0</ele><time>2026-04-23T09:32:32.856Z</time></trkpt><trkpt lat="43.2652266" lon="11.5430524"><ele>244.0</ele><time>2026-04-23T09:32:33.854Z</time></trkpt><trkpt lat="43.2652002" lon="11.5426032"><ele>241.66666666666666</ele><time>2026-04-23T09:32:35.863Z</time></trkpt><trkpt lat="43.2652088" lon="11.542387"><ele>239.33333333333331</ele><time>2026-04-23T09:32:36.844Z</time></trkpt><trkpt lat="43.2652506" lon="11.5421933"><ele>237.0</ele><time>2026-04-23T09:32:37.851Z</time></trkpt><trkpt lat="43.2653187" lon="11.5419982"><ele>236.0</ele><time>2026-04-23T09:32:38.848Z</time></trkpt><trkpt lat="43.2653976" lon="11.5417895"><ele>235.0</ele><time>2026-04-23T09:32:39.853Z</time></trkpt><trkpt lat="43.2654617" lon="11.5415522"><ele>234.0</ele><time>2026-04-23T09:32:40.85Z</time></trkpt><trkpt lat="43.2655128" lon="11.5412886"><ele>235.33333333333331</ele><time>2026-04-23T09:32:41.848Z</time></trkpt><trkpt lat="43.2655483" lon="11.5410147"><ele>236.66666666666666</ele><time>2026-04-23T09:32:42.846Z</time></trkpt><trkpt lat="43.2655681" lon="11.5407697"><ele>238.0</ele><time>2026-04-23T09:32:43.858Z</time></trkpt><trkpt lat="43.2655959" lon="11.5405861"><ele>239.0</ele><time>2026-04-23T09:32:44.847Z</time></trkpt><trkpt lat="43.2656351" lon="11.5404654"><ele>240.0</ele><time>2026-04-23T09:32:45.855Z</time></trkpt><trkpt lat="43.2656787" lon="11.5403857"><ele>241.0</ele><time>2026-04-23T09:32:46.847Z</time></trkpt><trkpt lat="43.2657374" lon="11.5403161"><ele>242.0</ele><time>2026-04-23T09:32:47.852Z</time></trkpt><trkpt lat="43.2658204" lon="11.5402165"><ele>243.0</ele><time>2026-04-23T09:32:48.854Z</time></trkpt><trkpt lat="43.2659124" lon="11.5401003"><ele>244.0</ele><time>2026-04-23T09:32:49.85Z</time></trkpt><trkpt lat="43.2660002" lon="11.5399802"><ele>245.0</ele><time>2026-04-23T09:32:50.855Z</time></trkpt><trkpt lat="43.2660846" lon="11.5398604"><ele>246.0</ele><time>2026-04-23T09:32:51.849Z</time></trkpt><trkpt lat="43.2661669" lon="11.5397463"><ele>247.0</ele><time>2026-04-23T09:32:52.863Z</time></trkpt><trkpt lat="43.2662408" lon="11.539633"><ele>248.25</ele><time>2026-04-23T09:32:53.859Z</time></trkpt><trkpt lat="43.2663067" lon="11.539523"><ele>249.5</ele><time>2026-04-23T09:32:54.852Z</time></trkpt><trkpt lat="43.2664252" lon="11.5392997"><ele>250.75</ele><time>2026-04-23T09:32:56.856Z</time></trkpt><trkpt lat="43.2664821" lon="11.5391931"><ele>252.0</ele><time>2026-04-23T09:32:57.859Z</time></trkpt><trkpt lat="43.2665448" lon="11.5391024"><ele>249.2</ele><time>2026-04-23T09:32:58.855Z</time></trkpt><trkpt lat="43.266611" lon="11.5390364"><ele>246.39999999999998</ele><time>2026-04-23T09:32:59.847Z</time></trkpt><trkpt lat="43.2666861" lon="11.5389878"><ele>243.60000000000002</ele><time>2026-04-23T09:33:00.849Z</time></trkpt><trkpt lat="43.2667772" lon="11.538939"><ele>240.8</ele><time>2026-04-23T09:33:01.847Z</time></trkpt><trkpt lat="43.2668925" lon="11.5388796"><ele>238.0</ele><time>2026-04-23T09:33:02.854Z</time></trkpt><trkpt lat="43.2670336" lon="11.5387958"><ele>236.33333333333331</ele><time>2026-04-23T09:33:03.846Z</time></trkpt><trkpt lat="43.2671946" lon="11.5386915"><ele>234.66666666666669</ele><time>2026-04-23T09:33:04.858Z</time></trkpt><trkpt lat="43.2673528" lon="11.5385884"><ele>233.0</ele><time>2026-04-23T09:33:05.856Z</time></trkpt><trkpt lat="43.2675009" lon="11.5384878"><ele>233.0</ele><time>2026-04-23T09:33:06.856Z</time></trkpt><trkpt lat="43.2676325" lon="11.5383983"><ele>233.0</ele><time>2026-04-23T09:33:07.853Z</time></trkpt><trkpt lat="43.267751" lon="11.5383221"><ele>233.0</ele><time>2026-04-23T09:33:08.851Z</time></trkpt><trkpt lat="43.2678716" lon="11.5382358"><ele>233.0</ele><time>2026-04-23T09:33:09.848Z</time></trkpt><trkpt lat="43.2680062" lon="11.5381385"><ele>228.66666666666669</ele><time>2026-04-23T09:33:10.852Z</time></trkpt><trkpt lat="43.2681446" lon="11.5380418"><ele>224.33333333333331</ele><time>2026-04-23T09:33:11.856Z</time></trkpt><trkpt lat="43.26828" lon="11.5379473"><ele>220.0</ele><time>2026-04-23T09:33:12.857Z</time></trkpt><trkpt lat="43.2684076" lon="11.537858"><ele>219.0</ele><time>2026-04-23T09:33:13.852Z</time></trkpt><trkpt lat="43.2685254" lon="11.5377812"><ele>218.0</ele><time>2026-04-23T09:33:14.856Z</time></trkpt><trkpt lat="43.2686353" lon="11.5377209"><ele>217.0</ele><time>2026-04-23T09:33:15.859Z</time></trkpt><trkpt lat="43.2688519" lon="11.5376972"><ele>214.2</ele><time>2026-04-23T09:33:17.846Z</time></trkpt><trkpt lat="43.2689549" lon="11.5377297"><ele>211.39999999999998</ele><time>2026-04-23T09:33:18.859Z</time></trkpt><trkpt lat="43.2690624" lon="11.5377741"><ele>208.60000000000002</ele><time>2026-04-23T09:33:19.855Z</time></trkpt><trkpt lat="43.2691699" lon="11.5378086"><ele>205.8</ele><time>2026-04-23T09:33:20.852Z</time></trkpt><trkpt lat="43.2692825" lon="11.5378283"><ele>203.0</ele><time>2026-04-23T09:33:21.856Z</time></trkpt><trkpt lat="43.2694053" lon="11.5378278"><ele>203.0</ele><time>2026-04-23T09:33:22.855Z</time></trkpt><trkpt lat="43.2695292" lon="11.5378045"><ele>203.0</ele><time>2026-04-23T09:33:23.863Z</time></trkpt><trkpt lat="43.2696507" lon="11.5377621"><ele>203.0</ele><time>2026-04-23T09:33:24.861Z</time></trkpt><trkpt lat="43.2697682" lon="11.5377048"><ele>203.0</ele><time>2026-04-23T09:33:25.852Z</time></trkpt><trkpt lat="43.2698873" lon="11.5376412"><ele>199.75</ele><time>2026-04-23T09:33:26.859Z</time></trkpt><trkpt lat="43.2700033" lon="11.5375804"><ele>196.5</ele><time>2026-04-23T09:33:27.862Z</time></trkpt><trkpt lat="43.2701186" lon="11.5375523"><ele>193.25</ele><time>2026-04-23T09:33:28.862Z</time></trkpt><trkpt lat="43.2702466" lon="11.5375722"><ele>190.0</ele><time>2026-04-23T09:33:29.857Z</time></trkpt><trkpt lat="43.2703862" lon="11.5376269"><ele>190.0</ele><time>2026-04-23T09:33:30.85Z</time></trkpt><trkpt lat="43.2705185" lon="11.5376842"><ele>190.0</ele><time>2026-04-23T09:33:31.846Z</time></trkpt><trkpt lat="43.2706418" lon="11.5377287"><ele>190.0</ele><time>2026-04-23T09:33:32.852Z</time></trkpt><trkpt lat="43.2707585" lon="11.5377747"><ele>190.0</ele><time>2026-04-23T09:33:33.856Z</time></trkpt><trkpt lat="43.270873" lon="11.5378445"><ele>187.66666666666669</ele><time>2026-04-23T09:33:34.85Z</time></trkpt><trkpt lat="43.2709856" lon="11.5379339"><ele>185.33333333333334</ele><time>2026-04-23T09:33:35.847Z</time></trkpt><trkpt lat="43.2710829" lon="11.5380488"><ele>183.0</ele><time>2026-04-23T09:33:36.845Z</time></trkpt><trkpt lat="43.2712575" lon="11.5383577"><ele>183.0</ele><time>2026-04-23T09:33:38.848Z</time></trkpt><trkpt lat="43.2713446" lon="11.5385593"><ele>183.0</ele><time>2026-04-23T09:33:39.848Z</time></trkpt><trkpt lat="43.2714343" lon="11.5387904"><ele>183.0</ele><time>2026-04-23T09:33:40.853Z</time></trkpt><trkpt lat="43.2715317" lon="11.5390379"><ele>184.33333333333334</ele><time>2026-04-23T09:33:41.854Z</time></trkpt><trkpt lat="43.2716336" lon="11.5392985"><ele>185.66666666666669</ele><time>2026-04-23T09:33:42.849Z</time></trkpt><trkpt lat="43.2717386" lon="11.5395676"><ele>187.0</ele><time>2026-04-23T09:33:43.853Z</time></trkpt><trkpt lat="43.2718454" lon="11.5398438"><ele>188.0</ele><time>2026-04-23T09:33:44.855Z</time></trkpt><trkpt lat="43.2719574" lon="11.5401324"><ele>189.0</ele><time>2026-04-23T09:33:45.853Z</time></trkpt><trkpt lat="43.272073" lon="11.5404397"><ele>190.0</ele><time>2026-04-23T09:33:46.858Z</time></trkpt><trkpt lat="43.2721807" lon="11.5407333"><ele>191.0</ele><time>2026-04-23T09:33:47.851Z</time></trkpt><trkpt lat="43.2722847" lon="11.5410022"><ele>195.0</ele><time>2026-04-23T09:33:48.853Z</time></trkpt><trkpt lat="43.2723716" lon="11.5412676"><ele>199.0</ele><time>2026-04-23T09:33:49.851Z</time></trkpt><trkpt lat="43.2724457" lon="11.5415285"><ele>203.0</ele><time>2026-04-23T09:33:50.855Z</time></trkpt><trkpt lat="43.2725031" lon="11.5417808"><ele>203.0</ele><time>2026-04-23T09:33:51.856Z</time></trkpt><trkpt lat="43.2725282" lon="11.5420042"><ele>203.0</ele><time>2026-04-23T09:33:52.85Z</time></trkpt><trkpt lat="43.2725411" lon="11.5422031"><ele>203.0</ele><time>2026-04-23T09:33:53.852Z</time></trkpt><trkpt lat="43.2725552" lon="11.5423899"><ele>203.0</ele><time>2026-04-23T09:33:54.854Z</time></trkpt><trkpt lat="43.2725751" lon="11.5425652"><ele>204.60000000000002</ele><time>2026-04-23T09:33:55.857Z</time></trkpt><trkpt lat="43.2725993" lon="11.542695"><ele>206.20000000000002</ele><time>2026-04-23T09:33:56.857Z</time></trkpt><trkpt lat="43.2726291" lon="11.5427888"><ele>207.8</ele><time>2026-04-23T09:33:57.852Z</time></trkpt><trkpt lat="43.2727184" lon="11.5429248"><ele>209.4</ele><time>2026-04-23T09:33:59.858Z</time></trkpt><trkpt lat="43.2728416" lon="11.5429524"><ele>211.0</ele><time>2026-04-23T09:34:01.854Z</time></trkpt><trkpt lat="43.2729171" lon="11.542925"><ele>212.8</ele><time>2026-04-23T09:34:02.849Z</time></trkpt><trkpt lat="43.2729995" lon="11.5428976"><ele>214.60000000000002</ele><time>2026-04-23T09:34:03.854Z</time></trkpt><trkpt lat="43.2730856" lon="11.5428923"><ele>216.4</ele><time>2026-04-23T09:34:04.847Z</time></trkpt><trkpt lat="43.2731761" lon="11.5429192"><ele>218.2</ele><time>2026-04-23T09:34:05.845Z</time></trkpt><trkpt lat="43.2732671" lon="11.5429761"><ele>220.0</ele><time>2026-04-23T09:34:06.851Z</time></trkpt><trkpt lat="43.2733523" lon="11.5430557"><ele>222.4</ele><time>2026-04-23T09:34:07.854Z</time></trkpt><trkpt lat="43.2734412" lon="11.5431469"><ele>224.8</ele><time>2026-04-23T09:34:08.854Z</time></trkpt><trkpt lat="43.2735208" lon="11.5432338"><ele>227.2</ele><time>2026-04-23T09:34:09.851Z</time></trkpt><trkpt lat="43.2735805" lon="11.5433241"><ele>229.6</ele><time>2026-04-23T09:34:10.851Z</time></trkpt><trkpt lat="43.2736204" lon="11.5434293"><ele>232.0</ele><time>2026-04-23T09:34:11.85Z</time></trkpt><trkpt lat="43.2736313" lon="11.5435475"><ele>232.0</ele><time>2026-04-23T09:34:12.854Z</time></trkpt><trkpt lat="43.2736182" lon="11.5436698"><ele>232.0</ele><time>2026-04-23T09:34:13.846Z</time></trkpt><trkpt lat="43.2735763" lon="11.5437942"><ele>232.0</ele><time>2026-04-23T09:34:14.85Z</time></trkpt><trkpt lat="43.2735006" lon="11.5439269"><ele>232.0</ele><time>2026-04-23T09:34:15.853Z</time></trkpt><trkpt lat="43.2734013" lon="11.5440688"><ele>234.0</ele><time>2026-04-23T09:34:16.853Z</time></trkpt><trkpt lat="43.2733099" lon="11.5442105"><ele>236.0</ele><time>2026-04-23T09:34:17.853Z</time></trkpt><trkpt lat="43.2732417" lon="11.5443297"><ele>238.0</ele><time>2026-04-23T09:34:18.856Z</time></trkpt><trkpt lat="43.2731702" lon="11.5445587"><ele>240.0</ele><time>2026-04-23T09:34:20.853Z</time></trkpt><trkpt lat="43.2731595" lon="11.5446744"><ele>241.0</ele><time>2026-04-23T09:34:21.851Z</time></trkpt><trkpt lat="43.273154" lon="11.5447974"><ele>242.0</ele><time>2026-04-23T09:34:22.847Z</time></trkpt><trkpt lat="43.2731533" lon="11.5449195"><ele>243.0</ele><time>2026-04-23T09:34:23.859Z</time></trkpt><trkpt lat="43.2731545" lon="11.5450477"><ele>244.0</ele><time>2026-04-23T09:34:24.855Z</time></trkpt><trkpt lat="43.2731521" lon="11.5452058"><ele>245.0</ele><time>2026-04-23T09:34:25.85Z</time></trkpt><trkpt lat="43.2731448" lon="11.5453979"><ele>247.33333333333334</ele><time>2026-04-23T09:34:26.851Z</time></trkpt><trkpt lat="43.2731457" lon="11.5456148"><ele>249.66666666666669</ele><time>2026-04-23T09:34:27.848Z</time></trkpt><trkpt lat="43.2731655" lon="11.5458382"><ele>252.0</ele><time>2026-04-23T09:34:28.857Z</time></trkpt><trkpt lat="43.2732059" lon="11.5460683"><ele>255.0</ele><time>2026-04-23T09:34:29.858Z</time></trkpt><trkpt lat="43.2732616" lon="11.5462957"><ele>258.0</ele><time>2026-04-23T09:34:30.853Z</time></trkpt><trkpt lat="43.2733255" lon="11.5465021"><ele>261.0</ele><time>2026-04-23T09:34:31.855Z</time></trkpt><trkpt lat="43.2733992" lon="11.5466872"><ele>261.0</ele><time>2026-04-23T09:34:32.854Z</time></trkpt><trkpt lat="43.2734787" lon="11.5468474"><ele>261.0</ele><time>2026-04-23T09:34:33.856Z</time></trkpt><trkpt lat="43.2735601" lon="11.5469651"><ele>261.0</ele><time>2026-04-23T09:34:34.855Z</time></trkpt><trkpt lat="43.2736557" lon="11.5470483"><ele>261.0</ele><time>2026-04-23T09:34:35.852Z</time></trkpt><trkpt lat="43.2737625" lon="11.5471052"><ele>262.75</ele><time>2026-04-23T09:34:36.844Z</time></trkpt><trkpt lat="43.2738741" lon="11.5471281"><ele>264.5</ele><time>2026-04-23T09:34:37.853Z</time></trkpt><trkpt lat="43.274" lon="11.5471233"><ele>266.25</ele><time>2026-04-23T09:34:38.849Z</time></trkpt><trkpt lat="43.2741408" lon="11.5471069"><ele>268.0</ele><time>2026-04-23T09:34:39.848Z</time></trkpt><trkpt lat="43.2744183" lon="11.5470773"><ele>270.75</ele><time>2026-04-23T09:34:41.847Z</time></trkpt><trkpt lat="43.2745481" lon="11.5470688"><ele>273.5</ele><time>2026-04-23T09:34:42.853Z</time></trkpt><trkpt lat="43.2746675" lon="11.5470932"><ele>276.25</ele><time>2026-04-23T09:34:43.846Z</time></trkpt><trkpt lat="43.2747797" lon="11.5471673"><ele>279.0</ele><time>2026-04-23T09:34:44.852Z</time></trkpt><trkpt lat="43.2748946" lon="11.5472803"><ele>281.3333333333333</ele><time>2026-04-23T09:34:45.853Z</time></trkpt><trkpt lat="43.2750191" lon="11.5474083"><ele>283.66666666666663</ele><time>2026-04-23T09:34:46.85Z</time></trkpt><trkpt lat="43.2751566" lon="11.5475397"><ele>286.0</ele><time>2026-04-23T09:34:47.846Z</time></trkpt><trkpt lat="43.275303" lon="11.5476677"><ele>286.0</ele><time>2026-04-23T09:34:48.853Z</time></trkpt><trkpt lat="43.275437" lon="11.5477863"><ele>286.0</ele><time>2026-04-23T09:34:49.853Z</time></trkpt><trkpt lat="43.2755552" lon="11.5478851"><ele>286.0</ele><time>2026-04-23T09:34:50.849Z</time></trkpt><trkpt lat="43.2756637" lon="11.5479725"><ele>286.0</ele><time>2026-04-23T09:34:51.849Z</time></trkpt><trkpt lat="43.2757682" lon="11.5480391"><ele>289.75</ele><time>2026-04-23T09:34:52.859Z</time></trkpt><trkpt lat="43.2758706" lon="11.5480835"><ele>293.5</ele><time>2026-04-23T09:34:53.848Z</time></trkpt><trkpt lat="43.2759837" lon="11.5481217"><ele>297.25</ele><time>2026-04-23T09:34:54.853Z</time></trkpt><trkpt lat="43.2761124" lon="11.5481628"><ele>301.0</ele><time>2026-04-23T09:34:55.853Z</time></trkpt><trkpt lat="43.2762433" lon="11.5482119"><ele>301.0</ele><time>2026-04-23T09:34:56.851Z</time></trkpt><trkpt lat="43.2763714" lon="11.5482614"><ele>301.0</ele><time>2026-04-23T09:34:57.849Z</time></trkpt><trkpt lat="43.2765029" lon="11.5483136"><ele>301.0</ele><time>2026-04-23T09:34:58.841Z</time></trkpt><trkpt lat="43.2766233" lon="11.5483714"><ele>301.0</ele><time>2026-04-23T09:34:59.855Z</time></trkpt><trkpt lat="43.2767332" lon="11.5484371"><ele>301.66666666666663</ele><time>2026-04-23T09:35:00.846Z</time></trkpt><trkpt lat="43.2769333" lon="11.5486273"><ele>302.3333333333333</ele><time>2026-04-23T09:35:02.847Z</time></trkpt><trkpt lat="43.2770346" lon="11.5487415"><ele>303.0</ele><time>2026-04-23T09:35:03.847Z</time></trkpt><trkpt lat="43.2771444" lon="11.548849"><ele>303.0</ele><time>2026-04-23T09:35:04.85Z</time></trkpt><trkpt lat="43.2772588" lon="11.5489462"><ele>303.0</ele><time>2026-04-23T09:35:05.844Z</time></trkpt><trkpt lat="43.2773733" lon="11.5490389"><ele>303.0</ele><time>2026-04-23T09:35:06.85Z</time></trkpt><trkpt lat="43.2774838" lon="11.5491299"><ele>303.0</ele><time>2026-04-23T09:35:07.853Z</time></trkpt><trkpt lat="43.2775855" lon="11.5492183"><ele>300.2</ele><time>2026-04-23T09:35:08.846Z</time></trkpt><trkpt lat="43.2776823" lon="11.549291"><ele>297.4</ele><time>2026-04-23T09:35:09.854Z</time></trkpt><trkpt lat="43.2777759" lon="11.5493515"><ele>294.59999999999997</ele><time>2026-04-23T09:35:10.85Z</time></trkpt><trkpt lat="43.2778749" lon="11.549395"><ele>291.8</ele><time>2026-04-23T09:35:11.853Z</time></trkpt><trkpt lat="43.2779863" lon="11.5494226"><ele>289.0</ele><time>2026-04-23T09:35:12.852Z</time></trkpt><trkpt lat="43.278124" lon="11.5494263"><ele>285.25</ele><time>2026-04-23T09:35:13.856Z</time></trkpt><trkpt lat="43.2782703" lon="11.5494222"><ele>281.5</ele><time>2026-04-23T09:35:14.848Z</time></trkpt><trkpt lat="43.2784058" lon="11.5494172"><ele>277.75</ele><time>2026-04-23T09:35:15.854Z</time></trkpt><trkpt lat="43.2785307" lon="11.5494146"><ele>274.0</ele><time>2026-04-23T09:35:16.849Z</time></trkpt><trkpt lat="43.2786436" lon="11.5494185"><ele>274.0</ele><time>2026-04-23T09:35:17.852Z</time></trkpt><trkpt lat="43.2787485" lon="11.5494343"><ele>274.0</ele><time>2026-04-23T09:35:18.848Z</time></trkpt><trkpt lat="43.2788475" lon="11.5494501"><ele>274.0</ele><time>2026-04-23T09:35:19.851Z</time></trkpt><trkpt lat="43.2789343" lon="11.5494758"><ele>274.0</ele><time>2026-04-23T09:35:20.849Z</time></trkpt><trkpt lat="43.2790109" lon="11.5495164"><ele>274.0</ele><time>2026-04-23T09:35:21.85Z</time></trkpt><trkpt lat="43.2791608" lon="11.5496278"><ele>273.59999999999997</ele><time>2026-04-23T09:35:23.855Z</time></trkpt><trkpt lat="43.2792418" lon="11.5496897"><ele>273.2</ele><time>2026-04-23T09:35:24.852Z</time></trkpt><trkpt lat="43.2793292" lon="11.5497473"><ele>272.79999999999995</ele><time>2026-04-23T09:35:25.85Z</time></trkpt><trkpt lat="43.2794175" lon="11.5497987"><ele>272.4</ele><time>2026-04-23T09:35:26.851Z</time></trkpt><trkpt lat="43.2795083" lon="11.5498397"><ele>272.0</ele><time>2026-04-23T09:35:27.851Z</time></trkpt><trkpt lat="43.2796" lon="11.5498718"><ele>272.0</ele><time>2026-04-23T09:35:28.858Z</time></trkpt><trkpt lat="43.2796915" lon="11.5498939"><ele>272.0</ele><time>2026-04-23T09:35:29.85Z</time></trkpt><trkpt lat="43.2797846" lon="11.5498991"><ele>272.0</ele><time>2026-04-23T09:35:30.854Z</time></trkpt><trkpt lat="43.2798893" lon="11.5498871"><ele>272.0</ele><time>2026-04-23T09:35:31.85Z</time></trkpt><trkpt lat="43.2800061" lon="11.5498626"><ele>272.0</ele><time>2026-04-23T09:35:32.853Z</time></trkpt><trkpt lat="43.2801178" lon="11.5498242"><ele>271.4</ele><time>2026-04-23T09:35:33.855Z</time></trkpt><trkpt lat="43.2802196" lon="11.5497727"><ele>270.79999999999995</ele><time>2026-04-23T09:35:34.853Z</time></trkpt><trkpt lat="43.2803129" lon="11.5497131"><ele>270.2</ele><time>2026-04-23T09:35:35.849Z</time></trkpt><trkpt lat="43.2803966" lon="11.5496525"><ele>269.59999999999997</ele><time>2026-04-23T09:35:36.847Z</time></trkpt><trkpt lat="43.2804768" lon="11.5495967"><ele>269.0</ele><time>2026-04-23T09:35:37.847Z</time></trkpt><trkpt lat="43.2805532" lon="11.5495418"><ele>271.4</ele><time>2026-04-23T09:35:38.852Z</time></trkpt><trkpt lat="43.2806253" lon="11.5494782"><ele>273.79999999999995</ele><time>2026-04-23T09:35:39.849Z</time></trkpt><trkpt lat="43.2806928" lon="11.5493965"><ele>276.20000000000005</ele><time>2026-04-23T09:35:40.855Z</time></trkpt><trkpt lat="43.280753" lon="11.5493026"><ele>278.6</ele><time>2026-04-23T09:35:41.85Z</time></trkpt><trkpt lat="43.2808157" lon="11.5491907"><ele>281.0</ele><time>2026-04-23T09:35:42.853Z</time></trkpt><trkpt lat="43.2809786" lon="11.5489186"><ele>281.0</ele><time>2026-04-23T09:35:44.854Z</time></trkpt><trkpt lat="43.2810797" lon="11.5487809"><ele>281.0</ele><time>2026-04-23T09:35:45.854Z</time></trkpt><trkpt lat="43.281183" lon="11.5486539"><ele>281.0</ele><time>2026-04-23T09:35:46.855Z</time></trkpt><trkpt lat="43.281284" lon="11.5485432"><ele>281.0</ele><time>2026-04-23T09:35:47.849Z</time></trkpt><trkpt lat="43.2813838" lon="11.5484434"><ele>286.0</ele><time>2026-04-23T09:35:48.849Z</time></trkpt><trkpt lat="43.2814816" lon="11.5483537"><ele>291.0</ele><time>2026-04-23T09:35:49.851Z</time></trkpt><trkpt lat="43.2815769" lon="11.5482671"><ele>296.0</ele><time>2026-04-23T09:35:50.854Z</time></trkpt><trkpt lat="43.2816756" lon="11.5481843"><ele>301.0</ele><time>2026-04-23T09:35:51.855Z</time></trkpt><trkpt lat="43.2817788" lon="11.5481162"><ele>301.0</ele><time>2026-04-23T09:35:52.852Z</time></trkpt><trkpt lat="43.2818838" lon="11.5480777"><ele>301.0</ele><time>2026-04-23T09:35:53.847Z</time></trkpt><trkpt lat="43.2819763" lon="11.5480836"><ele>301.0</ele><time>2026-04-23T09:35:54.854Z</time></trkpt><trkpt lat="43.2820444" lon="11.5481214"><ele>301.0</ele><time>2026-04-23T09:35:55.856Z</time></trkpt><trkpt lat="43.2821167" lon="11.5481821"><ele>301.0</ele><time>2026-04-23T09:35:57.848Z</time></trkpt><trkpt lat="43.282201" lon="11.5481594"><ele>301.0</ele><time>2026-04-23T09:35:59.852Z</time></trkpt><trkpt lat="43.2822765" lon="11.5481557"><ele>302.75</ele><time>2026-04-23T09:36:00.854Z</time></trkpt><trkpt lat="43.2823932" lon="11.5481578"><ele>304.5</ele><time>2026-04-23T09:36:01.853Z</time></trkpt><trkpt lat="43.2825458" lon="11.5481669"><ele>306.25</ele><time>2026-04-23T09:36:02.851Z</time></trkpt><trkpt lat="43.2827068" lon="11.5481948"><ele>308.0</ele><time>2026-04-23T09:36:03.855Z</time></trkpt><trkpt lat="43.2830192" lon="11.5483362"><ele>305.0</ele><time>2026-04-23T09:36:05.853Z</time></trkpt><trkpt lat="43.283177" lon="11.5484541"><ele>302.0</ele><time>2026-04-23T09:36:06.846Z</time></trkpt><trkpt lat="43.2833148" lon="11.5485842"><ele>299.0</ele><time>2026-04-23T09:36:07.857Z</time></trkpt><trkpt lat="43.2834453" lon="11.5486903"><ele>298.5</ele><time>2026-04-23T09:36:08.849Z</time></trkpt><trkpt lat="43.2835729" lon="11.5487694"><ele>298.0</ele><time>2026-04-23T09:36:09.848Z</time></trkpt><trkpt lat="43.2837092" lon="11.5488185"><ele>297.5</ele><time>2026-04-23T09:36:10.851Z</time></trkpt><trkpt lat="43.2838458" lon="11.5488376"><ele>297.0</ele><time>2026-04-23T09:36:11.849Z</time></trkpt><trkpt lat="43.2839665" lon="11.5488447"><ele>297.0</ele><time>2026-04-23T09:36:12.849Z</time></trkpt><trkpt lat="43.2840665" lon="11.5488367"><ele>297.0</ele><time>2026-04-23T09:36:13.844Z</time></trkpt><trkpt lat="43.2841554" lon="11.5488007"><ele>297.0</ele><time>2026-04-23T09:36:14.847Z</time></trkpt><trkpt lat="43.284246" lon="11.5487289"><ele>297.0</ele><time>2026-04-23T09:36:15.852Z</time></trkpt><trkpt lat="43.2843262" lon="11.5486313"><ele>297.0</ele><time>2026-04-23T09:36:16.85Z</time></trkpt><trkpt lat="43.2843927" lon="11.5485051"><ele>296.5</ele><time>2026-04-23T09:36:17.855Z</time></trkpt><trkpt lat="43.2844515" lon="11.5483472"><ele>296.0</ele><time>2026-04-23T09:36:18.852Z</time></trkpt><trkpt lat="43.2845133" lon="11.5481581"><ele>295.5</ele><time>2026-04-23T09:36:19.853Z</time></trkpt><trkpt lat="43.2845835" lon="11.5479602"><ele>295.0</ele><time>2026-04-23T09:36:20.858Z</time></trkpt><trkpt lat="43.2846549" lon="11.547765"><ele>292.5</ele><time>2026-04-23T09:36:21.853Z</time></trkpt><trkpt lat="43.2847111" lon="11.5475769"><ele>290.0</ele><time>2026-04-23T09:36:22.856Z</time></trkpt><trkpt lat="43.2847456" lon="11.5473923"><ele>287.5</ele><time>2026-04-23T09:36:23.855Z</time></trkpt><trkpt lat="43.284764" lon="11.5472078"><ele>285.0</ele><time>2026-04-23T09:36:24.851Z</time></trkpt><trkpt lat="43.2848143" lon="11.5468726"><ele>291.25</ele><time>2026-04-23T09:36:26.86Z</time></trkpt><trkpt lat="43.2848761" lon="11.5467456"><ele>297.5</ele><time>2026-04-23T09:36:27.85Z</time></trkpt><trkpt lat="43.2849608" lon="11.5466485"><ele>303.75</ele><time>2026-04-23T09:36:28.854Z</time></trkpt><trkpt lat="43.2850668" lon="11.5465667"><ele>310.0</ele><time>2026-04-23T09:36:29.85Z</time></trkpt><trkpt lat="43.2851984" lon="11.5464934"><ele>310.0</ele><time>2026-04-23T09:36:30.854Z</time></trkpt><trkpt lat="43.2853487" lon="11.5464336"><ele>310.0</ele><time>2026-04-23T09:36:31.852Z</time></trkpt><trkpt lat="43.2854979" lon="11.5463894"><ele>310.0</ele><time>2026-04-23T09:36:32.853Z</time></trkpt><trkpt lat="43.2856362" lon="11.546346"><ele>309.5</ele><time>2026-04-23T09:36:33.846Z</time></trkpt><trkpt lat="43.2857683" lon="11.5462819"><ele>309.0</ele><time>2026-04-23T09:36:34.854Z</time></trkpt><trkpt lat="43.2858915" lon="11.5461938"><ele>308.5</ele><time>2026-04-23T09:36:35.846Z</time></trkpt><trkpt lat="43.2859979" lon="11.546099"><ele>308.0</ele><time>2026-04-23T09:36:36.85Z</time></trkpt><trkpt lat="43.2860982" lon="11.5460053"><ele>308.8</ele><time>2026-04-23T09:36:37.845Z</time></trkpt><trkpt lat="43.286194" lon="11.5459296"><ele>309.6</ele><time>2026-04-23T09:36:38.855Z</time></trkpt><trkpt lat="43.2862904" lon="11.5458811"><ele>310.4</ele><time>2026-04-23T09:36:39.849Z</time></trkpt><trkpt lat="43.2863856" lon="11.5458719"><ele>311.2</ele><time>2026-04-23T09:36:40.853Z</time></trkpt><trkpt lat="43.2864814" lon="11.5459005"><ele>312.0</ele><time>2026-04-23T09:36:41.851Z</time></trkpt><trkpt lat="43.2865816" lon="11.5459688"><ele>312.0</ele><time>2026-04-23T09:36:42.851Z</time></trkpt><trkpt lat="43.286681" lon="11.5460616"><ele>312.0</ele><time>2026-04-23T09:36:43.854Z</time></trkpt><trkpt lat="43.2867688" lon="11.5461465"><ele>312.0</ele><time>2026-04-23T09:36:44.856Z</time></trkpt><trkpt lat="43.2868568" lon="11.5461985"><ele>312.0</ele><time>2026-04-23T09:36:45.853Z</time></trkpt><trkpt lat="43.2870553" lon="11.5461598"><ele>312.0</ele><time>2026-04-23T09:36:47.858Z</time></trkpt><trkpt lat="43.2871473" lon="11.546095"><ele>312.0</ele><time>2026-04-23T09:36:48.851Z</time></trkpt><trkpt lat="43.2872241" lon="11.5460124"><ele>312.0</ele><time>2026-04-23T09:36:49.851Z</time></trkpt><trkpt lat="43.2872797" lon="11.5459057"><ele>312.0</ele><time>2026-04-23T09:36:50.855Z</time></trkpt><trkpt lat="43.2873164" lon="11.5457617"><ele>312.0</ele><time>2026-04-23T09:36:51.844Z</time></trkpt><trkpt lat="43.2873392" lon="11.5455652"><ele>308.3333333333333</ele><time>2026-04-23T09:36:52.861Z</time></trkpt><trkpt lat="43.2873592" lon="11.5453481"><ele>304.66666666666663</ele><time>2026-04-23T09:36:53.858Z</time></trkpt><trkpt lat="43.287377" lon="11.5451254"><ele>301.0</ele><time>2026-04-23T09:36:54.855Z</time></trkpt><trkpt lat="43.2873855" lon="11.5448809"><ele>301.0</ele><time>2026-04-23T09:36:55.854Z</time></trkpt><trkpt lat="43.2874049" lon="11.5446332"><ele>301.0</ele><time>2026-04-23T09:36:56.855Z</time></trkpt><trkpt lat="43.2874448" lon="11.5443963"><ele>301.0</ele><time>2026-04-23T09:36:57.846Z</time></trkpt><trkpt lat="43.287507" lon="11.5441845"><ele>300.5</ele><time>2026-04-23T09:36:58.855Z</time></trkpt><trkpt lat="43.2875699" lon="11.544015"><ele>300.0</ele><time>2026-04-23T09:36:59.846Z</time></trkpt><trkpt lat="43.2876194" lon="11.5438775"><ele>299.5</ele><time>2026-04-23T09:37:00.851Z</time></trkpt><trkpt lat="43.2876476" lon="11.5437456"><ele>299.0</ele><time>2026-04-23T09:37:01.849Z</time></trkpt><trkpt lat="43.2876492" lon="11.5435833"><ele>297.75</ele><time>2026-04-23T09:37:02.847Z</time></trkpt><trkpt lat="43.2876474" lon="11.5433941"><ele>296.5</ele><time>2026-04-23T09:37:03.848Z</time></trkpt><trkpt lat="43.2876524" lon="11.5431935"><ele>295.25</ele><time>2026-04-23T09:37:04.854Z</time></trkpt><trkpt lat="43.2876898" lon="11.5429871"><ele>294.0</ele><time>2026-04-23T09:37:05.853Z</time></trkpt><trkpt lat="43.2877487" lon="11.542783"><ele>290.0</ele><time>2026-04-23T09:37:06.851Z</time></trkpt><trkpt lat="43.2878785" lon="11.5424595"><ele>286.0</ele><time>2026-04-23T09:37:08.848Z</time></trkpt><trkpt lat="43.287964" lon="11.5423144"><ele>282.0</ele><time>2026-04-23T09:37:09.853Z</time></trkpt><trkpt lat="43.2880625" lon="11.5421543"><ele>288.6666666666667</ele><time>2026-04-23T09:37:10.852Z</time></trkpt><trkpt lat="43.2881574" lon="11.541968"><ele>295.33333333333337</ele><time>2026-04-23T09:37:11.845Z</time></trkpt><trkpt lat="43.2882461" lon="11.5417691"><ele>302.0</ele><time>2026-04-23T09:37:12.853Z</time></trkpt><trkpt lat="43.2883185" lon="11.5415811"><ele>302.0</ele><time>2026-04-23T09:37:13.849Z</time></trkpt><trkpt lat="43.2883877" lon="11.5414209"><ele>302.0</ele><time>2026-04-23T09:37:14.857Z</time></trkpt><trkpt lat="43.2884645" lon="11.5412985"><ele>302.0</ele><time>2026-04-23T09:37:15.855Z</time></trkpt><trkpt lat="43.2885651" lon="11.5412192"><ele>302.0</ele><time>2026-04-23T09:37:16.851Z</time></trkpt><trkpt lat="43.2886939" lon="11.541176"><ele>302.0</ele><time>2026-04-23T09:37:17.85Z</time></trkpt><trkpt lat="43.2888444" lon="11.5411498"><ele>302.0</ele><time>2026-04-23T09:37:18.852Z</time></trkpt><trkpt lat="43.289003" lon="11.5411222"><ele>302.0</ele><time>2026-04-23T09:37:19.855Z</time></trkpt><trkpt lat="43.2891489" lon="11.5410911"><ele>302.0</ele><time>2026-04-23T09:37:20.849Z</time></trkpt><trkpt lat="43.2892798" lon="11.5410677"><ele>302.0</ele><time>2026-04-23T09:37:21.856Z</time></trkpt><trkpt lat="43.2894026" lon="11.541076"><ele>302.0</ele><time>2026-04-23T09:37:22.848Z</time></trkpt><trkpt lat="43.2895243" lon="11.5411198"><ele>302.0</ele><time>2026-04-23T09:37:23.85Z</time></trkpt><trkpt lat="43.2896555" lon="11.5411749"><ele>305.25</ele><time>2026-04-23T09:37:24.86Z</time></trkpt><trkpt lat="43.2897892" lon="11.5412211"><ele>308.5</ele><time>2026-04-23T09:37:25.853Z</time></trkpt><trkpt lat="43.289929" lon="11.5412361"><ele>311.75</ele><time>2026-04-23T09:37:26.855Z</time></trkpt><trkpt lat="43.2900796" lon="11.5412291"><ele>315.0</ele><time>2026-04-23T09:37:27.85Z</time></trkpt><trkpt lat="43.2903696" lon="11.5412353"><ele>315.0</ele><time>2026-04-23T09:37:29.856Z</time></trkpt><trkpt lat="43.2904986" lon="11.5412642"><ele>315.0</ele><time>2026-04-23T09:37:30.853Z</time></trkpt><trkpt lat="43.2906157" lon="11.5413139"><ele>315.0</ele><time>2026-04-23T09:37:31.853Z</time></trkpt><trkpt lat="43.2907257" lon="11.5413641"><ele>315.0</ele><time>2026-04-23T09:37:32.848Z</time></trkpt><trkpt lat="43.2908365" lon="11.5414015"><ele>314.0</ele><time>2026-04-23T09:37:33.853Z</time></trkpt><trkpt lat="43.2909458" lon="11.5414244"><ele>313.0</ele><time>2026-04-23T09:37:34.848Z</time></trkpt><trkpt lat="43.2910461" lon="11.5414041"><ele>312.0</ele><time>2026-04-23T09:37:35.845Z</time></trkpt><trkpt lat="43.2911309" lon="11.5413369"><ele>311.0</ele><time>2026-04-23T09:37:36.845Z</time></trkpt><trkpt lat="43.2912046" lon="11.5412431"><ele>310.0</ele><time>2026-04-23T09:37:37.853Z</time></trkpt><trkpt lat="43.2912625" lon="11.5411361"><ele>309.0</ele><time>2026-04-23T09:37:38.857Z</time></trkpt><trkpt lat="43.2913048" lon="11.5410268"><ele>308.0</ele><time>2026-04-23T09:37:39.848Z</time></trkpt><trkpt lat="43.2913327" lon="11.5409323"><ele>307.0</ele><time>2026-04-23T09:37:40.857Z</time></trkpt><trkpt lat="43.2913399" lon="11.5408314"><ele>306.0</ele><time>2026-04-23T09:37:41.85Z</time></trkpt><trkpt lat="43.2913315" lon="11.5407048"><ele>305.0</ele><time>2026-04-23T09:37:42.85Z</time></trkpt><trkpt lat="43.2913093" lon="11.5405447"><ele>304.0</ele><time>2026-04-23T09:37:43.856Z</time></trkpt><trkpt lat="43.2912912" lon="11.5403615"><ele>303.3333333333333</ele><time>2026-04-23T09:37:44.851Z</time></trkpt><trkpt lat="43.2912957" lon="11.5401591"><ele>302.6666666666667</ele><time>2026-04-23T09:37:45.851Z</time></trkpt><trkpt lat="43.2913318" lon="11.5399446"><ele>302.0</ele><time>2026-04-23T09:37:46.849Z</time></trkpt><trkpt lat="43.2914015" lon="11.5397187"><ele>309.5</ele><time>2026-04-23T09:37:47.849Z</time></trkpt><trkpt lat="43.2914921" lon="11.5394829"><ele>317.0</ele><time>2026-04-23T09:37:48.854Z</time></trkpt><trkpt lat="43.2916724" lon="11.5390795"><ele>317.0</ele><time>2026-04-23T09:37:50.86Z</time></trkpt><trkpt lat="43.2917517" lon="11.5389323"><ele>317.0</ele><time>2026-04-23T09:37:51.855Z</time></trkpt><trkpt lat="43.2918191" lon="11.5388329"><ele>317.0</ele><time>2026-04-23T09:37:52.853Z</time></trkpt><trkpt lat="43.291892" lon="11.5387735"><ele>317.0</ele><time>2026-04-23T09:37:53.85Z</time></trkpt><trkpt lat="43.2919851" lon="11.5387546"><ele>317.0</ele><time>2026-04-23T09:37:54.846Z</time></trkpt><trkpt lat="43.292095" lon="11.5387835"><ele>317.0</ele><time>2026-04-23T09:37:55.85Z</time></trkpt><trkpt lat="43.2922027" lon="11.5388384"><ele>317.0</ele><time>2026-04-23T09:37:56.847Z</time></trkpt><trkpt lat="43.2923083" lon="11.5388901"><ele>317.0</ele><time>2026-04-23T09:37:57.852Z</time></trkpt><trkpt lat="43.2924146" lon="11.5389265"><ele>317.0</ele><time>2026-04-23T09:37:58.856Z</time></trkpt><trkpt lat="43.2925219" lon="11.5389443"><ele>317.0</ele><time>2026-04-23T09:37:59.852Z</time></trkpt><trkpt lat="43.2926209" lon="11.5389455"><ele>317.0</ele><time>2026-04-23T09:38:00.857Z</time></trkpt><trkpt lat="43.2927078" lon="11.5389233"><ele>317.0</ele><time>2026-04-23T09:38:01.853Z</time></trkpt><trkpt lat="43.2927903" lon="11.5388669"><ele>317.0</ele><time>2026-04-23T09:38:02.85Z</time></trkpt><trkpt lat="43.2928836" lon="11.5387659"><ele>317.0</ele><time>2026-04-23T09:38:03.856Z</time></trkpt><trkpt lat="43.2929967" lon="11.5386326"><ele>317.0</ele><time>2026-04-23T09:38:04.849Z</time></trkpt><trkpt lat="43.2931303" lon="11.5384909"><ele>315.75</ele><time>2026-04-23T09:38:05.856Z</time></trkpt><trkpt lat="43.2932707" lon="11.5383667"><ele>314.5</ele><time>2026-04-23T09:38:06.846Z</time></trkpt><trkpt lat="43.2933985" lon="11.5382557"><ele>313.25</ele><time>2026-04-23T09:38:07.854Z</time></trkpt><trkpt lat="43.293505" lon="11.5381627"><ele>312.0</ele><time>2026-04-23T09:38:08.847Z</time></trkpt><trkpt lat="43.2935907" lon="11.538086"><ele>312.0</ele><time>2026-04-23T09:38:09.849Z</time></trkpt><trkpt lat="43.2937165" lon="11.537976"><ele>312.0</ele><time>2026-04-23T09:38:11.85Z</time></trkpt><trkpt lat="43.2937716" lon="11.5379287"><ele>312.0</ele><time>2026-04-23T09:38:12.851Z</time></trkpt><trkpt lat="43.2938671" lon="11.5378371"><ele>312.0</ele><time>2026-04-23T09:38:14.854Z</time></trkpt><trkpt lat="43.2939731" lon="11.5377226"><ele>312.2</ele><time>2026-04-23T09:38:16.851Z</time></trkpt><trkpt lat="43.2940342" lon="11.5376485"><ele>312.4</ele><time>2026-04-23T09:38:17.853Z</time></trkpt><trkpt lat="43.2940857" lon="11.5375886"><ele>312.6</ele><time>2026-04-23T09:38:18.853Z</time></trkpt><trkpt lat="43.2941474" lon="11.5375127"><ele>312.8</ele><time>2026-04-23T09:38:19.853Z</time></trkpt><trkpt lat="43.2942237" lon="11.5374145"><ele>313.0</ele><time>2026-04-23T09:38:20.85Z</time></trkpt><trkpt lat="43.2943145" lon="11.5372964"><ele>313.0</ele><time>2026-04-23T09:38:21.853Z</time></trkpt><trkpt lat="43.2944102" lon="11.5371813"><ele>313.0</ele><time>2026-04-23T09:38:22.849Z</time></trkpt><trkpt lat="43.294493" lon="11.5370882"><ele>313.0</ele><time>2026-04-23T09:38:23.858Z</time></trkpt><trkpt lat="43.294566" lon="11.5370177"><ele>313.0</ele><time>2026-04-23T09:38:24.848Z</time></trkpt><trkpt lat="43.294638" lon="11.5369597"><ele>313.0</ele><time>2026-04-23T09:38:25.856Z</time></trkpt><trkpt lat="43.2947185" lon="11.5369198"><ele>312.0</ele><time>2026-04-23T09:38:26.849Z</time></trkpt><trkpt lat="43.2947908" lon="11.5368915"><ele>311.0</ele><time>2026-04-23T09:38:27.846Z</time></trkpt><trkpt lat="43.2948559" lon="11.5368612"><ele>310.0</ele><time>2026-04-23T09:38:28.849Z</time></trkpt><trkpt lat="43.2949225" lon="11.5368289"><ele>309.0</ele><time>2026-04-23T09:38:29.853Z</time></trkpt><trkpt lat="43.2949903" lon="11.5368055"><ele>308.0</ele><time>2026-04-23T09:38:30.857Z</time></trkpt><trkpt lat="43.2951216" lon="11.5367848"><ele>307.0</ele><time>2026-04-23T09:38:32.853Z</time></trkpt><trkpt lat="43.2952446" lon="11.5367673"><ele>307.0</ele><time>2026-04-23T09:38:34.852Z</time></trkpt><trkpt lat="43.2953609" lon="11.5367088"><ele>307.0</ele><time>2026-04-23T09:38:36.844Z</time></trkpt><trkpt lat="43.295458" lon="11.5366157"><ele>307.0</ele><time>2026-04-23T09:38:38.852Z</time></trkpt><trkpt lat="43.2955225" lon="11.5364956"><ele>307.0</ele><time>2026-04-23T09:38:40.856Z</time></trkpt><trkpt lat="43.2955817" lon="11.5363492"><ele>308.0</ele><time>2026-04-23T09:38:42.849Z</time></trkpt><trkpt lat="43.2956097" lon="11.5362618"><ele>309.0</ele><time>2026-04-23T09:38:43.854Z</time></trkpt><trkpt lat="43.2956371" lon="11.5361656"><ele>310.0</ele><time>2026-04-23T09:38:44.853Z</time></trkpt><trkpt lat="43.2956713" lon="11.5360509"><ele>311.0</ele><time>2026-04-23T09:38:45.855Z</time></trkpt><trkpt lat="43.2957133" lon="11.5359302"><ele>312.0</ele><time>2026-04-23T09:38:46.855Z</time></trkpt><trkpt lat="43.2957546" lon="11.5358101"><ele>313.0</ele><time>2026-04-23T09:38:47.847Z</time></trkpt><trkpt lat="43.295787" lon="11.5356834"><ele>315.5</ele><time>2026-04-23T09:38:48.847Z</time></trkpt><trkpt lat="43.2958094" lon="11.5355445"><ele>318.0</ele><time>2026-04-23T09:38:49.851Z</time></trkpt><trkpt lat="43.2958267" lon="11.5353829"><ele>320.5</ele><time>2026-04-23T09:38:50.853Z</time></trkpt><trkpt lat="43.295842" lon="11.5352152"><ele>323.0</ele><time>2026-04-23T09:38:51.855Z</time></trkpt><trkpt lat="43.295864" lon="11.5349108"><ele>323.79999999999995</ele><time>2026-04-23T09:38:53.851Z</time></trkpt><trkpt lat="43.2958546" lon="11.5347792"><ele>324.6</ele><time>2026-04-23T09:38:54.852Z</time></trkpt><trkpt lat="43.2958142" lon="11.5346592"><ele>325.4</ele><time>2026-04-23T09:38:55.844Z</time></trkpt><trkpt lat="43.2957377" lon="11.5345544"><ele>326.20000000000005</ele><time>2026-04-23T09:38:56.851Z</time></trkpt><trkpt lat="43.2956274" lon="11.5344746"><ele>327.0</ele><time>2026-04-23T09:38:57.85Z</time></trkpt><trkpt lat="43.2954946" lon="11.5344006"><ele>327.75</ele><time>2026-04-23T09:38:58.859Z</time></trkpt><trkpt lat="43.2953576" lon="11.5343089"><ele>328.5</ele><time>2026-04-23T09:38:59.855Z</time></trkpt><trkpt lat="43.2952319" lon="11.5341937"><ele>329.25</ele><time>2026-04-23T09:39:00.852Z</time></trkpt><trkpt lat="43.2951291" lon="11.5340725"><ele>330.0</ele><time>2026-04-23T09:39:01.853Z</time></trkpt><trkpt lat="43.2950439" lon="11.5339573"><ele>330.0</ele><time>2026-04-23T09:39:02.855Z</time></trkpt><trkpt lat="43.2949513" lon="11.5338721"><ele>330.0</ele><time>2026-04-23T09:39:03.847Z</time></trkpt><trkpt lat="43.2948324" lon="11.5338066"><ele>330.0</ele><time>2026-04-23T09:39:04.851Z</time></trkpt><trkpt lat="43.2947023" lon="11.5337387"><ele>330.0</ele><time>2026-04-23T09:39:05.848Z</time></trkpt><trkpt lat="43.2945948" lon="11.5336575"><ele>328.6</ele><time>2026-04-23T09:39:06.847Z</time></trkpt><trkpt lat="43.2945181" lon="11.5335647"><ele>327.2</ele><time>2026-04-23T09:39:07.847Z</time></trkpt><trkpt lat="43.294471" lon="11.5334561"><ele>325.79999999999995</ele><time>2026-04-23T09:39:08.854Z</time></trkpt><trkpt lat="43.2944492" lon="11.5333163"><ele>324.4</ele><time>2026-04-23T09:39:09.851Z</time></trkpt><trkpt lat="43.2944487" lon="11.5331391"><ele>323.0</ele><time>2026-04-23T09:39:10.853Z</time></trkpt><trkpt lat="43.2944564" lon="11.532923"><ele>324.0</ele><time>2026-04-23T09:39:11.854Z</time></trkpt><trkpt lat="43.294466" lon="11.532681"><ele>325.0</ele><time>2026-04-23T09:39:12.848Z</time></trkpt><trkpt lat="43.2945124" lon="11.5322677"><ele>325.0</ele><time>2026-04-23T09:39:14.848Z</time></trkpt><trkpt lat="43.2945592" lon="11.5320933"><ele>325.0</ele><time>2026-04-23T09:39:15.849Z</time></trkpt><trkpt lat="43.2946183" lon="11.5319252"><ele>325.0</ele><time>2026-04-23T09:39:16.85Z</time></trkpt><trkpt lat="43.294689" lon="11.5317582"><ele>325.0</ele><time>2026-04-23T09:39:17.85Z</time></trkpt><trkpt lat="43.2947739" lon="11.5315938"><ele>323.75</ele><time>2026-04-23T09:39:18.852Z</time></trkpt><trkpt lat="43.2948664" lon="11.5314332"><ele>322.5</ele><time>2026-04-23T09:39:19.856Z</time></trkpt><trkpt lat="43.2949557" lon="11.5312791"><ele>321.25</ele><time>2026-04-23T09:39:20.851Z</time></trkpt><trkpt lat="43.295043" lon="11.5311388"><ele>320.0</ele><time>2026-04-23T09:39:21.857Z</time></trkpt><trkpt lat="43.2951399" lon="11.5310171"><ele>320.0</ele><time>2026-04-23T09:39:22.848Z</time></trkpt><trkpt lat="43.2952479" lon="11.5309079"><ele>320.0</ele><time>2026-04-23T09:39:23.848Z</time></trkpt><trkpt lat="43.2953671" lon="11.5308104"><ele>320.0</ele><time>2026-04-23T09:39:24.85Z</time></trkpt><trkpt lat="43.2954909" lon="11.530727"><ele>320.0</ele><time>2026-04-23T09:39:25.851Z</time></trkpt><trkpt lat="43.2956172" lon="11.5306516"><ele>316.25</ele><time>2026-04-23T09:39:26.851Z</time></trkpt><trkpt lat="43.2957479" lon="11.5305828"><ele>312.5</ele><time>2026-04-23T09:39:27.856Z</time></trkpt><trkpt lat="43.2958814" lon="11.5305203"><ele>308.75</ele><time>2026-04-23T09:39:28.853Z</time></trkpt><trkpt lat="43.2960188" lon="11.5304667"><ele>305.0</ele><time>2026-04-23T09:39:29.846Z</time></trkpt><trkpt lat="43.2961584" lon="11.5304161"><ele>305.75</ele><time>2026-04-23T09:39:30.849Z</time></trkpt><trkpt lat="43.2962893" lon="11.5303681"><ele>306.5</ele><time>2026-04-23T09:39:31.856Z</time></trkpt><trkpt lat="43.2964043" lon="11.530322"><ele>307.25</ele><time>2026-04-23T09:39:32.85Z</time></trkpt><trkpt lat="43.2964996" lon="11.5302822"><ele>308.0</ele><time>2026-04-23T09:39:33.848Z</time></trkpt><trkpt lat="43.2966223" lon="11.5301837"><ele>305.6</ele><time>2026-04-23T09:39:35.853Z</time></trkpt><trkpt lat="43.2966501" lon="11.530018"><ele>303.20000000000005</ele><time>2026-04-23T09:39:37.853Z</time></trkpt><trkpt lat="43.2966309" lon="11.5299227"><ele>300.8</ele><time>2026-04-23T09:39:38.846Z</time></trkpt><trkpt lat="43.2965909" lon="11.5298333"><ele>298.40000000000003</ele><time>2026-04-23T09:39:39.847Z</time></trkpt><trkpt lat="43.2965196" lon="11.5297518"><ele>296.0</ele><time>2026-04-23T09:39:40.85Z</time></trkpt><trkpt lat="43.2964208" lon="11.5296826"><ele>295.5</ele><time>2026-04-23T09:39:41.855Z</time></trkpt><trkpt lat="43.2962891" lon="11.5296341"><ele>295.0</ele><time>2026-04-23T09:39:42.851Z</time></trkpt><trkpt lat="43.2961342" lon="11.5295903"><ele>294.5</ele><time>2026-04-23T09:39:43.857Z</time></trkpt><trkpt lat="43.2959853" lon="11.5295549"><ele>294.0</ele><time>2026-04-23T09:39:44.849Z</time></trkpt><trkpt lat="43.2958553" lon="11.5295014"><ele>294.0</ele><time>2026-04-23T09:39:45.854Z</time></trkpt><trkpt lat="43.2957278" lon="11.529415"><ele>294.0</ele><time>2026-04-23T09:39:46.849Z</time></trkpt><trkpt lat="43.2955976" lon="11.5293224"><ele>294.0</ele><time>2026-04-23T09:39:47.854Z</time></trkpt><trkpt lat="43.2954775" lon="11.5292588"><ele>294.0</ele><time>2026-04-23T09:39:48.849Z</time></trkpt><trkpt lat="43.2953827" lon="11.5292194"><ele>293.59999999999997</ele><time>2026-04-23T09:39:49.857Z</time></trkpt><trkpt lat="43.2953194" lon="11.529172"><ele>293.2</ele><time>2026-04-23T09:39:50.853Z</time></trkpt><trkpt lat="43.2953" lon="11.5290047"><ele>292.79999999999995</ele><time>2026-04-23T09:39:52.847Z</time></trkpt><trkpt lat="43.29534" lon="11.5289055"><ele>292.4</ele><time>2026-04-23T09:39:53.852Z</time></trkpt><trkpt lat="43.2954281" lon="11.5288124"><ele>292.0</ele><time>2026-04-23T09:39:54.847Z</time></trkpt><trkpt lat="43.2956672" lon="11.5286558"><ele>292.0</ele><time>2026-04-23T09:39:56.857Z</time></trkpt><trkpt lat="43.2957594" lon="11.5285985"><ele>292.0</ele><time>2026-04-23T09:39:57.856Z</time></trkpt><trkpt lat="43.2958191" lon="11.5285502"><ele>292.0</ele><time>2026-04-23T09:39:58.855Z</time></trkpt><trkpt lat="43.2958604" lon="11.5284843"><ele>292.0</ele><time>2026-04-23T09:40:00.854Z</time></trkpt><trkpt lat="43.2958833" lon="11.5283577"><ele>292.0</ele><time>2026-04-23T09:40:03.849Z</time></trkpt><trkpt lat="43.2959111" lon="11.5281814"><ele>292.0</ele><time>2026-04-23T09:40:05.852Z</time></trkpt><trkpt lat="43.295922" lon="11.5280514"><ele>292.0</ele><time>2026-04-23T09:40:06.851Z</time></trkpt><trkpt lat="43.295936" lon="11.5278796"><ele>292.0</ele><time>2026-04-23T09:40:07.847Z</time></trkpt><trkpt lat="43.2959591" lon="11.5276719"><ele>292.0</ele><time>2026-04-23T09:40:08.855Z</time></trkpt><trkpt lat="43.2959906" lon="11.5274526"><ele>292.0</ele><time>2026-04-23T09:40:09.855Z</time></trkpt><trkpt lat="43.2960248" lon="11.5272578"><ele>292.0</ele><time>2026-04-23T09:40:10.849Z</time></trkpt><trkpt lat="43.2960673" lon="11.5270952"><ele>292.0</ele><time>2026-04-23T09:40:11.849Z</time></trkpt><trkpt lat="43.2961263" lon="11.5269428"><ele>292.0</ele><time>2026-04-23T09:40:12.848Z</time></trkpt><trkpt lat="43.2962058" lon="11.5267912"><ele>291.0</ele><time>2026-04-23T09:40:13.85Z</time></trkpt><trkpt lat="43.2963047" lon="11.5266267"><ele>290.0</ele><time>2026-04-23T09:40:14.853Z</time></trkpt><trkpt lat="43.2964149" lon="11.5264595"><ele>289.0</ele><time>2026-04-23T09:40:15.85Z</time></trkpt><trkpt lat="43.2966221" lon="11.526203"><ele>289.0</ele><time>2026-04-23T09:40:17.856Z</time></trkpt><trkpt lat="43.2967084" lon="11.5261214"><ele>289.0</ele><time>2026-04-23T09:40:18.847Z</time></trkpt><trkpt lat="43.2967586" lon="11.5260365"><ele>289.0</ele><time>2026-04-23T09:40:19.852Z</time></trkpt><trkpt lat="43.2967777" lon="11.5259304"><ele>289.0</ele><time>2026-04-23T09:40:20.851Z</time></trkpt><trkpt lat="43.2967739" lon="11.5257976"><ele>289.0</ele><time>2026-04-23T09:40:21.846Z</time></trkpt><trkpt lat="43.296755" lon="11.5256328"><ele>289.0</ele><time>2026-04-23T09:40:22.847Z</time></trkpt><trkpt lat="43.2967307" lon="11.5254477"><ele>289.0</ele><time>2026-04-23T09:40:23.855Z</time></trkpt><trkpt lat="43.2967257" lon="11.5252678"><ele>289.0</ele><time>2026-04-23T09:40:24.853Z</time></trkpt><trkpt lat="43.2967294" lon="11.5250955"><ele>289.0</ele><time>2026-04-23T09:40:25.854Z</time></trkpt><trkpt lat="43.2967168" lon="11.5249196"><ele>290.0</ele><time>2026-04-23T09:40:26.852Z</time></trkpt><trkpt lat="43.2966697" lon="11.5247371"><ele>291.0</ele><time>2026-04-23T09:40:27.848Z</time></trkpt><trkpt lat="43.2966033" lon="11.5245427"><ele>292.0</ele><time>2026-04-23T09:40:28.849Z</time></trkpt><trkpt lat="43.296543" lon="11.5243378"><ele>295.3333333333333</ele><time>2026-04-23T09:40:29.854Z</time></trkpt><trkpt lat="43.2965019" lon="11.5241063"><ele>298.6666666666667</ele><time>2026-04-23T09:40:30.852Z</time></trkpt><trkpt lat="43.2964731" lon="11.5238639"><ele>302.0</ele><time>2026-04-23T09:40:31.853Z</time></trkpt><trkpt lat="43.2964453" lon="11.5236461"><ele>303.25</ele><time>2026-04-23T09:40:32.845Z</time></trkpt><trkpt lat="43.296423" lon="11.5234534"><ele>304.5</ele><time>2026-04-23T09:40:33.854Z</time></trkpt><trkpt lat="43.2964013" lon="11.5232645"><ele>305.75</ele><time>2026-04-23T09:40:34.843Z</time></trkpt><trkpt lat="43.2963938" lon="11.5230528"><ele>307.0</ele><time>2026-04-23T09:40:35.852Z</time></trkpt><trkpt lat="43.2964017" lon="11.5228485"><ele>306.66666666666663</ele><time>2026-04-23T09:40:36.846Z</time></trkpt><trkpt lat="43.2964673" lon="11.5225016"><ele>306.3333333333333</ele><time>2026-04-23T09:40:38.853Z</time></trkpt><trkpt lat="43.2965375" lon="11.5223602"><ele>306.0</ele><time>2026-04-23T09:40:39.849Z</time></trkpt><trkpt lat="43.2966196" lon="11.5222342"><ele>306.0</ele><time>2026-04-23T09:40:40.852Z</time></trkpt><trkpt lat="43.2966868" lon="11.5221036"><ele>306.0</ele><time>2026-04-23T09:40:41.845Z</time></trkpt><trkpt lat="43.2967282" lon="11.5219449"><ele>306.0</ele><time>2026-04-23T09:40:42.851Z</time></trkpt><trkpt lat="43.2967552" lon="11.5217739"><ele>306.0</ele><time>2026-04-23T09:40:43.857Z</time></trkpt><trkpt lat="43.296784" lon="11.5216205"><ele>305.6</ele><time>2026-04-23T09:40:44.859Z</time></trkpt><trkpt lat="43.2968309" lon="11.5215077"><ele>305.20000000000005</ele><time>2026-04-23T09:40:45.848Z</time></trkpt><trkpt lat="43.2969148" lon="11.5214382"><ele>304.79999999999995</ele><time>2026-04-23T09:40:46.845Z</time></trkpt><trkpt lat="43.297028" lon="11.5213887"><ele>304.4</ele><time>2026-04-23T09:40:47.846Z</time></trkpt><trkpt lat="43.2971426" lon="11.5213518"><ele>304.0</ele><time>2026-04-23T09:40:48.852Z</time></trkpt><trkpt lat="43.2972551" lon="11.5213282"><ele>304.0</ele><time>2026-04-23T09:40:49.849Z</time></trkpt><trkpt lat="43.2973735" lon="11.5213268"><ele>304.0</ele><time>2026-04-23T09:40:50.851Z</time></trkpt><trkpt lat="43.2974937" lon="11.5213555"><ele>304.0</ele><time>2026-04-23T09:40:51.851Z</time></trkpt><trkpt lat="43.2976054" lon="11.5214201"><ele>304.0</ele><time>2026-04-23T09:40:52.848Z</time></trkpt><trkpt lat="43.2977045" lon="11.5215077"><ele>304.0</ele><time>2026-04-23T09:40:53.851Z</time></trkpt><trkpt lat="43.2977989" lon="11.5216122"><ele>304.0</ele><time>2026-04-23T09:40:54.847Z</time></trkpt><trkpt lat="43.2978891" lon="11.5217182"><ele>304.0</ele><time>2026-04-23T09:40:55.851Z</time></trkpt><trkpt lat="43.2979704" lon="11.5218299"><ele>304.0</ele><time>2026-04-23T09:40:56.853Z</time></trkpt><trkpt lat="43.2980394" lon="11.5219524"><ele>304.25</ele><time>2026-04-23T09:40:57.853Z</time></trkpt><trkpt lat="43.2981685" lon="11.5222026"><ele>304.5</ele><time>2026-04-23T09:40:59.853Z</time></trkpt><trkpt lat="43.2982424" lon="11.5223088"><ele>304.75</ele><time>2026-04-23T09:41:00.851Z</time></trkpt><trkpt lat="43.2983247" lon="11.5223728"><ele>305.0</ele><time>2026-04-23T09:41:01.845Z</time></trkpt><trkpt lat="43.2984106" lon="11.5223713"><ele>305.0</ele><time>2026-04-23T09:41:02.847Z</time></trkpt><trkpt lat="43.2985033" lon="11.5223319"><ele>305.0</ele><time>2026-04-23T09:41:03.849Z</time></trkpt><trkpt lat="43.2985991" lon="11.5222914"><ele>305.0</ele><time>2026-04-23T09:41:04.846Z</time></trkpt><trkpt lat="43.2986952" lon="11.5222785"><ele>305.0</ele><time>2026-04-23T09:41:05.847Z</time></trkpt><trkpt lat="43.2987934" lon="11.5223128"><ele>305.0</ele><time>2026-04-23T09:41:06.845Z</time></trkpt><trkpt lat="43.2988918" lon="11.5223877"><ele>303.25</ele><time>2026-04-23T09:41:07.855Z</time></trkpt><trkpt lat="43.2989943" lon="11.5224631"><ele>301.5</ele><time>2026-04-23T09:41:08.847Z</time></trkpt><trkpt lat="43.2991118" lon="11.5224982"><ele>299.75</ele><time>2026-04-23T09:41:09.843Z</time></trkpt><trkpt lat="43.2992358" lon="11.5224922"><ele>298.0</ele><time>2026-04-23T09:41:10.846Z</time></trkpt><trkpt lat="43.2993535" lon="11.5224652"><ele>298.0</ele><time>2026-04-23T09:41:11.843Z</time></trkpt><trkpt lat="43.299462" lon="11.5224205"><ele>298.0</ele><time>2026-04-23T09:41:12.845Z</time></trkpt><trkpt lat="43.2995621" lon="11.5223534"><ele>298.0</ele><time>2026-04-23T09:41:13.846Z</time></trkpt><trkpt lat="43.2996638" lon="11.5222785"><ele>298.0</ele><time>2026-04-23T09:41:14.845Z</time></trkpt><trkpt lat="43.2997697" lon="11.5222192"><ele>298.25</ele><time>2026-04-23T09:41:15.846Z</time></trkpt><trkpt lat="43.2998906" lon="11.5221946"><ele>298.5</ele><time>2026-04-23T09:41:16.852Z</time></trkpt><trkpt lat="43.3000291" lon="11.5221967"><ele>298.75</ele><time>2026-04-23T09:41:17.85Z</time></trkpt><trkpt lat="43.3001715" lon="11.5222192"><ele>299.0</ele><time>2026-04-23T09:41:18.847Z</time></trkpt><trkpt lat="43.3004226" lon="11.5223385"><ele>299.0</ele><time>2026-04-23T09:41:20.845Z</time></trkpt><trkpt lat="43.3005564" lon="11.5224176"><ele>299.0</ele><time>2026-04-23T09:41:21.848Z</time></trkpt><trkpt lat="43.3007109" lon="11.5224928"><ele>299.0</ele><time>2026-04-23T09:41:22.859Z</time></trkpt><trkpt lat="43.3008759" lon="11.5225474"><ele>297.75</ele><time>2026-04-23T09:41:23.845Z</time></trkpt><trkpt lat="43.3010266" lon="11.5225923"><ele>296.5</ele><time>2026-04-23T09:41:24.845Z</time></trkpt><trkpt lat="43.3011598" lon="11.5226504"><ele>295.25</ele><time>2026-04-23T09:41:25.846Z</time></trkpt><trkpt lat="43.3012772" lon="11.5227205"><ele>294.0</ele><time>2026-04-23T09:41:26.845Z</time></trkpt><trkpt lat="43.3013827" lon="11.5227918"><ele>293.0</ele><time>2026-04-23T09:41:27.85Z</time></trkpt><trkpt lat="43.3014847" lon="11.5228545"><ele>292.0</ele><time>2026-04-23T09:41:28.845Z</time></trkpt><trkpt lat="43.3015904" lon="11.5228965"><ele>291.0</ele><time>2026-04-23T09:41:29.849Z</time></trkpt><trkpt lat="43.3017044" lon="11.5229206"><ele>290.0</ele><time>2026-04-23T09:41:30.849Z</time></trkpt><trkpt lat="43.3018241" lon="11.5229352"><ele>295.75</ele><time>2026-04-23T09:41:31.851Z</time></trkpt><trkpt lat="43.3019456" lon="11.5229441"><ele>301.5</ele><time>2026-04-23T09:41:32.853Z</time></trkpt><trkpt lat="43.3020623" lon="11.5229479"><ele>307.25</ele><time>2026-04-23T09:41:33.85Z</time></trkpt><trkpt lat="43.3021701" lon="11.5229384"><ele>313.0</ele><time>2026-04-23T09:41:34.847Z</time></trkpt><trkpt lat="43.3022769" lon="11.5229087"><ele>307.75</ele><time>2026-04-23T09:41:35.847Z</time></trkpt><trkpt lat="43.3023954" lon="11.5228547"><ele>302.5</ele><time>2026-04-23T09:41:36.844Z</time></trkpt><trkpt lat="43.3025302" lon="11.5227888"><ele>297.25</ele><time>2026-04-23T09:41:37.843Z</time></trkpt><trkpt lat="43.3026753" lon="11.5227281"><ele>292.0</ele><time>2026-04-23T09:41:38.852Z</time></trkpt><trkpt lat="43.3028218" lon="11.5226824"><ele>291.0</ele><time>2026-04-23T09:41:39.846Z</time></trkpt><trkpt lat="43.3031028" lon="11.5226562"><ele>290.0</ele><time>2026-04-23T09:41:41.847Z</time></trkpt><trkpt lat="43.3032274" lon="11.5226775"><ele>289.0</ele><time>2026-04-23T09:41:42.848Z</time></trkpt><trkpt lat="43.3033334" lon="11.5227327"><ele>289.0</ele><time>2026-04-23T09:41:43.853Z</time></trkpt><trkpt lat="43.3034241" lon="11.5228234"><ele>289.0</ele><time>2026-04-23T09:41:44.853Z</time></trkpt><trkpt lat="43.3035045" lon="11.5229488"><ele>289.0</ele><time>2026-04-23T09:41:45.845Z</time></trkpt><trkpt lat="43.3035865" lon="11.5231097"><ele>289.0</ele><time>2026-04-23T09:41:46.852Z</time></trkpt><trkpt lat="43.3036766" lon="11.5233031"><ele>290.25</ele><time>2026-04-23T09:41:47.847Z</time></trkpt><trkpt lat="43.3037693" lon="11.5234933"><ele>291.5</ele><time>2026-04-23T09:41:48.849Z</time></trkpt><trkpt lat="43.3038539" lon="11.52365"><ele>292.75</ele><time>2026-04-23T09:41:49.854Z</time></trkpt><trkpt lat="43.3039355" lon="11.5237756"><ele>294.0</ele><time>2026-04-23T09:41:50.846Z</time></trkpt><trkpt lat="43.3040231" lon="11.5238728"><ele>294.0</ele><time>2026-04-23T09:41:51.85Z</time></trkpt><trkpt lat="43.3041191" lon="11.5239369"><ele>294.0</ele><time>2026-04-23T09:41:52.853Z</time></trkpt><trkpt lat="43.3042225" lon="11.523955"><ele>294.0</ele><time>2026-04-23T09:41:53.857Z</time></trkpt><trkpt lat="43.3043266" lon="11.5238802"><ele>294.0</ele><time>2026-04-23T09:41:54.859Z</time></trkpt><trkpt lat="43.3044181" lon="11.5237833"><ele>294.0</ele><time>2026-04-23T09:41:55.861Z</time></trkpt><trkpt lat="43.3044963" lon="11.5236791"><ele>294.0</ele><time>2026-04-23T09:41:56.853Z</time></trkpt><trkpt lat="43.3045784" lon="11.5235289"><ele>294.0</ele><time>2026-04-23T09:41:57.861Z</time></trkpt><trkpt lat="43.3046615" lon="11.5233608"><ele>294.0</ele><time>2026-04-23T09:41:58.851Z</time></trkpt><trkpt lat="43.3047486" lon="11.5232243"><ele>294.0</ele><time>2026-04-23T09:41:59.847Z</time></trkpt><trkpt lat="43.3048611" lon="11.5231077"><ele>298.0</ele><time>2026-04-23T09:42:00.853Z</time></trkpt><trkpt lat="43.3051653" lon="11.5229245"><ele>302.0</ele><time>2026-04-23T09:42:02.853Z</time></trkpt><trkpt lat="43.3053398" lon="11.5228528"><ele>302.0</ele><time>2026-04-23T09:42:03.844Z</time></trkpt><trkpt lat="43.3055046" lon="11.5227985"><ele>302.0</ele><time>2026-04-23T09:42:04.845Z</time></trkpt><trkpt lat="43.3056428" lon="11.5227631"><ele>302.0</ele><time>2026-04-23T09:42:05.856Z</time></trkpt><trkpt lat="43.3057572" lon="11.522757"><ele>302.0</ele><time>2026-04-23T09:42:06.85Z</time></trkpt><trkpt lat="43.3058695" lon="11.5227862"><ele>305.0</ele><time>2026-04-23T09:42:07.856Z</time></trkpt><trkpt lat="43.3059866" lon="11.5228515"><ele>308.0</ele><time>2026-04-23T09:42:08.848Z</time></trkpt><trkpt lat="43.3061125" lon="11.5229312"><ele>311.0</ele><time>2026-04-23T09:42:09.847Z</time></trkpt><trkpt lat="43.3062509" lon="11.5230038"><ele>314.0</ele><time>2026-04-23T09:42:10.848Z</time></trkpt><trkpt lat="43.3064014" lon="11.5230623"><ele>317.6666666666667</ele><time>2026-04-23T09:42:11.847Z</time></trkpt><trkpt lat="43.306567" lon="11.5231048"><ele>321.3333333333333</ele><time>2026-04-23T09:42:12.845Z</time></trkpt><trkpt lat="43.306748" lon="11.5231313"><ele>325.0</ele><time>2026-04-23T09:42:13.851Z</time></trkpt><trkpt lat="43.3069409" lon="11.5231333"><ele>325.0</ele><time>2026-04-23T09:42:14.851Z</time></trkpt><trkpt lat="43.307118" lon="11.5231295"><ele>325.0</ele><time>2026-04-23T09:42:15.853Z</time></trkpt><trkpt lat="43.3072693" lon="11.5231286"><ele>325.0</ele><time>2026-04-23T09:42:16.853Z</time></trkpt><trkpt lat="43.3073927" lon="11.5231449"><ele>325.25</ele><time>2026-04-23T09:42:17.851Z</time></trkpt><trkpt lat="43.3074928" lon="11.5231867"><ele>325.5</ele><time>2026-04-23T09:42:18.855Z</time></trkpt><trkpt lat="43.3075766" lon="11.5232617"><ele>325.75</ele><time>2026-04-23T09:42:19.852Z</time></trkpt><trkpt lat="43.3076642" lon="11.523366"><ele>326.0</ele><time>2026-04-23T09:42:20.854Z</time></trkpt><trkpt lat="43.307777" lon="11.5234995"><ele>326.0</ele><time>2026-04-23T09:42:21.844Z</time></trkpt><trkpt lat="43.3080485" lon="11.5237651"><ele>326.0</ele><time>2026-04-23T09:42:23.849Z</time></trkpt><trkpt lat="43.3081734" lon="11.5238601"><ele>326.0</ele><time>2026-04-23T09:42:24.852Z</time></trkpt><trkpt lat="43.3082804" lon="11.5239348"><ele>326.0</ele><time>2026-04-23T09:42:25.854Z</time></trkpt><trkpt lat="43.3083717" lon="11.5239951"><ele>326.0</ele><time>2026-04-23T09:42:26.849Z</time></trkpt><trkpt lat="43.3084475" lon="11.5240484"><ele>326.0</ele><time>2026-04-23T09:42:27.852Z</time></trkpt><trkpt lat="43.3085117" lon="11.5241162"><ele>326.0</ele><time>2026-04-23T09:42:28.846Z</time></trkpt><trkpt lat="43.3085652" lon="11.5241995"><ele>326.0</ele><time>2026-04-23T09:42:29.857Z</time></trkpt><trkpt lat="43.3086112" lon="11.5242817"><ele>326.0</ele><time>2026-04-23T09:42:30.851Z</time></trkpt><trkpt lat="43.3086545" lon="11.5243583"><ele>326.0</ele><time>2026-04-23T09:42:31.852Z</time></trkpt><trkpt lat="43.3087573" lon="11.5244392"><ele>326.0</ele><time>2026-04-23T09:42:33.84Z</time></trkpt><trkpt lat="43.3088491" lon="11.524342"><ele>326.0</ele><time>2026-04-23T09:42:35.851Z</time></trkpt><trkpt lat="43.3088693" lon="11.5242254"><ele>326.0</ele><time>2026-04-23T09:42:36.85Z</time></trkpt><trkpt lat="43.3088892" lon="11.5240892"><ele>326.0</ele><time>2026-04-23T09:42:37.842Z</time></trkpt><trkpt lat="43.308911" lon="11.5239356"><ele>326.0</ele><time>2026-04-23T09:42:38.85Z</time></trkpt><trkpt lat="43.3089219" lon="11.5237597"><ele>326.0</ele><time>2026-04-23T09:42:39.85Z</time></trkpt><trkpt lat="43.3089022" lon="11.5235728"><ele>326.33333333333337</ele><time>2026-04-23T09:42:40.851Z</time></trkpt><trkpt lat="43.3088723" lon="11.5233854"><ele>326.6666666666667</ele><time>2026-04-23T09:42:41.842Z</time></trkpt><trkpt lat="43.308856" lon="11.5232088"><ele>327.0</ele><time>2026-04-23T09:42:42.848Z</time></trkpt><trkpt lat="43.3089724" lon="11.522914"><ele>321.3333333333333</ele><time>2026-04-23T09:42:44.851Z</time></trkpt><trkpt lat="43.3091001" lon="11.522787"><ele>315.66666666666663</ele><time>2026-04-23T09:42:45.845Z</time></trkpt><trkpt lat="43.309236" lon="11.5226941"><ele>310.0</ele><time>2026-04-23T09:42:46.848Z</time></trkpt><trkpt lat="43.3093731" lon="11.5226264"><ele>310.0</ele><time>2026-04-23T09:42:47.852Z</time></trkpt><trkpt lat="43.3095138" lon="11.5225536"><ele>310.0</ele><time>2026-04-23T09:42:48.855Z</time></trkpt><trkpt lat="43.3096505" lon="11.5224678"><ele>310.0</ele><time>2026-04-23T09:42:49.845Z</time></trkpt><trkpt lat="43.3097714" lon="11.5223324"><ele>309.0</ele><time>2026-04-23T09:42:50.861Z</time></trkpt><trkpt lat="43.3098572" lon="11.5221366"><ele>308.0</ele><time>2026-04-23T09:42:51.855Z</time></trkpt><trkpt lat="43.3098996" lon="11.521902"><ele>307.0</ele><time>2026-04-23T09:42:52.855Z</time></trkpt><trkpt lat="43.3098882" lon="11.5216566"><ele>306.3333333333333</ele><time>2026-04-23T09:42:53.854Z</time></trkpt><trkpt lat="43.3098205" lon="11.5214363"><ele>305.6666666666667</ele><time>2026-04-23T09:42:54.846Z</time></trkpt><trkpt lat="43.309733" lon="11.5212209"><ele>305.0</ele><time>2026-04-23T09:42:55.853Z</time></trkpt><trkpt lat="43.3096592" lon="11.521015"><ele>302.75</ele><time>2026-04-23T09:42:56.853Z</time></trkpt><trkpt lat="43.3096253" lon="11.5208196"><ele>300.5</ele><time>2026-04-23T09:42:57.856Z</time></trkpt><trkpt lat="43.3096186" lon="11.5206473"><ele>298.25</ele><time>2026-04-23T09:42:58.856Z</time></trkpt><trkpt lat="43.309614" lon="11.5204938"><ele>296.0</ele><time>2026-04-23T09:42:59.855Z</time></trkpt><trkpt lat="43.3096051" lon="11.520344"><ele>296.0</ele><time>2026-04-23T09:43:00.846Z</time></trkpt><trkpt lat="43.3095947" lon="11.5201775"><ele>296.0</ele><time>2026-04-23T09:43:01.855Z</time></trkpt><trkpt lat="43.3095885" lon="11.5200016"><ele>296.0</ele><time>2026-04-23T09:43:02.848Z</time></trkpt><trkpt lat="43.3096061" lon="11.5198072"><ele>296.0</ele><time>2026-04-23T09:43:03.847Z</time></trkpt><trkpt lat="43.309742" lon="11.5193802"><ele>296.0</ele><time>2026-04-23T09:43:05.854Z</time></trkpt><trkpt lat="43.309834" lon="11.5191617"><ele>296.0</ele><time>2026-04-23T09:43:06.849Z</time></trkpt><trkpt lat="43.3099106" lon="11.518937"><ele>296.0</ele><time>2026-04-23T09:43:07.847Z</time></trkpt><trkpt lat="43.3099505" lon="11.5187068"><ele>295.6666666666667</ele><time>2026-04-23T09:43:08.853Z</time></trkpt><trkpt lat="43.3099416" lon="11.5184683"><ele>295.3333333333333</ele><time>2026-04-23T09:43:09.854Z</time></trkpt><trkpt lat="43.3098884" lon="11.5182342"><ele>295.0</ele><time>2026-04-23T09:43:10.847Z</time></trkpt><trkpt lat="43.3098054" lon="11.518007"><ele>293.3333333333333</ele><time>2026-04-23T09:43:11.855Z</time></trkpt><trkpt lat="43.3097026" lon="11.5177901"><ele>291.6666666666667</ele><time>2026-04-23T09:43:12.849Z</time></trkpt><trkpt lat="43.3095713" lon="11.5176015"><ele>290.0</ele><time>2026-04-23T09:43:13.85Z</time></trkpt><trkpt lat="43.3094279" lon="11.5174373"><ele>290.0</ele><time>2026-04-23T09:43:14.85Z</time></trkpt><trkpt lat="43.3092994" lon="11.5172865"><ele>290.0</ele><time>2026-04-23T09:43:15.856Z</time></trkpt><trkpt lat="43.3091961" lon="11.5171215"><ele>290.0</ele><time>2026-04-23T09:43:16.848Z</time></trkpt><trkpt lat="43.3091261" lon="11.5169391"><ele>291.0</ele><time>2026-04-23T09:43:17.86Z</time></trkpt><trkpt lat="43.3091149" lon="11.5167501"><ele>292.0</ele><time>2026-04-23T09:43:18.858Z</time></trkpt><trkpt lat="43.3091592" lon="11.5165693"><ele>293.0</ele><time>2026-04-23T09:43:19.855Z</time></trkpt><trkpt lat="43.3092562" lon="11.5164261"><ele>294.0</ele><time>2026-04-23T09:43:20.851Z</time></trkpt><trkpt lat="43.3093917" lon="11.5163038"><ele>295.3333333333333</ele><time>2026-04-23T09:43:21.857Z</time></trkpt><trkpt lat="43.3095499" lon="11.5161605"><ele>296.66666666666663</ele><time>2026-04-23T09:43:22.854Z</time></trkpt><trkpt lat="43.3097097" lon="11.515987"><ele>298.0</ele><time>2026-04-23T09:43:23.849Z</time></trkpt><trkpt lat="43.3098838" lon="11.5157926"><ele>293.5</ele><time>2026-04-23T09:43:24.854Z</time></trkpt><trkpt lat="43.3102261" lon="11.5154627"><ele>289.0</ele><time>2026-04-23T09:43:26.848Z</time></trkpt><trkpt lat="43.3104163" lon="11.51535"><ele>287.0</ele><time>2026-04-23T09:43:27.854Z</time></trkpt><trkpt lat="43.3106193" lon="11.5152698"><ele>285.0</ele><time>2026-04-23T09:43:28.852Z</time></trkpt><trkpt lat="43.3108356" lon="11.5152036"><ele>283.0</ele><time>2026-04-23T09:43:29.851Z</time></trkpt><trkpt lat="43.3110662" lon="11.5151625"><ele>283.0</ele><time>2026-04-23T09:43:30.851Z</time></trkpt><trkpt lat="43.3112966" lon="11.5151481"><ele>283.0</ele><time>2026-04-23T09:43:31.846Z</time></trkpt><trkpt lat="43.3115113" lon="11.5151537"><ele>283.0</ele><time>2026-04-23T09:43:32.853Z</time></trkpt><trkpt lat="43.3117057" lon="11.5151602"><ele>285.66666666666663</ele><time>2026-04-23T09:43:33.851Z</time></trkpt><trkpt lat="43.3118789" lon="11.5151496"><ele>288.3333333333333</ele><time>2026-04-23T09:43:34.856Z</time></trkpt><trkpt lat="43.3120296" lon="11.5151006"><ele>291.0</ele><time>2026-04-23T09:43:35.85Z</time></trkpt><trkpt lat="43.3121388" lon="11.5149852"><ele>291.0</ele><time>2026-04-23T09:43:36.849Z</time></trkpt><trkpt lat="43.3122207" lon="11.514798"><ele>291.0</ele><time>2026-04-23T09:43:37.85Z</time></trkpt><trkpt lat="43.3122998" lon="11.5145751"><ele>291.0</ele><time>2026-04-23T09:43:38.854Z</time></trkpt><trkpt lat="43.3123866" lon="11.5143507"><ele>293.0</ele><time>2026-04-23T09:43:39.854Z</time></trkpt><trkpt lat="43.3124925" lon="11.5141506"><ele>295.0</ele><time>2026-04-23T09:43:40.851Z</time></trkpt><trkpt lat="43.3126394" lon="11.5139835"><ele>297.0</ele><time>2026-04-23T09:43:41.858Z</time></trkpt><trkpt lat="43.3128226" lon="11.5138571"><ele>297.0</ele><time>2026-04-23T09:43:42.856Z</time></trkpt><trkpt lat="43.3130171" lon="11.5137783"><ele>297.0</ele><time>2026-04-23T09:43:43.859Z</time></trkpt><trkpt lat="43.3132082" lon="11.5137667"><ele>297.0</ele><time>2026-04-23T09:43:44.857Z</time></trkpt><trkpt lat="43.3133957" lon="11.5138233"><ele>298.0</ele><time>2026-04-23T09:43:45.851Z</time></trkpt><trkpt lat="43.3137279" lon="11.5141094"><ele>299.0</ele><time>2026-04-23T09:43:47.857Z</time></trkpt><trkpt lat="43.3138798" lon="11.5142899"><ele>299.0</ele><time>2026-04-23T09:43:48.852Z</time></trkpt><trkpt lat="43.3140101" lon="11.514459"><ele>299.0</ele><time>2026-04-23T09:43:49.855Z</time></trkpt><trkpt lat="43.3141177" lon="11.514595"><ele>299.0</ele><time>2026-04-23T09:43:50.85Z</time></trkpt><trkpt lat="43.3142203" lon="11.514679"><ele>299.0</ele><time>2026-04-23T09:43:51.846Z</time></trkpt><trkpt lat="43.314336" lon="11.5146846"><ele>299.0</ele><time>2026-04-23T09:43:52.854Z</time></trkpt><trkpt lat="43.3144554" lon="11.5145959"><ele>299.0</ele><time>2026-04-23T09:43:53.848Z</time></trkpt><trkpt lat="43.3145653" lon="11.5144375"><ele>299.0</ele><time>2026-04-23T09:43:54.847Z</time></trkpt><trkpt lat="43.3146648" lon="11.51425"><ele>300.6666666666667</ele><time>2026-04-23T09:43:55.855Z</time></trkpt><trkpt lat="43.3147627" lon="11.5140553"><ele>302.3333333333333</ele><time>2026-04-23T09:43:56.847Z</time></trkpt><trkpt lat="43.3148595" lon="11.5138867"><ele>304.0</ele><time>2026-04-23T09:43:57.85Z</time></trkpt><trkpt lat="43.3149699" lon="11.5137849"><ele>304.0</ele><time>2026-04-23T09:43:58.848Z</time></trkpt><trkpt lat="43.3151134" lon="11.513764"><ele>304.0</ele><time>2026-04-23T09:43:59.849Z</time></trkpt><trkpt lat="43.3152677" lon="11.5137819"><ele>304.0</ele><time>2026-04-23T09:44:00.849Z</time></trkpt><trkpt lat="43.3154093" lon="11.5138219"><ele>304.0</ele><time>2026-04-23T09:44:01.85Z</time></trkpt><trkpt lat="43.3155167" lon="11.5139006"><ele>302.75</ele><time>2026-04-23T09:44:02.854Z</time></trkpt><trkpt lat="43.3155829" lon="11.514043"><ele>301.5</ele><time>2026-04-23T09:44:03.857Z</time></trkpt><trkpt lat="43.3155902" lon="11.5142406"><ele>300.25</ele><time>2026-04-23T09:44:04.857Z</time></trkpt><trkpt lat="43.3155877" lon="11.5144671"><ele>299.0</ele><time>2026-04-23T09:44:05.845Z</time></trkpt><trkpt lat="43.3156067" lon="11.5147071"><ele>299.0</ele><time>2026-04-23T09:44:06.852Z</time></trkpt><trkpt lat="43.3157824" lon="11.5151109"><ele>299.0</ele><time>2026-04-23T09:44:08.857Z</time></trkpt><trkpt lat="43.315925" lon="11.515251"><ele>299.0</ele><time>2026-04-23T09:44:09.846Z</time></trkpt><trkpt lat="43.3160809" lon="11.5153297"><ele>299.0</ele><time>2026-04-23T09:44:10.85Z</time></trkpt><trkpt lat="43.3162537" lon="11.5153169"><ele>299.0</ele><time>2026-04-23T09:44:11.854Z</time></trkpt><trkpt lat="43.316439" lon="11.5152291"><ele>299.33333333333337</ele><time>2026-04-23T09:44:12.852Z</time></trkpt><trkpt lat="43.3166304" lon="11.5151322"><ele>299.6666666666667</ele><time>2026-04-23T09:44:13.849Z</time></trkpt><trkpt lat="43.3168239" lon="11.5150456"><ele>300.0</ele><time>2026-04-23T09:44:14.848Z</time></trkpt><trkpt lat="43.3170171" lon="11.5149691"><ele>300.0</ele><time>2026-04-23T09:44:15.857Z</time></trkpt><trkpt lat="43.3171964" lon="11.5148975"><ele>300.0</ele><time>2026-04-23T09:44:16.853Z</time></trkpt><trkpt lat="43.3173547" lon="11.514815"><ele>300.0</ele><time>2026-04-23T09:44:17.854Z</time></trkpt><trkpt lat="43.3174892" lon="11.5147027"><ele>300.3333333333333</ele><time>2026-04-23T09:44:18.856Z</time></trkpt><trkpt lat="43.3175966" lon="11.51453"><ele>300.66666666666663</ele><time>2026-04-23T09:44:19.858Z</time></trkpt><trkpt lat="43.3176666" lon="11.5142864"><ele>301.0</ele><time>2026-04-23T09:44:20.856Z</time></trkpt><trkpt lat="43.3177139" lon="11.5140186"><ele>301.0</ele><time>2026-04-23T09:44:21.85Z</time></trkpt><trkpt lat="43.3177519" lon="11.5137674"><ele>301.0</ele><time>2026-04-23T09:44:22.852Z</time></trkpt><trkpt lat="43.3178026" lon="11.5135487"><ele>301.0</ele><time>2026-04-23T09:44:23.861Z</time></trkpt><trkpt lat="43.3178854" lon="11.5133764"><ele>300.0</ele><time>2026-04-23T09:44:24.85Z</time></trkpt><trkpt lat="43.3180163" lon="11.5132748"><ele>299.0</ele><time>2026-04-23T09:44:25.846Z</time></trkpt><trkpt lat="43.3181991" lon="11.5132619"><ele>298.0</ele><time>2026-04-23T09:44:26.853Z</time></trkpt><trkpt lat="43.3183813" lon="11.5133134"><ele>298.0</ele><time>2026-04-23T09:44:27.852Z</time></trkpt><trkpt lat="43.3186772" lon="11.5135473"><ele>298.0</ele><time>2026-04-23T09:44:29.852Z</time></trkpt><trkpt lat="43.3187658" lon="11.5137032"><ele>298.66666666666663</ele><time>2026-04-23T09:44:30.849Z</time></trkpt><trkpt lat="43.3188043" lon="11.5138956"><ele>299.3333333333333</ele><time>2026-04-23T09:44:31.847Z</time></trkpt><trkpt lat="43.3187843" lon="11.5141169"><ele>300.0</ele><time>2026-04-23T09:44:32.858Z</time></trkpt><trkpt lat="43.3187098" lon="11.5143399"><ele>300.0</ele><time>2026-04-23T09:44:33.846Z</time></trkpt><trkpt lat="43.3185959" lon="11.5145156"><ele>300.0</ele><time>2026-04-23T09:44:34.85Z</time></trkpt><trkpt lat="43.3184707" lon="11.5146307"><ele>300.0</ele><time>2026-04-23T09:44:35.851Z</time></trkpt><trkpt lat="43.3183661" lon="11.5147067"><ele>300.0</ele><time>2026-04-23T09:44:36.85Z</time></trkpt><trkpt lat="43.3182971" lon="11.5147834"><ele>299.6666666666667</ele><time>2026-04-23T09:44:37.85Z</time></trkpt><trkpt lat="43.3182793" lon="11.5148826"><ele>299.3333333333333</ele><time>2026-04-23T09:44:38.852Z</time></trkpt><trkpt lat="43.3183205" lon="11.5149732"><ele>299.0</ele><time>2026-04-23T09:44:39.845Z</time></trkpt><trkpt lat="43.3183942" lon="11.5150284"><ele>298.66666666666663</ele><time>2026-04-23T09:44:40.85Z</time></trkpt><trkpt lat="43.3184776" lon="11.5150237"><ele>298.3333333333333</ele><time>2026-04-23T09:44:41.853Z</time></trkpt><trkpt lat="43.3185551" lon="11.5149581"><ele>298.0</ele><time>2026-04-23T09:44:42.848Z</time></trkpt><trkpt lat="43.3186374" lon="11.5148312"><ele>298.0</ele><time>2026-04-23T09:44:43.858Z</time></trkpt><trkpt lat="43.3187265" lon="11.5146584"><ele>298.0</ele><time>2026-04-23T09:44:44.848Z</time></trkpt><trkpt lat="43.3188243" lon="11.5144815"><ele>298.0</ele><time>2026-04-23T09:44:45.848Z</time></trkpt><trkpt lat="43.3189195" lon="11.5143038"><ele>296.3333333333333</ele><time>2026-04-23T09:44:46.849Z</time></trkpt><trkpt lat="43.3189826" lon="11.5141195"><ele>294.6666666666667</ele><time>2026-04-23T09:44:47.858Z</time></trkpt><trkpt lat="43.3190114" lon="11.513901"><ele>293.0</ele><time>2026-04-23T09:44:48.854Z</time></trkpt><trkpt lat="43.319003" lon="11.5134003"><ele>292.0</ele><time>2026-04-23T09:44:50.854Z</time></trkpt><trkpt lat="43.3190251" lon="11.5131666"><ele>291.0</ele><time>2026-04-23T09:44:51.851Z</time></trkpt><trkpt lat="43.3190866" lon="11.512968"><ele>290.0</ele><time>2026-04-23T09:44:52.856Z</time></trkpt><trkpt lat="43.3191625" lon="11.5127987"><ele>287.0</ele><time>2026-04-23T09:44:53.855Z</time></trkpt><trkpt lat="43.3192271" lon="11.5126169"><ele>284.0</ele><time>2026-04-23T09:44:54.849Z</time></trkpt><trkpt lat="43.3192732" lon="11.5123897"><ele>281.0</ele><time>2026-04-23T09:44:55.851Z</time></trkpt><trkpt lat="43.3192733" lon="11.5121282"><ele>278.33333333333337</ele><time>2026-04-23T09:44:56.856Z</time></trkpt><trkpt lat="43.3192464" lon="11.5118624"><ele>275.6666666666667</ele><time>2026-04-23T09:44:57.849Z</time></trkpt><trkpt lat="43.3192035" lon="11.511598"><ele>273.0</ele><time>2026-04-23T09:44:58.845Z</time></trkpt><trkpt lat="43.3191558" lon="11.5113323"><ele>270.0</ele><time>2026-04-23T09:44:59.85Z</time></trkpt><trkpt lat="43.3191149" lon="11.5110728"><ele>267.0</ele><time>2026-04-23T09:45:00.853Z</time></trkpt><trkpt lat="43.3191102" lon="11.5108247"><ele>264.0</ele><time>2026-04-23T09:45:01.849Z</time></trkpt><trkpt lat="43.3191578" lon="11.5105879"><ele>260.6666666666667</ele><time>2026-04-23T09:45:02.851Z</time></trkpt><trkpt lat="43.3192496" lon="11.5103715"><ele>257.33333333333337</ele><time>2026-04-23T09:45:03.847Z</time></trkpt><trkpt lat="43.3193812" lon="11.5101736"><ele>254.0</ele><time>2026-04-23T09:45:04.853Z</time></trkpt><trkpt lat="43.3195278" lon="11.50998"><ele>254.0</ele><time>2026-04-23T09:45:05.855Z</time></trkpt><trkpt lat="43.3196608" lon="11.5097808"><ele>254.0</ele><time>2026-04-23T09:45:06.856Z</time></trkpt><trkpt lat="43.3197625" lon="11.509571"><ele>254.0</ele><time>2026-04-23T09:45:07.857Z</time></trkpt><trkpt lat="43.3198296" lon="11.509334"><ele>250.5</ele><time>2026-04-23T09:45:08.854Z</time></trkpt><trkpt lat="43.3198735" lon="11.5090686"><ele>247.0</ele><time>2026-04-23T09:45:09.85Z</time></trkpt><trkpt lat="43.319889" lon="11.5085227"><ele>247.0</ele><time>2026-04-23T09:45:11.856Z</time></trkpt><trkpt lat="43.3198701" lon="11.5082847"><ele>247.0</ele><time>2026-04-23T09:45:12.854Z</time></trkpt><trkpt lat="43.3198505" lon="11.5080894"><ele>247.0</ele><time>2026-04-23T09:45:13.858Z</time></trkpt><trkpt lat="43.3198363" lon="11.5079592"><ele>247.0</ele><time>2026-04-23T09:45:14.855Z</time></trkpt><trkpt lat="43.319899" lon="11.5079323"><ele>247.0</ele><time>2026-04-23T09:45:18.855Z</time></trkpt><trkpt lat="43.3199661" lon="11.5079543"><ele>247.0</ele><time>2026-04-23T09:45:20.859Z</time></trkpt><trkpt lat="43.3199627" lon="11.5078626"><ele>247.0</ele><time>2026-04-23T09:45:31.847Z</time></trkpt><trkpt lat="43.31979" lon="11.5077628"><ele>247.0</ele><time>2026-04-23T09:45:34.854Z</time></trkpt><trkpt lat="43.3197647" lon="11.5076714"><ele>247.0</ele><time>2026-04-23T09:45:35.851Z</time></trkpt><trkpt lat="43.3197572" lon="11.5075256"><ele>246.33333333333331</ele><time>2026-04-23T09:45:36.848Z</time></trkpt><trkpt lat="43.319746" lon="11.5073176"><ele>245.66666666666669</ele><time>2026-04-23T09:45:37.856Z</time></trkpt><trkpt lat="43.3197301" lon="11.5070823"><ele>245.0</ele><time>2026-04-23T09:45:38.851Z</time></trkpt><trkpt lat="43.319711" lon="11.5068337"><ele>249.33333333333334</ele><time>2026-04-23T09:45:39.85Z</time></trkpt><trkpt lat="43.3196869" lon="11.5065832"><ele>253.66666666666669</ele><time>2026-04-23T09:45:40.861Z</time></trkpt><trkpt lat="43.3196755" lon="11.506354"><ele>258.0</ele><time>2026-04-23T09:45:41.851Z</time></trkpt><trkpt lat="43.3196985" lon="11.5061642"><ele>254.5</ele><time>2026-04-23T09:45:42.847Z</time></trkpt><trkpt lat="43.3197724" lon="11.5060294"><ele>251.0</ele><time>2026-04-23T09:45:43.856Z</time></trkpt><trkpt lat="43.3198875" lon="11.5059501"><ele>247.5</ele><time>2026-04-23T09:45:44.852Z</time></trkpt><trkpt lat="43.3200403" lon="11.5059163"><ele>244.0</ele><time>2026-04-23T09:45:45.855Z</time></trkpt><trkpt lat="43.3202139" lon="11.5058873"><ele>244.0</ele><time>2026-04-23T09:45:46.854Z</time></trkpt><trkpt lat="43.3203879" lon="11.5058526"><ele>244.0</ele><time>2026-04-23T09:45:47.85Z</time></trkpt><trkpt lat="43.3205686" lon="11.5058112"><ele>244.0</ele><time>2026-04-23T09:45:48.85Z</time></trkpt><trkpt lat="43.3207398" lon="11.5057643"><ele>245.0</ele><time>2026-04-23T09:45:49.852Z</time></trkpt><trkpt lat="43.3209098" lon="11.5057194"><ele>246.0</ele><time>2026-04-23T09:45:50.857Z</time></trkpt><trkpt lat="43.321079" lon="11.5056999"><ele>247.0</ele><time>2026-04-23T09:45:51.848Z</time></trkpt><trkpt lat="43.3212509" lon="11.5057193"><ele>251.5</ele><time>2026-04-23T09:45:52.853Z</time></trkpt><trkpt lat="43.3215673" lon="11.5059397"><ele>256.0</ele><time>2026-04-23T09:45:54.854Z</time></trkpt><trkpt lat="43.3216961" lon="11.5061395"><ele>255.66666666666666</ele><time>2026-04-23T09:45:55.852Z</time></trkpt><trkpt lat="43.321823" lon="11.5063609"><ele>255.33333333333331</ele><time>2026-04-23T09:45:56.86Z</time></trkpt><trkpt lat="43.321962" lon="11.5065991"><ele>255.0</ele><time>2026-04-23T09:45:57.858Z</time></trkpt><trkpt lat="43.3221038" lon="11.5068302"><ele>259.0</ele><time>2026-04-23T09:45:58.853Z</time></trkpt><trkpt lat="43.3222418" lon="11.507044"><ele>263.0</ele><time>2026-04-23T09:45:59.854Z</time></trkpt><trkpt lat="43.3223759" lon="11.5072454"><ele>267.0</ele><time>2026-04-23T09:46:00.858Z</time></trkpt><trkpt lat="43.3225074" lon="11.5074307"><ele>267.6666666666667</ele><time>2026-04-23T09:46:01.852Z</time></trkpt><trkpt lat="43.3226486" lon="11.5075765"><ele>268.33333333333337</ele><time>2026-04-23T09:46:02.852Z</time></trkpt><trkpt lat="43.3228127" lon="11.5076608"><ele>269.0</ele><time>2026-04-23T09:46:03.854Z</time></trkpt><trkpt lat="43.3229911" lon="11.5076918"><ele>271.0</ele><time>2026-04-23T09:46:04.861Z</time></trkpt><trkpt lat="43.3231809" lon="11.5076872"><ele>273.0</ele><time>2026-04-23T09:46:05.851Z</time></trkpt><trkpt lat="43.3233762" lon="11.5076829"><ele>275.0</ele><time>2026-04-23T09:46:06.861Z</time></trkpt><trkpt lat="43.3235731" lon="11.5076999"><ele>275.0</ele><time>2026-04-23T09:46:07.854Z</time></trkpt><trkpt lat="43.3237669" lon="11.5077442"><ele>275.0</ele><time>2026-04-23T09:46:08.85Z</time></trkpt><trkpt lat="43.3239407" lon="11.5078418"><ele>275.0</ele><time>2026-04-23T09:46:09.857Z</time></trkpt><trkpt lat="43.3240922" lon="11.5079884"><ele>278.0</ele><time>2026-04-23T09:46:10.859Z</time></trkpt><trkpt lat="43.3242006" lon="11.5081911"><ele>281.0</ele><time>2026-04-23T09:46:11.855Z</time></trkpt><trkpt lat="43.3242823" lon="11.5084382"><ele>284.0</ele><time>2026-04-23T09:46:12.849Z</time></trkpt><trkpt lat="43.3243527" lon="11.5087003"><ele>288.0</ele><time>2026-04-23T09:46:13.855Z</time></trkpt><trkpt lat="43.3245186" lon="11.5091563"><ele>292.0</ele><time>2026-04-23T09:46:15.848Z</time></trkpt><trkpt lat="43.3246153" lon="11.5093335"><ele>292.0</ele><time>2026-04-23T09:46:16.854Z</time></trkpt><trkpt lat="43.3247273" lon="11.5094597"><ele>292.0</ele><time>2026-04-23T09:46:17.848Z</time></trkpt><trkpt lat="43.324853" lon="11.5095326"><ele>292.0</ele><time>2026-04-23T09:46:18.846Z</time></trkpt><trkpt lat="43.3249946" lon="11.5095621"><ele>292.0</ele><time>2026-04-23T09:46:19.848Z</time></trkpt><trkpt lat="43.3251427" lon="11.5095424"><ele>291.3333333333333</ele><time>2026-04-23T09:46:20.855Z</time></trkpt><trkpt lat="43.3252961" lon="11.5094852"><ele>290.6666666666667</ele><time>2026-04-23T09:46:21.855Z</time></trkpt><trkpt lat="43.325441" lon="11.5094158"><ele>290.0</ele><time>2026-04-23T09:46:22.856Z</time></trkpt><trkpt lat="43.3255824" lon="11.5093406"><ele>290.0</ele><time>2026-04-23T09:46:23.855Z</time></trkpt><trkpt lat="43.3257235" lon="11.5092691"><ele>290.0</ele><time>2026-04-23T09:46:24.853Z</time></trkpt><trkpt lat="43.3258601" lon="11.5092038"><ele>290.0</ele><time>2026-04-23T09:46:25.845Z</time></trkpt><trkpt lat="43.3259951" lon="11.5091418"><ele>290.0</ele><time>2026-04-23T09:46:26.848Z</time></trkpt><trkpt lat="43.3261292" lon="11.5090797"><ele>290.0</ele><time>2026-04-23T09:46:27.846Z</time></trkpt><trkpt lat="43.3262657" lon="11.5090186"><ele>290.0</ele><time>2026-04-23T09:46:28.85Z</time></trkpt><trkpt lat="43.326404" lon="11.5089557"><ele>290.0</ele><time>2026-04-23T09:46:29.856Z</time></trkpt><trkpt lat="43.3265449" lon="11.5088827"><ele>290.0</ele><time>2026-04-23T09:46:30.855Z</time></trkpt><trkpt lat="43.3266911" lon="11.508798"><ele>291.6666666666667</ele><time>2026-04-23T09:46:31.853Z</time></trkpt><trkpt lat="43.3268438" lon="11.50871"><ele>293.3333333333333</ele><time>2026-04-23T09:46:32.853Z</time></trkpt><trkpt lat="43.3270026" lon="11.5086174"><ele>295.0</ele><time>2026-04-23T09:46:33.856Z</time></trkpt><trkpt lat="43.3271636" lon="11.5085167"><ele>297.0</ele><time>2026-04-23T09:46:34.852Z</time></trkpt><trkpt lat="43.3274819" lon="11.5083084"><ele>299.0</ele><time>2026-04-23T09:46:36.855Z</time></trkpt><trkpt lat="43.3276349" lon="11.5082117"><ele>299.0</ele><time>2026-04-23T09:46:37.857Z</time></trkpt><trkpt lat="43.3277805" lon="11.508121"><ele>299.0</ele><time>2026-04-23T09:46:38.85Z</time></trkpt><trkpt lat="43.3279204" lon="11.5080317"><ele>299.0</ele><time>2026-04-23T09:46:39.853Z</time></trkpt><trkpt lat="43.328056" lon="11.5079417"><ele>300.0</ele><time>2026-04-23T09:46:40.851Z</time></trkpt><trkpt lat="43.3281871" lon="11.5078537"><ele>301.0</ele><time>2026-04-23T09:46:41.853Z</time></trkpt><trkpt lat="43.3283183" lon="11.5077696"><ele>302.0</ele><time>2026-04-23T09:46:42.857Z</time></trkpt><trkpt lat="43.3284499" lon="11.5076868"><ele>303.0</ele><time>2026-04-23T09:46:43.86Z</time></trkpt><trkpt lat="43.3285819" lon="11.5076027"><ele>303.0</ele><time>2026-04-23T09:46:44.857Z</time></trkpt><trkpt lat="43.3287146" lon="11.5075181"><ele>303.0</ele><time>2026-04-23T09:46:45.857Z</time></trkpt><trkpt lat="43.3288483" lon="11.507434"><ele>303.0</ele><time>2026-04-23T09:46:46.861Z</time></trkpt><trkpt lat="43.3289836" lon="11.5073533"><ele>303.0</ele><time>2026-04-23T09:46:47.856Z</time></trkpt><trkpt lat="43.3291219" lon="11.5072794"><ele>304.3333333333333</ele><time>2026-04-23T09:46:48.852Z</time></trkpt><trkpt lat="43.3292647" lon="11.5072187"><ele>305.66666666666663</ele><time>2026-04-23T09:46:49.855Z</time></trkpt><trkpt lat="43.3294128" lon="11.5071722"><ele>307.0</ele><time>2026-04-23T09:46:50.849Z</time></trkpt><trkpt lat="43.3295662" lon="11.5071354"><ele>307.0</ele><time>2026-04-23T09:46:51.854Z</time></trkpt><trkpt lat="43.3297229" lon="11.5071036"><ele>307.0</ele><time>2026-04-23T09:46:52.857Z</time></trkpt><trkpt lat="43.3298839" lon="11.5070742"><ele>307.0</ele><time>2026-04-23T09:46:53.86Z</time></trkpt><trkpt lat="43.3300494" lon="11.5070494"><ele>307.0</ele><time>2026-04-23T09:46:54.856Z</time></trkpt><trkpt lat="43.3302186" lon="11.5070269"><ele>307.0</ele><time>2026-04-23T09:46:55.854Z</time></trkpt><trkpt lat="43.3305534" lon="11.5069665"><ele>308.3333333333333</ele><time>2026-04-23T09:46:57.855Z</time></trkpt><trkpt lat="43.3307201" lon="11.5069332"><ele>309.6666666666667</ele><time>2026-04-23T09:46:58.858Z</time></trkpt><trkpt lat="43.3308868" lon="11.5068965"><ele>311.0</ele><time>2026-04-23T09:46:59.857Z</time></trkpt><trkpt lat="43.3310544" lon="11.5068559"><ele>311.0</ele><time>2026-04-23T09:47:00.853Z</time></trkpt><trkpt lat="43.3312199" lon="11.5068075"><ele>311.0</ele><time>2026-04-23T09:47:01.857Z</time></trkpt><trkpt lat="43.3313821" lon="11.5067387"><ele>311.0</ele><time>2026-04-23T09:47:02.853Z</time></trkpt><trkpt lat="43.3315418" lon="11.5066469"><ele>312.0</ele><time>2026-04-23T09:47:03.855Z</time></trkpt><trkpt lat="43.3316969" lon="11.5065455"><ele>313.0</ele><time>2026-04-23T09:47:04.853Z</time></trkpt><trkpt lat="43.3318448" lon="11.5064471"><ele>314.0</ele><time>2026-04-23T09:47:05.85Z</time></trkpt><trkpt lat="43.3319836" lon="11.5063538"><ele>314.0</ele><time>2026-04-23T09:47:06.849Z</time></trkpt><trkpt lat="43.3321182" lon="11.5062636"><ele>314.0</ele><time>2026-04-23T09:47:07.855Z</time></trkpt><trkpt lat="43.3322524" lon="11.5061719"><ele>314.0</ele><time>2026-04-23T09:47:08.853Z</time></trkpt><trkpt lat="43.3323858" lon="11.506081"><ele>314.0</ele><time>2026-04-23T09:47:09.85Z</time></trkpt><trkpt lat="43.3325196" lon="11.505999"><ele>314.5</ele><time>2026-04-23T09:47:10.853Z</time></trkpt><trkpt lat="43.3326576" lon="11.5059302"><ele>315.0</ele><time>2026-04-23T09:47:11.853Z</time></trkpt><trkpt lat="43.3328019" lon="11.5058781"><ele>315.5</ele><time>2026-04-23T09:47:12.856Z</time></trkpt><trkpt lat="43.3329506" lon="11.5058401"><ele>316.0</ele><time>2026-04-23T09:47:13.859Z</time></trkpt><trkpt lat="43.3331046" lon="11.5058106"><ele>316.0</ele><time>2026-04-23T09:47:14.855Z</time></trkpt><trkpt lat="43.3332625" lon="11.5057824"><ele>316.0</ele><time>2026-04-23T09:47:15.856Z</time></trkpt><trkpt lat="43.3334191" lon="11.5057515"><ele>316.0</ele><time>2026-04-23T09:47:16.854Z</time></trkpt><trkpt lat="43.3337054" lon="11.5056884"><ele>316.0</ele><time>2026-04-23T09:47:18.853Z</time></trkpt><trkpt lat="43.3338381" lon="11.5056609"><ele>316.0</ele><time>2026-04-23T09:47:19.855Z</time></trkpt><trkpt lat="43.3339764" lon="11.5056324"><ele>316.0</ele><time>2026-04-23T09:47:20.85Z</time></trkpt><trkpt lat="43.3341231" lon="11.5056029"><ele>316.0</ele><time>2026-04-23T09:47:21.845Z</time></trkpt><trkpt lat="43.3342756" lon="11.5055715"><ele>315.66666666666663</ele><time>2026-04-23T09:47:22.855Z</time></trkpt><trkpt lat="43.3344342" lon="11.5055424"><ele>315.3333333333333</ele><time>2026-04-23T09:47:23.849Z</time></trkpt><trkpt lat="43.3345948" lon="11.5055093"><ele>315.0</ele><time>2026-04-23T09:47:24.85Z</time></trkpt><trkpt lat="43.3347614" lon="11.5054746"><ele>314.6666666666667</ele><time>2026-04-23T09:47:25.855Z</time></trkpt><trkpt lat="43.3349392" lon="11.5054369"><ele>314.33333333333337</ele><time>2026-04-23T09:47:26.853Z</time></trkpt><trkpt lat="43.3351293" lon="11.5053976"><ele>314.0</ele><time>2026-04-23T09:47:27.855Z</time></trkpt><trkpt lat="43.3353283" lon="11.5053575"><ele>315.33333333333337</ele><time>2026-04-23T09:47:28.847Z</time></trkpt><trkpt lat="43.3355272" lon="11.5053171"><ele>316.6666666666667</ele><time>2026-04-23T09:47:29.848Z</time></trkpt><trkpt lat="43.3357188" lon="11.5052802"><ele>318.0</ele><time>2026-04-23T09:47:30.85Z</time></trkpt><trkpt lat="43.3359044" lon="11.5052441"><ele>318.0</ele><time>2026-04-23T09:47:31.849Z</time></trkpt><trkpt lat="43.336085" lon="11.5052067"><ele>318.0</ele><time>2026-04-23T09:47:32.855Z</time></trkpt><trkpt lat="43.3362631" lon="11.5051701"><ele>318.0</ele><time>2026-04-23T09:47:33.858Z</time></trkpt><trkpt lat="43.3364399" lon="11.5051361"><ele>320.0</ele><time>2026-04-23T09:47:34.849Z</time></trkpt><trkpt lat="43.3366098" lon="11.505103"><ele>322.0</ele><time>2026-04-23T09:47:35.854Z</time></trkpt><trkpt lat="43.3367742" lon="11.5050789"><ele>324.0</ele><time>2026-04-23T09:47:36.853Z</time></trkpt><trkpt lat="43.3369366" lon="11.5050773"><ele>324.5</ele><time>2026-04-23T09:47:37.849Z</time></trkpt><trkpt lat="43.3372531" lon="11.5051584"><ele>325.0</ele><time>2026-04-23T09:47:39.852Z</time></trkpt><trkpt lat="43.3374038" lon="11.5052297"><ele>325.0</ele><time>2026-04-23T09:47:40.849Z</time></trkpt><trkpt lat="43.3375496" lon="11.5053178"><ele>325.0</ele><time>2026-04-23T09:47:41.849Z</time></trkpt><trkpt lat="43.3376973" lon="11.5054172"><ele>325.0</ele><time>2026-04-23T09:47:42.852Z</time></trkpt><trkpt lat="43.3378462" lon="11.5055251"><ele>326.3333333333333</ele><time>2026-04-23T09:47:43.852Z</time></trkpt><trkpt lat="43.3379969" lon="11.505635"><ele>327.6666666666667</ele><time>2026-04-23T09:47:44.855Z</time></trkpt><trkpt lat="43.3381432" lon="11.505736"><ele>329.0</ele><time>2026-04-23T09:47:45.855Z</time></trkpt><trkpt lat="43.3382924" lon="11.5058179"><ele>330.0</ele><time>2026-04-23T09:47:46.858Z</time></trkpt><trkpt lat="43.3384473" lon="11.5058736"><ele>331.0</ele><time>2026-04-23T09:47:47.848Z</time></trkpt><trkpt lat="43.3386044" lon="11.5059038"><ele>332.0</ele><time>2026-04-23T09:47:48.845Z</time></trkpt><trkpt lat="43.3387561" lon="11.5059136"><ele>333.25</ele><time>2026-04-23T09:47:49.856Z</time></trkpt><trkpt lat="43.3389038" lon="11.5059044"><ele>334.5</ele><time>2026-04-23T09:47:50.86Z</time></trkpt><trkpt lat="43.3390453" lon="11.5058775"><ele>335.75</ele><time>2026-04-23T09:47:51.85Z</time></trkpt><trkpt lat="43.3391781" lon="11.5058393"><ele>337.0</ele><time>2026-04-23T09:47:52.847Z</time></trkpt><trkpt lat="43.3393014" lon="11.5057947"><ele>337.0</ele><time>2026-04-23T09:47:53.852Z</time></trkpt><trkpt lat="43.3394221" lon="11.5057449"><ele>337.0</ele><time>2026-04-23T09:47:54.849Z</time></trkpt><trkpt lat="43.3395485" lon="11.5056948"><ele>337.0</ele><time>2026-04-23T09:47:55.847Z</time></trkpt><trkpt lat="43.3396748" lon="11.5056465"><ele>337.0</ele><time>2026-04-23T09:47:56.849Z</time></trkpt><trkpt lat="43.3397992" lon="11.5056004"><ele>336.66666666666663</ele><time>2026-04-23T09:47:57.854Z</time></trkpt><trkpt lat="43.3399226" lon="11.5055568"><ele>336.3333333333333</ele><time>2026-04-23T09:47:58.848Z</time></trkpt><trkpt lat="43.3401628" lon="11.5054718"><ele>336.0</ele><time>2026-04-23T09:48:00.846Z</time></trkpt><trkpt lat="43.3402739" lon="11.5054321"><ele>335.8333333333333</ele><time>2026-04-23T09:48:01.851Z</time></trkpt><trkpt lat="43.3403734" lon="11.5053968"><ele>335.6666666666667</ele><time>2026-04-23T09:48:02.857Z</time></trkpt><trkpt lat="43.3404578" lon="11.5053722"><ele>335.5</ele><time>2026-04-23T09:48:03.853Z</time></trkpt><trkpt lat="43.3405283" lon="11.5053627"><ele>335.33333333333337</ele><time>2026-04-23T09:48:04.854Z</time></trkpt><trkpt lat="43.3406269" lon="11.5053781"><ele>335.1666666666667</ele><time>2026-04-23T09:48:06.845Z</time></trkpt><trkpt lat="43.3406999" lon="11.5054192"><ele>335.0</ele><time>2026-04-23T09:48:08.852Z</time></trkpt><trkpt lat="43.3407816" lon="11.5054081"><ele>335.0</ele><time>2026-04-23T09:48:10.853Z</time></trkpt><trkpt lat="43.3408601" lon="11.5053244"><ele>335.0</ele><time>2026-04-23T09:48:12.853Z</time></trkpt><trkpt lat="43.3409563" lon="11.5052208"><ele>335.0</ele><time>2026-04-23T09:48:14.859Z</time></trkpt><trkpt lat="43.3410251" lon="11.505181"><ele>335.0</ele><time>2026-04-23T09:48:15.86Z</time></trkpt><trkpt lat="43.3410975" lon="11.5051557"><ele>335.0</ele><time>2026-04-23T09:48:16.85Z</time></trkpt><trkpt lat="43.3411674" lon="11.5051315"><ele>335.0</ele><time>2026-04-23T09:48:17.853Z</time></trkpt><trkpt lat="43.3412372" lon="11.5051089"><ele>335.0</ele><time>2026-04-23T09:48:18.855Z</time></trkpt><trkpt lat="43.3413125" lon="11.5050855"><ele>335.0</ele><time>2026-04-23T09:48:19.855Z</time></trkpt><trkpt lat="43.341469" lon="11.5050447"><ele>335.0</ele><time>2026-04-23T09:48:21.853Z</time></trkpt><trkpt lat="43.3415418" lon="11.5050294"><ele>335.0</ele><time>2026-04-23T09:48:22.848Z</time></trkpt><trkpt lat="43.341615" lon="11.5050182"><ele>335.0</ele><time>2026-04-23T09:48:23.858Z</time></trkpt><trkpt lat="43.3416892" lon="11.5050058"><ele>335.0</ele><time>2026-04-23T09:48:24.858Z</time></trkpt><trkpt lat="43.3417693" lon="11.504991"><ele>335.0</ele><time>2026-04-23T09:48:25.846Z</time></trkpt><trkpt lat="43.3418484" lon="11.5049779"><ele>335.0</ele><time>2026-04-23T09:48:26.854Z</time></trkpt><trkpt lat="43.3419204" lon="11.504968"><ele>335.0</ele><time>2026-04-23T09:48:27.85Z</time></trkpt><trkpt lat="43.3419933" lon="11.5049507"><ele>335.0</ele><time>2026-04-23T09:48:28.856Z</time></trkpt><trkpt lat="43.3420704" lon="11.5049256"><ele>335.0</ele><time>2026-04-23T09:48:29.855Z</time></trkpt><trkpt lat="43.3421488" lon="11.5049065"><ele>335.5</ele><time>2026-04-23T09:48:30.853Z</time></trkpt><trkpt lat="43.3422284" lon="11.5048911"><ele>336.0</ele><time>2026-04-23T09:48:31.855Z</time></trkpt><trkpt lat="43.3423096" lon="11.504874"><ele>336.5</ele><time>2026-04-23T09:48:32.856Z</time></trkpt><trkpt lat="43.3423761" lon="11.504859"><ele>337.0</ele><time>2026-04-23T09:48:33.848Z</time></trkpt><trkpt lat="43.3424493" lon="11.5048381"><ele>337.5</ele><time>2026-04-23T09:48:38.855Z</time></trkpt><trkpt lat="43.3425664" lon="11.5048283"><ele>338.0</ele><time>2026-04-23T09:48:40.857Z</time></trkpt><trkpt lat="43.3428142" lon="11.5047774"><ele>338.0</ele><time>2026-04-23T09:48:42.858Z</time></trkpt><trkpt lat="43.3429778" lon="11.5047538"><ele>338.0</ele><time>2026-04-23T09:48:43.849Z</time></trkpt><trkpt lat="43.3431504" lon="11.5047225"><ele>338.0</ele><time>2026-04-23T09:48:44.857Z</time></trkpt><trkpt lat="43.3433151" lon="11.5046936"><ele>338.0</ele><time>2026-04-23T09:48:45.85Z</time></trkpt><trkpt lat="43.3434629" lon="11.5046677"><ele>338.0</ele><time>2026-04-23T09:48:46.857Z</time></trkpt><trkpt lat="43.3435939" lon="11.5046444"><ele>338.0</ele><time>2026-04-23T09:48:47.854Z</time></trkpt><trkpt lat="43.3437149" lon="11.5046191"><ele>338.0</ele><time>2026-04-23T09:48:48.853Z</time></trkpt><trkpt lat="43.343834" lon="11.5045942"><ele>337.5</ele><time>2026-04-23T09:48:49.853Z</time></trkpt><trkpt lat="43.3439513" lon="11.5045708"><ele>337.0</ele><time>2026-04-23T09:48:50.845Z</time></trkpt><trkpt lat="43.3440736" lon="11.5045492"><ele>336.5</ele><time>2026-04-23T09:48:51.854Z</time></trkpt><trkpt lat="43.3441967" lon="11.5045277"><ele>336.0</ele><time>2026-04-23T09:48:52.859Z</time></trkpt><trkpt lat="43.3443111" lon="11.504506"><ele>336.0</ele><time>2026-04-23T09:48:53.857Z</time></trkpt><trkpt lat="43.3444141" lon="11.5044855"><ele>336.0</ele><time>2026-04-23T09:48:54.845Z</time></trkpt><trkpt lat="43.3445053" lon="11.5044665"><ele>336.0</ele><time>2026-04-23T09:48:55.854Z</time></trkpt><trkpt lat="43.3445795" lon="11.5044541"><ele>336.0</ele><time>2026-04-23T09:48:56.85Z</time></trkpt><trkpt lat="43.3446841" lon="11.5044437"><ele>336.0</ele><time>2026-04-23T09:48:58.855Z</time></trkpt><trkpt lat="43.3447452" lon="11.5043894"><ele>336.0</ele><time>2026-04-23T09:49:00.847Z</time></trkpt><trkpt lat="43.344788" lon="11.5042534"><ele>337.4</ele><time>2026-04-23T09:49:02.853Z</time></trkpt><trkpt lat="43.3448539" lon="11.5040728"><ele>338.8</ele><time>2026-04-23T09:49:04.853Z</time></trkpt><trkpt lat="43.3449024" lon="11.5039817"><ele>340.2</ele><time>2026-04-23T09:49:05.854Z</time></trkpt><trkpt lat="43.3449463" lon="11.5038938"><ele>341.59999999999997</ele><time>2026-04-23T09:49:06.848Z</time></trkpt><trkpt lat="43.3449818" lon="11.5038067"><ele>343.0</ele><time>2026-04-23T09:49:07.855Z</time></trkpt><trkpt lat="43.3450055" lon="11.5037151"><ele>343.0</ele><time>2026-04-23T09:49:08.857Z</time></trkpt><trkpt lat="43.345003" lon="11.5035548"><ele>343.0</ele><time>2026-04-23T09:49:10.855Z</time></trkpt><trkpt lat="43.3449625" lon="11.5034385"><ele>343.0</ele><time>2026-04-23T09:49:12.853Z</time></trkpt><trkpt lat="43.3449202" lon="11.5033145"><ele>343.0</ele><time>2026-04-23T09:49:14.86Z</time></trkpt><trkpt lat="43.3448857" lon="11.5031758"><ele>343.0</ele><time>2026-04-23T09:49:16.846Z</time></trkpt><trkpt lat="43.3448773" lon="11.5029971"><ele>343.2</ele><time>2026-04-23T09:49:18.846Z</time></trkpt><trkpt lat="43.3448828" lon="11.5028944"><ele>343.4</ele><time>2026-04-23T09:49:19.849Z</time></trkpt><trkpt lat="43.3448968" lon="11.5027629"><ele>343.59999999999997</ele><time>2026-04-23T09:49:21.845Z</time></trkpt><trkpt lat="43.3449214" lon="11.5026795"><ele>343.79999999999995</ele><time>2026-04-23T09:49:28.85Z</time></trkpt><trkpt lat="43.3449897" lon="11.5024677"><ele>344.0</ele><time>2026-04-23T09:49:32.85Z</time></trkpt><trkpt lat="43.3450206" lon="11.5023779"><ele>344.0</ele><time>2026-04-23T09:49:33.853Z</time></trkpt><trkpt lat="43.3450494" lon="11.5022909"><ele>344.0</ele><time>2026-04-23T09:49:34.845Z</time></trkpt><trkpt lat="43.3450796" lon="11.5022052"><ele>344.0</ele><time>2026-04-23T09:49:35.852Z</time></trkpt><trkpt lat="43.3451153" lon="11.5021104"><ele>344.0</ele><time>2026-04-23T09:49:36.845Z</time></trkpt><trkpt lat="43.3451508" lon="11.5020065"><ele>344.0</ele><time>2026-04-23T09:49:37.848Z</time></trkpt><trkpt lat="43.3451834" lon="11.5019042"><ele>344.0</ele><time>2026-04-23T09:49:38.848Z</time></trkpt><trkpt lat="43.3452081" lon="11.5018107"><ele>342.4</ele><time>2026-04-23T09:49:39.846Z</time></trkpt><trkpt lat="43.3452237" lon="11.5017248"><ele>340.79999999999995</ele><time>2026-04-23T09:49:40.851Z</time></trkpt><trkpt lat="43.345226" lon="11.5015573"><ele>339.20000000000005</ele><time>2026-04-23T09:49:42.845Z</time></trkpt><trkpt lat="43.345185" lon="11.5014094"><ele>337.6</ele><time>2026-04-23T09:49:44.847Z</time></trkpt><trkpt lat="43.3451332" lon="11.5012759"><ele>336.0</ele><time>2026-04-23T09:49:46.85Z</time></trkpt><trkpt lat="43.3450757" lon="11.5011262"><ele>335.8</ele><time>2026-04-23T09:49:48.848Z</time></trkpt><trkpt lat="43.3450398" lon="11.5010531"><ele>335.6</ele><time>2026-04-23T09:49:49.844Z</time></trkpt><trkpt lat="43.3449295" lon="11.5008453"><ele>335.4</ele><time>2026-04-23T09:49:53.853Z</time></trkpt><trkpt lat="43.3449232" lon="11.5007323"><ele>335.2</ele><time>2026-04-23T09:49:56.852Z</time></trkpt><trkpt lat="43.3449716" lon="11.5006627"><ele>335.0</ele><time>2026-04-23T09:50:04.845Z</time></trkpt><trkpt lat="43.3450208" lon="11.5006056"><ele>335.0</ele><time>2026-04-23T09:50:08.849Z</time></trkpt><trkpt lat="43.3450278" lon="11.5005134"><ele>335.0</ele><time>2026-04-23T09:50:16.853Z</time></trkpt><trkpt lat="43.344906" lon="11.5001743"><ele>335.0</ele><time>2026-04-23T09:50:19.856Z</time></trkpt><trkpt lat="43.3448486" lon="11.5000056"><ele>335.0</ele><time>2026-04-23T09:50:20.853Z</time></trkpt><trkpt lat="43.3447826" lon="11.4998193"><ele>335.0</ele><time>2026-04-23T09:50:21.85Z</time></trkpt><trkpt lat="43.3447055" lon="11.4996167"><ele>335.0</ele><time>2026-04-23T09:50:22.858Z</time></trkpt><trkpt lat="43.3446285" lon="11.4994132"><ele>335.25</ele><time>2026-04-23T09:50:23.852Z</time></trkpt><trkpt lat="43.3445649" lon="11.4992361"><ele>335.5</ele><time>2026-04-23T09:50:24.852Z</time></trkpt><trkpt lat="43.3445118" lon="11.4990746"><ele>335.75</ele><time>2026-04-23T09:50:25.846Z</time></trkpt><trkpt lat="43.3444652" lon="11.4989402"><ele>336.0</ele><time>2026-04-23T09:50:26.848Z</time></trkpt><trkpt lat="43.3444282" lon="11.4988246"><ele>335.6666666666667</ele><time>2026-04-23T09:50:27.849Z</time></trkpt><trkpt lat="43.3443989" lon="11.4987241"><ele>335.3333333333333</ele><time>2026-04-23T09:50:28.846Z</time></trkpt><trkpt lat="43.3443737" lon="11.4986373"><ele>335.0</ele><time>2026-04-23T09:50:29.855Z</time></trkpt><trkpt lat="43.344331" lon="11.4984926"><ele>334.66666666666663</ele><time>2026-04-23T09:50:31.855Z</time></trkpt><trkpt lat="43.3442945" lon="11.4984048"><ele>334.3333333333333</ele><time>2026-04-23T09:50:32.853Z</time></trkpt><trkpt lat="43.3442424" lon="11.4982829"><ele>334.0</ele><time>2026-04-23T09:50:33.852Z</time></trkpt><trkpt lat="43.3441834" lon="11.4981261"><ele>334.0</ele><time>2026-04-23T09:50:34.85Z</time></trkpt><trkpt lat="43.3441252" lon="11.4979561"><ele>334.0</ele><time>2026-04-23T09:50:35.85Z</time></trkpt><trkpt lat="43.3440669" lon="11.4977847"><ele>334.0</ele><time>2026-04-23T09:50:36.854Z</time></trkpt><trkpt lat="43.3440122" lon="11.4976247"><ele>334.0</ele><time>2026-04-23T09:50:37.857Z</time></trkpt><trkpt lat="43.3439182" lon="11.4973707"><ele>334.0</ele><time>2026-04-23T09:50:39.848Z</time></trkpt><trkpt lat="43.3438826" lon="11.4972779"><ele>334.0</ele><time>2026-04-23T09:50:40.851Z</time></trkpt><trkpt lat="43.3438302" lon="11.4971591"><ele>334.0</ele><time>2026-04-23T09:50:42.853Z</time></trkpt><trkpt lat="43.3437748" lon="11.4970663"><ele>334.0</ele><time>2026-04-23T09:50:44.854Z</time></trkpt><trkpt lat="43.3436872" lon="11.4969439"><ele>334.0</ele><time>2026-04-23T09:50:46.849Z</time></trkpt><trkpt lat="43.3436347" lon="11.4968789"><ele>334.0</ele><time>2026-04-23T09:50:47.853Z</time></trkpt><trkpt lat="43.3435816" lon="11.4968142"><ele>334.0</ele><time>2026-04-23T09:50:48.854Z</time></trkpt><trkpt lat="43.3435281" lon="11.4967482"><ele>334.0</ele><time>2026-04-23T09:50:49.854Z</time></trkpt><trkpt lat="43.3434756" lon="11.4966806"><ele>334.0</ele><time>2026-04-23T09:50:50.855Z</time></trkpt><trkpt lat="43.3434239" lon="11.4966086"><ele>334.0</ele><time>2026-04-23T09:50:51.85Z</time></trkpt><trkpt lat="43.3433728" lon="11.4965391"><ele>334.0</ele><time>2026-04-23T09:50:52.854Z</time></trkpt><trkpt lat="43.3432876" lon="11.4964233"><ele>334.0</ele><time>2026-04-23T09:50:54.855Z</time></trkpt><trkpt lat="43.3431879" lon="11.4962957"><ele>334.0</ele><time>2026-04-23T09:50:56.846Z</time></trkpt><trkpt lat="43.3431264" lon="11.4962191"><ele>334.0</ele><time>2026-04-23T09:50:57.855Z</time></trkpt><trkpt lat="43.3430649" lon="11.4961439"><ele>334.0</ele><time>2026-04-23T09:50:58.853Z</time></trkpt><trkpt lat="43.3429411" lon="11.4959901"><ele>333.4</ele><time>2026-04-23T09:51:00.855Z</time></trkpt><trkpt lat="43.3428792" lon="11.4959073"><ele>332.79999999999995</ele><time>2026-04-23T09:51:01.852Z</time></trkpt><trkpt lat="43.3428118" lon="11.4958153"><ele>332.20000000000005</ele><time>2026-04-23T09:51:02.85Z</time></trkpt><trkpt lat="43.3427282" lon="11.4957138"><ele>331.6</ele><time>2026-04-23T09:51:03.857Z</time></trkpt><trkpt lat="43.3426263" lon="11.4955974"><ele>331.0</ele><time>2026-04-23T09:51:04.857Z</time></trkpt><trkpt lat="43.3425132" lon="11.4954729"><ele>328.3333333333333</ele><time>2026-04-23T09:51:05.856Z</time></trkpt><trkpt lat="43.3423859" lon="11.495334"><ele>325.6666666666667</ele><time>2026-04-23T09:51:06.85Z</time></trkpt><trkpt lat="43.3422435" lon="11.495184"><ele>323.0</ele><time>2026-04-23T09:51:07.849Z</time></trkpt><trkpt lat="43.3420977" lon="11.4950205"><ele>320.6666666666667</ele><time>2026-04-23T09:51:08.857Z</time></trkpt><trkpt lat="43.3419504" lon="11.4948418"><ele>318.3333333333333</ele><time>2026-04-23T09:51:09.848Z</time></trkpt><trkpt lat="43.3417995" lon="11.4946536"><ele>316.0</ele><time>2026-04-23T09:51:10.854Z</time></trkpt><trkpt lat="43.3416487" lon="11.4944565"><ele>315.0</ele><time>2026-04-23T09:51:11.849Z</time></trkpt><trkpt lat="43.3414936" lon="11.4942567"><ele>314.0</ele><time>2026-04-23T09:51:12.851Z</time></trkpt><trkpt lat="43.3413335" lon="11.4940613"><ele>313.0</ele><time>2026-04-23T09:51:13.854Z</time></trkpt><trkpt lat="43.3411701" lon="11.4938691"><ele>312.0</ele><time>2026-04-23T09:51:14.853Z</time></trkpt><trkpt lat="43.341006" lon="11.4936761"><ele>311.0</ele><time>2026-04-23T09:51:15.852Z</time></trkpt><trkpt lat="43.3408415" lon="11.4934831"><ele>310.0</ele><time>2026-04-23T09:51:16.852Z</time></trkpt><trkpt lat="43.3406791" lon="11.4932886"><ele>310.0</ele><time>2026-04-23T09:51:17.853Z</time></trkpt><trkpt lat="43.3405159" lon="11.4930918"><ele>310.0</ele><time>2026-04-23T09:51:18.848Z</time></trkpt><trkpt lat="43.340355" lon="11.492891"><ele>310.0</ele><time>2026-04-23T09:51:19.854Z</time></trkpt><trkpt lat="43.3400504" lon="11.4924763"><ele>310.3333333333333</ele><time>2026-04-23T09:51:21.856Z</time></trkpt><trkpt lat="43.3399043" lon="11.4922623"><ele>310.6666666666667</ele><time>2026-04-23T09:51:22.855Z</time></trkpt><trkpt lat="43.3397613" lon="11.4920462"><ele>311.0</ele><time>2026-04-23T09:51:23.862Z</time></trkpt><trkpt lat="43.3396202" lon="11.4918277"><ele>309.6666666666667</ele><time>2026-04-23T09:51:24.856Z</time></trkpt><trkpt lat="43.3394797" lon="11.4916099"><ele>308.3333333333333</ele><time>2026-04-23T09:51:25.854Z</time></trkpt><trkpt lat="43.3393377" lon="11.4913945"><ele>307.0</ele><time>2026-04-23T09:51:26.855Z</time></trkpt><trkpt lat="43.339194" lon="11.4911806"><ele>306.66666666666663</ele><time>2026-04-23T09:51:27.852Z</time></trkpt><trkpt lat="43.3390437" lon="11.4909763"><ele>306.3333333333333</ele><time>2026-04-23T09:51:28.854Z</time></trkpt><trkpt lat="43.3388818" lon="11.4907878"><ele>306.0</ele><time>2026-04-23T09:51:29.857Z</time></trkpt><trkpt lat="43.3387132" lon="11.4906101"><ele>305.0</ele><time>2026-04-23T09:51:30.847Z</time></trkpt><trkpt lat="43.3385419" lon="11.4904368"><ele>304.0</ele><time>2026-04-23T09:51:31.857Z</time></trkpt><trkpt lat="43.3383706" lon="11.4902646"><ele>303.0</ele><time>2026-04-23T09:51:32.859Z</time></trkpt><trkpt lat="43.3382001" lon="11.4900861"><ele>301.3333333333333</ele><time>2026-04-23T09:51:33.856Z</time></trkpt><trkpt lat="43.3380264" lon="11.4899082"><ele>299.66666666666663</ele><time>2026-04-23T09:51:34.858Z</time></trkpt><trkpt lat="43.3378502" lon="11.4897281"><ele>298.0</ele><time>2026-04-23T09:51:35.85Z</time></trkpt><trkpt lat="43.3376783" lon="11.4895463"><ele>297.66666666666663</ele><time>2026-04-23T09:51:36.858Z</time></trkpt><trkpt lat="43.3375102" lon="11.4893696"><ele>297.3333333333333</ele><time>2026-04-23T09:51:37.852Z</time></trkpt><trkpt lat="43.3373449" lon="11.489199"><ele>297.0</ele><time>2026-04-23T09:51:38.856Z</time></trkpt><trkpt lat="43.3371779" lon="11.4890352"><ele>298.0</ele><time>2026-04-23T09:51:39.85Z</time></trkpt><trkpt lat="43.3370035" lon="11.48889"><ele>299.0</ele><time>2026-04-23T09:51:40.859Z</time></trkpt><trkpt lat="43.33663" lon="11.4886613"><ele>299.0</ele><time>2026-04-23T09:51:42.857Z</time></trkpt><trkpt lat="43.336462" lon="11.4885225"><ele>299.0</ele><time>2026-04-23T09:51:43.848Z</time></trkpt><trkpt lat="43.3363167" lon="11.4883448"><ele>299.0</ele><time>2026-04-23T09:51:44.853Z</time></trkpt><trkpt lat="43.3361818" lon="11.4881449"><ele>299.0</ele><time>2026-04-23T09:51:45.851Z</time></trkpt><trkpt lat="43.336041" lon="11.4879309"><ele>299.0</ele><time>2026-04-23T09:51:46.854Z</time></trkpt><trkpt lat="43.3358846" lon="11.4877259"><ele>299.0</ele><time>2026-04-23T09:51:47.847Z</time></trkpt><trkpt lat="43.3357244" lon="11.4875329"><ele>298.33333333333337</ele><time>2026-04-23T09:51:48.853Z</time></trkpt><trkpt lat="43.3355808" lon="11.4873258"><ele>297.6666666666667</ele><time>2026-04-23T09:51:49.853Z</time></trkpt><trkpt lat="43.3354593" lon="11.487095"><ele>297.0</ele><time>2026-04-23T09:51:50.852Z</time></trkpt><trkpt lat="43.3353523" lon="11.486842"><ele>296.0</ele><time>2026-04-23T09:51:51.857Z</time></trkpt><trkpt lat="43.335249" lon="11.4865819"><ele>295.0</ele><time>2026-04-23T09:51:52.853Z</time></trkpt><trkpt lat="43.3351494" lon="11.4863215"><ele>294.0</ele><time>2026-04-23T09:51:53.863Z</time></trkpt><trkpt lat="43.3350536" lon="11.4860575"><ele>291.0</ele><time>2026-04-23T09:51:54.856Z</time></trkpt><trkpt lat="43.3349685" lon="11.4857865"><ele>288.0</ele><time>2026-04-23T09:51:55.854Z</time></trkpt><trkpt lat="43.3349038" lon="11.4855055"><ele>285.0</ele><time>2026-04-23T09:51:56.85Z</time></trkpt><trkpt lat="43.3348614" lon="11.485212"><ele>283.0</ele><time>2026-04-23T09:51:57.852Z</time></trkpt><trkpt lat="43.334828" lon="11.4849157"><ele>281.0</ele><time>2026-04-23T09:51:58.857Z</time></trkpt><trkpt lat="43.3347963" lon="11.4846264"><ele>279.0</ele><time>2026-04-23T09:51:59.848Z</time></trkpt><trkpt lat="43.3347681" lon="11.4843478"><ele>277.0</ele><time>2026-04-23T09:52:00.856Z</time></trkpt><trkpt lat="43.3347419" lon="11.4840753"><ele>275.0</ele><time>2026-04-23T09:52:01.856Z</time></trkpt><trkpt lat="43.3347001" lon="11.4835392"><ele>277.0</ele><time>2026-04-23T09:52:03.856Z</time></trkpt><trkpt lat="43.3346797" lon="11.4832818"><ele>279.0</ele><time>2026-04-23T09:52:04.857Z</time></trkpt><trkpt lat="43.334652" lon="11.4830301"><ele>281.0</ele><time>2026-04-23T09:52:05.85Z</time></trkpt><trkpt lat="43.3346169" lon="11.482779"><ele>281.0</ele><time>2026-04-23T09:52:06.851Z</time></trkpt><trkpt lat="43.3345796" lon="11.4825285"><ele>281.0</ele><time>2026-04-23T09:52:07.85Z</time></trkpt><trkpt lat="43.3345497" lon="11.4822789"><ele>281.0</ele><time>2026-04-23T09:52:08.855Z</time></trkpt><trkpt lat="43.334553" lon="11.4820277"><ele>278.6666666666667</ele><time>2026-04-23T09:52:09.853Z</time></trkpt><trkpt lat="43.3346081" lon="11.4817872"><ele>276.3333333333333</ele><time>2026-04-23T09:52:10.855Z</time></trkpt><trkpt lat="43.3347153" lon="11.4815667"><ele>274.0</ele><time>2026-04-23T09:52:11.85Z</time></trkpt><trkpt lat="43.3348537" lon="11.4813569"><ele>275.66666666666663</ele><time>2026-04-23T09:52:12.853Z</time></trkpt><trkpt lat="43.3350013" lon="11.4811581"><ele>277.3333333333333</ele><time>2026-04-23T09:52:13.856Z</time></trkpt><trkpt lat="43.3351356" lon="11.4809818"><ele>279.0</ele><time>2026-04-23T09:52:14.854Z</time></trkpt><trkpt lat="43.3352486" lon="11.4808259"><ele>279.0</ele><time>2026-04-23T09:52:15.857Z</time></trkpt><trkpt lat="43.3353379" lon="11.4806934"><ele>279.0</ele><time>2026-04-23T09:52:16.852Z</time></trkpt><trkpt lat="43.335402" lon="11.480599"><ele>279.0</ele><time>2026-04-23T09:52:17.848Z</time></trkpt><trkpt lat="43.3354353" lon="11.4805254"><ele>279.0</ele><time>2026-04-23T09:52:18.853Z</time></trkpt><trkpt lat="43.3354493" lon="11.4804325"><ele>279.0</ele><time>2026-04-23T09:52:19.854Z</time></trkpt><trkpt lat="43.3354521" lon="11.4803067"><ele>279.0</ele><time>2026-04-23T09:52:20.847Z</time></trkpt><trkpt lat="43.3354661" lon="11.48014"><ele>278.5</ele><time>2026-04-23T09:52:21.859Z</time></trkpt><trkpt lat="43.335495" lon="11.4799437"><ele>278.0</ele><time>2026-04-23T09:52:22.852Z</time></trkpt><trkpt lat="43.3356022" lon="11.4795188"><ele>278.0</ele><time>2026-04-23T09:52:24.851Z</time></trkpt><trkpt lat="43.3356796" lon="11.4792973"><ele>278.0</ele><time>2026-04-23T09:52:25.857Z</time></trkpt><trkpt lat="43.3357612" lon="11.4790671"><ele>278.0</ele><time>2026-04-23T09:52:26.847Z</time></trkpt><trkpt lat="43.3358399" lon="11.4788268"><ele>276.6666666666667</ele><time>2026-04-23T09:52:27.853Z</time></trkpt><trkpt lat="43.3359094" lon="11.4785847"><ele>275.3333333333333</ele><time>2026-04-23T09:52:28.85Z</time></trkpt><trkpt lat="43.3359737" lon="11.4783542"><ele>274.0</ele><time>2026-04-23T09:52:29.847Z</time></trkpt><trkpt lat="43.3360219" lon="11.4781343"><ele>274.0</ele><time>2026-04-23T09:52:30.852Z</time></trkpt><trkpt lat="43.3360389" lon="11.4779109"><ele>274.0</ele><time>2026-04-23T09:52:31.861Z</time></trkpt><trkpt lat="43.336011" lon="11.4776776"><ele>274.0</ele><time>2026-04-23T09:52:32.861Z</time></trkpt><trkpt lat="43.335939" lon="11.4774289"><ele>274.0</ele><time>2026-04-23T09:52:33.854Z</time></trkpt><trkpt lat="43.3358457" lon="11.4771631"><ele>274.0</ele><time>2026-04-23T09:52:34.857Z</time></trkpt><trkpt lat="43.3357485" lon="11.4768897"><ele>274.0</ele><time>2026-04-23T09:52:35.861Z</time></trkpt><trkpt lat="43.3356557" lon="11.4766209"><ele>274.3333333333333</ele><time>2026-04-23T09:52:36.859Z</time></trkpt><trkpt lat="43.3355646" lon="11.4763771"><ele>274.6666666666667</ele><time>2026-04-23T09:52:37.85Z</time></trkpt><trkpt lat="43.3354699" lon="11.4761511"><ele>275.0</ele><time>2026-04-23T09:52:38.849Z</time></trkpt><trkpt lat="43.33537" lon="11.4759275"><ele>275.0</ele><time>2026-04-23T09:52:39.851Z</time></trkpt><trkpt lat="43.3352673" lon="11.4756962"><ele>275.0</ele><time>2026-04-23T09:52:40.862Z</time></trkpt><trkpt lat="43.3351686" lon="11.4754484"><ele>275.0</ele><time>2026-04-23T09:52:41.849Z</time></trkpt><trkpt lat="43.3350754" lon="11.4751794"><ele>274.0</ele><time>2026-04-23T09:52:42.855Z</time></trkpt><trkpt lat="43.3349959" lon="11.4748892"><ele>273.0</ele><time>2026-04-23T09:52:43.849Z</time></trkpt><trkpt lat="43.3349012" lon="11.4742255"><ele>272.5</ele><time>2026-04-23T09:52:45.855Z</time></trkpt><trkpt lat="43.3348708" lon="11.4738899"><ele>272.0</ele><time>2026-04-23T09:52:46.853Z</time></trkpt><trkpt lat="43.3348479" lon="11.4735732"><ele>271.6666666666667</ele><time>2026-04-23T09:52:47.855Z</time></trkpt><trkpt lat="43.3348305" lon="11.4732948"><ele>271.3333333333333</ele><time>2026-04-23T09:52:48.858Z</time></trkpt><trkpt lat="43.3348255" lon="11.4730404"><ele>271.0</ele><time>2026-04-23T09:52:49.851Z</time></trkpt><trkpt lat="43.3348467" lon="11.4727923"><ele>271.0</ele><time>2026-04-23T09:52:50.856Z</time></trkpt><trkpt lat="43.334899" lon="11.4725751"><ele>271.0</ele><time>2026-04-23T09:52:51.861Z</time></trkpt><trkpt lat="43.3349632" lon="11.47236"><ele>271.0</ele><time>2026-04-23T09:52:52.849Z</time></trkpt><trkpt lat="43.3350367" lon="11.4721456"><ele>269.66666666666663</ele><time>2026-04-23T09:52:53.861Z</time></trkpt><trkpt lat="43.3351175" lon="11.4719326"><ele>268.3333333333333</ele><time>2026-04-23T09:52:54.856Z</time></trkpt><trkpt lat="43.3352049" lon="11.471724"><ele>267.0</ele><time>2026-04-23T09:52:55.854Z</time></trkpt><trkpt lat="43.3352952" lon="11.4715132"><ele>267.0</ele><time>2026-04-23T09:52:56.851Z</time></trkpt><trkpt lat="43.3353876" lon="11.4713004"><ele>267.0</ele><time>2026-04-23T09:52:57.853Z</time></trkpt><trkpt lat="43.3354779" lon="11.4710864"><ele>267.0</ele><time>2026-04-23T09:52:58.857Z</time></trkpt><trkpt lat="43.3355618" lon="11.4708784"><ele>265.3333333333333</ele><time>2026-04-23T09:52:59.849Z</time></trkpt><trkpt lat="43.3356424" lon="11.4706828"><ele>263.66666666666663</ele><time>2026-04-23T09:53:00.848Z</time></trkpt><trkpt lat="43.3357132" lon="11.47049"><ele>262.0</ele><time>2026-04-23T09:53:01.857Z</time></trkpt><trkpt lat="43.3357621" lon="11.4703047"><ele>260.66666666666663</ele><time>2026-04-23T09:53:02.858Z</time></trkpt><trkpt lat="43.3357842" lon="11.4701242"><ele>259.3333333333333</ele><time>2026-04-23T09:53:03.851Z</time></trkpt><trkpt lat="43.3357784" lon="11.4699496"><ele>258.0</ele><time>2026-04-23T09:53:04.847Z</time></trkpt><trkpt lat="43.3357083" lon="11.4696355"><ele>258.0</ele><time>2026-04-23T09:53:06.851Z</time></trkpt><trkpt lat="43.3356622" lon="11.4694998"><ele>258.0</ele><time>2026-04-23T09:53:07.86Z</time></trkpt><trkpt lat="43.3356185" lon="11.4693803"><ele>258.0</ele><time>2026-04-23T09:53:08.858Z</time></trkpt><trkpt lat="43.3355811" lon="11.4692729"><ele>258.0</ele><time>2026-04-23T09:53:09.853Z</time></trkpt><trkpt lat="43.3355443" lon="11.4691727"><ele>258.0</ele><time>2026-04-23T09:53:10.85Z</time></trkpt><trkpt lat="43.3355052" lon="11.4690736"><ele>257.6</ele><time>2026-04-23T09:53:11.85Z</time></trkpt><trkpt lat="43.3354575" lon="11.4689734"><ele>257.20000000000005</ele><time>2026-04-23T09:53:12.852Z</time></trkpt><trkpt lat="43.335397" lon="11.4688724"><ele>256.8</ele><time>2026-04-23T09:53:13.856Z</time></trkpt><trkpt lat="43.3353226" lon="11.4687687"><ele>256.40000000000003</ele><time>2026-04-23T09:53:14.854Z</time></trkpt><trkpt lat="43.3352334" lon="11.4686573"><ele>256.0</ele><time>2026-04-23T09:53:15.849Z</time></trkpt><trkpt lat="43.3351424" lon="11.4685307"><ele>256.0</ele><time>2026-04-23T09:53:16.854Z</time></trkpt><trkpt lat="43.3350502" lon="11.4683855"><ele>256.0</ele><time>2026-04-23T09:53:17.849Z</time></trkpt><trkpt lat="43.3349633" lon="11.4682296"><ele>256.0</ele><time>2026-04-23T09:53:18.854Z</time></trkpt><trkpt lat="43.3348834" lon="11.4680592"><ele>256.0</ele><time>2026-04-23T09:53:19.855Z</time></trkpt><trkpt lat="43.3348172" lon="11.4678841"><ele>256.25</ele><time>2026-04-23T09:53:20.855Z</time></trkpt><trkpt lat="43.3347706" lon="11.4677029"><ele>256.5</ele><time>2026-04-23T09:53:21.857Z</time></trkpt><trkpt lat="43.3347412" lon="11.467523"><ele>256.75</ele><time>2026-04-23T09:53:22.855Z</time></trkpt><trkpt lat="43.3347258" lon="11.467342"><ele>257.0</ele><time>2026-04-23T09:53:23.855Z</time></trkpt><trkpt lat="43.3347164" lon="11.4671601"><ele>252.5</ele><time>2026-04-23T09:53:24.858Z</time></trkpt><trkpt lat="43.3347084" lon="11.4669617"><ele>248.0</ele><time>2026-04-23T09:53:25.848Z</time></trkpt><trkpt lat="43.3346985" lon="11.4665322"><ele>248.0</ele><time>2026-04-23T09:53:27.848Z</time></trkpt><trkpt lat="43.3347199" lon="11.4663149"><ele>248.0</ele><time>2026-04-23T09:53:28.856Z</time></trkpt><trkpt lat="43.3347638" lon="11.4660863"><ele>248.0</ele><time>2026-04-23T09:53:29.859Z</time></trkpt><trkpt lat="43.3348351" lon="11.4658414"><ele>247.33333333333334</ele><time>2026-04-23T09:53:30.854Z</time></trkpt><trkpt lat="43.3349191" lon="11.4655774"><ele>246.66666666666669</ele><time>2026-04-23T09:53:31.847Z</time></trkpt><trkpt lat="43.3350012" lon="11.4652908"><ele>246.0</ele><time>2026-04-23T09:53:32.85Z</time></trkpt><trkpt lat="43.3350832" lon="11.4649773"><ele>245.5</ele><time>2026-04-23T09:53:33.857Z</time></trkpt><trkpt lat="43.3351648" lon="11.4646548"><ele>245.0</ele><time>2026-04-23T09:53:34.848Z</time></trkpt><trkpt lat="43.335242" lon="11.464338"><ele>243.0</ele><time>2026-04-23T09:53:35.849Z</time></trkpt><trkpt lat="43.3353199" lon="11.4640302"><ele>241.0</ele><time>2026-04-23T09:53:36.853Z</time></trkpt><trkpt lat="43.3354003" lon="11.4637416"><ele>241.0</ele><time>2026-04-23T09:53:37.858Z</time></trkpt><trkpt lat="43.3354838" lon="11.4634782"><ele>241.0</ele><time>2026-04-23T09:53:38.861Z</time></trkpt><trkpt lat="43.3355736" lon="11.4632419"><ele>241.0</ele><time>2026-04-23T09:53:39.857Z</time></trkpt><trkpt lat="43.3356691" lon="11.4630165"><ele>243.0</ele><time>2026-04-23T09:53:40.859Z</time></trkpt><trkpt lat="43.3357581" lon="11.4627948"><ele>245.0</ele><time>2026-04-23T09:53:41.852Z</time></trkpt><trkpt lat="43.3358313" lon="11.4625706"><ele>247.0</ele><time>2026-04-23T09:53:42.851Z</time></trkpt><trkpt lat="43.3358814" lon="11.4623452"><ele>247.0</ele><time>2026-04-23T09:53:43.858Z</time></trkpt><trkpt lat="43.3359123" lon="11.4621355"><ele>247.0</ele><time>2026-04-23T09:53:44.853Z</time></trkpt><trkpt lat="43.3359311" lon="11.461943"><ele>247.0</ele><time>2026-04-23T09:53:45.859Z</time></trkpt><trkpt lat="43.335944" lon="11.4617249"><ele>246.0</ele><time>2026-04-23T09:53:46.854Z</time></trkpt><trkpt lat="43.335948" lon="11.4612074"><ele>245.0</ele><time>2026-04-23T09:53:48.864Z</time></trkpt><trkpt lat="43.3359542" lon="11.4609339"><ele>245.0</ele><time>2026-04-23T09:53:49.853Z</time></trkpt><trkpt lat="43.3359715" lon="11.4606667"><ele>245.0</ele><time>2026-04-23T09:53:50.858Z</time></trkpt><trkpt lat="43.3360011" lon="11.4604119"><ele>245.0</ele><time>2026-04-23T09:53:51.851Z</time></trkpt><trkpt lat="43.336038" lon="11.4601647"><ele>244.0</ele><time>2026-04-23T09:53:52.856Z</time></trkpt><trkpt lat="43.3360686" lon="11.4599147"><ele>243.0</ele><time>2026-04-23T09:53:53.853Z</time></trkpt><trkpt lat="43.3360798" lon="11.4596605"><ele>242.0</ele><time>2026-04-23T09:53:54.85Z</time></trkpt><trkpt lat="43.3360715" lon="11.4594063"><ele>242.0</ele><time>2026-04-23T09:53:55.852Z</time></trkpt><trkpt lat="43.3360434" lon="11.4591636"><ele>242.0</ele><time>2026-04-23T09:53:56.853Z</time></trkpt><trkpt lat="43.3360035" lon="11.458941"><ele>242.0</ele><time>2026-04-23T09:53:57.857Z</time></trkpt><trkpt lat="43.3359861" lon="11.4587311"><ele>242.0</ele><time>2026-04-23T09:53:58.852Z</time></trkpt><trkpt lat="43.3360169" lon="11.4585369"><ele>242.0</ele><time>2026-04-23T09:53:59.851Z</time></trkpt><trkpt lat="43.336084" lon="11.4583554"><ele>242.0</ele><time>2026-04-23T09:54:00.852Z</time></trkpt><trkpt lat="43.3361332" lon="11.458171"><ele>242.0</ele><time>2026-04-23T09:54:01.859Z</time></trkpt><trkpt lat="43.3361811" lon="11.4579629"><ele>242.0</ele><time>2026-04-23T09:54:02.856Z</time></trkpt><trkpt lat="43.3362382" lon="11.4577225"><ele>242.0</ele><time>2026-04-23T09:54:03.859Z</time></trkpt><trkpt lat="43.3362968" lon="11.4574789"><ele>242.0</ele><time>2026-04-23T09:54:04.852Z</time></trkpt><trkpt lat="43.3363435" lon="11.4572376"><ele>240.0</ele><time>2026-04-23T09:54:05.852Z</time></trkpt><trkpt lat="43.3363601" lon="11.4569963"><ele>238.0</ele><time>2026-04-23T09:54:06.856Z</time></trkpt><trkpt lat="43.3363439" lon="11.4567536"><ele>236.0</ele><time>2026-04-23T09:54:07.852Z</time></trkpt><trkpt lat="43.3363039" lon="11.4562937"><ele>235.66666666666669</ele><time>2026-04-23T09:54:09.857Z</time></trkpt><trkpt lat="43.3363209" lon="11.4560791"><ele>235.33333333333331</ele><time>2026-04-23T09:54:10.858Z</time></trkpt><trkpt lat="43.3363736" lon="11.4558722"><ele>235.0</ele><time>2026-04-23T09:54:11.855Z</time></trkpt><trkpt lat="43.3364491" lon="11.4556696"><ele>233.66666666666666</ele><time>2026-04-23T09:54:12.856Z</time></trkpt><trkpt lat="43.3365289" lon="11.4554504"><ele>232.33333333333331</ele><time>2026-04-23T09:54:13.858Z</time></trkpt><trkpt lat="43.3366152" lon="11.4552189"><ele>231.0</ele><time>2026-04-23T09:54:14.848Z</time></trkpt><trkpt lat="43.336703" lon="11.4549901"><ele>231.0</ele><time>2026-04-23T09:54:15.855Z</time></trkpt><trkpt lat="43.3367773" lon="11.4547713"><ele>231.0</ele><time>2026-04-23T09:54:16.853Z</time></trkpt><trkpt lat="43.3368246" lon="11.4545429"><ele>231.0</ele><time>2026-04-23T09:54:17.857Z</time></trkpt><trkpt lat="43.3368455" lon="11.4542939"><ele>231.0</ele><time>2026-04-23T09:54:18.854Z</time></trkpt><trkpt lat="43.3368544" lon="11.454034"><ele>231.0</ele><time>2026-04-23T09:54:19.852Z</time></trkpt><trkpt lat="43.3368657" lon="11.4537909"><ele>231.0</ele><time>2026-04-23T09:54:20.855Z</time></trkpt><trkpt lat="43.3368624" lon="11.4535668"><ele>231.0</ele><time>2026-04-23T09:54:21.854Z</time></trkpt><trkpt lat="43.3368316" lon="11.4533443"><ele>231.0</ele><time>2026-04-23T09:54:22.85Z</time></trkpt><trkpt lat="43.3367626" lon="11.4531202"><ele>231.0</ele><time>2026-04-23T09:54:23.861Z</time></trkpt><trkpt lat="43.3366632" lon="11.4528837"><ele>230.33333333333331</ele><time>2026-04-23T09:54:24.853Z</time></trkpt><trkpt lat="43.3365509" lon="11.4526257"><ele>229.66666666666666</ele><time>2026-04-23T09:54:25.857Z</time></trkpt><trkpt lat="43.3364355" lon="11.4523521"><ele>229.0</ele><time>2026-04-23T09:54:26.848Z</time></trkpt><trkpt lat="43.3363267" lon="11.4520838"><ele>225.0</ele><time>2026-04-23T09:54:27.853Z</time></trkpt><trkpt lat="43.3362284" lon="11.4518273"><ele>221.0</ele><time>2026-04-23T09:54:28.859Z</time></trkpt><trkpt lat="43.3360519" lon="11.4513967"><ele>220.75</ele><time>2026-04-23T09:54:30.85Z</time></trkpt><trkpt lat="43.3359575" lon="11.4512402"><ele>220.5</ele><time>2026-04-23T09:54:31.862Z</time></trkpt><trkpt lat="43.3358435" lon="11.4511236"><ele>220.25</ele><time>2026-04-23T09:54:32.857Z</time></trkpt><trkpt lat="43.3357165" lon="11.4510375"><ele>220.0</ele><time>2026-04-23T09:54:33.85Z</time></trkpt><trkpt lat="43.3355852" lon="11.4509746"><ele>218.2</ele><time>2026-04-23T09:54:34.86Z</time></trkpt><trkpt lat="43.3354701" lon="11.4509087"><ele>216.4</ele><time>2026-04-23T09:54:35.856Z</time></trkpt><trkpt lat="43.3353848" lon="11.4508076"><ele>214.60000000000002</ele><time>2026-04-23T09:54:36.855Z</time></trkpt><trkpt lat="43.335346" lon="11.4506751"><ele>212.8</ele><time>2026-04-23T09:54:37.865Z</time></trkpt><trkpt lat="43.3353698" lon="11.4505348"><ele>211.0</ele><time>2026-04-23T09:54:38.857Z</time></trkpt><trkpt lat="43.3354597" lon="11.4503949"><ele>211.33333333333331</ele><time>2026-04-23T09:54:39.85Z</time></trkpt><trkpt lat="43.3355839" lon="11.4502414"><ele>211.66666666666669</ele><time>2026-04-23T09:54:40.86Z</time></trkpt><trkpt lat="43.3357293" lon="11.4500794"><ele>212.0</ele><time>2026-04-23T09:54:41.848Z</time></trkpt><trkpt lat="43.3358759" lon="11.4499457"><ele>212.0</ele><time>2026-04-23T09:54:42.86Z</time></trkpt><trkpt lat="43.33601" lon="11.4498705"><ele>212.0</ele><time>2026-04-23T09:54:43.858Z</time></trkpt><trkpt lat="43.3361351" lon="11.4498599"><ele>212.0</ele><time>2026-04-23T09:54:44.854Z</time></trkpt><trkpt lat="43.3362451" lon="11.4498846"><ele>212.0</ele><time>2026-04-23T09:54:45.846Z</time></trkpt><trkpt lat="43.3363411" lon="11.4498872"><ele>211.5</ele><time>2026-04-23T09:54:46.859Z</time></trkpt><trkpt lat="43.3364186" lon="11.4498175"><ele>211.0</ele><time>2026-04-23T09:54:47.851Z</time></trkpt><trkpt lat="43.3364675" lon="11.4496781"><ele>210.5</ele><time>2026-04-23T09:54:48.86Z</time></trkpt><trkpt lat="43.3364881" lon="11.4494955"><ele>210.0</ele><time>2026-04-23T09:54:49.86Z</time></trkpt><trkpt lat="43.3364811" lon="11.4490489"><ele>210.0</ele><time>2026-04-23T09:54:51.844Z</time></trkpt><trkpt lat="43.3364434" lon="11.4488087"><ele>210.0</ele><time>2026-04-23T09:54:52.856Z</time></trkpt><trkpt lat="43.3363701" lon="11.4485724"><ele>210.0</ele><time>2026-04-23T09:54:53.854Z</time></trkpt><trkpt lat="43.3362772" lon="11.4483808"><ele>209.25</ele><time>2026-04-23T09:54:54.86Z</time></trkpt><trkpt lat="43.3361844" lon="11.4482215"><ele>208.5</ele><time>2026-04-23T09:54:55.856Z</time></trkpt><trkpt lat="43.3361089" lon="11.4480735"><ele>207.75</ele><time>2026-04-23T09:54:56.853Z</time></trkpt><trkpt lat="43.336072" lon="11.4479354"><ele>207.0</ele><time>2026-04-23T09:54:57.848Z</time></trkpt><trkpt lat="43.3360834" lon="11.4477971"><ele>207.0</ele><time>2026-04-23T09:54:58.855Z</time></trkpt><trkpt lat="43.3361548" lon="11.447654"><ele>207.0</ele><time>2026-04-23T09:54:59.849Z</time></trkpt><trkpt lat="43.3362539" lon="11.4474941"><ele>207.0</ele><time>2026-04-23T09:55:00.857Z</time></trkpt><trkpt lat="43.3363558" lon="11.4473017"><ele>207.66666666666669</ele><time>2026-04-23T09:55:01.857Z</time></trkpt><trkpt lat="43.3364308" lon="11.4470866"><ele>208.33333333333334</ele><time>2026-04-23T09:55:02.859Z</time></trkpt><trkpt lat="43.3364617" lon="11.4468498"><ele>209.0</ele><time>2026-04-23T09:55:03.849Z</time></trkpt><trkpt lat="43.3364459" lon="11.4466022"><ele>209.0</ele><time>2026-04-23T09:55:04.857Z</time></trkpt><trkpt lat="43.3363989" lon="11.4463418"><ele>209.0</ele><time>2026-04-23T09:55:05.853Z</time></trkpt><trkpt lat="43.3363293" lon="11.4460626"><ele>209.0</ele><time>2026-04-23T09:55:06.855Z</time></trkpt><trkpt lat="43.3362602" lon="11.4457898"><ele>210.66666666666669</ele><time>2026-04-23T09:55:07.848Z</time></trkpt><trkpt lat="43.3361935" lon="11.445547"><ele>212.33333333333331</ele><time>2026-04-23T09:55:08.858Z</time></trkpt><trkpt lat="43.3361157" lon="11.4453306"><ele>214.0</ele><time>2026-04-23T09:55:09.851Z</time></trkpt><trkpt lat="43.3360137" lon="11.4451301"><ele>217.5</ele><time>2026-04-23T09:55:10.859Z</time></trkpt><trkpt lat="43.3357951" lon="11.4447303"><ele>221.0</ele><time>2026-04-23T09:55:12.85Z</time></trkpt><trkpt lat="43.335688" lon="11.4445258"><ele>221.33333333333334</ele><time>2026-04-23T09:55:13.848Z</time></trkpt><trkpt lat="43.3355783" lon="11.4443149"><ele>221.66666666666669</ele><time>2026-04-23T09:55:14.852Z</time></trkpt><trkpt lat="43.3354653" lon="11.4441051"><ele>222.0</ele><time>2026-04-23T09:55:15.853Z</time></trkpt><trkpt lat="43.335354" lon="11.443902"><ele>221.75</ele><time>2026-04-23T09:55:16.855Z</time></trkpt><trkpt lat="43.3352528" lon="11.4437099"><ele>221.5</ele><time>2026-04-23T09:55:17.859Z</time></trkpt><trkpt lat="43.3351713" lon="11.4435496"><ele>221.25</ele><time>2026-04-23T09:55:18.861Z</time></trkpt><trkpt lat="43.3351195" lon="11.4434244"><ele>221.0</ele><time>2026-04-23T09:55:19.857Z</time></trkpt><trkpt lat="43.3350933" lon="11.4433034"><ele>221.0</ele><time>2026-04-23T09:55:20.863Z</time></trkpt><trkpt lat="43.3350858" lon="11.4431664"><ele>221.0</ele><time>2026-04-23T09:55:21.854Z</time></trkpt><trkpt lat="43.335097" lon="11.4429957"><ele>221.0</ele><time>2026-04-23T09:55:22.853Z</time></trkpt><trkpt lat="43.3351355" lon="11.4427955"><ele>221.0</ele><time>2026-04-23T09:55:23.859Z</time></trkpt><trkpt lat="43.3351885" lon="11.4425806"><ele>218.0</ele><time>2026-04-23T09:55:24.857Z</time></trkpt><trkpt lat="43.3352392" lon="11.4423627"><ele>215.0</ele><time>2026-04-23T09:55:25.852Z</time></trkpt><trkpt lat="43.3352763" lon="11.4421449"><ele>212.0</ele><time>2026-04-23T09:55:26.855Z</time></trkpt><trkpt lat="43.3352886" lon="11.4419299"><ele>212.0</ele><time>2026-04-23T09:55:27.855Z</time></trkpt><trkpt lat="43.3352645" lon="11.4417277"><ele>212.0</ele><time>2026-04-23T09:55:28.856Z</time></trkpt><trkpt lat="43.3352001" lon="11.4415352"><ele>212.0</ele><time>2026-04-23T09:55:29.855Z</time></trkpt><trkpt lat="43.3351235" lon="11.4413382"><ele>215.5</ele><time>2026-04-23T09:55:30.853Z</time></trkpt><trkpt lat="43.3350707" lon="11.4411205"><ele>219.0</ele><time>2026-04-23T09:55:31.854Z</time></trkpt><trkpt lat="43.3350686" lon="11.4406195"><ele>221.0</ele><time>2026-04-23T09:55:33.862Z</time></trkpt><trkpt lat="43.3350576" lon="11.4403761"><ele>223.0</ele><time>2026-04-23T09:55:34.855Z</time></trkpt><trkpt lat="43.3350258" lon="11.4401509"><ele>225.0</ele><time>2026-04-23T09:55:35.849Z</time></trkpt><trkpt lat="43.3349679" lon="11.4399407"><ele>225.0</ele><time>2026-04-23T09:55:36.852Z</time></trkpt><trkpt lat="43.3348903" lon="11.4397395"><ele>225.0</ele><time>2026-04-23T09:55:37.857Z</time></trkpt><trkpt lat="43.3347972" lon="11.4395405"><ele>225.0</ele><time>2026-04-23T09:55:38.864Z</time></trkpt><trkpt lat="43.334697" lon="11.4393415"><ele>228.0</ele><time>2026-04-23T09:55:39.859Z</time></trkpt><trkpt lat="43.3345955" lon="11.4391481"><ele>231.0</ele><time>2026-04-23T09:55:40.849Z</time></trkpt><trkpt lat="43.3344967" lon="11.4389666"><ele>234.0</ele><time>2026-04-23T09:55:41.853Z</time></trkpt><trkpt lat="43.3344073" lon="11.4388151"><ele>233.5</ele><time>2026-04-23T09:55:42.854Z</time></trkpt><trkpt lat="43.3343162" lon="11.4387096"><ele>233.0</ele><time>2026-04-23T09:55:43.855Z</time></trkpt><trkpt lat="43.3342068" lon="11.4386517"><ele>232.5</ele><time>2026-04-23T09:55:44.849Z</time></trkpt><trkpt lat="43.3340695" lon="11.4386161"><ele>232.0</ele><time>2026-04-23T09:55:45.847Z</time></trkpt><trkpt lat="43.3339193" lon="11.4385519"><ele>233.33333333333331</ele><time>2026-04-23T09:55:46.855Z</time></trkpt><trkpt lat="43.3337826" lon="11.438428"><ele>234.66666666666669</ele><time>2026-04-23T09:55:47.852Z</time></trkpt><trkpt lat="43.3336786" lon="11.4382544"><ele>236.0</ele><time>2026-04-23T09:55:48.852Z</time></trkpt><trkpt lat="43.3336137" lon="11.4380385"><ele>237.33333333333334</ele><time>2026-04-23T09:55:49.856Z</time></trkpt><trkpt lat="43.3335904" lon="11.4377895"><ele>238.66666666666669</ele><time>2026-04-23T09:55:50.847Z</time></trkpt><trkpt lat="43.3336007" lon="11.4375331"><ele>240.0</ele><time>2026-04-23T09:55:51.858Z</time></trkpt><trkpt lat="43.33361" lon="11.4373073"><ele>241.0</ele><time>2026-04-23T09:55:52.856Z</time></trkpt><trkpt lat="43.3335986" lon="11.4369031"><ele>242.0</ele><time>2026-04-23T09:55:54.851Z</time></trkpt><trkpt lat="43.333573" lon="11.436695"><ele>243.0</ele><time>2026-04-23T09:55:55.861Z</time></trkpt><trkpt lat="43.3335413" lon="11.4364791"><ele>242.66666666666669</ele><time>2026-04-23T09:55:56.85Z</time></trkpt><trkpt lat="43.3335152" lon="11.4362597"><ele>242.33333333333334</ele><time>2026-04-23T09:55:57.851Z</time></trkpt><trkpt lat="43.3334975" lon="11.4360351"><ele>242.0</ele><time>2026-04-23T09:55:58.856Z</time></trkpt><trkpt lat="43.3334888" lon="11.4358185"><ele>242.0</ele><time>2026-04-23T09:55:59.847Z</time></trkpt><trkpt lat="43.3334902" lon="11.4356195"><ele>242.0</ele><time>2026-04-23T09:56:00.85Z</time></trkpt><trkpt lat="43.3335129" lon="11.4354366"><ele>242.0</ele><time>2026-04-23T09:56:01.851Z</time></trkpt><trkpt lat="43.3335615" lon="11.435263"><ele>242.0</ele><time>2026-04-23T09:56:02.848Z</time></trkpt><trkpt lat="43.3336296" lon="11.4350855"><ele>242.33333333333334</ele><time>2026-04-23T09:56:03.86Z</time></trkpt><trkpt lat="43.333705" lon="11.43489"><ele>242.66666666666669</ele><time>2026-04-23T09:56:04.853Z</time></trkpt><trkpt lat="43.3337745" lon="11.4346871"><ele>243.0</ele><time>2026-04-23T09:56:05.857Z</time></trkpt><trkpt lat="43.3338319" lon="11.4345018"><ele>243.0</ele><time>2026-04-23T09:56:06.857Z</time></trkpt><trkpt lat="43.3338711" lon="11.4343434"><ele>243.0</ele><time>2026-04-23T09:56:07.855Z</time></trkpt><trkpt lat="43.3338898" lon="11.434203"><ele>243.0</ele><time>2026-04-23T09:56:08.854Z</time></trkpt><trkpt lat="43.3338746" lon="11.4340648"><ele>243.0</ele><time>2026-04-23T09:56:09.855Z</time></trkpt><trkpt lat="43.3338273" lon="11.4339277"><ele>243.0</ele><time>2026-04-23T09:56:10.853Z</time></trkpt><trkpt lat="43.3337539" lon="11.4337746"><ele>244.75</ele><time>2026-04-23T09:56:11.849Z</time></trkpt><trkpt lat="43.3336663" lon="11.4336169"><ele>246.5</ele><time>2026-04-23T09:56:12.855Z</time></trkpt><trkpt lat="43.3335841" lon="11.4334766"><ele>248.25</ele><time>2026-04-23T09:56:13.857Z</time></trkpt><trkpt lat="43.3335006" lon="11.4332717"><ele>250.0</ele><time>2026-04-23T09:56:16.85Z</time></trkpt><trkpt lat="43.3336239" lon="11.4332301"><ele>250.0</ele><time>2026-04-23T09:56:19.852Z</time></trkpt><trkpt lat="43.3337158" lon="11.4331949"><ele>250.0</ele><time>2026-04-23T09:56:20.85Z</time></trkpt><trkpt lat="43.3338372" lon="11.4331334"><ele>250.0</ele><time>2026-04-23T09:56:21.847Z</time></trkpt><trkpt lat="43.3339878" lon="11.4330446"><ele>250.0</ele><time>2026-04-23T09:56:22.853Z</time></trkpt><trkpt lat="43.334158" lon="11.4329498"><ele>250.33333333333331</ele><time>2026-04-23T09:56:23.849Z</time></trkpt><trkpt lat="43.3343405" lon="11.432848"><ele>250.66666666666669</ele><time>2026-04-23T09:56:24.854Z</time></trkpt><trkpt lat="43.3345314" lon="11.4327347"><ele>251.0</ele><time>2026-04-23T09:56:25.849Z</time></trkpt><trkpt lat="43.3347356" lon="11.4326187"><ele>251.5</ele><time>2026-04-23T09:56:26.854Z</time></trkpt><trkpt lat="43.3349454" lon="11.4325034"><ele>252.0</ele><time>2026-04-23T09:56:27.854Z</time></trkpt><trkpt lat="43.3351563" lon="11.4323861"><ele>252.0</ele><time>2026-04-23T09:56:28.851Z</time></trkpt><trkpt lat="43.3353646" lon="11.4322673"><ele>252.0</ele><time>2026-04-23T09:56:29.85Z</time></trkpt><trkpt lat="43.335568" lon="11.4321493"><ele>252.0</ele><time>2026-04-23T09:56:30.85Z</time></trkpt><trkpt lat="43.3357679" lon="11.4320375"><ele>253.33333333333331</ele><time>2026-04-23T09:56:31.852Z</time></trkpt><trkpt lat="43.3359669" lon="11.4319268"><ele>254.66666666666666</ele><time>2026-04-23T09:56:32.851Z</time></trkpt><trkpt lat="43.336164" lon="11.4318131"><ele>256.0</ele><time>2026-04-23T09:56:33.866Z</time></trkpt><trkpt lat="43.3363614" lon="11.4316997"><ele>254.0</ele><time>2026-04-23T09:56:34.85Z</time></trkpt><trkpt lat="43.336762" lon="11.4314937"><ele>252.0</ele><time>2026-04-23T09:56:36.858Z</time></trkpt><trkpt lat="43.3369724" lon="11.4314189"><ele>252.0</ele><time>2026-04-23T09:56:37.851Z</time></trkpt><trkpt lat="43.3371892" lon="11.4313789"><ele>252.0</ele><time>2026-04-23T09:56:38.861Z</time></trkpt><trkpt lat="43.3374069" lon="11.431368"><ele>252.0</ele><time>2026-04-23T09:56:39.858Z</time></trkpt><trkpt lat="43.3376245" lon="11.4313737"><ele>251.33333333333331</ele><time>2026-04-23T09:56:40.853Z</time></trkpt><trkpt lat="43.3378332" lon="11.4313843"><ele>250.66666666666666</ele><time>2026-04-23T09:56:41.85Z</time></trkpt><trkpt lat="43.3380403" lon="11.4314009"><ele>250.0</ele><time>2026-04-23T09:56:42.855Z</time></trkpt><trkpt lat="43.3382462" lon="11.4314367"><ele>250.0</ele><time>2026-04-23T09:56:43.856Z</time></trkpt><trkpt lat="43.3384463" lon="11.431502"><ele>250.0</ele><time>2026-04-23T09:56:44.857Z</time></trkpt><trkpt lat="43.3386207" lon="11.4316325"><ele>250.0</ele><time>2026-04-23T09:56:45.845Z</time></trkpt><trkpt lat="43.3387797" lon="11.4318081"><ele>250.0</ele><time>2026-04-23T09:56:46.849Z</time></trkpt><trkpt lat="43.338931" lon="11.4320098"><ele>250.0</ele><time>2026-04-23T09:56:47.856Z</time></trkpt><trkpt lat="43.3390825" lon="11.432222"><ele>250.0</ele><time>2026-04-23T09:56:48.854Z</time></trkpt><trkpt lat="43.3392316" lon="11.4324316"><ele>250.0</ele><time>2026-04-23T09:56:49.857Z</time></trkpt><trkpt lat="43.3393663" lon="11.4326548"><ele>250.0</ele><time>2026-04-23T09:56:50.854Z</time></trkpt><trkpt lat="43.3394845" lon="11.4328931"><ele>250.0</ele><time>2026-04-23T09:56:51.859Z</time></trkpt><trkpt lat="43.3395924" lon="11.4331476"><ele>249.66666666666666</ele><time>2026-04-23T09:56:52.855Z</time></trkpt><trkpt lat="43.3396961" lon="11.4334091"><ele>249.33333333333331</ele><time>2026-04-23T09:56:53.859Z</time></trkpt><trkpt lat="43.3398022" lon="11.4336655"><ele>249.0</ele><time>2026-04-23T09:56:54.855Z</time></trkpt><trkpt lat="43.3399057" lon="11.4339082"><ele>249.0</ele><time>2026-04-23T09:56:55.861Z</time></trkpt><trkpt lat="43.3400995" lon="11.4343102"><ele>249.0</ele><time>2026-04-23T09:56:57.86Z</time></trkpt><trkpt lat="43.3401973" lon="11.4344608"><ele>249.0</ele><time>2026-04-23T09:56:58.863Z</time></trkpt><trkpt lat="43.3403091" lon="11.4345624"><ele>249.0</ele><time>2026-04-23T09:56:59.855Z</time></trkpt><trkpt lat="43.3404344" lon="11.4346197"><ele>249.0</ele><time>2026-04-23T09:57:00.85Z</time></trkpt><trkpt lat="43.3405646" lon="11.4346346"><ele>249.0</ele><time>2026-04-23T09:57:01.853Z</time></trkpt><trkpt lat="43.3406949" lon="11.4346205"><ele>248.0</ele><time>2026-04-23T09:57:02.856Z</time></trkpt><trkpt lat="43.3408289" lon="11.4345864"><ele>247.0</ele><time>2026-04-23T09:57:03.851Z</time></trkpt><trkpt lat="43.3409628" lon="11.4345364"><ele>246.0</ele><time>2026-04-23T09:57:04.851Z</time></trkpt><trkpt lat="43.3410933" lon="11.4344834"><ele>245.0</ele><time>2026-04-23T09:57:05.851Z</time></trkpt><trkpt lat="43.3412264" lon="11.4344356"><ele>245.0</ele><time>2026-04-23T09:57:06.854Z</time></trkpt><trkpt lat="43.3413594" lon="11.4343905"><ele>245.0</ele><time>2026-04-23T09:57:07.851Z</time></trkpt><trkpt lat="43.341495" lon="11.434344"><ele>245.0</ele><time>2026-04-23T09:57:08.861Z</time></trkpt><trkpt lat="43.3416295" lon="11.4342991"><ele>245.0</ele><time>2026-04-23T09:57:09.851Z</time></trkpt><trkpt lat="43.3417609" lon="11.4342572"><ele>245.25</ele><time>2026-04-23T09:57:10.855Z</time></trkpt><trkpt lat="43.3418855" lon="11.4342168"><ele>245.5</ele><time>2026-04-23T09:57:11.855Z</time></trkpt><trkpt lat="43.3420016" lon="11.4341782"><ele>245.75</ele><time>2026-04-23T09:57:12.855Z</time></trkpt><trkpt lat="43.3421073" lon="11.4341417"><ele>246.0</ele><time>2026-04-23T09:57:13.858Z</time></trkpt><trkpt lat="43.3422114" lon="11.4341069"><ele>246.33333333333331</ele><time>2026-04-23T09:57:14.85Z</time></trkpt><trkpt lat="43.3423187" lon="11.4340759"><ele>246.66666666666666</ele><time>2026-04-23T09:57:15.852Z</time></trkpt><trkpt lat="43.342435" lon="11.4340439"><ele>247.0</ele><time>2026-04-23T09:57:16.861Z</time></trkpt><trkpt lat="43.3426767" lon="11.4339709"><ele>247.0</ele><time>2026-04-23T09:57:18.853Z</time></trkpt><trkpt lat="43.3428035" lon="11.4339302"><ele>247.0</ele><time>2026-04-23T09:57:19.857Z</time></trkpt><trkpt lat="43.3429343" lon="11.4338926"><ele>247.0</ele><time>2026-04-23T09:57:20.854Z</time></trkpt><trkpt lat="43.3430686" lon="11.4338731"><ele>247.0</ele><time>2026-04-23T09:57:21.856Z</time></trkpt><trkpt lat="43.3432081" lon="11.4338879"><ele>248.25</ele><time>2026-04-23T09:57:22.857Z</time></trkpt><trkpt lat="43.343344" lon="11.4339481"><ele>249.5</ele><time>2026-04-23T09:57:23.856Z</time></trkpt><trkpt lat="43.3434667" lon="11.4340615"><ele>250.75</ele><time>2026-04-23T09:57:24.855Z</time></trkpt><trkpt lat="43.3435792" lon="11.4342143"><ele>252.0</ele><time>2026-04-23T09:57:25.859Z</time></trkpt><trkpt lat="43.3436831" lon="11.4343939"><ele>252.0</ele><time>2026-04-23T09:57:26.849Z</time></trkpt><trkpt lat="43.3437895" lon="11.4345757"><ele>252.0</ele><time>2026-04-23T09:57:27.858Z</time></trkpt><trkpt lat="43.3438975" lon="11.434748"><ele>252.0</ele><time>2026-04-23T09:57:28.855Z</time></trkpt><trkpt lat="43.344014" lon="11.4349112"><ele>254.0</ele><time>2026-04-23T09:57:29.855Z</time></trkpt><trkpt lat="43.3441361" lon="11.4350694"><ele>256.0</ele><time>2026-04-23T09:57:30.855Z</time></trkpt><trkpt lat="43.3442658" lon="11.4352173"><ele>258.0</ele><time>2026-04-23T09:57:31.852Z</time></trkpt><trkpt lat="43.3444007" lon="11.4353552"><ele>258.6666666666667</ele><time>2026-04-23T09:57:32.859Z</time></trkpt><trkpt lat="43.3445436" lon="11.4354799"><ele>259.33333333333337</ele><time>2026-04-23T09:57:33.856Z</time></trkpt><trkpt lat="43.3446954" lon="11.4355741"><ele>260.0</ele><time>2026-04-23T09:57:34.856Z</time></trkpt><trkpt lat="43.3448633" lon="11.4356158"><ele>260.33333333333337</ele><time>2026-04-23T09:57:35.853Z</time></trkpt><trkpt lat="43.3450426" lon="11.4356239"><ele>260.6666666666667</ele><time>2026-04-23T09:57:36.856Z</time></trkpt><trkpt lat="43.3452191" lon="11.4356208"><ele>261.0</ele><time>2026-04-23T09:57:37.856Z</time></trkpt><trkpt lat="43.3455617" lon="11.4356177"><ele>262.6666666666667</ele><time>2026-04-23T09:57:39.851Z</time></trkpt><trkpt lat="43.3457244" lon="11.4356284"><ele>264.33333333333337</ele><time>2026-04-23T09:57:40.856Z</time></trkpt><trkpt lat="43.3458714" lon="11.435668"><ele>266.0</ele><time>2026-04-23T09:57:41.859Z</time></trkpt><trkpt lat="43.3460018" lon="11.4357568"><ele>266.0</ele><time>2026-04-23T09:57:42.851Z</time></trkpt><trkpt lat="43.3461308" lon="11.4358858"><ele>266.0</ele><time>2026-04-23T09:57:43.858Z</time></trkpt><trkpt lat="43.3462729" lon="11.4360321"><ele>266.0</ele><time>2026-04-23T09:57:44.856Z</time></trkpt><trkpt lat="43.3464083" lon="11.436167"><ele>265.33333333333337</ele><time>2026-04-23T09:57:45.855Z</time></trkpt><trkpt lat="43.3465322" lon="11.4362956"><ele>264.6666666666667</ele><time>2026-04-23T09:57:46.853Z</time></trkpt><trkpt lat="43.3466489" lon="11.4364352"><ele>264.0</ele><time>2026-04-23T09:57:47.851Z</time></trkpt><trkpt lat="43.3467593" lon="11.4365902"><ele>264.0</ele><time>2026-04-23T09:57:48.855Z</time></trkpt><trkpt lat="43.3468617" lon="11.4367598"><ele>264.0</ele><time>2026-04-23T09:57:49.857Z</time></trkpt><trkpt lat="43.3469535" lon="11.4369294"><ele>264.0</ele><time>2026-04-23T09:57:50.858Z</time></trkpt><trkpt lat="43.3470402" lon="11.4370934"><ele>263.5</ele><time>2026-04-23T09:57:51.857Z</time></trkpt><trkpt lat="43.3471293" lon="11.4372538"><ele>263.0</ele><time>2026-04-23T09:57:52.857Z</time></trkpt><trkpt lat="43.3472199" lon="11.4374125"><ele>262.5</ele><time>2026-04-23T09:57:53.861Z</time></trkpt><trkpt lat="43.3473104" lon="11.437577"><ele>262.0</ele><time>2026-04-23T09:57:54.856Z</time></trkpt><trkpt lat="43.3474016" lon="11.4377503"><ele>261.0</ele><time>2026-04-23T09:57:55.852Z</time></trkpt><trkpt lat="43.3474995" lon="11.4379285"><ele>260.0</ele><time>2026-04-23T09:57:56.86Z</time></trkpt><trkpt lat="43.3476075" lon="11.438103"><ele>259.0</ele><time>2026-04-23T09:57:57.86Z</time></trkpt><trkpt lat="43.3477269" lon="11.4382584"><ele>259.0</ele><time>2026-04-23T09:57:58.857Z</time></trkpt><trkpt lat="43.3480088" lon="11.4384663"><ele>259.0</ele><time>2026-04-23T09:58:00.858Z</time></trkpt><trkpt lat="43.3481739" lon="11.4385052"><ele>257.66666666666663</ele><time>2026-04-23T09:58:01.85Z</time></trkpt><trkpt lat="43.3483474" lon="11.438525"><ele>256.3333333333333</ele><time>2026-04-23T09:58:02.857Z</time></trkpt><trkpt lat="43.3485192" lon="11.4385381"><ele>255.0</ele><time>2026-04-23T09:58:03.856Z</time></trkpt><trkpt lat="43.3486951" lon="11.4385535"><ele>255.0</ele><time>2026-04-23T09:58:04.857Z</time></trkpt><trkpt lat="43.3488728" lon="11.4385788"><ele>255.0</ele><time>2026-04-23T09:58:05.856Z</time></trkpt><trkpt lat="43.3490496" lon="11.4386093"><ele>255.0</ele><time>2026-04-23T09:58:06.855Z</time></trkpt><trkpt lat="43.3492233" lon="11.4386554"><ele>255.0</ele><time>2026-04-23T09:58:07.858Z</time></trkpt><trkpt lat="43.3493887" lon="11.4387307"><ele>255.0</ele><time>2026-04-23T09:58:08.858Z</time></trkpt><trkpt lat="43.3495364" lon="11.4388613"><ele>255.0</ele><time>2026-04-23T09:58:09.855Z</time></trkpt><trkpt lat="43.349653" lon="11.4390554"><ele>253.33333333333331</ele><time>2026-04-23T09:58:10.851Z</time></trkpt><trkpt lat="43.349753" lon="11.4392863"><ele>251.66666666666666</ele><time>2026-04-23T09:58:11.853Z</time></trkpt><trkpt lat="43.349859" lon="11.4395128"><ele>250.0</ele><time>2026-04-23T09:58:12.859Z</time></trkpt><trkpt lat="43.3499837" lon="11.4397015"><ele>249.0</ele><time>2026-04-23T09:58:13.854Z</time></trkpt><trkpt lat="43.3501224" lon="11.439864"><ele>248.0</ele><time>2026-04-23T09:58:14.856Z</time></trkpt><trkpt lat="43.3502734" lon="11.4399974"><ele>247.0</ele><time>2026-04-23T09:58:15.855Z</time></trkpt><trkpt lat="43.3504368" lon="11.4400937"><ele>247.33333333333331</ele><time>2026-04-23T09:58:16.854Z</time></trkpt><trkpt lat="43.3506099" lon="11.4401402"><ele>247.66666666666669</ele><time>2026-04-23T09:58:17.855Z</time></trkpt><trkpt lat="43.3507837" lon="11.4401406"><ele>248.0</ele><time>2026-04-23T09:58:18.855Z</time></trkpt><trkpt lat="43.3509545" lon="11.4400969"><ele>248.0</ele><time>2026-04-23T09:58:19.851Z</time></trkpt><trkpt lat="43.3512757" lon="11.4398951"><ele>248.0</ele><time>2026-04-23T09:58:21.848Z</time></trkpt><trkpt lat="43.3514257" lon="11.4397613"><ele>249.0</ele><time>2026-04-23T09:58:22.856Z</time></trkpt><trkpt lat="43.3515812" lon="11.4396277"><ele>250.0</ele><time>2026-04-23T09:58:23.858Z</time></trkpt><trkpt lat="43.3517445" lon="11.4395109"><ele>251.0</ele><time>2026-04-23T09:58:24.851Z</time></trkpt><trkpt lat="43.351915" lon="11.4394203"><ele>251.0</ele><time>2026-04-23T09:58:25.857Z</time></trkpt><trkpt lat="43.3520877" lon="11.43936"><ele>251.0</ele><time>2026-04-23T09:58:26.856Z</time></trkpt><trkpt lat="43.352256" lon="11.4393159"><ele>251.0</ele><time>2026-04-23T09:58:27.857Z</time></trkpt><trkpt lat="43.3524147" lon="11.4392516"><ele>253.33333333333334</ele><time>2026-04-23T09:58:28.855Z</time></trkpt><trkpt lat="43.35255" lon="11.4391295"><ele>255.66666666666669</ele><time>2026-04-23T09:58:29.849Z</time></trkpt><trkpt lat="43.3526724" lon="11.4389671"><ele>258.0</ele><time>2026-04-23T09:58:30.854Z</time></trkpt><trkpt lat="43.3527974" lon="11.4388092"><ele>258.0</ele><time>2026-04-23T09:58:31.853Z</time></trkpt><trkpt lat="43.3529273" lon="11.4386701"><ele>258.0</ele><time>2026-04-23T09:58:32.847Z</time></trkpt><trkpt lat="43.3530596" lon="11.4385569"><ele>258.0</ele><time>2026-04-23T09:58:33.855Z</time></trkpt><trkpt lat="43.3531917" lon="11.4384684"><ele>259.75</ele><time>2026-04-23T09:58:34.852Z</time></trkpt><trkpt lat="43.3533234" lon="11.4384032"><ele>261.5</ele><time>2026-04-23T09:58:35.849Z</time></trkpt><trkpt lat="43.3534564" lon="11.438358"><ele>263.25</ele><time>2026-04-23T09:58:36.855Z</time></trkpt><trkpt lat="43.3535918" lon="11.4383291"><ele>265.0</ele><time>2026-04-23T09:58:37.851Z</time></trkpt><trkpt lat="43.3537311" lon="11.4383028"><ele>265.3333333333333</ele><time>2026-04-23T09:58:38.852Z</time></trkpt><trkpt lat="43.3538721" lon="11.438274"><ele>265.6666666666667</ele><time>2026-04-23T09:58:39.847Z</time></trkpt><trkpt lat="43.3540109" lon="11.4382386"><ele>266.0</ele><time>2026-04-23T09:58:40.851Z</time></trkpt><trkpt lat="43.3542903" lon="11.4381628"><ele>266.0</ele><time>2026-04-23T09:58:42.852Z</time></trkpt><trkpt lat="43.354431" lon="11.4381356"><ele>266.0</ele><time>2026-04-23T09:58:43.854Z</time></trkpt><trkpt lat="43.3545751" lon="11.4381224"><ele>266.0</ele><time>2026-04-23T09:58:44.848Z</time></trkpt><trkpt lat="43.3547241" lon="11.4381241"><ele>266.0</ele><time>2026-04-23T09:58:45.859Z</time></trkpt><trkpt lat="43.3548774" lon="11.4381432"><ele>266.5</ele><time>2026-04-23T09:58:46.852Z</time></trkpt><trkpt lat="43.3550276" lon="11.4381731"><ele>267.0</ele><time>2026-04-23T09:58:47.858Z</time></trkpt><trkpt lat="43.3551652" lon="11.4382073"><ele>267.5</ele><time>2026-04-23T09:58:48.856Z</time></trkpt><trkpt lat="43.3552949" lon="11.4382379"><ele>268.0</ele><time>2026-04-23T09:58:49.857Z</time></trkpt><trkpt lat="43.3554223" lon="11.4382641"><ele>267.5</ele><time>2026-04-23T09:58:50.86Z</time></trkpt><trkpt lat="43.3555521" lon="11.4382916"><ele>267.0</ele><time>2026-04-23T09:58:51.856Z</time></trkpt><trkpt lat="43.3556868" lon="11.4383233"><ele>266.5</ele><time>2026-04-23T09:58:52.859Z</time></trkpt><trkpt lat="43.3558265" lon="11.438355"><ele>266.0</ele><time>2026-04-23T09:58:53.857Z</time></trkpt><trkpt lat="43.3559703" lon="11.4383833"><ele>266.0</ele><time>2026-04-23T09:58:54.853Z</time></trkpt><trkpt lat="43.3561164" lon="11.4384138"><ele>266.0</ele><time>2026-04-23T09:58:55.858Z</time></trkpt><trkpt lat="43.3562569" lon="11.4384448"><ele>266.0</ele><time>2026-04-23T09:58:56.856Z</time></trkpt><trkpt lat="43.3563886" lon="11.4384717"><ele>266.0</ele><time>2026-04-23T09:58:57.851Z</time></trkpt><trkpt lat="43.3565129" lon="11.4384986"><ele>265.75</ele><time>2026-04-23T09:58:58.851Z</time></trkpt><trkpt lat="43.3566343" lon="11.4385289"><ele>265.5</ele><time>2026-04-23T09:58:59.855Z</time></trkpt><trkpt lat="43.3567526" lon="11.4385553"><ele>265.25</ele><time>2026-04-23T09:59:00.851Z</time></trkpt><trkpt lat="43.3568736" lon="11.4385738"><ele>265.0</ele><time>2026-04-23T09:59:01.854Z</time></trkpt><trkpt lat="43.3571098" lon="11.438593"><ele>265.0</ele><time>2026-04-23T09:59:03.861Z</time></trkpt><trkpt lat="43.3572288" lon="11.4385795"><ele>265.0</ele><time>2026-04-23T09:59:04.852Z</time></trkpt><trkpt lat="43.3573524" lon="11.4385486"><ele>265.0</ele><time>2026-04-23T09:59:05.853Z</time></trkpt><trkpt lat="43.3574789" lon="11.4385083"><ele>265.0</ele><time>2026-04-23T09:59:06.855Z</time></trkpt><trkpt lat="43.3576069" lon="11.4384633"><ele>265.0</ele><time>2026-04-23T09:59:07.85Z</time></trkpt><trkpt lat="43.3577392" lon="11.4384127"><ele>265.0</ele><time>2026-04-23T09:59:08.86Z</time></trkpt><trkpt lat="43.3578751" lon="11.4383654"><ele>265.0</ele><time>2026-04-23T09:59:09.855Z</time></trkpt><trkpt lat="43.3580106" lon="11.4383127"><ele>265.0</ele><time>2026-04-23T09:59:10.855Z</time></trkpt><trkpt lat="43.3581405" lon="11.4382398"><ele>265.5</ele><time>2026-04-23T09:59:11.861Z</time></trkpt><trkpt lat="43.3582542" lon="11.4381259"><ele>266.0</ele><time>2026-04-23T09:59:12.851Z</time></trkpt><trkpt lat="43.35834" lon="11.4379642"><ele>266.5</ele><time>2026-04-23T09:59:13.852Z</time></trkpt><trkpt lat="43.3583952" lon="11.4377764"><ele>267.0</ele><time>2026-04-23T09:59:14.859Z</time></trkpt><trkpt lat="43.3584235" lon="11.437573"><ele>267.6666666666667</ele><time>2026-04-23T09:59:15.855Z</time></trkpt><trkpt lat="43.3584294" lon="11.437363"><ele>268.33333333333337</ele><time>2026-04-23T09:59:16.865Z</time></trkpt><trkpt lat="43.3584126" lon="11.4371519"><ele>269.0</ele><time>2026-04-23T09:59:17.861Z</time></trkpt><trkpt lat="43.3583771" lon="11.4369412"><ele>269.0</ele><time>2026-04-23T09:59:18.852Z</time></trkpt><trkpt lat="43.3583436" lon="11.436738"><ele>269.0</ele><time>2026-04-23T09:59:19.85Z</time></trkpt><trkpt lat="43.3583331" lon="11.4365444"><ele>269.0</ele><time>2026-04-23T09:59:20.853Z</time></trkpt><trkpt lat="43.3583526" lon="11.4363639"><ele>269.0</ele><time>2026-04-23T09:59:21.849Z</time></trkpt><trkpt lat="43.35839" lon="11.4361823"><ele>269.0</ele><time>2026-04-23T09:59:22.858Z</time></trkpt><trkpt lat="43.3584729" lon="11.435818"><ele>269.0</ele><time>2026-04-23T09:59:24.853Z</time></trkpt><trkpt lat="43.3585225" lon="11.4356397"><ele>269.0</ele><time>2026-04-23T09:59:25.85Z</time></trkpt><trkpt lat="43.3585795" lon="11.4354656"><ele>269.5</ele><time>2026-04-23T09:59:26.853Z</time></trkpt><trkpt lat="43.3586436" lon="11.4352948"><ele>270.0</ele><time>2026-04-23T09:59:27.858Z</time></trkpt><trkpt lat="43.3587107" lon="11.4351249"><ele>270.5</ele><time>2026-04-23T09:59:28.861Z</time></trkpt><trkpt lat="43.3587793" lon="11.4349562"><ele>271.0</ele><time>2026-04-23T09:59:29.847Z</time></trkpt><trkpt lat="43.358846" lon="11.4347874"><ele>269.0</ele><time>2026-04-23T09:59:30.85Z</time></trkpt><trkpt lat="43.3589059" lon="11.4346145"><ele>267.0</ele><time>2026-04-23T09:59:31.861Z</time></trkpt><trkpt lat="43.3589496" lon="11.4344337"><ele>265.0</ele><time>2026-04-23T09:59:32.86Z</time></trkpt><trkpt lat="43.3589701" lon="11.4342392"><ele>263.0</ele><time>2026-04-23T09:59:33.856Z</time></trkpt><trkpt lat="43.3589708" lon="11.4340312"><ele>263.0</ele><time>2026-04-23T09:59:34.856Z</time></trkpt><trkpt lat="43.3589605" lon="11.4338163"><ele>263.0</ele><time>2026-04-23T09:59:35.859Z</time></trkpt><trkpt lat="43.3589377" lon="11.4336006"><ele>263.0</ele><time>2026-04-23T09:59:36.861Z</time></trkpt><trkpt lat="43.3589073" lon="11.4333854"><ele>263.0</ele><time>2026-04-23T09:59:37.849Z</time></trkpt><trkpt lat="43.3588686" lon="11.4331696"><ele>263.0</ele><time>2026-04-23T09:59:38.856Z</time></trkpt><trkpt lat="43.3588369" lon="11.432958"><ele>263.0</ele><time>2026-04-23T09:59:39.859Z</time></trkpt><trkpt lat="43.3588175" lon="11.432751"><ele>263.0</ele><time>2026-04-23T09:59:40.856Z</time></trkpt><trkpt lat="43.3588095" lon="11.4325463"><ele>263.0</ele><time>2026-04-23T09:59:41.856Z</time></trkpt><trkpt lat="43.3588186" lon="11.4323495"><ele>263.0</ele><time>2026-04-23T09:59:42.846Z</time></trkpt><trkpt lat="43.3588371" lon="11.4321563"><ele>263.0</ele><time>2026-04-23T09:59:43.856Z</time></trkpt><trkpt lat="43.3589157" lon="11.431786"><ele>263.25</ele><time>2026-04-23T09:59:45.859Z</time></trkpt><trkpt lat="43.3589595" lon="11.4315938"><ele>263.5</ele><time>2026-04-23T09:59:46.85Z</time></trkpt><trkpt lat="43.3590026" lon="11.4314095"><ele>263.75</ele><time>2026-04-23T09:59:47.854Z</time></trkpt><trkpt lat="43.3590455" lon="11.4312258"><ele>264.0</ele><time>2026-04-23T09:59:48.853Z</time></trkpt><trkpt lat="43.3590845" lon="11.4310449"><ele>264.0</ele><time>2026-04-23T09:59:49.859Z</time></trkpt><trkpt lat="43.3591212" lon="11.4308615"><ele>264.0</ele><time>2026-04-23T09:59:50.847Z</time></trkpt><trkpt lat="43.3591524" lon="11.4306782"><ele>264.0</ele><time>2026-04-23T09:59:51.859Z</time></trkpt><trkpt lat="43.3591774" lon="11.430498"><ele>264.0</ele><time>2026-04-23T09:59:52.859Z</time></trkpt><trkpt lat="43.3591928" lon="11.4303159"><ele>264.25</ele><time>2026-04-23T09:59:53.856Z</time></trkpt><trkpt lat="43.3591948" lon="11.4301298"><ele>264.5</ele><time>2026-04-23T09:59:54.86Z</time></trkpt><trkpt lat="43.3591826" lon="11.4299377"><ele>264.75</ele><time>2026-04-23T09:59:55.856Z</time></trkpt><trkpt lat="43.3591571" lon="11.4297436"><ele>265.0</ele><time>2026-04-23T09:59:56.859Z</time></trkpt><trkpt lat="43.3591219" lon="11.4295478"><ele>263.5</ele><time>2026-04-23T09:59:57.855Z</time></trkpt><trkpt lat="43.3590837" lon="11.4293535"><ele>262.0</ele><time>2026-04-23T09:59:58.857Z</time></trkpt><trkpt lat="43.3590402" lon="11.4291671"><ele>260.5</ele><time>2026-04-23T09:59:59.856Z</time></trkpt><trkpt lat="43.358982" lon="11.4289851"><ele>259.0</ele><time>2026-04-23T10:00:00.849Z</time></trkpt><trkpt lat="43.3589121" lon="11.4288104"><ele>261.0</ele><time>2026-04-23T10:00:01.847Z</time></trkpt><trkpt lat="43.3588268" lon="11.4286497"><ele>263.0</ele><time>2026-04-23T10:00:02.846Z</time></trkpt><trkpt lat="43.3587276" lon="11.4285047"><ele>265.0</ele><time>2026-04-23T10:00:03.854Z</time></trkpt><trkpt lat="43.3586283" lon="11.4283695"><ele>267.0</ele><time>2026-04-23T10:00:04.852Z</time></trkpt><trkpt lat="43.3584298" lon="11.4280963"><ele>264.25</ele><time>2026-04-23T10:00:06.855Z</time></trkpt><trkpt lat="43.3583328" lon="11.4279574"><ele>261.5</ele><time>2026-04-23T10:00:07.851Z</time></trkpt><trkpt lat="43.3582422" lon="11.42781"><ele>258.75</ele><time>2026-04-23T10:00:08.854Z</time></trkpt><trkpt lat="43.3581545" lon="11.4276542"><ele>256.0</ele><time>2026-04-23T10:00:09.856Z</time></trkpt><trkpt lat="43.3580623" lon="11.427489"><ele>255.0</ele><time>2026-04-23T10:00:10.846Z</time></trkpt><trkpt lat="43.3579597" lon="11.4273241"><ele>254.0</ele><time>2026-04-23T10:00:11.856Z</time></trkpt><trkpt lat="43.3578453" lon="11.4271665"><ele>253.0</ele><time>2026-04-23T10:00:12.853Z</time></trkpt><trkpt lat="43.3577121" lon="11.4270321"><ele>253.0</ele><time>2026-04-23T10:00:13.851Z</time></trkpt><trkpt lat="43.357559" lon="11.4269226"><ele>253.0</ele><time>2026-04-23T10:00:14.855Z</time></trkpt><trkpt lat="43.3573908" lon="11.4268325"><ele>253.0</ele><time>2026-04-23T10:00:15.851Z</time></trkpt><trkpt lat="43.3572206" lon="11.4267435"><ele>254.0</ele><time>2026-04-23T10:00:16.858Z</time></trkpt><trkpt lat="43.3570542" lon="11.4266585"><ele>255.0</ele><time>2026-04-23T10:00:17.848Z</time></trkpt><trkpt lat="43.3568907" lon="11.4265623"><ele>256.0</ele><time>2026-04-23T10:00:18.852Z</time></trkpt><trkpt lat="43.3567305" lon="11.426452"><ele>256.0</ele><time>2026-04-23T10:00:19.851Z</time></trkpt><trkpt lat="43.3565729" lon="11.4263282"><ele>256.0</ele><time>2026-04-23T10:00:20.854Z</time></trkpt><trkpt lat="43.3564246" lon="11.4261848"><ele>256.0</ele><time>2026-04-23T10:00:21.85Z</time></trkpt><trkpt lat="43.3562837" lon="11.4260115"><ele>252.66666666666666</ele><time>2026-04-23T10:00:22.854Z</time></trkpt><trkpt lat="43.3561461" lon="11.4258161"><ele>249.33333333333331</ele><time>2026-04-23T10:00:23.852Z</time></trkpt><trkpt lat="43.3560143" lon="11.4256229"><ele>246.0</ele><time>2026-04-23T10:00:24.857Z</time></trkpt><trkpt lat="43.3558838" lon="11.4254319"><ele>243.0</ele><time>2026-04-23T10:00:25.851Z</time></trkpt><trkpt lat="43.3556141" lon="11.4250598"><ele>240.0</ele><time>2026-04-23T10:00:27.852Z</time></trkpt><trkpt lat="43.3554778" lon="11.4248792"><ele>240.0</ele><time>2026-04-23T10:00:28.851Z</time></trkpt><trkpt lat="43.355344" lon="11.4246973"><ele>240.0</ele><time>2026-04-23T10:00:29.855Z</time></trkpt><trkpt lat="43.3552133" lon="11.4245214"><ele>240.0</ele><time>2026-04-23T10:00:30.851Z</time></trkpt><trkpt lat="43.3550868" lon="11.4243505"><ele>238.66666666666669</ele><time>2026-04-23T10:00:31.85Z</time></trkpt><trkpt lat="43.3549789" lon="11.4241798"><ele>237.33333333333334</ele><time>2026-04-23T10:00:32.853Z</time></trkpt><trkpt lat="43.3549119" lon="11.4239985"><ele>236.0</ele><time>2026-04-23T10:00:33.859Z</time></trkpt><trkpt lat="43.3549012" lon="11.4237977"><ele>234.66666666666669</ele><time>2026-04-23T10:00:34.856Z</time></trkpt><trkpt lat="43.3549305" lon="11.4235847"><ele>233.33333333333331</ele><time>2026-04-23T10:00:35.854Z</time></trkpt><trkpt lat="43.355022" lon="11.4233396"><ele>232.0</ele><time>2026-04-23T10:00:36.848Z</time></trkpt><trkpt lat="43.3551197" lon="11.4230827"><ele>229.66666666666666</ele><time>2026-04-23T10:00:37.857Z</time></trkpt><trkpt lat="43.3552001" lon="11.4228258"><ele>227.33333333333331</ele><time>2026-04-23T10:00:38.846Z</time></trkpt><trkpt lat="43.3552663" lon="11.4225599"><ele>225.0</ele><time>2026-04-23T10:00:39.852Z</time></trkpt><trkpt lat="43.3553075" lon="11.4222999"><ele>222.66666666666669</ele><time>2026-04-23T10:00:40.852Z</time></trkpt><trkpt lat="43.3553306" lon="11.4220438"><ele>220.33333333333334</ele><time>2026-04-23T10:00:41.846Z</time></trkpt><trkpt lat="43.3553458" lon="11.4217878"><ele>218.0</ele><time>2026-04-23T10:00:42.857Z</time></trkpt><trkpt lat="43.3553616" lon="11.4215366"><ele>217.0</ele><time>2026-04-23T10:00:43.845Z</time></trkpt><trkpt lat="43.3553842" lon="11.4212882"><ele>216.0</ele><time>2026-04-23T10:00:44.853Z</time></trkpt><trkpt lat="43.3554142" lon="11.4210425"><ele>215.0</ele><time>2026-04-23T10:00:45.852Z</time></trkpt><trkpt lat="43.355453" lon="11.4207996"><ele>216.0</ele><time>2026-04-23T10:00:46.857Z</time></trkpt><trkpt lat="43.3555496" lon="11.4203208"><ele>217.0</ele><time>2026-04-23T10:00:48.853Z</time></trkpt><trkpt lat="43.355597" lon="11.4200867"><ele>217.0</ele><time>2026-04-23T10:00:49.858Z</time></trkpt><trkpt lat="43.3556499" lon="11.4198552"><ele>217.0</ele><time>2026-04-23T10:00:50.859Z</time></trkpt><trkpt lat="43.3557137" lon="11.419634"><ele>217.0</ele><time>2026-04-23T10:00:51.857Z</time></trkpt><trkpt lat="43.3557897" lon="11.4194261"><ele>216.66666666666666</ele><time>2026-04-23T10:00:52.857Z</time></trkpt><trkpt lat="43.3558718" lon="11.4192295"><ele>216.33333333333331</ele><time>2026-04-23T10:00:53.865Z</time></trkpt><trkpt lat="43.3559608" lon="11.4190393"><ele>216.0</ele><time>2026-04-23T10:00:54.856Z</time></trkpt><trkpt lat="43.3560504" lon="11.4188515"><ele>216.66666666666669</ele><time>2026-04-23T10:00:55.85Z</time></trkpt><trkpt lat="43.3561366" lon="11.4186647"><ele>217.33333333333334</ele><time>2026-04-23T10:00:56.856Z</time></trkpt><trkpt lat="43.3562231" lon="11.4184794"><ele>218.0</ele><time>2026-04-23T10:00:57.85Z</time></trkpt><trkpt lat="43.3563087" lon="11.4183014"><ele>217.75</ele><time>2026-04-23T10:00:58.853Z</time></trkpt><trkpt lat="43.356388" lon="11.4181362"><ele>217.5</ele><time>2026-04-23T10:00:59.854Z</time></trkpt><trkpt lat="43.356462" lon="11.4179829"><ele>217.25</ele><time>2026-04-23T10:01:00.857Z</time></trkpt><trkpt lat="43.3565292" lon="11.4178423"><ele>217.0</ele><time>2026-04-23T10:01:01.853Z</time></trkpt><trkpt lat="43.3565896" lon="11.417713"><ele>217.39999999999998</ele><time>2026-04-23T10:01:02.851Z</time></trkpt><trkpt lat="43.3566495" lon="11.4175868"><ele>217.79999999999998</ele><time>2026-04-23T10:01:03.848Z</time></trkpt><trkpt lat="43.3567088" lon="11.4174598"><ele>218.2</ele><time>2026-04-23T10:01:04.851Z</time></trkpt><trkpt lat="43.356763" lon="11.4173337"><ele>218.6</ele><time>2026-04-23T10:01:05.849Z</time></trkpt><trkpt lat="43.3568077" lon="11.4172087"><ele>219.0</ele><time>2026-04-23T10:01:06.85Z</time></trkpt><trkpt lat="43.3568378" lon="11.4170791"><ele>219.0</ele><time>2026-04-23T10:01:07.848Z</time></trkpt><trkpt lat="43.3568591" lon="11.4168697"><ele>218.99999999999997</ele><time>2026-04-23T10:01:09.851Z</time></trkpt><trkpt lat="43.3568776" lon="11.4167828"><ele>218.99999999999997</ele><time>2026-04-23T10:01:17.849Z</time></trkpt><trkpt lat="43.3568562" lon="11.4166446"><ele>219.0</ele><time>2026-04-23T10:01:19.854Z</time></trkpt><trkpt lat="43.3568154" lon="11.4165492"><ele>219.0</ele><time>2026-04-23T10:01:20.855Z</time></trkpt><trkpt lat="43.3567598" lon="11.4164507"><ele>219.0</ele><time>2026-04-23T10:01:21.852Z</time></trkpt><trkpt lat="43.3566948" lon="11.4163446"><ele>218.99999999999997</ele><time>2026-04-23T10:01:22.853Z</time></trkpt><trkpt lat="43.3566221" lon="11.416228"><ele>218.99999999999997</ele><time>2026-04-23T10:01:23.851Z</time></trkpt><trkpt lat="43.3565475" lon="11.4161098"><ele>219.0</ele><time>2026-04-23T10:01:24.851Z</time></trkpt><trkpt lat="43.3564775" lon="11.415995"><ele>219.0</ele><time>2026-04-23T10:01:25.853Z</time></trkpt><trkpt lat="43.3564115" lon="11.4158851"><ele>219.75</ele><time>2026-04-23T10:01:26.854Z</time></trkpt><trkpt lat="43.3563558" lon="11.4157758"><ele>220.5</ele><time>2026-04-23T10:01:27.856Z</time></trkpt><trkpt lat="43.3563227" lon="11.4156605"><ele>221.25</ele><time>2026-04-23T10:01:28.859Z</time></trkpt><trkpt lat="43.3563499" lon="11.415379"><ele>222.0</ele><time>2026-04-23T10:01:30.86Z</time></trkpt><trkpt lat="43.356396" lon="11.4152035"><ele>223.25</ele><time>2026-04-23T10:01:31.862Z</time></trkpt><trkpt lat="43.3564433" lon="11.4150128"><ele>224.5</ele><time>2026-04-23T10:01:32.866Z</time></trkpt><trkpt lat="43.3564881" lon="11.4148315"><ele>225.75</ele><time>2026-04-23T10:01:33.861Z</time></trkpt><trkpt lat="43.356528" lon="11.4146643"><ele>227.0</ele><time>2026-04-23T10:01:34.855Z</time></trkpt><trkpt lat="43.356564" lon="11.4145136"><ele>228.0</ele><time>2026-04-23T10:01:35.853Z</time></trkpt><trkpt lat="43.356603" lon="11.4143659"><ele>229.0</ele><time>2026-04-23T10:01:36.854Z</time></trkpt><trkpt lat="43.3566425" lon="11.4142033"><ele>230.0</ele><time>2026-04-23T10:01:37.856Z</time></trkpt><trkpt lat="43.356687" lon="11.4140169"><ele>231.0</ele><time>2026-04-23T10:01:38.855Z</time></trkpt><trkpt lat="43.3567396" lon="11.413808"><ele>232.0</ele><time>2026-04-23T10:01:39.857Z</time></trkpt><trkpt lat="43.356803" lon="11.4135762"><ele>233.0</ele><time>2026-04-23T10:01:40.859Z</time></trkpt><trkpt lat="43.3568773" lon="11.4133214"><ele>234.0</ele><time>2026-04-23T10:01:41.855Z</time></trkpt><trkpt lat="43.3569578" lon="11.4130552"><ele>235.0</ele><time>2026-04-23T10:01:42.856Z</time></trkpt><trkpt lat="43.3570426" lon="11.4128124"><ele>236.0</ele><time>2026-04-23T10:01:43.856Z</time></trkpt><trkpt lat="43.3571271" lon="11.4126098"><ele>237.0</ele><time>2026-04-23T10:01:44.854Z</time></trkpt><trkpt lat="43.3572126" lon="11.4124544"><ele>238.25</ele><time>2026-04-23T10:01:45.854Z</time></trkpt><trkpt lat="43.3573027" lon="11.4123349"><ele>239.5</ele><time>2026-04-23T10:01:46.855Z</time></trkpt><trkpt lat="43.3574061" lon="11.4122504"><ele>240.75</ele><time>2026-04-23T10:01:47.853Z</time></trkpt><trkpt lat="43.3575258" lon="11.4122146"><ele>242.0</ele><time>2026-04-23T10:01:48.86Z</time></trkpt><trkpt lat="43.3576576" lon="11.4122179"><ele>242.0</ele><time>2026-04-23T10:01:49.856Z</time></trkpt><trkpt lat="43.3579396" lon="11.4123249"><ele>242.0</ele><time>2026-04-23T10:01:51.856Z</time></trkpt><trkpt lat="43.3580805" lon="11.4123881"><ele>242.0</ele><time>2026-04-23T10:01:52.845Z</time></trkpt><trkpt lat="43.3582245" lon="11.4124306"><ele>243.25</ele><time>2026-04-23T10:01:53.852Z</time></trkpt><trkpt lat="43.358375" lon="11.412445"><ele>244.5</ele><time>2026-04-23T10:01:54.855Z</time></trkpt><trkpt lat="43.3585196" lon="11.4124314"><ele>245.75</ele><time>2026-04-23T10:01:55.847Z</time></trkpt><trkpt lat="43.3586571" lon="11.4123919"><ele>247.0</ele><time>2026-04-23T10:01:56.847Z</time></trkpt><trkpt lat="43.358789" lon="11.4123314"><ele>247.39999999999998</ele><time>2026-04-23T10:01:57.847Z</time></trkpt><trkpt lat="43.3588992" lon="11.4122497"><ele>247.79999999999998</ele><time>2026-04-23T10:01:58.849Z</time></trkpt><trkpt lat="43.3589787" lon="11.4121553"><ele>248.2</ele><time>2026-04-23T10:01:59.848Z</time></trkpt><trkpt lat="43.3590214" lon="11.4120527"><ele>248.6</ele><time>2026-04-23T10:02:00.853Z</time></trkpt><trkpt lat="43.3590272" lon="11.4119393"><ele>249.0</ele><time>2026-04-23T10:02:01.85Z</time></trkpt><trkpt lat="43.3590132" lon="11.4118029"><ele>251.25</ele><time>2026-04-23T10:02:02.856Z</time></trkpt><trkpt lat="43.3589903" lon="11.411634"><ele>253.5</ele><time>2026-04-23T10:02:03.859Z</time></trkpt><trkpt lat="43.3589798" lon="11.4114344"><ele>255.75</ele><time>2026-04-23T10:02:04.855Z</time></trkpt><trkpt lat="43.3589936" lon="11.4112321"><ele>258.0</ele><time>2026-04-23T10:02:05.847Z</time></trkpt><trkpt lat="43.3590276" lon="11.4110624"><ele>259.2</ele><time>2026-04-23T10:02:06.854Z</time></trkpt><trkpt lat="43.3590851" lon="11.4109318"><ele>260.4</ele><time>2026-04-23T10:02:07.854Z</time></trkpt><trkpt lat="43.3591572" lon="11.4108494"><ele>261.59999999999997</ele><time>2026-04-23T10:02:08.854Z</time></trkpt><trkpt lat="43.3592453" lon="11.4108334"><ele>262.8</ele><time>2026-04-23T10:02:09.854Z</time></trkpt><trkpt lat="43.3593382" lon="11.4108886"><ele>264.0</ele><time>2026-04-23T10:02:10.859Z</time></trkpt><trkpt lat="43.3594913" lon="11.4111182"><ele>264.0</ele><time>2026-04-23T10:02:12.854Z</time></trkpt><trkpt lat="43.3595432" lon="11.4112893"><ele>264.0</ele><time>2026-04-23T10:02:13.857Z</time></trkpt><trkpt lat="43.3595781" lon="11.4114817"><ele>264.0</ele><time>2026-04-23T10:02:14.852Z</time></trkpt><trkpt lat="43.3596004" lon="11.4116931"><ele>264.0</ele><time>2026-04-23T10:02:15.856Z</time></trkpt><trkpt lat="43.359619" lon="11.4118659"><ele>263.1428571428571</ele><time>2026-04-23T10:02:16.848Z</time></trkpt><trkpt lat="43.3596513" lon="11.4119807"><ele>262.2857142857143</ele><time>2026-04-23T10:02:17.857Z</time></trkpt><trkpt lat="43.359705" lon="11.412051"><ele>261.42857142857144</ele><time>2026-04-23T10:02:18.851Z</time></trkpt><trkpt lat="43.3597707" lon="11.4120829"><ele>260.57142857142856</ele><time>2026-04-23T10:02:19.852Z</time></trkpt><trkpt lat="43.3598348" lon="11.4120829"><ele>259.7142857142857</ele><time>2026-04-23T10:02:20.851Z</time></trkpt><trkpt lat="43.3598934" lon="11.4120468"><ele>258.85714285714283</ele><time>2026-04-23T10:02:21.85Z</time></trkpt><trkpt lat="43.3599421" lon="11.4119867"><ele>258.0</ele><time>2026-04-23T10:02:22.855Z</time></trkpt><trkpt lat="43.3599734" lon="11.4118911"><ele>260.4</ele><time>2026-04-23T10:02:23.855Z</time></trkpt><trkpt lat="43.3599743" lon="11.4117672"><ele>262.8</ele><time>2026-04-23T10:02:24.853Z</time></trkpt><trkpt lat="43.3599478" lon="11.4116368"><ele>265.2</ele><time>2026-04-23T10:02:25.856Z</time></trkpt><trkpt lat="43.3599213" lon="11.4114834"><ele>267.6</ele><time>2026-04-23T10:02:26.858Z</time></trkpt><trkpt lat="43.3599138" lon="11.4113266"><ele>270.0</ele><time>2026-04-23T10:02:27.859Z</time></trkpt><trkpt lat="43.3599393" lon="11.4111837"><ele>270.0</ele><time>2026-04-23T10:02:28.856Z</time></trkpt><trkpt lat="43.3599901" lon="11.4110513"><ele>270.0</ele><time>2026-04-23T10:02:29.852Z</time></trkpt><trkpt lat="43.3600722" lon="11.4109522"><ele>270.0</ele><time>2026-04-23T10:02:30.863Z</time></trkpt><trkpt lat="43.3601821" lon="11.4108807"><ele>270.0</ele><time>2026-04-23T10:02:31.857Z</time></trkpt><trkpt lat="43.360459" lon="11.4107868"><ele>271.6</ele><time>2026-04-23T10:02:33.854Z</time></trkpt><trkpt lat="43.3605882" lon="11.4107483"><ele>273.2</ele><time>2026-04-23T10:02:34.854Z</time></trkpt><trkpt lat="43.3606901" lon="11.4106972"><ele>274.8</ele><time>2026-04-23T10:02:35.851Z</time></trkpt><trkpt lat="43.3607686" lon="11.410617"><ele>276.4</ele><time>2026-04-23T10:02:36.861Z</time></trkpt><trkpt lat="43.3608231" lon="11.4104996"><ele>278.0</ele><time>2026-04-23T10:02:37.855Z</time></trkpt><trkpt lat="43.3608534" lon="11.4103544"><ele>278.75</ele><time>2026-04-23T10:02:38.845Z</time></trkpt><trkpt lat="43.3608587" lon="11.410197"><ele>279.5</ele><time>2026-04-23T10:02:39.847Z</time></trkpt><trkpt lat="43.3608278" lon="11.4100196"><ele>280.25</ele><time>2026-04-23T10:02:40.854Z</time></trkpt><trkpt lat="43.3607682" lon="11.4098221"><ele>281.0</ele><time>2026-04-23T10:02:41.851Z</time></trkpt><trkpt lat="43.3606837" lon="11.4096078"><ele>280.6666666666667</ele><time>2026-04-23T10:02:42.857Z</time></trkpt><trkpt lat="43.3605868" lon="11.4093883"><ele>280.3333333333333</ele><time>2026-04-23T10:02:43.853Z</time></trkpt><trkpt lat="43.36048" lon="11.4091702"><ele>280.0</ele><time>2026-04-23T10:02:44.855Z</time></trkpt><trkpt lat="43.3603713" lon="11.4089704"><ele>283.0</ele><time>2026-04-23T10:02:45.851Z</time></trkpt><trkpt lat="43.3602566" lon="11.4088009"><ele>286.0</ele><time>2026-04-23T10:02:46.855Z</time></trkpt><trkpt lat="43.360131" lon="11.4086641"><ele>289.0</ele><time>2026-04-23T10:02:47.851Z</time></trkpt><trkpt lat="43.3599845" lon="11.4085481"><ele>289.0</ele><time>2026-04-23T10:02:48.855Z</time></trkpt><trkpt lat="43.3598207" lon="11.4084381"><ele>289.0</ele><time>2026-04-23T10:02:49.853Z</time></trkpt><trkpt lat="43.3596619" lon="11.4083329"><ele>289.0</ele><time>2026-04-23T10:02:50.858Z</time></trkpt><trkpt lat="43.3595376" lon="11.4082326"><ele>289.0</ele><time>2026-04-23T10:02:51.863Z</time></trkpt><trkpt lat="43.3594575" lon="11.4081313"><ele>289.0</ele><time>2026-04-23T10:02:52.85Z</time></trkpt><trkpt lat="43.3594296" lon="11.4079063"><ele>289.0</ele><time>2026-04-23T10:02:54.85Z</time></trkpt><trkpt lat="43.359469" lon="11.4077648"><ele>289.0</ele><time>2026-04-23T10:02:55.849Z</time></trkpt><trkpt lat="43.3595423" lon="11.407626"><ele>290.5</ele><time>2026-04-23T10:02:56.853Z</time></trkpt><trkpt lat="43.3596413" lon="11.4075063"><ele>292.0</ele><time>2026-04-23T10:02:57.851Z</time></trkpt><trkpt lat="43.3597562" lon="11.4074173"><ele>293.5</ele><time>2026-04-23T10:02:58.855Z</time></trkpt><trkpt lat="43.3598796" lon="11.4073722"><ele>295.0</ele><time>2026-04-23T10:02:59.847Z</time></trkpt><trkpt lat="43.3600056" lon="11.407378"><ele>295.0</ele><time>2026-04-23T10:03:00.857Z</time></trkpt><trkpt lat="43.3601464" lon="11.4074234"><ele>295.0</ele><time>2026-04-23T10:03:01.856Z</time></trkpt><trkpt lat="43.3603013" lon="11.4074789"><ele>295.0</ele><time>2026-04-23T10:03:02.855Z</time></trkpt><trkpt lat="43.3604699" lon="11.4075343"><ele>296.0</ele><time>2026-04-23T10:03:03.865Z</time></trkpt><trkpt lat="43.3606376" lon="11.4075699"><ele>297.0</ele><time>2026-04-23T10:03:04.86Z</time></trkpt><trkpt lat="43.3608067" lon="11.407585"><ele>298.0</ele><time>2026-04-23T10:03:05.861Z</time></trkpt><trkpt lat="43.3609726" lon="11.407584"><ele>298.0</ele><time>2026-04-23T10:03:06.854Z</time></trkpt><trkpt lat="43.3611349" lon="11.4075706"><ele>298.0</ele><time>2026-04-23T10:03:07.859Z</time></trkpt><trkpt lat="43.3612926" lon="11.4075468"><ele>298.0</ele><time>2026-04-23T10:03:08.854Z</time></trkpt><trkpt lat="43.3614449" lon="11.4075193"><ele>300.0</ele><time>2026-04-23T10:03:09.862Z</time></trkpt><trkpt lat="43.3615941" lon="11.4074884"><ele>302.0</ele><time>2026-04-23T10:03:10.861Z</time></trkpt><trkpt lat="43.361739" lon="11.4074522"><ele>304.0</ele><time>2026-04-23T10:03:11.858Z</time></trkpt><trkpt lat="43.3618828" lon="11.4074057"><ele>306.0</ele><time>2026-04-23T10:03:12.861Z</time></trkpt><trkpt lat="43.362025" lon="11.4073586"><ele>308.6666666666667</ele><time>2026-04-23T10:03:13.864Z</time></trkpt><trkpt lat="43.3623058" lon="11.40727"><ele>311.33333333333337</ele><time>2026-04-23T10:03:15.86Z</time></trkpt><trkpt lat="43.3624458" lon="11.407224"><ele>314.0</ele><time>2026-04-23T10:03:16.861Z</time></trkpt><trkpt lat="43.362585" lon="11.4071753"><ele>313.25</ele><time>2026-04-23T10:03:17.859Z</time></trkpt><trkpt lat="43.3627222" lon="11.4071189"><ele>312.5</ele><time>2026-04-23T10:03:18.858Z</time></trkpt><trkpt lat="43.3628566" lon="11.4070512"><ele>311.75</ele><time>2026-04-23T10:03:19.856Z</time></trkpt><trkpt lat="43.3629879" lon="11.406977"><ele>311.0</ele><time>2026-04-23T10:03:20.848Z</time></trkpt><trkpt lat="43.363117" lon="11.4068985"><ele>313.0</ele><time>2026-04-23T10:03:21.85Z</time></trkpt><trkpt lat="43.3632433" lon="11.4068152"><ele>315.0</ele><time>2026-04-23T10:03:22.851Z</time></trkpt><trkpt lat="43.3633673" lon="11.4067301"><ele>317.0</ele><time>2026-04-23T10:03:23.855Z</time></trkpt><trkpt lat="43.363493" lon="11.4066478"><ele>319.0</ele><time>2026-04-23T10:03:24.857Z</time></trkpt><trkpt lat="43.3636194" lon="11.4065672"><ele>319.0</ele><time>2026-04-23T10:03:25.853Z</time></trkpt><trkpt lat="43.3637456" lon="11.4064874"><ele>319.0</ele><time>2026-04-23T10:03:26.858Z</time></trkpt><trkpt lat="43.3638695" lon="11.4064029"><ele>319.0</ele><time>2026-04-23T10:03:27.85Z</time></trkpt><trkpt lat="43.3639927" lon="11.4063172"><ele>319.0</ele><time>2026-04-23T10:03:28.856Z</time></trkpt><trkpt lat="43.3641141" lon="11.4062312"><ele>321.5</ele><time>2026-04-23T10:03:29.857Z</time></trkpt><trkpt lat="43.3642342" lon="11.4061484"><ele>324.0</ele><time>2026-04-23T10:03:30.855Z</time></trkpt><trkpt lat="43.3643536" lon="11.4060754"><ele>326.5</ele><time>2026-04-23T10:03:31.855Z</time></trkpt><trkpt lat="43.3644702" lon="11.406016"><ele>329.0</ele><time>2026-04-23T10:03:32.855Z</time></trkpt><trkpt lat="43.3645773" lon="11.405982"><ele>329.0</ele><time>2026-04-23T10:03:33.849Z</time></trkpt><trkpt lat="43.3646622" lon="11.4059872"><ele>329.0</ele><time>2026-04-23T10:03:34.846Z</time></trkpt><trkpt lat="43.3647631" lon="11.4061181"><ele>329.0</ele><time>2026-04-23T10:03:36.853Z</time></trkpt><trkpt lat="43.3648132" lon="11.4062212"><ele>329.0</ele><time>2026-04-23T10:03:37.856Z</time></trkpt><trkpt lat="43.3648638" lon="11.4063274"><ele>329.0</ele><time>2026-04-23T10:03:38.85Z</time></trkpt><trkpt lat="43.3649219" lon="11.4064167"><ele>331.0</ele><time>2026-04-23T10:03:39.854Z</time></trkpt><trkpt lat="43.3649929" lon="11.406474"><ele>333.0</ele><time>2026-04-23T10:03:40.855Z</time></trkpt><trkpt lat="43.3650771" lon="11.4064995"><ele>335.0</ele><time>2026-04-23T10:03:41.854Z</time></trkpt><trkpt lat="43.3651666" lon="11.4064913"><ele>337.0</ele><time>2026-04-23T10:03:42.855Z</time></trkpt><trkpt lat="43.3652588" lon="11.406458"><ele>339.0</ele><time>2026-04-23T10:03:43.855Z</time></trkpt><trkpt lat="43.3653543" lon="11.4064095"><ele>339.0</ele><time>2026-04-23T10:03:44.853Z</time></trkpt><trkpt lat="43.3654567" lon="11.4063588"><ele>339.0</ele><time>2026-04-23T10:03:45.855Z</time></trkpt><trkpt lat="43.3655628" lon="11.406312"><ele>339.0</ele><time>2026-04-23T10:03:46.859Z</time></trkpt><trkpt lat="43.3656707" lon="11.4062695"><ele>339.0</ele><time>2026-04-23T10:03:47.859Z</time></trkpt><trkpt lat="43.3657685" lon="11.4062275"><ele>339.0</ele><time>2026-04-23T10:03:48.856Z</time></trkpt><trkpt lat="43.3658576" lon="11.4061757"><ele>340.0</ele><time>2026-04-23T10:03:49.846Z</time></trkpt><trkpt lat="43.3659328" lon="11.4061065"><ele>341.0</ele><time>2026-04-23T10:03:50.854Z</time></trkpt><trkpt lat="43.3659938" lon="11.406013"><ele>342.0</ele><time>2026-04-23T10:03:51.855Z</time></trkpt><trkpt lat="43.3660406" lon="11.4058937"><ele>343.0</ele><time>2026-04-23T10:03:52.85Z</time></trkpt><trkpt lat="43.3660827" lon="11.4057584"><ele>344.0</ele><time>2026-04-23T10:03:53.849Z</time></trkpt><trkpt lat="43.3661321" lon="11.4056171"><ele>344.0</ele><time>2026-04-23T10:03:54.848Z</time></trkpt><trkpt lat="43.366191" lon="11.4054673"><ele>344.0</ele><time>2026-04-23T10:03:55.857Z</time></trkpt><trkpt lat="43.3663404" lon="11.4051017"><ele>344.0</ele><time>2026-04-23T10:03:57.853Z</time></trkpt><trkpt lat="43.3664252" lon="11.4049105"><ele>344.0</ele><time>2026-04-23T10:03:58.853Z</time></trkpt><trkpt lat="43.3665078" lon="11.4047407"><ele>344.0</ele><time>2026-04-23T10:03:59.85Z</time></trkpt><trkpt lat="43.3665981" lon="11.404601"><ele>344.0</ele><time>2026-04-23T10:04:00.852Z</time></trkpt><trkpt lat="43.3667029" lon="11.4044726"><ele>344.0</ele><time>2026-04-23T10:04:01.854Z</time></trkpt><trkpt lat="43.3668218" lon="11.4043628"><ele>345.25</ele><time>2026-04-23T10:04:02.859Z</time></trkpt><trkpt lat="43.3669505" lon="11.4042952"><ele>346.5</ele><time>2026-04-23T10:04:03.864Z</time></trkpt><trkpt lat="43.3670916" lon="11.4042618"><ele>347.75</ele><time>2026-04-23T10:04:04.85Z</time></trkpt><trkpt lat="43.3672349" lon="11.4042583"><ele>349.0</ele><time>2026-04-23T10:04:05.851Z</time></trkpt><trkpt lat="43.3673749" lon="11.4042723"><ele>349.0</ele><time>2026-04-23T10:04:06.852Z</time></trkpt><trkpt lat="43.367512" lon="11.4042941"><ele>349.0</ele><time>2026-04-23T10:04:07.854Z</time></trkpt><trkpt lat="43.3676533" lon="11.4043263"><ele>349.0</ele><time>2026-04-23T10:04:08.858Z</time></trkpt><trkpt lat="43.3677915" lon="11.4043587"><ele>349.0</ele><time>2026-04-23T10:04:09.859Z</time></trkpt><trkpt lat="43.3679284" lon="11.4043884"><ele>349.75</ele><time>2026-04-23T10:04:10.859Z</time></trkpt><trkpt lat="43.3680634" lon="11.404415"><ele>350.5</ele><time>2026-04-23T10:04:11.856Z</time></trkpt><trkpt lat="43.3681947" lon="11.4044382"><ele>351.25</ele><time>2026-04-23T10:04:12.858Z</time></trkpt><trkpt lat="43.3683235" lon="11.4044653"><ele>352.0</ele><time>2026-04-23T10:04:13.859Z</time></trkpt><trkpt lat="43.3684524" lon="11.4044921"><ele>352.0</ele><time>2026-04-23T10:04:14.855Z</time></trkpt><trkpt lat="43.3685799" lon="11.4045144"><ele>352.0</ele><time>2026-04-23T10:04:15.849Z</time></trkpt><trkpt lat="43.36871" lon="11.4045241"><ele>352.0</ele><time>2026-04-23T10:04:16.851Z</time></trkpt><trkpt lat="43.3689737" lon="11.4045097"><ele>352.75</ele><time>2026-04-23T10:04:18.86Z</time></trkpt><trkpt lat="43.3691049" lon="11.4044959"><ele>353.5</ele><time>2026-04-23T10:04:19.857Z</time></trkpt><trkpt lat="43.3692357" lon="11.4044846"><ele>354.25</ele><time>2026-04-23T10:04:20.849Z</time></trkpt><trkpt lat="43.3693665" lon="11.4044735"><ele>355.0</ele><time>2026-04-23T10:04:21.852Z</time></trkpt><trkpt lat="43.3695" lon="11.4044675"><ele>355.0</ele><time>2026-04-23T10:04:22.853Z</time></trkpt><trkpt lat="43.3696307" lon="11.4044709"><ele>355.0</ele><time>2026-04-23T10:04:23.86Z</time></trkpt><trkpt lat="43.3697588" lon="11.4044811"><ele>355.0</ele><time>2026-04-23T10:04:24.861Z</time></trkpt><trkpt lat="43.369886" lon="11.4044905"><ele>355.0</ele><time>2026-04-23T10:04:25.857Z</time></trkpt><trkpt lat="43.3700111" lon="11.4044955"><ele>356.5</ele><time>2026-04-23T10:04:26.859Z</time></trkpt><trkpt lat="43.3701352" lon="11.4044996"><ele>358.0</ele><time>2026-04-23T10:04:27.851Z</time></trkpt><trkpt lat="43.3702582" lon="11.404506"><ele>359.5</ele><time>2026-04-23T10:04:28.856Z</time></trkpt><trkpt lat="43.3703818" lon="11.4045087"><ele>361.0</ele><time>2026-04-23T10:04:29.856Z</time></trkpt><trkpt lat="43.3705029" lon="11.4045052"><ele>362.0</ele><time>2026-04-23T10:04:30.865Z</time></trkpt><trkpt lat="43.3706181" lon="11.4044869"><ele>363.0</ele><time>2026-04-23T10:04:31.859Z</time></trkpt><trkpt lat="43.3707278" lon="11.4044517"><ele>364.0</ele><time>2026-04-23T10:04:32.86Z</time></trkpt><trkpt lat="43.3708289" lon="11.4044004"><ele>365.0</ele><time>2026-04-23T10:04:33.853Z</time></trkpt><trkpt lat="43.3709167" lon="11.404325"><ele>366.0</ele><time>2026-04-23T10:04:34.856Z</time></trkpt><trkpt lat="43.3709953" lon="11.4042157"><ele>366.0</ele><time>2026-04-23T10:04:35.856Z</time></trkpt><trkpt lat="43.3710612" lon="11.4040827"><ele>366.0</ele><time>2026-04-23T10:04:36.858Z</time></trkpt><trkpt lat="43.3711236" lon="11.4039295"><ele>366.0</ele><time>2026-04-23T10:04:37.86Z</time></trkpt><trkpt lat="43.3712609" lon="11.4035532"><ele>366.6666666666667</ele><time>2026-04-23T10:04:39.858Z</time></trkpt><trkpt lat="43.3713489" lon="11.4033398"><ele>367.33333333333337</ele><time>2026-04-23T10:04:40.856Z</time></trkpt><trkpt lat="43.3714368" lon="11.4031474"><ele>368.0</ele><time>2026-04-23T10:04:41.856Z</time></trkpt><trkpt lat="43.3715154" lon="11.4029751"><ele>370.75</ele><time>2026-04-23T10:04:42.855Z</time></trkpt><trkpt lat="43.3715898" lon="11.4028031"><ele>373.5</ele><time>2026-04-23T10:04:43.85Z</time></trkpt><trkpt lat="43.3716638" lon="11.4026374"><ele>376.25</ele><time>2026-04-23T10:04:44.86Z</time></trkpt><trkpt lat="43.3717337" lon="11.4024776"><ele>379.0</ele><time>2026-04-23T10:04:45.853Z</time></trkpt><trkpt lat="43.3718011" lon="11.4023255"><ele>379.0</ele><time>2026-04-23T10:04:46.852Z</time></trkpt><trkpt lat="43.3718566" lon="11.402171"><ele>379.0</ele><time>2026-04-23T10:04:47.851Z</time></trkpt><trkpt lat="43.371885" lon="11.4020067"><ele>379.0</ele><time>2026-04-23T10:04:48.853Z</time></trkpt><trkpt lat="43.3718857" lon="11.4018397"><ele>379.0</ele><time>2026-04-23T10:04:49.852Z</time></trkpt><trkpt lat="43.3718945" lon="11.4016801"><ele>379.5</ele><time>2026-04-23T10:04:50.857Z</time></trkpt><trkpt lat="43.3719393" lon="11.4015331"><ele>380.0</ele><time>2026-04-23T10:04:51.856Z</time></trkpt><trkpt lat="43.3720217" lon="11.401414"><ele>380.5</ele><time>2026-04-23T10:04:52.848Z</time></trkpt><trkpt lat="43.3721245" lon="11.4013174"><ele>381.0</ele><time>2026-04-23T10:04:53.849Z</time></trkpt><trkpt lat="43.3722288" lon="11.4012248"><ele>382.25</ele><time>2026-04-23T10:04:54.854Z</time></trkpt><trkpt lat="43.3723421" lon="11.4011427"><ele>383.5</ele><time>2026-04-23T10:04:55.849Z</time></trkpt><trkpt lat="43.3724549" lon="11.4010583"><ele>384.75</ele><time>2026-04-23T10:04:56.861Z</time></trkpt><trkpt lat="43.3725661" lon="11.400961"><ele>386.0</ele><time>2026-04-23T10:04:57.85Z</time></trkpt><trkpt lat="43.3726802" lon="11.4008452"><ele>386.0</ele><time>2026-04-23T10:04:58.85Z</time></trkpt><trkpt lat="43.3729366" lon="11.4005498"><ele>386.0</ele><time>2026-04-23T10:05:00.853Z</time></trkpt><trkpt lat="43.3730605" lon="11.400406"><ele>385.0</ele><time>2026-04-23T10:05:01.852Z</time></trkpt><trkpt lat="43.3731854" lon="11.4002842"><ele>384.0</ele><time>2026-04-23T10:05:02.847Z</time></trkpt><trkpt lat="43.3733281" lon="11.4001863"><ele>383.0</ele><time>2026-04-23T10:05:03.849Z</time></trkpt><trkpt lat="43.3734805" lon="11.400111"><ele>383.0</ele><time>2026-04-23T10:05:04.851Z</time></trkpt><trkpt lat="43.3736419" lon="11.4000471"><ele>383.0</ele><time>2026-04-23T10:05:05.849Z</time></trkpt><trkpt lat="43.373798" lon="11.3999877"><ele>383.0</ele><time>2026-04-23T10:05:06.855Z</time></trkpt><trkpt lat="43.3739469" lon="11.3999254"><ele>383.0</ele><time>2026-04-23T10:05:07.854Z</time></trkpt><trkpt lat="43.3740837" lon="11.3998534"><ele>383.0</ele><time>2026-04-23T10:05:08.854Z</time></trkpt><trkpt lat="43.3742107" lon="11.3997699"><ele>383.0</ele><time>2026-04-23T10:05:09.855Z</time></trkpt><trkpt lat="43.3743402" lon="11.3996557"><ele>383.0</ele><time>2026-04-23T10:05:10.857Z</time></trkpt><trkpt lat="43.3744752" lon="11.3995141"><ele>382.6666666666667</ele><time>2026-04-23T10:05:11.858Z</time></trkpt><trkpt lat="43.3746188" lon="11.3993587"><ele>382.3333333333333</ele><time>2026-04-23T10:05:12.856Z</time></trkpt><trkpt lat="43.3747541" lon="11.3992114"><ele>382.0</ele><time>2026-04-23T10:05:13.859Z</time></trkpt><trkpt lat="43.3748778" lon="11.3990711"><ele>382.0</ele><time>2026-04-23T10:05:14.855Z</time></trkpt><trkpt lat="43.3749942" lon="11.3989355"><ele>382.0</ele><time>2026-04-23T10:05:15.858Z</time></trkpt><trkpt lat="43.3751065" lon="11.3988077"><ele>382.0</ele><time>2026-04-23T10:05:16.855Z</time></trkpt><trkpt lat="43.3752225" lon="11.3986902"><ele>382.0</ele><time>2026-04-23T10:05:17.857Z</time></trkpt><trkpt lat="43.3753475" lon="11.3985859"><ele>382.3333333333333</ele><time>2026-04-23T10:05:18.857Z</time></trkpt><trkpt lat="43.3754788" lon="11.3984988"><ele>382.6666666666667</ele><time>2026-04-23T10:05:19.859Z</time></trkpt><trkpt lat="43.3757642" lon="11.3983576"><ele>383.0</ele><time>2026-04-23T10:05:21.855Z</time></trkpt><trkpt lat="43.3759294" lon="11.398288"><ele>383.0</ele><time>2026-04-23T10:05:22.86Z</time></trkpt><trkpt lat="43.3760972" lon="11.3982279"><ele>383.0</ele><time>2026-04-23T10:05:23.854Z</time></trkpt><trkpt lat="43.3762519" lon="11.3981789"><ele>383.0</ele><time>2026-04-23T10:05:24.857Z</time></trkpt><trkpt lat="43.3763957" lon="11.3981322"><ele>382.5</ele><time>2026-04-23T10:05:25.85Z</time></trkpt><trkpt lat="43.3765248" lon="11.3980832"><ele>382.0</ele><time>2026-04-23T10:05:26.86Z</time></trkpt><trkpt lat="43.3766465" lon="11.3980183"><ele>381.5</ele><time>2026-04-23T10:05:27.853Z</time></trkpt><trkpt lat="43.3767535" lon="11.3979262"><ele>381.0</ele><time>2026-04-23T10:05:28.856Z</time></trkpt><trkpt lat="43.3768541" lon="11.3978133"><ele>382.25</ele><time>2026-04-23T10:05:29.854Z</time></trkpt><trkpt lat="43.3769537" lon="11.3976884"><ele>383.5</ele><time>2026-04-23T10:05:30.855Z</time></trkpt><trkpt lat="43.3770647" lon="11.3975602"><ele>384.75</ele><time>2026-04-23T10:05:31.855Z</time></trkpt><trkpt lat="43.3771823" lon="11.3974408"><ele>386.0</ele><time>2026-04-23T10:05:32.854Z</time></trkpt><trkpt lat="43.3772972" lon="11.3973358"><ele>386.0</ele><time>2026-04-23T10:05:33.86Z</time></trkpt><trkpt lat="43.377418" lon="11.3972398"><ele>386.0</ele><time>2026-04-23T10:05:34.847Z</time></trkpt><trkpt lat="43.377544" lon="11.3971573"><ele>386.0</ele><time>2026-04-23T10:05:35.856Z</time></trkpt><trkpt lat="43.3776754" lon="11.3971011"><ele>386.0</ele><time>2026-04-23T10:05:36.849Z</time></trkpt><trkpt lat="43.3778087" lon="11.397081"><ele>386.75</ele><time>2026-04-23T10:05:37.854Z</time></trkpt><trkpt lat="43.3779409" lon="11.3970806"><ele>387.5</ele><time>2026-04-23T10:05:38.858Z</time></trkpt><trkpt lat="43.3780763" lon="11.3970703"><ele>388.25</ele><time>2026-04-23T10:05:39.857Z</time></trkpt><trkpt lat="43.3782186" lon="11.3970412"><ele>389.0</ele><time>2026-04-23T10:05:40.859Z</time></trkpt><trkpt lat="43.3785063" lon="11.3969494"><ele>390.25</ele><time>2026-04-23T10:05:42.855Z</time></trkpt><trkpt lat="43.3786477" lon="11.3969001"><ele>391.5</ele><time>2026-04-23T10:05:43.857Z</time></trkpt><trkpt lat="43.3787882" lon="11.396854"><ele>392.75</ele><time>2026-04-23T10:05:44.856Z</time></trkpt><trkpt lat="43.3789267" lon="11.396805"><ele>394.0</ele><time>2026-04-23T10:05:45.853Z</time></trkpt><trkpt lat="43.3790654" lon="11.3967567"><ele>395.5</ele><time>2026-04-23T10:05:46.857Z</time></trkpt><trkpt lat="43.3792002" lon="11.3967112"><ele>397.0</ele><time>2026-04-23T10:05:47.865Z</time></trkpt><trkpt lat="43.379335" lon="11.3966685"><ele>398.5</ele><time>2026-04-23T10:05:48.854Z</time></trkpt><trkpt lat="43.3794712" lon="11.3966265"><ele>400.0</ele><time>2026-04-23T10:05:49.858Z</time></trkpt><trkpt lat="43.3796077" lon="11.3965877"><ele>401.0</ele><time>2026-04-23T10:05:50.858Z</time></trkpt><trkpt lat="43.3797439" lon="11.3965521"><ele>402.0</ele><time>2026-04-23T10:05:51.856Z</time></trkpt><trkpt lat="43.3798783" lon="11.3965169"><ele>403.0</ele><time>2026-04-23T10:05:52.849Z</time></trkpt><trkpt lat="43.3800121" lon="11.396484"><ele>404.0</ele><time>2026-04-23T10:05:53.866Z</time></trkpt><trkpt lat="43.380146" lon="11.3964509"><ele>404.0</ele><time>2026-04-23T10:05:54.856Z</time></trkpt><trkpt lat="43.3802785" lon="11.3964185"><ele>404.0</ele><time>2026-04-23T10:05:55.855Z</time></trkpt><trkpt lat="43.3804086" lon="11.3963863"><ele>404.0</ele><time>2026-04-23T10:05:56.849Z</time></trkpt><trkpt lat="43.3805402" lon="11.3963519"><ele>404.0</ele><time>2026-04-23T10:05:57.855Z</time></trkpt><trkpt lat="43.3806722" lon="11.3963184"><ele>405.0</ele><time>2026-04-23T10:05:58.855Z</time></trkpt><trkpt lat="43.3808046" lon="11.3962931"><ele>406.0</ele><time>2026-04-23T10:05:59.852Z</time></trkpt><trkpt lat="43.3809368" lon="11.3962784"><ele>407.0</ele><time>2026-04-23T10:06:00.856Z</time></trkpt><trkpt lat="43.3810682" lon="11.3962725"><ele>408.0</ele><time>2026-04-23T10:06:01.854Z</time></trkpt><trkpt lat="43.3813404" lon="11.3962788"><ele>408.5</ele><time>2026-04-23T10:06:03.854Z</time></trkpt><trkpt lat="43.3814789" lon="11.3962755"><ele>409.0</ele><time>2026-04-23T10:06:04.856Z</time></trkpt><trkpt lat="43.3816123" lon="11.3962627"><ele>409.5</ele><time>2026-04-23T10:06:05.853Z</time></trkpt><trkpt lat="43.3817397" lon="11.3962416"><ele>410.0</ele><time>2026-04-23T10:06:06.855Z</time></trkpt><trkpt lat="43.3818655" lon="11.3962174"><ele>410.0</ele><time>2026-04-23T10:06:07.856Z</time></trkpt><trkpt lat="43.3819928" lon="11.3961926"><ele>410.0</ele><time>2026-04-23T10:06:08.852Z</time></trkpt><trkpt lat="43.3821196" lon="11.3961684"><ele>410.0</ele><time>2026-04-23T10:06:09.855Z</time></trkpt><trkpt lat="43.3822441" lon="11.3961437"><ele>410.0</ele><time>2026-04-23T10:06:10.853Z</time></trkpt><trkpt lat="43.3823672" lon="11.3961174"><ele>411.0</ele><time>2026-04-23T10:06:11.85Z</time></trkpt><trkpt lat="43.3824872" lon="11.3960906"><ele>412.0</ele><time>2026-04-23T10:06:12.858Z</time></trkpt><trkpt lat="43.3826076" lon="11.3960559"><ele>413.0</ele><time>2026-04-23T10:06:13.853Z</time></trkpt><trkpt lat="43.3827237" lon="11.396019"><ele>414.0</ele><time>2026-04-23T10:06:14.851Z</time></trkpt><trkpt lat="43.3828339" lon="11.3959817"><ele>414.0</ele><time>2026-04-23T10:06:15.855Z</time></trkpt><trkpt lat="43.3829348" lon="11.3959445"><ele>414.0</ele><time>2026-04-23T10:06:16.853Z</time></trkpt><trkpt lat="43.3830286" lon="11.3959087"><ele>414.0</ele><time>2026-04-23T10:06:17.854Z</time></trkpt><trkpt lat="43.3831184" lon="11.3958707"><ele>414.0</ele><time>2026-04-23T10:06:18.852Z</time></trkpt><trkpt lat="43.3832096" lon="11.3958286"><ele>414.0</ele><time>2026-04-23T10:06:19.855Z</time></trkpt><trkpt lat="43.3833127" lon="11.3957748"><ele>415.33333333333337</ele><time>2026-04-23T10:06:20.856Z</time></trkpt><trkpt lat="43.3834335" lon="11.3957157"><ele>416.6666666666667</ele><time>2026-04-23T10:06:21.857Z</time></trkpt><trkpt lat="43.3835688" lon="11.3956596"><ele>418.0</ele><time>2026-04-23T10:06:22.857Z</time></trkpt><trkpt lat="43.3838708" lon="11.3955542"><ele>417.33333333333337</ele><time>2026-04-23T10:06:24.85Z</time></trkpt><trkpt lat="43.3840306" lon="11.3955015"><ele>416.66666666666663</ele><time>2026-04-23T10:06:25.856Z</time></trkpt><trkpt lat="43.3841947" lon="11.3954447"><ele>416.0</ele><time>2026-04-23T10:06:26.861Z</time></trkpt><trkpt lat="43.384347" lon="11.395391"><ele>416.0</ele><time>2026-04-23T10:06:27.858Z</time></trkpt><trkpt lat="43.3844794" lon="11.3953363"><ele>416.0</ele><time>2026-04-23T10:06:28.852Z</time></trkpt><trkpt lat="43.3845937" lon="11.395267"><ele>416.0</ele><time>2026-04-23T10:06:29.848Z</time></trkpt><trkpt lat="43.3846895" lon="11.3951749"><ele>416.0</ele><time>2026-04-23T10:06:30.852Z</time></trkpt><trkpt lat="43.3847802" lon="11.3950561"><ele>418.3333333333333</ele><time>2026-04-23T10:06:31.859Z</time></trkpt><trkpt lat="43.3848752" lon="11.3949058"><ele>420.66666666666663</ele><time>2026-04-23T10:06:32.849Z</time></trkpt><trkpt lat="43.3849822" lon="11.3947208"><ele>423.0</ele><time>2026-04-23T10:06:33.857Z</time></trkpt><trkpt lat="43.3851082" lon="11.3945108"><ele>423.66666666666663</ele><time>2026-04-23T10:06:34.858Z</time></trkpt><trkpt lat="43.3852544" lon="11.394289"><ele>424.3333333333333</ele><time>2026-04-23T10:06:35.859Z</time></trkpt><trkpt lat="43.3854111" lon="11.3940573"><ele>425.0</ele><time>2026-04-23T10:06:36.856Z</time></trkpt><trkpt lat="43.385575" lon="11.3938153"><ele>426.5</ele><time>2026-04-23T10:06:37.856Z</time></trkpt><trkpt lat="43.3857406" lon="11.3935712"><ele>428.0</ele><time>2026-04-23T10:06:38.857Z</time></trkpt><trkpt lat="43.3858996" lon="11.3933459"><ele>428.0</ele><time>2026-04-23T10:06:39.858Z</time></trkpt><trkpt lat="43.3860454" lon="11.3931421"><ele>428.0</ele><time>2026-04-23T10:06:40.857Z</time></trkpt><trkpt lat="43.3861747" lon="11.3929548"><ele>428.0</ele><time>2026-04-23T10:06:41.857Z</time></trkpt><trkpt lat="43.3862922" lon="11.3927907"><ele>429.5</ele><time>2026-04-23T10:06:42.852Z</time></trkpt><trkpt lat="43.3864141" lon="11.3926442"><ele>431.0</ele><time>2026-04-23T10:06:43.861Z</time></trkpt><trkpt lat="43.3867224" lon="11.3923558"><ele>431.0</ele><time>2026-04-23T10:06:45.857Z</time></trkpt><trkpt lat="43.3868717" lon="11.3922065"><ele>431.0</ele><time>2026-04-23T10:06:46.852Z</time></trkpt><trkpt lat="43.3870104" lon="11.3920363"><ele>431.0</ele><time>2026-04-23T10:06:47.857Z</time></trkpt><trkpt lat="43.387148" lon="11.391839"><ele>432.0</ele><time>2026-04-23T10:06:48.852Z</time></trkpt><trkpt lat="43.3872866" lon="11.3916283"><ele>433.0</ele><time>2026-04-23T10:06:49.857Z</time></trkpt><trkpt lat="43.3874171" lon="11.3914182"><ele>434.0</ele><time>2026-04-23T10:06:50.86Z</time></trkpt><trkpt lat="43.3875417" lon="11.3912227"><ele>434.66666666666663</ele><time>2026-04-23T10:06:51.855Z</time></trkpt><trkpt lat="43.3876636" lon="11.3910386"><ele>435.33333333333337</ele><time>2026-04-23T10:06:52.859Z</time></trkpt><trkpt lat="43.387781" lon="11.3908615"><ele>436.0</ele><time>2026-04-23T10:06:53.865Z</time></trkpt><trkpt lat="43.3878874" lon="11.3907003"><ele>436.0</ele><time>2026-04-23T10:06:54.854Z</time></trkpt><trkpt lat="43.3879757" lon="11.3905614"><ele>436.0</ele><time>2026-04-23T10:06:55.856Z</time></trkpt><trkpt lat="43.3880419" lon="11.3904406"><ele>436.0</ele><time>2026-04-23T10:06:56.856Z</time></trkpt><trkpt lat="43.3880855" lon="11.3903219"><ele>436.0</ele><time>2026-04-23T10:06:57.855Z</time></trkpt><trkpt lat="43.3881098" lon="11.3901952"><ele>436.0</ele><time>2026-04-23T10:06:58.851Z</time></trkpt><trkpt lat="43.3881211" lon="11.3900446"><ele>433.33333333333337</ele><time>2026-04-23T10:06:59.855Z</time></trkpt><trkpt lat="43.3881415" lon="11.3898608"><ele>430.66666666666663</ele><time>2026-04-23T10:07:00.856Z</time></trkpt><trkpt lat="43.3881897" lon="11.3896491"><ele>428.0</ele><time>2026-04-23T10:07:01.858Z</time></trkpt><trkpt lat="43.3882619" lon="11.3894172"><ele>427.66666666666663</ele><time>2026-04-23T10:07:02.859Z</time></trkpt><trkpt lat="43.3883568" lon="11.3891856"><ele>427.33333333333337</ele><time>2026-04-23T10:07:03.854Z</time></trkpt><trkpt lat="43.3884637" lon="11.3889449"><ele>427.0</ele><time>2026-04-23T10:07:04.855Z</time></trkpt><trkpt lat="43.3886819" lon="11.3884743"><ele>427.6666666666667</ele><time>2026-04-23T10:07:06.848Z</time></trkpt><trkpt lat="43.3887896" lon="11.388248"><ele>428.33333333333337</ele><time>2026-04-23T10:07:07.859Z</time></trkpt><trkpt lat="43.3888911" lon="11.3880249"><ele>429.0</ele><time>2026-04-23T10:07:08.85Z</time></trkpt><trkpt lat="43.3889867" lon="11.3878018"><ele>427.66666666666663</ele><time>2026-04-23T10:07:09.853Z</time></trkpt><trkpt lat="43.3890783" lon="11.387577"><ele>426.3333333333333</ele><time>2026-04-23T10:07:10.858Z</time></trkpt><trkpt lat="43.3891683" lon="11.3873539"><ele>425.0</ele><time>2026-04-23T10:07:11.858Z</time></trkpt><trkpt lat="43.3892617" lon="11.3871399"><ele>425.0</ele><time>2026-04-23T10:07:12.855Z</time></trkpt><trkpt lat="43.3893607" lon="11.3869393"><ele>425.0</ele><time>2026-04-23T10:07:13.853Z</time></trkpt><trkpt lat="43.3894625" lon="11.3867385"><ele>425.0</ele><time>2026-04-23T10:07:14.853Z</time></trkpt><trkpt lat="43.389558" lon="11.3865495"><ele>425.0</ele><time>2026-04-23T10:07:15.855Z</time></trkpt><trkpt lat="43.3896378" lon="11.386378"><ele>425.0</ele><time>2026-04-23T10:07:16.862Z</time></trkpt><trkpt lat="43.3897012" lon="11.3862343"><ele>425.0</ele><time>2026-04-23T10:07:17.861Z</time></trkpt><trkpt lat="43.3897428" lon="11.3861154"><ele>425.0</ele><time>2026-04-23T10:07:18.857Z</time></trkpt><trkpt lat="43.3897728" lon="11.3860071"><ele>424.4</ele><time>2026-04-23T10:07:19.856Z</time></trkpt><trkpt lat="43.3897979" lon="11.3859093"><ele>423.8</ele><time>2026-04-23T10:07:20.855Z</time></trkpt><trkpt lat="43.3898239" lon="11.385818"><ele>423.20000000000005</ele><time>2026-04-23T10:07:21.858Z</time></trkpt><trkpt lat="43.3898745" lon="11.3856852"><ele>422.6</ele><time>2026-04-23T10:07:23.85Z</time></trkpt><trkpt lat="43.3899445" lon="11.3856378"><ele>422.0</ele><time>2026-04-23T10:07:25.854Z</time></trkpt><trkpt lat="43.3901325" lon="11.3855325"><ele>422.20000000000005</ele><time>2026-04-23T10:07:28.858Z</time></trkpt><trkpt lat="43.3902141" lon="11.3854858"><ele>422.4</ele><time>2026-04-23T10:07:29.855Z</time></trkpt><trkpt lat="43.3903048" lon="11.3854289"><ele>422.6</ele><time>2026-04-23T10:07:30.856Z</time></trkpt><trkpt lat="43.3904044" lon="11.385364"><ele>422.79999999999995</ele><time>2026-04-23T10:07:31.853Z</time></trkpt><trkpt lat="43.390515" lon="11.3852874"><ele>423.0</ele><time>2026-04-23T10:07:32.852Z</time></trkpt><trkpt lat="43.3906294" lon="11.3852039"><ele>423.25</ele><time>2026-04-23T10:07:33.854Z</time></trkpt><trkpt lat="43.3907418" lon="11.3851143"><ele>423.5</ele><time>2026-04-23T10:07:34.852Z</time></trkpt><trkpt lat="43.3908539" lon="11.3850182"><ele>423.75</ele><time>2026-04-23T10:07:35.857Z</time></trkpt><trkpt lat="43.3909615" lon="11.384918"><ele>424.0</ele><time>2026-04-23T10:07:36.855Z</time></trkpt><trkpt lat="43.3910694" lon="11.3848161"><ele>424.0</ele><time>2026-04-23T10:07:37.852Z</time></trkpt><trkpt lat="43.3911828" lon="11.3847118"><ele>424.0</ele><time>2026-04-23T10:07:38.853Z</time></trkpt><trkpt lat="43.3912999" lon="11.3846025"><ele>424.0</ele><time>2026-04-23T10:07:39.854Z</time></trkpt><trkpt lat="43.391418" lon="11.3844916"><ele>424.0</ele><time>2026-04-23T10:07:40.858Z</time></trkpt><trkpt lat="43.3915372" lon="11.384382"><ele>424.25</ele><time>2026-04-23T10:07:41.855Z</time></trkpt><trkpt lat="43.3916563" lon="11.3842759"><ele>424.5</ele><time>2026-04-23T10:07:42.854Z</time></trkpt><trkpt lat="43.391768" lon="11.3841637"><ele>424.75</ele><time>2026-04-23T10:07:43.86Z</time></trkpt><trkpt lat="43.3918646" lon="11.3840349"><ele>425.0</ele><time>2026-04-23T10:07:44.851Z</time></trkpt><trkpt lat="43.3919337" lon="11.383868"><ele>425.5</ele><time>2026-04-23T10:07:45.855Z</time></trkpt><trkpt lat="43.391982" lon="11.3836597"><ele>426.0</ele><time>2026-04-23T10:07:46.854Z</time></trkpt><trkpt lat="43.3920255" lon="11.3832007"><ele>425.66666666666663</ele><time>2026-04-23T10:07:48.852Z</time></trkpt><trkpt lat="43.3920549" lon="11.3829735"><ele>425.3333333333333</ele><time>2026-04-23T10:07:49.853Z</time></trkpt><trkpt lat="43.3921096" lon="11.382765"><ele>425.0</ele><time>2026-04-23T10:07:50.855Z</time></trkpt><trkpt lat="43.3921971" lon="11.3825905"><ele>425.0</ele><time>2026-04-23T10:07:51.857Z</time></trkpt><trkpt lat="43.3923165" lon="11.3824422"><ele>425.0</ele><time>2026-04-23T10:07:52.857Z</time></trkpt><trkpt lat="43.3924601" lon="11.3823228"><ele>425.0</ele><time>2026-04-23T10:07:53.848Z</time></trkpt><trkpt lat="43.3926174" lon="11.3822156"><ele>425.3333333333333</ele><time>2026-04-23T10:07:54.854Z</time></trkpt><trkpt lat="43.3927747" lon="11.382113"><ele>425.66666666666663</ele><time>2026-04-23T10:07:55.852Z</time></trkpt><trkpt lat="43.3929294" lon="11.3820077"><ele>426.0</ele><time>2026-04-23T10:07:56.854Z</time></trkpt><trkpt lat="43.393084" lon="11.3818977"><ele>424.33333333333337</ele><time>2026-04-23T10:07:57.857Z</time></trkpt><trkpt lat="43.3932345" lon="11.3817853"><ele>422.6666666666667</ele><time>2026-04-23T10:07:58.851Z</time></trkpt><trkpt lat="43.3933763" lon="11.381671"><ele>421.0</ele><time>2026-04-23T10:07:59.857Z</time></trkpt><trkpt lat="43.3935064" lon="11.3815609"><ele>421.0</ele><time>2026-04-23T10:08:00.859Z</time></trkpt><trkpt lat="43.393633" lon="11.3814616"><ele>421.0</ele><time>2026-04-23T10:08:01.851Z</time></trkpt><trkpt lat="43.3937558" lon="11.3813743"><ele>421.0</ele><time>2026-04-23T10:08:02.858Z</time></trkpt><trkpt lat="43.3938689" lon="11.3813006"><ele>421.0</ele><time>2026-04-23T10:08:03.847Z</time></trkpt><trkpt lat="43.3939752" lon="11.3812425"><ele>419.5</ele><time>2026-04-23T10:08:04.849Z</time></trkpt><trkpt lat="43.3940736" lon="11.3811967"><ele>418.0</ele><time>2026-04-23T10:08:05.852Z</time></trkpt><trkpt lat="43.3941569" lon="11.3811652"><ele>416.5</ele><time>2026-04-23T10:08:06.852Z</time></trkpt><trkpt lat="43.3942532" lon="11.381143"><ele>415.0</ele><time>2026-04-23T10:08:08.853Z</time></trkpt><trkpt lat="43.3940672" lon="11.3811659"><ele>415.00000000000006</ele><time>2026-04-23T10:08:19.856Z</time></trkpt><trkpt lat="43.3939662" lon="11.3812162"><ele>415.0</ele><time>2026-04-23T10:08:20.859Z</time></trkpt><trkpt lat="43.3938828" lon="11.3812555"><ele>415.0</ele><time>2026-04-23T10:08:21.854Z</time></trkpt><trkpt lat="43.3938053" lon="11.3812668"><ele>415.0</ele><time>2026-04-23T10:08:22.859Z</time></trkpt><trkpt lat="43.3937288" lon="11.3812465"><ele>415.00000000000006</ele><time>2026-04-23T10:08:23.859Z</time></trkpt><trkpt lat="43.3936539" lon="11.3812126"><ele>415.0</ele><time>2026-04-23T10:08:24.856Z</time></trkpt><trkpt lat="43.3935439" lon="11.3811648"><ele>416.75</ele><time>2026-04-23T10:08:26.854Z</time></trkpt><trkpt lat="43.3934008" lon="11.3811525"><ele>418.5</ele><time>2026-04-23T10:08:28.857Z</time></trkpt><trkpt lat="43.3933132" lon="11.3811449"><ele>420.25</ele><time>2026-04-23T10:08:29.853Z</time></trkpt><trkpt lat="43.3931538" lon="11.3811377"><ele>422.0</ele><time>2026-04-23T10:08:31.853Z</time></trkpt><trkpt lat="43.3930616" lon="11.3811807"><ele>422.0</ele><time>2026-04-23T10:08:33.855Z</time></trkpt><trkpt lat="43.3930063" lon="11.381249"><ele>422.0</ele><time>2026-04-23T10:08:35.857Z</time></trkpt><trkpt lat="43.3929464" lon="11.3812915"><ele>422.0</ele><time>2026-04-23T10:08:37.853Z</time></trkpt><trkpt lat="43.3928837" lon="11.3813277"><ele>422.0</ele><time>2026-04-23T10:08:39.852Z</time></trkpt><trkpt lat="43.3927944" lon="11.3813325"><ele>422.0</ele><time>2026-04-23T10:08:42.846Z</time></trkpt><trkpt lat="43.3927297" lon="11.3813382"><ele>422.0</ele><time>2026-04-23T10:08:44.852Z</time></trkpt><trkpt lat="43.3927164" lon="11.3814453"><ele>422.0</ele><time>2026-04-23T10:08:47.854Z</time></trkpt><trkpt lat="43.3927784" lon="11.3814815"><ele>422.0</ele><time>2026-04-23T10:08:49.853Z</time></trkpt><trkpt lat="43.392851" lon="11.3814375"><ele>422.0</ele><time>2026-04-23T10:08:51.853Z</time></trkpt><trkpt lat="43.392956" lon="11.3812939"><ele>422.0</ele><time>2026-04-23T10:08:53.852Z</time></trkpt><trkpt lat="43.3930329" lon="11.381228"><ele>422.0</ele><time>2026-04-23T10:08:54.854Z</time></trkpt><trkpt lat="43.3931087" lon="11.3811719"><ele>422.0</ele><time>2026-04-23T10:08:55.856Z</time></trkpt><trkpt lat="43.3931859" lon="11.3811352"><ele>422.0</ele><time>2026-04-23T10:08:56.854Z</time></trkpt><trkpt lat="43.3932594" lon="11.38113"><ele>422.0</ele><time>2026-04-23T10:08:57.857Z</time></trkpt><trkpt lat="43.3933397" lon="11.3811425"><ele>422.0</ele><time>2026-04-23T10:08:58.858Z</time></trkpt><trkpt lat="43.3934433" lon="11.3811653"><ele>422.0</ele><time>2026-04-23T10:08:59.853Z</time></trkpt><trkpt lat="43.3935551" lon="11.3811894"><ele>422.0</ele><time>2026-04-23T10:09:00.85Z</time></trkpt><trkpt lat="43.393649" lon="11.3812094"><ele>422.0</ele><time>2026-04-23T10:09:01.852Z</time></trkpt><trkpt lat="43.3937135" lon="11.3812251"><ele>422.0</ele><time>2026-04-23T10:09:02.852Z</time></trkpt><trkpt lat="43.3937423" lon="11.3813175"><ele>422.0</ele><time>2026-04-23T10:09:07.854Z</time></trkpt><trkpt lat="43.3938363" lon="11.3813115"><ele>422.0</ele><time>2026-04-23T10:09:09.853Z</time></trkpt><trkpt lat="43.3939261" lon="11.3812643"><ele>422.0</ele><time>2026-04-23T10:09:10.857Z</time></trkpt><trkpt lat="43.3940425" lon="11.3812082"><ele>418.5</ele><time>2026-04-23T10:09:11.854Z</time></trkpt><trkpt lat="43.3941771" lon="11.3811547"><ele>415.0</ele><time>2026-04-23T10:09:12.857Z</time></trkpt><trkpt lat="43.3944919" lon="11.3810492"><ele>415.0</ele><time>2026-04-23T10:09:14.859Z</time></trkpt><trkpt lat="43.3946675" lon="11.3809991"><ele>415.0</ele><time>2026-04-23T10:09:15.856Z</time></trkpt><trkpt lat="43.3948539" lon="11.3809642"><ele>415.0</ele><time>2026-04-23T10:09:16.855Z</time></trkpt><trkpt lat="43.3950406" lon="11.3809494"><ele>415.33333333333337</ele><time>2026-04-23T10:09:17.855Z</time></trkpt><trkpt lat="43.3952236" lon="11.3809557"><ele>415.66666666666663</ele><time>2026-04-23T10:09:18.859Z</time></trkpt><trkpt lat="43.3953963" lon="11.3809764"><ele>416.0</ele><time>2026-04-23T10:09:19.852Z</time></trkpt><trkpt lat="43.3955536" lon="11.3810101"><ele>414.66666666666663</ele><time>2026-04-23T10:09:20.856Z</time></trkpt><trkpt lat="43.3957107" lon="11.3810347"><ele>413.33333333333337</ele><time>2026-04-23T10:09:21.858Z</time></trkpt><trkpt lat="43.395871" lon="11.3810465"><ele>412.0</ele><time>2026-04-23T10:09:22.857Z</time></trkpt><trkpt lat="43.3960288" lon="11.3810348"><ele>412.0</ele><time>2026-04-23T10:09:23.861Z</time></trkpt><trkpt lat="43.3961745" lon="11.3809825"><ele>412.0</ele><time>2026-04-23T10:09:24.851Z</time></trkpt><trkpt lat="43.3963099" lon="11.3808766"><ele>412.0</ele><time>2026-04-23T10:09:25.855Z</time></trkpt><trkpt lat="43.396431" lon="11.380731"><ele>411.0</ele><time>2026-04-23T10:09:26.852Z</time></trkpt><trkpt lat="43.3965267" lon="11.3805468"><ele>410.0</ele><time>2026-04-23T10:09:27.858Z</time></trkpt><trkpt lat="43.3965953" lon="11.3803389"><ele>409.0</ele><time>2026-04-23T10:09:28.861Z</time></trkpt><trkpt lat="43.3966471" lon="11.3801142"><ele>409.0</ele><time>2026-04-23T10:09:29.852Z</time></trkpt><trkpt lat="43.3966868" lon="11.3798878"><ele>409.0</ele><time>2026-04-23T10:09:30.862Z</time></trkpt><trkpt lat="43.3967196" lon="11.3796618"><ele>409.0</ele><time>2026-04-23T10:09:31.857Z</time></trkpt><trkpt lat="43.3967527" lon="11.3794373"><ele>411.5</ele><time>2026-04-23T10:09:32.854Z</time></trkpt><trkpt lat="43.396791" lon="11.3792111"><ele>414.0</ele><time>2026-04-23T10:09:33.861Z</time></trkpt><trkpt lat="43.3968766" lon="11.3787936"><ele>414.79999999999995</ele><time>2026-04-23T10:09:35.859Z</time></trkpt><trkpt lat="43.3969251" lon="11.3786229"><ele>415.59999999999997</ele><time>2026-04-23T10:09:36.856Z</time></trkpt><trkpt lat="43.3969798" lon="11.3784888"><ele>416.4</ele><time>2026-04-23T10:09:37.849Z</time></trkpt><trkpt lat="43.3970317" lon="11.3783896"><ele>417.2</ele><time>2026-04-23T10:09:38.85Z</time></trkpt><trkpt lat="43.3970822" lon="11.3783192"><ele>418.0</ele><time>2026-04-23T10:09:39.856Z</time></trkpt><trkpt lat="43.3971289" lon="11.3782482"><ele>418.2</ele><time>2026-04-23T10:09:40.859Z</time></trkpt><trkpt lat="43.3971784" lon="11.3781672"><ele>418.4</ele><time>2026-04-23T10:09:41.851Z</time></trkpt><trkpt lat="43.3972354" lon="11.3780808"><ele>418.59999999999997</ele><time>2026-04-23T10:09:42.855Z</time></trkpt><trkpt lat="43.397296" lon="11.3779844"><ele>418.79999999999995</ele><time>2026-04-23T10:09:43.863Z</time></trkpt><trkpt lat="43.3973617" lon="11.3778795"><ele>419.0</ele><time>2026-04-23T10:09:44.849Z</time></trkpt><trkpt lat="43.3974275" lon="11.3777664"><ele>419.0</ele><time>2026-04-23T10:09:45.859Z</time></trkpt><trkpt lat="43.3974934" lon="11.3776471"><ele>419.0</ele><time>2026-04-23T10:09:46.862Z</time></trkpt><trkpt lat="43.397565" lon="11.3775276"><ele>419.0</ele><time>2026-04-23T10:09:47.86Z</time></trkpt><trkpt lat="43.3976467" lon="11.3774064"><ele>419.0</ele><time>2026-04-23T10:09:48.858Z</time></trkpt><trkpt lat="43.3977352" lon="11.3772744"><ele>418.3333333333333</ele><time>2026-04-23T10:09:49.858Z</time></trkpt><trkpt lat="43.3978346" lon="11.3771251"><ele>417.66666666666663</ele><time>2026-04-23T10:09:50.856Z</time></trkpt><trkpt lat="43.3979498" lon="11.3769566"><ele>417.0</ele><time>2026-04-23T10:09:51.855Z</time></trkpt><trkpt lat="43.3980855" lon="11.3767734"><ele>418.33333333333337</ele><time>2026-04-23T10:09:52.857Z</time></trkpt><trkpt lat="43.3982385" lon="11.3765855"><ele>419.6666666666667</ele><time>2026-04-23T10:09:53.862Z</time></trkpt><trkpt lat="43.3984017" lon="11.3764087"><ele>421.0</ele><time>2026-04-23T10:09:54.857Z</time></trkpt><trkpt lat="43.3987294" lon="11.3761365"><ele>423.33333333333337</ele><time>2026-04-23T10:09:56.855Z</time></trkpt><trkpt lat="43.3988896" lon="11.3760466"><ele>425.66666666666663</ele><time>2026-04-23T10:09:57.858Z</time></trkpt><trkpt lat="43.3990463" lon="11.3759936"><ele>428.0</ele><time>2026-04-23T10:09:58.86Z</time></trkpt><trkpt lat="43.3991976" lon="11.3759643"><ele>428.0</ele><time>2026-04-23T10:09:59.859Z</time></trkpt><trkpt lat="43.3993394" lon="11.3759441"><ele>428.0</ele><time>2026-04-23T10:10:00.856Z</time></trkpt><trkpt lat="43.3994611" lon="11.3759165"><ele>428.0</ele><time>2026-04-23T10:10:01.861Z</time></trkpt><trkpt lat="43.3995641" lon="11.3758516"><ele>428.0</ele><time>2026-04-23T10:10:02.851Z</time></trkpt><trkpt lat="43.3996595" lon="11.3757295"><ele>429.66666666666663</ele><time>2026-04-23T10:10:03.857Z</time></trkpt><trkpt lat="43.3997583" lon="11.3755659"><ele>431.33333333333337</ele><time>2026-04-23T10:10:04.854Z</time></trkpt><trkpt lat="43.3998584" lon="11.3753462"><ele>433.0</ele><time>2026-04-23T10:10:05.858Z</time></trkpt><trkpt lat="43.3999662" lon="11.3751013"><ele>434.0</ele><time>2026-04-23T10:10:06.86Z</time></trkpt><trkpt lat="43.400076" lon="11.3748579"><ele>435.0</ele><time>2026-04-23T10:10:07.855Z</time></trkpt><trkpt lat="43.4001947" lon="11.3746282"><ele>436.0</ele><time>2026-04-23T10:10:08.856Z</time></trkpt><trkpt lat="43.4003081" lon="11.3744257"><ele>436.0</ele><time>2026-04-23T10:10:09.855Z</time></trkpt><trkpt lat="43.4004098" lon="11.374255"><ele>436.0</ele><time>2026-04-23T10:10:10.863Z</time></trkpt><trkpt lat="43.400488" lon="11.3741145"><ele>436.0</ele><time>2026-04-23T10:10:11.852Z</time></trkpt><trkpt lat="43.4005434" lon="11.3740001"><ele>436.0</ele><time>2026-04-23T10:10:12.854Z</time></trkpt><trkpt lat="43.4005829" lon="11.3738698"><ele>436.6666666666667</ele><time>2026-04-23T10:10:13.853Z</time></trkpt><trkpt lat="43.4006153" lon="11.3737061"><ele>437.33333333333337</ele><time>2026-04-23T10:10:14.855Z</time></trkpt><trkpt lat="43.4006483" lon="11.3735331"><ele>438.0</ele><time>2026-04-23T10:10:15.859Z</time></trkpt><trkpt lat="43.4007412" lon="11.3732078"><ele>438.0</ele><time>2026-04-23T10:10:17.855Z</time></trkpt><trkpt lat="43.4008183" lon="11.3730629"><ele>438.0</ele><time>2026-04-23T10:10:18.854Z</time></trkpt><trkpt lat="43.4009279" lon="11.3729385"><ele>438.0</ele><time>2026-04-23T10:10:19.851Z</time></trkpt><trkpt lat="43.4010437" lon="11.3728292"><ele>438.0</ele><time>2026-04-23T10:10:20.861Z</time></trkpt><trkpt lat="43.4011408" lon="11.3727212"><ele>437.59999999999997</ele><time>2026-04-23T10:10:21.863Z</time></trkpt><trkpt lat="43.4012155" lon="11.3726011"><ele>437.19999999999993</ele><time>2026-04-23T10:10:22.861Z</time></trkpt><trkpt lat="43.4012685" lon="11.3724742"><ele>436.8</ele><time>2026-04-23T10:10:23.855Z</time></trkpt><trkpt lat="43.401301" lon="11.3723343"><ele>436.4</ele><time>2026-04-23T10:10:24.858Z</time></trkpt><trkpt lat="43.4013144" lon="11.3721982"><ele>436.0</ele><time>2026-04-23T10:10:25.854Z</time></trkpt><trkpt lat="43.4013113" lon="11.3720699"><ele>435.6</ele><time>2026-04-23T10:10:26.862Z</time></trkpt><trkpt lat="43.4013002" lon="11.3719505"><ele>435.20000000000005</ele><time>2026-04-23T10:10:27.862Z</time></trkpt><trkpt lat="43.4012853" lon="11.3718285"><ele>434.79999999999995</ele><time>2026-04-23T10:10:28.861Z</time></trkpt><trkpt lat="43.4012716" lon="11.3716894"><ele>434.4</ele><time>2026-04-23T10:10:29.859Z</time></trkpt><trkpt lat="43.401262" lon="11.3715032"><ele>434.0</ele><time>2026-04-23T10:10:30.85Z</time></trkpt><trkpt lat="43.4012599" lon="11.3712567"><ele>432.66666666666663</ele><time>2026-04-23T10:10:31.856Z</time></trkpt><trkpt lat="43.4012679" lon="11.3710073"><ele>431.33333333333337</ele><time>2026-04-23T10:10:32.863Z</time></trkpt><trkpt lat="43.4012858" lon="11.370783"><ele>430.0</ele><time>2026-04-23T10:10:33.852Z</time></trkpt><trkpt lat="43.4013226" lon="11.3705638"><ele>429.6666666666667</ele><time>2026-04-23T10:10:34.856Z</time></trkpt><trkpt lat="43.401381" lon="11.3703573"><ele>429.33333333333337</ele><time>2026-04-23T10:10:35.855Z</time></trkpt><trkpt lat="43.4014533" lon="11.3701648"><ele>429.0</ele><time>2026-04-23T10:10:36.858Z</time></trkpt><trkpt lat="43.4015919" lon="11.3697492"><ele>429.33333333333337</ele><time>2026-04-23T10:10:38.85Z</time></trkpt><trkpt lat="43.4016449" lon="11.3695352"><ele>429.6666666666667</ele><time>2026-04-23T10:10:39.854Z</time></trkpt><trkpt lat="43.4016843" lon="11.369324"><ele>430.0</ele><time>2026-04-23T10:10:40.862Z</time></trkpt><trkpt lat="43.4017113" lon="11.3691153"><ele>430.0</ele><time>2026-04-23T10:10:41.875Z</time></trkpt><trkpt lat="43.4017275" lon="11.3689121"><ele>430.0</ele><time>2026-04-23T10:10:42.859Z</time></trkpt><trkpt lat="43.4017292" lon="11.3687195"><ele>430.0</ele><time>2026-04-23T10:10:43.86Z</time></trkpt><trkpt lat="43.401714" lon="11.3685307"><ele>430.0</ele><time>2026-04-23T10:10:44.856Z</time></trkpt><trkpt lat="43.4016847" lon="11.3683186"><ele>430.6666666666667</ele><time>2026-04-23T10:10:45.853Z</time></trkpt><trkpt lat="43.4016517" lon="11.3680706"><ele>431.33333333333337</ele><time>2026-04-23T10:10:46.856Z</time></trkpt><trkpt lat="43.4016219" lon="11.3678003"><ele>432.0</ele><time>2026-04-23T10:10:47.853Z</time></trkpt><trkpt lat="43.4016003" lon="11.367541"><ele>432.66666666666663</ele><time>2026-04-23T10:10:48.853Z</time></trkpt><trkpt lat="43.40158" lon="11.3673052"><ele>433.3333333333333</ele><time>2026-04-23T10:10:49.857Z</time></trkpt><trkpt lat="43.4015515" lon="11.3670997"><ele>434.0</ele><time>2026-04-23T10:10:50.853Z</time></trkpt><trkpt lat="43.4015094" lon="11.3669166"><ele>434.25</ele><time>2026-04-23T10:10:51.856Z</time></trkpt><trkpt lat="43.4014508" lon="11.3667552"><ele>434.5</ele><time>2026-04-23T10:10:52.852Z</time></trkpt><trkpt lat="43.4013782" lon="11.3665991"><ele>434.75</ele><time>2026-04-23T10:10:53.86Z</time></trkpt><trkpt lat="43.4013036" lon="11.3664407"><ele>435.0</ele><time>2026-04-23T10:10:54.855Z</time></trkpt><trkpt lat="43.4012433" lon="11.3662666"><ele>436.66666666666663</ele><time>2026-04-23T10:10:55.851Z</time></trkpt><trkpt lat="43.401203" lon="11.3660694"><ele>438.3333333333333</ele><time>2026-04-23T10:10:56.853Z</time></trkpt><trkpt lat="43.401175" lon="11.3658669"><ele>440.0</ele><time>2026-04-23T10:10:57.852Z</time></trkpt><trkpt lat="43.4011307" lon="11.365528"><ele>439.99999999999994</ele><time>2026-04-23T10:10:59.857Z</time></trkpt><trkpt lat="43.4011149" lon="11.3654047"><ele>440.0</ele><time>2026-04-23T10:11:00.857Z</time></trkpt><trkpt lat="43.4011007" lon="11.3653037"><ele>440.0</ele><time>2026-04-23T10:11:01.854Z</time></trkpt><trkpt lat="43.4010865" lon="11.3652143"><ele>440.0</ele><time>2026-04-23T10:11:02.853Z</time></trkpt><trkpt lat="43.4010755" lon="11.3651191"><ele>439.99999999999994</ele><time>2026-04-23T10:11:03.851Z</time></trkpt><trkpt lat="43.4010685" lon="11.3650192"><ele>440.0</ele><time>2026-04-23T10:11:04.855Z</time></trkpt><trkpt lat="43.4010598" lon="11.3649061"><ele>440.0</ele><time>2026-04-23T10:11:05.859Z</time></trkpt><trkpt lat="43.4010436" lon="11.3647829"><ele>440.0</ele><time>2026-04-23T10:11:06.856Z</time></trkpt><trkpt lat="43.4010151" lon="11.3646533"><ele>440.0</ele><time>2026-04-23T10:11:07.854Z</time></trkpt><trkpt lat="43.4009725" lon="11.3645194"><ele>440.0</ele><time>2026-04-23T10:11:08.857Z</time></trkpt><trkpt lat="43.4009146" lon="11.3643769"><ele>440.0</ele><time>2026-04-23T10:11:09.854Z</time></trkpt><trkpt lat="43.4008497" lon="11.3642128"><ele>440.0</ele><time>2026-04-23T10:11:10.858Z</time></trkpt><trkpt lat="43.4007889" lon="11.364034"><ele>440.0</ele><time>2026-04-23T10:11:11.853Z</time></trkpt><trkpt lat="43.4007502" lon="11.3638518"><ele>440.0</ele><time>2026-04-23T10:11:12.857Z</time></trkpt><trkpt lat="43.4007468" lon="11.3636723"><ele>440.0</ele><time>2026-04-23T10:11:13.856Z</time></trkpt><trkpt lat="43.4007827" lon="11.363514"><ele>440.0</ele><time>2026-04-23T10:11:14.858Z</time></trkpt><trkpt lat="43.4008473" lon="11.3633748"><ele>440.0</ele><time>2026-04-23T10:11:15.855Z</time></trkpt><trkpt lat="43.4009275" lon="11.3632511"><ele>440.0</ele><time>2026-04-23T10:11:16.861Z</time></trkpt><trkpt lat="43.4010255" lon="11.3631769"><ele>440.0</ele><time>2026-04-23T10:11:17.855Z</time></trkpt><trkpt lat="43.4011341" lon="11.3631335"><ele>438.5</ele><time>2026-04-23T10:11:18.854Z</time></trkpt><trkpt lat="43.4013083" lon="11.3630219"><ele>437.0</ele><time>2026-04-23T10:11:20.86Z</time></trkpt><trkpt lat="43.4013723" lon="11.3629403"><ele>435.5</ele><time>2026-04-23T10:11:21.85Z</time></trkpt><trkpt lat="43.4014148" lon="11.3628204"><ele>434.0</ele><time>2026-04-23T10:11:22.854Z</time></trkpt><trkpt lat="43.4014342" lon="11.362681"><ele>433.75</ele><time>2026-04-23T10:11:23.856Z</time></trkpt><trkpt lat="43.4014291" lon="11.362535"><ele>433.5</ele><time>2026-04-23T10:11:24.853Z</time></trkpt><trkpt lat="43.4014028" lon="11.3623894"><ele>433.25</ele><time>2026-04-23T10:11:25.852Z</time></trkpt><trkpt lat="43.401356" lon="11.3622334"><ele>433.0</ele><time>2026-04-23T10:11:26.85Z</time></trkpt><trkpt lat="43.4013101" lon="11.3620748"><ele>433.0</ele><time>2026-04-23T10:11:27.856Z</time></trkpt><trkpt lat="43.4012813" lon="11.3619456"><ele>433.0</ele><time>2026-04-23T10:11:28.858Z</time></trkpt><trkpt lat="43.4013546" lon="11.3617884"><ele>433.0</ele><time>2026-04-23T10:11:30.856Z</time></trkpt><trkpt lat="43.4014606" lon="11.3617155"><ele>433.0</ele><time>2026-04-23T10:11:31.86Z</time></trkpt><trkpt lat="43.4015972" lon="11.3616343"><ele>433.6666666666667</ele><time>2026-04-23T10:11:32.85Z</time></trkpt><trkpt lat="43.4017367" lon="11.3615363"><ele>434.33333333333337</ele><time>2026-04-23T10:11:33.862Z</time></trkpt><trkpt lat="43.4018835" lon="11.3614047"><ele>435.0</ele><time>2026-04-23T10:11:34.855Z</time></trkpt><trkpt lat="43.4020466" lon="11.3612228"><ele>437.0</ele><time>2026-04-23T10:11:35.856Z</time></trkpt><trkpt lat="43.4021968" lon="11.3610521"><ele>439.0</ele><time>2026-04-23T10:11:36.849Z</time></trkpt><trkpt lat="43.4023397" lon="11.3609008"><ele>441.0</ele><time>2026-04-23T10:11:37.856Z</time></trkpt><trkpt lat="43.4024745" lon="11.3608215"><ele>441.0</ele><time>2026-04-23T10:11:38.856Z</time></trkpt><trkpt lat="43.4025974" lon="11.3608039"><ele>441.0</ele><time>2026-04-23T10:11:39.855Z</time></trkpt><trkpt lat="43.402851" lon="11.3609197"><ele>441.0</ele><time>2026-04-23T10:11:41.854Z</time></trkpt><trkpt lat="43.4029758" lon="11.3609594"><ele>442.25</ele><time>2026-04-23T10:11:42.852Z</time></trkpt><trkpt lat="43.4031063" lon="11.3609517"><ele>443.5</ele><time>2026-04-23T10:11:43.856Z</time></trkpt><trkpt lat="43.4032343" lon="11.3609145"><ele>444.75</ele><time>2026-04-23T10:11:44.854Z</time></trkpt><trkpt lat="43.4033392" lon="11.3608681"><ele>446.0</ele><time>2026-04-23T10:11:45.849Z</time></trkpt><trkpt lat="43.4034216" lon="11.3608111"><ele>446.0</ele><time>2026-04-23T10:11:46.854Z</time></trkpt><trkpt lat="43.4034775" lon="11.3607372"><ele>446.0</ele><time>2026-04-23T10:11:47.852Z</time></trkpt><trkpt lat="43.40351" lon="11.3606311"><ele>446.0</ele><time>2026-04-23T10:11:48.849Z</time></trkpt><trkpt lat="43.4035203" lon="11.3605027"><ele>446.0</ele><time>2026-04-23T10:11:49.846Z</time></trkpt><trkpt lat="43.4035125" lon="11.3603594"><ele>446.0</ele><time>2026-04-23T10:11:50.855Z</time></trkpt><trkpt lat="43.4034961" lon="11.3601897"><ele>445.66666666666663</ele><time>2026-04-23T10:11:51.854Z</time></trkpt><trkpt lat="43.4034907" lon="11.3599915"><ele>445.33333333333337</ele><time>2026-04-23T10:11:52.854Z</time></trkpt><trkpt lat="43.4035105" lon="11.3597817"><ele>445.0</ele><time>2026-04-23T10:11:53.854Z</time></trkpt><trkpt lat="43.4035566" lon="11.3595794"><ele>445.0</ele><time>2026-04-23T10:11:54.85Z</time></trkpt><trkpt lat="43.4035902" lon="11.3594099"><ele>445.0</ele><time>2026-04-23T10:11:55.851Z</time></trkpt><trkpt lat="43.4035949" lon="11.3592829"><ele>445.0</ele><time>2026-04-23T10:11:56.848Z</time></trkpt><trkpt lat="43.4035667" lon="11.3591703"><ele>445.0</ele><time>2026-04-23T10:11:57.854Z</time></trkpt><trkpt lat="43.4035094" lon="11.3590742"><ele>445.0</ele><time>2026-04-23T10:11:58.852Z</time></trkpt><trkpt lat="43.4034309" lon="11.3589976"><ele>445.0</ele><time>2026-04-23T10:11:59.852Z</time></trkpt><trkpt lat="43.4033348" lon="11.3589347"><ele>445.0</ele><time>2026-04-23T10:12:00.854Z</time></trkpt><trkpt lat="43.4030764" lon="11.3588756"><ele>445.0</ele><time>2026-04-23T10:12:02.853Z</time></trkpt><trkpt lat="43.4029528" lon="11.3588468"><ele>444.25</ele><time>2026-04-23T10:12:03.863Z</time></trkpt><trkpt lat="43.4028363" lon="11.3588037"><ele>443.5</ele><time>2026-04-23T10:12:04.858Z</time></trkpt><trkpt lat="43.4027513" lon="11.358708"><ele>442.75</ele><time>2026-04-23T10:12:05.853Z</time></trkpt><trkpt lat="43.4027171" lon="11.3585309"><ele>442.0</ele><time>2026-04-23T10:12:06.848Z</time></trkpt><trkpt lat="43.4026912" lon="11.3583056"><ele>442.0</ele><time>2026-04-23T10:12:07.859Z</time></trkpt><trkpt lat="43.4026815" lon="11.3580355"><ele>442.0</ele><time>2026-04-23T10:12:08.868Z</time></trkpt><trkpt lat="43.4026741" lon="11.3577759"><ele>442.0</ele><time>2026-04-23T10:12:09.861Z</time></trkpt><trkpt lat="43.4026808" lon="11.3575821"><ele>442.25</ele><time>2026-04-23T10:12:10.851Z</time></trkpt><trkpt lat="43.402724" lon="11.3574232"><ele>442.5</ele><time>2026-04-23T10:12:11.851Z</time></trkpt><trkpt lat="43.4028007" lon="11.3572786"><ele>442.75</ele><time>2026-04-23T10:12:12.853Z</time></trkpt><trkpt lat="43.4029159" lon="11.3571581"><ele>443.0</ele><time>2026-04-23T10:12:13.856Z</time></trkpt><trkpt lat="43.403054" lon="11.3570919"><ele>444.0</ele><time>2026-04-23T10:12:14.861Z</time></trkpt><trkpt lat="43.4031989" lon="11.3570603"><ele>445.0</ele><time>2026-04-23T10:12:15.861Z</time></trkpt><trkpt lat="43.4033481" lon="11.3570592"><ele>446.0</ele><time>2026-04-23T10:12:16.849Z</time></trkpt><trkpt lat="43.4034992" lon="11.3570852"><ele>447.0</ele><time>2026-04-23T10:12:17.858Z</time></trkpt><trkpt lat="43.4036296" lon="11.3570963"><ele>447.0</ele><time>2026-04-23T10:12:18.86Z</time></trkpt><trkpt lat="43.4037404" lon="11.3570825"><ele>447.0</ele><time>2026-04-23T10:12:19.852Z</time></trkpt><trkpt lat="43.4038202" lon="11.3570256"><ele>447.0</ele><time>2026-04-23T10:12:20.858Z</time></trkpt><trkpt lat="43.4038698" lon="11.3569414"><ele>447.0</ele><time>2026-04-23T10:12:21.858Z</time></trkpt><trkpt lat="43.4038748" lon="11.3566899"><ele>447.0</ele><time>2026-04-23T10:12:23.853Z</time></trkpt><trkpt lat="43.4038278" lon="11.3565511"><ele>447.0</ele><time>2026-04-23T10:12:24.857Z</time></trkpt><trkpt lat="43.4037513" lon="11.3564224"><ele>447.0</ele><time>2026-04-23T10:12:25.851Z</time></trkpt><trkpt lat="43.4036494" lon="11.3562828"><ele>447.0</ele><time>2026-04-23T10:12:26.861Z</time></trkpt><trkpt lat="43.4035591" lon="11.3561445"><ele>446.8</ele><time>2026-04-23T10:12:27.859Z</time></trkpt><trkpt lat="43.4035043" lon="11.3560151"><ele>446.6</ele><time>2026-04-23T10:12:28.86Z</time></trkpt><trkpt lat="43.403505" lon="11.3559046"><ele>446.40000000000003</ele><time>2026-04-23T10:12:29.862Z</time></trkpt><trkpt lat="43.4035796" lon="11.3558231"><ele>446.20000000000005</ele><time>2026-04-23T10:12:30.856Z</time></trkpt><trkpt lat="43.4036957" lon="11.3557411"><ele>446.0</ele><time>2026-04-23T10:12:31.857Z</time></trkpt><trkpt lat="43.4038593" lon="11.3556831"><ele>448.0</ele><time>2026-04-23T10:12:32.86Z</time></trkpt><trkpt lat="43.4040226" lon="11.3556286"><ele>450.0</ele><time>2026-04-23T10:12:33.856Z</time></trkpt><trkpt lat="43.4041703" lon="11.3555833"><ele>452.0</ele><time>2026-04-23T10:12:34.856Z</time></trkpt><trkpt lat="43.4043104" lon="11.3555723"><ele>452.0</ele><time>2026-04-23T10:12:35.858Z</time></trkpt><trkpt lat="43.4044589" lon="11.3556084"><ele>452.0</ele><time>2026-04-23T10:12:36.862Z</time></trkpt><trkpt lat="43.4046067" lon="11.3556777"><ele>452.0</ele><time>2026-04-23T10:12:37.855Z</time></trkpt><trkpt lat="43.4047449" lon="11.3557808"><ele>453.3333333333333</ele><time>2026-04-23T10:12:38.854Z</time></trkpt><trkpt lat="43.4048794" lon="11.3559113"><ele>454.66666666666663</ele><time>2026-04-23T10:12:39.859Z</time></trkpt><trkpt lat="43.4050056" lon="11.3560392"><ele>456.0</ele><time>2026-04-23T10:12:40.859Z</time></trkpt><trkpt lat="43.4051157" lon="11.3561412"><ele>456.0</ele><time>2026-04-23T10:12:41.857Z</time></trkpt><trkpt lat="43.4052043" lon="11.3561991"><ele>456.0</ele><time>2026-04-23T10:12:42.846Z</time></trkpt><trkpt lat="43.4053491" lon="11.3560776"><ele>456.0</ele><time>2026-04-23T10:12:45.854Z</time></trkpt><trkpt lat="43.4053688" lon="11.3559515"><ele>456.0</ele><time>2026-04-23T10:12:46.857Z</time></trkpt><trkpt lat="43.4053843" lon="11.3557915"><ele>456.0</ele><time>2026-04-23T10:12:47.854Z</time></trkpt><trkpt lat="43.4054128" lon="11.3556162"><ele>456.0</ele><time>2026-04-23T10:12:48.855Z</time></trkpt><trkpt lat="43.4054504" lon="11.3554604"><ele>456.0</ele><time>2026-04-23T10:12:49.852Z</time></trkpt><trkpt lat="43.40551" lon="11.3553576"><ele>456.0</ele><time>2026-04-23T10:12:50.854Z</time></trkpt><trkpt lat="43.4055724" lon="11.3553104"><ele>456.0</ele><time>2026-04-23T10:12:51.857Z</time></trkpt><trkpt lat="43.4056462" lon="11.3552987"><ele>455.0</ele><time>2026-04-23T10:12:52.853Z</time></trkpt><trkpt lat="43.4057604" lon="11.3553721"><ele>454.0</ele><time>2026-04-23T10:12:53.86Z</time></trkpt><trkpt lat="43.4058891" lon="11.3554909"><ele>453.0</ele><time>2026-04-23T10:12:54.853Z</time></trkpt><trkpt lat="43.4060263" lon="11.3556385"><ele>456.33333333333337</ele><time>2026-04-23T10:12:55.856Z</time></trkpt><trkpt lat="43.4061637" lon="11.3558046"><ele>459.6666666666667</ele><time>2026-04-23T10:12:56.849Z</time></trkpt><trkpt lat="43.4063029" lon="11.3559703"><ele>463.0</ele><time>2026-04-23T10:12:57.853Z</time></trkpt><trkpt lat="43.4064144" lon="11.3560897"><ele>463.59999999999997</ele><time>2026-04-23T10:12:58.857Z</time></trkpt><trkpt lat="43.4065083" lon="11.3561656"><ele>464.19999999999993</ele><time>2026-04-23T10:12:59.847Z</time></trkpt><trkpt lat="43.4065736" lon="11.3561635"><ele>464.8</ele><time>2026-04-23T10:13:00.855Z</time></trkpt><trkpt lat="43.4066934" lon="11.3561112"><ele>465.4</ele><time>2026-04-23T10:13:02.851Z</time></trkpt><trkpt lat="43.4067188" lon="11.3560022"><ele>466.0</ele><time>2026-04-23T10:13:03.856Z</time></trkpt><trkpt lat="43.4066795" lon="11.3556899"><ele>464.6666666666667</ele><time>2026-04-23T10:13:05.847Z</time></trkpt><trkpt lat="43.4066321" lon="11.3554945"><ele>463.33333333333337</ele><time>2026-04-23T10:13:06.859Z</time></trkpt><trkpt lat="43.4065886" lon="11.3553035"><ele>462.0</ele><time>2026-04-23T10:13:07.854Z</time></trkpt><trkpt lat="43.4065477" lon="11.3550609"><ele>462.0</ele><time>2026-04-23T10:13:08.86Z</time></trkpt><trkpt lat="43.4065348" lon="11.3548598"><ele>462.0</ele><time>2026-04-23T10:13:09.858Z</time></trkpt><trkpt lat="43.406565" lon="11.3547171"><ele>462.0</ele><time>2026-04-23T10:13:10.856Z</time></trkpt><trkpt lat="43.4066327" lon="11.3546173"><ele>462.0</ele><time>2026-04-23T10:13:11.853Z</time></trkpt><trkpt lat="43.4067341" lon="11.3545371"><ele>463.0</ele><time>2026-04-23T10:13:12.848Z</time></trkpt><trkpt lat="43.4068623" lon="11.3544577"><ele>464.0</ele><time>2026-04-23T10:13:13.853Z</time></trkpt><trkpt lat="43.4070174" lon="11.3543861"><ele>465.0</ele><time>2026-04-23T10:13:14.846Z</time></trkpt><trkpt lat="43.4071753" lon="11.3543347"><ele>465.0</ele><time>2026-04-23T10:13:15.852Z</time></trkpt><trkpt lat="43.4072985" lon="11.3543161"><ele>465.0</ele><time>2026-04-23T10:13:16.849Z</time></trkpt><trkpt lat="43.4074003" lon="11.35434"><ele>465.0</ele><time>2026-04-23T10:13:17.852Z</time></trkpt><trkpt lat="43.4074869" lon="11.3543795"><ele>465.0</ele><time>2026-04-23T10:13:18.855Z</time></trkpt><trkpt lat="43.4075619" lon="11.354397"><ele>465.0</ele><time>2026-04-23T10:13:19.856Z</time></trkpt><trkpt lat="43.4076636" lon="11.3542744"><ele>465.0</ele><time>2026-04-23T10:13:21.851Z</time></trkpt><trkpt lat="43.4076984" lon="11.3541283"><ele>465.0</ele><time>2026-04-23T10:13:22.854Z</time></trkpt><trkpt lat="43.4077359" lon="11.3539782"><ele>465.0</ele><time>2026-04-23T10:13:23.857Z</time></trkpt><trkpt lat="43.4077726" lon="11.3538392"><ele>465.0</ele><time>2026-04-23T10:13:24.849Z</time></trkpt><trkpt lat="43.4079185" lon="11.3537062"><ele>464.0</ele><time>2026-04-23T10:13:26.851Z</time></trkpt><trkpt lat="43.408009" lon="11.3537036"><ele>463.0</ele><time>2026-04-23T10:13:27.845Z</time></trkpt><trkpt lat="43.4081019" lon="11.3537548"><ele>462.0</ele><time>2026-04-23T10:13:28.851Z</time></trkpt><trkpt lat="43.4082011" lon="11.3538661"><ele>461.0</ele><time>2026-04-23T10:13:29.853Z</time></trkpt><trkpt lat="43.4082917" lon="11.3539892"><ele>460.0</ele><time>2026-04-23T10:13:30.857Z</time></trkpt><trkpt lat="43.4083768" lon="11.3540996"><ele>460.00000000000006</ele><time>2026-04-23T10:13:31.857Z</time></trkpt><trkpt lat="43.4084534" lon="11.3541732"><ele>460.0</ele><time>2026-04-23T10:13:32.85Z</time></trkpt><trkpt lat="43.4085266" lon="11.3542032"><ele>460.0</ele><time>2026-04-23T10:13:33.852Z</time></trkpt><trkpt lat="43.4085987" lon="11.3541806"><ele>460.0</ele><time>2026-04-23T10:13:34.854Z</time></trkpt><trkpt lat="43.4086603" lon="11.3540931"><ele>460.00000000000006</ele><time>2026-04-23T10:13:35.855Z</time></trkpt><trkpt lat="43.4087147" lon="11.3539644"><ele>460.0</ele><time>2026-04-23T10:13:36.857Z</time></trkpt><trkpt lat="43.4087593" lon="11.353824"><ele>460.0</ele><time>2026-04-23T10:13:37.846Z</time></trkpt><trkpt lat="43.4087802" lon="11.3536501"><ele>460.0</ele><time>2026-04-23T10:13:38.85Z</time></trkpt><trkpt lat="43.4088017" lon="11.353473"><ele>460.0</ele><time>2026-04-23T10:13:39.846Z</time></trkpt><trkpt lat="43.4088236" lon="11.3533201"><ele>460.0</ele><time>2026-04-23T10:13:40.852Z</time></trkpt><trkpt lat="43.4088662" lon="11.3532136"><ele>462.0</ele><time>2026-04-23T10:13:41.85Z</time></trkpt><trkpt lat="43.408934" lon="11.3531399"><ele>464.0</ele><time>2026-04-23T10:13:42.85Z</time></trkpt><trkpt lat="43.4090468" lon="11.3531024"><ele>466.0</ele><time>2026-04-23T10:13:43.85Z</time></trkpt><trkpt lat="43.4092047" lon="11.3531197"><ele>468.0</ele><time>2026-04-23T10:13:44.852Z</time></trkpt><trkpt lat="43.4093642" lon="11.3531882"><ele>468.0</ele><time>2026-04-23T10:13:45.852Z</time></trkpt><trkpt lat="43.4096085" lon="11.3533468"><ele>468.0</ele><time>2026-04-23T10:13:47.85Z</time></trkpt><trkpt lat="43.4096893" lon="11.3533774"><ele>468.0</ele><time>2026-04-23T10:13:48.848Z</time></trkpt><trkpt lat="43.409794" lon="11.3532753"><ele>468.2</ele><time>2026-04-23T10:13:50.85Z</time></trkpt><trkpt lat="43.40982" lon="11.353166"><ele>468.4</ele><time>2026-04-23T10:13:51.855Z</time></trkpt><trkpt lat="43.4098278" lon="11.3530292"><ele>468.59999999999997</ele><time>2026-04-23T10:13:52.853Z</time></trkpt><trkpt lat="43.4098327" lon="11.3528988"><ele>468.79999999999995</ele><time>2026-04-23T10:13:53.854Z</time></trkpt><trkpt lat="43.4098538" lon="11.3527722"><ele>469.0</ele><time>2026-04-23T10:13:54.846Z</time></trkpt><trkpt lat="43.4099087" lon="11.3526362"><ele>469.0</ele><time>2026-04-23T10:13:55.846Z</time></trkpt><trkpt lat="43.4099984" lon="11.352504"><ele>469.0</ele><time>2026-04-23T10:13:56.855Z</time></trkpt><trkpt lat="43.410094" lon="11.3524041"><ele>469.0</ele><time>2026-04-23T10:13:57.859Z</time></trkpt><trkpt lat="43.4101737" lon="11.3523333"><ele>469.0</ele><time>2026-04-23T10:13:58.853Z</time></trkpt><trkpt lat="43.4102421" lon="11.352304"><ele>469.0</ele><time>2026-04-23T10:13:59.854Z</time></trkpt><trkpt lat="43.410317" lon="11.3522878"><ele>469.0</ele><time>2026-04-23T10:14:00.859Z</time></trkpt><trkpt lat="43.4104226" lon="11.3522784"><ele>469.0</ele><time>2026-04-23T10:14:01.862Z</time></trkpt><trkpt lat="43.4105518" lon="11.3522584"><ele>469.0</ele><time>2026-04-23T10:14:02.858Z</time></trkpt><trkpt lat="43.4106971" lon="11.3522285"><ele>469.0</ele><time>2026-04-23T10:14:03.852Z</time></trkpt><trkpt lat="43.4108564" lon="11.3521966"><ele>469.6666666666667</ele><time>2026-04-23T10:14:04.857Z</time></trkpt><trkpt lat="43.4110286" lon="11.3521577"><ele>470.33333333333337</ele><time>2026-04-23T10:14:05.862Z</time></trkpt><trkpt lat="43.4112125" lon="11.3521158"><ele>471.0</ele><time>2026-04-23T10:14:06.857Z</time></trkpt><trkpt lat="43.4115967" lon="11.3520114"><ele>471.33333333333337</ele><time>2026-04-23T10:14:08.856Z</time></trkpt><trkpt lat="43.411795" lon="11.3519558"><ele>471.6666666666667</ele><time>2026-04-23T10:14:09.858Z</time></trkpt><trkpt lat="43.4119965" lon="11.351903"><ele>472.0</ele><time>2026-04-23T10:14:10.855Z</time></trkpt><trkpt lat="43.4121967" lon="11.3518533"><ele>472.0</ele><time>2026-04-23T10:14:11.852Z</time></trkpt><trkpt lat="43.4123935" lon="11.3518092"><ele>472.0</ele><time>2026-04-23T10:14:12.852Z</time></trkpt><trkpt lat="43.4125859" lon="11.3517577"><ele>472.0</ele><time>2026-04-23T10:14:13.861Z</time></trkpt><trkpt lat="43.4127689" lon="11.3516909"><ele>472.0</ele><time>2026-04-23T10:14:14.859Z</time></trkpt><trkpt lat="43.4129381" lon="11.3515877"><ele>472.0</ele><time>2026-04-23T10:14:15.853Z</time></trkpt><trkpt lat="43.4130908" lon="11.3514284"><ele>472.0</ele><time>2026-04-23T10:14:16.855Z</time></trkpt><trkpt lat="43.4132284" lon="11.3512271"><ele>474.6666666666667</ele><time>2026-04-23T10:14:17.854Z</time></trkpt><trkpt lat="43.4133673" lon="11.3510165"><ele>477.33333333333337</ele><time>2026-04-23T10:14:18.849Z</time></trkpt><trkpt lat="43.4134954" lon="11.3508072"><ele>480.0</ele><time>2026-04-23T10:14:19.853Z</time></trkpt><trkpt lat="43.4136213" lon="11.3506158"><ele>483.66666666666663</ele><time>2026-04-23T10:14:20.855Z</time></trkpt><trkpt lat="43.4137419" lon="11.3504445"><ele>487.3333333333333</ele><time>2026-04-23T10:14:21.855Z</time></trkpt><trkpt lat="43.4138551" lon="11.3503068"><ele>491.0</ele><time>2026-04-23T10:14:22.849Z</time></trkpt><trkpt lat="43.4139699" lon="11.3502267"><ele>491.75</ele><time>2026-04-23T10:14:23.855Z</time></trkpt><trkpt lat="43.4140971" lon="11.3502308"><ele>492.5</ele><time>2026-04-23T10:14:24.847Z</time></trkpt><trkpt lat="43.4142297" lon="11.350318"><ele>493.25</ele><time>2026-04-23T10:14:25.854Z</time></trkpt><trkpt lat="43.4143542" lon="11.3504275"><ele>494.0</ele><time>2026-04-23T10:14:26.843Z</time></trkpt><trkpt lat="43.4144648" lon="11.3504902"><ele>494.0</ele><time>2026-04-23T10:14:27.848Z</time></trkpt><trkpt lat="43.4146309" lon="11.3504049"><ele>494.0</ele><time>2026-04-23T10:14:29.855Z</time></trkpt><trkpt lat="43.4146847" lon="11.3502877"><ele>494.0</ele><time>2026-04-23T10:14:30.858Z</time></trkpt><trkpt lat="43.414712" lon="11.3501381"><ele>494.0</ele><time>2026-04-23T10:14:31.85Z</time></trkpt><trkpt lat="43.4147029" lon="11.3499176"><ele>493.0</ele><time>2026-04-23T10:14:32.851Z</time></trkpt><trkpt lat="43.4146954" lon="11.3496537"><ele>492.0</ele><time>2026-04-23T10:14:33.863Z</time></trkpt><trkpt lat="43.4147058" lon="11.3494081"><ele>491.0</ele><time>2026-04-23T10:14:34.854Z</time></trkpt><trkpt lat="43.4147479" lon="11.3491724"><ele>491.0</ele><time>2026-04-23T10:14:35.854Z</time></trkpt><trkpt lat="43.4148576" lon="11.3489744"><ele>491.0</ele><time>2026-04-23T10:14:36.847Z</time></trkpt><trkpt lat="43.4150179" lon="11.3488293"><ele>491.0</ele><time>2026-04-23T10:14:37.862Z</time></trkpt><trkpt lat="43.4151689" lon="11.3487124"><ele>494.66666666666663</ele><time>2026-04-23T10:14:38.858Z</time></trkpt><trkpt lat="43.4153194" lon="11.3486599"><ele>498.33333333333337</ele><time>2026-04-23T10:14:39.857Z</time></trkpt><trkpt lat="43.4154705" lon="11.3486483"><ele>502.0</ele><time>2026-04-23T10:14:40.846Z</time></trkpt><trkpt lat="43.4156194" lon="11.3486946"><ele>502.33333333333337</ele><time>2026-04-23T10:14:41.855Z</time></trkpt><trkpt lat="43.4157749" lon="11.3487442"><ele>502.66666666666663</ele><time>2026-04-23T10:14:42.856Z</time></trkpt><trkpt lat="43.4159314" lon="11.3487498"><ele>503.0</ele><time>2026-04-23T10:14:43.856Z</time></trkpt><trkpt lat="43.416095" lon="11.3487387"><ele>503.0</ele><time>2026-04-23T10:14:44.859Z</time></trkpt><trkpt lat="43.4162528" lon="11.3487216"><ele>503.0</ele><time>2026-04-23T10:14:45.855Z</time></trkpt><trkpt lat="43.4164144" lon="11.3487061"><ele>503.0</ele><time>2026-04-23T10:14:46.86Z</time></trkpt><trkpt lat="43.4165836" lon="11.3487291"><ele>503.66666666666663</ele><time>2026-04-23T10:14:47.853Z</time></trkpt><trkpt lat="43.416737" lon="11.3487236"><ele>504.33333333333337</ele><time>2026-04-23T10:14:48.852Z</time></trkpt><trkpt lat="43.4170039" lon="11.3486606"><ele>505.0</ele><time>2026-04-23T10:14:50.857Z</time></trkpt><trkpt lat="43.4171154" lon="11.3485904"><ele>506.2</ele><time>2026-04-23T10:14:51.858Z</time></trkpt><trkpt lat="43.4171963" lon="11.3484877"><ele>507.4</ele><time>2026-04-23T10:14:52.859Z</time></trkpt><trkpt lat="43.4172311" lon="11.3483586"><ele>508.6</ele><time>2026-04-23T10:14:53.854Z</time></trkpt><trkpt lat="43.4172253" lon="11.3482134"><ele>509.8</ele><time>2026-04-23T10:14:54.853Z</time></trkpt><trkpt lat="43.4171797" lon="11.3480493"><ele>511.0</ele><time>2026-04-23T10:14:55.853Z</time></trkpt><trkpt lat="43.4171305" lon="11.3478521"><ele>511.0</ele><time>2026-04-23T10:14:56.855Z</time></trkpt><trkpt lat="43.4170984" lon="11.3476479"><ele>511.0</ele><time>2026-04-23T10:14:57.852Z</time></trkpt><trkpt lat="43.4171117" lon="11.3474393"><ele>511.0</ele><time>2026-04-23T10:14:58.853Z</time></trkpt><trkpt lat="43.4171797" lon="11.3472512"><ele>511.0</ele><time>2026-04-23T10:14:59.86Z</time></trkpt><trkpt lat="43.4173049" lon="11.3471056"><ele>511.0</ele><time>2026-04-23T10:15:00.856Z</time></trkpt><trkpt lat="43.4174542" lon="11.3469792"><ele>511.0</ele><time>2026-04-23T10:15:01.853Z</time></trkpt><trkpt lat="43.4176103" lon="11.346864"><ele>511.0</ele><time>2026-04-23T10:15:02.862Z</time></trkpt><trkpt lat="43.4177641" lon="11.3467589"><ele>511.0</ele><time>2026-04-23T10:15:03.85Z</time></trkpt><trkpt lat="43.4179223" lon="11.3466758"><ele>511.0</ele><time>2026-04-23T10:15:04.854Z</time></trkpt><trkpt lat="43.4180769" lon="11.3466014"><ele>507.0</ele><time>2026-04-23T10:15:05.855Z</time></trkpt><trkpt lat="43.4182288" lon="11.3465385"><ele>503.0</ele><time>2026-04-23T10:15:06.85Z</time></trkpt><trkpt lat="43.4183809" lon="11.3464959"><ele>499.0</ele><time>2026-04-23T10:15:07.854Z</time></trkpt><trkpt lat="43.4185316" lon="11.346472"><ele>499.0</ele><time>2026-04-23T10:15:08.846Z</time></trkpt><trkpt lat="43.418682" lon="11.3464639"><ele>499.0</ele><time>2026-04-23T10:15:09.856Z</time></trkpt><trkpt lat="43.4189523" lon="11.3465358"><ele>499.0</ele><time>2026-04-23T10:15:11.85Z</time></trkpt><trkpt lat="43.4190716" lon="11.3466392"><ele>499.5</ele><time>2026-04-23T10:15:12.855Z</time></trkpt><trkpt lat="43.4191931" lon="11.3467669"><ele>500.0</ele><time>2026-04-23T10:15:13.861Z</time></trkpt><trkpt lat="43.4193196" lon="11.3468783"><ele>500.5</ele><time>2026-04-23T10:15:14.853Z</time></trkpt><trkpt lat="43.4194448" lon="11.3469554"><ele>501.0</ele><time>2026-04-23T10:15:15.855Z</time></trkpt><trkpt lat="43.4195675" lon="11.3469973"><ele>502.5</ele><time>2026-04-23T10:15:16.86Z</time></trkpt><trkpt lat="43.4196941" lon="11.3470015"><ele>504.0</ele><time>2026-04-23T10:15:17.85Z</time></trkpt><trkpt lat="43.41982" lon="11.346983"><ele>505.5</ele><time>2026-04-23T10:15:18.857Z</time></trkpt><trkpt lat="43.41994" lon="11.3469649"><ele>507.0</ele><time>2026-04-23T10:15:19.856Z</time></trkpt><trkpt lat="43.4200477" lon="11.3469673"><ele>507.0</ele><time>2026-04-23T10:15:20.85Z</time></trkpt><trkpt lat="43.4201428" lon="11.3469903"><ele>507.0</ele><time>2026-04-23T10:15:21.859Z</time></trkpt><trkpt lat="43.420224" lon="11.3470375"><ele>507.0</ele><time>2026-04-23T10:15:22.856Z</time></trkpt><trkpt lat="43.4202989" lon="11.3470985"><ele>507.0</ele><time>2026-04-23T10:15:23.862Z</time></trkpt><trkpt lat="43.4203711" lon="11.3471655"><ele>507.0</ele><time>2026-04-23T10:15:24.851Z</time></trkpt><trkpt lat="43.4204445" lon="11.3472198"><ele>507.0</ele><time>2026-04-23T10:15:25.852Z</time></trkpt><trkpt lat="43.4205153" lon="11.3472531"><ele>506.0</ele><time>2026-04-23T10:15:26.854Z</time></trkpt><trkpt lat="43.4205896" lon="11.3472646"><ele>505.0</ele><time>2026-04-23T10:15:27.848Z</time></trkpt><trkpt lat="43.4206644" lon="11.3472625"><ele>504.0</ele><time>2026-04-23T10:15:28.856Z</time></trkpt><trkpt lat="43.4207403" lon="11.3472555"><ele>503.0</ele><time>2026-04-23T10:15:29.85Z</time></trkpt><trkpt lat="43.4208141" lon="11.3472515"><ele>502.0</ele><time>2026-04-23T10:15:30.857Z</time></trkpt><trkpt lat="43.4209487" lon="11.3472644"><ele>501.0</ele><time>2026-04-23T10:15:32.853Z</time></trkpt><trkpt lat="43.4210629" lon="11.3472945"><ele>501.0</ele><time>2026-04-23T10:15:34.848Z</time></trkpt><trkpt lat="43.4211511" lon="11.3473396"><ele>501.0</ele><time>2026-04-23T10:15:36.856Z</time></trkpt><trkpt lat="43.4212218" lon="11.3473916"><ele>501.0</ele><time>2026-04-23T10:15:38.855Z</time></trkpt><trkpt lat="43.4212926" lon="11.347484"><ele>501.0</ele><time>2026-04-23T10:15:40.852Z</time></trkpt><trkpt lat="43.4213493" lon="11.3476059"><ele>501.0</ele><time>2026-04-23T10:15:42.859Z</time></trkpt><trkpt lat="43.4213747" lon="11.3477693"><ele>501.0</ele><time>2026-04-23T10:15:44.856Z</time></trkpt><trkpt lat="43.421377" lon="11.347869"><ele>501.0</ele><time>2026-04-23T10:15:45.862Z</time></trkpt><trkpt lat="43.4213746" lon="11.3479966"><ele>501.0</ele><time>2026-04-23T10:15:46.851Z</time></trkpt><trkpt lat="43.4213683" lon="11.3481345"><ele>501.0</ele><time>2026-04-23T10:15:47.858Z</time></trkpt><trkpt lat="43.4213555" lon="11.3482732"><ele>501.0</ele><time>2026-04-23T10:15:48.855Z</time></trkpt><trkpt lat="43.4213376" lon="11.3484035"><ele>501.6</ele><time>2026-04-23T10:15:49.853Z</time></trkpt><trkpt lat="43.4213191" lon="11.348527"><ele>502.20000000000005</ele><time>2026-04-23T10:15:50.856Z</time></trkpt><trkpt lat="43.421304" lon="11.3486435"><ele>502.79999999999995</ele><time>2026-04-23T10:15:51.856Z</time></trkpt><trkpt lat="43.4212936" lon="11.3488687"><ele>503.4</ele><time>2026-04-23T10:15:53.853Z</time></trkpt><trkpt lat="43.4212948" lon="11.3489841"><ele>504.0</ele><time>2026-04-23T10:15:54.859Z</time></trkpt><trkpt lat="43.421296" lon="11.3491005"><ele>503.0</ele><time>2026-04-23T10:15:55.854Z</time></trkpt><trkpt lat="43.4213009" lon="11.3492156"><ele>502.0</ele><time>2026-04-23T10:15:56.858Z</time></trkpt><trkpt lat="43.4213159" lon="11.3493206"><ele>501.0</ele><time>2026-04-23T10:15:57.847Z</time></trkpt><trkpt lat="43.4213428" lon="11.3494168"><ele>500.0</ele><time>2026-04-23T10:15:58.853Z</time></trkpt><trkpt lat="43.4213851" lon="11.3494991"><ele>499.0</ele><time>2026-04-23T10:15:59.85Z</time></trkpt><trkpt lat="43.4214467" lon="11.3495514"><ele>498.0</ele><time>2026-04-23T10:16:00.856Z</time></trkpt><trkpt lat="43.4215164" lon="11.3495755"><ele>498.0</ele><time>2026-04-23T10:16:01.855Z</time></trkpt><trkpt lat="43.4215875" lon="11.3495705"><ele>498.0</ele><time>2026-04-23T10:16:02.853Z</time></trkpt><trkpt lat="43.4216646" lon="11.3495456"><ele>498.0</ele><time>2026-04-23T10:16:03.846Z</time></trkpt><trkpt lat="43.421743" lon="11.3495144"><ele>498.0</ele><time>2026-04-23T10:16:04.849Z</time></trkpt><trkpt lat="43.4218237" lon="11.3494783"><ele>498.0</ele><time>2026-04-23T10:16:05.854Z</time></trkpt><trkpt lat="43.4219032" lon="11.3494751"><ele>498.0</ele><time>2026-04-23T10:16:06.852Z</time></trkpt><trkpt lat="43.4219768" lon="11.3495128"><ele>498.0</ele><time>2026-04-23T10:16:07.853Z</time></trkpt><trkpt lat="43.422045" lon="11.3495796"><ele>497.99999999999994</ele><time>2026-04-23T10:16:08.856Z</time></trkpt><trkpt lat="43.422105" lon="11.3496742"><ele>497.99999999999994</ele><time>2026-04-23T10:16:09.85Z</time></trkpt><trkpt lat="43.4221704" lon="11.3497803"><ele>498.0</ele><time>2026-04-23T10:16:10.855Z</time></trkpt><trkpt lat="43.4222351" lon="11.3498713"><ele>498.0</ele><time>2026-04-23T10:16:11.854Z</time></trkpt><trkpt lat="43.4223098" lon="11.3499457"><ele>495.2</ele><time>2026-04-23T10:16:12.852Z</time></trkpt><trkpt lat="43.4224766" lon="11.3500647"><ele>492.4</ele><time>2026-04-23T10:16:14.855Z</time></trkpt><trkpt lat="43.4225557" lon="11.350117"><ele>489.59999999999997</ele><time>2026-04-23T10:16:15.855Z</time></trkpt><trkpt lat="43.422632" lon="11.3501688"><ele>486.79999999999995</ele><time>2026-04-23T10:16:16.854Z</time></trkpt><trkpt lat="43.4226952" lon="11.3502283"><ele>484.0</ele><time>2026-04-23T10:16:17.851Z</time></trkpt><trkpt lat="43.4227444" lon="11.3503026"><ele>484.00000000000006</ele><time>2026-04-23T10:16:18.847Z</time></trkpt><trkpt lat="43.4227843" lon="11.3503882"><ele>484.0</ele><time>2026-04-23T10:16:19.849Z</time></trkpt><trkpt lat="43.4228096" lon="11.3504769"><ele>484.0</ele><time>2026-04-23T10:16:20.853Z</time></trkpt><trkpt lat="43.4228267" lon="11.3505615"><ele>484.0</ele><time>2026-04-23T10:16:21.855Z</time></trkpt><trkpt lat="43.4228795" lon="11.3506691"><ele>484.00000000000006</ele><time>2026-04-23T10:16:23.854Z</time></trkpt><trkpt lat="43.4229598" lon="11.350681"><ele>484.0</ele><time>2026-04-23T10:16:25.858Z</time></trkpt><trkpt lat="43.4230573" lon="11.3505925"><ele>482.6666666666667</ele><time>2026-04-23T10:16:27.852Z</time></trkpt><trkpt lat="43.4231156" lon="11.3505195"><ele>481.33333333333337</ele><time>2026-04-23T10:16:28.854Z</time></trkpt><trkpt lat="43.4231767" lon="11.3504379"><ele>480.0</ele><time>2026-04-23T10:16:29.851Z</time></trkpt><trkpt lat="43.4232386" lon="11.3503668"><ele>478.66666666666663</ele><time>2026-04-23T10:16:30.859Z</time></trkpt><trkpt lat="43.4233038" lon="11.3503076"><ele>477.3333333333333</ele><time>2026-04-23T10:16:31.854Z</time></trkpt><trkpt lat="43.4233724" lon="11.350268"><ele>476.0</ele><time>2026-04-23T10:16:32.848Z</time></trkpt><trkpt lat="43.4234469" lon="11.3502383"><ele>475.99999999999994</ele><time>2026-04-23T10:16:33.853Z</time></trkpt><trkpt lat="43.4235999" lon="11.350185"><ele>476.0</ele><time>2026-04-23T10:16:35.85Z</time></trkpt><trkpt lat="43.4236732" lon="11.3501722"><ele>476.0</ele><time>2026-04-23T10:16:36.854Z</time></trkpt><trkpt lat="43.4237402" lon="11.3501658"><ele>476.0</ele><time>2026-04-23T10:16:37.855Z</time></trkpt><trkpt lat="43.4238049" lon="11.3501765"><ele>475.99999999999994</ele><time>2026-04-23T10:16:38.849Z</time></trkpt><trkpt lat="43.4238662" lon="11.3501979"><ele>476.0</ele><time>2026-04-23T10:16:39.86Z</time></trkpt><trkpt lat="43.423957" lon="11.350308"><ele>473.99999999999994</ele><time>2026-04-23T10:16:41.85Z</time></trkpt><trkpt lat="43.42398" lon="11.3504052"><ele>472.0</ele><time>2026-04-23T10:16:42.853Z</time></trkpt><trkpt lat="43.4239837" lon="11.3505364"><ele>470.0</ele><time>2026-04-23T10:16:43.853Z</time></trkpt><trkpt lat="43.4239752" lon="11.3506658"><ele>468.0</ele><time>2026-04-23T10:16:44.851Z</time></trkpt><trkpt lat="43.4239702" lon="11.3507843"><ele>465.99999999999994</ele><time>2026-04-23T10:16:45.851Z</time></trkpt><trkpt lat="43.4239673" lon="11.3509039"><ele>464.0</ele><time>2026-04-23T10:16:46.85Z</time></trkpt><trkpt lat="43.4239596" lon="11.3510213"><ele>462.16666666666663</ele><time>2026-04-23T10:16:47.857Z</time></trkpt><trkpt lat="43.4239493" lon="11.3511289"><ele>460.3333333333333</ele><time>2026-04-23T10:16:48.855Z</time></trkpt><trkpt lat="43.4239332" lon="11.3512303"><ele>458.5</ele><time>2026-04-23T10:16:49.857Z</time></trkpt><trkpt lat="43.423911" lon="11.3513272"><ele>456.66666666666663</ele><time>2026-04-23T10:16:50.857Z</time></trkpt><trkpt lat="43.4238864" lon="11.3514239"><ele>454.8333333333333</ele><time>2026-04-23T10:16:51.853Z</time></trkpt><trkpt lat="43.423854" lon="11.351522"><ele>453.0</ele><time>2026-04-23T10:16:52.855Z</time></trkpt><trkpt lat="43.4238201" lon="11.3516201"><ele>452.1666666666667</ele><time>2026-04-23T10:16:53.854Z</time></trkpt><trkpt lat="43.4237888" lon="11.3517115"><ele>451.33333333333337</ele><time>2026-04-23T10:16:54.849Z</time></trkpt><trkpt lat="43.4237284" lon="11.3518782"><ele>450.5</ele><time>2026-04-23T10:16:56.851Z</time></trkpt><trkpt lat="43.4237034" lon="11.3519619"><ele>449.6666666666667</ele><time>2026-04-23T10:16:57.854Z</time></trkpt><trkpt lat="43.4236861" lon="11.3520561"><ele>448.83333333333337</ele><time>2026-04-23T10:16:58.852Z</time></trkpt><trkpt lat="43.423675" lon="11.3521612"><ele>448.0</ele><time>2026-04-23T10:16:59.848Z</time></trkpt><trkpt lat="43.42367" lon="11.352289"><ele>447.0</ele><time>2026-04-23T10:17:00.851Z</time></trkpt><trkpt lat="43.4236757" lon="11.352431"><ele>445.99999999999994</ele><time>2026-04-23T10:17:01.854Z</time></trkpt><trkpt lat="43.4236882" lon="11.3525755"><ele>444.99999999999994</ele><time>2026-04-23T10:17:02.855Z</time></trkpt><trkpt lat="43.4237032" lon="11.3527115"><ele>444.0</ele><time>2026-04-23T10:17:03.862Z</time></trkpt><trkpt lat="43.4237145" lon="11.3528317"><ele>443.0</ele><time>2026-04-23T10:17:04.849Z</time></trkpt><trkpt lat="43.4237213" lon="11.3529385"><ele>443.0</ele><time>2026-04-23T10:17:05.856Z</time></trkpt><trkpt lat="43.4237283" lon="11.353034"><ele>443.0</ele><time>2026-04-23T10:17:06.857Z</time></trkpt><trkpt lat="43.4237408" lon="11.3531265"><ele>443.0</ele><time>2026-04-23T10:17:07.855Z</time></trkpt><trkpt lat="43.4237545" lon="11.3532265"><ele>443.0</ele><time>2026-04-23T10:17:08.855Z</time></trkpt><trkpt lat="43.4237658" lon="11.3533283"><ele>443.0</ele><time>2026-04-23T10:17:09.854Z</time></trkpt><trkpt lat="43.4237782" lon="11.3534256"><ele>443.0</ele><time>2026-04-23T10:17:10.851Z</time></trkpt><trkpt lat="43.423789" lon="11.3535168"><ele>443.0</ele><time>2026-04-23T10:17:11.854Z</time></trkpt><trkpt lat="43.423798" lon="11.353605"><ele>443.66666666666663</ele><time>2026-04-23T10:17:12.857Z</time></trkpt><trkpt lat="43.4238069" lon="11.3536992"><ele>444.3333333333333</ele><time>2026-04-23T10:17:13.864Z</time></trkpt><trkpt lat="43.4238159" lon="11.3538039"><ele>445.0</ele><time>2026-04-23T10:17:14.857Z</time></trkpt><trkpt lat="43.4238252" lon="11.3539103"><ele>445.66666666666663</ele><time>2026-04-23T10:17:15.851Z</time></trkpt><trkpt lat="43.4238508" lon="11.3541111"><ele>446.3333333333333</ele><time>2026-04-23T10:17:17.853Z</time></trkpt><trkpt lat="43.4238734" lon="11.3542021"><ele>447.0</ele><time>2026-04-23T10:17:18.853Z</time></trkpt><trkpt lat="43.4239038" lon="11.3542797"><ele>444.6</ele><time>2026-04-23T10:17:19.852Z</time></trkpt><trkpt lat="43.4239736" lon="11.3544076"><ele>442.20000000000005</ele><time>2026-04-23T10:17:21.854Z</time></trkpt><trkpt lat="43.4240525" lon="11.3545319"><ele>439.8</ele><time>2026-04-23T10:17:23.857Z</time></trkpt><trkpt lat="43.4240937" lon="11.3545993"><ele>437.4</ele><time>2026-04-23T10:17:24.856Z</time></trkpt><trkpt lat="43.4241449" lon="11.3546711"><ele>435.0</ele><time>2026-04-23T10:17:25.862Z</time></trkpt><trkpt lat="43.4242149" lon="11.3547364"><ele>432.8</ele><time>2026-04-23T10:17:26.856Z</time></trkpt><trkpt lat="43.4243078" lon="11.3547838"><ele>430.6</ele><time>2026-04-23T10:17:27.857Z</time></trkpt><trkpt lat="43.4244102" lon="11.3548093"><ele>428.4</ele><time>2026-04-23T10:17:28.857Z</time></trkpt><trkpt lat="43.4245104" lon="11.3548253"><ele>426.2</ele><time>2026-04-23T10:17:29.856Z</time></trkpt><trkpt lat="43.4246025" lon="11.3548386"><ele>424.0</ele><time>2026-04-23T10:17:30.866Z</time></trkpt><trkpt lat="43.424691" lon="11.3548449"><ele>424.0</ele><time>2026-04-23T10:17:31.856Z</time></trkpt><trkpt lat="43.4247717" lon="11.3548459"><ele>424.0</ele><time>2026-04-23T10:17:32.855Z</time></trkpt><trkpt lat="43.4248436" lon="11.3548458"><ele>424.0</ele><time>2026-04-23T10:17:33.853Z</time></trkpt><trkpt lat="43.4249065" lon="11.3548332"><ele>424.0</ele><time>2026-04-23T10:17:34.85Z</time></trkpt><trkpt lat="43.4249911" lon="11.3547427"><ele>424.0</ele><time>2026-04-23T10:17:36.848Z</time></trkpt><trkpt lat="43.4250537" lon="11.3544577"><ele>424.1666666666667</ele><time>2026-04-23T10:17:40.852Z</time></trkpt><trkpt lat="43.4251048" lon="11.354405"><ele>424.33333333333337</ele><time>2026-04-23T10:17:41.859Z</time></trkpt><trkpt lat="43.4251675" lon="11.3543791"><ele>424.5</ele><time>2026-04-23T10:17:42.857Z</time></trkpt><trkpt lat="43.4252377" lon="11.3543732"><ele>424.66666666666663</ele><time>2026-04-23T10:17:43.856Z</time></trkpt><trkpt lat="43.4253202" lon="11.35437"><ele>424.8333333333333</ele><time>2026-04-23T10:17:44.855Z</time></trkpt><trkpt lat="43.425418" lon="11.3543589"><ele>425.0</ele><time>2026-04-23T10:17:45.855Z</time></trkpt><trkpt lat="43.4255147" lon="11.3543317"><ele>421.4</ele><time>2026-04-23T10:17:46.856Z</time></trkpt><trkpt lat="43.4255984" lon="11.35427"><ele>417.8</ele><time>2026-04-23T10:17:47.852Z</time></trkpt><trkpt lat="43.4256608" lon="11.35417"><ele>414.20000000000005</ele><time>2026-04-23T10:17:48.856Z</time></trkpt><trkpt lat="43.4257078" lon="11.3540448"><ele>410.6</ele><time>2026-04-23T10:17:49.855Z</time></trkpt><trkpt lat="43.4257451" lon="11.3539152"><ele>407.0</ele><time>2026-04-23T10:17:50.855Z</time></trkpt><trkpt lat="43.4257725" lon="11.353787"><ele>405.66666666666663</ele><time>2026-04-23T10:17:51.853Z</time></trkpt><trkpt lat="43.4257778" lon="11.3536614"><ele>404.3333333333333</ele><time>2026-04-23T10:17:52.85Z</time></trkpt><trkpt lat="43.4257698" lon="11.3535427"><ele>403.0</ele><time>2026-04-23T10:17:53.859Z</time></trkpt><trkpt lat="43.4257557" lon="11.353429"><ele>401.66666666666663</ele><time>2026-04-23T10:17:54.856Z</time></trkpt><trkpt lat="43.4257446" lon="11.3533194"><ele>400.3333333333333</ele><time>2026-04-23T10:17:55.86Z</time></trkpt><trkpt lat="43.4257356" lon="11.3532094"><ele>399.0</ele><time>2026-04-23T10:17:56.856Z</time></trkpt><trkpt lat="43.4257322" lon="11.3530985"><ele>399.4</ele><time>2026-04-23T10:17:57.854Z</time></trkpt><trkpt lat="43.4257551" lon="11.3528933"><ele>399.79999999999995</ele><time>2026-04-23T10:17:59.85Z</time></trkpt><trkpt lat="43.4257748" lon="11.3527894"><ele>400.20000000000005</ele><time>2026-04-23T10:18:00.847Z</time></trkpt><trkpt lat="43.4257954" lon="11.3526749"><ele>400.6</ele><time>2026-04-23T10:18:01.855Z</time></trkpt><trkpt lat="43.4258141" lon="11.3525632"><ele>401.0</ele><time>2026-04-23T10:18:02.849Z</time></trkpt><trkpt lat="43.4258369" lon="11.3524549"><ele>400.99999999999994</ele><time>2026-04-23T10:18:03.856Z</time></trkpt><trkpt lat="43.4258718" lon="11.352347"><ele>401.0</ele><time>2026-04-23T10:18:04.851Z</time></trkpt><trkpt lat="43.425909" lon="11.3522468"><ele>401.0</ele><time>2026-04-23T10:18:05.857Z</time></trkpt><trkpt lat="43.4259509" lon="11.3521551"><ele>401.0</ele><time>2026-04-23T10:18:06.848Z</time></trkpt><trkpt lat="43.4260054" lon="11.3520768"><ele>400.99999999999994</ele><time>2026-04-23T10:18:07.85Z</time></trkpt><trkpt lat="43.426072" lon="11.3520037"><ele>401.0</ele><time>2026-04-23T10:18:08.852Z</time></trkpt><trkpt lat="43.4261521" lon="11.3519383"><ele>401.8333333333333</ele><time>2026-04-23T10:18:09.858Z</time></trkpt><trkpt lat="43.4262311" lon="11.3518738"><ele>402.66666666666663</ele><time>2026-04-23T10:18:10.851Z</time></trkpt><trkpt lat="43.4263051" lon="11.3518032"><ele>403.5</ele><time>2026-04-23T10:18:11.851Z</time></trkpt><trkpt lat="43.4263762" lon="11.351729"><ele>404.33333333333337</ele><time>2026-04-23T10:18:12.854Z</time></trkpt><trkpt lat="43.4264433" lon="11.3516506"><ele>405.1666666666667</ele><time>2026-04-23T10:18:13.855Z</time></trkpt><trkpt lat="43.4265047" lon="11.3515741"><ele>406.0</ele><time>2026-04-23T10:18:14.855Z</time></trkpt><trkpt lat="43.4265601" lon="11.3514968"><ele>403.0</ele><time>2026-04-23T10:18:15.853Z</time></trkpt><trkpt lat="43.4266127" lon="11.3514118"><ele>400.0</ele><time>2026-04-23T10:18:16.852Z</time></trkpt><trkpt lat="43.4266558" lon="11.3513189"><ele>397.0</ele><time>2026-04-23T10:18:17.849Z</time></trkpt><trkpt lat="43.4266954" lon="11.351202"><ele>394.0</ele><time>2026-04-23T10:18:18.854Z</time></trkpt><trkpt lat="43.4267962" lon="11.3508909"><ele>394.0</ele><time>2026-04-23T10:18:20.845Z</time></trkpt><trkpt lat="43.4268554" lon="11.3507259"><ele>394.0</ele><time>2026-04-23T10:18:21.851Z</time></trkpt><trkpt lat="43.4269178" lon="11.3505825"><ele>394.0</ele><time>2026-04-23T10:18:22.853Z</time></trkpt><trkpt lat="43.426984" lon="11.3504755"><ele>394.0</ele><time>2026-04-23T10:18:23.851Z</time></trkpt><trkpt lat="43.4270711" lon="11.3504048"><ele>388.6666666666667</ele><time>2026-04-23T10:18:24.849Z</time></trkpt><trkpt lat="43.4271982" lon="11.3503508"><ele>383.33333333333337</ele><time>2026-04-23T10:18:25.856Z</time></trkpt><trkpt lat="43.4273758" lon="11.3503026"><ele>378.0</ele><time>2026-04-23T10:18:26.853Z</time></trkpt><trkpt lat="43.4275737" lon="11.350244"><ele>378.0</ele><time>2026-04-23T10:18:27.85Z</time></trkpt><trkpt lat="43.4277799" lon="11.3501812"><ele>378.0</ele><time>2026-04-23T10:18:28.856Z</time></trkpt><trkpt lat="43.427964" lon="11.3501065"><ele>378.0</ele><time>2026-04-23T10:18:29.854Z</time></trkpt><trkpt lat="43.4281188" lon="11.3500278"><ele>377.75</ele><time>2026-04-23T10:18:30.853Z</time></trkpt><trkpt lat="43.4282633" lon="11.3499735"><ele>377.5</ele><time>2026-04-23T10:18:31.85Z</time></trkpt><trkpt lat="43.428399" lon="11.3499612"><ele>377.25</ele><time>2026-04-23T10:18:32.847Z</time></trkpt><trkpt lat="43.4285194" lon="11.3499832"><ele>377.0</ele><time>2026-04-23T10:18:33.849Z</time></trkpt><trkpt lat="43.4286339" lon="11.3500543"><ele>377.0</ele><time>2026-04-23T10:18:34.853Z</time></trkpt><trkpt lat="43.4287555" lon="11.3501723"><ele>377.0</ele><time>2026-04-23T10:18:35.847Z</time></trkpt><trkpt lat="43.4288915" lon="11.3503105"><ele>377.0</ele><time>2026-04-23T10:18:36.856Z</time></trkpt><trkpt lat="43.4290399" lon="11.3504408"><ele>375.6666666666667</ele><time>2026-04-23T10:18:37.856Z</time></trkpt><trkpt lat="43.4291847" lon="11.3505549"><ele>374.3333333333333</ele><time>2026-04-23T10:18:38.859Z</time></trkpt><trkpt lat="43.4293178" lon="11.3506577"><ele>373.0</ele><time>2026-04-23T10:18:39.858Z</time></trkpt><trkpt lat="43.4295558" lon="11.3508337"><ele>374.5</ele><time>2026-04-23T10:18:41.856Z</time></trkpt><trkpt lat="43.4296749" lon="11.3508869"><ele>376.0</ele><time>2026-04-23T10:18:42.853Z</time></trkpt><trkpt lat="43.4297943" lon="11.3508974"><ele>377.5</ele><time>2026-04-23T10:18:43.858Z</time></trkpt><trkpt lat="43.4299209" lon="11.3508815"><ele>379.0</ele><time>2026-04-23T10:18:44.855Z</time></trkpt><trkpt lat="43.4300637" lon="11.3508475"><ele>379.0</ele><time>2026-04-23T10:18:45.847Z</time></trkpt><trkpt lat="43.4302236" lon="11.3508191"><ele>379.0</ele><time>2026-04-23T10:18:46.852Z</time></trkpt><trkpt lat="43.4303977" lon="11.3508152"><ele>379.0</ele><time>2026-04-23T10:18:47.859Z</time></trkpt><trkpt lat="43.4305685" lon="11.35083"><ele>380.0</ele><time>2026-04-23T10:18:48.852Z</time></trkpt><trkpt lat="43.4307268" lon="11.350847"><ele>381.0</ele><time>2026-04-23T10:18:49.845Z</time></trkpt><trkpt lat="43.4308787" lon="11.350846"><ele>382.0</ele><time>2026-04-23T10:18:50.86Z</time></trkpt><trkpt lat="43.4310259" lon="11.3508057"><ele>382.0</ele><time>2026-04-23T10:18:51.86Z</time></trkpt><trkpt lat="43.4311697" lon="11.3507235"><ele>382.0</ele><time>2026-04-23T10:18:52.852Z</time></trkpt><trkpt lat="43.4312904" lon="11.3506497"><ele>382.0</ele><time>2026-04-23T10:18:53.862Z</time></trkpt><trkpt lat="43.4313889" lon="11.3506136"><ele>382.0</ele><time>2026-04-23T10:18:54.855Z</time></trkpt><trkpt lat="43.4314677" lon="11.3506178"><ele>385.5</ele><time>2026-04-23T10:18:55.858Z</time></trkpt><trkpt lat="43.431552" lon="11.3507671"><ele>389.0</ele><time>2026-04-23T10:18:57.853Z</time></trkpt><trkpt lat="43.4315904" lon="11.3508905"><ele>392.5</ele><time>2026-04-23T10:18:58.852Z</time></trkpt><trkpt lat="43.431653" lon="11.3510099"><ele>396.0</ele><time>2026-04-23T10:18:59.855Z</time></trkpt><trkpt lat="43.4317274" lon="11.35112"><ele>396.0</ele><time>2026-04-23T10:19:00.856Z</time></trkpt><trkpt lat="43.4319092" lon="11.3512955"><ele>396.0</ele><time>2026-04-23T10:19:02.855Z</time></trkpt><trkpt lat="43.4319933" lon="11.3513393"><ele>396.0</ele><time>2026-04-23T10:19:03.854Z</time></trkpt><trkpt lat="43.4320732" lon="11.3513543"><ele>396.0</ele><time>2026-04-23T10:19:04.851Z</time></trkpt><trkpt lat="43.432165" lon="11.3513607"><ele>396.25</ele><time>2026-04-23T10:19:05.854Z</time></trkpt><trkpt lat="43.4322757" lon="11.3513646"><ele>396.5</ele><time>2026-04-23T10:19:06.857Z</time></trkpt><trkpt lat="43.4323924" lon="11.3513643"><ele>396.75</ele><time>2026-04-23T10:19:07.856Z</time></trkpt><trkpt lat="43.4325122" lon="11.3513698"><ele>397.0</ele><time>2026-04-23T10:19:08.854Z</time></trkpt><trkpt lat="43.4326234" lon="11.3513741"><ele>397.0</ele><time>2026-04-23T10:19:09.852Z</time></trkpt><trkpt lat="43.4327259" lon="11.3513597"><ele>397.0</ele><time>2026-04-23T10:19:10.853Z</time></trkpt><trkpt lat="43.4328219" lon="11.3513226"><ele>397.0</ele><time>2026-04-23T10:19:11.852Z</time></trkpt><trkpt lat="43.432914" lon="11.3512603"><ele>397.0</ele><time>2026-04-23T10:19:12.848Z</time></trkpt><trkpt lat="43.4330121" lon="11.3511753"><ele>397.0</ele><time>2026-04-23T10:19:13.851Z</time></trkpt><trkpt lat="43.4331155" lon="11.3510884"><ele>393.0</ele><time>2026-04-23T10:19:14.855Z</time></trkpt><trkpt lat="43.4332218" lon="11.3509992"><ele>389.0</ele><time>2026-04-23T10:19:15.853Z</time></trkpt><trkpt lat="43.433329" lon="11.3509044"><ele>385.0</ele><time>2026-04-23T10:19:16.847Z</time></trkpt><trkpt lat="43.4334363" lon="11.3508045"><ele>381.0</ele><time>2026-04-23T10:19:17.854Z</time></trkpt><trkpt lat="43.43354" lon="11.3507022"><ele>381.0</ele><time>2026-04-23T10:19:18.852Z</time></trkpt><trkpt lat="43.4336391" lon="11.3505972"><ele>381.0</ele><time>2026-04-23T10:19:19.855Z</time></trkpt><trkpt lat="43.4337305" lon="11.350492"><ele>381.0</ele><time>2026-04-23T10:19:20.856Z</time></trkpt><trkpt lat="43.4338253" lon="11.3503815"><ele>381.0</ele><time>2026-04-23T10:19:21.854Z</time></trkpt><trkpt lat="43.4340214" lon="11.3501548"><ele>381.20000000000005</ele><time>2026-04-23T10:19:23.854Z</time></trkpt><trkpt lat="43.4341158" lon="11.3500437"><ele>381.40000000000003</ele><time>2026-04-23T10:19:24.852Z</time></trkpt><trkpt lat="43.4342032" lon="11.3499416"><ele>381.6</ele><time>2026-04-23T10:19:25.849Z</time></trkpt><trkpt lat="43.4342771" lon="11.3498428"><ele>381.8</ele><time>2026-04-23T10:19:26.85Z</time></trkpt><trkpt lat="43.4343427" lon="11.3497362"><ele>382.0</ele><time>2026-04-23T10:19:27.855Z</time></trkpt><trkpt lat="43.4343921" lon="11.349612"><ele>384.5</ele><time>2026-04-23T10:19:28.856Z</time></trkpt><trkpt lat="43.4344369" lon="11.3494725"><ele>387.0</ele><time>2026-04-23T10:19:29.857Z</time></trkpt><trkpt lat="43.4344851" lon="11.3493198"><ele>389.5</ele><time>2026-04-23T10:19:30.854Z</time></trkpt><trkpt lat="43.4345354" lon="11.3491635"><ele>392.0</ele><time>2026-04-23T10:19:31.851Z</time></trkpt><trkpt lat="43.4345831" lon="11.3490064"><ele>393.0</ele><time>2026-04-23T10:19:32.849Z</time></trkpt><trkpt lat="43.4346347" lon="11.3488612"><ele>394.0</ele><time>2026-04-23T10:19:33.857Z</time></trkpt><trkpt lat="43.434699" lon="11.348747"><ele>395.0</ele><time>2026-04-23T10:19:34.855Z</time></trkpt><trkpt lat="43.4347712" lon="11.3486693"><ele>396.0</ele><time>2026-04-23T10:19:35.852Z</time></trkpt><trkpt lat="43.4348495" lon="11.3486416"><ele>397.0</ele><time>2026-04-23T10:19:36.846Z</time></trkpt><trkpt lat="43.4349255" lon="11.3486586"><ele>394.40000000000003</ele><time>2026-04-23T10:19:37.851Z</time></trkpt><trkpt lat="43.4349957" lon="11.3487142"><ele>391.8</ele><time>2026-04-23T10:19:38.85Z</time></trkpt><trkpt lat="43.4350504" lon="11.3487921"><ele>389.2</ele><time>2026-04-23T10:19:39.85Z</time></trkpt><trkpt lat="43.435105" lon="11.3488438"><ele>386.6</ele><time>2026-04-23T10:19:40.856Z</time></trkpt><trkpt lat="43.435229" lon="11.3488508"><ele>384.0</ele><time>2026-04-23T10:19:42.852Z</time></trkpt><trkpt lat="43.4354386" lon="11.3487803"><ele>383.75</ele><time>2026-04-23T10:19:44.846Z</time></trkpt><trkpt lat="43.4355707" lon="11.348736"><ele>383.5</ele><time>2026-04-23T10:19:45.853Z</time></trkpt><trkpt lat="43.4357017" lon="11.3486843"><ele>383.25</ele><time>2026-04-23T10:19:46.851Z</time></trkpt><trkpt lat="43.4358263" lon="11.348648"><ele>383.0</ele><time>2026-04-23T10:19:47.858Z</time></trkpt><trkpt lat="43.4359402" lon="11.3486495"><ele>383.0</ele><time>2026-04-23T10:19:48.849Z</time></trkpt><trkpt lat="43.4360505" lon="11.3486918"><ele>383.0</ele><time>2026-04-23T10:19:49.855Z</time></trkpt><trkpt lat="43.4361659" lon="11.3487719"><ele>383.0</ele><time>2026-04-23T10:19:50.855Z</time></trkpt><trkpt lat="43.4362979" lon="11.3488776"><ele>383.0</ele><time>2026-04-23T10:19:51.856Z</time></trkpt><trkpt lat="43.4364338" lon="11.3490169"><ele>381.0</ele><time>2026-04-23T10:19:52.855Z</time></trkpt><trkpt lat="43.4365498" lon="11.3491463"><ele>379.0</ele><time>2026-04-23T10:19:53.863Z</time></trkpt><trkpt lat="43.4366381" lon="11.349258"><ele>377.0</ele><time>2026-04-23T10:19:54.853Z</time></trkpt><trkpt lat="43.4367114" lon="11.3493411"><ele>375.0</ele><time>2026-04-23T10:19:55.858Z</time></trkpt><trkpt lat="43.4367746" lon="11.349387"><ele>373.0</ele><time>2026-04-23T10:19:56.855Z</time></trkpt><trkpt lat="43.4369026" lon="11.3493644"><ele>373.0</ele><time>2026-04-23T10:19:58.848Z</time></trkpt><trkpt lat="43.4369855" lon="11.3493237"><ele>373.0</ele><time>2026-04-23T10:19:59.852Z</time></trkpt><trkpt lat="43.4370704" lon="11.3492775"><ele>373.0</ele><time>2026-04-23T10:20:00.85Z</time></trkpt><trkpt lat="43.4371398" lon="11.3492046"><ele>373.0</ele><time>2026-04-23T10:20:01.853Z</time></trkpt><trkpt lat="43.4371837" lon="11.3491082"><ele>373.0</ele><time>2026-04-23T10:20:02.851Z</time></trkpt><trkpt lat="43.4372141" lon="11.3489996"><ele>373.0</ele><time>2026-04-23T10:20:03.855Z</time></trkpt><trkpt lat="43.4372568" lon="11.3487084"><ele>374.0</ele><time>2026-04-23T10:20:05.853Z</time></trkpt><trkpt lat="43.4372911" lon="11.348536"><ele>375.0</ele><time>2026-04-23T10:20:06.854Z</time></trkpt><trkpt lat="43.437357" lon="11.3483883"><ele>376.0</ele><time>2026-04-23T10:20:07.847Z</time></trkpt><trkpt lat="43.4374605" lon="11.3482941"><ele>377.0</ele><time>2026-04-23T10:20:08.852Z</time></trkpt><trkpt lat="43.4375797" lon="11.3482548"><ele>377.0</ele><time>2026-04-23T10:20:09.855Z</time></trkpt><trkpt lat="43.4377001" lon="11.3482957"><ele>377.0</ele><time>2026-04-23T10:20:10.847Z</time></trkpt><trkpt lat="43.4378128" lon="11.348413"><ele>377.0</ele><time>2026-04-23T10:20:11.857Z</time></trkpt><trkpt lat="43.4379059" lon="11.3486147"><ele>377.0</ele><time>2026-04-23T10:20:12.85Z</time></trkpt><trkpt lat="43.4379625" lon="11.348862"><ele>379.33333333333337</ele><time>2026-04-23T10:20:13.848Z</time></trkpt><trkpt lat="43.4380082" lon="11.3491229"><ele>381.6666666666667</ele><time>2026-04-23T10:20:14.852Z</time></trkpt><trkpt lat="43.43807" lon="11.3493502"><ele>384.0</ele><time>2026-04-23T10:20:15.85Z</time></trkpt><trkpt lat="43.4381558" lon="11.3495382"><ele>384.0</ele><time>2026-04-23T10:20:16.861Z</time></trkpt><trkpt lat="43.4382566" lon="11.3496961"><ele>384.0</ele><time>2026-04-23T10:20:17.851Z</time></trkpt><trkpt lat="43.4383812" lon="11.3498177"><ele>384.0</ele><time>2026-04-23T10:20:18.856Z</time></trkpt><trkpt lat="43.4385311" lon="11.3499049"><ele>381.6666666666667</ele><time>2026-04-23T10:20:19.853Z</time></trkpt><trkpt lat="43.4386897" lon="11.3499746"><ele>379.33333333333337</ele><time>2026-04-23T10:20:20.85Z</time></trkpt><trkpt lat="43.4388429" lon="11.3500363"><ele>377.0</ele><time>2026-04-23T10:20:21.854Z</time></trkpt><trkpt lat="43.43899" lon="11.3500933"><ele>377.0</ele><time>2026-04-23T10:20:22.856Z</time></trkpt><trkpt lat="43.4391319" lon="11.3501446"><ele>377.0</ele><time>2026-04-23T10:20:23.85Z</time></trkpt><trkpt lat="43.439271" lon="11.3501965"><ele>377.0</ele><time>2026-04-23T10:20:24.847Z</time></trkpt><trkpt lat="43.4395547" lon="11.350302"><ele>376.75</ele><time>2026-04-23T10:20:26.854Z</time></trkpt><trkpt lat="43.4396907" lon="11.3503631"><ele>376.5</ele><time>2026-04-23T10:20:27.854Z</time></trkpt><trkpt lat="43.4398194" lon="11.3504366"><ele>376.25</ele><time>2026-04-23T10:20:28.844Z</time></trkpt><trkpt lat="43.439941" lon="11.3505249"><ele>376.0</ele><time>2026-04-23T10:20:29.846Z</time></trkpt><trkpt lat="43.440045" lon="11.3506262"><ele>375.4</ele><time>2026-04-23T10:20:30.854Z</time></trkpt><trkpt lat="43.4401283" lon="11.3507257"><ele>374.8</ele><time>2026-04-23T10:20:31.849Z</time></trkpt><trkpt lat="43.4401976" lon="11.3508274"><ele>374.2</ele><time>2026-04-23T10:20:32.86Z</time></trkpt><trkpt lat="43.4402589" lon="11.3509461"><ele>373.59999999999997</ele><time>2026-04-23T10:20:33.852Z</time></trkpt><trkpt lat="43.4403152" lon="11.3510804"><ele>373.0</ele><time>2026-04-23T10:20:34.857Z</time></trkpt><trkpt lat="43.4403615" lon="11.3512422"><ele>373.0</ele><time>2026-04-23T10:20:35.852Z</time></trkpt><trkpt lat="43.4404113" lon="11.3514106"><ele>373.0</ele><time>2026-04-23T10:20:36.846Z</time></trkpt><trkpt lat="43.4404688" lon="11.3515596"><ele>373.0</ele><time>2026-04-23T10:20:37.849Z</time></trkpt><trkpt lat="43.4405164" lon="11.35169"><ele>373.0</ele><time>2026-04-23T10:20:38.857Z</time></trkpt><trkpt lat="43.4405467" lon="11.3518145"><ele>373.0</ele><time>2026-04-23T10:20:39.844Z</time></trkpt><trkpt lat="43.4405729" lon="11.3519668"><ele>373.0</ele><time>2026-04-23T10:20:40.852Z</time></trkpt><trkpt lat="43.4406018" lon="11.3521545"><ele>373.0</ele><time>2026-04-23T10:20:41.854Z</time></trkpt><trkpt lat="43.4406276" lon="11.352393"><ele>373.0</ele><time>2026-04-23T10:20:42.851Z</time></trkpt><trkpt lat="43.4406668" lon="11.3526493"><ele>371.0</ele><time>2026-04-23T10:20:43.848Z</time></trkpt><trkpt lat="43.4407054" lon="11.3529156"><ele>369.0</ele><time>2026-04-23T10:20:44.846Z</time></trkpt><trkpt lat="43.4407361" lon="11.3531669"><ele>367.0</ele><time>2026-04-23T10:20:45.85Z</time></trkpt><trkpt lat="43.4407858" lon="11.3536088"><ele>365.5</ele><time>2026-04-23T10:20:47.859Z</time></trkpt><trkpt lat="43.4408001" lon="11.3538034"><ele>364.0</ele><time>2026-04-23T10:20:48.851Z</time></trkpt><trkpt lat="43.4408187" lon="11.3539872"><ele>362.5</ele><time>2026-04-23T10:20:49.852Z</time></trkpt><trkpt lat="43.4408427" lon="11.3541704"><ele>361.0</ele><time>2026-04-23T10:20:50.85Z</time></trkpt><trkpt lat="43.4408761" lon="11.3543515"><ele>359.5</ele><time>2026-04-23T10:20:51.85Z</time></trkpt><trkpt lat="43.4409173" lon="11.3545338"><ele>358.0</ele><time>2026-04-23T10:20:52.85Z</time></trkpt><trkpt lat="43.4409527" lon="11.3547155"><ele>356.5</ele><time>2026-04-23T10:20:53.846Z</time></trkpt><trkpt lat="43.4409849" lon="11.3548868"><ele>355.0</ele><time>2026-04-23T10:20:54.849Z</time></trkpt><trkpt lat="43.4410089" lon="11.3550388"><ele>354.6</ele><time>2026-04-23T10:20:55.85Z</time></trkpt><trkpt lat="43.4410225" lon="11.3551737"><ele>354.2</ele><time>2026-04-23T10:20:56.853Z</time></trkpt><trkpt lat="43.4410282" lon="11.3552853"><ele>353.79999999999995</ele><time>2026-04-23T10:20:57.851Z</time></trkpt><trkpt lat="43.4410295" lon="11.3553784"><ele>353.4</ele><time>2026-04-23T10:20:58.851Z</time></trkpt><trkpt lat="43.4410016" lon="11.3555385"><ele>353.0</ele><time>2026-04-23T10:21:00.855Z</time></trkpt><trkpt lat="43.440956" lon="11.3556649"><ele>352.75</ele><time>2026-04-23T10:21:02.856Z</time></trkpt><trkpt lat="43.4409603" lon="11.355793"><ele>352.5</ele><time>2026-04-23T10:21:04.856Z</time></trkpt><trkpt lat="43.4410411" lon="11.3558643"><ele>352.25</ele><time>2026-04-23T10:21:06.851Z</time></trkpt><trkpt lat="43.4412356" lon="11.3557998"><ele>352.0</ele><time>2026-04-23T10:21:09.853Z</time></trkpt><trkpt lat="43.4413032" lon="11.3557535"><ele>352.5</ele><time>2026-04-23T10:21:10.855Z</time></trkpt><trkpt lat="43.4413646" lon="11.3556912"><ele>353.0</ele><time>2026-04-23T10:21:11.854Z</time></trkpt><trkpt lat="43.4414202" lon="11.3556113"><ele>353.5</ele><time>2026-04-23T10:21:12.85Z</time></trkpt><trkpt lat="43.44147" lon="11.3555196"><ele>354.0</ele><time>2026-04-23T10:21:13.86Z</time></trkpt><trkpt lat="43.441517" lon="11.3554237"><ele>354.5</ele><time>2026-04-23T10:21:14.855Z</time></trkpt><trkpt lat="43.4415761" lon="11.355341"><ele>355.0</ele><time>2026-04-23T10:21:15.855Z</time></trkpt><trkpt lat="43.4416518" lon="11.3552913"><ele>355.0</ele><time>2026-04-23T10:21:16.851Z</time></trkpt><trkpt lat="43.4417395" lon="11.3552663"><ele>355.0</ele><time>2026-04-23T10:21:17.853Z</time></trkpt><trkpt lat="43.4418375" lon="11.3552592"><ele>355.0</ele><time>2026-04-23T10:21:18.849Z</time></trkpt><trkpt lat="43.4419443" lon="11.3552564"><ele>355.0</ele><time>2026-04-23T10:21:19.849Z</time></trkpt><trkpt lat="43.4420502" lon="11.3552611"><ele>355.0</ele><time>2026-04-23T10:21:20.853Z</time></trkpt><trkpt lat="43.442152" lon="11.3552528"><ele>350.25</ele><time>2026-04-23T10:21:21.854Z</time></trkpt><trkpt lat="43.4422443" lon="11.3552256"><ele>345.5</ele><time>2026-04-23T10:21:22.856Z</time></trkpt><trkpt lat="43.4423362" lon="11.355173"><ele>340.75</ele><time>2026-04-23T10:21:23.852Z</time></trkpt><trkpt lat="43.4424398" lon="11.3550945"><ele>336.0</ele><time>2026-04-23T10:21:24.854Z</time></trkpt><trkpt lat="43.4425554" lon="11.3549907"><ele>336.0</ele><time>2026-04-23T10:21:25.857Z</time></trkpt><trkpt lat="43.4426735" lon="11.3548771"><ele>336.0</ele><time>2026-04-23T10:21:26.849Z</time></trkpt><trkpt lat="43.4427846" lon="11.3547684"><ele>336.0</ele><time>2026-04-23T10:21:27.851Z</time></trkpt><trkpt lat="43.4430086" lon="11.3546192"><ele>335.5</ele><time>2026-04-23T10:21:29.849Z</time></trkpt><trkpt lat="43.4431257" lon="11.3545598"><ele>335.0</ele><time>2026-04-23T10:21:30.856Z</time></trkpt><trkpt lat="43.4432412" lon="11.3544983"><ele>334.5</ele><time>2026-04-23T10:21:31.855Z</time></trkpt><trkpt lat="43.4433579" lon="11.3544263"><ele>334.0</ele><time>2026-04-23T10:21:32.854Z</time></trkpt><trkpt lat="43.4434881" lon="11.3543379"><ele>334.0</ele><time>2026-04-23T10:21:33.851Z</time></trkpt><trkpt lat="43.4436463" lon="11.3542299"><ele>334.0</ele><time>2026-04-23T10:21:34.854Z</time></trkpt><trkpt lat="43.4438162" lon="11.3541192"><ele>334.0</ele><time>2026-04-23T10:21:35.845Z</time></trkpt><trkpt lat="43.4439736" lon="11.354021"><ele>335.75</ele><time>2026-04-23T10:21:36.848Z</time></trkpt><trkpt lat="43.4441044" lon="11.3539359"><ele>337.5</ele><time>2026-04-23T10:21:37.857Z</time></trkpt><trkpt lat="43.4442174" lon="11.3538741"><ele>339.25</ele><time>2026-04-23T10:21:38.847Z</time></trkpt><trkpt lat="43.4443255" lon="11.3538328"><ele>341.0</ele><time>2026-04-23T10:21:39.851Z</time></trkpt><trkpt lat="43.4444324" lon="11.3538067"><ele>341.0</ele><time>2026-04-23T10:21:40.849Z</time></trkpt><trkpt lat="43.4445465" lon="11.3537782"><ele>341.0</ele><time>2026-04-23T10:21:41.852Z</time></trkpt><trkpt lat="43.4446563" lon="11.353748"><ele>341.0</ele><time>2026-04-23T10:21:42.852Z</time></trkpt><trkpt lat="43.444752" lon="11.3537268"><ele>341.0</ele><time>2026-04-23T10:21:43.863Z</time></trkpt><trkpt lat="43.4448228" lon="11.3537272"><ele>341.0</ele><time>2026-04-23T10:21:44.845Z</time></trkpt><trkpt lat="43.4448909" lon="11.3537699"><ele>337.75</ele><time>2026-04-23T10:21:47.849Z</time></trkpt><trkpt lat="43.4449184" lon="11.3539449"><ele>334.5</ele><time>2026-04-23T10:21:50.848Z</time></trkpt><trkpt lat="43.4449203" lon="11.3541632"><ele>331.25</ele><time>2026-04-23T10:21:52.851Z</time></trkpt><trkpt lat="43.4449294" lon="11.3542577"><ele>328.0</ele><time>2026-04-23T10:21:53.847Z</time></trkpt><trkpt lat="43.4449671" lon="11.3544069"><ele>328.0</ele><time>2026-04-23T10:21:55.851Z</time></trkpt><trkpt lat="43.4450426" lon="11.3545509"><ele>328.0</ele><time>2026-04-23T10:21:57.853Z</time></trkpt><trkpt lat="43.4450884" lon="11.3546338"><ele>328.0</ele><time>2026-04-23T10:21:58.85Z</time></trkpt><trkpt lat="43.4451373" lon="11.3547212"><ele>328.0</ele><time>2026-04-23T10:21:59.855Z</time></trkpt><trkpt lat="43.4452018" lon="11.3548072"><ele>328.0</ele><time>2026-04-23T10:22:00.852Z</time></trkpt><trkpt lat="43.4452811" lon="11.3548904"><ele>327.59999999999997</ele><time>2026-04-23T10:22:01.847Z</time></trkpt><trkpt lat="43.4453631" lon="11.3549676"><ele>327.2</ele><time>2026-04-23T10:22:02.851Z</time></trkpt><trkpt lat="43.445456" lon="11.3550335"><ele>326.8</ele><time>2026-04-23T10:22:03.848Z</time></trkpt><trkpt lat="43.4455673" lon="11.3550951"><ele>326.4</ele><time>2026-04-23T10:22:04.856Z</time></trkpt><trkpt lat="43.445674" lon="11.3551508"><ele>326.0</ele><time>2026-04-23T10:22:05.849Z</time></trkpt><trkpt lat="43.4457754" lon="11.3551804"><ele>327.5</ele><time>2026-04-23T10:22:06.853Z</time></trkpt><trkpt lat="43.4458906" lon="11.3551839"><ele>329.0</ele><time>2026-04-23T10:22:07.852Z</time></trkpt><trkpt lat="43.4460274" lon="11.355185"><ele>330.5</ele><time>2026-04-23T10:22:08.852Z</time></trkpt><trkpt lat="43.446185" lon="11.3551906"><ele>332.0</ele><time>2026-04-23T10:22:09.844Z</time></trkpt><trkpt lat="43.4463507" lon="11.3551979"><ele>333.6666666666667</ele><time>2026-04-23T10:22:10.849Z</time></trkpt><trkpt lat="43.446504" lon="11.355218"><ele>335.3333333333333</ele><time>2026-04-23T10:22:11.85Z</time></trkpt><trkpt lat="43.4467911" lon="11.3552729"><ele>337.0</ele><time>2026-04-23T10:22:13.858Z</time></trkpt><trkpt lat="43.4469343" lon="11.3553045"><ele>337.0</ele><time>2026-04-23T10:22:14.848Z</time></trkpt><trkpt lat="43.4470788" lon="11.3553434"><ele>337.0</ele><time>2026-04-23T10:22:15.849Z</time></trkpt><trkpt lat="43.447222" lon="11.3553771"><ele>337.0</ele><time>2026-04-23T10:22:16.854Z</time></trkpt><trkpt lat="43.4473655" lon="11.3554111"><ele>337.0</ele><time>2026-04-23T10:22:17.849Z</time></trkpt><trkpt lat="43.4475101" lon="11.355456"><ele>336.66666666666663</ele><time>2026-04-23T10:22:18.849Z</time></trkpt><trkpt lat="43.4476627" lon="11.3555248"><ele>336.3333333333333</ele><time>2026-04-23T10:22:19.845Z</time></trkpt><trkpt lat="43.4478292" lon="11.3556196"><ele>336.0</ele><time>2026-04-23T10:22:20.849Z</time></trkpt><trkpt lat="43.4480096" lon="11.3557364"><ele>336.0</ele><time>2026-04-23T10:22:21.844Z</time></trkpt><trkpt lat="43.4482064" lon="11.3558626"><ele>336.0</ele><time>2026-04-23T10:22:22.853Z</time></trkpt><trkpt lat="43.4484034" lon="11.355985"><ele>336.0</ele><time>2026-04-23T10:22:23.846Z</time></trkpt><trkpt lat="43.4485882" lon="11.3561039"><ele>336.0</ele><time>2026-04-23T10:22:24.849Z</time></trkpt><trkpt lat="43.4487517" lon="11.3561984"><ele>336.0</ele><time>2026-04-23T10:22:25.852Z</time></trkpt><trkpt lat="43.4489005" lon="11.3562899"><ele>336.0</ele><time>2026-04-23T10:22:26.852Z</time></trkpt><trkpt lat="43.4490337" lon="11.3563954"><ele>335.20000000000005</ele><time>2026-04-23T10:22:27.853Z</time></trkpt><trkpt lat="43.4491468" lon="11.3565045"><ele>334.40000000000003</ele><time>2026-04-23T10:22:28.843Z</time></trkpt><trkpt lat="43.4492373" lon="11.3565997"><ele>333.6</ele><time>2026-04-23T10:22:29.847Z</time></trkpt><trkpt lat="43.449315" lon="11.3566614"><ele>332.8</ele><time>2026-04-23T10:22:30.852Z</time></trkpt><trkpt lat="43.4493977" lon="11.3566829"><ele>332.0</ele><time>2026-04-23T10:22:31.851Z</time></trkpt><trkpt lat="43.4495035" lon="11.3566774"><ele>334.6666666666667</ele><time>2026-04-23T10:22:32.851Z</time></trkpt><trkpt lat="43.4497453" lon="11.3566854"><ele>337.3333333333333</ele><time>2026-04-23T10:22:34.85Z</time></trkpt><trkpt lat="43.449867" lon="11.3566915"><ele>340.0</ele><time>2026-04-23T10:22:35.85Z</time></trkpt><trkpt lat="43.4499817" lon="11.3566843"><ele>340.0</ele><time>2026-04-23T10:22:36.844Z</time></trkpt><trkpt lat="43.4500813" lon="11.3566621"><ele>340.0</ele><time>2026-04-23T10:22:37.852Z</time></trkpt><trkpt lat="43.4501789" lon="11.3566133"><ele>340.0</ele><time>2026-04-23T10:22:38.845Z</time></trkpt><trkpt lat="43.4502792" lon="11.3565427"><ele>340.0</ele><time>2026-04-23T10:22:39.85Z</time></trkpt><trkpt lat="43.450385" lon="11.3564458"><ele>340.0</ele><time>2026-04-23T10:22:40.854Z</time></trkpt><trkpt lat="43.4504877" lon="11.3563336"><ele>341.75</ele><time>2026-04-23T10:22:41.857Z</time></trkpt><trkpt lat="43.4505878" lon="11.3562176"><ele>343.5</ele><time>2026-04-23T10:22:42.856Z</time></trkpt><trkpt lat="43.4506845" lon="11.356105"><ele>345.25</ele><time>2026-04-23T10:22:43.853Z</time></trkpt><trkpt lat="43.450778" lon="11.3559948"><ele>347.0</ele><time>2026-04-23T10:22:44.853Z</time></trkpt><trkpt lat="43.4508765" lon="11.355874"><ele>347.0</ele><time>2026-04-23T10:22:45.852Z</time></trkpt><trkpt lat="43.45098" lon="11.3557442"><ele>347.0</ele><time>2026-04-23T10:22:46.851Z</time></trkpt><trkpt lat="43.4510866" lon="11.3556182"><ele>347.0</ele><time>2026-04-23T10:22:47.856Z</time></trkpt><trkpt lat="43.4511975" lon="11.3555133"><ele>347.0</ele><time>2026-04-23T10:22:48.845Z</time></trkpt><trkpt lat="43.4513148" lon="11.3554322"><ele>347.5</ele><time>2026-04-23T10:22:49.85Z</time></trkpt><trkpt lat="43.4514385" lon="11.3553669"><ele>348.0</ele><time>2026-04-23T10:22:50.856Z</time></trkpt><trkpt lat="43.4515593" lon="11.3553057"><ele>348.5</ele><time>2026-04-23T10:22:51.852Z</time></trkpt><trkpt lat="43.4516734" lon="11.3552552"><ele>349.0</ele><time>2026-04-23T10:22:52.856Z</time></trkpt><trkpt lat="43.4517939" lon="11.3552287"><ele>349.0</ele><time>2026-04-23T10:22:53.848Z</time></trkpt><trkpt lat="43.4520527" lon="11.3552023"><ele>349.0</ele><time>2026-04-23T10:22:55.85Z</time></trkpt><trkpt lat="43.4521776" lon="11.3551723"><ele>349.0</ele><time>2026-04-23T10:22:56.855Z</time></trkpt><trkpt lat="43.4523002" lon="11.3551281"><ele>347.25</ele><time>2026-04-23T10:22:57.855Z</time></trkpt><trkpt lat="43.4524225" lon="11.3550707"><ele>345.5</ele><time>2026-04-23T10:22:58.847Z</time></trkpt><trkpt lat="43.4525511" lon="11.3550054"><ele>343.75</ele><time>2026-04-23T10:22:59.85Z</time></trkpt><trkpt lat="43.4526828" lon="11.3549288"><ele>342.0</ele><time>2026-04-23T10:23:00.849Z</time></trkpt><trkpt lat="43.4528176" lon="11.354845"><ele>342.0</ele><time>2026-04-23T10:23:01.852Z</time></trkpt><trkpt lat="43.4529521" lon="11.3547554"><ele>342.0</ele><time>2026-04-23T10:23:02.847Z</time></trkpt><trkpt lat="43.4530897" lon="11.3546695"><ele>342.0</ele><time>2026-04-23T10:23:03.848Z</time></trkpt><trkpt lat="43.4532274" lon="11.3545892"><ele>342.5</ele><time>2026-04-23T10:23:04.847Z</time></trkpt><trkpt lat="43.4533688" lon="11.3545163"><ele>343.0</ele><time>2026-04-23T10:23:05.85Z</time></trkpt><trkpt lat="43.4535101" lon="11.3544483"><ele>343.5</ele><time>2026-04-23T10:23:06.848Z</time></trkpt><trkpt lat="43.4536504" lon="11.35438"><ele>344.0</ele><time>2026-04-23T10:23:07.847Z</time></trkpt><trkpt lat="43.4537859" lon="11.3543116"><ele>342.0</ele><time>2026-04-23T10:23:08.846Z</time></trkpt><trkpt lat="43.4539071" lon="11.3542493"><ele>340.0</ele><time>2026-04-23T10:23:09.852Z</time></trkpt><trkpt lat="43.4539958" lon="11.3542061"><ele>338.0</ele><time>2026-04-23T10:23:10.854Z</time></trkpt><trkpt lat="43.4540918" lon="11.3542125"><ele>336.0</ele><time>2026-04-23T10:23:12.851Z</time></trkpt><trkpt lat="43.4542062" lon="11.3543158"><ele>336.0</ele><time>2026-04-23T10:23:14.848Z</time></trkpt><trkpt lat="43.4543957" lon="11.354363"><ele>336.0</ele><time>2026-04-23T10:23:16.845Z</time></trkpt><trkpt lat="43.454492" lon="11.3543231"><ele>336.0</ele><time>2026-04-23T10:23:17.849Z</time></trkpt><trkpt lat="43.4545992" lon="11.3542466"><ele>336.0</ele><time>2026-04-23T10:23:18.851Z</time></trkpt><trkpt lat="43.4547297" lon="11.3541332"><ele>338.3333333333333</ele><time>2026-04-23T10:23:19.844Z</time></trkpt><trkpt lat="43.4548729" lon="11.354021"><ele>340.66666666666663</ele><time>2026-04-23T10:23:20.85Z</time></trkpt><trkpt lat="43.4550265" lon="11.3539354"><ele>343.0</ele><time>2026-04-23T10:23:21.862Z</time></trkpt><trkpt lat="43.4551894" lon="11.3538791"><ele>343.4</ele><time>2026-04-23T10:23:22.848Z</time></trkpt><trkpt lat="43.4553292" lon="11.3538511"><ele>343.79999999999995</ele><time>2026-04-23T10:23:23.853Z</time></trkpt><trkpt lat="43.4554319" lon="11.3538414"><ele>344.2</ele><time>2026-04-23T10:23:24.849Z</time></trkpt><trkpt lat="43.4555228" lon="11.3538516"><ele>344.6</ele><time>2026-04-23T10:23:25.85Z</time></trkpt><trkpt lat="43.4556265" lon="11.3538868"><ele>345.0</ele><time>2026-04-23T10:23:26.856Z</time></trkpt><trkpt lat="43.4557572" lon="11.3539554"><ele>345.0</ele><time>2026-04-23T10:23:27.851Z</time></trkpt><trkpt lat="43.4558953" lon="11.3540401"><ele>345.0</ele><time>2026-04-23T10:23:28.852Z</time></trkpt><trkpt lat="43.4560291" lon="11.3541089"><ele>345.0</ele><time>2026-04-23T10:23:29.846Z</time></trkpt><trkpt lat="43.4561639" lon="11.3541468"><ele>345.0</ele><time>2026-04-23T10:23:30.846Z</time></trkpt><trkpt lat="43.456307" lon="11.3541648"><ele>345.3333333333333</ele><time>2026-04-23T10:23:31.848Z</time></trkpt><trkpt lat="43.4564664" lon="11.354178"><ele>345.66666666666663</ele><time>2026-04-23T10:23:32.845Z</time></trkpt><trkpt lat="43.4566375" lon="11.3541989"><ele>346.0</ele><time>2026-04-23T10:23:33.847Z</time></trkpt><trkpt lat="43.4568012" lon="11.3542233"><ele>346.0</ele><time>2026-04-23T10:23:34.844Z</time></trkpt><trkpt lat="43.4569521" lon="11.3542517"><ele>346.0</ele><time>2026-04-23T10:23:35.842Z</time></trkpt><trkpt lat="43.4572001" lon="11.3543158"><ele>346.0</ele><time>2026-04-23T10:23:37.85Z</time></trkpt><trkpt lat="43.4573002" lon="11.354369"><ele>347.8</ele><time>2026-04-23T10:23:38.847Z</time></trkpt><trkpt lat="43.4573979" lon="11.3544428"><ele>349.6</ele><time>2026-04-23T10:23:39.847Z</time></trkpt><trkpt lat="43.4574935" lon="11.3545191"><ele>351.4</ele><time>2026-04-23T10:23:40.851Z</time></trkpt><trkpt lat="43.4575944" lon="11.3545789"><ele>353.2</ele><time>2026-04-23T10:23:41.851Z</time></trkpt><trkpt lat="43.4576929" lon="11.3546212"><ele>355.0</ele><time>2026-04-23T10:23:42.847Z</time></trkpt><trkpt lat="43.4577956" lon="11.3546452"><ele>355.0</ele><time>2026-04-23T10:23:43.851Z</time></trkpt><trkpt lat="43.4579091" lon="11.3546634"><ele>355.0</ele><time>2026-04-23T10:23:44.846Z</time></trkpt><trkpt lat="43.4580256" lon="11.3546927"><ele>355.0</ele><time>2026-04-23T10:23:45.851Z</time></trkpt><trkpt lat="43.4581387" lon="11.3547398"><ele>355.0</ele><time>2026-04-23T10:23:46.85Z</time></trkpt><trkpt lat="43.4582459" lon="11.3548148"><ele>354.0</ele><time>2026-04-23T10:23:47.843Z</time></trkpt><trkpt lat="43.4583421" lon="11.3549267"><ele>353.0</ele><time>2026-04-23T10:23:48.85Z</time></trkpt><trkpt lat="43.4584276" lon="11.3550308"><ele>352.0</ele><time>2026-04-23T10:23:49.847Z</time></trkpt><trkpt lat="43.4585097" lon="11.355111"><ele>351.0</ele><time>2026-04-23T10:23:50.847Z</time></trkpt><trkpt lat="43.4585874" lon="11.3551776"><ele>350.0</ele><time>2026-04-23T10:23:51.849Z</time></trkpt><trkpt lat="43.4586665" lon="11.3552381"><ele>350.0</ele><time>2026-04-23T10:23:52.854Z</time></trkpt><trkpt lat="43.4587577" lon="11.3553002"><ele>350.0</ele><time>2026-04-23T10:23:53.854Z</time></trkpt><trkpt lat="43.4588561" lon="11.3553663"><ele>350.0</ele><time>2026-04-23T10:23:54.844Z</time></trkpt><trkpt lat="43.4589543" lon="11.3554208"><ele>350.0</ele><time>2026-04-23T10:23:55.845Z</time></trkpt><trkpt lat="43.4590544" lon="11.3554577"><ele>350.0</ele><time>2026-04-23T10:23:56.851Z</time></trkpt><trkpt lat="43.4592863" lon="11.3555004"><ele>349.75</ele><time>2026-04-23T10:23:58.853Z</time></trkpt><trkpt lat="43.4594219" lon="11.3555217"><ele>349.5</ele><time>2026-04-23T10:23:59.853Z</time></trkpt><trkpt lat="43.4595558" lon="11.3555466"><ele>349.25</ele><time>2026-04-23T10:24:00.846Z</time></trkpt><trkpt lat="43.4596813" lon="11.3555641"><ele>349.0</ele><time>2026-04-23T10:24:01.852Z</time></trkpt><trkpt lat="43.4597927" lon="11.3555734"><ele>349.4</ele><time>2026-04-23T10:24:02.849Z</time></trkpt><trkpt lat="43.4598966" lon="11.3555654"><ele>349.79999999999995</ele><time>2026-04-23T10:24:03.858Z</time></trkpt><trkpt lat="43.4600004" lon="11.3555343"><ele>350.20000000000005</ele><time>2026-04-23T10:24:04.841Z</time></trkpt><trkpt lat="43.4601102" lon="11.3554907"><ele>350.6</ele><time>2026-04-23T10:24:05.851Z</time></trkpt><trkpt lat="43.4602262" lon="11.3554646"><ele>351.0</ele><time>2026-04-23T10:24:06.852Z</time></trkpt><trkpt lat="43.4603449" lon="11.3554722"><ele>351.75</ele><time>2026-04-23T10:24:07.846Z</time></trkpt><trkpt lat="43.4604707" lon="11.3555102"><ele>352.5</ele><time>2026-04-23T10:24:08.853Z</time></trkpt><trkpt lat="43.4605974" lon="11.3555625"><ele>353.25</ele><time>2026-04-23T10:24:09.852Z</time></trkpt><trkpt lat="43.460718" lon="11.355601"><ele>354.0</ele><time>2026-04-23T10:24:10.851Z</time></trkpt><trkpt lat="43.4608358" lon="11.3556172"><ele>354.0</ele><time>2026-04-23T10:24:11.854Z</time></trkpt><trkpt lat="43.4609458" lon="11.3556106"><ele>354.0</ele><time>2026-04-23T10:24:12.85Z</time></trkpt><trkpt lat="43.4610499" lon="11.3555816"><ele>354.0</ele><time>2026-04-23T10:24:13.857Z</time></trkpt><trkpt lat="43.4611574" lon="11.355541"><ele>354.0</ele><time>2026-04-23T10:24:14.847Z</time></trkpt><trkpt lat="43.4612658" lon="11.3555106"><ele>354.0</ele><time>2026-04-23T10:24:15.843Z</time></trkpt><trkpt lat="43.4613734" lon="11.3554999"><ele>354.6666666666667</ele><time>2026-04-23T10:24:16.844Z</time></trkpt><trkpt lat="43.4614768" lon="11.3555148"><ele>355.33333333333337</ele><time>2026-04-23T10:24:17.849Z</time></trkpt><trkpt lat="43.4616859" lon="11.3556353"><ele>356.0</ele><time>2026-04-23T10:24:19.848Z</time></trkpt><trkpt lat="43.4618038" lon="11.3557373"><ele>356.0</ele><time>2026-04-23T10:24:20.851Z</time></trkpt><trkpt lat="43.4619306" lon="11.3558501"><ele>356.0</ele><time>2026-04-23T10:24:21.845Z</time></trkpt><trkpt lat="43.4620534" lon="11.3559692"><ele>356.0</ele><time>2026-04-23T10:24:22.848Z</time></trkpt><trkpt lat="43.4621765" lon="11.3561054"><ele>355.75</ele><time>2026-04-23T10:24:23.85Z</time></trkpt><trkpt lat="43.4622985" lon="11.3562357"><ele>355.5</ele><time>2026-04-23T10:24:24.847Z</time></trkpt><trkpt lat="43.4624191" lon="11.3563531"><ele>355.25</ele><time>2026-04-23T10:24:25.848Z</time></trkpt><trkpt lat="43.4625375" lon="11.3564606"><ele>355.0</ele><time>2026-04-23T10:24:26.854Z</time></trkpt><trkpt lat="43.4626538" lon="11.3565604"><ele>355.0</ele><time>2026-04-23T10:24:27.844Z</time></trkpt><trkpt lat="43.4627633" lon="11.3566564"><ele>355.0</ele><time>2026-04-23T10:24:28.851Z</time></trkpt><trkpt lat="43.4628646" lon="11.3567505"><ele>355.0</ele><time>2026-04-23T10:24:29.844Z</time></trkpt><trkpt lat="43.4629545" lon="11.3568395"><ele>355.0</ele><time>2026-04-23T10:24:30.843Z</time></trkpt><trkpt lat="43.4630296" lon="11.3569167"><ele>357.16666666666663</ele><time>2026-04-23T10:24:31.845Z</time></trkpt><trkpt lat="43.4631044" lon="11.3569727"><ele>359.3333333333333</ele><time>2026-04-23T10:24:32.844Z</time></trkpt><trkpt lat="43.4631763" lon="11.3570007"><ele>361.5</ele><time>2026-04-23T10:24:33.851Z</time></trkpt><trkpt lat="43.4632629" lon="11.3570047"><ele>363.6666666666667</ele><time>2026-04-23T10:24:34.845Z</time></trkpt><trkpt lat="43.4633555" lon="11.3569939"><ele>365.83333333333337</ele><time>2026-04-23T10:24:35.85Z</time></trkpt><trkpt lat="43.4634475" lon="11.3569872"><ele>368.0</ele><time>2026-04-23T10:24:36.843Z</time></trkpt><trkpt lat="43.4635461" lon="11.3570037"><ele>368.0</ele><time>2026-04-23T10:24:37.852Z</time></trkpt><trkpt lat="43.4636472" lon="11.3570284"><ele>368.0</ele><time>2026-04-23T10:24:38.847Z</time></trkpt><trkpt lat="43.4638547" lon="11.3570781"><ele>368.0</ele><time>2026-04-23T10:24:40.847Z</time></trkpt><trkpt lat="43.4639575" lon="11.357114"><ele>368.0</ele><time>2026-04-23T10:24:41.847Z</time></trkpt><trkpt lat="43.4640597" lon="11.3571766"><ele>367.0</ele><time>2026-04-23T10:24:42.846Z</time></trkpt><trkpt lat="43.4641669" lon="11.3572702"><ele>366.0</ele><time>2026-04-23T10:24:43.848Z</time></trkpt><trkpt lat="43.4642694" lon="11.3573639"><ele>365.0</ele><time>2026-04-23T10:24:44.849Z</time></trkpt><trkpt lat="43.4643678" lon="11.3574554"><ele>364.0</ele><time>2026-04-23T10:24:45.854Z</time></trkpt><trkpt lat="43.4644576" lon="11.3575589"><ele>364.0</ele><time>2026-04-23T10:24:46.848Z</time></trkpt><trkpt lat="43.4645427" lon="11.3576847"><ele>364.0</ele><time>2026-04-23T10:24:47.847Z</time></trkpt><trkpt lat="43.4646191" lon="11.3578241"><ele>364.0</ele><time>2026-04-23T10:24:48.848Z</time></trkpt><trkpt lat="43.4646879" lon="11.3579774"><ele>364.0</ele><time>2026-04-23T10:24:49.843Z</time></trkpt><trkpt lat="43.4647431" lon="11.3581357"><ele>365.25</ele><time>2026-04-23T10:24:50.851Z</time></trkpt><trkpt lat="43.4647909" lon="11.3582999"><ele>366.5</ele><time>2026-04-23T10:24:51.844Z</time></trkpt><trkpt lat="43.4648314" lon="11.3584679"><ele>367.75</ele><time>2026-04-23T10:24:52.846Z</time></trkpt><trkpt lat="43.4648695" lon="11.3586408"><ele>369.0</ele><time>2026-04-23T10:24:53.856Z</time></trkpt><trkpt lat="43.464899" lon="11.3588154"><ele>368.0</ele><time>2026-04-23T10:24:54.852Z</time></trkpt><trkpt lat="43.4649213" lon="11.3589901"><ele>367.0</ele><time>2026-04-23T10:24:55.85Z</time></trkpt><trkpt lat="43.4649393" lon="11.3591591"><ele>366.0</ele><time>2026-04-23T10:24:56.851Z</time></trkpt><trkpt lat="43.4649601" lon="11.3593207"><ele>365.0</ele><time>2026-04-23T10:24:57.845Z</time></trkpt><trkpt lat="43.4649932" lon="11.3594731"><ele>365.0</ele><time>2026-04-23T10:24:58.854Z</time></trkpt><trkpt lat="43.4650408" lon="11.3596172"><ele>365.0</ele><time>2026-04-23T10:24:59.847Z</time></trkpt><trkpt lat="43.4651529" lon="11.3598911"><ele>365.0</ele><time>2026-04-23T10:25:01.846Z</time></trkpt><trkpt lat="43.465217" lon="11.3600095"><ele>364.6</ele><time>2026-04-23T10:25:02.847Z</time></trkpt><trkpt lat="43.4652913" lon="11.3601114"><ele>364.2</ele><time>2026-04-23T10:25:03.853Z</time></trkpt><trkpt lat="43.4653732" lon="11.3602074"><ele>363.79999999999995</ele><time>2026-04-23T10:25:04.846Z</time></trkpt><trkpt lat="43.4654516" lon="11.3603091"><ele>363.4</ele><time>2026-04-23T10:25:05.842Z</time></trkpt><trkpt lat="43.4655239" lon="11.3604358"><ele>363.0</ele><time>2026-04-23T10:25:06.849Z</time></trkpt><trkpt lat="43.4655896" lon="11.3605746"><ele>364.75</ele><time>2026-04-23T10:25:07.848Z</time></trkpt><trkpt lat="43.4656555" lon="11.3607154"><ele>366.5</ele><time>2026-04-23T10:25:08.848Z</time></trkpt><trkpt lat="43.4657306" lon="11.3608387"><ele>368.25</ele><time>2026-04-23T10:25:09.849Z</time></trkpt><trkpt lat="43.465814" lon="11.3609374"><ele>370.0</ele><time>2026-04-23T10:25:10.854Z</time></trkpt><trkpt lat="43.4659062" lon="11.3610152"><ele>370.0</ele><time>2026-04-23T10:25:11.845Z</time></trkpt><trkpt lat="43.4660029" lon="11.3610799"><ele>370.0</ele><time>2026-04-23T10:25:12.849Z</time></trkpt><trkpt lat="43.4660865" lon="11.3611518"><ele>370.0</ele><time>2026-04-23T10:25:13.853Z</time></trkpt><trkpt lat="43.4661502" lon="11.361253"><ele>370.0</ele><time>2026-04-23T10:25:14.852Z</time></trkpt><trkpt lat="43.4661983" lon="11.361387"><ele>370.0</ele><time>2026-04-23T10:25:15.855Z</time></trkpt><trkpt lat="43.4662362" lon="11.3615445"><ele>369.75</ele><time>2026-04-23T10:25:16.85Z</time></trkpt><trkpt lat="43.4662727" lon="11.3617105"><ele>369.5</ele><time>2026-04-23T10:25:17.851Z</time></trkpt><trkpt lat="43.4663126" lon="11.3618814"><ele>369.25</ele><time>2026-04-23T10:25:18.846Z</time></trkpt><trkpt lat="43.4663566" lon="11.3620491"><ele>369.0</ele><time>2026-04-23T10:25:19.847Z</time></trkpt><trkpt lat="43.4664136" lon="11.3622099"><ele>369.0</ele><time>2026-04-23T10:25:20.847Z</time></trkpt><trkpt lat="43.4665504" lon="11.3625081"><ele>369.0</ele><time>2026-04-23T10:25:22.853Z</time></trkpt><trkpt lat="43.4666262" lon="11.3626344"><ele>369.0</ele><time>2026-04-23T10:25:23.851Z</time></trkpt><trkpt lat="43.4667058" lon="11.3627427"><ele>369.0</ele><time>2026-04-23T10:25:24.855Z</time></trkpt><trkpt lat="43.4667758" lon="11.3628419"><ele>369.0</ele><time>2026-04-23T10:25:25.847Z</time></trkpt><trkpt lat="43.4668268" lon="11.362947"><ele>369.0</ele><time>2026-04-23T10:25:26.853Z</time></trkpt><trkpt lat="43.4668536" lon="11.3630619"><ele>369.0</ele><time>2026-04-23T10:25:27.854Z</time></trkpt><trkpt lat="43.4668531" lon="11.363189"><ele>369.0</ele><time>2026-04-23T10:25:28.851Z</time></trkpt><trkpt lat="43.4668274" lon="11.3633372"><ele>369.0</ele><time>2026-04-23T10:25:29.851Z</time></trkpt><trkpt lat="43.4667873" lon="11.3634985"><ele>369.0</ele><time>2026-04-23T10:25:30.85Z</time></trkpt><trkpt lat="43.4667382" lon="11.3636938"><ele>369.0</ele><time>2026-04-23T10:25:31.849Z</time></trkpt><trkpt lat="43.4666814" lon="11.3639222"><ele>369.0</ele><time>2026-04-23T10:25:32.847Z</time></trkpt><trkpt lat="43.4666191" lon="11.3641564"><ele>369.0</ele><time>2026-04-23T10:25:33.854Z</time></trkpt><trkpt lat="43.4665658" lon="11.364367"><ele>369.0</ele><time>2026-04-23T10:25:34.854Z</time></trkpt><trkpt lat="43.4665145" lon="11.3645732"><ele>369.0</ele><time>2026-04-23T10:25:35.857Z</time></trkpt><trkpt lat="43.4664685" lon="11.3647713"><ele>369.25</ele><time>2026-04-23T10:25:36.855Z</time></trkpt><trkpt lat="43.4664272" lon="11.3649635"><ele>369.5</ele><time>2026-04-23T10:25:37.848Z</time></trkpt><trkpt lat="43.4663875" lon="11.3651548"><ele>369.75</ele><time>2026-04-23T10:25:38.858Z</time></trkpt><trkpt lat="43.4663473" lon="11.3653421"><ele>370.0</ele><time>2026-04-23T10:25:39.856Z</time></trkpt><trkpt lat="43.4663061" lon="11.3655271"><ele>369.3333333333333</ele><time>2026-04-23T10:25:40.858Z</time></trkpt><trkpt lat="43.4662663" lon="11.3657103"><ele>368.6666666666667</ele><time>2026-04-23T10:25:41.852Z</time></trkpt><trkpt lat="43.4661861" lon="11.3660744"><ele>368.0</ele><time>2026-04-23T10:25:43.856Z</time></trkpt><trkpt lat="43.4661467" lon="11.3662527"><ele>368.25</ele><time>2026-04-23T10:25:44.858Z</time></trkpt><trkpt lat="43.4661112" lon="11.3664298"><ele>368.5</ele><time>2026-04-23T10:25:45.853Z</time></trkpt><trkpt lat="43.4660751" lon="11.3666075"><ele>368.75</ele><time>2026-04-23T10:25:46.854Z</time></trkpt><trkpt lat="43.4660388" lon="11.36679"><ele>369.0</ele><time>2026-04-23T10:25:47.854Z</time></trkpt><trkpt lat="43.4660014" lon="11.3669751"><ele>369.0</ele><time>2026-04-23T10:25:48.851Z</time></trkpt><trkpt lat="43.4659605" lon="11.3671629"><ele>369.0</ele><time>2026-04-23T10:25:49.85Z</time></trkpt><trkpt lat="43.4659183" lon="11.367353"><ele>369.0</ele><time>2026-04-23T10:25:50.854Z</time></trkpt><trkpt lat="43.465877" lon="11.3675418"><ele>369.0</ele><time>2026-04-23T10:25:51.851Z</time></trkpt><trkpt lat="43.4658383" lon="11.367722"><ele>369.5</ele><time>2026-04-23T10:25:52.854Z</time></trkpt><trkpt lat="43.4658043" lon="11.3678946"><ele>370.0</ele><time>2026-04-23T10:25:53.857Z</time></trkpt><trkpt lat="43.4657714" lon="11.3680641"><ele>370.5</ele><time>2026-04-23T10:25:54.853Z</time></trkpt><trkpt lat="43.4657448" lon="11.3682307"><ele>371.0</ele><time>2026-04-23T10:25:55.853Z</time></trkpt><trkpt lat="43.4657299" lon="11.3683975"><ele>371.75</ele><time>2026-04-23T10:25:56.851Z</time></trkpt><trkpt lat="43.4657301" lon="11.368567"><ele>372.5</ele><time>2026-04-23T10:25:57.852Z</time></trkpt><trkpt lat="43.4657475" lon="11.3687357"><ele>373.25</ele><time>2026-04-23T10:25:58.854Z</time></trkpt><trkpt lat="43.4657811" lon="11.3689082"><ele>374.0</ele><time>2026-04-23T10:25:59.85Z</time></trkpt><trkpt lat="43.4658234" lon="11.3690865"><ele>374.0</ele><time>2026-04-23T10:26:00.85Z</time></trkpt><trkpt lat="43.4658717" lon="11.3692714"><ele>374.0</ele><time>2026-04-23T10:26:01.857Z</time></trkpt><trkpt lat="43.4659262" lon="11.3694613"><ele>374.0</ele><time>2026-04-23T10:26:02.858Z</time></trkpt><trkpt lat="43.4660477" lon="11.3698486"><ele>374.6666666666667</ele><time>2026-04-23T10:26:04.855Z</time></trkpt><trkpt lat="43.4661197" lon="11.37004"><ele>375.3333333333333</ele><time>2026-04-23T10:26:05.852Z</time></trkpt><trkpt lat="43.4661987" lon="11.3702221"><ele>376.0</ele><time>2026-04-23T10:26:06.853Z</time></trkpt><trkpt lat="43.4662838" lon="11.3703916"><ele>376.75</ele><time>2026-04-23T10:26:07.852Z</time></trkpt><trkpt lat="43.4663707" lon="11.3705529"><ele>377.5</ele><time>2026-04-23T10:26:08.856Z</time></trkpt><trkpt lat="43.4664599" lon="11.3707066"><ele>378.25</ele><time>2026-04-23T10:26:09.857Z</time></trkpt><trkpt lat="43.4665454" lon="11.3708461"><ele>379.0</ele><time>2026-04-23T10:26:10.859Z</time></trkpt><trkpt lat="43.4666262" lon="11.370973"><ele>379.0</ele><time>2026-04-23T10:26:11.852Z</time></trkpt><trkpt lat="43.4667082" lon="11.3710869"><ele>379.0</ele><time>2026-04-23T10:26:12.845Z</time></trkpt><trkpt lat="43.46679" lon="11.3711828"><ele>379.0</ele><time>2026-04-23T10:26:13.854Z</time></trkpt><trkpt lat="43.4668752" lon="11.3712568"><ele>379.0</ele><time>2026-04-23T10:26:14.846Z</time></trkpt><trkpt lat="43.4669717" lon="11.3713176"><ele>379.0</ele><time>2026-04-23T10:26:15.855Z</time></trkpt><trkpt lat="43.467077" lon="11.3713707"><ele>379.25</ele><time>2026-04-23T10:26:16.848Z</time></trkpt><trkpt lat="43.4671924" lon="11.3714423"><ele>379.5</ele><time>2026-04-23T10:26:17.851Z</time></trkpt><trkpt lat="43.4673104" lon="11.3715452"><ele>379.75</ele><time>2026-04-23T10:26:18.847Z</time></trkpt><trkpt lat="43.4674114" lon="11.3716676"><ele>380.0</ele><time>2026-04-23T10:26:19.853Z</time></trkpt><trkpt lat="43.4674911" lon="11.3717832"><ele>380.0</ele><time>2026-04-23T10:26:20.856Z</time></trkpt><trkpt lat="43.4675614" lon="11.3719242"><ele>380.0</ele><time>2026-04-23T10:26:21.85Z</time></trkpt><trkpt lat="43.4676362" lon="11.3721109"><ele>380.0</ele><time>2026-04-23T10:26:22.85Z</time></trkpt><trkpt lat="43.4677089" lon="11.3723161"><ele>380.0</ele><time>2026-04-23T10:26:23.845Z</time></trkpt><trkpt lat="43.4678182" lon="11.3726851"><ele>379.5</ele><time>2026-04-23T10:26:25.853Z</time></trkpt><trkpt lat="43.4678448" lon="11.3728429"><ele>379.0</ele><time>2026-04-23T10:26:26.852Z</time></trkpt><trkpt lat="43.4678549" lon="11.3729801"><ele>378.5</ele><time>2026-04-23T10:26:27.851Z</time></trkpt><trkpt lat="43.4678567" lon="11.3730875"><ele>378.0</ele><time>2026-04-23T10:26:28.852Z</time></trkpt><trkpt lat="43.4678628" lon="11.3731954"><ele>377.5</ele><time>2026-04-23T10:26:30.847Z</time></trkpt><trkpt lat="43.4679202" lon="11.373262"><ele>377.0</ele><time>2026-04-23T10:26:32.852Z</time></trkpt><trkpt lat="43.4680136" lon="11.3733024"><ele>378.20000000000005</ele><time>2026-04-23T10:26:34.845Z</time></trkpt><trkpt lat="43.468111" lon="11.3733313"><ele>379.4</ele><time>2026-04-23T10:26:36.848Z</time></trkpt><trkpt lat="43.4682358" lon="11.3733894"><ele>380.6</ele><time>2026-04-23T10:26:38.849Z</time></trkpt><trkpt lat="43.468321" lon="11.3734421"><ele>381.79999999999995</ele><time>2026-04-23T10:26:39.849Z</time></trkpt><trkpt lat="43.4684099" lon="11.3735031"><ele>383.0</ele><time>2026-04-23T10:26:40.853Z</time></trkpt><trkpt lat="43.4684963" lon="11.373571"><ele>383.0</ele><time>2026-04-23T10:26:41.846Z</time></trkpt><trkpt lat="43.4685842" lon="11.3736606"><ele>383.0</ele><time>2026-04-23T10:26:42.847Z</time></trkpt><trkpt lat="43.4686656" lon="11.373777"><ele>383.0</ele><time>2026-04-23T10:26:43.854Z</time></trkpt><trkpt lat="43.4687469" lon="11.3739139"><ele>383.0</ele><time>2026-04-23T10:26:44.85Z</time></trkpt><trkpt lat="43.4689532" lon="11.3741647"><ele>383.5</ele><time>2026-04-23T10:26:46.848Z</time></trkpt><trkpt lat="43.4690619" lon="11.3742677"><ele>384.0</ele><time>2026-04-23T10:26:47.847Z</time></trkpt><trkpt lat="43.4691725" lon="11.3743473"><ele>384.5</ele><time>2026-04-23T10:26:48.851Z</time></trkpt><trkpt lat="43.4692971" lon="11.3743672"><ele>385.0</ele><time>2026-04-23T10:26:49.851Z</time></trkpt><trkpt lat="43.4694442" lon="11.3743314"><ele>385.0</ele><time>2026-04-23T10:26:50.859Z</time></trkpt><trkpt lat="43.4695835" lon="11.3743005"><ele>385.0</ele><time>2026-04-23T10:26:51.846Z</time></trkpt><trkpt lat="43.4697188" lon="11.3742704"><ele>385.0</ele><time>2026-04-23T10:26:52.853Z</time></trkpt><trkpt lat="43.4698482" lon="11.3742617"><ele>385.0</ele><time>2026-04-23T10:26:53.856Z</time></trkpt><trkpt lat="43.4699769" lon="11.3742643"><ele>386.75</ele><time>2026-04-23T10:26:54.851Z</time></trkpt><trkpt lat="43.4701043" lon="11.374275"><ele>388.5</ele><time>2026-04-23T10:26:55.851Z</time></trkpt><trkpt lat="43.4702284" lon="11.37428"><ele>390.25</ele><time>2026-04-23T10:26:56.85Z</time></trkpt><trkpt lat="43.4703485" lon="11.3742895"><ele>392.0</ele><time>2026-04-23T10:26:57.853Z</time></trkpt><trkpt lat="43.470465" lon="11.3743027"><ele>392.75</ele><time>2026-04-23T10:26:58.85Z</time></trkpt><trkpt lat="43.4705844" lon="11.3743095"><ele>393.5</ele><time>2026-04-23T10:26:59.845Z</time></trkpt><trkpt lat="43.4707081" lon="11.3743058"><ele>394.25</ele><time>2026-04-23T10:27:00.855Z</time></trkpt><trkpt lat="43.4708316" lon="11.3742967"><ele>395.0</ele><time>2026-04-23T10:27:01.85Z</time></trkpt><trkpt lat="43.4709588" lon="11.374278"><ele>395.0</ele><time>2026-04-23T10:27:02.858Z</time></trkpt><trkpt lat="43.4710839" lon="11.3742516"><ele>395.0</ele><time>2026-04-23T10:27:03.854Z</time></trkpt><trkpt lat="43.4712104" lon="11.3742174"><ele>395.0</ele><time>2026-04-23T10:27:04.849Z</time></trkpt><trkpt lat="43.4713368" lon="11.374178"><ele>395.0</ele><time>2026-04-23T10:27:05.857Z</time></trkpt><trkpt lat="43.4715895" lon="11.3740984"><ele>395.5</ele><time>2026-04-23T10:27:07.853Z</time></trkpt><trkpt lat="43.4717164" lon="11.3740613"><ele>396.0</ele><time>2026-04-23T10:27:08.86Z</time></trkpt><trkpt lat="43.4718438" lon="11.3740235"><ele>396.5</ele><time>2026-04-23T10:27:09.849Z</time></trkpt><trkpt lat="43.4719722" lon="11.3739854"><ele>397.0</ele><time>2026-04-23T10:27:10.851Z</time></trkpt><trkpt lat="43.4720992" lon="11.3739521"><ele>398.5</ele><time>2026-04-23T10:27:11.851Z</time></trkpt><trkpt lat="43.4722239" lon="11.3739305"><ele>400.0</ele><time>2026-04-23T10:27:12.85Z</time></trkpt><trkpt lat="43.4723489" lon="11.3739215"><ele>401.5</ele><time>2026-04-23T10:27:13.858Z</time></trkpt><trkpt lat="43.4724755" lon="11.3739372"><ele>403.0</ele><time>2026-04-23T10:27:14.857Z</time></trkpt><trkpt lat="43.4725968" lon="11.3739797"><ele>403.0</ele><time>2026-04-23T10:27:15.852Z</time></trkpt><trkpt lat="43.472715" lon="11.3740532"><ele>403.0</ele><time>2026-04-23T10:27:16.853Z</time></trkpt><trkpt lat="43.472831" lon="11.3741393"><ele>403.0</ele><time>2026-04-23T10:27:17.848Z</time></trkpt><trkpt lat="43.4729539" lon="11.3742233"><ele>403.0</ele><time>2026-04-23T10:27:18.852Z</time></trkpt><trkpt lat="43.4730747" lon="11.3742975"><ele>405.75</ele><time>2026-04-23T10:27:19.852Z</time></trkpt><trkpt lat="43.4731942" lon="11.3743638"><ele>408.5</ele><time>2026-04-23T10:27:20.853Z</time></trkpt><trkpt lat="43.473315" lon="11.3744142"><ele>411.25</ele><time>2026-04-23T10:27:21.849Z</time></trkpt><trkpt lat="43.473441" lon="11.3744358"><ele>414.0</ele><time>2026-04-23T10:27:22.851Z</time></trkpt><trkpt lat="43.4735705" lon="11.3744112"><ele>414.0</ele><time>2026-04-23T10:27:23.859Z</time></trkpt><trkpt lat="43.4736912" lon="11.3743316"><ele>414.0</ele><time>2026-04-23T10:27:24.853Z</time></trkpt><trkpt lat="43.4737977" lon="11.3742162"><ele>414.0</ele><time>2026-04-23T10:27:25.856Z</time></trkpt><trkpt lat="43.4738805" lon="11.374073"><ele>414.0</ele><time>2026-04-23T10:27:26.854Z</time></trkpt><trkpt lat="43.4740364" lon="11.3737632"><ele>417.75</ele><time>2026-04-23T10:27:28.858Z</time></trkpt><trkpt lat="43.47412" lon="11.3736195"><ele>421.5</ele><time>2026-04-23T10:27:29.855Z</time></trkpt><trkpt lat="43.4742173" lon="11.3735131"><ele>425.25</ele><time>2026-04-23T10:27:30.858Z</time></trkpt><trkpt lat="43.4743149" lon="11.3734578"><ele>429.0</ele><time>2026-04-23T10:27:31.851Z</time></trkpt><trkpt lat="43.4744082" lon="11.3734441"><ele>429.0</ele><time>2026-04-23T10:27:32.854Z</time></trkpt><trkpt lat="43.4745037" lon="11.3734888"><ele>429.0</ele><time>2026-04-23T10:27:33.857Z</time></trkpt><trkpt lat="43.4745928" lon="11.3735865"><ele>429.0</ele><time>2026-04-23T10:27:34.854Z</time></trkpt><trkpt lat="43.4746787" lon="11.3737103"><ele>429.0</ele><time>2026-04-23T10:27:35.853Z</time></trkpt><trkpt lat="43.4747728" lon="11.373856"><ele>426.75</ele><time>2026-04-23T10:27:36.853Z</time></trkpt><trkpt lat="43.4748693" lon="11.3739472"><ele>424.5</ele><time>2026-04-23T10:27:37.851Z</time></trkpt><trkpt lat="43.4749849" lon="11.3739904"><ele>422.25</ele><time>2026-04-23T10:27:38.851Z</time></trkpt><trkpt lat="43.4751144" lon="11.3739779"><ele>420.0</ele><time>2026-04-23T10:27:39.854Z</time></trkpt><trkpt lat="43.4752499" lon="11.373946"><ele>420.0</ele><time>2026-04-23T10:27:40.854Z</time></trkpt><trkpt lat="43.4753918" lon="11.3739082"><ele>420.0</ele><time>2026-04-23T10:27:41.849Z</time></trkpt><trkpt lat="43.4755326" lon="11.3738694"><ele>420.0</ele><time>2026-04-23T10:27:42.852Z</time></trkpt><trkpt lat="43.4756723" lon="11.3738414"><ele>420.0</ele><time>2026-04-23T10:27:43.857Z</time></trkpt><trkpt lat="43.4758146" lon="11.373814"><ele>423.5</ele><time>2026-04-23T10:27:44.856Z</time></trkpt><trkpt lat="43.475954" lon="11.3737887"><ele>427.0</ele><time>2026-04-23T10:27:45.855Z</time></trkpt><trkpt lat="43.4760902" lon="11.3737664"><ele>430.5</ele><time>2026-04-23T10:27:46.85Z</time></trkpt><trkpt lat="43.4762203" lon="11.3737487"><ele>434.0</ele><time>2026-04-23T10:27:47.856Z</time></trkpt><trkpt lat="43.476448" lon="11.3737072"><ele>434.0</ele><time>2026-04-23T10:27:49.856Z</time></trkpt><trkpt lat="43.4765277" lon="11.3736272"><ele>434.0</ele><time>2026-04-23T10:27:50.851Z</time></trkpt><trkpt lat="43.476569" lon="11.3734865"><ele>434.0</ele><time>2026-04-23T10:27:51.851Z</time></trkpt><trkpt lat="43.4765922" lon="11.3733132"><ele>434.0</ele><time>2026-04-23T10:27:52.849Z</time></trkpt><trkpt lat="43.4766045" lon="11.3731287"><ele>437.0</ele><time>2026-04-23T10:27:53.856Z</time></trkpt><trkpt lat="43.4766186" lon="11.3729576"><ele>440.0</ele><time>2026-04-23T10:27:54.853Z</time></trkpt><trkpt lat="43.47664" lon="11.3727922"><ele>443.0</ele><time>2026-04-23T10:27:55.861Z</time></trkpt><trkpt lat="43.4766665" lon="11.3726244"><ele>446.0</ele><time>2026-04-23T10:27:56.855Z</time></trkpt><trkpt lat="43.4766903" lon="11.3724476"><ele>446.0</ele><time>2026-04-23T10:27:57.859Z</time></trkpt><trkpt lat="43.4767096" lon="11.3722647"><ele>446.0</ele><time>2026-04-23T10:27:58.853Z</time></trkpt><trkpt lat="43.4767348" lon="11.3720876"><ele>446.0</ele><time>2026-04-23T10:27:59.853Z</time></trkpt><trkpt lat="43.4767772" lon="11.3719243"><ele>446.0</ele><time>2026-04-23T10:28:00.856Z</time></trkpt><trkpt lat="43.4768473" lon="11.3718017"><ele>448.25</ele><time>2026-04-23T10:28:01.846Z</time></trkpt><trkpt lat="43.4769502" lon="11.3717359"><ele>450.5</ele><time>2026-04-23T10:28:02.855Z</time></trkpt><trkpt lat="43.4770743" lon="11.3717314"><ele>452.75</ele><time>2026-04-23T10:28:03.85Z</time></trkpt><trkpt lat="43.4772052" lon="11.3717829"><ele>455.0</ele><time>2026-04-23T10:28:04.854Z</time></trkpt><trkpt lat="43.4773485" lon="11.3718804"><ele>455.66666666666663</ele><time>2026-04-23T10:28:05.851Z</time></trkpt><trkpt lat="43.4774979" lon="11.3719766"><ele>456.33333333333337</ele><time>2026-04-23T10:28:06.854Z</time></trkpt><trkpt lat="43.4776479" lon="11.3720455"><ele>457.0</ele><time>2026-04-23T10:28:07.854Z</time></trkpt><trkpt lat="43.477794" lon="11.3720771"><ele>456.0</ele><time>2026-04-23T10:28:08.856Z</time></trkpt><trkpt lat="43.4780573" lon="11.3719743"><ele>455.0</ele><time>2026-04-23T10:28:10.853Z</time></trkpt><trkpt lat="43.4781658" lon="11.3718688"><ele>454.0</ele><time>2026-04-23T10:28:11.847Z</time></trkpt><trkpt lat="43.4782373" lon="11.3717041"><ele>454.0</ele><time>2026-04-23T10:28:12.853Z</time></trkpt><trkpt lat="43.478285" lon="11.3715218"><ele>454.0</ele><time>2026-04-23T10:28:13.857Z</time></trkpt><trkpt lat="43.4782901" lon="11.3713102"><ele>454.0</ele><time>2026-04-23T10:28:14.853Z</time></trkpt><trkpt lat="43.4782564" lon="11.3710987"><ele>457.0</ele><time>2026-04-23T10:28:15.847Z</time></trkpt><trkpt lat="43.4781956" lon="11.3709011"><ele>460.0</ele><time>2026-04-23T10:28:16.854Z</time></trkpt><trkpt lat="43.4781272" lon="11.3707129"><ele>463.0</ele><time>2026-04-23T10:28:17.863Z</time></trkpt><trkpt lat="43.4780603" lon="11.3705239"><ele>465.0</ele><time>2026-04-23T10:28:18.851Z</time></trkpt><trkpt lat="43.4780025" lon="11.3703349"><ele>467.0</ele><time>2026-04-23T10:28:19.857Z</time></trkpt><trkpt lat="43.4779577" lon="11.3701504"><ele>469.0</ele><time>2026-04-23T10:28:20.85Z</time></trkpt><trkpt lat="43.47793" lon="11.3699781"><ele>471.0</ele><time>2026-04-23T10:28:21.847Z</time></trkpt><trkpt lat="43.4779376" lon="11.3698352"><ele>471.0</ele><time>2026-04-23T10:28:22.853Z</time></trkpt><trkpt lat="43.4780019" lon="11.3697364"><ele>471.0</ele><time>2026-04-23T10:28:23.854Z</time></trkpt><trkpt lat="43.478118" lon="11.3696886"><ele>471.0</ele><time>2026-04-23T10:28:24.856Z</time></trkpt><trkpt lat="43.4782491" lon="11.3696923"><ele>471.0</ele><time>2026-04-23T10:28:25.855Z</time></trkpt><trkpt lat="43.4783976" lon="11.3697578"><ele>471.0</ele><time>2026-04-23T10:28:26.849Z</time></trkpt><trkpt lat="43.4785461" lon="11.3698163"><ele>471.0</ele><time>2026-04-23T10:28:27.851Z</time></trkpt><trkpt lat="43.4786839" lon="11.3698436"><ele>471.0</ele><time>2026-04-23T10:28:28.853Z</time></trkpt><trkpt lat="43.4788203" lon="11.36982"><ele>471.0</ele><time>2026-04-23T10:28:29.861Z</time></trkpt><trkpt lat="43.4790416" lon="11.3695588"><ele>474.33333333333337</ele><time>2026-04-23T10:28:31.856Z</time></trkpt><trkpt lat="43.4791251" lon="11.3693585"><ele>477.6666666666667</ele><time>2026-04-23T10:28:32.856Z</time></trkpt><trkpt lat="43.4792077" lon="11.3691693"><ele>481.0</ele><time>2026-04-23T10:28:33.847Z</time></trkpt><trkpt lat="43.4792967" lon="11.3689991"><ele>481.25</ele><time>2026-04-23T10:28:34.853Z</time></trkpt><trkpt lat="43.4793883" lon="11.368844"><ele>481.5</ele><time>2026-04-23T10:28:35.852Z</time></trkpt><trkpt lat="43.4794805" lon="11.3686924"><ele>481.75</ele><time>2026-04-23T10:28:36.856Z</time></trkpt><trkpt lat="43.4795675" lon="11.3685635"><ele>482.0</ele><time>2026-04-23T10:28:37.851Z</time></trkpt><trkpt lat="43.4796469" lon="11.3684501"><ele>482.0</ele><time>2026-04-23T10:28:38.85Z</time></trkpt><trkpt lat="43.4797153" lon="11.3683536"><ele>482.00000000000006</ele><time>2026-04-23T10:28:39.852Z</time></trkpt><trkpt lat="43.479776" lon="11.3682619"><ele>482.00000000000006</ele><time>2026-04-23T10:28:40.86Z</time></trkpt><trkpt lat="43.479842" lon="11.3681715"><ele>482.0</ele><time>2026-04-23T10:28:41.855Z</time></trkpt><trkpt lat="43.4799076" lon="11.3680823"><ele>482.0</ele><time>2026-04-23T10:28:42.849Z</time></trkpt><trkpt lat="43.4799688" lon="11.3679949"><ele>484.3333333333333</ele><time>2026-04-23T10:28:43.849Z</time></trkpt><trkpt lat="43.480025" lon="11.3679065"><ele>486.66666666666663</ele><time>2026-04-23T10:28:44.852Z</time></trkpt><trkpt lat="43.4800764" lon="11.3678236"><ele>489.0</ele><time>2026-04-23T10:28:45.846Z</time></trkpt><trkpt lat="43.4801319" lon="11.3677547"><ele>491.33333333333337</ele><time>2026-04-23T10:28:46.856Z</time></trkpt><trkpt lat="43.480189" lon="11.3676949"><ele>493.6666666666667</ele><time>2026-04-23T10:28:47.852Z</time></trkpt><trkpt lat="43.480248" lon="11.3676528"><ele>496.0</ele><time>2026-04-23T10:28:48.854Z</time></trkpt><trkpt lat="43.4803664" lon="11.3676511"><ele>494.5</ele><time>2026-04-23T10:28:50.856Z</time></trkpt><trkpt lat="43.4805075" lon="11.3677872"><ele>493.0</ele><time>2026-04-23T10:28:55.853Z</time></trkpt><trkpt lat="43.4806063" lon="11.3677775"><ele>491.5</ele><time>2026-04-23T10:32:12.857Z</time></trkpt><trkpt lat="43.4807476" lon="11.3677165"><ele>490.0</ele><time>2026-04-23T10:32:14.861Z</time></trkpt><trkpt lat="43.4808225" lon="11.3676328"><ele>490.0</ele><time>2026-04-23T10:32:15.858Z</time></trkpt><trkpt lat="43.4809025" lon="11.3674951"><ele>490.0</ele><time>2026-04-23T10:32:16.855Z</time></trkpt><trkpt lat="43.4809919" lon="11.3673317"><ele>490.0</ele><time>2026-04-23T10:32:17.861Z</time></trkpt><trkpt lat="43.4810998" lon="11.3671816"><ele>490.0</ele><time>2026-04-23T10:32:18.857Z</time></trkpt><trkpt lat="43.4812314" lon="11.3670724"><ele>492.0</ele><time>2026-04-23T10:32:19.849Z</time></trkpt><trkpt lat="43.4813914" lon="11.3670121"><ele>494.0</ele><time>2026-04-23T10:32:20.866Z</time></trkpt><trkpt lat="43.4815516" lon="11.3670141"><ele>496.0</ele><time>2026-04-23T10:32:21.855Z</time></trkpt><trkpt lat="43.4816917" lon="11.3670216"><ele>496.0</ele><time>2026-04-23T10:32:22.86Z</time></trkpt><trkpt lat="43.4818152" lon="11.3669947"><ele>496.0</ele><time>2026-04-23T10:32:23.85Z</time></trkpt><trkpt lat="43.4819201" lon="11.3669298"><ele>496.0</ele><time>2026-04-23T10:32:24.856Z</time></trkpt><trkpt lat="43.4820045" lon="11.3668189"><ele>496.0</ele><time>2026-04-23T10:32:25.858Z</time></trkpt><trkpt lat="43.4820775" lon="11.3666817"><ele>495.0</ele><time>2026-04-23T10:32:26.856Z</time></trkpt><trkpt lat="43.4821547" lon="11.3665448"><ele>494.0</ele><time>2026-04-23T10:32:27.855Z</time></trkpt><trkpt lat="43.4822339" lon="11.3664258"><ele>493.0</ele><time>2026-04-23T10:32:28.856Z</time></trkpt><trkpt lat="43.482329" lon="11.3663408"><ele>492.0</ele><time>2026-04-23T10:32:29.849Z</time></trkpt><trkpt lat="43.4824443" lon="11.3663216"><ele>492.0</ele><time>2026-04-23T10:32:30.855Z</time></trkpt><trkpt lat="43.4825688" lon="11.3663573"><ele>492.0</ele><time>2026-04-23T10:32:31.85Z</time></trkpt><trkpt lat="43.4826966" lon="11.3664093"><ele>492.0</ele><time>2026-04-23T10:32:32.852Z</time></trkpt><trkpt lat="43.4828229" lon="11.3664529"><ele>492.0</ele><time>2026-04-23T10:32:33.849Z</time></trkpt><trkpt lat="43.4830613" lon="11.3665023"><ele>492.25</ele><time>2026-04-23T10:32:35.857Z</time></trkpt><trkpt lat="43.4831779" lon="11.3664789"><ele>492.5</ele><time>2026-04-23T10:32:36.851Z</time></trkpt><trkpt lat="43.4832876" lon="11.3664121"><ele>492.75</ele><time>2026-04-23T10:32:37.851Z</time></trkpt><trkpt lat="43.4833879" lon="11.3663065"><ele>493.0</ele><time>2026-04-23T10:32:38.851Z</time></trkpt><trkpt lat="43.4834873" lon="11.3661803"><ele>495.0</ele><time>2026-04-23T10:32:39.851Z</time></trkpt><trkpt lat="43.4835743" lon="11.3660466"><ele>497.0</ele><time>2026-04-23T10:32:40.859Z</time></trkpt><trkpt lat="43.4836523" lon="11.3659057"><ele>499.0</ele><time>2026-04-23T10:32:41.853Z</time></trkpt><trkpt lat="43.4837289" lon="11.3657734"><ele>501.0</ele><time>2026-04-23T10:32:42.851Z</time></trkpt><trkpt lat="43.483799" lon="11.3656578"><ele>501.0</ele><time>2026-04-23T10:32:43.867Z</time></trkpt><trkpt lat="43.4838601" lon="11.3655764"><ele>501.0</ele><time>2026-04-23T10:32:44.848Z</time></trkpt><trkpt lat="43.4839424" lon="11.3655145"><ele>501.0</ele><time>2026-04-23T10:32:46.857Z</time></trkpt><trkpt lat="43.4840339" lon="11.3655054"><ele>501.0</ele><time>2026-04-23T10:32:49.853Z</time></trkpt><trkpt lat="43.4841494" lon="11.3655394"><ele>501.0</ele><time>2026-04-23T10:32:51.858Z</time></trkpt><trkpt lat="43.4842183" lon="11.3655956"><ele>501.0</ele><time>2026-04-23T10:32:52.848Z</time></trkpt><trkpt lat="43.484284" lon="11.365666"><ele>501.0</ele><time>2026-04-23T10:32:53.851Z</time></trkpt><trkpt lat="43.4843421" lon="11.3657521"><ele>501.0</ele><time>2026-04-23T10:32:54.849Z</time></trkpt><trkpt lat="43.4844033" lon="11.3659513"><ele>501.0</ele><time>2026-04-23T10:32:56.856Z</time></trkpt><trkpt lat="43.4843945" lon="11.366064"><ele>501.0</ele><time>2026-04-23T10:32:57.856Z</time></trkpt><trkpt lat="43.4843691" lon="11.3661854"><ele>501.0</ele><time>2026-04-23T10:32:58.854Z</time></trkpt><trkpt lat="43.4843443" lon="11.3663159"><ele>501.0</ele><time>2026-04-23T10:32:59.856Z</time></trkpt><trkpt lat="43.4843273" lon="11.3664515"><ele>501.0</ele><time>2026-04-23T10:33:00.86Z</time></trkpt><trkpt lat="43.4843175" lon="11.366582"><ele>501.0</ele><time>2026-04-23T10:33:01.858Z</time></trkpt><trkpt lat="43.4843236" lon="11.3667037"><ele>501.0</ele><time>2026-04-23T10:33:02.859Z</time></trkpt><trkpt lat="43.4843433" lon="11.3668047"><ele>500.0</ele><time>2026-04-23T10:33:03.861Z</time></trkpt><trkpt lat="43.4843754" lon="11.3668915"><ele>499.0</ele><time>2026-04-23T10:33:04.857Z</time></trkpt><trkpt lat="43.4844288" lon="11.3670371"><ele>498.0</ele><time>2026-04-23T10:33:06.854Z</time></trkpt><trkpt lat="43.4844522" lon="11.367125"><ele>497.0</ele><time>2026-04-23T10:33:07.853Z</time></trkpt><trkpt lat="43.484477" lon="11.3672238"><ele>496.0</ele><time>2026-04-23T10:33:08.853Z</time></trkpt><trkpt lat="43.4845024" lon="11.367326"><ele>495.0</ele><time>2026-04-23T10:33:09.85Z</time></trkpt><trkpt lat="43.4845264" lon="11.3674348"><ele>494.8</ele><time>2026-04-23T10:33:10.854Z</time></trkpt><trkpt lat="43.4845516" lon="11.3675501"><ele>494.6</ele><time>2026-04-23T10:33:11.85Z</time></trkpt><trkpt lat="43.4845731" lon="11.3676715"><ele>494.4</ele><time>2026-04-23T10:33:12.85Z</time></trkpt><trkpt lat="43.4845902" lon="11.3677949"><ele>494.2</ele><time>2026-04-23T10:33:13.862Z</time></trkpt><trkpt lat="43.4846067" lon="11.3679237"><ele>494.0</ele><time>2026-04-23T10:33:14.856Z</time></trkpt><trkpt lat="43.4846264" lon="11.3680534"><ele>496.0</ele><time>2026-04-23T10:33:15.853Z</time></trkpt><trkpt lat="43.4846595" lon="11.3683242"><ele>498.0</ele><time>2026-04-23T10:33:17.854Z</time></trkpt><trkpt lat="43.4846754" lon="11.3684597"><ele>500.0</ele><time>2026-04-23T10:33:18.855Z</time></trkpt><trkpt lat="43.4846916" lon="11.3685888"><ele>502.0</ele><time>2026-04-23T10:33:19.855Z</time></trkpt><trkpt lat="43.484707" lon="11.3687158"><ele>502.00000000000006</ele><time>2026-04-23T10:33:20.849Z</time></trkpt><trkpt lat="43.4847205" lon="11.3688423"><ele>502.0</ele><time>2026-04-23T10:33:21.858Z</time></trkpt><trkpt lat="43.4847348" lon="11.3689658"><ele>502.0</ele><time>2026-04-23T10:33:22.858Z</time></trkpt><trkpt lat="43.484754" lon="11.369083"><ele>502.0</ele><time>2026-04-23T10:33:23.862Z</time></trkpt><trkpt lat="43.4847797" lon="11.3691952"><ele>502.00000000000006</ele><time>2026-04-23T10:33:24.856Z</time></trkpt><trkpt lat="43.4848178" lon="11.3693011"><ele>502.0</ele><time>2026-04-23T10:33:25.855Z</time></trkpt><trkpt lat="43.4848711" lon="11.3693973"><ele>503.0</ele><time>2026-04-23T10:33:26.854Z</time></trkpt><trkpt lat="43.4849323" lon="11.3694888"><ele>504.00000000000006</ele><time>2026-04-23T10:33:27.856Z</time></trkpt><trkpt lat="43.4849993" lon="11.3695701"><ele>505.00000000000006</ele><time>2026-04-23T10:33:28.855Z</time></trkpt><trkpt lat="43.485071" lon="11.3696453"><ele>506.0</ele><time>2026-04-23T10:33:29.856Z</time></trkpt><trkpt lat="43.4851513" lon="11.3697123"><ele>507.0</ele><time>2026-04-23T10:33:30.857Z</time></trkpt><trkpt lat="43.4852375" lon="11.369769"><ele>508.0</ele><time>2026-04-23T10:33:31.858Z</time></trkpt><trkpt lat="43.4853256" lon="11.3698146"><ele>509.00000000000006</ele><time>2026-04-23T10:33:32.852Z</time></trkpt><trkpt lat="43.4854161" lon="11.3698449"><ele>510.00000000000006</ele><time>2026-04-23T10:33:33.858Z</time></trkpt><trkpt lat="43.485507" lon="11.3698681"><ele>511.0</ele><time>2026-04-23T10:33:34.86Z</time></trkpt><trkpt lat="43.4855953" lon="11.3699068"><ele>512.0</ele><time>2026-04-23T10:33:35.857Z</time></trkpt><trkpt lat="43.4856788" lon="11.3699552"><ele>512.0</ele><time>2026-04-23T10:33:36.858Z</time></trkpt><trkpt lat="43.4858221" lon="11.3700797"><ele>512.0</ele><time>2026-04-23T10:33:38.859Z</time></trkpt><trkpt lat="43.4858835" lon="11.3701614"><ele>512.0</ele><time>2026-04-23T10:33:39.855Z</time></trkpt><trkpt lat="43.4859338" lon="11.3702647"><ele>512.0</ele><time>2026-04-23T10:33:40.852Z</time></trkpt><trkpt lat="43.4859748" lon="11.3703771"><ele>512.0</ele><time>2026-04-23T10:33:41.856Z</time></trkpt><trkpt lat="43.4860169" lon="11.3705004"><ele>513.4</ele><time>2026-04-23T10:33:42.85Z</time></trkpt><trkpt lat="43.4860547" lon="11.3706268"><ele>514.8000000000001</ele><time>2026-04-23T10:33:43.851Z</time></trkpt><trkpt lat="43.4860905" lon="11.3707563"><ele>516.2</ele><time>2026-04-23T10:33:44.854Z</time></trkpt><trkpt lat="43.4861276" lon="11.3708774"><ele>517.6</ele><time>2026-04-23T10:33:45.854Z</time></trkpt><trkpt lat="43.48616" lon="11.3709964"><ele>519.0</ele><time>2026-04-23T10:33:46.857Z</time></trkpt><trkpt lat="43.4861862" lon="11.3711145"><ele>519.0</ele><time>2026-04-23T10:33:47.858Z</time></trkpt><trkpt lat="43.4862098" lon="11.3712359"><ele>519.0</ele><time>2026-04-23T10:33:48.853Z</time></trkpt><trkpt lat="43.4862309" lon="11.3713581"><ele>519.0</ele><time>2026-04-23T10:33:49.856Z</time></trkpt><trkpt lat="43.4862499" lon="11.3714811"><ele>519.0</ele><time>2026-04-23T10:33:50.856Z</time></trkpt><trkpt lat="43.4862644" lon="11.3716013"><ele>519.0</ele><time>2026-04-23T10:33:51.855Z</time></trkpt><trkpt lat="43.4862759" lon="11.3717243"><ele>518.3333333333334</ele><time>2026-04-23T10:33:52.852Z</time></trkpt><trkpt lat="43.4862852" lon="11.3718422"><ele>517.6666666666666</ele><time>2026-04-23T10:33:53.854Z</time></trkpt><trkpt lat="43.4862931" lon="11.371961"><ele>517.0</ele><time>2026-04-23T10:33:54.849Z</time></trkpt><trkpt lat="43.4863021" lon="11.3720803"><ele>516.3333333333333</ele><time>2026-04-23T10:33:55.85Z</time></trkpt><trkpt lat="43.4863119" lon="11.3721988"><ele>515.6666666666666</ele><time>2026-04-23T10:33:56.849Z</time></trkpt><trkpt lat="43.4863214" lon="11.3723142"><ele>515.0</ele><time>2026-04-23T10:33:57.853Z</time></trkpt><trkpt lat="43.4863422" lon="11.3725489"><ele>515.0</ele><time>2026-04-23T10:33:59.851Z</time></trkpt><trkpt lat="43.4863528" lon="11.3726578"><ele>515.0</ele><time>2026-04-23T10:34:00.85Z</time></trkpt><trkpt lat="43.4863609" lon="11.3727516"><ele>515.0</ele><time>2026-04-23T10:34:01.852Z</time></trkpt><trkpt lat="43.4863713" lon="11.3728862"><ele>515.0</ele><time>2026-04-23T10:34:03.855Z</time></trkpt><trkpt lat="43.4863701" lon="11.3730073"><ele>515.0</ele><time>2026-04-23T10:34:06.854Z</time></trkpt><trkpt lat="43.486352" lon="11.3731325"><ele>515.0</ele><time>2026-04-23T10:34:09.857Z</time></trkpt><trkpt lat="43.4863397" lon="11.373228"><ele>515.8</ele><time>2026-04-23T10:34:11.856Z</time></trkpt><trkpt lat="43.4863184" lon="11.3733214"><ele>516.6</ele><time>2026-04-23T10:34:13.853Z</time></trkpt><trkpt lat="43.4862895" lon="11.3734319"><ele>517.4</ele><time>2026-04-23T10:34:15.857Z</time></trkpt><trkpt lat="43.4862496" lon="11.3735448"><ele>518.2</ele><time>2026-04-23T10:34:17.858Z</time></trkpt><trkpt lat="43.4862156" lon="11.3736722"><ele>519.0</ele><time>2026-04-23T10:34:19.853Z</time></trkpt><trkpt lat="43.4861427" lon="11.3739609"><ele>519.4</ele><time>2026-04-23T10:34:23.864Z</time></trkpt><trkpt lat="43.4861102" lon="11.374113"><ele>519.8</ele><time>2026-04-23T10:34:25.855Z</time></trkpt><trkpt lat="43.48609" lon="11.3742446"><ele>520.2</ele><time>2026-04-23T10:34:27.856Z</time></trkpt><trkpt lat="43.4860849" lon="11.3743599"><ele>520.6</ele><time>2026-04-23T10:34:29.857Z</time></trkpt><trkpt lat="43.4861037" lon="11.3744718"><ele>521.0</ele><time>2026-04-23T10:34:31.854Z</time></trkpt><trkpt lat="43.4861425" lon="11.3745762"><ele>521.0</ele><time>2026-04-23T10:34:33.86Z</time></trkpt><trkpt lat="43.4861914" lon="11.3746796"><ele>521.0</ele><time>2026-04-23T10:34:35.853Z</time></trkpt><trkpt lat="43.4862253" lon="11.3747649"><ele>521.0</ele><time>2026-04-23T10:34:37.851Z</time></trkpt><trkpt lat="43.4861707" lon="11.374845"><ele>521.0</ele><time>2026-04-23T10:34:41.859Z</time></trkpt><trkpt lat="43.4860413" lon="11.3746873"><ele>521.0</ele><time>2026-04-23T10:34:45.858Z</time></trkpt><trkpt lat="43.485975" lon="11.3745699"><ele>521.0</ele><time>2026-04-23T10:34:47.859Z</time></trkpt><trkpt lat="43.485887" lon="11.3744501"><ele>521.0</ele><time>2026-04-23T10:34:49.855Z</time></trkpt><trkpt lat="43.4857679" lon="11.3744002"><ele>521.0</ele><time>2026-04-23T10:34:51.855Z</time></trkpt><trkpt lat="43.4857021" lon="11.374403"><ele>521.0</ele><time>2026-04-23T10:34:52.853Z</time></trkpt><trkpt lat="43.4856385" lon="11.3744207"><ele>521.0</ele><time>2026-04-23T10:34:53.859Z</time></trkpt><trkpt lat="43.48557" lon="11.3744509"><ele>521.0</ele><time>2026-04-23T10:34:54.863Z</time></trkpt><trkpt lat="43.4855046" lon="11.3744959"><ele>521.0</ele><time>2026-04-23T10:34:55.856Z</time></trkpt><trkpt lat="43.4854457" lon="11.3745557"><ele>521.0</ele><time>2026-04-23T10:34:56.854Z</time></trkpt><trkpt lat="43.4853986" lon="11.3746233"><ele>521.0</ele><time>2026-04-23T10:34:57.858Z</time></trkpt><trkpt lat="43.4853424" lon="11.3747571"><ele>521.0</ele><time>2026-04-23T10:34:59.856Z</time></trkpt><trkpt lat="43.485314" lon="11.3749008"><ele>521.0</ele><time>2026-04-23T10:35:01.848Z</time></trkpt><trkpt lat="43.4853014" lon="11.3750331"><ele>517.0</ele><time>2026-04-23T10:35:03.86Z</time></trkpt><trkpt lat="43.4853028" lon="11.3752199"><ele>513.0</ele><time>2026-04-23T10:35:08.85Z</time></trkpt><trkpt lat="43.4853521" lon="11.3752812"><ele>509.0</ele><time>2026-04-23T10:37:33.847Z</time></trkpt><trkpt lat="43.4853474" lon="11.3750538"><ele>505.0</ele><time>2026-04-23T10:37:39.858Z</time></trkpt><trkpt lat="43.4853441" lon="11.3749615"><ele>501.0</ele><time>2026-04-23T10:37:40.869Z</time></trkpt><trkpt lat="43.4853601" lon="11.3748545"><ele>501.0</ele><time>2026-04-23T10:37:41.863Z</time></trkpt><trkpt lat="43.4853891" lon="11.3747424"><ele>501.0</ele><time>2026-04-23T10:37:42.86Z</time></trkpt><trkpt lat="43.485427" lon="11.3746325"><ele>501.0</ele><time>2026-04-23T10:37:43.864Z</time></trkpt><trkpt lat="43.4854817" lon="11.3745428"><ele>501.0</ele><time>2026-04-23T10:37:44.863Z</time></trkpt><trkpt lat="43.4855476" lon="11.3744818"><ele>501.0</ele><time>2026-04-23T10:37:45.863Z</time></trkpt><trkpt lat="43.4856211" lon="11.3744459"><ele>501.0</ele><time>2026-04-23T10:37:46.864Z</time></trkpt><trkpt lat="43.4856947" lon="11.3744364"><ele>503.42857142857144</ele><time>2026-04-23T10:37:47.871Z</time></trkpt><trkpt lat="43.4857693" lon="11.3744467"><ele>505.85714285714283</ele><time>2026-04-23T10:37:48.853Z</time></trkpt><trkpt lat="43.48584" lon="11.3744668"><ele>508.2857142857143</ele><time>2026-04-23T10:37:49.856Z</time></trkpt><trkpt lat="43.485903" lon="11.3745129"><ele>510.7142857142857</ele><time>2026-04-23T10:37:50.865Z</time></trkpt><trkpt lat="43.4859583" lon="11.3745696"><ele>513.1428571428571</ele><time>2026-04-23T10:37:51.859Z</time></trkpt><trkpt lat="43.486009" lon="11.3746422"><ele>515.5714285714286</ele><time>2026-04-23T10:37:52.867Z</time></trkpt><trkpt lat="43.4860532" lon="11.3747151"><ele>518.0</ele><time>2026-04-23T10:37:53.856Z</time></trkpt><trkpt lat="43.4860951" lon="11.3747906"><ele>518.0</ele><time>2026-04-23T10:37:54.864Z</time></trkpt><trkpt lat="43.4862205" lon="11.3749475"><ele>518.0</ele><time>2026-04-23T10:37:57.865Z</time></trkpt><trkpt lat="43.4862834" lon="11.3749194"><ele>518.0</ele><time>2026-04-23T10:37:59.852Z</time></trkpt><trkpt lat="43.4862992" lon="11.3747895"><ele>518.0</ele><time>2026-04-23T10:38:18.874Z</time></trkpt><trkpt lat="43.4861843" lon="11.3745954"><ele>518.5</ele><time>2026-04-23T10:38:21.863Z</time></trkpt><trkpt lat="43.4861532" lon="11.374506"><ele>519.0</ele><time>2026-04-23T10:38:22.871Z</time></trkpt><trkpt lat="43.4861377" lon="11.374397"><ele>519.5</ele><time>2026-04-23T10:38:23.858Z</time></trkpt><trkpt lat="43.4861398" lon="11.3742708"><ele>520.0</ele><time>2026-04-23T10:38:24.86Z</time></trkpt><trkpt lat="43.4861549" lon="11.3741354"><ele>520.5</ele><time>2026-04-23T10:38:25.863Z</time></trkpt><trkpt lat="43.4861799" lon="11.3740066"><ele>521.0</ele><time>2026-04-23T10:38:26.849Z</time></trkpt><trkpt lat="43.4862089" lon="11.3738868"><ele>520.6666666666666</ele><time>2026-04-23T10:38:27.854Z</time></trkpt><trkpt lat="43.4862341" lon="11.3737763"><ele>520.3333333333333</ele><time>2026-04-23T10:38:28.866Z</time></trkpt><trkpt lat="43.4862556" lon="11.3736811"><ele>520.0</ele><time>2026-04-23T10:38:29.873Z</time></trkpt><trkpt lat="43.4862799" lon="11.3735894"><ele>519.6666666666666</ele><time>2026-04-23T10:38:30.871Z</time></trkpt><trkpt lat="43.4863112" lon="11.3735005"><ele>519.3333333333334</ele><time>2026-04-23T10:38:31.86Z</time></trkpt><trkpt lat="43.4863407" lon="11.3734168"><ele>519.0</ele><time>2026-04-23T10:38:32.87Z</time></trkpt><trkpt lat="43.4863822" lon="11.3732696"><ele>520.8333333333334</ele><time>2026-04-23T10:38:34.864Z</time></trkpt><trkpt lat="43.486419" lon="11.3731664"><ele>522.6666666666666</ele><time>2026-04-23T10:38:36.869Z</time></trkpt><trkpt lat="43.4864746" lon="11.3730894"><ele>524.5</ele><time>2026-04-23T10:38:39.861Z</time></trkpt><trkpt lat="43.4863863" lon="11.3730466"><ele>526.3333333333333</ele><time>2026-04-23T10:38:56.858Z</time></trkpt><trkpt lat="43.4863654" lon="11.3731492"><ele>528.1666666666666</ele><time>2026-04-23T10:38:58.85Z</time></trkpt><trkpt lat="43.4863601" lon="11.3732508"><ele>530.0</ele><time>2026-04-23T10:39:00.875Z</time></trkpt><trkpt lat="43.4863157" lon="11.3734648"><ele>530.0</ele><time>2026-04-23T10:39:04.877Z</time></trkpt><trkpt lat="43.4862738" lon="11.3735581"><ele>530.0</ele><time>2026-04-23T10:39:06.861Z</time></trkpt><trkpt lat="43.4862403" lon="11.3736848"><ele>530.0</ele><time>2026-04-23T10:39:08.866Z</time></trkpt><trkpt lat="43.4862002" lon="11.3738401"><ele>530.0</ele><time>2026-04-23T10:39:10.865Z</time></trkpt><trkpt lat="43.4861602" lon="11.3739849"><ele>530.0</ele><time>2026-04-23T10:39:12.855Z</time></trkpt><trkpt lat="43.4861222" lon="11.3741377"><ele>530.0</ele><time>2026-04-23T10:39:14.862Z</time></trkpt><trkpt lat="43.4860966" lon="11.3742558"><ele>530.0</ele><time>2026-04-23T10:39:16.865Z</time></trkpt><trkpt lat="43.486098" lon="11.3741655"><ele>530.0</ele><time>2026-04-23T10:41:05.852Z</time></trkpt><trkpt lat="43.4862072" lon="11.3740733"><ele>530.0</ele><time>2026-04-23T10:41:14.859Z</time></trkpt><trkpt lat="43.486223" lon="11.373985"><ele>530.0</ele><time>2026-04-23T10:41:20.877Z</time></trkpt><trkpt lat="43.4862436" lon="11.3738947"><ele>530.0</ele><time>2026-04-23T10:41:25.857Z</time></trkpt><trkpt lat="43.4862706" lon="11.3738083"><ele>530.0</ele><time>2026-04-23T10:41:31.859Z</time></trkpt><trkpt lat="43.4863303" lon="11.3736445"><ele>530.0</ele><time>2026-04-23T10:41:45.856Z</time></trkpt><trkpt lat="43.4863464" lon="11.3735577"><ele>530.0</ele><time>2026-04-23T10:41:51.885Z</time></trkpt><trkpt lat="43.4863996" lon="11.3734861"><ele>530.0</ele><time>2026-04-23T10:41:57.855Z</time></trkpt><trkpt lat="43.486428" lon="11.3733127"><ele>530.0</ele><time>2026-04-23T10:42:06.852Z</time></trkpt><trkpt lat="43.4864346" lon="11.3732248"><ele>530.0</ele><time>2026-04-23T10:42:11.859Z</time></trkpt><trkpt lat="43.4865017" lon="11.3732045"><ele>530.0</ele><time>2026-04-23T10:42:18.86Z</time></trkpt><trkpt lat="43.4865514" lon="11.3733637"><ele>530.0</ele><time>2026-04-23T10:42:30.865Z</time></trkpt><trkpt lat="43.4865715" lon="11.3734575"><ele>530.0</ele><time>2026-04-23T10:42:37.857Z</time></trkpt><trkpt lat="43.4866261" lon="11.3735326"><ele>530.0</ele><time>2026-04-23T10:42:43.865Z</time></trkpt></trkseg><trkseg><trkpt lat="43.4861291" lon="11.3743186"><ele>521.0</ele><time>2026-04-23T11:55:22.512Z</time></trkpt><trkpt lat="43.4861283" lon="11.3744119"><ele>521.0</ele><time>2026-04-23T11:55:23.521Z</time></trkpt><trkpt lat="43.4861335" lon="11.3745013"><ele>521.0</ele><time>2026-04-23T11:55:24.513Z</time></trkpt><trkpt lat="43.4861496" lon="11.3745863"><ele>521.0</ele><time>2026-04-23T11:55:25.519Z</time></trkpt><trkpt lat="43.4862065" lon="11.3747273"><ele>521.0</ele><time>2026-04-23T11:55:27.518Z</time></trkpt><trkpt lat="43.4862912" lon="11.374854"><ele>521.0</ele><time>2026-04-23T11:55:29.522Z</time></trkpt><trkpt lat="43.4863357" lon="11.3749226"><ele>522.8333333333333</ele><time>2026-04-23T11:55:30.527Z</time></trkpt><trkpt lat="43.486381" lon="11.3749912"><ele>524.6666666666666</ele><time>2026-04-23T11:55:31.522Z</time></trkpt><trkpt lat="43.4864256" lon="11.3750564"><ele>526.5</ele><time>2026-04-23T11:55:32.523Z</time></trkpt><trkpt lat="43.486511" lon="11.3751796"><ele>528.3333333333334</ele><time>2026-04-23T11:55:34.523Z</time></trkpt><trkpt lat="43.4865907" lon="11.3753122"><ele>530.1666666666667</ele><time>2026-04-23T11:55:36.529Z</time></trkpt><trkpt lat="43.4866309" lon="11.3753831"><ele>532.0</ele><time>2026-04-23T11:55:37.522Z</time></trkpt><trkpt lat="43.4866753" lon="11.3754557"><ele>530.5714285714286</ele><time>2026-04-23T11:55:38.53Z</time></trkpt><trkpt lat="43.4867221" lon="11.3755294"><ele>529.1428571428571</ele><time>2026-04-23T11:55:39.531Z</time></trkpt><trkpt lat="43.486769" lon="11.3756062"><ele>527.7142857142858</ele><time>2026-04-23T11:55:40.52Z</time></trkpt><trkpt lat="43.4868151" lon="11.3756867"><ele>526.2857142857142</ele><time>2026-04-23T11:55:41.519Z</time></trkpt><trkpt lat="43.4868602" lon="11.3757682"><ele>524.8571428571429</ele><time>2026-04-23T11:55:42.527Z</time></trkpt><trkpt lat="43.4868968" lon="11.3758521"><ele>523.4285714285714</ele><time>2026-04-23T11:55:43.532Z</time></trkpt><trkpt lat="43.4869196" lon="11.3759451"><ele>522.0</ele><time>2026-04-23T11:55:44.522Z</time></trkpt><trkpt lat="43.4869299" lon="11.3760454"><ele>522.0</ele><time>2026-04-23T11:55:45.522Z</time></trkpt><trkpt lat="43.4869234" lon="11.3761494"><ele>522.0</ele><time>2026-04-23T11:55:46.527Z</time></trkpt><trkpt lat="43.486912" lon="11.3762583"><ele>522.0</ele><time>2026-04-23T11:55:47.526Z</time></trkpt><trkpt lat="43.4869021" lon="11.3763722"><ele>522.0</ele><time>2026-04-23T11:55:48.524Z</time></trkpt><trkpt lat="43.4868898" lon="11.3764912"><ele>522.0</ele><time>2026-04-23T11:55:49.511Z</time></trkpt><trkpt lat="43.4868765" lon="11.3766147"><ele>522.0</ele><time>2026-04-23T11:55:50.522Z</time></trkpt><trkpt lat="43.4868637" lon="11.3767435"><ele>520.6</ele><time>2026-04-23T11:55:51.522Z</time></trkpt><trkpt lat="43.486855" lon="11.376877"><ele>519.2</ele><time>2026-04-23T11:55:52.54Z</time></trkpt><trkpt lat="43.4868433" lon="11.3770151"><ele>517.8</ele><time>2026-04-23T11:55:53.521Z</time></trkpt><trkpt lat="43.486831" lon="11.3771615"><ele>516.4</ele><time>2026-04-23T11:55:54.522Z</time></trkpt><trkpt lat="43.4868214" lon="11.3773068"><ele>515.0</ele><time>2026-04-23T11:55:55.52Z</time></trkpt><trkpt lat="43.4868141" lon="11.3774477"><ele>515.0</ele><time>2026-04-23T11:55:56.522Z</time></trkpt><trkpt lat="43.4868108" lon="11.3775851"><ele>515.0</ele><time>2026-04-23T11:55:57.536Z</time></trkpt><trkpt lat="43.4868095" lon="11.3777208"><ele>515.0</ele><time>2026-04-23T11:55:58.53Z</time></trkpt><trkpt lat="43.4868131" lon="11.377862"><ele>515.0</ele><time>2026-04-23T11:55:59.525Z</time></trkpt><trkpt lat="43.4868263" lon="11.3780058"><ele>515.0</ele><time>2026-04-23T11:56:00.522Z</time></trkpt><trkpt lat="43.4868519" lon="11.378145"><ele>515.8</ele><time>2026-04-23T11:56:01.519Z</time></trkpt><trkpt lat="43.4868833" lon="11.3782755"><ele>516.6</ele><time>2026-04-23T11:56:02.526Z</time></trkpt><trkpt lat="43.4869196" lon="11.3783957"><ele>517.4</ele><time>2026-04-23T11:56:03.529Z</time></trkpt><trkpt lat="43.4869598" lon="11.3785046"><ele>518.2</ele><time>2026-04-23T11:56:04.532Z</time></trkpt><trkpt lat="43.4870101" lon="11.3786053"><ele>519.0</ele><time>2026-04-23T11:56:05.536Z</time></trkpt><trkpt lat="43.4871047" lon="11.3787269"><ele>515.75</ele><time>2026-04-23T11:56:06.519Z</time></trkpt><trkpt lat="43.487181" lon="11.3788717"><ele>512.5</ele><time>2026-04-23T11:56:07.521Z</time></trkpt><trkpt lat="43.4872599" lon="11.3790212"><ele>509.25</ele><time>2026-04-23T11:56:08.521Z</time></trkpt><trkpt lat="43.4873397" lon="11.3791638"><ele>506.0</ele><time>2026-04-23T11:56:09.52Z</time></trkpt><trkpt lat="43.4874152" lon="11.379299"><ele>506.0</ele><time>2026-04-23T11:56:10.522Z</time></trkpt><trkpt lat="43.4874903" lon="11.379425"><ele>506.0</ele><time>2026-04-23T11:56:11.523Z</time></trkpt><trkpt lat="43.4875714" lon="11.3795272"><ele>506.0</ele><time>2026-04-23T11:56:12.532Z</time></trkpt><trkpt lat="43.487659" lon="11.3796152"><ele>506.0</ele><time>2026-04-23T11:56:13.52Z</time></trkpt><trkpt lat="43.487744" lon="11.3797085"><ele>506.0</ele><time>2026-04-23T11:56:14.523Z</time></trkpt><trkpt lat="43.4878129" lon="11.3798296"><ele>505.25</ele><time>2026-04-23T11:56:15.532Z</time></trkpt><trkpt lat="43.487857" lon="11.3799879"><ele>504.5</ele><time>2026-04-23T11:56:16.527Z</time></trkpt><trkpt lat="43.4878739" lon="11.3801879"><ele>503.75</ele><time>2026-04-23T11:56:17.533Z</time></trkpt><trkpt lat="43.487878" lon="11.3804268"><ele>503.0</ele><time>2026-04-23T11:56:18.519Z</time></trkpt><trkpt lat="43.4878995" lon="11.380684"><ele>497.3333333333333</ele><time>2026-04-23T11:56:19.522Z</time></trkpt><trkpt lat="43.4879361" lon="11.3809507"><ele>491.66666666666663</ele><time>2026-04-23T11:56:20.526Z</time></trkpt><trkpt lat="43.487989" lon="11.3812114"><ele>486.0</ele><time>2026-04-23T11:56:21.513Z</time></trkpt><trkpt lat="43.4880527" lon="11.3814517"><ele>486.0</ele><time>2026-04-23T11:56:22.53Z</time></trkpt><trkpt lat="43.488129" lon="11.3816626"><ele>486.0</ele><time>2026-04-23T11:56:23.522Z</time></trkpt><trkpt lat="43.4882129" lon="11.3818469"><ele>486.0</ele><time>2026-04-23T11:56:24.53Z</time></trkpt><trkpt lat="43.4882966" lon="11.3820136"><ele>486.0</ele><time>2026-04-23T11:56:25.521Z</time></trkpt><trkpt lat="43.4883804" lon="11.3821814"><ele>486.0</ele><time>2026-04-23T11:56:26.521Z</time></trkpt><trkpt lat="43.4884719" lon="11.3823363"><ele>486.0</ele><time>2026-04-23T11:56:27.532Z</time></trkpt><trkpt lat="43.4885714" lon="11.3824898"><ele>486.0</ele><time>2026-04-23T11:56:28.53Z</time></trkpt><trkpt lat="43.4886941" lon="11.3826284"><ele>483.33333333333337</ele><time>2026-04-23T11:56:29.542Z</time></trkpt><trkpt lat="43.4888274" lon="11.3827523"><ele>480.6666666666667</ele><time>2026-04-23T11:56:30.536Z</time></trkpt><trkpt lat="43.4889723" lon="11.3828679"><ele>478.0</ele><time>2026-04-23T11:56:31.539Z</time></trkpt><trkpt lat="43.4891147" lon="11.3829925"><ele>475.33333333333337</ele><time>2026-04-23T11:56:32.522Z</time></trkpt><trkpt lat="43.4892503" lon="11.3831246"><ele>472.66666666666663</ele><time>2026-04-23T11:56:33.523Z</time></trkpt><trkpt lat="43.4893753" lon="11.3832623"><ele>470.0</ele><time>2026-04-23T11:56:34.534Z</time></trkpt><trkpt lat="43.4894969" lon="11.3834064"><ele>467.66666666666663</ele><time>2026-04-23T11:56:35.533Z</time></trkpt><trkpt lat="43.4896232" lon="11.3835429"><ele>465.33333333333337</ele><time>2026-04-23T11:56:36.54Z</time></trkpt><trkpt lat="43.4897475" lon="11.3836752"><ele>463.0</ele><time>2026-04-23T11:56:37.523Z</time></trkpt><trkpt lat="43.4898584" lon="11.3838106"><ele>463.0</ele><time>2026-04-23T11:56:38.524Z</time></trkpt><trkpt lat="43.4899471" lon="11.3839555"><ele>463.0</ele><time>2026-04-23T11:56:39.528Z</time></trkpt><trkpt lat="43.4900095" lon="11.3841122"><ele>463.0</ele><time>2026-04-23T11:56:40.533Z</time></trkpt><trkpt lat="43.4900398" lon="11.3842908"><ele>463.0</ele><time>2026-04-23T11:56:41.529Z</time></trkpt><trkpt lat="43.4900466" lon="11.3844941"><ele>461.75</ele><time>2026-04-23T11:56:42.523Z</time></trkpt><trkpt lat="43.4900643" lon="11.3847092"><ele>460.5</ele><time>2026-04-23T11:56:43.52Z</time></trkpt><trkpt lat="43.490107" lon="11.384905"><ele>459.25</ele><time>2026-04-23T11:56:44.521Z</time></trkpt><trkpt lat="43.4901779" lon="11.3850668"><ele>458.0</ele><time>2026-04-23T11:56:45.529Z</time></trkpt><trkpt lat="43.4902474" lon="11.3851929"><ele>458.0</ele><time>2026-04-23T11:56:46.515Z</time></trkpt><trkpt lat="43.4903006" lon="11.3853164"><ele>457.99999999999994</ele><time>2026-04-23T11:56:47.521Z</time></trkpt><trkpt lat="43.4903087" lon="11.3854638"><ele>457.99999999999994</ele><time>2026-04-23T11:56:48.514Z</time></trkpt><trkpt lat="43.4903004" lon="11.3856174"><ele>458.0</ele><time>2026-04-23T11:56:49.515Z</time></trkpt><trkpt lat="43.4902943" lon="11.3857542"><ele>458.0</ele><time>2026-04-23T11:56:50.522Z</time></trkpt><trkpt lat="43.4902827" lon="11.3858715"><ele>458.16666666666663</ele><time>2026-04-23T11:56:51.52Z</time></trkpt><trkpt lat="43.4902617" lon="11.3859738"><ele>458.3333333333333</ele><time>2026-04-23T11:56:52.516Z</time></trkpt><trkpt lat="43.4901957" lon="11.3861231"><ele>458.5</ele><time>2026-04-23T11:56:54.515Z</time></trkpt><trkpt lat="43.4901401" lon="11.3861824"><ele>458.66666666666663</ele><time>2026-04-23T11:56:55.519Z</time></trkpt><trkpt lat="43.4900759" lon="11.3862366"><ele>458.8333333333333</ele><time>2026-04-23T11:56:56.511Z</time></trkpt><trkpt lat="43.4900137" lon="11.3862732"><ele>459.0</ele><time>2026-04-23T11:56:57.512Z</time></trkpt><trkpt lat="43.4899124" lon="11.386277"><ele>459.0</ele><time>2026-04-23T11:56:59.514Z</time></trkpt><trkpt lat="43.4898117" lon="11.3862125"><ele>459.0</ele><time>2026-04-23T11:57:01.515Z</time></trkpt><trkpt lat="43.489733" lon="11.386174"><ele>459.0</ele><time>2026-04-23T11:57:02.513Z</time></trkpt><trkpt lat="43.4896663" lon="11.3861792"><ele>459.0</ele><time>2026-04-23T11:57:03.515Z</time></trkpt><trkpt lat="43.4896368" lon="11.386262"><ele>459.0</ele><time>2026-04-23T11:57:04.517Z</time></trkpt><trkpt lat="43.4896197" lon="11.3863891"><ele>459.0</ele><time>2026-04-23T11:57:05.516Z</time></trkpt><trkpt lat="43.4896042" lon="11.3865465"><ele>456.25</ele><time>2026-04-23T11:57:06.52Z</time></trkpt><trkpt lat="43.489592" lon="11.3867335"><ele>453.5</ele><time>2026-04-23T11:57:07.517Z</time></trkpt><trkpt lat="43.4895639" lon="11.3869077"><ele>450.75</ele><time>2026-04-23T11:57:08.522Z</time></trkpt><trkpt lat="43.4895474" lon="11.3870824"><ele>448.0</ele><time>2026-04-23T11:57:09.517Z</time></trkpt><trkpt lat="43.4895268" lon="11.387251"><ele>448.0</ele><time>2026-04-23T11:57:10.518Z</time></trkpt><trkpt lat="43.4895095" lon="11.3874157"><ele>448.0</ele><time>2026-04-23T11:57:11.518Z</time></trkpt><trkpt lat="43.4894979" lon="11.3875791"><ele>448.0</ele><time>2026-04-23T11:57:12.521Z</time></trkpt><trkpt lat="43.4894805" lon="11.3877388"><ele>448.0</ele><time>2026-04-23T11:57:13.514Z</time></trkpt><trkpt lat="43.4894625" lon="11.3879011"><ele>448.75</ele><time>2026-04-23T11:57:14.516Z</time></trkpt><trkpt lat="43.4894412" lon="11.3880651"><ele>449.5</ele><time>2026-04-23T11:57:15.516Z</time></trkpt><trkpt lat="43.4894218" lon="11.3882334"><ele>450.25</ele><time>2026-04-23T11:57:16.511Z</time></trkpt><trkpt lat="43.4893989" lon="11.3884047"><ele>451.0</ele><time>2026-04-23T11:57:17.514Z</time></trkpt><trkpt lat="43.4893765" lon="11.3885833"><ele>451.0</ele><time>2026-04-23T11:57:18.518Z</time></trkpt><trkpt lat="43.4893514" lon="11.3887639"><ele>451.0</ele><time>2026-04-23T11:57:19.52Z</time></trkpt><trkpt lat="43.4893079" lon="11.3889348"><ele>451.0</ele><time>2026-04-23T11:57:20.513Z</time></trkpt><trkpt lat="43.4892657" lon="11.3890988"><ele>451.0</ele><time>2026-04-23T11:57:21.51Z</time></trkpt><trkpt lat="43.489251" lon="11.3892679"><ele>451.5</ele><time>2026-04-23T11:57:22.524Z</time></trkpt><trkpt lat="43.4892723" lon="11.3894374"><ele>452.0</ele><time>2026-04-23T11:57:23.519Z</time></trkpt><trkpt lat="43.4893254" lon="11.3896044"><ele>452.5</ele><time>2026-04-23T11:57:24.522Z</time></trkpt><trkpt lat="43.4893887" lon="11.3897644"><ele>453.0</ele><time>2026-04-23T11:57:25.523Z</time></trkpt><trkpt lat="43.4894508" lon="11.3899192"><ele>453.0</ele><time>2026-04-23T11:57:26.519Z</time></trkpt><trkpt lat="43.48951" lon="11.3900798"><ele>453.0</ele><time>2026-04-23T11:57:27.524Z</time></trkpt><trkpt lat="43.4895725" lon="11.3902541"><ele>453.0</ele><time>2026-04-23T11:57:28.513Z</time></trkpt><trkpt lat="43.4896391" lon="11.3904401"><ele>453.0</ele><time>2026-04-23T11:57:29.512Z</time></trkpt><trkpt lat="43.489718" lon="11.3906307"><ele>454.5</ele><time>2026-04-23T11:57:30.517Z</time></trkpt><trkpt lat="43.4898056" lon="11.3908069"><ele>456.0</ele><time>2026-04-23T11:57:31.518Z</time></trkpt><trkpt lat="43.4899002" lon="11.3909598"><ele>457.5</ele><time>2026-04-23T11:57:32.524Z</time></trkpt><trkpt lat="43.4900099" lon="11.3910981"><ele>459.0</ele><time>2026-04-23T11:57:33.52Z</time></trkpt><trkpt lat="43.49011" lon="11.3912337"><ele>458.25</ele><time>2026-04-23T11:57:34.527Z</time></trkpt><trkpt lat="43.4901933" lon="11.3913853"><ele>457.5</ele><time>2026-04-23T11:57:35.517Z</time></trkpt><trkpt lat="43.4902385" lon="11.3915632"><ele>456.75</ele><time>2026-04-23T11:57:36.514Z</time></trkpt><trkpt lat="43.4902347" lon="11.3917705"><ele>456.0</ele><time>2026-04-23T11:57:37.524Z</time></trkpt><trkpt lat="43.4902113" lon="11.392"><ele>456.33333333333337</ele><time>2026-04-23T11:57:38.519Z</time></trkpt><trkpt lat="43.490197" lon="11.3922313"><ele>456.6666666666667</ele><time>2026-04-23T11:57:39.519Z</time></trkpt><trkpt lat="43.4902028" lon="11.3924512"><ele>457.0</ele><time>2026-04-23T11:57:40.523Z</time></trkpt><trkpt lat="43.49023" lon="11.3926605"><ele>457.0</ele><time>2026-04-23T11:57:41.518Z</time></trkpt><trkpt lat="43.4902822" lon="11.3928743"><ele>457.0</ele><time>2026-04-23T11:57:42.515Z</time></trkpt><trkpt lat="43.4903489" lon="11.3930842"><ele>457.0</ele><time>2026-04-23T11:57:43.517Z</time></trkpt><trkpt lat="43.4904007" lon="11.3932909"><ele>457.75</ele><time>2026-04-23T11:57:44.513Z</time></trkpt><trkpt lat="43.4904221" lon="11.3934916"><ele>458.5</ele><time>2026-04-23T11:57:45.521Z</time></trkpt><trkpt lat="43.4904048" lon="11.3936825"><ele>459.25</ele><time>2026-04-23T11:57:46.517Z</time></trkpt><trkpt lat="43.4903433" lon="11.3938568"><ele>460.0</ele><time>2026-04-23T11:57:47.515Z</time></trkpt><trkpt lat="43.4902529" lon="11.3940162"><ele>461.33333333333337</ele><time>2026-04-23T11:57:48.515Z</time></trkpt><trkpt lat="43.4901659" lon="11.3941792"><ele>462.66666666666663</ele><time>2026-04-23T11:57:49.517Z</time></trkpt><trkpt lat="43.4900952" lon="11.3943671"><ele>464.0</ele><time>2026-04-23T11:57:50.52Z</time></trkpt><trkpt lat="43.4900543" lon="11.3945845"><ele>465.66666666666663</ele><time>2026-04-23T11:57:51.522Z</time></trkpt><trkpt lat="43.4900456" lon="11.394833"><ele>467.33333333333337</ele><time>2026-04-23T11:57:52.512Z</time></trkpt><trkpt lat="43.4900688" lon="11.3951053"><ele>469.0</ele><time>2026-04-23T11:57:53.518Z</time></trkpt><trkpt lat="43.4900879" lon="11.3953803"><ele>470.33333333333337</ele><time>2026-04-23T11:57:54.52Z</time></trkpt><trkpt lat="43.4900912" lon="11.3956482"><ele>471.66666666666663</ele><time>2026-04-23T11:57:55.522Z</time></trkpt><trkpt lat="43.4900764" lon="11.3959111"><ele>473.0</ele><time>2026-04-23T11:57:56.515Z</time></trkpt><trkpt lat="43.4900414" lon="11.3961564"><ele>473.0</ele><time>2026-04-23T11:57:57.517Z</time></trkpt><trkpt lat="43.4899836" lon="11.3963726"><ele>473.0</ele><time>2026-04-23T11:57:58.515Z</time></trkpt><trkpt lat="43.4899007" lon="11.3965456"><ele>473.0</ele><time>2026-04-23T11:57:59.524Z</time></trkpt><trkpt lat="43.4897915" lon="11.3966872"><ele>473.0</ele><time>2026-04-23T11:58:00.517Z</time></trkpt><trkpt lat="43.4896742" lon="11.3968198"><ele>473.0</ele><time>2026-04-23T11:58:01.518Z</time></trkpt><trkpt lat="43.4895653" lon="11.3969743"><ele>473.0</ele><time>2026-04-23T11:58:02.513Z</time></trkpt><trkpt lat="43.4894566" lon="11.3971617"><ele>478.66666666666663</ele><time>2026-04-23T11:58:03.521Z</time></trkpt><trkpt lat="43.4893532" lon="11.3973718"><ele>484.33333333333337</ele><time>2026-04-23T11:58:04.521Z</time></trkpt><trkpt lat="43.4892443" lon="11.3975839"><ele>490.0</ele><time>2026-04-23T11:58:05.514Z</time></trkpt><trkpt lat="43.4891415" lon="11.3978046"><ele>488.0</ele><time>2026-04-23T11:58:06.52Z</time></trkpt><trkpt lat="43.4890443" lon="11.3980285"><ele>486.0</ele><time>2026-04-23T11:58:07.517Z</time></trkpt><trkpt lat="43.4889506" lon="11.3982512"><ele>484.0</ele><time>2026-04-23T11:58:08.517Z</time></trkpt><trkpt lat="43.4888547" lon="11.3984753"><ele>489.33333333333337</ele><time>2026-04-23T11:58:09.515Z</time></trkpt><trkpt lat="43.4887531" lon="11.3986981"><ele>494.66666666666663</ele><time>2026-04-23T11:58:10.518Z</time></trkpt><trkpt lat="43.4886469" lon="11.3989217"><ele>500.0</ele><time>2026-04-23T11:58:11.518Z</time></trkpt><trkpt lat="43.4885482" lon="11.3991434"><ele>500.0</ele><time>2026-04-23T11:58:12.512Z</time></trkpt><trkpt lat="43.4884558" lon="11.3993459"><ele>500.0</ele><time>2026-04-23T11:58:13.514Z</time></trkpt><trkpt lat="43.4883596" lon="11.399529"><ele>500.0</ele><time>2026-04-23T11:58:14.515Z</time></trkpt><trkpt lat="43.488235" lon="11.3996715"><ele>500.3333333333333</ele><time>2026-04-23T11:58:15.512Z</time></trkpt><trkpt lat="43.4880842" lon="11.3997642"><ele>500.66666666666663</ele><time>2026-04-23T11:58:16.513Z</time></trkpt><trkpt lat="43.4879279" lon="11.3998106"><ele>501.0</ele><time>2026-04-23T11:58:17.519Z</time></trkpt><trkpt lat="43.4877944" lon="11.3997958"><ele>501.0</ele><time>2026-04-23T11:58:18.514Z</time></trkpt><trkpt lat="43.4876829" lon="11.3997742"><ele>501.0</ele><time>2026-04-23T11:58:19.511Z</time></trkpt><trkpt lat="43.4875875" lon="11.3997924"><ele>501.0</ele><time>2026-04-23T11:58:20.519Z</time></trkpt><trkpt lat="43.4875168" lon="11.3998794"><ele>501.0</ele><time>2026-04-23T11:58:21.516Z</time></trkpt><trkpt lat="43.4875046" lon="11.4000707"><ele>501.0</ele><time>2026-04-23T11:58:22.52Z</time></trkpt><trkpt lat="43.4875041" lon="11.4002933"><ele>502.33333333333337</ele><time>2026-04-23T11:58:23.52Z</time></trkpt><trkpt lat="43.4875078" lon="11.4005367"><ele>503.6666666666667</ele><time>2026-04-23T11:58:24.514Z</time></trkpt><trkpt lat="43.4875133" lon="11.4007854"><ele>505.0</ele><time>2026-04-23T11:58:25.513Z</time></trkpt><trkpt lat="43.487505" lon="11.4010146"><ele>505.0</ele><time>2026-04-23T11:58:26.521Z</time></trkpt><trkpt lat="43.4874953" lon="11.4012097"><ele>505.0</ele><time>2026-04-23T11:58:27.515Z</time></trkpt><trkpt lat="43.4875144" lon="11.4013454"><ele>505.0</ele><time>2026-04-23T11:58:28.521Z</time></trkpt><trkpt lat="43.4875719" lon="11.4014009"><ele>505.0</ele><time>2026-04-23T11:58:29.511Z</time></trkpt><trkpt lat="43.4876402" lon="11.4014034"><ele>505.0</ele><time>2026-04-23T11:58:30.517Z</time></trkpt><trkpt lat="43.487718" lon="11.4013003"><ele>505.0</ele><time>2026-04-23T11:58:31.515Z</time></trkpt><trkpt lat="43.4877966" lon="11.4011332"><ele>505.0</ele><time>2026-04-23T11:58:32.512Z</time></trkpt><trkpt lat="43.4878752" lon="11.4009561"><ele>505.0</ele><time>2026-04-23T11:58:33.519Z</time></trkpt><trkpt lat="43.4879649" lon="11.4007752"><ele>507.0</ele><time>2026-04-23T11:58:34.52Z</time></trkpt><trkpt lat="43.4880839" lon="11.4006486"><ele>509.0</ele><time>2026-04-23T11:58:35.518Z</time></trkpt><trkpt lat="43.4882195" lon="11.4005901"><ele>511.0</ele><time>2026-04-23T11:58:36.514Z</time></trkpt><trkpt lat="43.4883597" lon="11.4005732"><ele>513.0</ele><time>2026-04-23T11:58:37.516Z</time></trkpt><trkpt lat="43.4885158" lon="11.4006791"><ele>513.0</ele><time>2026-04-23T11:58:38.515Z</time></trkpt><trkpt lat="43.4886698" lon="11.4008146"><ele>513.0</ele><time>2026-04-23T11:58:39.511Z</time></trkpt><trkpt lat="43.4887964" lon="11.4009594"><ele>513.0</ele><time>2026-04-23T11:58:40.509Z</time></trkpt><trkpt lat="43.4889031" lon="11.4011535"><ele>512.6666666666666</ele><time>2026-04-23T11:58:41.517Z</time></trkpt><trkpt lat="43.4889496" lon="11.4014211"><ele>512.3333333333333</ele><time>2026-04-23T11:58:42.512Z</time></trkpt><trkpt lat="43.4889459" lon="11.4016421"><ele>512.0</ele><time>2026-04-23T11:58:43.514Z</time></trkpt><trkpt lat="43.4888859" lon="11.4018845"><ele>512.0</ele><time>2026-04-23T11:58:44.513Z</time></trkpt><trkpt lat="43.4888021" lon="11.4021235"><ele>512.0</ele><time>2026-04-23T11:58:45.513Z</time></trkpt><trkpt lat="43.4887373" lon="11.4023766"><ele>512.0</ele><time>2026-04-23T11:58:46.514Z</time></trkpt><trkpt lat="43.4886988" lon="11.4026488"><ele>519.6666666666666</ele><time>2026-04-23T11:58:47.513Z</time></trkpt><trkpt lat="43.4886825" lon="11.402932"><ele>527.3333333333334</ele><time>2026-04-23T11:58:48.509Z</time></trkpt><trkpt lat="43.4886837" lon="11.4032126"><ele>535.0</ele><time>2026-04-23T11:58:49.514Z</time></trkpt><trkpt lat="43.4887047" lon="11.4034929"><ele>536.0</ele><time>2026-04-23T11:58:50.512Z</time></trkpt><trkpt lat="43.4887158" lon="11.4037661"><ele>537.0</ele><time>2026-04-23T11:58:51.516Z</time></trkpt><trkpt lat="43.4886977" lon="11.404028"><ele>538.0</ele><time>2026-04-23T11:58:52.513Z</time></trkpt><trkpt lat="43.4886742" lon="11.4042909"><ele>538.3333333333334</ele><time>2026-04-23T11:58:53.515Z</time></trkpt><trkpt lat="43.4886815" lon="11.4045535"><ele>538.6666666666666</ele><time>2026-04-23T11:58:54.519Z</time></trkpt><trkpt lat="43.4887472" lon="11.4048076"><ele>539.0</ele><time>2026-04-23T11:58:55.516Z</time></trkpt><trkpt lat="43.4888507" lon="11.4050579"><ele>537.3333333333333</ele><time>2026-04-23T11:58:56.514Z</time></trkpt><trkpt lat="43.4889406" lon="11.405311"><ele>535.6666666666666</ele><time>2026-04-23T11:58:57.516Z</time></trkpt><trkpt lat="43.4890035" lon="11.4055737"><ele>534.0</ele><time>2026-04-23T11:58:58.515Z</time></trkpt><trkpt lat="43.4890537" lon="11.4058507"><ele>534.0</ele><time>2026-04-23T11:58:59.52Z</time></trkpt><trkpt lat="43.4891082" lon="11.4061345"><ele>534.0</ele><time>2026-04-23T11:59:00.516Z</time></trkpt><trkpt lat="43.4891801" lon="11.4064022"><ele>534.0</ele><time>2026-04-23T11:59:01.52Z</time></trkpt><trkpt lat="43.4892797" lon="11.4066458"><ele>534.0</ele><time>2026-04-23T11:59:02.513Z</time></trkpt><trkpt lat="43.4894073" lon="11.4068587"><ele>534.0</ele><time>2026-04-23T11:59:03.522Z</time></trkpt><trkpt lat="43.4895501" lon="11.4070473"><ele>534.0</ele><time>2026-04-23T11:59:04.516Z</time></trkpt><trkpt lat="43.4896939" lon="11.4072185"><ele>536.0</ele><time>2026-04-23T11:59:05.517Z</time></trkpt><trkpt lat="43.4898132" lon="11.4073953"><ele>538.0</ele><time>2026-04-23T11:59:06.513Z</time></trkpt><trkpt lat="43.4899108" lon="11.4075675"><ele>540.0</ele><time>2026-04-23T11:59:07.517Z</time></trkpt><trkpt lat="43.4899725" lon="11.4077476"><ele>540.0</ele><time>2026-04-23T11:59:08.526Z</time></trkpt><trkpt lat="43.4899989" lon="11.4079464"><ele>540.0</ele><time>2026-04-23T11:59:09.516Z</time></trkpt><trkpt lat="43.4900109" lon="11.4081722"><ele>540.0</ele><time>2026-04-23T11:59:10.518Z</time></trkpt><trkpt lat="43.4900176" lon="11.4084044"><ele>540.6666666666666</ele><time>2026-04-23T11:59:11.518Z</time></trkpt><trkpt lat="43.4900197" lon="11.408642"><ele>541.3333333333333</ele><time>2026-04-23T11:59:12.516Z</time></trkpt><trkpt lat="43.4900152" lon="11.4088817"><ele>542.0</ele><time>2026-04-23T11:59:13.524Z</time></trkpt><trkpt lat="43.4900025" lon="11.409126"><ele>543.3333333333333</ele><time>2026-04-23T11:59:14.516Z</time></trkpt><trkpt lat="43.4899817" lon="11.4093733"><ele>544.6666666666666</ele><time>2026-04-23T11:59:15.519Z</time></trkpt><trkpt lat="43.4899625" lon="11.4096213"><ele>546.0</ele><time>2026-04-23T11:59:16.514Z</time></trkpt><trkpt lat="43.4899425" lon="11.4098704"><ele>546.6666666666666</ele><time>2026-04-23T11:59:17.516Z</time></trkpt><trkpt lat="43.4899006" lon="11.410121"><ele>547.3333333333333</ele><time>2026-04-23T11:59:18.522Z</time></trkpt><trkpt lat="43.4898308" lon="11.4103569"><ele>548.0</ele><time>2026-04-23T11:59:19.515Z</time></trkpt><trkpt lat="43.4897206" lon="11.4105793"><ele>548.3333333333333</ele><time>2026-04-23T11:59:20.512Z</time></trkpt><trkpt lat="43.4895879" lon="11.4107772"><ele>548.6666666666666</ele><time>2026-04-23T11:59:21.516Z</time></trkpt><trkpt lat="43.4894604" lon="11.4109527"><ele>549.0</ele><time>2026-04-23T11:59:22.521Z</time></trkpt><trkpt lat="43.489366" lon="11.4111326"><ele>550.0</ele><time>2026-04-23T11:59:23.516Z</time></trkpt><trkpt lat="43.4893211" lon="11.411325"><ele>551.0</ele><time>2026-04-23T11:59:24.516Z</time></trkpt><trkpt lat="43.4893509" lon="11.4115468"><ele>552.0</ele><time>2026-04-23T11:59:25.513Z</time></trkpt><trkpt lat="43.4894259" lon="11.4118007"><ele>552.0</ele><time>2026-04-23T11:59:26.51Z</time></trkpt><trkpt lat="43.4895263" lon="11.4120306"><ele>552.0</ele><time>2026-04-23T11:59:27.526Z</time></trkpt><trkpt lat="43.489675" lon="11.4122334"><ele>552.0</ele><time>2026-04-23T11:59:28.513Z</time></trkpt><trkpt lat="43.4898647" lon="11.4124022"><ele>555.0</ele><time>2026-04-23T11:59:29.519Z</time></trkpt><trkpt lat="43.490063" lon="11.4125762"><ele>558.0</ele><time>2026-04-23T11:59:30.514Z</time></trkpt><trkpt lat="43.4902496" lon="11.4127697"><ele>558.0</ele><time>2026-04-23T11:59:31.522Z</time></trkpt><trkpt lat="43.490413" lon="11.4129764"><ele>558.0</ele><time>2026-04-23T11:59:32.523Z</time></trkpt><trkpt lat="43.4905365" lon="11.413194"><ele>558.0</ele><time>2026-04-23T11:59:33.516Z</time></trkpt><trkpt lat="43.4906072" lon="11.413421"><ele>556.3333333333334</ele><time>2026-04-23T11:59:34.523Z</time></trkpt><trkpt lat="43.490632" lon="11.4136569"><ele>554.6666666666667</ele><time>2026-04-23T11:59:35.517Z</time></trkpt><trkpt lat="43.4906" lon="11.4139075"><ele>553.0</ele><time>2026-04-23T11:59:36.52Z</time></trkpt><trkpt lat="43.4905352" lon="11.4141675"><ele>553.0</ele><time>2026-04-23T11:59:37.522Z</time></trkpt><trkpt lat="43.4904779" lon="11.4144325"><ele>553.0</ele><time>2026-04-23T11:59:38.516Z</time></trkpt><trkpt lat="43.4904246" lon="11.4147012"><ele>553.0</ele><time>2026-04-23T11:59:39.522Z</time></trkpt><trkpt lat="43.490376" lon="11.4149789"><ele>553.3333333333334</ele><time>2026-04-23T11:59:40.517Z</time></trkpt><trkpt lat="43.4903226" lon="11.4152658"><ele>553.6666666666666</ele><time>2026-04-23T11:59:41.521Z</time></trkpt><trkpt lat="43.4902569" lon="11.4155611"><ele>554.0</ele><time>2026-04-23T11:59:42.517Z</time></trkpt><trkpt lat="43.4901901" lon="11.4158642"><ele>555.0</ele><time>2026-04-23T11:59:43.515Z</time></trkpt><trkpt lat="43.4901212" lon="11.4161664"><ele>556.0</ele><time>2026-04-23T11:59:44.515Z</time></trkpt><trkpt lat="43.4900612" lon="11.4164712"><ele>558.0</ele><time>2026-04-23T11:59:45.527Z</time></trkpt><trkpt lat="43.4900317" lon="11.4167748"><ele>560.0</ele><time>2026-04-23T11:59:46.52Z</time></trkpt><trkpt lat="43.4900532" lon="11.4170698"><ele>562.0</ele><time>2026-04-23T11:59:47.52Z</time></trkpt><trkpt lat="43.490116" lon="11.4173545"><ele>563.0</ele><time>2026-04-23T11:59:48.526Z</time></trkpt><trkpt lat="43.490196" lon="11.4176123"><ele>564.0</ele><time>2026-04-23T11:59:49.516Z</time></trkpt><trkpt lat="43.4902925" lon="11.4178371"><ele>565.0</ele><time>2026-04-23T11:59:50.512Z</time></trkpt><trkpt lat="43.4904118" lon="11.4180086"><ele>565.75</ele><time>2026-04-23T11:59:51.51Z</time></trkpt><trkpt lat="43.4905527" lon="11.418112"><ele>566.5</ele><time>2026-04-23T11:59:52.521Z</time></trkpt><trkpt lat="43.4907001" lon="11.4181585"><ele>567.25</ele><time>2026-04-23T11:59:53.512Z</time></trkpt><trkpt lat="43.4908198" lon="11.4181873"><ele>568.0</ele><time>2026-04-23T11:59:54.514Z</time></trkpt><trkpt lat="43.4909013" lon="11.4182183"><ele>568.0</ele><time>2026-04-23T11:59:55.521Z</time></trkpt><trkpt lat="43.4909809" lon="11.4183527"><ele>568.0</ele><time>2026-04-23T11:59:57.518Z</time></trkpt><trkpt lat="43.4909941" lon="11.4184649"><ele>568.0</ele><time>2026-04-23T11:59:58.518Z</time></trkpt><trkpt lat="43.4909927" lon="11.4185964"><ele>568.0</ele><time>2026-04-23T11:59:59.52Z</time></trkpt><trkpt lat="43.4909838" lon="11.4187388"><ele>568.0</ele><time>2026-04-23T12:00:00.517Z</time></trkpt><trkpt lat="43.4909805" lon="11.4188928"><ele>566.75</ele><time>2026-04-23T12:00:01.516Z</time></trkpt><trkpt lat="43.4909881" lon="11.419053"><ele>565.5</ele><time>2026-04-23T12:00:02.515Z</time></trkpt><trkpt lat="43.491014" lon="11.4192145"><ele>564.25</ele><time>2026-04-23T12:00:03.514Z</time></trkpt><trkpt lat="43.4910516" lon="11.4193754"><ele>563.0</ele><time>2026-04-23T12:00:04.515Z</time></trkpt><trkpt lat="43.4910906" lon="11.4195357"><ele>561.5</ele><time>2026-04-23T12:00:05.516Z</time></trkpt><trkpt lat="43.4911245" lon="11.4196995"><ele>560.0</ele><time>2026-04-23T12:00:06.522Z</time></trkpt><trkpt lat="43.4911587" lon="11.4198695"><ele>558.5</ele><time>2026-04-23T12:00:07.518Z</time></trkpt><trkpt lat="43.4911908" lon="11.4200471"><ele>557.0</ele><time>2026-04-23T12:00:08.522Z</time></trkpt><trkpt lat="43.4912214" lon="11.4202314"><ele>557.0</ele><time>2026-04-23T12:00:09.514Z</time></trkpt><trkpt lat="43.4912487" lon="11.4204117"><ele>557.0</ele><time>2026-04-23T12:00:10.525Z</time></trkpt><trkpt lat="43.4912707" lon="11.4205809"><ele>557.0</ele><time>2026-04-23T12:00:11.518Z</time></trkpt><trkpt lat="43.4912891" lon="11.4207351"><ele>557.0</ele><time>2026-04-23T12:00:12.516Z</time></trkpt><trkpt lat="43.4913102" lon="11.4208828"><ele>557.5</ele><time>2026-04-23T12:00:13.517Z</time></trkpt><trkpt lat="43.491316" lon="11.4210083"><ele>558.0</ele><time>2026-04-23T12:00:14.513Z</time></trkpt><trkpt lat="43.4913018" lon="11.4210994"><ele>558.5</ele><time>2026-04-23T12:00:15.517Z</time></trkpt><trkpt lat="43.4912548" lon="11.4211669"><ele>559.0</ele><time>2026-04-23T12:00:16.511Z</time></trkpt><trkpt lat="43.4911852" lon="11.421208"><ele>559.5</ele><time>2026-04-23T12:00:17.512Z</time></trkpt><trkpt lat="43.4910987" lon="11.4212228"><ele>560.0</ele><time>2026-04-23T12:00:18.512Z</time></trkpt><trkpt lat="43.4910062" lon="11.4212201"><ele>560.0</ele><time>2026-04-23T12:00:19.514Z</time></trkpt><trkpt lat="43.490891" lon="11.421228"><ele>560.0</ele><time>2026-04-23T12:00:20.516Z</time></trkpt><trkpt lat="43.4907604" lon="11.4212609"><ele>560.0</ele><time>2026-04-23T12:00:21.509Z</time></trkpt><trkpt lat="43.4906152" lon="11.4213035"><ele>560.0</ele><time>2026-04-23T12:00:22.512Z</time></trkpt><trkpt lat="43.4904672" lon="11.421343"><ele>562.0</ele><time>2026-04-23T12:00:23.516Z</time></trkpt><trkpt lat="43.490331" lon="11.4213824"><ele>564.0</ele><time>2026-04-23T12:00:24.513Z</time></trkpt><trkpt lat="43.4902068" lon="11.421425"><ele>566.0</ele><time>2026-04-23T12:00:25.513Z</time></trkpt><trkpt lat="43.4900862" lon="11.4214691"><ele>568.0</ele><time>2026-04-23T12:00:26.509Z</time></trkpt><trkpt lat="43.4899682" lon="11.4215113"><ele>568.0</ele><time>2026-04-23T12:00:27.511Z</time></trkpt><trkpt lat="43.4898546" lon="11.4215522"><ele>568.0</ele><time>2026-04-23T12:00:28.51Z</time></trkpt><trkpt lat="43.4897451" lon="11.421598"><ele>568.0</ele><time>2026-04-23T12:00:29.511Z</time></trkpt><trkpt lat="43.48964" lon="11.4216558"><ele>568.0</ele><time>2026-04-23T12:00:30.516Z</time></trkpt><trkpt lat="43.4895398" lon="11.4217169"><ele>564.8</ele><time>2026-04-23T12:00:31.512Z</time></trkpt><trkpt lat="43.4894416" lon="11.4217869"><ele>561.5999999999999</ele><time>2026-04-23T12:00:32.514Z</time></trkpt><trkpt lat="43.4893422" lon="11.4218441"><ele>558.4000000000001</ele><time>2026-04-23T12:00:33.517Z</time></trkpt><trkpt lat="43.4892499" lon="11.4218815"><ele>555.2</ele><time>2026-04-23T12:00:34.514Z</time></trkpt><trkpt lat="43.4891604" lon="11.4219055"><ele>552.0</ele><time>2026-04-23T12:00:35.518Z</time></trkpt><trkpt lat="43.4890744" lon="11.4219125"><ele>552.0</ele><time>2026-04-23T12:00:36.512Z</time></trkpt><trkpt lat="43.4889939" lon="11.421907"><ele>552.0</ele><time>2026-04-23T12:00:37.513Z</time></trkpt><trkpt lat="43.4889165" lon="11.4219081"><ele>552.0</ele><time>2026-04-23T12:00:38.512Z</time></trkpt><trkpt lat="43.4888393" lon="11.421927"><ele>552.0</ele><time>2026-04-23T12:00:39.516Z</time></trkpt><trkpt lat="43.4887598" lon="11.4219479"><ele>552.0</ele><time>2026-04-23T12:00:40.512Z</time></trkpt><trkpt lat="43.4886819" lon="11.4219755"><ele>552.0</ele><time>2026-04-23T12:00:41.512Z</time></trkpt><trkpt lat="43.4886035" lon="11.4220137"><ele>553.0</ele><time>2026-04-23T12:00:42.506Z</time></trkpt><trkpt lat="43.4885295" lon="11.4220632"><ele>554.0</ele><time>2026-04-23T12:00:43.507Z</time></trkpt><trkpt lat="43.4884606" lon="11.422122"><ele>555.0</ele><time>2026-04-23T12:00:44.511Z</time></trkpt><trkpt lat="43.4884034" lon="11.4221932"><ele>556.0</ele><time>2026-04-23T12:00:45.512Z</time></trkpt><trkpt lat="43.4883584" lon="11.4222782"><ele>557.0</ele><time>2026-04-23T12:00:46.513Z</time></trkpt><trkpt lat="43.4883258" lon="11.4223717"><ele>558.0</ele><time>2026-04-23T12:00:47.516Z</time></trkpt><trkpt lat="43.4883027" lon="11.422475"><ele>557.9999999999999</ele><time>2026-04-23T12:00:48.511Z</time></trkpt><trkpt lat="43.4882814" lon="11.4225824"><ele>558.0</ele><time>2026-04-23T12:00:49.512Z</time></trkpt><trkpt lat="43.4882552" lon="11.4226794"><ele>558.0</ele><time>2026-04-23T12:00:50.51Z</time></trkpt><trkpt lat="43.4882193" lon="11.4227605"><ele>558.0</ele><time>2026-04-23T12:00:51.51Z</time></trkpt><trkpt lat="43.4881685" lon="11.422812"><ele>558.0</ele><time>2026-04-23T12:00:52.516Z</time></trkpt><trkpt lat="43.4881065" lon="11.4228371"><ele>557.9999999999999</ele><time>2026-04-23T12:00:53.517Z</time></trkpt><trkpt lat="43.4880408" lon="11.4228251"><ele>558.0</ele><time>2026-04-23T12:00:54.509Z</time></trkpt><trkpt lat="43.4879757" lon="11.4227744"><ele>557.3333333333334</ele><time>2026-04-23T12:00:55.51Z</time></trkpt><trkpt lat="43.487915" lon="11.4227046"><ele>556.6666666666666</ele><time>2026-04-23T12:00:56.511Z</time></trkpt><trkpt lat="43.4878543" lon="11.4226316"><ele>556.0</ele><time>2026-04-23T12:00:57.507Z</time></trkpt><trkpt lat="43.4877896" lon="11.4225633"><ele>555.3333333333333</ele><time>2026-04-23T12:00:58.513Z</time></trkpt><trkpt lat="43.4877224" lon="11.4224995"><ele>554.6666666666666</ele><time>2026-04-23T12:00:59.508Z</time></trkpt><trkpt lat="43.4876484" lon="11.4224326"><ele>554.0</ele><time>2026-04-23T12:01:00.505Z</time></trkpt><trkpt lat="43.4875701" lon="11.4223594"><ele>554.0</ele><time>2026-04-23T12:01:01.504Z</time></trkpt><trkpt lat="43.4874908" lon="11.4222815"><ele>554.0</ele><time>2026-04-23T12:01:02.51Z</time></trkpt><trkpt lat="43.4874012" lon="11.4221973"><ele>554.0</ele><time>2026-04-23T12:01:03.51Z</time></trkpt><trkpt lat="43.4873065" lon="11.4221075"><ele>554.0</ele><time>2026-04-23T12:01:04.512Z</time></trkpt><trkpt lat="43.4872113" lon="11.4220074"><ele>554.0</ele><time>2026-04-23T12:01:05.508Z</time></trkpt><trkpt lat="43.4871247" lon="11.4218917"><ele>551.25</ele><time>2026-04-23T12:01:06.517Z</time></trkpt><trkpt lat="43.4870446" lon="11.4217626"><ele>548.5</ele><time>2026-04-23T12:01:07.509Z</time></trkpt><trkpt lat="43.4869637" lon="11.4216198"><ele>545.75</ele><time>2026-04-23T12:01:08.513Z</time></trkpt><trkpt lat="43.4868872" lon="11.4214753"><ele>543.0</ele><time>2026-04-23T12:01:09.515Z</time></trkpt><trkpt lat="43.4868145" lon="11.4213348"><ele>542.75</ele><time>2026-04-23T12:01:10.517Z</time></trkpt><trkpt lat="43.4867471" lon="11.421201"><ele>542.5</ele><time>2026-04-23T12:01:11.516Z</time></trkpt><trkpt lat="43.4866792" lon="11.4210705"><ele>542.25</ele><time>2026-04-23T12:01:12.51Z</time></trkpt><trkpt lat="43.4866156" lon="11.4209449"><ele>542.0</ele><time>2026-04-23T12:01:13.516Z</time></trkpt><trkpt lat="43.4865479" lon="11.4208211"><ele>542.0</ele><time>2026-04-23T12:01:14.515Z</time></trkpt><trkpt lat="43.486476" lon="11.4207031"><ele>542.0</ele><time>2026-04-23T12:01:15.525Z</time></trkpt><trkpt lat="43.4863961" lon="11.4205928"><ele>542.0</ele><time>2026-04-23T12:01:16.519Z</time></trkpt><trkpt lat="43.4863072" lon="11.4204968"><ele>542.0</ele><time>2026-04-23T12:01:17.522Z</time></trkpt><trkpt lat="43.4862197" lon="11.4204211"><ele>542.0</ele><time>2026-04-23T12:01:18.516Z</time></trkpt><trkpt lat="43.4861272" lon="11.4203544"><ele>543.0</ele><time>2026-04-23T12:01:19.514Z</time></trkpt><trkpt lat="43.4860324" lon="11.4202951"><ele>544.0</ele><time>2026-04-23T12:01:20.514Z</time></trkpt><trkpt lat="43.4859375" lon="11.4202361"><ele>545.0</ele><time>2026-04-23T12:01:21.513Z</time></trkpt><trkpt lat="43.4858417" lon="11.4201755"><ele>546.0</ele><time>2026-04-23T12:01:22.518Z</time></trkpt><trkpt lat="43.4857384" lon="11.4201199"><ele>547.0</ele><time>2026-04-23T12:01:23.52Z</time></trkpt><trkpt lat="43.4856303" lon="11.4200615"><ele>547.0</ele><time>2026-04-23T12:01:24.518Z</time></trkpt><trkpt lat="43.4855233" lon="11.4200054"><ele>547.0</ele><time>2026-04-23T12:01:25.517Z</time></trkpt><trkpt lat="43.4854135" lon="11.4199415"><ele>547.0</ele><time>2026-04-23T12:01:26.517Z</time></trkpt><trkpt lat="43.4853054" lon="11.4198792"><ele>547.0</ele><time>2026-04-23T12:01:27.512Z</time></trkpt><trkpt lat="43.4852026" lon="11.4198208"><ele>546.8000000000001</ele><time>2026-04-23T12:01:28.521Z</time></trkpt><trkpt lat="43.4851013" lon="11.4197673"><ele>546.6</ele><time>2026-04-23T12:01:29.518Z</time></trkpt><trkpt lat="43.4850005" lon="11.4197113"><ele>546.4000000000001</ele><time>2026-04-23T12:01:30.519Z</time></trkpt><trkpt lat="43.4849" lon="11.4196521"><ele>546.2</ele><time>2026-04-23T12:01:31.513Z</time></trkpt><trkpt lat="43.4848025" lon="11.4195957"><ele>546.0</ele><time>2026-04-23T12:01:32.518Z</time></trkpt><trkpt lat="43.4847078" lon="11.4195443"><ele>546.0</ele><time>2026-04-23T12:01:33.515Z</time></trkpt><trkpt lat="43.4846169" lon="11.4195017"><ele>546.0</ele><time>2026-04-23T12:01:34.515Z</time></trkpt><trkpt lat="43.4845303" lon="11.4194723"><ele>546.0</ele><time>2026-04-23T12:01:35.521Z</time></trkpt><trkpt lat="43.4844436" lon="11.4194542"><ele>546.0</ele><time>2026-04-23T12:01:36.522Z</time></trkpt><trkpt lat="43.4843545" lon="11.4194493"><ele>546.0</ele><time>2026-04-23T12:01:37.522Z</time></trkpt><trkpt lat="43.4842631" lon="11.4194618"><ele>546.4</ele><time>2026-04-23T12:01:38.526Z</time></trkpt><trkpt lat="43.4841712" lon="11.419491"><ele>546.8</ele><time>2026-04-23T12:01:39.524Z</time></trkpt><trkpt lat="43.48408" lon="11.4195312"><ele>547.1999999999999</ele><time>2026-04-23T12:01:40.512Z</time></trkpt><trkpt lat="43.4839879" lon="11.4195862"><ele>547.6</ele><time>2026-04-23T12:01:41.515Z</time></trkpt><trkpt lat="43.4838937" lon="11.4196436"><ele>548.0</ele><time>2026-04-23T12:01:42.516Z</time></trkpt><trkpt lat="43.4837933" lon="11.4197074"><ele>547.25</ele><time>2026-04-23T12:01:43.517Z</time></trkpt><trkpt lat="43.4836875" lon="11.4197758"><ele>546.5</ele><time>2026-04-23T12:01:44.517Z</time></trkpt><trkpt lat="43.4835779" lon="11.4198468"><ele>545.75</ele><time>2026-04-23T12:01:45.514Z</time></trkpt><trkpt lat="43.4834657" lon="11.4199189"><ele>545.0</ele><time>2026-04-23T12:01:46.515Z</time></trkpt><trkpt lat="43.4833508" lon="11.4199929"><ele>545.0</ele><time>2026-04-23T12:01:47.52Z</time></trkpt><trkpt lat="43.4832322" lon="11.4200697"><ele>545.0</ele><time>2026-04-23T12:01:48.517Z</time></trkpt><trkpt lat="43.4831103" lon="11.42015"><ele>545.0</ele><time>2026-04-23T12:01:49.517Z</time></trkpt><trkpt lat="43.4829925" lon="11.420222"><ele>545.0</ele><time>2026-04-23T12:01:50.525Z</time></trkpt><trkpt lat="43.4828784" lon="11.4202937"><ele>544.75</ele><time>2026-04-23T12:01:51.518Z</time></trkpt><trkpt lat="43.482767" lon="11.4203644"><ele>544.5</ele><time>2026-04-23T12:01:52.522Z</time></trkpt><trkpt lat="43.4826578" lon="11.4204376"><ele>544.25</ele><time>2026-04-23T12:01:53.515Z</time></trkpt><trkpt lat="43.4825489" lon="11.4205119"><ele>544.0</ele><time>2026-04-23T12:01:54.517Z</time></trkpt><trkpt lat="43.4824408" lon="11.420589"><ele>544.0</ele><time>2026-04-23T12:01:55.52Z</time></trkpt><trkpt lat="43.4823346" lon="11.4206694"><ele>544.0</ele><time>2026-04-23T12:01:56.513Z</time></trkpt><trkpt lat="43.4822284" lon="11.4207499"><ele>544.0</ele><time>2026-04-23T12:01:57.52Z</time></trkpt><trkpt lat="43.4821193" lon="11.4208325"><ele>544.0</ele><time>2026-04-23T12:01:58.515Z</time></trkpt><trkpt lat="43.4820069" lon="11.4209184"><ele>542.25</ele><time>2026-04-23T12:01:59.525Z</time></trkpt><trkpt lat="43.4818922" lon="11.4210035"><ele>540.5</ele><time>2026-04-23T12:02:00.516Z</time></trkpt><trkpt lat="43.48178" lon="11.421084"><ele>538.75</ele><time>2026-04-23T12:02:01.526Z</time></trkpt><trkpt lat="43.4816627" lon="11.4211679"><ele>537.0</ele><time>2026-04-23T12:02:02.522Z</time></trkpt><trkpt lat="43.4815495" lon="11.4212528"><ele>537.25</ele><time>2026-04-23T12:02:03.516Z</time></trkpt><trkpt lat="43.4814405" lon="11.4213384"><ele>537.5</ele><time>2026-04-23T12:02:04.521Z</time></trkpt><trkpt lat="43.4813346" lon="11.4214254"><ele>537.75</ele><time>2026-04-23T12:02:05.519Z</time></trkpt><trkpt lat="43.4812268" lon="11.4215174"><ele>538.0</ele><time>2026-04-23T12:02:06.525Z</time></trkpt><trkpt lat="43.4811155" lon="11.4216124"><ele>538.0</ele><time>2026-04-23T12:02:07.516Z</time></trkpt><trkpt lat="43.4809985" lon="11.4217105"><ele>538.0</ele><time>2026-04-23T12:02:08.525Z</time></trkpt><trkpt lat="43.4808808" lon="11.4218015"><ele>538.0</ele><time>2026-04-23T12:02:09.52Z</time></trkpt><trkpt lat="43.4807642" lon="11.4218859"><ele>538.0</ele><time>2026-04-23T12:02:10.516Z</time></trkpt><trkpt lat="43.4806523" lon="11.4219702"><ele>538.0</ele><time>2026-04-23T12:02:11.52Z</time></trkpt><trkpt lat="43.4805442" lon="11.4220516"><ele>538.0</ele><time>2026-04-23T12:02:12.523Z</time></trkpt><trkpt lat="43.4804356" lon="11.4221305"><ele>538.0</ele><time>2026-04-23T12:02:13.519Z</time></trkpt><trkpt lat="43.4803256" lon="11.4222098"><ele>538.0</ele><time>2026-04-23T12:02:14.528Z</time></trkpt><trkpt lat="43.4802204" lon="11.4222899"><ele>537.0</ele><time>2026-04-23T12:02:15.524Z</time></trkpt><trkpt lat="43.4801276" lon="11.4223691"><ele>536.0</ele><time>2026-04-23T12:02:16.521Z</time></trkpt><trkpt lat="43.4800455" lon="11.4224509"><ele>535.0</ele><time>2026-04-23T12:02:17.516Z</time></trkpt><trkpt lat="43.4799616" lon="11.4225431"><ele>534.0</ele><time>2026-04-23T12:02:18.526Z</time></trkpt><trkpt lat="43.4798813" lon="11.4226428"><ele>533.0</ele><time>2026-04-23T12:02:19.516Z</time></trkpt><trkpt lat="43.4798051" lon="11.4227371"><ele>533.0</ele><time>2026-04-23T12:02:20.52Z</time></trkpt><trkpt lat="43.4797333" lon="11.4228219"><ele>533.0</ele><time>2026-04-23T12:02:21.519Z</time></trkpt><trkpt lat="43.4796647" lon="11.4229017"><ele>533.0</ele><time>2026-04-23T12:02:22.517Z</time></trkpt><trkpt lat="43.4795928" lon="11.4229907"><ele>533.0</ele><time>2026-04-23T12:02:23.515Z</time></trkpt><trkpt lat="43.4795138" lon="11.4231063"><ele>533.0</ele><time>2026-04-23T12:02:24.517Z</time></trkpt><trkpt lat="43.4794296" lon="11.4232561"><ele>533.25</ele><time>2026-04-23T12:02:25.518Z</time></trkpt><trkpt lat="43.4793416" lon="11.4234323"><ele>533.5</ele><time>2026-04-23T12:02:26.52Z</time></trkpt><trkpt lat="43.4792556" lon="11.4236043"><ele>533.75</ele><time>2026-04-23T12:02:27.524Z</time></trkpt><trkpt lat="43.4791711" lon="11.4237586"><ele>534.0</ele><time>2026-04-23T12:02:28.511Z</time></trkpt><trkpt lat="43.4790812" lon="11.4238964"><ele>532.5</ele><time>2026-04-23T12:02:29.515Z</time></trkpt><trkpt lat="43.4789881" lon="11.4240224"><ele>531.0</ele><time>2026-04-23T12:02:30.52Z</time></trkpt><trkpt lat="43.4788887" lon="11.4241391"><ele>529.5</ele><time>2026-04-23T12:02:31.519Z</time></trkpt><trkpt lat="43.478783" lon="11.4242374"><ele>528.0</ele><time>2026-04-23T12:02:32.518Z</time></trkpt><trkpt lat="43.4786671" lon="11.4243211"><ele>526.5</ele><time>2026-04-23T12:02:33.52Z</time></trkpt><trkpt lat="43.4785434" lon="11.4243955"><ele>525.0</ele><time>2026-04-23T12:02:34.517Z</time></trkpt><trkpt lat="43.4784222" lon="11.4244703"><ele>523.5</ele><time>2026-04-23T12:02:35.52Z</time></trkpt><trkpt lat="43.4783144" lon="11.4245417"><ele>522.0</ele><time>2026-04-23T12:02:36.515Z</time></trkpt><trkpt lat="43.4782225" lon="11.4245986"><ele>521.3333333333334</ele><time>2026-04-23T12:02:37.523Z</time></trkpt><trkpt lat="43.4781468" lon="11.4246477"><ele>520.6666666666666</ele><time>2026-04-23T12:02:38.516Z</time></trkpt><trkpt lat="43.4780858" lon="11.4246885"><ele>520.0</ele><time>2026-04-23T12:02:39.518Z</time></trkpt><trkpt lat="43.4779985" lon="11.4246937"><ele>519.3333333333333</ele><time>2026-04-23T12:02:41.521Z</time></trkpt><trkpt lat="43.4779047" lon="11.4245894"><ele>518.6666666666666</ele><time>2026-04-23T12:02:43.52Z</time></trkpt><trkpt lat="43.4778587" lon="11.4245136"><ele>518.0</ele><time>2026-04-23T12:02:44.516Z</time></trkpt><trkpt lat="43.4778188" lon="11.4244397"><ele>515.5</ele><time>2026-04-23T12:02:45.514Z</time></trkpt><trkpt lat="43.4777535" lon="11.424292"><ele>513.0</ele><time>2026-04-23T12:02:47.518Z</time></trkpt><trkpt lat="43.4776946" lon="11.424193"><ele>510.5</ele><time>2026-04-23T12:02:48.521Z</time></trkpt><trkpt lat="43.477599" lon="11.4240472"><ele>508.0</ele><time>2026-04-23T12:02:49.523Z</time></trkpt><trkpt lat="43.4774737" lon="11.4238661"><ele>508.0</ele><time>2026-04-23T12:02:50.523Z</time></trkpt><trkpt lat="43.477339" lon="11.4236726"><ele>508.0</ele><time>2026-04-23T12:02:51.514Z</time></trkpt><trkpt lat="43.477215" lon="11.4234885"><ele>508.0</ele><time>2026-04-23T12:02:52.517Z</time></trkpt><trkpt lat="43.4771018" lon="11.4233236"><ele>507.5</ele><time>2026-04-23T12:02:53.518Z</time></trkpt><trkpt lat="43.4769916" lon="11.4231803"><ele>507.0</ele><time>2026-04-23T12:02:54.517Z</time></trkpt><trkpt lat="43.4768905" lon="11.423046"><ele>506.5</ele><time>2026-04-23T12:02:55.524Z</time></trkpt><trkpt lat="43.4767918" lon="11.4229454"><ele>506.0</ele><time>2026-04-23T12:02:56.518Z</time></trkpt><trkpt lat="43.4766864" lon="11.4228613"><ele>506.0</ele><time>2026-04-23T12:02:57.515Z</time></trkpt><trkpt lat="43.4765718" lon="11.4227886"><ele>506.0</ele><time>2026-04-23T12:02:58.516Z</time></trkpt><trkpt lat="43.4764275" lon="11.4227081"><ele>506.0</ele><time>2026-04-23T12:02:59.516Z</time></trkpt><trkpt lat="43.4762727" lon="11.42262"><ele>506.0</ele><time>2026-04-23T12:03:00.524Z</time></trkpt><trkpt lat="43.4761305" lon="11.422533"><ele>506.0</ele><time>2026-04-23T12:03:01.521Z</time></trkpt><trkpt lat="43.4760081" lon="11.4224589"><ele>506.0</ele><time>2026-04-23T12:03:02.523Z</time></trkpt><trkpt lat="43.4759025" lon="11.4224019"><ele>506.0</ele><time>2026-04-23T12:03:03.517Z</time></trkpt><trkpt lat="43.4758026" lon="11.4223615"><ele>506.0</ele><time>2026-04-23T12:03:04.518Z</time></trkpt><trkpt lat="43.4756894" lon="11.4223397"><ele>506.0</ele><time>2026-04-23T12:03:05.524Z</time></trkpt><trkpt lat="43.4755688" lon="11.4223397"><ele>506.0</ele><time>2026-04-23T12:03:06.517Z</time></trkpt><trkpt lat="43.4754479" lon="11.4223713"><ele>506.0</ele><time>2026-04-23T12:03:07.518Z</time></trkpt><trkpt lat="43.4753034" lon="11.4224337"><ele>506.0</ele><time>2026-04-23T12:03:08.522Z</time></trkpt><trkpt lat="43.4751628" lon="11.4225253"><ele>508.75</ele><time>2026-04-23T12:03:09.521Z</time></trkpt><trkpt lat="43.4750314" lon="11.4226085"><ele>511.5</ele><time>2026-04-23T12:03:10.524Z</time></trkpt><trkpt lat="43.4749101" lon="11.4226652"><ele>514.25</ele><time>2026-04-23T12:03:11.516Z</time></trkpt><trkpt lat="43.4747891" lon="11.4226829"><ele>517.0</ele><time>2026-04-23T12:03:12.524Z</time></trkpt><trkpt lat="43.47466" lon="11.4226563"><ele>518.0</ele><time>2026-04-23T12:03:13.515Z</time></trkpt><trkpt lat="43.4745166" lon="11.4226038"><ele>519.0</ele><time>2026-04-23T12:03:14.521Z</time></trkpt><trkpt lat="43.4743555" lon="11.4225352"><ele>520.0</ele><time>2026-04-23T12:03:15.523Z</time></trkpt><trkpt lat="43.4741711" lon="11.4224669"><ele>520.0</ele><time>2026-04-23T12:03:16.521Z</time></trkpt><trkpt lat="43.4739875" lon="11.4224161"><ele>520.0</ele><time>2026-04-23T12:03:17.528Z</time></trkpt><trkpt lat="43.4738269" lon="11.4223761"><ele>520.0</ele><time>2026-04-23T12:03:18.515Z</time></trkpt><trkpt lat="43.4736851" lon="11.4223386"><ele>519.5</ele><time>2026-04-23T12:03:19.513Z</time></trkpt><trkpt lat="43.4735456" lon="11.4222947"><ele>519.0</ele><time>2026-04-23T12:03:20.517Z</time></trkpt><trkpt lat="43.4734009" lon="11.4222377"><ele>518.5</ele><time>2026-04-23T12:03:21.515Z</time></trkpt><trkpt lat="43.4732635" lon="11.4221733"><ele>518.0</ele><time>2026-04-23T12:03:22.527Z</time></trkpt><trkpt lat="43.4731338" lon="11.4221015"><ele>517.6666666666666</ele><time>2026-04-23T12:03:23.527Z</time></trkpt><trkpt lat="43.4730097" lon="11.4220025"><ele>517.3333333333334</ele><time>2026-04-23T12:03:24.517Z</time></trkpt><trkpt lat="43.4728859" lon="11.421874"><ele>517.0</ele><time>2026-04-23T12:03:25.524Z</time></trkpt><trkpt lat="43.472761" lon="11.4217123"><ele>517.0</ele><time>2026-04-23T12:03:26.522Z</time></trkpt><trkpt lat="43.4726384" lon="11.4215509"><ele>517.0</ele><time>2026-04-23T12:03:27.514Z</time></trkpt><trkpt lat="43.4725142" lon="11.4214164"><ele>517.0</ele><time>2026-04-23T12:03:28.514Z</time></trkpt><trkpt lat="43.4723842" lon="11.4213116"><ele>517.25</ele><time>2026-04-23T12:03:29.52Z</time></trkpt><trkpt lat="43.4722568" lon="11.4212322"><ele>517.5</ele><time>2026-04-23T12:03:30.523Z</time></trkpt><trkpt lat="43.4721364" lon="11.4211754"><ele>517.75</ele><time>2026-04-23T12:03:31.52Z</time></trkpt><trkpt lat="43.4720163" lon="11.421126"><ele>518.0</ele><time>2026-04-23T12:03:32.519Z</time></trkpt><trkpt lat="43.4719022" lon="11.4210716"><ele>519.3333333333333</ele><time>2026-04-23T12:03:33.533Z</time></trkpt><trkpt lat="43.4717887" lon="11.4209814"><ele>520.6666666666666</ele><time>2026-04-23T12:03:34.532Z</time></trkpt><trkpt lat="43.4716702" lon="11.4208494"><ele>522.0</ele><time>2026-04-23T12:03:35.52Z</time></trkpt><trkpt lat="43.471554" lon="11.4206741"><ele>522.0</ele><time>2026-04-23T12:03:36.52Z</time></trkpt><trkpt lat="43.4714523" lon="11.4204991"><ele>522.0</ele><time>2026-04-23T12:03:37.525Z</time></trkpt><trkpt lat="43.4713583" lon="11.420329"><ele>522.0</ele><time>2026-04-23T12:03:38.519Z</time></trkpt><trkpt lat="43.471272" lon="11.4201687"><ele>519.75</ele><time>2026-04-23T12:03:39.524Z</time></trkpt><trkpt lat="43.4711902" lon="11.4200145"><ele>517.5</ele><time>2026-04-23T12:03:40.525Z</time></trkpt><trkpt lat="43.4711141" lon="11.4198674"><ele>515.25</ele><time>2026-04-23T12:03:41.515Z</time></trkpt><trkpt lat="43.4710364" lon="11.4197326"><ele>513.0</ele><time>2026-04-23T12:03:42.522Z</time></trkpt><trkpt lat="43.4709549" lon="11.4196081"><ele>511.25</ele><time>2026-04-23T12:03:43.523Z</time></trkpt><trkpt lat="43.4708703" lon="11.4194907"><ele>509.5</ele><time>2026-04-23T12:03:44.518Z</time></trkpt><trkpt lat="43.4707869" lon="11.4193734"><ele>507.75</ele><time>2026-04-23T12:03:45.513Z</time></trkpt><trkpt lat="43.4707076" lon="11.4192498"><ele>506.0</ele><time>2026-04-23T12:03:46.52Z</time></trkpt><trkpt lat="43.4706346" lon="11.4191208"><ele>506.0</ele><time>2026-04-23T12:03:47.517Z</time></trkpt><trkpt lat="43.4705658" lon="11.4189875"><ele>506.0</ele><time>2026-04-23T12:03:48.52Z</time></trkpt><trkpt lat="43.4704979" lon="11.4188548"><ele>506.0</ele><time>2026-04-23T12:03:49.519Z</time></trkpt><trkpt lat="43.4704285" lon="11.4187339"><ele>506.0</ele><time>2026-04-23T12:03:50.521Z</time></trkpt><trkpt lat="43.4703697" lon="11.4186326"><ele>506.0</ele><time>2026-04-23T12:03:51.513Z</time></trkpt><trkpt lat="43.4703174" lon="11.4185528"><ele>505.6</ele><time>2026-04-23T12:03:52.515Z</time></trkpt><trkpt lat="43.4702648" lon="11.4185006"><ele>505.20000000000005</ele><time>2026-04-23T12:03:53.516Z</time></trkpt><trkpt lat="43.4701572" lon="11.4185053"><ele>504.79999999999995</ele><time>2026-04-23T12:03:55.52Z</time></trkpt><trkpt lat="43.4701141" lon="11.4185777"><ele>504.4</ele><time>2026-04-23T12:03:56.521Z</time></trkpt><trkpt lat="43.4700659" lon="11.418691"><ele>504.0</ele><time>2026-04-23T12:03:57.522Z</time></trkpt><trkpt lat="43.4700018" lon="11.4188307"><ele>504.0</ele><time>2026-04-23T12:03:58.528Z</time></trkpt><trkpt lat="43.4699289" lon="11.4189852"><ele>504.0</ele><time>2026-04-23T12:03:59.519Z</time></trkpt><trkpt lat="43.4698453" lon="11.4191321"><ele>504.0</ele><time>2026-04-23T12:04:00.523Z</time></trkpt><trkpt lat="43.4697652" lon="11.4192681"><ele>504.0</ele><time>2026-04-23T12:04:01.522Z</time></trkpt><trkpt lat="43.4696946" lon="11.4193965"><ele>504.0</ele><time>2026-04-23T12:04:02.52Z</time></trkpt><trkpt lat="43.4696506" lon="11.4195152"><ele>504.0</ele><time>2026-04-23T12:04:03.526Z</time></trkpt><trkpt lat="43.469649" lon="11.4196448"><ele>504.0</ele><time>2026-04-23T12:04:04.522Z</time></trkpt><trkpt lat="43.4696896" lon="11.4197886"><ele>504.0</ele><time>2026-04-23T12:04:05.52Z</time></trkpt><trkpt lat="43.4697571" lon="11.4199409"><ele>504.0</ele><time>2026-04-23T12:04:06.52Z</time></trkpt><trkpt lat="43.4698434" lon="11.4201084"><ele>503.0</ele><time>2026-04-23T12:04:07.521Z</time></trkpt><trkpt lat="43.469943" lon="11.4202864"><ele>502.0</ele><time>2026-04-23T12:04:08.532Z</time></trkpt><trkpt lat="43.4700481" lon="11.4204708"><ele>501.0</ele><time>2026-04-23T12:04:09.517Z</time></trkpt><trkpt lat="43.4701475" lon="11.4206564"><ele>498.25</ele><time>2026-04-23T12:04:10.522Z</time></trkpt><trkpt lat="43.4702356" lon="11.420833"><ele>495.5</ele><time>2026-04-23T12:04:11.52Z</time></trkpt><trkpt lat="43.4703092" lon="11.4209969"><ele>492.75</ele><time>2026-04-23T12:04:12.522Z</time></trkpt><trkpt lat="43.4703546" lon="11.4211536"><ele>490.0</ele><time>2026-04-23T12:04:13.513Z</time></trkpt><trkpt lat="43.4703583" lon="11.4213021"><ele>490.75</ele><time>2026-04-23T12:04:14.522Z</time></trkpt><trkpt lat="43.4703068" lon="11.4214415"><ele>491.5</ele><time>2026-04-23T12:04:15.515Z</time></trkpt><trkpt lat="43.4702119" lon="11.4215708"><ele>492.25</ele><time>2026-04-23T12:04:16.525Z</time></trkpt><trkpt lat="43.4700834" lon="11.4216775"><ele>493.0</ele><time>2026-04-23T12:04:17.521Z</time></trkpt><trkpt lat="43.4699263" lon="11.4217663"><ele>493.0</ele><time>2026-04-23T12:04:18.511Z</time></trkpt><trkpt lat="43.4697578" lon="11.4218596"><ele>493.0</ele><time>2026-04-23T12:04:19.525Z</time></trkpt><trkpt lat="43.4695964" lon="11.4219634"><ele>493.0</ele><time>2026-04-23T12:04:20.525Z</time></trkpt><trkpt lat="43.4694361" lon="11.4220703"><ele>492.0</ele><time>2026-04-23T12:04:21.516Z</time></trkpt><trkpt lat="43.4692826" lon="11.4221735"><ele>491.0</ele><time>2026-04-23T12:04:22.517Z</time></trkpt><trkpt lat="43.4691326" lon="11.4222759"><ele>490.0</ele><time>2026-04-23T12:04:23.519Z</time></trkpt><trkpt lat="43.4689873" lon="11.4223795"><ele>490.0</ele><time>2026-04-23T12:04:24.526Z</time></trkpt><trkpt lat="43.4688484" lon="11.4224799"><ele>490.0</ele><time>2026-04-23T12:04:25.522Z</time></trkpt><trkpt lat="43.4687165" lon="11.4225789"><ele>490.0</ele><time>2026-04-23T12:04:26.515Z</time></trkpt><trkpt lat="43.4685921" lon="11.4226787"><ele>487.75</ele><time>2026-04-23T12:04:27.521Z</time></trkpt><trkpt lat="43.4684723" lon="11.42278"><ele>485.5</ele><time>2026-04-23T12:04:28.522Z</time></trkpt><trkpt lat="43.4683485" lon="11.4228711"><ele>483.25</ele><time>2026-04-23T12:04:29.52Z</time></trkpt><trkpt lat="43.4682234" lon="11.4229526"><ele>481.0</ele><time>2026-04-23T12:04:30.518Z</time></trkpt><trkpt lat="43.4680984" lon="11.4230224"><ele>481.0</ele><time>2026-04-23T12:04:31.529Z</time></trkpt><trkpt lat="43.4679749" lon="11.423079"><ele>481.0</ele><time>2026-04-23T12:04:32.521Z</time></trkpt><trkpt lat="43.4678544" lon="11.4231049"><ele>481.0</ele><time>2026-04-23T12:04:33.523Z</time></trkpt><trkpt lat="43.4677454" lon="11.4231179"><ele>481.0</ele><time>2026-04-23T12:04:34.521Z</time></trkpt><trkpt lat="43.4676623" lon="11.4231526"><ele>481.0</ele><time>2026-04-23T12:04:35.527Z</time></trkpt><trkpt lat="43.4676185" lon="11.4232174"><ele>480.6</ele><time>2026-04-23T12:04:36.526Z</time></trkpt><trkpt lat="43.4676072" lon="11.4233159"><ele>480.20000000000005</ele><time>2026-04-23T12:04:37.532Z</time></trkpt><trkpt lat="43.4676245" lon="11.4234335"><ele>479.79999999999995</ele><time>2026-04-23T12:04:38.52Z</time></trkpt><trkpt lat="43.4676739" lon="11.4235462"><ele>479.4</ele><time>2026-04-23T12:04:39.523Z</time></trkpt><trkpt lat="43.4677741" lon="11.423651"><ele>479.0</ele><time>2026-04-23T12:04:40.518Z</time></trkpt><trkpt lat="43.4679058" lon="11.4237547"><ele>475.66666666666663</ele><time>2026-04-23T12:04:41.52Z</time></trkpt><trkpt lat="43.4680462" lon="11.423867"><ele>472.33333333333337</ele><time>2026-04-23T12:04:42.524Z</time></trkpt><trkpt lat="43.4681858" lon="11.4239883"><ele>469.0</ele><time>2026-04-23T12:04:43.525Z</time></trkpt><trkpt lat="43.4683137" lon="11.4241028"><ele>469.0</ele><time>2026-04-23T12:04:44.53Z</time></trkpt><trkpt lat="43.4684408" lon="11.4242053"><ele>469.0</ele><time>2026-04-23T12:04:45.521Z</time></trkpt><trkpt lat="43.4685772" lon="11.4242893"><ele>469.0</ele><time>2026-04-23T12:04:46.527Z</time></trkpt><trkpt lat="43.4687284" lon="11.4243425"><ele>468.33333333333337</ele><time>2026-04-23T12:04:47.522Z</time></trkpt><trkpt lat="43.468889" lon="11.4243618"><ele>467.66666666666663</ele><time>2026-04-23T12:04:48.517Z</time></trkpt><trkpt lat="43.469054" lon="11.4243738"><ele>467.0</ele><time>2026-04-23T12:04:49.527Z</time></trkpt><trkpt lat="43.4692159" lon="11.4243882"><ele>467.0</ele><time>2026-04-23T12:04:50.52Z</time></trkpt><trkpt lat="43.4693727" lon="11.4244128"><ele>467.0</ele><time>2026-04-23T12:04:51.518Z</time></trkpt><trkpt lat="43.4695206" lon="11.4244615"><ele>467.0</ele><time>2026-04-23T12:04:52.523Z</time></trkpt><trkpt lat="43.4696508" lon="11.4245393"><ele>465.25</ele><time>2026-04-23T12:04:53.517Z</time></trkpt><trkpt lat="43.4697571" lon="11.4246494"><ele>463.5</ele><time>2026-04-23T12:04:54.52Z</time></trkpt><trkpt lat="43.4698291" lon="11.4247947"><ele>461.75</ele><time>2026-04-23T12:04:55.52Z</time></trkpt><trkpt lat="43.4698611" lon="11.4249684"><ele>460.0</ele><time>2026-04-23T12:04:56.518Z</time></trkpt><trkpt lat="43.4698689" lon="11.4251707"><ele>460.0</ele><time>2026-04-23T12:04:57.514Z</time></trkpt><trkpt lat="43.4698603" lon="11.4253903"><ele>460.0</ele><time>2026-04-23T12:04:58.52Z</time></trkpt><trkpt lat="43.4698553" lon="11.4256141"><ele>460.0</ele><time>2026-04-23T12:04:59.525Z</time></trkpt><trkpt lat="43.4698577" lon="11.4258323"><ele>456.0</ele><time>2026-04-23T12:05:00.517Z</time></trkpt><trkpt lat="43.4698653" lon="11.4260442"><ele>452.0</ele><time>2026-04-23T12:05:01.522Z</time></trkpt><trkpt lat="43.4698692" lon="11.42625"><ele>448.0</ele><time>2026-04-23T12:05:02.52Z</time></trkpt><trkpt lat="43.4698665" lon="11.4264528"><ele>446.0</ele><time>2026-04-23T12:05:03.527Z</time></trkpt><trkpt lat="43.4698515" lon="11.4266522"><ele>444.0</ele><time>2026-04-23T12:05:04.513Z</time></trkpt><trkpt lat="43.4698218" lon="11.4268467"><ele>442.0</ele><time>2026-04-23T12:05:05.52Z</time></trkpt><trkpt lat="43.4697829" lon="11.4270388"><ele>440.0</ele><time>2026-04-23T12:05:06.525Z</time></trkpt><trkpt lat="43.4697355" lon="11.4272265"><ele>438.0</ele><time>2026-04-23T12:05:07.52Z</time></trkpt><trkpt lat="43.4696711" lon="11.4274065"><ele>436.0</ele><time>2026-04-23T12:05:08.53Z</time></trkpt><trkpt lat="43.4695929" lon="11.4275709"><ele>434.0</ele><time>2026-04-23T12:05:09.528Z</time></trkpt><trkpt lat="43.4694996" lon="11.4277226"><ele>432.0</ele><time>2026-04-23T12:05:10.523Z</time></trkpt><trkpt lat="43.4694082" lon="11.4278692"><ele>429.25</ele><time>2026-04-23T12:05:11.519Z</time></trkpt><trkpt lat="43.4693107" lon="11.4280147"><ele>426.5</ele><time>2026-04-23T12:05:12.527Z</time></trkpt><trkpt lat="43.4692123" lon="11.428163"><ele>423.75</ele><time>2026-04-23T12:05:13.527Z</time></trkpt><trkpt lat="43.4691113" lon="11.4283174"><ele>421.0</ele><time>2026-04-23T12:05:14.527Z</time></trkpt><trkpt lat="43.4690124" lon="11.4284725"><ele>421.0</ele><time>2026-04-23T12:05:15.515Z</time></trkpt><trkpt lat="43.4689181" lon="11.4286395"><ele>421.0</ele><time>2026-04-23T12:05:16.52Z</time></trkpt><trkpt lat="43.4688209" lon="11.4288034"><ele>421.0</ele><time>2026-04-23T12:05:17.522Z</time></trkpt><trkpt lat="43.4687237" lon="11.428966"><ele>417.75</ele><time>2026-04-23T12:05:18.524Z</time></trkpt><trkpt lat="43.4686263" lon="11.4291242"><ele>414.5</ele><time>2026-04-23T12:05:19.515Z</time></trkpt><trkpt lat="43.4685319" lon="11.4292757"><ele>411.25</ele><time>2026-04-23T12:05:20.517Z</time></trkpt><trkpt lat="43.4684416" lon="11.4294223"><ele>408.0</ele><time>2026-04-23T12:05:21.518Z</time></trkpt><trkpt lat="43.4683446" lon="11.4295555"><ele>406.75</ele><time>2026-04-23T12:05:22.513Z</time></trkpt><trkpt lat="43.4682396" lon="11.4296655"><ele>405.5</ele><time>2026-04-23T12:05:23.527Z</time></trkpt><trkpt lat="43.4681271" lon="11.4297521"><ele>404.25</ele><time>2026-04-23T12:05:24.517Z</time></trkpt><trkpt lat="43.4680033" lon="11.4298297"><ele>403.0</ele><time>2026-04-23T12:05:25.513Z</time></trkpt><trkpt lat="43.467869" lon="11.4299107"><ele>401.75</ele><time>2026-04-23T12:05:26.52Z</time></trkpt><trkpt lat="43.4677293" lon="11.4299928"><ele>400.5</ele><time>2026-04-23T12:05:27.518Z</time></trkpt><trkpt lat="43.4675994" lon="11.4300765"><ele>399.25</ele><time>2026-04-23T12:05:28.519Z</time></trkpt><trkpt lat="43.4674751" lon="11.4301576"><ele>398.0</ele><time>2026-04-23T12:05:29.517Z</time></trkpt><trkpt lat="43.4673596" lon="11.4302342"><ele>398.0</ele><time>2026-04-23T12:05:30.52Z</time></trkpt><trkpt lat="43.4672543" lon="11.4303065"><ele>398.0</ele><time>2026-04-23T12:05:31.516Z</time></trkpt><trkpt lat="43.4671542" lon="11.4303768"><ele>398.0</ele><time>2026-04-23T12:05:32.518Z</time></trkpt><trkpt lat="43.4670535" lon="11.4304461"><ele>398.0</ele><time>2026-04-23T12:05:33.518Z</time></trkpt><trkpt lat="43.4669497" lon="11.4305125"><ele>396.0</ele><time>2026-04-23T12:05:34.517Z</time></trkpt><trkpt lat="43.4668506" lon="11.4305833"><ele>394.0</ele><time>2026-04-23T12:05:35.515Z</time></trkpt><trkpt lat="43.4667591" lon="11.4306433"><ele>392.0</ele><time>2026-04-23T12:05:36.526Z</time></trkpt><trkpt lat="43.4666846" lon="11.4306887"><ele>390.0</ele><time>2026-04-23T12:05:37.521Z</time></trkpt><trkpt lat="43.4666298" lon="11.4307387"><ele>388.0</ele><time>2026-04-23T12:05:38.517Z</time></trkpt><trkpt lat="43.4665929" lon="11.4308975"><ele>388.0</ele><time>2026-04-23T12:05:40.523Z</time></trkpt><trkpt lat="43.466633" lon="11.4310111"><ele>388.0</ele><time>2026-04-23T12:05:41.514Z</time></trkpt><trkpt lat="43.4667114" lon="11.4311246"><ele>388.0</ele><time>2026-04-23T12:05:42.518Z</time></trkpt><trkpt lat="43.4668128" lon="11.431224"><ele>388.0</ele><time>2026-04-23T12:05:43.515Z</time></trkpt><trkpt lat="43.4669312" lon="11.4313036"><ele>385.0</ele><time>2026-04-23T12:05:44.518Z</time></trkpt><trkpt lat="43.467056" lon="11.4313582"><ele>382.0</ele><time>2026-04-23T12:05:45.519Z</time></trkpt><trkpt lat="43.4671783" lon="11.4313974"><ele>379.0</ele><time>2026-04-23T12:05:46.519Z</time></trkpt><trkpt lat="43.4672969" lon="11.4314368"><ele>376.0</ele><time>2026-04-23T12:05:47.52Z</time></trkpt><trkpt lat="43.4674108" lon="11.4314874"><ele>376.0</ele><time>2026-04-23T12:05:48.522Z</time></trkpt><trkpt lat="43.467518" lon="11.4315504"><ele>376.0</ele><time>2026-04-23T12:05:49.518Z</time></trkpt><trkpt lat="43.4676202" lon="11.4316283"><ele>376.0</ele><time>2026-04-23T12:05:50.519Z</time></trkpt><trkpt lat="43.4677162" lon="11.431714"><ele>376.0</ele><time>2026-04-23T12:05:51.522Z</time></trkpt><trkpt lat="43.467808" lon="11.431805"><ele>376.0</ele><time>2026-04-23T12:05:52.518Z</time></trkpt><trkpt lat="43.467899" lon="11.4318997"><ele>376.0</ele><time>2026-04-23T12:05:53.518Z</time></trkpt><trkpt lat="43.4679843" lon="11.431993"><ele>376.0</ele><time>2026-04-23T12:05:54.522Z</time></trkpt><trkpt lat="43.4680598" lon="11.4320852"><ele>376.0</ele><time>2026-04-23T12:05:55.517Z</time></trkpt><trkpt lat="43.4681248" lon="11.4321732"><ele>376.0</ele><time>2026-04-23T12:05:56.521Z</time></trkpt><trkpt lat="43.4681833" lon="11.4322624"><ele>374.0</ele><time>2026-04-23T12:05:57.516Z</time></trkpt><trkpt lat="43.468246" lon="11.4323494"><ele>372.0</ele><time>2026-04-23T12:05:58.517Z</time></trkpt><trkpt lat="43.4683084" lon="11.4324319"><ele>370.0</ele><time>2026-04-23T12:05:59.514Z</time></trkpt><trkpt lat="43.4683706" lon="11.4325217"><ele>368.0</ele><time>2026-04-23T12:06:00.521Z</time></trkpt><trkpt lat="43.4684203" lon="11.4326214"><ele>366.0</ele><time>2026-04-23T12:06:01.519Z</time></trkpt><trkpt lat="43.4684528" lon="11.4327342"><ele>364.0</ele><time>2026-04-23T12:06:02.528Z</time></trkpt><trkpt lat="43.4684737" lon="11.4328531"><ele>364.0</ele><time>2026-04-23T12:06:03.522Z</time></trkpt><trkpt lat="43.4684964" lon="11.4329645"><ele>364.0</ele><time>2026-04-23T12:06:04.521Z</time></trkpt><trkpt lat="43.4685181" lon="11.4330563"><ele>364.0</ele><time>2026-04-23T12:06:05.521Z</time></trkpt><trkpt lat="43.4685189" lon="11.4331766"><ele>364.0</ele><time>2026-04-23T12:06:07.524Z</time></trkpt><trkpt lat="43.4684367" lon="11.4332495"><ele>364.0</ele><time>2026-04-23T12:06:09.517Z</time></trkpt><trkpt lat="43.4683665" lon="11.4332827"><ele>364.0</ele><time>2026-04-23T12:06:10.516Z</time></trkpt><trkpt lat="43.4682891" lon="11.4333163"><ele>362.79999999999995</ele><time>2026-04-23T12:06:11.516Z</time></trkpt><trkpt lat="43.4682086" lon="11.4333677"><ele>361.59999999999997</ele><time>2026-04-23T12:06:12.514Z</time></trkpt><trkpt lat="43.4681294" lon="11.4334256"><ele>360.4</ele><time>2026-04-23T12:06:13.518Z</time></trkpt><trkpt lat="43.4680515" lon="11.4334975"><ele>359.2</ele><time>2026-04-23T12:06:14.514Z</time></trkpt><trkpt lat="43.4679761" lon="11.4335754"><ele>358.0</ele><time>2026-04-23T12:06:15.518Z</time></trkpt><trkpt lat="43.4679061" lon="11.4336566"><ele>357.5</ele><time>2026-04-23T12:06:16.515Z</time></trkpt><trkpt lat="43.4678389" lon="11.4337362"><ele>357.0</ele><time>2026-04-23T12:06:17.518Z</time></trkpt><trkpt lat="43.467771" lon="11.4338133"><ele>356.5</ele><time>2026-04-23T12:06:18.515Z</time></trkpt><trkpt lat="43.4677039" lon="11.4338865"><ele>356.0</ele><time>2026-04-23T12:06:19.515Z</time></trkpt><trkpt lat="43.4676383" lon="11.4339543"><ele>355.5</ele><time>2026-04-23T12:06:20.512Z</time></trkpt><trkpt lat="43.4675759" lon="11.4340169"><ele>355.0</ele><time>2026-04-23T12:06:21.518Z</time></trkpt><trkpt lat="43.4675185" lon="11.4340714"><ele>354.85714285714283</ele><time>2026-04-23T12:06:22.516Z</time></trkpt><trkpt lat="43.4674622" lon="11.4341188"><ele>354.7142857142857</ele><time>2026-04-23T12:06:23.515Z</time></trkpt><trkpt lat="43.4674013" lon="11.4341589"><ele>354.57142857142856</ele><time>2026-04-23T12:06:24.511Z</time></trkpt><trkpt lat="43.4673374" lon="11.4341913"><ele>354.42857142857144</ele><time>2026-04-23T12:06:25.52Z</time></trkpt><trkpt lat="43.467271" lon="11.4342217"><ele>354.2857142857143</ele><time>2026-04-23T12:06:26.515Z</time></trkpt><trkpt lat="43.4672016" lon="11.4342449"><ele>354.14285714285717</ele><time>2026-04-23T12:06:27.519Z</time></trkpt><trkpt lat="43.4671314" lon="11.4342636"><ele>354.0</ele><time>2026-04-23T12:06:28.515Z</time></trkpt><trkpt lat="43.4670601" lon="11.4342836"><ele>353.5</ele><time>2026-04-23T12:06:29.517Z</time></trkpt><trkpt lat="43.4669874" lon="11.4343026"><ele>353.0</ele><time>2026-04-23T12:06:30.515Z</time></trkpt><trkpt lat="43.4669164" lon="11.4343187"><ele>352.5</ele><time>2026-04-23T12:06:31.52Z</time></trkpt><trkpt lat="43.4668477" lon="11.4343308"><ele>352.0</ele><time>2026-04-23T12:06:32.516Z</time></trkpt><trkpt lat="43.466731" lon="11.4343521"><ele>351.5</ele><time>2026-04-23T12:06:34.518Z</time></trkpt><trkpt lat="43.4666253" lon="11.4343558"><ele>351.0</ele><time>2026-04-23T12:06:36.519Z</time></trkpt><trkpt lat="43.4665246" lon="11.4343423"><ele>351.0</ele><time>2026-04-23T12:06:38.516Z</time></trkpt><trkpt lat="43.4664274" lon="11.4343389"><ele>351.0</ele><time>2026-04-23T12:06:40.516Z</time></trkpt><trkpt lat="43.466329" lon="11.4343348"><ele>351.0</ele><time>2026-04-23T12:06:42.514Z</time></trkpt><trkpt lat="43.4662141" lon="11.4343225"><ele>351.0</ele><time>2026-04-23T12:06:44.514Z</time></trkpt><trkpt lat="43.4661508" lon="11.4343117"><ele>351.0</ele><time>2026-04-23T12:06:45.52Z</time></trkpt><trkpt lat="43.4660852" lon="11.4342959"><ele>351.0</ele><time>2026-04-23T12:06:46.513Z</time></trkpt><trkpt lat="43.4660162" lon="11.4342748"><ele>348.0</ele><time>2026-04-23T12:06:47.519Z</time></trkpt><trkpt lat="43.4659437" lon="11.4342493"><ele>348.0</ele><time>2026-04-23T12:06:48.516Z</time></trkpt><trkpt lat="43.4658692" lon="11.4342225"><ele>348.0</ele><time>2026-04-23T12:06:49.514Z</time></trkpt><trkpt lat="43.4657926" lon="11.4341931"><ele>348.0</ele><time>2026-04-23T12:06:50.52Z</time></trkpt><trkpt lat="43.4657188" lon="11.4341625"><ele>348.0</ele><time>2026-04-23T12:06:51.516Z</time></trkpt><trkpt lat="43.4656343" lon="11.4341005"><ele>348.0</ele><time>2026-04-23T12:06:53.518Z</time></trkpt></trkseg></trk></gpx>